<?xml version='1.0' encoding='UTF-8'?><gpx version="1.1" creator="JPX - https://github.com/jenetics/jpx" xmlns="http://www.topografix.com/GPX/1/1"><trk><trkseg><trkpt lat="43.505008" lon="10.6204418"><ele>304.0</ele><time>2026-04-18T06:56:06.464Z</time></trkpt><trkpt lat="43.5050816" lon="10.6204956"><ele>304.0</ele><time>2026-04-18T06:56:12.435Z</time></trkpt><trkpt lat="43.5050953" lon="10.6205823"><ele>304.0</ele><time>2026-04-18T06:56:27.434Z</time></trkpt><trkpt lat="43.504919" lon="10.6204125"><ele>304.0</ele><time>2026-04-18T06:57:34.43Z</time></trkpt><trkpt lat="43.5048412" lon="10.6204138"><ele>304.0</ele><time>2026-04-18T06:58:23.45Z</time></trkpt><trkpt lat="43.5047717" lon="10.6203803"><ele>304.8333333333333</ele><time>2026-04-18T06:58:27.449Z</time></trkpt><trkpt lat="43.5047653" lon="10.6202858"><ele>305.66666666666663</ele><time>2026-04-18T06:58:46.452Z</time></trkpt><trkpt lat="43.5047777" lon="10.6201906"><ele>306.5</ele><time>2026-04-18T06:59:12.452Z</time></trkpt><trkpt lat="43.504763" lon="10.6200976"><ele>307.3333333333333</ele><time>2026-04-18T06:59:15.44Z</time></trkpt><trkpt lat="43.5048247" lon="10.6200144"><ele>308.1666666666667</ele><time>2026-04-18T06:59:45.44Z</time></trkpt><trkpt lat="43.5049175" lon="10.6199228"><ele>309.0</ele><time>2026-04-18T06:59:47.448Z</time></trkpt><trkpt lat="43.505001" lon="10.6198354"><ele>309.0</ele><time>2026-04-18T06:59:49.451Z</time></trkpt><trkpt lat="43.5050523" lon="10.6197362"><ele>309.0</ele><time>2026-04-18T06:59:51.445Z</time></trkpt><trkpt lat="43.5050911" lon="10.6196454"><ele>309.0</ele><time>2026-04-18T06:59:53.456Z</time></trkpt><trkpt lat="43.5051188" lon="10.6195369"><ele>309.0</ele><time>2026-04-18T06:59:55.438Z</time></trkpt><trkpt lat="43.5051537" lon="10.6194104"><ele>309.0</ele><time>2026-04-18T06:59:57.442Z</time></trkpt><trkpt lat="43.5052067" lon="10.6193285"><ele>309.0</ele><time>2026-04-18T06:59:59.454Z</time></trkpt><trkpt lat="43.5052917" lon="10.6193162"><ele>309.5</ele><time>2026-04-18T07:00:01.457Z</time></trkpt><trkpt lat="43.5053978" lon="10.6193441"><ele>310.0</ele><time>2026-04-18T07:00:03.439Z</time></trkpt><trkpt lat="43.5054909" lon="10.6193787"><ele>310.5</ele><time>2026-04-18T07:00:05.446Z</time></trkpt><trkpt lat="43.5055509" lon="10.6194062"><ele>311.0</ele><time>2026-04-18T07:00:07.45Z</time></trkpt><trkpt lat="43.5056311" lon="10.6194402"><ele>311.5</ele><time>2026-04-18T07:00:10.458Z</time></trkpt><trkpt lat="43.5057156" lon="10.6194615"><ele>312.0</ele><time>2026-04-18T07:00:12.461Z</time></trkpt><trkpt lat="43.5058338" lon="10.6194331"><ele>310.0</ele><time>2026-04-18T07:00:14.473Z</time></trkpt><trkpt lat="43.5059007" lon="10.6194106"><ele>308.0</ele><time>2026-04-18T07:00:15.439Z</time></trkpt><trkpt lat="43.5059667" lon="10.6193947"><ele>306.0</ele><time>2026-04-18T07:00:16.458Z</time></trkpt><trkpt lat="43.50609" lon="10.6193591"><ele>304.0</ele><time>2026-04-18T07:00:18.46Z</time></trkpt><trkpt lat="43.5061524" lon="10.6193454"><ele>302.0</ele><time>2026-04-18T07:00:19.441Z</time></trkpt><trkpt lat="43.5062609" lon="10.6193207"><ele>300.0</ele><time>2026-04-18T07:00:21.448Z</time></trkpt><trkpt lat="43.5063674" lon="10.6192979"><ele>297.8</ele><time>2026-04-18T07:00:23.43Z</time></trkpt><trkpt lat="43.5064936" lon="10.6192988"><ele>295.6</ele><time>2026-04-18T07:00:25.44Z</time></trkpt><trkpt lat="43.5066119" lon="10.6193024"><ele>293.4</ele><time>2026-04-18T07:00:27.445Z</time></trkpt><trkpt lat="43.5067149" lon="10.6192644"><ele>291.2</ele><time>2026-04-18T07:00:29.441Z</time></trkpt><trkpt lat="43.5067961" lon="10.6192281"><ele>289.0</ele><time>2026-04-18T07:00:31.443Z</time></trkpt><trkpt lat="43.5068743" lon="10.6191903"><ele>289.0</ele><time>2026-04-18T07:00:33.446Z</time></trkpt><trkpt lat="43.5069737" lon="10.6190964"><ele>289.0</ele><time>2026-04-18T07:00:35.453Z</time></trkpt><trkpt lat="43.5070187" lon="10.6190288"><ele>289.0</ele><time>2026-04-18T07:00:36.449Z</time></trkpt><trkpt lat="43.5070695" lon="10.6189667"><ele>289.0</ele><time>2026-04-18T07:00:37.441Z</time></trkpt><trkpt lat="43.5071175" lon="10.6189091"><ele>289.0</ele><time>2026-04-18T07:00:38.463Z</time></trkpt><trkpt lat="43.507182" lon="10.6188506"><ele>289.0</ele><time>2026-04-18T07:00:39.446Z</time></trkpt><trkpt lat="43.5072509" lon="10.6187967"><ele>288.3333333333333</ele><time>2026-04-18T07:00:40.446Z</time></trkpt><trkpt lat="43.5073257" lon="10.6187516"><ele>287.66666666666663</ele><time>2026-04-18T07:00:41.44Z</time></trkpt><trkpt lat="43.5074017" lon="10.6187291"><ele>287.0</ele><time>2026-04-18T07:00:42.462Z</time></trkpt><trkpt lat="43.5074727" lon="10.6187098"><ele>286.3333333333333</ele><time>2026-04-18T07:00:43.445Z</time></trkpt><trkpt lat="43.5075438" lon="10.6186752"><ele>285.6666666666667</ele><time>2026-04-18T07:00:44.454Z</time></trkpt><trkpt lat="43.5076075" lon="10.6186186"><ele>285.0</ele><time>2026-04-18T07:00:45.437Z</time></trkpt><trkpt lat="43.5076663" lon="10.6185614"><ele>285.0</ele><time>2026-04-18T07:00:46.45Z</time></trkpt><trkpt lat="43.5077206" lon="10.6185026"><ele>285.0</ele><time>2026-04-18T07:00:47.447Z</time></trkpt><trkpt lat="43.5077677" lon="10.6184319"><ele>285.0</ele><time>2026-04-18T07:00:48.448Z</time></trkpt><trkpt lat="43.5078163" lon="10.6183596"><ele>285.0</ele><time>2026-04-18T07:00:49.444Z</time></trkpt><trkpt lat="43.5078648" lon="10.6182843"><ele>285.0</ele><time>2026-04-18T07:00:50.452Z</time></trkpt><trkpt lat="43.5079137" lon="10.6181972"><ele>285.0</ele><time>2026-04-18T07:00:51.442Z</time></trkpt><trkpt lat="43.5079599" lon="10.6181072"><ele>285.0</ele><time>2026-04-18T07:00:52.438Z</time></trkpt><trkpt lat="43.5080007" lon="10.6180054"><ele>285.8</ele><time>2026-04-18T07:00:53.442Z</time></trkpt><trkpt lat="43.5080403" lon="10.6178936"><ele>286.6</ele><time>2026-04-18T07:00:54.453Z</time></trkpt><trkpt lat="43.5080864" lon="10.6177814"><ele>287.4</ele><time>2026-04-18T07:00:55.438Z</time></trkpt><trkpt lat="43.5081341" lon="10.617675"><ele>288.2</ele><time>2026-04-18T07:00:56.449Z</time></trkpt><trkpt lat="43.5081705" lon="10.6175588"><ele>289.0</ele><time>2026-04-18T07:00:57.444Z</time></trkpt><trkpt lat="43.5082002" lon="10.6174486"><ele>289.0</ele><time>2026-04-18T07:00:58.44Z</time></trkpt><trkpt lat="43.5082292" lon="10.6173381"><ele>289.0</ele><time>2026-04-18T07:00:59.467Z</time></trkpt><trkpt lat="43.5082689" lon="10.6172511"><ele>289.0</ele><time>2026-04-18T07:01:00.465Z</time></trkpt><trkpt lat="43.5083146" lon="10.6171684"><ele>289.0</ele><time>2026-04-18T07:01:01.454Z</time></trkpt><trkpt lat="43.5083691" lon="10.6170698"><ele>289.0</ele><time>2026-04-18T07:01:02.445Z</time></trkpt><trkpt lat="43.5084317" lon="10.6169599"><ele>289.0</ele><time>2026-04-18T07:01:03.438Z</time></trkpt><trkpt lat="43.5085027" lon="10.6168602"><ele>289.59999999999997</ele><time>2026-04-18T07:01:04.448Z</time></trkpt><trkpt lat="43.5085916" lon="10.6167531"><ele>290.2</ele><time>2026-04-18T07:01:05.454Z</time></trkpt><trkpt lat="43.5086767" lon="10.6166631"><ele>290.79999999999995</ele><time>2026-04-18T07:01:06.443Z</time></trkpt><trkpt lat="43.5087531" lon="10.6165691"><ele>291.4</ele><time>2026-04-18T07:01:07.452Z</time></trkpt><trkpt lat="43.5088156" lon="10.6164854"><ele>292.0</ele><time>2026-04-18T07:01:08.451Z</time></trkpt><trkpt lat="43.5088758" lon="10.6164056"><ele>292.0</ele><time>2026-04-18T07:01:09.444Z</time></trkpt><trkpt lat="43.5089481" lon="10.6163406"><ele>292.0</ele><time>2026-04-18T07:01:11.442Z</time></trkpt><trkpt lat="43.5090375" lon="10.6164109"><ele>292.0</ele><time>2026-04-18T07:01:14.449Z</time></trkpt><trkpt lat="43.5091068" lon="10.6165212"><ele>292.0</ele><time>2026-04-18T07:01:16.445Z</time></trkpt><trkpt lat="43.5091648" lon="10.6166298"><ele>292.0</ele><time>2026-04-18T07:01:18.448Z</time></trkpt><trkpt lat="43.5092167" lon="10.6167598"><ele>292.0</ele><time>2026-04-18T07:01:20.451Z</time></trkpt><trkpt lat="43.5092959" lon="10.6169181"><ele>292.0</ele><time>2026-04-18T07:01:22.451Z</time></trkpt><trkpt lat="43.5093538" lon="10.6170158"><ele>292.0</ele><time>2026-04-18T07:01:23.453Z</time></trkpt><trkpt lat="43.5094159" lon="10.617124"><ele>292.0</ele><time>2026-04-18T07:01:24.446Z</time></trkpt><trkpt lat="43.5094802" lon="10.6172334"><ele>292.0</ele><time>2026-04-18T07:01:25.435Z</time></trkpt><trkpt lat="43.5095447" lon="10.6173464"><ele>291.0</ele><time>2026-04-18T07:01:26.45Z</time></trkpt><trkpt lat="43.509606" lon="10.6174567"><ele>290.0</ele><time>2026-04-18T07:01:27.434Z</time></trkpt><trkpt lat="43.5096578" lon="10.6175579"><ele>289.0</ele><time>2026-04-18T07:01:28.451Z</time></trkpt><trkpt lat="43.5097112" lon="10.6176554"><ele>288.0</ele><time>2026-04-18T07:01:29.446Z</time></trkpt><trkpt lat="43.5097544" lon="10.6177464"><ele>287.0</ele><time>2026-04-18T07:01:30.446Z</time></trkpt><trkpt lat="43.5097922" lon="10.6178383"><ele>286.0</ele><time>2026-04-18T07:01:31.436Z</time></trkpt><trkpt lat="43.5098219" lon="10.6179291"><ele>285.5</ele><time>2026-04-18T07:01:32.446Z</time></trkpt><trkpt lat="43.5098505" lon="10.6180298"><ele>285.0</ele><time>2026-04-18T07:01:33.447Z</time></trkpt><trkpt lat="43.5098835" lon="10.6181072"><ele>284.5</ele><time>2026-04-18T07:01:34.456Z</time></trkpt><trkpt lat="43.5099163" lon="10.6181821"><ele>284.0</ele><time>2026-04-18T07:01:35.443Z</time></trkpt><trkpt lat="43.5099731" lon="10.6183404"><ele>283.5</ele><time>2026-04-18T07:01:37.439Z</time></trkpt><trkpt lat="43.5100008" lon="10.618428"><ele>283.0</ele><time>2026-04-18T07:01:38.447Z</time></trkpt><trkpt lat="43.5100358" lon="10.6185067"><ele>283.0</ele><time>2026-04-18T07:01:39.454Z</time></trkpt><trkpt lat="43.5101358" lon="10.6185875"><ele>283.0</ele><time>2026-04-18T07:01:41.448Z</time></trkpt><trkpt lat="43.5102052" lon="10.6185617"><ele>283.0</ele><time>2026-04-18T07:01:42.442Z</time></trkpt><trkpt lat="43.5102806" lon="10.6185036"><ele>283.0</ele><time>2026-04-18T07:01:43.459Z</time></trkpt><trkpt lat="43.5103492" lon="10.6184373"><ele>283.0</ele><time>2026-04-18T07:01:44.446Z</time></trkpt><trkpt lat="43.5104257" lon="10.618367"><ele>281.0</ele><time>2026-04-18T07:01:45.448Z</time></trkpt><trkpt lat="43.5105099" lon="10.6183037"><ele>279.0</ele><time>2026-04-18T07:01:46.455Z</time></trkpt><trkpt lat="43.5105959" lon="10.6182425"><ele>277.0</ele><time>2026-04-18T07:01:47.445Z</time></trkpt><trkpt lat="43.51068" lon="10.6181908"><ele>275.0</ele><time>2026-04-18T07:01:48.449Z</time></trkpt><trkpt lat="43.5107823" lon="10.6181704"><ele>273.0</ele><time>2026-04-18T07:01:49.445Z</time></trkpt><trkpt lat="43.5108899" lon="10.6181773"><ele>273.0</ele><time>2026-04-18T07:01:50.455Z</time></trkpt><trkpt lat="43.5110038" lon="10.6181903"><ele>273.0</ele><time>2026-04-18T07:01:51.446Z</time></trkpt><trkpt lat="43.5111085" lon="10.6181993"><ele>273.0</ele><time>2026-04-18T07:01:52.459Z</time></trkpt><trkpt lat="43.5112177" lon="10.6182144"><ele>273.0</ele><time>2026-04-18T07:01:53.441Z</time></trkpt><trkpt lat="43.5113209" lon="10.6182341"><ele>273.0</ele><time>2026-04-18T07:01:54.454Z</time></trkpt><trkpt lat="43.5114242" lon="10.6182541"><ele>271.2</ele><time>2026-04-18T07:01:55.434Z</time></trkpt><trkpt lat="43.5115239" lon="10.6182808"><ele>269.4</ele><time>2026-04-18T07:01:56.43Z</time></trkpt><trkpt lat="43.5116164" lon="10.6183045"><ele>267.59999999999997</ele><time>2026-04-18T07:01:57.444Z</time></trkpt><trkpt lat="43.5117047" lon="10.6183402"><ele>265.8</ele><time>2026-04-18T07:01:58.437Z</time></trkpt><trkpt lat="43.5117911" lon="10.6184041"><ele>264.0</ele><time>2026-04-18T07:01:59.432Z</time></trkpt><trkpt lat="43.5118802" lon="10.6184741"><ele>264.0</ele><time>2026-04-18T07:02:00.446Z</time></trkpt><trkpt lat="43.5119636" lon="10.6185539"><ele>264.0</ele><time>2026-04-18T07:02:01.437Z</time></trkpt><trkpt lat="43.5120438" lon="10.6186436"><ele>264.0</ele><time>2026-04-18T07:02:02.442Z</time></trkpt><trkpt lat="43.5121259" lon="10.6187239"><ele>264.0</ele><time>2026-04-18T07:02:03.444Z</time></trkpt><trkpt lat="43.5122128" lon="10.6187957"><ele>264.0</ele><time>2026-04-18T07:02:04.448Z</time></trkpt><trkpt lat="43.5123021" lon="10.6188627"><ele>261.75</ele><time>2026-04-18T07:02:05.442Z</time></trkpt><trkpt lat="43.5124005" lon="10.6189204"><ele>259.5</ele><time>2026-04-18T07:02:06.455Z</time></trkpt><trkpt lat="43.5125129" lon="10.6189735"><ele>257.25</ele><time>2026-04-18T07:02:07.447Z</time></trkpt><trkpt lat="43.5126195" lon="10.6190275"><ele>255.0</ele><time>2026-04-18T07:02:08.453Z</time></trkpt><trkpt lat="43.5127315" lon="10.6190785"><ele>255.0</ele><time>2026-04-18T07:02:09.431Z</time></trkpt><trkpt lat="43.5128489" lon="10.6191384"><ele>255.0</ele><time>2026-04-18T07:02:10.439Z</time></trkpt><trkpt lat="43.5129746" lon="10.6192007"><ele>255.0</ele><time>2026-04-18T07:02:11.454Z</time></trkpt><trkpt lat="43.513093" lon="10.6192638"><ele>255.0</ele><time>2026-04-18T07:02:12.454Z</time></trkpt><trkpt lat="43.5132099" lon="10.6193187"><ele>252.75</ele><time>2026-04-18T07:02:13.45Z</time></trkpt><trkpt lat="43.5133186" lon="10.619377"><ele>250.5</ele><time>2026-04-18T07:02:14.463Z</time></trkpt><trkpt lat="43.5134392" lon="10.6194323"><ele>248.25</ele><time>2026-04-18T07:02:15.447Z</time></trkpt><trkpt lat="43.5135589" lon="10.6194782"><ele>246.0</ele><time>2026-04-18T07:02:16.454Z</time></trkpt><trkpt lat="43.5136716" lon="10.61952"><ele>244.0</ele><time>2026-04-18T07:02:17.443Z</time></trkpt><trkpt lat="43.5137726" lon="10.6195615"><ele>242.00000000000003</ele><time>2026-04-18T07:02:18.447Z</time></trkpt><trkpt lat="43.5138669" lon="10.6196015"><ele>240.00000000000003</ele><time>2026-04-18T07:02:19.445Z</time></trkpt><trkpt lat="43.5139441" lon="10.6196399"><ele>238.0</ele><time>2026-04-18T07:02:20.448Z</time></trkpt><trkpt lat="43.5140155" lon="10.6196944"><ele>236.0</ele><time>2026-04-18T07:02:21.447Z</time></trkpt><trkpt lat="43.5140793" lon="10.6197731"><ele>236.0</ele><time>2026-04-18T07:02:22.452Z</time></trkpt><trkpt lat="43.514124" lon="10.6198375"><ele>236.00000000000003</ele><time>2026-04-18T07:02:23.446Z</time></trkpt><trkpt lat="43.5141153" lon="10.6200198"><ele>236.00000000000003</ele><time>2026-04-18T07:02:25.459Z</time></trkpt><trkpt lat="43.5140675" lon="10.6201555"><ele>236.0</ele><time>2026-04-18T07:02:26.454Z</time></trkpt><trkpt lat="43.5140031" lon="10.6202883"><ele>236.0</ele><time>2026-04-18T07:02:27.441Z</time></trkpt><trkpt lat="43.5139198" lon="10.620412"><ele>235.5</ele><time>2026-04-18T07:02:28.46Z</time></trkpt><trkpt lat="43.5138417" lon="10.6205336"><ele>235.0</ele><time>2026-04-18T07:02:29.448Z</time></trkpt><trkpt lat="43.5137626" lon="10.6206575"><ele>234.5</ele><time>2026-04-18T07:02:30.451Z</time></trkpt><trkpt lat="43.5136887" lon="10.620773"><ele>234.0</ele><time>2026-04-18T07:02:31.446Z</time></trkpt><trkpt lat="43.5136141" lon="10.6208795"><ele>234.0</ele><time>2026-04-18T07:02:32.457Z</time></trkpt><trkpt lat="43.5135433" lon="10.6209689"><ele>234.0</ele><time>2026-04-18T07:02:33.451Z</time></trkpt><trkpt lat="43.5134934" lon="10.6210595"><ele>234.0</ele><time>2026-04-18T07:02:34.453Z</time></trkpt><trkpt lat="43.5134667" lon="10.6211518"><ele>234.0</ele><time>2026-04-18T07:02:35.435Z</time></trkpt><trkpt lat="43.5134559" lon="10.6212698"><ele>234.0</ele><time>2026-04-18T07:02:36.443Z</time></trkpt><trkpt lat="43.5134888" lon="10.6213845"><ele>234.0</ele><time>2026-04-18T07:02:37.454Z</time></trkpt><trkpt lat="43.5135501" lon="10.6214795"><ele>232.39999999999998</ele><time>2026-04-18T07:02:38.451Z</time></trkpt><trkpt lat="43.5136283" lon="10.6215259"><ele>230.79999999999998</ele><time>2026-04-18T07:02:39.453Z</time></trkpt><trkpt lat="43.5137219" lon="10.6215505"><ele>229.20000000000002</ele><time>2026-04-18T07:02:40.446Z</time></trkpt><trkpt lat="43.5138285" lon="10.6215733"><ele>227.60000000000002</ele><time>2026-04-18T07:02:41.449Z</time></trkpt><trkpt lat="43.5139384" lon="10.6216078"><ele>226.0</ele><time>2026-04-18T07:02:42.458Z</time></trkpt><trkpt lat="43.5140513" lon="10.6216568"><ele>225.25</ele><time>2026-04-18T07:02:43.446Z</time></trkpt><trkpt lat="43.5141605" lon="10.6217284"><ele>224.5</ele><time>2026-04-18T07:02:44.442Z</time></trkpt><trkpt lat="43.5142647" lon="10.6218152"><ele>223.75</ele><time>2026-04-18T07:02:45.45Z</time></trkpt><trkpt lat="43.5143769" lon="10.621901"><ele>223.0</ele><time>2026-04-18T07:02:46.457Z</time></trkpt><trkpt lat="43.5144917" lon="10.6219774"><ele>220.75</ele><time>2026-04-18T07:02:47.461Z</time></trkpt><trkpt lat="43.5146188" lon="10.6220352"><ele>218.5</ele><time>2026-04-18T07:02:48.451Z</time></trkpt><trkpt lat="43.5147502" lon="10.6220877"><ele>216.25</ele><time>2026-04-18T07:02:49.456Z</time></trkpt><trkpt lat="43.5148802" lon="10.6221321"><ele>214.0</ele><time>2026-04-18T07:02:50.443Z</time></trkpt><trkpt lat="43.5150174" lon="10.6221535"><ele>214.0</ele><time>2026-04-18T07:02:51.446Z</time></trkpt><trkpt lat="43.5151596" lon="10.6221707"><ele>214.0</ele><time>2026-04-18T07:02:52.457Z</time></trkpt><trkpt lat="43.5153002" lon="10.6221888"><ele>214.0</ele><time>2026-04-18T07:02:53.451Z</time></trkpt><trkpt lat="43.5154459" lon="10.6222"><ele>214.0</ele><time>2026-04-18T07:02:54.447Z</time></trkpt><trkpt lat="43.515587" lon="10.6222069"><ele>212.5</ele><time>2026-04-18T07:02:55.442Z</time></trkpt><trkpt lat="43.5157294" lon="10.6222101"><ele>211.0</ele><time>2026-04-18T07:02:56.448Z</time></trkpt><trkpt lat="43.5158716" lon="10.6222151"><ele>209.5</ele><time>2026-04-18T07:02:57.446Z</time></trkpt><trkpt lat="43.5160147" lon="10.6222399"><ele>208.0</ele><time>2026-04-18T07:02:58.438Z</time></trkpt><trkpt lat="43.516152" lon="10.6223004"><ele>206.75</ele><time>2026-04-18T07:02:59.435Z</time></trkpt><trkpt lat="43.5162784" lon="10.6223585"><ele>205.5</ele><time>2026-04-18T07:03:00.45Z</time></trkpt><trkpt lat="43.5163874" lon="10.6224337"><ele>204.25</ele><time>2026-04-18T07:03:01.437Z</time></trkpt><trkpt lat="43.5164806" lon="10.6225339"><ele>203.0</ele><time>2026-04-18T07:03:02.446Z</time></trkpt><trkpt lat="43.5165703" lon="10.6226563"><ele>203.0</ele><time>2026-04-18T07:03:03.438Z</time></trkpt><trkpt lat="43.5166652" lon="10.6227859"><ele>203.0</ele><time>2026-04-18T07:03:04.452Z</time></trkpt><trkpt lat="43.5167512" lon="10.6229441"><ele>203.0</ele><time>2026-04-18T07:03:05.433Z</time></trkpt><trkpt lat="43.516811" lon="10.6231149"><ele>203.0</ele><time>2026-04-18T07:03:06.453Z</time></trkpt><trkpt lat="43.5168617" lon="10.6232936"><ele>202.75</ele><time>2026-04-18T07:03:07.45Z</time></trkpt><trkpt lat="43.5169007" lon="10.6234589"><ele>202.5</ele><time>2026-04-18T07:03:08.451Z</time></trkpt><trkpt lat="43.516933" lon="10.6236073"><ele>202.25</ele><time>2026-04-18T07:03:09.423Z</time></trkpt><trkpt lat="43.516975" lon="10.623747"><ele>202.0</ele><time>2026-04-18T07:03:10.454Z</time></trkpt><trkpt lat="43.5170209" lon="10.6238737"><ele>199.5</ele><time>2026-04-18T07:03:11.444Z</time></trkpt><trkpt lat="43.517091" lon="10.6239813"><ele>197.0</ele><time>2026-04-18T07:03:12.463Z</time></trkpt><trkpt lat="43.5171893" lon="10.6240572"><ele>194.5</ele><time>2026-04-18T07:03:13.434Z</time></trkpt><trkpt lat="43.5173067" lon="10.6241128"><ele>192.0</ele><time>2026-04-18T07:03:14.449Z</time></trkpt><trkpt lat="43.5174435" lon="10.6241518"><ele>192.0</ele><time>2026-04-18T07:03:15.438Z</time></trkpt><trkpt lat="43.5175929" lon="10.6241857"><ele>192.0</ele><time>2026-04-18T07:03:16.444Z</time></trkpt><trkpt lat="43.5177474" lon="10.6242197"><ele>192.0</ele><time>2026-04-18T07:03:17.446Z</time></trkpt><trkpt lat="43.5179085" lon="10.6242483"><ele>188.0</ele><time>2026-04-18T07:03:18.449Z</time></trkpt><trkpt lat="43.5180664" lon="10.6242804"><ele>184.0</ele><time>2026-04-18T07:03:19.451Z</time></trkpt><trkpt lat="43.5182241" lon="10.6243219"><ele>180.0</ele><time>2026-04-18T07:03:20.432Z</time></trkpt><trkpt lat="43.5183801" lon="10.624363"><ele>180.0</ele><time>2026-04-18T07:03:21.433Z</time></trkpt><trkpt lat="43.5185321" lon="10.6244006"><ele>180.0</ele><time>2026-04-18T07:03:22.453Z</time></trkpt><trkpt lat="43.5186807" lon="10.624444"><ele>180.0</ele><time>2026-04-18T07:03:23.442Z</time></trkpt><trkpt lat="43.5188238" lon="10.6244804"><ele>178.0</ele><time>2026-04-18T07:03:24.44Z</time></trkpt><trkpt lat="43.5189596" lon="10.6245161"><ele>176.0</ele><time>2026-04-18T07:03:25.446Z</time></trkpt><trkpt lat="43.5190846" lon="10.6245551"><ele>174.0</ele><time>2026-04-18T07:03:26.441Z</time></trkpt><trkpt lat="43.5191936" lon="10.6245906"><ele>172.0</ele><time>2026-04-18T07:03:27.439Z</time></trkpt><trkpt lat="43.5192789" lon="10.6246218"><ele>172.0</ele><time>2026-04-18T07:03:28.456Z</time></trkpt><trkpt lat="43.5193401" lon="10.6246568"><ele>172.0</ele><time>2026-04-18T07:03:29.439Z</time></trkpt><trkpt lat="43.5194152" lon="10.6247179"><ele>172.0</ele><time>2026-04-18T07:03:31.447Z</time></trkpt><trkpt lat="43.5195275" lon="10.6247465"><ele>172.0</ele><time>2026-04-18T07:03:34.455Z</time></trkpt><trkpt lat="43.5195949" lon="10.6247721"><ele>172.0</ele><time>2026-04-18T07:03:35.451Z</time></trkpt><trkpt lat="43.5196593" lon="10.6248218"><ele>172.0</ele><time>2026-04-18T07:03:36.458Z</time></trkpt><trkpt lat="43.5197276" lon="10.6248945"><ele>170.6</ele><time>2026-04-18T07:03:37.447Z</time></trkpt><trkpt lat="43.5198062" lon="10.6249754"><ele>169.2</ele><time>2026-04-18T07:03:38.468Z</time></trkpt><trkpt lat="43.5198973" lon="10.6250604"><ele>167.8</ele><time>2026-04-18T07:03:39.455Z</time></trkpt><trkpt lat="43.5199854" lon="10.6251367"><ele>166.4</ele><time>2026-04-18T07:03:40.444Z</time></trkpt><trkpt lat="43.5200756" lon="10.6252189"><ele>165.0</ele><time>2026-04-18T07:03:41.437Z</time></trkpt><trkpt lat="43.5201658" lon="10.6252952"><ele>164.83333333333334</ele><time>2026-04-18T07:03:42.445Z</time></trkpt><trkpt lat="43.5202514" lon="10.625366"><ele>164.66666666666666</ele><time>2026-04-18T07:03:43.433Z</time></trkpt><trkpt lat="43.5203368" lon="10.6254314"><ele>164.5</ele><time>2026-04-18T07:03:44.447Z</time></trkpt><trkpt lat="43.5204226" lon="10.6254876"><ele>164.33333333333331</ele><time>2026-04-18T07:03:45.453Z</time></trkpt><trkpt lat="43.5204897" lon="10.6255395"><ele>164.16666666666666</ele><time>2026-04-18T07:03:46.452Z</time></trkpt><trkpt lat="43.5205487" lon="10.6255968"><ele>164.0</ele><time>2026-04-18T07:03:47.446Z</time></trkpt><trkpt lat="43.5205969" lon="10.6256811"><ele>164.0</ele><time>2026-04-18T07:03:48.452Z</time></trkpt><trkpt lat="43.520632" lon="10.6257769"><ele>164.0</ele><time>2026-04-18T07:03:49.451Z</time></trkpt><trkpt lat="43.520666" lon="10.6258933"><ele>164.0</ele><time>2026-04-18T07:03:50.455Z</time></trkpt><trkpt lat="43.5206884" lon="10.6260025"><ele>164.0</ele><time>2026-04-18T07:03:51.451Z</time></trkpt><trkpt lat="43.520721" lon="10.6261147"><ele>164.0</ele><time>2026-04-18T07:03:52.446Z</time></trkpt><trkpt lat="43.5207649" lon="10.6262101"><ele>164.0</ele><time>2026-04-18T07:03:53.447Z</time></trkpt><trkpt lat="43.5208269" lon="10.6262926"><ele>164.0</ele><time>2026-04-18T07:03:54.457Z</time></trkpt><trkpt lat="43.5209054" lon="10.6263362"><ele>164.0</ele><time>2026-04-18T07:03:55.454Z</time></trkpt><trkpt lat="43.5209889" lon="10.6263771"><ele>164.0</ele><time>2026-04-18T07:03:56.453Z</time></trkpt><trkpt lat="43.5210797" lon="10.6264236"><ele>164.0</ele><time>2026-04-18T07:03:57.443Z</time></trkpt><trkpt lat="43.5211844" lon="10.6264719"><ele>164.0</ele><time>2026-04-18T07:03:58.458Z</time></trkpt><trkpt lat="43.5212819" lon="10.6265344"><ele>163.25</ele><time>2026-04-18T07:03:59.447Z</time></trkpt><trkpt lat="43.5213819" lon="10.6266043"><ele>162.5</ele><time>2026-04-18T07:04:00.451Z</time></trkpt><trkpt lat="43.5214838" lon="10.6266755"><ele>161.75</ele><time>2026-04-18T07:04:01.446Z</time></trkpt><trkpt lat="43.5215911" lon="10.6267474"><ele>161.0</ele><time>2026-04-18T07:04:02.453Z</time></trkpt><trkpt lat="43.5217021" lon="10.626803"><ele>161.0</ele><time>2026-04-18T07:04:03.448Z</time></trkpt><trkpt lat="43.5218151" lon="10.6268622"><ele>161.0</ele><time>2026-04-18T07:04:04.441Z</time></trkpt><trkpt lat="43.5219296" lon="10.6269062"><ele>161.0</ele><time>2026-04-18T07:04:05.443Z</time></trkpt><trkpt lat="43.5220468" lon="10.6269524"><ele>161.0</ele><time>2026-04-18T07:04:06.46Z</time></trkpt><trkpt lat="43.5221633" lon="10.6269908"><ele>160.0</ele><time>2026-04-18T07:04:07.453Z</time></trkpt><trkpt lat="43.5222854" lon="10.6270304"><ele>159.0</ele><time>2026-04-18T07:04:08.459Z</time></trkpt><trkpt lat="43.5224125" lon="10.6270679"><ele>158.0</ele><time>2026-04-18T07:04:09.441Z</time></trkpt><trkpt lat="43.5225394" lon="10.6271072"><ele>157.0</ele><time>2026-04-18T07:04:10.449Z</time></trkpt><trkpt lat="43.5226611" lon="10.6271424"><ele>157.0</ele><time>2026-04-18T07:04:11.455Z</time></trkpt><trkpt lat="43.5227807" lon="10.627176"><ele>157.0</ele><time>2026-04-18T07:04:12.455Z</time></trkpt><trkpt lat="43.5229029" lon="10.6272107"><ele>157.0</ele><time>2026-04-18T07:04:13.45Z</time></trkpt><trkpt lat="43.5230157" lon="10.6272459"><ele>157.0</ele><time>2026-04-18T07:04:14.444Z</time></trkpt><trkpt lat="43.5231174" lon="10.6272812"><ele>155.6</ele><time>2026-04-18T07:04:15.446Z</time></trkpt><trkpt lat="43.5232062" lon="10.6273285"><ele>154.2</ele><time>2026-04-18T07:04:16.464Z</time></trkpt><trkpt lat="43.5232885" lon="10.6274079"><ele>152.8</ele><time>2026-04-18T07:04:17.452Z</time></trkpt><trkpt lat="43.5233571" lon="10.6275227"><ele>151.4</ele><time>2026-04-18T07:04:18.446Z</time></trkpt><trkpt lat="43.5234192" lon="10.6276316"><ele>150.0</ele><time>2026-04-18T07:04:19.458Z</time></trkpt><trkpt lat="43.5234881" lon="10.6277134"><ele>150.0</ele><time>2026-04-18T07:04:20.451Z</time></trkpt><trkpt lat="43.5235678" lon="10.6277606"><ele>150.0</ele><time>2026-04-18T07:04:21.447Z</time></trkpt><trkpt lat="43.5236623" lon="10.6277658"><ele>150.0</ele><time>2026-04-18T07:04:22.44Z</time></trkpt><trkpt lat="43.523756" lon="10.627757"><ele>150.0</ele><time>2026-04-18T07:04:23.445Z</time></trkpt><trkpt lat="43.5238453" lon="10.6277524"><ele>150.0</ele><time>2026-04-18T07:04:24.456Z</time></trkpt><trkpt lat="43.5239262" lon="10.6277682"><ele>150.0</ele><time>2026-04-18T07:04:25.445Z</time></trkpt><trkpt lat="43.5240343" lon="10.6277673"><ele>148.4</ele><time>2026-04-18T07:04:27.461Z</time></trkpt><trkpt lat="43.5241388" lon="10.6277734"><ele>146.8</ele><time>2026-04-18T07:04:29.462Z</time></trkpt><trkpt lat="43.5242235" lon="10.627778"><ele>145.2</ele><time>2026-04-18T07:04:31.47Z</time></trkpt><trkpt lat="43.5242592" lon="10.6277031"><ele>143.6</ele><time>2026-04-18T07:04:33.456Z</time></trkpt><trkpt lat="43.5243492" lon="10.6275944"><ele>142.0</ele><time>2026-04-18T07:04:35.45Z</time></trkpt><trkpt lat="43.5244237" lon="10.6275758"><ele>142.0</ele><time>2026-04-18T07:04:36.449Z</time></trkpt><trkpt lat="43.5244981" lon="10.6275609"><ele>142.0</ele><time>2026-04-18T07:04:37.45Z</time></trkpt><trkpt lat="43.5245787" lon="10.6275484"><ele>142.0</ele><time>2026-04-18T07:04:38.44Z</time></trkpt><trkpt lat="43.5246532" lon="10.6275414"><ele>142.0</ele><time>2026-04-18T07:04:39.455Z</time></trkpt><trkpt lat="43.5247685" lon="10.6275366"><ele>142.0</ele><time>2026-04-18T07:04:41.448Z</time></trkpt><trkpt lat="43.5248688" lon="10.6275208"><ele>142.0</ele><time>2026-04-18T07:04:43.435Z</time></trkpt><trkpt lat="43.5249691" lon="10.627498"><ele>141.71428571428572</ele><time>2026-04-18T07:04:45.445Z</time></trkpt><trkpt lat="43.5250581" lon="10.6274734"><ele>141.42857142857142</ele><time>2026-04-18T07:04:47.444Z</time></trkpt><trkpt lat="43.5251352" lon="10.627454"><ele>141.14285714285714</ele><time>2026-04-18T07:04:49.435Z</time></trkpt><trkpt lat="43.5252093" lon="10.627441"><ele>140.85714285714286</ele><time>2026-04-18T07:04:51.423Z</time></trkpt><trkpt lat="43.5252639" lon="10.6273809"><ele>140.57142857142856</ele><time>2026-04-18T07:04:54.442Z</time></trkpt><trkpt lat="43.5251995" lon="10.6273828"><ele>140.28571428571428</ele><time>2026-04-18T07:05:23.444Z</time></trkpt><trkpt lat="43.5251366" lon="10.6274091"><ele>140.0</ele><time>2026-04-18T07:05:31.443Z</time></trkpt><trkpt lat="43.5250522" lon="10.6274492"><ele>140.0</ele><time>2026-04-18T07:05:34.451Z</time></trkpt><trkpt lat="43.5249613" lon="10.6274861"><ele>140.0</ele><time>2026-04-18T07:05:37.448Z</time></trkpt><trkpt lat="43.5248917" lon="10.6275091"><ele>140.0</ele><time>2026-04-18T07:05:39.446Z</time></trkpt><trkpt lat="43.5248162" lon="10.627517"><ele>140.0</ele><time>2026-04-18T07:05:41.45Z</time></trkpt><trkpt lat="43.5247179" lon="10.6275319"><ele>140.0</ele><time>2026-04-18T07:05:43.445Z</time></trkpt><trkpt lat="43.5246175" lon="10.6275572"><ele>140.0</ele><time>2026-04-18T07:05:45.45Z</time></trkpt><trkpt lat="43.5245105" lon="10.6275675"><ele>140.4</ele><time>2026-04-18T07:05:47.45Z</time></trkpt><trkpt lat="43.5244042" lon="10.6275828"><ele>140.8</ele><time>2026-04-18T07:05:49.442Z</time></trkpt><trkpt lat="43.5243106" lon="10.627589"><ele>141.2</ele><time>2026-04-18T07:05:51.441Z</time></trkpt><trkpt lat="43.5242342" lon="10.627517"><ele>141.6</ele><time>2026-04-18T07:05:54.465Z</time></trkpt><trkpt lat="43.5242238" lon="10.6274116"><ele>142.0</ele><time>2026-04-18T07:05:56.461Z</time></trkpt><trkpt lat="43.524252" lon="10.6272393"><ele>142.0</ele><time>2026-04-18T07:05:58.452Z</time></trkpt><trkpt lat="43.5242688" lon="10.6271267"><ele>142.0</ele><time>2026-04-18T07:05:59.447Z</time></trkpt><trkpt lat="43.5242829" lon="10.6269984"><ele>142.0</ele><time>2026-04-18T07:06:00.44Z</time></trkpt><trkpt lat="43.5242984" lon="10.6268733"><ele>142.0</ele><time>2026-04-18T07:06:01.446Z</time></trkpt><trkpt lat="43.5243156" lon="10.6267485"><ele>142.0</ele><time>2026-04-18T07:06:02.45Z</time></trkpt><trkpt lat="43.5243311" lon="10.6266268"><ele>142.16666666666669</ele><time>2026-04-18T07:06:03.437Z</time></trkpt><trkpt lat="43.5243454" lon="10.6265186"><ele>142.33333333333334</ele><time>2026-04-18T07:06:04.451Z</time></trkpt><trkpt lat="43.5243598" lon="10.626416"><ele>142.5</ele><time>2026-04-18T07:06:05.455Z</time></trkpt><trkpt lat="43.5243823" lon="10.6263198"><ele>142.66666666666666</ele><time>2026-04-18T07:06:06.457Z</time></trkpt><trkpt lat="43.5244171" lon="10.6262319"><ele>142.83333333333331</ele><time>2026-04-18T07:06:07.445Z</time></trkpt><trkpt lat="43.5244856" lon="10.6261368"><ele>143.0</ele><time>2026-04-18T07:06:08.45Z</time></trkpt><trkpt lat="43.5245704" lon="10.626013"><ele>140.25</ele><time>2026-04-18T07:06:09.446Z</time></trkpt><trkpt lat="43.5246548" lon="10.6258733"><ele>137.5</ele><time>2026-04-18T07:06:10.458Z</time></trkpt><trkpt lat="43.5247444" lon="10.6257341"><ele>134.75</ele><time>2026-04-18T07:06:11.439Z</time></trkpt><trkpt lat="43.5248414" lon="10.6255936"><ele>132.0</ele><time>2026-04-18T07:06:12.439Z</time></trkpt><trkpt lat="43.524933" lon="10.6254508"><ele>132.0</ele><time>2026-04-18T07:06:13.449Z</time></trkpt><trkpt lat="43.5250166" lon="10.6253136"><ele>132.0</ele><time>2026-04-18T07:06:14.44Z</time></trkpt><trkpt lat="43.525097" lon="10.6251885"><ele>132.0</ele><time>2026-04-18T07:06:15.441Z</time></trkpt><trkpt lat="43.5251714" lon="10.6250677"><ele>132.0</ele><time>2026-04-18T07:06:16.448Z</time></trkpt><trkpt lat="43.5252545" lon="10.6249544"><ele>131.2</ele><time>2026-04-18T07:06:17.451Z</time></trkpt><trkpt lat="43.5253377" lon="10.6248587"><ele>130.39999999999998</ele><time>2026-04-18T07:06:18.454Z</time></trkpt><trkpt lat="43.5254188" lon="10.6247593"><ele>129.60000000000002</ele><time>2026-04-18T07:06:19.442Z</time></trkpt><trkpt lat="43.5255029" lon="10.6246599"><ele>128.8</ele><time>2026-04-18T07:06:20.45Z</time></trkpt><trkpt lat="43.5255932" lon="10.6245515"><ele>128.0</ele><time>2026-04-18T07:06:21.446Z</time></trkpt><trkpt lat="43.5256805" lon="10.6244377"><ele>125.5</ele><time>2026-04-18T07:06:22.443Z</time></trkpt><trkpt lat="43.5257638" lon="10.624329"><ele>123.0</ele><time>2026-04-18T07:06:23.452Z</time></trkpt><trkpt lat="43.5258469" lon="10.6242214"><ele>120.5</ele><time>2026-04-18T07:06:24.449Z</time></trkpt><trkpt lat="43.5259297" lon="10.6241115"><ele>118.0</ele><time>2026-04-18T07:06:25.443Z</time></trkpt><trkpt lat="43.5260076" lon="10.6239863"><ele>118.00000000000001</ele><time>2026-04-18T07:06:26.453Z</time></trkpt><trkpt lat="43.5260808" lon="10.6238655"><ele>118.0</ele><time>2026-04-18T07:06:27.442Z</time></trkpt><trkpt lat="43.5261457" lon="10.6237604"><ele>118.0</ele><time>2026-04-18T07:06:28.442Z</time></trkpt><trkpt lat="43.5262069" lon="10.6236697"><ele>118.0</ele><time>2026-04-18T07:06:29.438Z</time></trkpt><trkpt lat="43.5262528" lon="10.6235909"><ele>118.00000000000001</ele><time>2026-04-18T07:06:30.446Z</time></trkpt><trkpt lat="43.526277" lon="10.6235027"><ele>118.0</ele><time>2026-04-18T07:06:31.449Z</time></trkpt><trkpt lat="43.5262779" lon="10.6234137"><ele>117.83333333333334</ele><time>2026-04-18T07:06:32.457Z</time></trkpt><trkpt lat="43.5262618" lon="10.6233123"><ele>117.66666666666667</ele><time>2026-04-18T07:06:33.439Z</time></trkpt><trkpt lat="43.5262248" lon="10.6232194"><ele>117.5</ele><time>2026-04-18T07:06:34.453Z</time></trkpt><trkpt lat="43.5261651" lon="10.6231226"><ele>117.33333333333334</ele><time>2026-04-18T07:06:35.434Z</time></trkpt><trkpt lat="43.5261015" lon="10.6230245"><ele>117.16666666666667</ele><time>2026-04-18T07:06:36.445Z</time></trkpt><trkpt lat="43.5260368" lon="10.622931"><ele>117.0</ele><time>2026-04-18T07:06:37.438Z</time></trkpt><trkpt lat="43.5259749" lon="10.622843"><ele>115.6</ele><time>2026-04-18T07:06:38.447Z</time></trkpt><trkpt lat="43.5259116" lon="10.6227531"><ele>114.19999999999999</ele><time>2026-04-18T07:06:39.442Z</time></trkpt><trkpt lat="43.5258406" lon="10.6226719"><ele>112.8</ele><time>2026-04-18T07:06:40.461Z</time></trkpt><trkpt lat="43.5257582" lon="10.6225924"><ele>111.4</ele><time>2026-04-18T07:06:41.438Z</time></trkpt><trkpt lat="43.5256686" lon="10.6225239"><ele>110.0</ele><time>2026-04-18T07:06:42.445Z</time></trkpt><trkpt lat="43.5255788" lon="10.6224617"><ele>109.99999999999999</ele><time>2026-04-18T07:06:43.438Z</time></trkpt><trkpt lat="43.5254967" lon="10.6223952"><ele>110.0</ele><time>2026-04-18T07:06:44.451Z</time></trkpt><trkpt lat="43.5254358" lon="10.6223333"><ele>110.0</ele><time>2026-04-18T07:06:45.436Z</time></trkpt><trkpt lat="43.5253873" lon="10.6222594"><ele>110.0</ele><time>2026-04-18T07:06:46.442Z</time></trkpt><trkpt lat="43.5253512" lon="10.6221747"><ele>109.99999999999999</ele><time>2026-04-18T07:06:47.438Z</time></trkpt><trkpt lat="43.5253228" lon="10.6220876"><ele>110.0</ele><time>2026-04-18T07:06:48.443Z</time></trkpt><trkpt lat="43.5252637" lon="10.6219387"><ele>110.6</ele><time>2026-04-18T07:06:50.435Z</time></trkpt><trkpt lat="43.5252282" lon="10.6218607"><ele>111.2</ele><time>2026-04-18T07:06:51.444Z</time></trkpt><trkpt lat="43.5252263" lon="10.621698"><ele>111.80000000000001</ele><time>2026-04-18T07:06:53.44Z</time></trkpt><trkpt lat="43.5252771" lon="10.6215898"><ele>112.4</ele><time>2026-04-18T07:06:55.443Z</time></trkpt><trkpt lat="43.5253448" lon="10.6215464"><ele>113.0</ele><time>2026-04-18T07:06:58.445Z</time></trkpt><trkpt lat="43.5254257" lon="10.6214361"><ele>112.99999999999999</ele><time>2026-04-18T07:07:01.443Z</time></trkpt><trkpt lat="43.5254576" lon="10.6213506"><ele>113.0</ele><time>2026-04-18T07:07:02.445Z</time></trkpt><trkpt lat="43.5254926" lon="10.6212746"><ele>113.0</ele><time>2026-04-18T07:07:03.444Z</time></trkpt><trkpt lat="43.5255325" lon="10.6211845"><ele>113.0</ele><time>2026-04-18T07:07:04.457Z</time></trkpt><trkpt lat="43.5255794" lon="10.621089"><ele>112.99999999999999</ele><time>2026-04-18T07:07:05.436Z</time></trkpt><trkpt lat="43.5256291" lon="10.6209916"><ele>113.0</ele><time>2026-04-18T07:07:06.442Z</time></trkpt><trkpt lat="43.5256776" lon="10.6208946"><ele>113.4</ele><time>2026-04-18T07:07:07.434Z</time></trkpt><trkpt lat="43.5257515" lon="10.6207899"><ele>113.80000000000001</ele><time>2026-04-18T07:07:09.432Z</time></trkpt><trkpt lat="43.5258313" lon="10.620848"><ele>114.2</ele><time>2026-04-18T07:07:11.433Z</time></trkpt><trkpt lat="43.5259164" lon="10.6209099"><ele>114.6</ele><time>2026-04-18T07:07:13.455Z</time></trkpt><trkpt lat="43.5258453" lon="10.6208371"><ele>115.0</ele><time>2026-04-18T07:07:27.44Z</time></trkpt><trkpt lat="43.5257801" lon="10.6208075"><ele>115.00000000000001</ele><time>2026-04-18T07:07:34.447Z</time></trkpt><trkpt lat="43.5256994" lon="10.6208569"><ele>115.0</ele><time>2026-04-18T07:07:36.446Z</time></trkpt><trkpt lat="43.5256475" lon="10.620921"><ele>115.0</ele><time>2026-04-18T07:07:37.449Z</time></trkpt><trkpt lat="43.525605" lon="10.6210117"><ele>115.0</ele><time>2026-04-18T07:07:38.451Z</time></trkpt><trkpt lat="43.5255461" lon="10.6211154"><ele>115.00000000000001</ele><time>2026-04-18T07:07:39.447Z</time></trkpt><trkpt lat="43.5254927" lon="10.6212134"><ele>115.0</ele><time>2026-04-18T07:07:40.455Z</time></trkpt><trkpt lat="43.5254476" lon="10.6212927"><ele>114.66666666666667</ele><time>2026-04-18T07:07:41.437Z</time></trkpt><trkpt lat="43.525404" lon="10.6213913"><ele>114.33333333333334</ele><time>2026-04-18T07:07:43.439Z</time></trkpt><trkpt lat="43.5254034" lon="10.6214913"><ele>114.0</ele><time>2026-04-18T07:07:47.462Z</time></trkpt><trkpt lat="43.5254884" lon="10.6215396"><ele>113.66666666666666</ele><time>2026-04-18T07:07:49.445Z</time></trkpt><trkpt lat="43.5255585" lon="10.6215485"><ele>113.33333333333333</ele><time>2026-04-18T07:07:50.451Z</time></trkpt><trkpt lat="43.5256498" lon="10.6215488"><ele>113.0</ele><time>2026-04-18T07:07:51.444Z</time></trkpt><trkpt lat="43.5257609" lon="10.6215469"><ele>113.0</ele><time>2026-04-18T07:07:52.453Z</time></trkpt><trkpt lat="43.5258736" lon="10.6215418"><ele>113.0</ele><time>2026-04-18T07:07:53.437Z</time></trkpt><trkpt lat="43.5260142" lon="10.6215366"><ele>113.0</ele><time>2026-04-18T07:07:54.456Z</time></trkpt><trkpt lat="43.5261551" lon="10.6215416"><ele>113.0</ele><time>2026-04-18T07:07:55.44Z</time></trkpt><trkpt lat="43.5262983" lon="10.6215504"><ele>112.25</ele><time>2026-04-18T07:07:56.443Z</time></trkpt><trkpt lat="43.5264297" lon="10.6215614"><ele>111.5</ele><time>2026-04-18T07:07:57.444Z</time></trkpt><trkpt lat="43.5265641" lon="10.621571"><ele>110.75</ele><time>2026-04-18T07:07:58.452Z</time></trkpt><trkpt lat="43.5266867" lon="10.621572"><ele>110.0</ele><time>2026-04-18T07:07:59.454Z</time></trkpt><trkpt lat="43.5268058" lon="10.6215707"><ele>110.0</ele><time>2026-04-18T07:08:00.445Z</time></trkpt><trkpt lat="43.5269052" lon="10.6215716"><ele>110.0</ele><time>2026-04-18T07:08:01.461Z</time></trkpt><trkpt lat="43.5269969" lon="10.6215721"><ele>110.0</ele><time>2026-04-18T07:08:02.447Z</time></trkpt><trkpt lat="43.5270844" lon="10.6215718"><ele>110.0</ele><time>2026-04-18T07:08:03.448Z</time></trkpt><trkpt lat="43.5271755" lon="10.6215784"><ele>110.0</ele><time>2026-04-18T07:08:04.442Z</time></trkpt><trkpt lat="43.5272751" lon="10.6215902"><ele>109.0</ele><time>2026-04-18T07:08:05.451Z</time></trkpt><trkpt lat="43.5273784" lon="10.6215928"><ele>108.0</ele><time>2026-04-18T07:08:06.438Z</time></trkpt><trkpt lat="43.5274811" lon="10.6215839"><ele>107.0</ele><time>2026-04-18T07:08:07.451Z</time></trkpt><trkpt lat="43.5275874" lon="10.6215551"><ele>106.0</ele><time>2026-04-18T07:08:08.444Z</time></trkpt><trkpt lat="43.5277045" lon="10.6215003"><ele>105.0</ele><time>2026-04-18T07:08:09.462Z</time></trkpt><trkpt lat="43.5278292" lon="10.6214335"><ele>103.5</ele><time>2026-04-18T07:08:10.448Z</time></trkpt><trkpt lat="43.5279504" lon="10.6213723"><ele>102.0</ele><time>2026-04-18T07:08:11.453Z</time></trkpt><trkpt lat="43.5280689" lon="10.6213083"><ele>100.5</ele><time>2026-04-18T07:08:12.449Z</time></trkpt><trkpt lat="43.5281814" lon="10.621253"><ele>99.0</ele><time>2026-04-18T07:08:13.436Z</time></trkpt><trkpt lat="43.5282943" lon="10.6211932"><ele>99.0</ele><time>2026-04-18T07:08:14.444Z</time></trkpt><trkpt lat="43.5284067" lon="10.6211382"><ele>99.0</ele><time>2026-04-18T07:08:15.447Z</time></trkpt><trkpt lat="43.5285179" lon="10.6210845"><ele>99.0</ele><time>2026-04-18T07:08:16.45Z</time></trkpt><trkpt lat="43.5286229" lon="10.6210407"><ele>99.0</ele><time>2026-04-18T07:08:17.439Z</time></trkpt><trkpt lat="43.5287174" lon="10.6210045"><ele>99.0</ele><time>2026-04-18T07:08:18.454Z</time></trkpt><trkpt lat="43.5288024" lon="10.6209732"><ele>99.0</ele><time>2026-04-18T07:08:19.442Z</time></trkpt><trkpt lat="43.5288927" lon="10.6209425"><ele>99.0</ele><time>2026-04-18T07:08:20.448Z</time></trkpt><trkpt lat="43.5289795" lon="10.6209118"><ele>99.0</ele><time>2026-04-18T07:08:21.444Z</time></trkpt><trkpt lat="43.529072" lon="10.6208869"><ele>99.0</ele><time>2026-04-18T07:08:22.451Z</time></trkpt><trkpt lat="43.5291656" lon="10.6208701"><ele>99.0</ele><time>2026-04-18T07:08:23.436Z</time></trkpt><trkpt lat="43.5292574" lon="10.6208586"><ele>99.0</ele><time>2026-04-18T07:08:24.443Z</time></trkpt><trkpt lat="43.5293533" lon="10.6208436"><ele>99.0</ele><time>2026-04-18T07:08:25.442Z</time></trkpt><trkpt lat="43.5294501" lon="10.6208331"><ele>99.0</ele><time>2026-04-18T07:08:26.444Z</time></trkpt><trkpt lat="43.5295518" lon="10.620839"><ele>99.0</ele><time>2026-04-18T07:08:27.433Z</time></trkpt><trkpt lat="43.5296618" lon="10.6208633"><ele>99.0</ele><time>2026-04-18T07:08:28.44Z</time></trkpt><trkpt lat="43.5297859" lon="10.6208959"><ele>98.0</ele><time>2026-04-18T07:08:29.446Z</time></trkpt><trkpt lat="43.5299163" lon="10.6209326"><ele>97.0</ele><time>2026-04-18T07:08:30.458Z</time></trkpt><trkpt lat="43.5300496" lon="10.6209732"><ele>96.0</ele><time>2026-04-18T07:08:31.441Z</time></trkpt><trkpt lat="43.530176" lon="10.6210115"><ele>95.0</ele><time>2026-04-18T07:08:32.45Z</time></trkpt><trkpt lat="43.5303038" lon="10.6210416"><ele>93.25</ele><time>2026-04-18T07:08:33.466Z</time></trkpt><trkpt lat="43.530427" lon="10.6210667"><ele>91.5</ele><time>2026-04-18T07:08:34.449Z</time></trkpt><trkpt lat="43.5305485" lon="10.6210765"><ele>89.75</ele><time>2026-04-18T07:08:35.437Z</time></trkpt><trkpt lat="43.5306596" lon="10.6210726"><ele>88.0</ele><time>2026-04-18T07:08:36.455Z</time></trkpt><trkpt lat="43.5307686" lon="10.6210469"><ele>88.0</ele><time>2026-04-18T07:08:37.433Z</time></trkpt><trkpt lat="43.5308672" lon="10.6209869"><ele>88.0</ele><time>2026-04-18T07:08:38.456Z</time></trkpt><trkpt lat="43.5309664" lon="10.6208984"><ele>88.0</ele><time>2026-04-18T07:08:39.442Z</time></trkpt><trkpt lat="43.5310471" lon="10.6207799"><ele>88.0</ele><time>2026-04-18T07:08:40.459Z</time></trkpt><trkpt lat="43.5311055" lon="10.6206264"><ele>88.0</ele><time>2026-04-18T07:08:41.451Z</time></trkpt><trkpt lat="43.5311765" lon="10.6204684"><ele>88.0</ele><time>2026-04-18T07:08:42.453Z</time></trkpt><trkpt lat="43.5312412" lon="10.6203187"><ele>88.0</ele><time>2026-04-18T07:08:43.448Z</time></trkpt><trkpt lat="43.5313098" lon="10.6201621"><ele>88.0</ele><time>2026-04-18T07:08:44.455Z</time></trkpt><trkpt lat="43.53137" lon="10.6200267"><ele>86.0</ele><time>2026-04-18T07:08:45.439Z</time></trkpt><trkpt lat="43.5314256" lon="10.6198882"><ele>84.0</ele><time>2026-04-18T07:08:46.448Z</time></trkpt><trkpt lat="43.5314984" lon="10.6197631"><ele>82.0</ele><time>2026-04-18T07:08:47.444Z</time></trkpt><trkpt lat="43.5315816" lon="10.6196415"><ele>80.0</ele><time>2026-04-18T07:08:48.447Z</time></trkpt><trkpt lat="43.5316724" lon="10.6195343"><ele>80.25</ele><time>2026-04-18T07:08:49.439Z</time></trkpt><trkpt lat="43.5317862" lon="10.6194652"><ele>80.5</ele><time>2026-04-18T07:08:50.452Z</time></trkpt><trkpt lat="43.5319079" lon="10.6194089"><ele>80.75</ele><time>2026-04-18T07:08:51.442Z</time></trkpt><trkpt lat="43.5320352" lon="10.619355"><ele>81.0</ele><time>2026-04-18T07:08:52.448Z</time></trkpt><trkpt lat="43.5321662" lon="10.6193203"><ele>79.0</ele><time>2026-04-18T07:08:53.453Z</time></trkpt><trkpt lat="43.5323014" lon="10.6193207"><ele>77.0</ele><time>2026-04-18T07:08:54.451Z</time></trkpt><trkpt lat="43.5324405" lon="10.6193443"><ele>75.0</ele><time>2026-04-18T07:08:55.446Z</time></trkpt><trkpt lat="43.5325948" lon="10.6193828"><ele>73.0</ele><time>2026-04-18T07:08:56.468Z</time></trkpt><trkpt lat="43.5327591" lon="10.619434"><ele>72.33333333333333</ele><time>2026-04-18T07:08:57.433Z</time></trkpt><trkpt lat="43.532925" lon="10.619481"><ele>71.66666666666667</ele><time>2026-04-18T07:08:58.454Z</time></trkpt><trkpt lat="43.5330909" lon="10.6195276"><ele>71.0</ele><time>2026-04-18T07:08:59.456Z</time></trkpt><trkpt lat="43.5332587" lon="10.6195869"><ele>70.33333333333334</ele><time>2026-04-18T07:09:00.449Z</time></trkpt><trkpt lat="43.5334318" lon="10.6196405"><ele>69.66666666666667</ele><time>2026-04-18T07:09:01.452Z</time></trkpt><trkpt lat="43.5335982" lon="10.6196914"><ele>69.0</ele><time>2026-04-18T07:09:02.45Z</time></trkpt><trkpt lat="43.5337562" lon="10.6197365"><ele>68.66666666666667</ele><time>2026-04-18T07:09:03.466Z</time></trkpt><trkpt lat="43.533908" lon="10.6197785"><ele>68.33333333333334</ele><time>2026-04-18T07:09:04.449Z</time></trkpt><trkpt lat="43.5340634" lon="10.6198241"><ele>68.0</ele><time>2026-04-18T07:09:05.455Z</time></trkpt><trkpt lat="43.534205" lon="10.6198702"><ele>68.0</ele><time>2026-04-18T07:09:06.453Z</time></trkpt><trkpt lat="43.5343393" lon="10.6199007"><ele>68.0</ele><time>2026-04-18T07:09:07.431Z</time></trkpt><trkpt lat="43.5344859" lon="10.6199028"><ele>68.0</ele><time>2026-04-18T07:09:08.458Z</time></trkpt><trkpt lat="43.5346415" lon="10.6198851"><ele>68.0</ele><time>2026-04-18T07:09:09.441Z</time></trkpt><trkpt lat="43.5347965" lon="10.6198568"><ele>67.66666666666667</ele><time>2026-04-18T07:09:10.447Z</time></trkpt><trkpt lat="43.5349601" lon="10.6198214"><ele>67.33333333333333</ele><time>2026-04-18T07:09:11.449Z</time></trkpt><trkpt lat="43.5351207" lon="10.6197784"><ele>67.0</ele><time>2026-04-18T07:09:12.453Z</time></trkpt><trkpt lat="43.5352825" lon="10.6197355"><ele>66.0</ele><time>2026-04-18T07:09:13.445Z</time></trkpt><trkpt lat="43.5354405" lon="10.6196937"><ele>65.0</ele><time>2026-04-18T07:09:14.443Z</time></trkpt><trkpt lat="43.5356061" lon="10.6196508"><ele>64.0</ele><time>2026-04-18T07:09:15.454Z</time></trkpt><trkpt lat="43.5357655" lon="10.619601"><ele>64.0</ele><time>2026-04-18T07:09:16.442Z</time></trkpt><trkpt lat="43.5359211" lon="10.6195592"><ele>64.0</ele><time>2026-04-18T07:09:17.441Z</time></trkpt><trkpt lat="43.5360759" lon="10.619515"><ele>64.0</ele><time>2026-04-18T07:09:18.435Z</time></trkpt><trkpt lat="43.5362242" lon="10.6194783"><ele>64.5</ele><time>2026-04-18T07:09:19.44Z</time></trkpt><trkpt lat="43.5363734" lon="10.6194409"><ele>65.0</ele><time>2026-04-18T07:09:20.44Z</time></trkpt><trkpt lat="43.5365148" lon="10.6194059"><ele>65.5</ele><time>2026-04-18T07:09:21.442Z</time></trkpt><trkpt lat="43.5366557" lon="10.619363"><ele>66.0</ele><time>2026-04-18T07:09:22.443Z</time></trkpt><trkpt lat="43.5367969" lon="10.6193219"><ele>66.0</ele><time>2026-04-18T07:09:23.447Z</time></trkpt><trkpt lat="43.5369341" lon="10.619297"><ele>66.0</ele><time>2026-04-18T07:09:24.447Z</time></trkpt><trkpt lat="43.5370772" lon="10.6192775"><ele>66.0</ele><time>2026-04-18T07:09:25.444Z</time></trkpt><trkpt lat="43.5372211" lon="10.6192616"><ele>66.0</ele><time>2026-04-18T07:09:26.453Z</time></trkpt><trkpt lat="43.5373718" lon="10.619251"><ele>65.5</ele><time>2026-04-18T07:09:27.441Z</time></trkpt><trkpt lat="43.537672" lon="10.6192483"><ele>65.0</ele><time>2026-04-18T07:09:29.446Z</time></trkpt><trkpt lat="43.5378243" lon="10.6192381"><ele>63.66666666666667</ele><time>2026-04-18T07:09:30.451Z</time></trkpt><trkpt lat="43.5379778" lon="10.6192202"><ele>62.33333333333333</ele><time>2026-04-18T07:09:31.471Z</time></trkpt><trkpt lat="43.5381442" lon="10.6192164"><ele>61.0</ele><time>2026-04-18T07:09:32.455Z</time></trkpt><trkpt lat="43.5383133" lon="10.6192115"><ele>61.0</ele><time>2026-04-18T07:09:33.456Z</time></trkpt><trkpt lat="43.5384914" lon="10.61922"><ele>61.0</ele><time>2026-04-18T07:09:34.455Z</time></trkpt><trkpt lat="43.5386692" lon="10.6192326"><ele>61.0</ele><time>2026-04-18T07:09:35.466Z</time></trkpt><trkpt lat="43.5388513" lon="10.619265"><ele>61.0</ele><time>2026-04-18T07:09:36.452Z</time></trkpt><trkpt lat="43.5390251" lon="10.6192818"><ele>61.0</ele><time>2026-04-18T07:09:37.448Z</time></trkpt><trkpt lat="43.5391989" lon="10.6193053"><ele>61.0</ele><time>2026-04-18T07:09:38.456Z</time></trkpt><trkpt lat="43.5393685" lon="10.6193256"><ele>61.0</ele><time>2026-04-18T07:09:39.457Z</time></trkpt><trkpt lat="43.5395366" lon="10.6193358"><ele>61.0</ele><time>2026-04-18T07:09:40.46Z</time></trkpt><trkpt lat="43.5397049" lon="10.6193329"><ele>61.0</ele><time>2026-04-18T07:09:41.47Z</time></trkpt><trkpt lat="43.5398753" lon="10.6193231"><ele>61.0</ele><time>2026-04-18T07:09:42.449Z</time></trkpt><trkpt lat="43.5400455" lon="10.6193007"><ele>61.0</ele><time>2026-04-18T07:09:43.458Z</time></trkpt><trkpt lat="43.5402077" lon="10.6192738"><ele>61.0</ele><time>2026-04-18T07:09:44.461Z</time></trkpt><trkpt lat="43.5403726" lon="10.6192475"><ele>60.666666666666664</ele><time>2026-04-18T07:09:45.446Z</time></trkpt><trkpt lat="43.5405315" lon="10.6192121"><ele>60.33333333333333</ele><time>2026-04-18T07:09:46.441Z</time></trkpt><trkpt lat="43.540691" lon="10.6191821"><ele>60.0</ele><time>2026-04-18T07:09:47.459Z</time></trkpt><trkpt lat="43.5408508" lon="10.6191542"><ele>60.0</ele><time>2026-04-18T07:09:48.458Z</time></trkpt><trkpt lat="43.5410175" lon="10.6191361"><ele>60.0</ele><time>2026-04-18T07:09:49.461Z</time></trkpt><trkpt lat="43.5411827" lon="10.6191328"><ele>60.0</ele><time>2026-04-18T07:09:50.459Z</time></trkpt><trkpt lat="43.541346" lon="10.619138"><ele>59.66666666666667</ele><time>2026-04-18T07:09:51.443Z</time></trkpt><trkpt lat="43.541514" lon="10.6191662"><ele>59.333333333333336</ele><time>2026-04-18T07:09:52.456Z</time></trkpt><trkpt lat="43.5416844" lon="10.6192036"><ele>59.0</ele><time>2026-04-18T07:09:53.456Z</time></trkpt><trkpt lat="43.5418564" lon="10.6192469"><ele>59.0</ele><time>2026-04-18T07:09:54.45Z</time></trkpt><trkpt lat="43.5420232" lon="10.6193032"><ele>59.0</ele><time>2026-04-18T07:09:55.441Z</time></trkpt><trkpt lat="43.5421848" lon="10.6193755"><ele>59.0</ele><time>2026-04-18T07:09:56.445Z</time></trkpt><trkpt lat="43.5423426" lon="10.6194497"><ele>59.0</ele><time>2026-04-18T07:09:57.447Z</time></trkpt><trkpt lat="43.5425084" lon="10.6195373"><ele>59.0</ele><time>2026-04-18T07:09:58.458Z</time></trkpt><trkpt lat="43.5426692" lon="10.6196301"><ele>59.0</ele><time>2026-04-18T07:09:59.439Z</time></trkpt><trkpt lat="43.5428318" lon="10.6197163"><ele>58.333333333333336</ele><time>2026-04-18T07:10:00.439Z</time></trkpt><trkpt lat="43.5429893" lon="10.6198015"><ele>57.66666666666667</ele><time>2026-04-18T07:10:01.46Z</time></trkpt><trkpt lat="43.5431491" lon="10.6198835"><ele>57.0</ele><time>2026-04-18T07:10:02.465Z</time></trkpt><trkpt lat="43.5433083" lon="10.6199653"><ele>57.0</ele><time>2026-04-18T07:10:03.45Z</time></trkpt><trkpt lat="43.5434712" lon="10.6200409"><ele>57.0</ele><time>2026-04-18T07:10:04.466Z</time></trkpt><trkpt lat="43.5436336" lon="10.6201174"><ele>57.0</ele><time>2026-04-18T07:10:05.45Z</time></trkpt><trkpt lat="43.5437961" lon="10.6201939"><ele>57.0</ele><time>2026-04-18T07:10:06.447Z</time></trkpt><trkpt lat="43.5439514" lon="10.62027"><ele>57.0</ele><time>2026-04-18T07:10:07.452Z</time></trkpt><trkpt lat="43.5441012" lon="10.6203572"><ele>57.0</ele><time>2026-04-18T07:10:08.455Z</time></trkpt><trkpt lat="43.5442526" lon="10.6204604"><ele>56.66666666666667</ele><time>2026-04-18T07:10:09.459Z</time></trkpt><trkpt lat="43.5444022" lon="10.6205621"><ele>56.333333333333336</ele><time>2026-04-18T07:10:10.453Z</time></trkpt><trkpt lat="43.5445476" lon="10.6206647"><ele>56.0</ele><time>2026-04-18T07:10:11.466Z</time></trkpt><trkpt lat="43.5446899" lon="10.6207632"><ele>55.333333333333336</ele><time>2026-04-18T07:10:12.444Z</time></trkpt><trkpt lat="43.5448337" lon="10.6208647"><ele>54.66666666666667</ele><time>2026-04-18T07:10:13.451Z</time></trkpt><trkpt lat="43.5449772" lon="10.6209719"><ele>54.0</ele><time>2026-04-18T07:10:14.459Z</time></trkpt><trkpt lat="43.5451213" lon="10.6210863"><ele>53.33333333333333</ele><time>2026-04-18T07:10:15.445Z</time></trkpt><trkpt lat="43.5452586" lon="10.6212128"><ele>52.666666666666664</ele><time>2026-04-18T07:10:16.447Z</time></trkpt><trkpt lat="43.5454002" lon="10.6213437"><ele>52.0</ele><time>2026-04-18T07:10:17.46Z</time></trkpt><trkpt lat="43.5455453" lon="10.6214718"><ele>51.666666666666664</ele><time>2026-04-18T07:10:18.432Z</time></trkpt><trkpt lat="43.5456817" lon="10.621607"><ele>51.33333333333333</ele><time>2026-04-18T07:10:19.443Z</time></trkpt><trkpt lat="43.5458058" lon="10.621728"><ele>51.0</ele><time>2026-04-18T07:10:20.441Z</time></trkpt><trkpt lat="43.5459341" lon="10.6218464"><ele>51.0</ele><time>2026-04-18T07:10:21.44Z</time></trkpt><trkpt lat="43.5460703" lon="10.6219682"><ele>51.0</ele><time>2026-04-18T07:10:22.445Z</time></trkpt><trkpt lat="43.5462138" lon="10.6220724"><ele>51.0</ele><time>2026-04-18T07:10:23.439Z</time></trkpt><trkpt lat="43.5463655" lon="10.6221664"><ele>51.0</ele><time>2026-04-18T07:10:24.452Z</time></trkpt><trkpt lat="43.5465124" lon="10.6222517"><ele>51.0</ele><time>2026-04-18T07:10:25.442Z</time></trkpt><trkpt lat="43.5466603" lon="10.622335"><ele>51.0</ele><time>2026-04-18T07:10:26.436Z</time></trkpt><trkpt lat="43.5468082" lon="10.6224074"><ele>51.0</ele><time>2026-04-18T07:10:27.448Z</time></trkpt><trkpt lat="43.5469573" lon="10.6224608"><ele>51.0</ele><time>2026-04-18T07:10:28.451Z</time></trkpt><trkpt lat="43.5471039" lon="10.6225008"><ele>51.0</ele><time>2026-04-18T07:10:29.451Z</time></trkpt><trkpt lat="43.5472465" lon="10.622544"><ele>51.0</ele><time>2026-04-18T07:10:30.459Z</time></trkpt><trkpt lat="43.5473917" lon="10.622583"><ele>52.5</ele><time>2026-04-18T07:10:31.444Z</time></trkpt><trkpt lat="43.5475345" lon="10.6226222"><ele>54.0</ele><time>2026-04-18T07:10:32.451Z</time></trkpt><trkpt lat="43.5476812" lon="10.6226753"><ele>55.5</ele><time>2026-04-18T07:10:33.442Z</time></trkpt><trkpt lat="43.5478206" lon="10.622752"><ele>57.0</ele><time>2026-04-18T07:10:34.44Z</time></trkpt><trkpt lat="43.5479568" lon="10.622828"><ele>57.0</ele><time>2026-04-18T07:10:35.449Z</time></trkpt><trkpt lat="43.5480892" lon="10.6229043"><ele>57.0</ele><time>2026-04-18T07:10:36.443Z</time></trkpt><trkpt lat="43.5482138" lon="10.6229845"><ele>57.0</ele><time>2026-04-18T07:10:37.45Z</time></trkpt><trkpt lat="43.5483283" lon="10.6230816"><ele>57.0</ele><time>2026-04-18T07:10:38.446Z</time></trkpt><trkpt lat="43.5484239" lon="10.6231983"><ele>57.0</ele><time>2026-04-18T07:10:39.44Z</time></trkpt><trkpt lat="43.548499" lon="10.6233439"><ele>57.0</ele><time>2026-04-18T07:10:40.441Z</time></trkpt><trkpt lat="43.5485651" lon="10.6235093"><ele>57.0</ele><time>2026-04-18T07:10:41.444Z</time></trkpt><trkpt lat="43.5486113" lon="10.6236861"><ele>57.0</ele><time>2026-04-18T07:10:42.45Z</time></trkpt><trkpt lat="43.5486618" lon="10.6238731"><ele>57.0</ele><time>2026-04-18T07:10:43.453Z</time></trkpt><trkpt lat="43.5487205" lon="10.6240506"><ele>57.0</ele><time>2026-04-18T07:10:44.446Z</time></trkpt><trkpt lat="43.5487792" lon="10.6242272"><ele>57.0</ele><time>2026-04-18T07:10:45.445Z</time></trkpt><trkpt lat="43.5488541" lon="10.6243815"><ele>57.0</ele><time>2026-04-18T07:10:46.433Z</time></trkpt><trkpt lat="43.5489386" lon="10.6245224"><ele>57.0</ele><time>2026-04-18T07:10:47.444Z</time></trkpt><trkpt lat="43.5490379" lon="10.6246571"><ele>57.0</ele><time>2026-04-18T07:10:48.445Z</time></trkpt><trkpt lat="43.5491389" lon="10.6247779"><ele>57.0</ele><time>2026-04-18T07:10:49.445Z</time></trkpt><trkpt lat="43.5492339" lon="10.6249021"><ele>57.0</ele><time>2026-04-18T07:10:50.458Z</time></trkpt><trkpt lat="43.5493337" lon="10.6250366"><ele>57.0</ele><time>2026-04-18T07:10:51.445Z</time></trkpt><trkpt lat="43.549435" lon="10.6251682"><ele>57.0</ele><time>2026-04-18T07:10:52.461Z</time></trkpt><trkpt lat="43.549544" lon="10.625289"><ele>57.0</ele><time>2026-04-18T07:10:53.446Z</time></trkpt><trkpt lat="43.5496582" lon="10.62539"><ele>57.0</ele><time>2026-04-18T07:10:54.462Z</time></trkpt><trkpt lat="43.54978" lon="10.6254662"><ele>56.0</ele><time>2026-04-18T07:10:55.446Z</time></trkpt><trkpt lat="43.5499139" lon="10.6255379"><ele>55.0</ele><time>2026-04-18T07:10:56.44Z</time></trkpt><trkpt lat="43.5500684" lon="10.6255823"><ele>54.0</ele><time>2026-04-18T07:10:57.448Z</time></trkpt><trkpt lat="43.5502265" lon="10.6256222"><ele>53.66666666666667</ele><time>2026-04-18T07:10:58.446Z</time></trkpt><trkpt lat="43.5503899" lon="10.6256558"><ele>53.333333333333336</ele><time>2026-04-18T07:10:59.447Z</time></trkpt><trkpt lat="43.550554" lon="10.625686"><ele>53.0</ele><time>2026-04-18T07:11:00.451Z</time></trkpt><trkpt lat="43.5507131" lon="10.6257148"><ele>53.0</ele><time>2026-04-18T07:11:01.448Z</time></trkpt><trkpt lat="43.5508588" lon="10.6257373"><ele>53.0</ele><time>2026-04-18T07:11:02.447Z</time></trkpt><trkpt lat="43.5510072" lon="10.6257408"><ele>53.0</ele><time>2026-04-18T07:11:03.451Z</time></trkpt><trkpt lat="43.5511604" lon="10.6257321"><ele>53.0</ele><time>2026-04-18T07:11:04.44Z</time></trkpt><trkpt lat="43.5513176" lon="10.6257257"><ele>52.333333333333336</ele><time>2026-04-18T07:11:05.455Z</time></trkpt><trkpt lat="43.5514769" lon="10.6257097"><ele>51.66666666666667</ele><time>2026-04-18T07:11:06.443Z</time></trkpt><trkpt lat="43.5516351" lon="10.6256893"><ele>51.0</ele><time>2026-04-18T07:11:07.442Z</time></trkpt><trkpt lat="43.5517853" lon="10.625678"><ele>51.0</ele><time>2026-04-18T07:11:08.449Z</time></trkpt><trkpt lat="43.5519206" lon="10.625668"><ele>51.0</ele><time>2026-04-18T07:11:09.427Z</time></trkpt><trkpt lat="43.5520553" lon="10.6256876"><ele>51.0</ele><time>2026-04-18T07:11:10.459Z</time></trkpt><trkpt lat="43.5521831" lon="10.6257413"><ele>51.0</ele><time>2026-04-18T07:11:11.433Z</time></trkpt><trkpt lat="43.5523119" lon="10.6258087"><ele>51.75</ele><time>2026-04-18T07:11:12.45Z</time></trkpt><trkpt lat="43.5524378" lon="10.6259034"><ele>52.5</ele><time>2026-04-18T07:11:13.453Z</time></trkpt><trkpt lat="43.5525636" lon="10.6260072"><ele>53.25</ele><time>2026-04-18T07:11:14.434Z</time></trkpt><trkpt lat="43.5526919" lon="10.6261152"><ele>54.0</ele><time>2026-04-18T07:11:15.451Z</time></trkpt><trkpt lat="43.55282" lon="10.6262321"><ele>54.0</ele><time>2026-04-18T07:11:16.442Z</time></trkpt><trkpt lat="43.552934" lon="10.626354"><ele>54.0</ele><time>2026-04-18T07:11:17.45Z</time></trkpt><trkpt lat="43.5530503" lon="10.6264781"><ele>54.0</ele><time>2026-04-18T07:11:18.438Z</time></trkpt><trkpt lat="43.5531696" lon="10.6265962"><ele>54.0</ele><time>2026-04-18T07:11:19.441Z</time></trkpt><trkpt lat="43.5532818" lon="10.6267058"><ele>54.0</ele><time>2026-04-18T07:11:20.445Z</time></trkpt><trkpt lat="43.5533921" lon="10.6267973"><ele>54.0</ele><time>2026-04-18T07:11:21.446Z</time></trkpt><trkpt lat="43.5535091" lon="10.6268664"><ele>54.0</ele><time>2026-04-18T07:11:22.447Z</time></trkpt><trkpt lat="43.5536242" lon="10.6269135"><ele>54.0</ele><time>2026-04-18T07:11:23.46Z</time></trkpt><trkpt lat="43.5537416" lon="10.6269384"><ele>55.400000000000006</ele><time>2026-04-18T07:11:24.446Z</time></trkpt><trkpt lat="43.5538581" lon="10.6269492"><ele>56.800000000000004</ele><time>2026-04-18T07:11:25.451Z</time></trkpt><trkpt lat="43.5539668" lon="10.6269581"><ele>58.199999999999996</ele><time>2026-04-18T07:11:26.448Z</time></trkpt><trkpt lat="43.554062" lon="10.626993"><ele>59.599999999999994</ele><time>2026-04-18T07:11:27.431Z</time></trkpt><trkpt lat="43.5541537" lon="10.6270464"><ele>61.0</ele><time>2026-04-18T07:11:28.447Z</time></trkpt><trkpt lat="43.5542452" lon="10.6271129"><ele>58.199999999999996</ele><time>2026-04-18T07:11:29.435Z</time></trkpt><trkpt lat="43.5543468" lon="10.6271649"><ele>55.39999999999999</ele><time>2026-04-18T07:11:30.446Z</time></trkpt><trkpt lat="43.5544562" lon="10.6271877"><ele>52.6</ele><time>2026-04-18T07:11:31.436Z</time></trkpt><trkpt lat="43.5545698" lon="10.6271995"><ele>49.8</ele><time>2026-04-18T07:11:32.442Z</time></trkpt><trkpt lat="43.5546693" lon="10.6271842"><ele>47.0</ele><time>2026-04-18T07:11:33.446Z</time></trkpt><trkpt lat="43.5547539" lon="10.627174"><ele>47.0</ele><time>2026-04-18T07:11:34.429Z</time></trkpt><trkpt lat="43.5548412" lon="10.6272106"><ele>47.0</ele><time>2026-04-18T07:11:36.432Z</time></trkpt><trkpt lat="43.5548228" lon="10.6273341"><ele>47.0</ele><time>2026-04-18T07:11:39.445Z</time></trkpt><trkpt lat="43.5547559" lon="10.62744"><ele>47.0</ele><time>2026-04-18T07:11:41.425Z</time></trkpt><trkpt lat="43.5547058" lon="10.6275227"><ele>47.0</ele><time>2026-04-18T07:11:42.441Z</time></trkpt><trkpt lat="43.5546448" lon="10.6276278"><ele>47.0</ele><time>2026-04-18T07:11:43.448Z</time></trkpt><trkpt lat="43.5545838" lon="10.6277316"><ele>47.0</ele><time>2026-04-18T07:11:44.453Z</time></trkpt><trkpt lat="43.5545169" lon="10.6278345"><ele>47.0</ele><time>2026-04-18T07:11:45.435Z</time></trkpt><trkpt lat="43.5544586" lon="10.627932"><ele>47.0</ele><time>2026-04-18T07:11:46.451Z</time></trkpt><trkpt lat="43.5544095" lon="10.6280121"><ele>47.0</ele><time>2026-04-18T07:11:47.442Z</time></trkpt><trkpt lat="43.5543548" lon="10.628079"><ele>47.0</ele><time>2026-04-18T07:11:48.453Z</time></trkpt><trkpt lat="43.5542989" lon="10.6281278"><ele>46.33333333333333</ele><time>2026-04-18T07:11:49.439Z</time></trkpt><trkpt lat="43.5541715" lon="10.6281831"><ele>45.666666666666664</ele><time>2026-04-18T07:11:51.444Z</time></trkpt><trkpt lat="43.5540979" lon="10.6282044"><ele>45.0</ele><time>2026-04-18T07:11:52.452Z</time></trkpt><trkpt lat="43.5540268" lon="10.628247"><ele>44.333333333333336</ele><time>2026-04-18T07:11:53.451Z</time></trkpt><trkpt lat="43.5539571" lon="10.6283005"><ele>43.66666666666667</ele><time>2026-04-18T07:11:54.441Z</time></trkpt><trkpt lat="43.5539048" lon="10.6283729"><ele>43.0</ele><time>2026-04-18T07:11:55.436Z</time></trkpt><trkpt lat="43.5538687" lon="10.628482"><ele>43.0</ele><time>2026-04-18T07:11:56.442Z</time></trkpt><trkpt lat="43.5538274" lon="10.6286058"><ele>43.0</ele><time>2026-04-18T07:11:57.444Z</time></trkpt><trkpt lat="43.5537933" lon="10.6287437"><ele>43.0</ele><time>2026-04-18T07:11:58.445Z</time></trkpt><trkpt lat="43.5537656" lon="10.6289011"><ele>43.0</ele><time>2026-04-18T07:11:59.439Z</time></trkpt><trkpt lat="43.5537411" lon="10.629056"><ele>43.0</ele><time>2026-04-18T07:12:00.491Z</time></trkpt><trkpt lat="43.5537152" lon="10.6292164"><ele>43.75</ele><time>2026-04-18T07:12:01.443Z</time></trkpt><trkpt lat="43.5536871" lon="10.6293782"><ele>44.5</ele><time>2026-04-18T07:12:02.445Z</time></trkpt><trkpt lat="43.5536631" lon="10.6295296"><ele>45.25</ele><time>2026-04-18T07:12:03.437Z</time></trkpt><trkpt lat="43.5536381" lon="10.6296844"><ele>46.0</ele><time>2026-04-18T07:12:04.433Z</time></trkpt><trkpt lat="43.553618" lon="10.6298382"><ele>46.0</ele><time>2026-04-18T07:12:05.442Z</time></trkpt><trkpt lat="43.5536001" lon="10.6299997"><ele>46.0</ele><time>2026-04-18T07:12:06.443Z</time></trkpt><trkpt lat="43.5535794" lon="10.6301765"><ele>46.0</ele><time>2026-04-18T07:12:07.448Z</time></trkpt><trkpt lat="43.5535599" lon="10.6303645"><ele>46.0</ele><time>2026-04-18T07:12:08.454Z</time></trkpt><trkpt lat="43.5535431" lon="10.630544"><ele>46.0</ele><time>2026-04-18T07:12:09.442Z</time></trkpt><trkpt lat="43.5535196" lon="10.6307293"><ele>46.0</ele><time>2026-04-18T07:12:10.451Z</time></trkpt><trkpt lat="43.5534951" lon="10.6309038"><ele>46.0</ele><time>2026-04-18T07:12:11.444Z</time></trkpt><trkpt lat="43.5534708" lon="10.6310824"><ele>46.0</ele><time>2026-04-18T07:12:12.471Z</time></trkpt><trkpt lat="43.5534528" lon="10.6312536"><ele>46.0</ele><time>2026-04-18T07:12:13.452Z</time></trkpt><trkpt lat="43.553431" lon="10.6314251"><ele>46.0</ele><time>2026-04-18T07:12:14.444Z</time></trkpt><trkpt lat="43.5533986" lon="10.631599"><ele>46.0</ele><time>2026-04-18T07:12:15.445Z</time></trkpt><trkpt lat="43.5533628" lon="10.6317684"><ele>46.0</ele><time>2026-04-18T07:12:16.459Z</time></trkpt><trkpt lat="43.5533187" lon="10.6319341"><ele>46.0</ele><time>2026-04-18T07:12:17.451Z</time></trkpt><trkpt lat="43.5532728" lon="10.6320983"><ele>46.0</ele><time>2026-04-18T07:12:18.443Z</time></trkpt><trkpt lat="43.5532231" lon="10.632263"><ele>46.0</ele><time>2026-04-18T07:12:19.45Z</time></trkpt><trkpt lat="43.5531763" lon="10.6324206"><ele>46.0</ele><time>2026-04-18T07:12:20.444Z</time></trkpt><trkpt lat="43.5531333" lon="10.6325742"><ele>46.0</ele><time>2026-04-18T07:12:21.452Z</time></trkpt><trkpt lat="43.5530978" lon="10.6327155"><ele>46.0</ele><time>2026-04-18T07:12:22.444Z</time></trkpt><trkpt lat="43.5530689" lon="10.6328375"><ele>46.0</ele><time>2026-04-18T07:12:23.447Z</time></trkpt><trkpt lat="43.5530433" lon="10.6329411"><ele>46.0</ele><time>2026-04-18T07:12:24.462Z</time></trkpt><trkpt lat="43.5529965" lon="10.6330763"><ele>46.0</ele><time>2026-04-18T07:12:26.447Z</time></trkpt><trkpt lat="43.5529053" lon="10.6331211"><ele>47.5</ele><time>2026-04-18T07:12:28.437Z</time></trkpt><trkpt lat="43.5528388" lon="10.633111"><ele>49.0</ele><time>2026-04-18T07:12:29.459Z</time></trkpt><trkpt lat="43.5527689" lon="10.6330774"><ele>50.5</ele><time>2026-04-18T07:12:30.45Z</time></trkpt><trkpt lat="43.5526872" lon="10.6330229"><ele>52.0</ele><time>2026-04-18T07:12:31.451Z</time></trkpt><trkpt lat="43.5525976" lon="10.6329869"><ele>53.49999999999999</ele><time>2026-04-18T07:12:32.438Z</time></trkpt><trkpt lat="43.5524996" lon="10.6329348"><ele>55.0</ele><time>2026-04-18T07:12:33.438Z</time></trkpt><trkpt lat="43.5524014" lon="10.6328895"><ele>55.0</ele><time>2026-04-18T07:12:34.449Z</time></trkpt><trkpt lat="43.5522969" lon="10.6328192"><ele>55.0</ele><time>2026-04-18T07:12:35.444Z</time></trkpt><trkpt lat="43.5521897" lon="10.6327397"><ele>55.0</ele><time>2026-04-18T07:12:36.447Z</time></trkpt><trkpt lat="43.5520833" lon="10.6326551"><ele>55.0</ele><time>2026-04-18T07:12:37.448Z</time></trkpt><trkpt lat="43.551979" lon="10.6325716"><ele>54.0</ele><time>2026-04-18T07:12:38.451Z</time></trkpt><trkpt lat="43.5518769" lon="10.6324717"><ele>53.0</ele><time>2026-04-18T07:12:39.452Z</time></trkpt><trkpt lat="43.5517774" lon="10.6323538"><ele>52.0</ele><time>2026-04-18T07:12:40.444Z</time></trkpt><trkpt lat="43.5516845" lon="10.6322315"><ele>51.0</ele><time>2026-04-18T07:12:41.458Z</time></trkpt><trkpt lat="43.551585" lon="10.6321174"><ele>51.0</ele><time>2026-04-18T07:12:42.449Z</time></trkpt><trkpt lat="43.5514804" lon="10.6320141"><ele>51.0</ele><time>2026-04-18T07:12:43.44Z</time></trkpt><trkpt lat="43.5513681" lon="10.6319421"><ele>51.0</ele><time>2026-04-18T07:12:44.454Z</time></trkpt><trkpt lat="43.5512554" lon="10.6318715"><ele>51.0</ele><time>2026-04-18T07:12:45.452Z</time></trkpt><trkpt lat="43.5511357" lon="10.6318122"><ele>50.75</ele><time>2026-04-18T07:12:46.454Z</time></trkpt><trkpt lat="43.5510153" lon="10.6317759"><ele>50.5</ele><time>2026-04-18T07:12:47.439Z</time></trkpt><trkpt lat="43.5508956" lon="10.6317356"><ele>50.25</ele><time>2026-04-18T07:12:48.449Z</time></trkpt><trkpt lat="43.5507695" lon="10.6317181"><ele>50.0</ele><time>2026-04-18T07:12:49.439Z</time></trkpt><trkpt lat="43.5506428" lon="10.6317171"><ele>50.0</ele><time>2026-04-18T07:12:50.449Z</time></trkpt><trkpt lat="43.5505179" lon="10.6317294"><ele>50.0</ele><time>2026-04-18T07:12:51.444Z</time></trkpt><trkpt lat="43.5503854" lon="10.6317466"><ele>50.0</ele><time>2026-04-18T07:12:52.449Z</time></trkpt><trkpt lat="43.5502499" lon="10.6317695"><ele>50.0</ele><time>2026-04-18T07:12:53.444Z</time></trkpt><trkpt lat="43.5501086" lon="10.6317897"><ele>50.5</ele><time>2026-04-18T07:12:54.439Z</time></trkpt><trkpt lat="43.5499657" lon="10.6318123"><ele>51.0</ele><time>2026-04-18T07:12:55.447Z</time></trkpt><trkpt lat="43.5498242" lon="10.6318305"><ele>51.5</ele><time>2026-04-18T07:12:56.439Z</time></trkpt><trkpt lat="43.5496876" lon="10.6318462"><ele>52.0</ele><time>2026-04-18T07:12:57.445Z</time></trkpt><trkpt lat="43.5495506" lon="10.6318582"><ele>52.25</ele><time>2026-04-18T07:12:58.441Z</time></trkpt><trkpt lat="43.5494326" lon="10.6318703"><ele>52.5</ele><time>2026-04-18T07:12:59.46Z</time></trkpt><trkpt lat="43.5493247" lon="10.6319065"><ele>52.75</ele><time>2026-04-18T07:13:00.451Z</time></trkpt><trkpt lat="43.5492123" lon="10.6319645"><ele>53.0</ele><time>2026-04-18T07:13:01.453Z</time></trkpt><trkpt lat="43.5491017" lon="10.6320395"><ele>52.75</ele><time>2026-04-18T07:13:02.442Z</time></trkpt><trkpt lat="43.5489822" lon="10.6321278"><ele>52.5</ele><time>2026-04-18T07:13:03.447Z</time></trkpt><trkpt lat="43.5488543" lon="10.6322316"><ele>52.25</ele><time>2026-04-18T07:13:04.432Z</time></trkpt><trkpt lat="43.5487215" lon="10.6323385"><ele>52.0</ele><time>2026-04-18T07:13:05.435Z</time></trkpt><trkpt lat="43.5485831" lon="10.6324421"><ele>52.0</ele><time>2026-04-18T07:13:06.454Z</time></trkpt><trkpt lat="43.5484411" lon="10.6325512"><ele>52.0</ele><time>2026-04-18T07:13:07.445Z</time></trkpt><trkpt lat="43.5483021" lon="10.6326613"><ele>52.0</ele><time>2026-04-18T07:13:08.439Z</time></trkpt><trkpt lat="43.5481546" lon="10.6327748"><ele>53.0</ele><time>2026-04-18T07:13:09.445Z</time></trkpt><trkpt lat="43.5480027" lon="10.6328919"><ele>54.0</ele><time>2026-04-18T07:13:10.446Z</time></trkpt><trkpt lat="43.5478474" lon="10.633012"><ele>55.0</ele><time>2026-04-18T07:13:11.436Z</time></trkpt><trkpt lat="43.5476946" lon="10.6331259"><ele>55.0</ele><time>2026-04-18T07:13:12.437Z</time></trkpt><trkpt lat="43.5475415" lon="10.6332255"><ele>55.0</ele><time>2026-04-18T07:13:13.439Z</time></trkpt><trkpt lat="43.5473925" lon="10.6333242"><ele>55.0</ele><time>2026-04-18T07:13:14.437Z</time></trkpt><trkpt lat="43.5472399" lon="10.6334243"><ele>55.0</ele><time>2026-04-18T07:13:15.459Z</time></trkpt><trkpt lat="43.5470955" lon="10.6335298"><ele>55.0</ele><time>2026-04-18T07:13:16.442Z</time></trkpt><trkpt lat="43.546959" lon="10.6336407"><ele>55.0</ele><time>2026-04-18T07:13:17.446Z</time></trkpt><trkpt lat="43.5468328" lon="10.6337738"><ele>55.0</ele><time>2026-04-18T07:13:18.451Z</time></trkpt><trkpt lat="43.5467048" lon="10.633921"><ele>55.0</ele><time>2026-04-18T07:13:19.443Z</time></trkpt><trkpt lat="43.5465734" lon="10.6340888"><ele>55.0</ele><time>2026-04-18T07:13:20.442Z</time></trkpt><trkpt lat="43.5464401" lon="10.6342672"><ele>55.0</ele><time>2026-04-18T07:13:21.453Z</time></trkpt><trkpt lat="43.546314" lon="10.6344335"><ele>55.0</ele><time>2026-04-18T07:13:22.454Z</time></trkpt><trkpt lat="43.5461875" lon="10.6346028"><ele>55.0</ele><time>2026-04-18T07:13:23.454Z</time></trkpt><trkpt lat="43.5460613" lon="10.6347719"><ele>54.33333333333333</ele><time>2026-04-18T07:13:24.461Z</time></trkpt><trkpt lat="43.545943" lon="10.6349375"><ele>53.66666666666667</ele><time>2026-04-18T07:13:25.435Z</time></trkpt><trkpt lat="43.5458191" lon="10.6350877"><ele>53.0</ele><time>2026-04-18T07:13:26.451Z</time></trkpt><trkpt lat="43.5456992" lon="10.6352184"><ele>54.333333333333336</ele><time>2026-04-18T07:13:27.461Z</time></trkpt><trkpt lat="43.5455669" lon="10.6353392"><ele>55.66666666666667</ele><time>2026-04-18T07:13:28.454Z</time></trkpt><trkpt lat="43.5454368" lon="10.6354284"><ele>57.0</ele><time>2026-04-18T07:13:29.451Z</time></trkpt><trkpt lat="43.5452906" lon="10.6354921"><ele>57.75</ele><time>2026-04-18T07:13:30.449Z</time></trkpt><trkpt lat="43.5451429" lon="10.6355378"><ele>58.5</ele><time>2026-04-18T07:13:31.446Z</time></trkpt><trkpt lat="43.5449914" lon="10.6355537"><ele>59.25</ele><time>2026-04-18T07:13:32.438Z</time></trkpt><trkpt lat="43.5448461" lon="10.6355732"><ele>60.0</ele><time>2026-04-18T07:13:33.419Z</time></trkpt><trkpt lat="43.5447043" lon="10.6355923"><ele>60.0</ele><time>2026-04-18T07:13:34.442Z</time></trkpt><trkpt lat="43.5445716" lon="10.6356429"><ele>60.0</ele><time>2026-04-18T07:13:35.461Z</time></trkpt><trkpt lat="43.5444382" lon="10.6357216"><ele>60.0</ele><time>2026-04-18T07:13:36.434Z</time></trkpt><trkpt lat="43.5443075" lon="10.6358435"><ele>60.0</ele><time>2026-04-18T07:13:37.448Z</time></trkpt><trkpt lat="43.5441805" lon="10.6359823"><ele>60.33333333333333</ele><time>2026-04-18T07:13:38.439Z</time></trkpt><trkpt lat="43.5440538" lon="10.6361325"><ele>60.666666666666664</ele><time>2026-04-18T07:13:39.432Z</time></trkpt><trkpt lat="43.5439165" lon="10.6362848"><ele>61.0</ele><time>2026-04-18T07:13:40.439Z</time></trkpt><trkpt lat="43.5437803" lon="10.6364508"><ele>60.33333333333333</ele><time>2026-04-18T07:13:41.446Z</time></trkpt><trkpt lat="43.543639" lon="10.6366156"><ele>59.66666666666667</ele><time>2026-04-18T07:13:42.459Z</time></trkpt><trkpt lat="43.5434914" lon="10.6367895"><ele>59.0</ele><time>2026-04-18T07:13:43.444Z</time></trkpt><trkpt lat="43.5433476" lon="10.6369706"><ele>59.0</ele><time>2026-04-18T07:13:44.441Z</time></trkpt><trkpt lat="43.5432" lon="10.6371475"><ele>59.0</ele><time>2026-04-18T07:13:45.432Z</time></trkpt><trkpt lat="43.5430509" lon="10.6373308"><ele>59.0</ele><time>2026-04-18T07:13:46.436Z</time></trkpt><trkpt lat="43.5428949" lon="10.637514"><ele>59.66666666666667</ele><time>2026-04-18T07:13:47.449Z</time></trkpt><trkpt lat="43.5427451" lon="10.6376976"><ele>60.33333333333333</ele><time>2026-04-18T07:13:48.451Z</time></trkpt><trkpt lat="43.5425907" lon="10.6378745"><ele>61.0</ele><time>2026-04-18T07:13:49.452Z</time></trkpt><trkpt lat="43.5424416" lon="10.6380452"><ele>61.0</ele><time>2026-04-18T07:13:50.455Z</time></trkpt><trkpt lat="43.5422914" lon="10.6382069"><ele>61.0</ele><time>2026-04-18T07:13:51.438Z</time></trkpt><trkpt lat="43.5421411" lon="10.638375"><ele>61.0</ele><time>2026-04-18T07:13:52.451Z</time></trkpt><trkpt lat="43.5419909" lon="10.6385467"><ele>60.0</ele><time>2026-04-18T07:13:53.453Z</time></trkpt><trkpt lat="43.5418448" lon="10.6387184"><ele>59.0</ele><time>2026-04-18T07:13:54.459Z</time></trkpt><trkpt lat="43.5417037" lon="10.6388817"><ele>58.0</ele><time>2026-04-18T07:13:55.452Z</time></trkpt><trkpt lat="43.5415658" lon="10.6390489"><ele>58.0</ele><time>2026-04-18T07:13:56.448Z</time></trkpt><trkpt lat="43.5414318" lon="10.6392159"><ele>58.0</ele><time>2026-04-18T07:13:57.455Z</time></trkpt><trkpt lat="43.5412964" lon="10.6393856"><ele>58.0</ele><time>2026-04-18T07:13:58.445Z</time></trkpt><trkpt lat="43.5411732" lon="10.6395552"><ele>57.33333333333333</ele><time>2026-04-18T07:13:59.441Z</time></trkpt><trkpt lat="43.5410509" lon="10.6397518"><ele>56.66666666666667</ele><time>2026-04-18T07:14:00.447Z</time></trkpt><trkpt lat="43.5409298" lon="10.63997"><ele>56.0</ele><time>2026-04-18T07:14:01.454Z</time></trkpt><trkpt lat="43.5408193" lon="10.6401869"><ele>56.333333333333336</ele><time>2026-04-18T07:14:02.445Z</time></trkpt><trkpt lat="43.540706" lon="10.6404051"><ele>56.66666666666667</ele><time>2026-04-18T07:14:03.459Z</time></trkpt><trkpt lat="43.5405928" lon="10.6406249"><ele>57.0</ele><time>2026-04-18T07:14:04.45Z</time></trkpt><trkpt lat="43.5404791" lon="10.6408453"><ele>56.66666666666667</ele><time>2026-04-18T07:14:05.454Z</time></trkpt><trkpt lat="43.5403602" lon="10.6410602"><ele>56.333333333333336</ele><time>2026-04-18T07:14:06.451Z</time></trkpt><trkpt lat="43.5402451" lon="10.6412761"><ele>56.0</ele><time>2026-04-18T07:14:07.458Z</time></trkpt><trkpt lat="43.5401207" lon="10.6414851"><ele>56.66666666666667</ele><time>2026-04-18T07:14:08.449Z</time></trkpt><trkpt lat="43.5399894" lon="10.6416936"><ele>57.33333333333333</ele><time>2026-04-18T07:14:09.454Z</time></trkpt><trkpt lat="43.5398556" lon="10.641893"><ele>58.0</ele><time>2026-04-18T07:14:10.459Z</time></trkpt><trkpt lat="43.5397233" lon="10.6420839"><ele>58.0</ele><time>2026-04-18T07:14:11.444Z</time></trkpt><trkpt lat="43.5395827" lon="10.6422651"><ele>58.0</ele><time>2026-04-18T07:14:12.456Z</time></trkpt><trkpt lat="43.539446" lon="10.6424462"><ele>58.0</ele><time>2026-04-18T07:14:13.448Z</time></trkpt><trkpt lat="43.5393115" lon="10.6426294"><ele>62.666666666666664</ele><time>2026-04-18T07:14:14.462Z</time></trkpt><trkpt lat="43.5391806" lon="10.6428161"><ele>67.33333333333333</ele><time>2026-04-18T07:14:15.432Z</time></trkpt><trkpt lat="43.5390535" lon="10.6429983"><ele>72.0</ele><time>2026-04-18T07:14:16.445Z</time></trkpt><trkpt lat="43.5389275" lon="10.6431846"><ele>72.0</ele><time>2026-04-18T07:14:17.432Z</time></trkpt><trkpt lat="43.5388109" lon="10.6433778"><ele>72.0</ele><time>2026-04-18T07:14:18.442Z</time></trkpt><trkpt lat="43.5387014" lon="10.6435757"><ele>72.0</ele><time>2026-04-18T07:14:19.44Z</time></trkpt><trkpt lat="43.5385958" lon="10.6437733"><ele>69.66666666666667</ele><time>2026-04-18T07:14:20.442Z</time></trkpt><trkpt lat="43.5384934" lon="10.6439703"><ele>67.33333333333334</ele><time>2026-04-18T07:14:21.443Z</time></trkpt><trkpt lat="43.5383996" lon="10.644177"><ele>65.0</ele><time>2026-04-18T07:14:22.433Z</time></trkpt><trkpt lat="43.5383066" lon="10.6443796"><ele>67.33333333333334</ele><time>2026-04-18T07:14:23.454Z</time></trkpt><trkpt lat="43.5382155" lon="10.6445813"><ele>69.66666666666667</ele><time>2026-04-18T07:14:24.434Z</time></trkpt><trkpt lat="43.538138" lon="10.6447636"><ele>72.0</ele><time>2026-04-18T07:14:25.437Z</time></trkpt><trkpt lat="43.5380652" lon="10.6449454"><ele>72.0</ele><time>2026-04-18T07:14:26.44Z</time></trkpt><trkpt lat="43.5380077" lon="10.6451337"><ele>72.0</ele><time>2026-04-18T07:14:27.443Z</time></trkpt><trkpt lat="43.5379673" lon="10.6453079"><ele>72.0</ele><time>2026-04-18T07:14:28.454Z</time></trkpt><trkpt lat="43.5379338" lon="10.6454538"><ele>72.0</ele><time>2026-04-18T07:14:29.451Z</time></trkpt><trkpt lat="43.5379204" lon="10.6455411"><ele>72.83333333333333</ele><time>2026-04-18T07:14:30.453Z</time></trkpt><trkpt lat="43.5379267" lon="10.6454377"><ele>73.66666666666667</ele><time>2026-04-18T07:14:36.453Z</time></trkpt><trkpt lat="43.5379736" lon="10.6455305"><ele>74.5</ele><time>2026-04-18T07:14:41.437Z</time></trkpt><trkpt lat="43.5380452" lon="10.645623"><ele>75.33333333333334</ele><time>2026-04-18T07:14:43.442Z</time></trkpt><trkpt lat="43.5380722" lon="10.6457145"><ele>76.16666666666667</ele><time>2026-04-18T07:14:44.455Z</time></trkpt><trkpt lat="43.5380924" lon="10.645838"><ele>77.0</ele><time>2026-04-18T07:14:45.441Z</time></trkpt><trkpt lat="43.5381137" lon="10.6459585"><ele>77.0</ele><time>2026-04-18T07:14:46.452Z</time></trkpt><trkpt lat="43.5381314" lon="10.6460831"><ele>77.0</ele><time>2026-04-18T07:14:47.427Z</time></trkpt><trkpt lat="43.5381473" lon="10.6461916"><ele>77.0</ele><time>2026-04-18T07:14:48.447Z</time></trkpt><trkpt lat="43.5381742" lon="10.6462883"><ele>77.0</ele><time>2026-04-18T07:14:49.445Z</time></trkpt><trkpt lat="43.5382139" lon="10.6463689"><ele>77.0</ele><time>2026-04-18T07:14:50.449Z</time></trkpt><trkpt lat="43.5382689" lon="10.646454"><ele>77.0</ele><time>2026-04-18T07:14:51.449Z</time></trkpt><trkpt lat="43.53834" lon="10.6465474"><ele>76.6</ele><time>2026-04-18T07:14:52.457Z</time></trkpt><trkpt lat="43.5384143" lon="10.6466466"><ele>76.2</ele><time>2026-04-18T07:14:53.442Z</time></trkpt><trkpt lat="43.5384895" lon="10.6467486"><ele>75.8</ele><time>2026-04-18T07:14:54.434Z</time></trkpt><trkpt lat="43.5385613" lon="10.6468547"><ele>75.4</ele><time>2026-04-18T07:14:55.443Z</time></trkpt><trkpt lat="43.5386356" lon="10.6469616"><ele>75.0</ele><time>2026-04-18T07:14:56.44Z</time></trkpt><trkpt lat="43.5387035" lon="10.6470641"><ele>76.0</ele><time>2026-04-18T07:14:57.433Z</time></trkpt><trkpt lat="43.5387661" lon="10.6471333"><ele>77.0</ele><time>2026-04-18T07:14:58.449Z</time></trkpt><trkpt lat="43.5388257" lon="10.6471985"><ele>78.0</ele><time>2026-04-18T07:14:59.443Z</time></trkpt><trkpt lat="43.5388913" lon="10.6472432"><ele>79.0</ele><time>2026-04-18T07:15:00.463Z</time></trkpt><trkpt lat="43.5389768" lon="10.647273"><ele>80.0</ele><time>2026-04-18T07:15:01.447Z</time></trkpt><trkpt lat="43.5390476" lon="10.6472979"><ele>81.0</ele><time>2026-04-18T07:15:02.435Z</time></trkpt><trkpt lat="43.5391269" lon="10.6473204"><ele>81.0</ele><time>2026-04-18T07:15:03.446Z</time></trkpt><trkpt lat="43.5392094" lon="10.6473363"><ele>81.0</ele><time>2026-04-18T07:15:04.449Z</time></trkpt><trkpt lat="43.5392861" lon="10.6473641"><ele>81.0</ele><time>2026-04-18T07:15:05.441Z</time></trkpt><trkpt lat="43.5393567" lon="10.6474082"><ele>81.0</ele><time>2026-04-18T07:15:06.453Z</time></trkpt><trkpt lat="43.5394299" lon="10.6474821"><ele>81.0</ele><time>2026-04-18T07:15:07.43Z</time></trkpt><trkpt lat="43.5395035" lon="10.6475544"><ele>81.0</ele><time>2026-04-18T07:15:08.435Z</time></trkpt><trkpt lat="43.5395703" lon="10.647626"><ele>84.19999999999999</ele><time>2026-04-18T07:15:09.443Z</time></trkpt><trkpt lat="43.5396239" lon="10.6477191"><ele>87.39999999999999</ele><time>2026-04-18T07:15:10.443Z</time></trkpt><trkpt lat="43.5396544" lon="10.6478225"><ele>90.6</ele><time>2026-04-18T07:15:11.435Z</time></trkpt><trkpt lat="43.5396837" lon="10.6479439"><ele>93.8</ele><time>2026-04-18T07:15:12.451Z</time></trkpt><trkpt lat="43.5397085" lon="10.6480654"><ele>97.0</ele><time>2026-04-18T07:15:13.442Z</time></trkpt><trkpt lat="43.5397394" lon="10.6482026"><ele>97.0</ele><time>2026-04-18T07:15:14.445Z</time></trkpt><trkpt lat="43.5397728" lon="10.6483345"><ele>97.0</ele><time>2026-04-18T07:15:15.437Z</time></trkpt><trkpt lat="43.5398056" lon="10.6484686"><ele>97.0</ele><time>2026-04-18T07:15:16.439Z</time></trkpt><trkpt lat="43.5398376" lon="10.6486055"><ele>97.0</ele><time>2026-04-18T07:15:17.449Z</time></trkpt><trkpt lat="43.5398718" lon="10.6487525"><ele>97.0</ele><time>2026-04-18T07:15:18.431Z</time></trkpt><trkpt lat="43.5399066" lon="10.6488882"><ele>97.0</ele><time>2026-04-18T07:15:19.447Z</time></trkpt><trkpt lat="43.5399518" lon="10.6490166"><ele>97.0</ele><time>2026-04-18T07:15:20.428Z</time></trkpt><trkpt lat="43.5399888" lon="10.6491352"><ele>97.0</ele><time>2026-04-18T07:15:21.442Z</time></trkpt><trkpt lat="43.5400304" lon="10.6492382"><ele>97.0</ele><time>2026-04-18T07:15:22.442Z</time></trkpt><trkpt lat="43.5400846" lon="10.6493446"><ele>97.0</ele><time>2026-04-18T07:15:23.451Z</time></trkpt><trkpt lat="43.5401381" lon="10.6494539"><ele>97.33333333333334</ele><time>2026-04-18T07:15:24.435Z</time></trkpt><trkpt lat="43.5401902" lon="10.6495621"><ele>97.66666666666667</ele><time>2026-04-18T07:15:25.432Z</time></trkpt><trkpt lat="43.5402405" lon="10.6496588"><ele>98.0</ele><time>2026-04-18T07:15:26.443Z</time></trkpt><trkpt lat="43.5402867" lon="10.6497572"><ele>98.33333333333334</ele><time>2026-04-18T07:15:27.437Z</time></trkpt><trkpt lat="43.5403362" lon="10.6498548"><ele>98.66666666666667</ele><time>2026-04-18T07:15:28.442Z</time></trkpt><trkpt lat="43.5403861" lon="10.6499607"><ele>99.0</ele><time>2026-04-18T07:15:29.43Z</time></trkpt><trkpt lat="43.5404428" lon="10.650067"><ele>102.66666666666667</ele><time>2026-04-18T07:15:30.434Z</time></trkpt><trkpt lat="43.540493" lon="10.6501594"><ele>106.33333333333334</ele><time>2026-04-18T07:15:31.433Z</time></trkpt><trkpt lat="43.5405366" lon="10.6502364"><ele>110.0</ele><time>2026-04-18T07:15:32.439Z</time></trkpt><trkpt lat="43.5405593" lon="10.6503193"><ele>113.66666666666667</ele><time>2026-04-18T07:15:33.438Z</time></trkpt><trkpt lat="43.5405716" lon="10.65041"><ele>117.33333333333334</ele><time>2026-04-18T07:15:34.453Z</time></trkpt><trkpt lat="43.5405569" lon="10.6505674"><ele>121.0</ele><time>2026-04-18T07:15:36.434Z</time></trkpt><trkpt lat="43.5405104" lon="10.6507201"><ele>121.16666666666667</ele><time>2026-04-18T07:15:38.437Z</time></trkpt><trkpt lat="43.5404893" lon="10.650808"><ele>121.33333333333334</ele><time>2026-04-18T07:15:40.443Z</time></trkpt><trkpt lat="43.5404162" lon="10.6508539"><ele>121.5</ele><time>2026-04-18T07:15:43.446Z</time></trkpt><trkpt lat="43.5403434" lon="10.6508463"><ele>121.66666666666666</ele><time>2026-04-18T07:15:45.427Z</time></trkpt><trkpt lat="43.5402705" lon="10.6508666"><ele>121.83333333333333</ele><time>2026-04-18T07:15:47.447Z</time></trkpt><trkpt lat="43.5401595" lon="10.6508973"><ele>122.0</ele><time>2026-04-18T07:15:49.438Z</time></trkpt><trkpt lat="43.5400503" lon="10.6509202"><ele>120.49999999999999</ele><time>2026-04-18T07:15:51.447Z</time></trkpt><trkpt lat="43.5399441" lon="10.6508844"><ele>119.0</ele><time>2026-04-18T07:15:53.441Z</time></trkpt><trkpt lat="43.5398722" lon="10.6508627"><ele>117.5</ele><time>2026-04-18T07:15:54.434Z</time></trkpt><trkpt lat="43.5397984" lon="10.6508435"><ele>116.0</ele><time>2026-04-18T07:15:55.433Z</time></trkpt><trkpt lat="43.5396751" lon="10.6508566"><ele>114.49999999999999</ele><time>2026-04-18T07:15:57.447Z</time></trkpt><trkpt lat="43.5396165" lon="10.6508957"><ele>113.0</ele><time>2026-04-18T07:15:58.455Z</time></trkpt><trkpt lat="43.5395584" lon="10.6509393"><ele>114.16666666666666</ele><time>2026-04-18T07:15:59.453Z</time></trkpt><trkpt lat="43.539499" lon="10.6509808"><ele>115.33333333333333</ele><time>2026-04-18T07:16:00.445Z</time></trkpt><trkpt lat="43.5394406" lon="10.6510418"><ele>116.5</ele><time>2026-04-18T07:16:01.448Z</time></trkpt><trkpt lat="43.5393843" lon="10.6510854"><ele>117.66666666666666</ele><time>2026-04-18T07:16:02.458Z</time></trkpt><trkpt lat="43.5393289" lon="10.651135"><ele>118.83333333333333</ele><time>2026-04-18T07:16:03.432Z</time></trkpt><trkpt lat="43.5392257" lon="10.6511951"><ele>120.0</ele><time>2026-04-18T07:16:05.445Z</time></trkpt><trkpt lat="43.5391361" lon="10.651207"><ele>122.6</ele><time>2026-04-18T07:16:07.455Z</time></trkpt><trkpt lat="43.5390811" lon="10.6512884"><ele>125.2</ele><time>2026-04-18T07:16:10.455Z</time></trkpt><trkpt lat="43.5391558" lon="10.6514014"><ele>127.80000000000001</ele><time>2026-04-18T07:16:13.44Z</time></trkpt><trkpt lat="43.5392367" lon="10.6514803"><ele>130.4</ele><time>2026-04-18T07:16:15.453Z</time></trkpt><trkpt lat="43.5392776" lon="10.6515522"><ele>133.0</ele><time>2026-04-18T07:16:16.451Z</time></trkpt><trkpt lat="43.5393128" lon="10.6516799"><ele>133.0</ele><time>2026-04-18T07:16:18.44Z</time></trkpt><trkpt lat="43.5392725" lon="10.6518029"><ele>133.0</ele><time>2026-04-18T07:16:20.438Z</time></trkpt><trkpt lat="43.5391703" lon="10.6518386"><ele>133.0</ele><time>2026-04-18T07:16:22.449Z</time></trkpt><trkpt lat="43.5390971" lon="10.6518142"><ele>133.0</ele><time>2026-04-18T07:16:23.442Z</time></trkpt><trkpt lat="43.539027" lon="10.6517597"><ele>133.0</ele><time>2026-04-18T07:16:24.466Z</time></trkpt><trkpt lat="43.5389566" lon="10.6517101"><ele>133.0</ele><time>2026-04-18T07:16:25.444Z</time></trkpt><trkpt lat="43.5388852" lon="10.6516653"><ele>133.0</ele><time>2026-04-18T07:16:26.437Z</time></trkpt><trkpt lat="43.5388064" lon="10.651615"><ele>133.0</ele><time>2026-04-18T07:16:27.453Z</time></trkpt><trkpt lat="43.5387103" lon="10.6515527"><ele>133.0</ele><time>2026-04-18T07:16:28.442Z</time></trkpt><trkpt lat="43.5386045" lon="10.6514905"><ele>133.0</ele><time>2026-04-18T07:16:29.467Z</time></trkpt><trkpt lat="43.5385053" lon="10.651426"><ele>133.0</ele><time>2026-04-18T07:16:30.447Z</time></trkpt><trkpt lat="43.5384137" lon="10.6513682"><ele>136.33333333333334</ele><time>2026-04-18T07:16:31.438Z</time></trkpt><trkpt lat="43.5383341" lon="10.6513256"><ele>139.66666666666669</ele><time>2026-04-18T07:16:32.443Z</time></trkpt><trkpt lat="43.5382766" lon="10.6512828"><ele>143.0</ele><time>2026-04-18T07:16:33.452Z</time></trkpt><trkpt lat="43.5381996" lon="10.6511991"><ele>146.33333333333334</ele><time>2026-04-18T07:16:35.448Z</time></trkpt><trkpt lat="43.538126" lon="10.6511749"><ele>149.66666666666666</ele><time>2026-04-18T07:16:37.446Z</time></trkpt><trkpt lat="43.5380574" lon="10.6512205"><ele>153.0</ele><time>2026-04-18T07:16:39.466Z</time></trkpt><trkpt lat="43.5379772" lon="10.651324"><ele>153.0</ele><time>2026-04-18T07:16:41.432Z</time></trkpt><trkpt lat="43.5379227" lon="10.6513911"><ele>153.0</ele><time>2026-04-18T07:16:42.433Z</time></trkpt><trkpt lat="43.5378676" lon="10.6514614"><ele>153.0</ele><time>2026-04-18T07:16:43.44Z</time></trkpt><trkpt lat="43.5378068" lon="10.651534"><ele>153.0</ele><time>2026-04-18T07:16:44.441Z</time></trkpt><trkpt lat="43.5377448" lon="10.6515892"><ele>153.0</ele><time>2026-04-18T07:16:45.429Z</time></trkpt><trkpt lat="43.5376837" lon="10.6516358"><ele>153.0</ele><time>2026-04-18T07:16:46.465Z</time></trkpt><trkpt lat="43.5376186" lon="10.6516672"><ele>153.0</ele><time>2026-04-18T07:16:47.44Z</time></trkpt><trkpt lat="43.5375118" lon="10.6516714"><ele>153.0</ele><time>2026-04-18T07:16:49.442Z</time></trkpt><trkpt lat="43.5374471" lon="10.6516636"><ele>153.0</ele><time>2026-04-18T07:16:51.456Z</time></trkpt><trkpt lat="43.5373369" lon="10.6516359"><ele>153.0</ele><time>2026-04-18T07:16:53.443Z</time></trkpt><trkpt lat="43.5372526" lon="10.6516142"><ele>153.0</ele><time>2026-04-18T07:16:54.441Z</time></trkpt><trkpt lat="43.5371731" lon="10.6515794"><ele>153.0</ele><time>2026-04-18T07:16:55.432Z</time></trkpt><trkpt lat="43.5370991" lon="10.6515596"><ele>153.0</ele><time>2026-04-18T07:16:56.442Z</time></trkpt><trkpt lat="43.5370271" lon="10.6515196"><ele>152.66666666666666</ele><time>2026-04-18T07:16:57.445Z</time></trkpt><trkpt lat="43.536957" lon="10.651462"><ele>152.33333333333334</ele><time>2026-04-18T07:16:58.442Z</time></trkpt><trkpt lat="43.536882" lon="10.6514128"><ele>152.0</ele><time>2026-04-18T07:16:59.445Z</time></trkpt><trkpt lat="43.536815" lon="10.6513724"><ele>151.66666666666669</ele><time>2026-04-18T07:17:00.441Z</time></trkpt><trkpt lat="43.5367334" lon="10.6513163"><ele>151.33333333333334</ele><time>2026-04-18T07:17:02.464Z</time></trkpt><trkpt lat="43.5366745" lon="10.6512424"><ele>151.0</ele><time>2026-04-18T07:17:06.441Z</time></trkpt><trkpt lat="43.5365757" lon="10.651238"><ele>151.0</ele><time>2026-04-18T07:17:08.446Z</time></trkpt><trkpt lat="43.5364767" lon="10.6512561"><ele>151.0</ele><time>2026-04-18T07:17:10.444Z</time></trkpt><trkpt lat="43.5364115" lon="10.6512689"><ele>151.0</ele><time>2026-04-18T07:17:11.451Z</time></trkpt><trkpt lat="43.5363364" lon="10.6512546"><ele>151.0</ele><time>2026-04-18T07:17:12.449Z</time></trkpt><trkpt lat="43.536262" lon="10.6512519"><ele>151.0</ele><time>2026-04-18T07:17:13.434Z</time></trkpt><trkpt lat="43.5361802" lon="10.6512589"><ele>151.0</ele><time>2026-04-18T07:17:14.457Z</time></trkpt><trkpt lat="43.5360889" lon="10.6512715"><ele>149.2</ele><time>2026-04-18T07:17:15.447Z</time></trkpt><trkpt lat="43.5359887" lon="10.6512755"><ele>147.39999999999998</ele><time>2026-04-18T07:17:16.459Z</time></trkpt><trkpt lat="43.5358769" lon="10.6512903"><ele>145.6</ele><time>2026-04-18T07:17:17.439Z</time></trkpt><trkpt lat="43.5357644" lon="10.6512952"><ele>143.79999999999998</ele><time>2026-04-18T07:17:18.453Z</time></trkpt><trkpt lat="43.5356572" lon="10.6512882"><ele>142.0</ele><time>2026-04-18T07:17:19.443Z</time></trkpt><trkpt lat="43.5355557" lon="10.6512906"><ele>142.0</ele><time>2026-04-18T07:17:20.43Z</time></trkpt><trkpt lat="43.5354608" lon="10.6512875"><ele>142.0</ele><time>2026-04-18T07:17:21.45Z</time></trkpt><trkpt lat="43.5353887" lon="10.6512942"><ele>142.0</ele><time>2026-04-18T07:17:22.445Z</time></trkpt><trkpt lat="43.5352634" lon="10.6513252"><ele>142.0</ele><time>2026-04-18T07:17:24.434Z</time></trkpt><trkpt lat="43.5352031" lon="10.6513672"><ele>142.0</ele><time>2026-04-18T07:17:25.452Z</time></trkpt><trkpt lat="43.5351326" lon="10.6514139"><ele>142.0</ele><time>2026-04-18T07:17:26.441Z</time></trkpt><trkpt lat="43.5350631" lon="10.6514766"><ele>139.16666666666669</ele><time>2026-04-18T07:17:27.432Z</time></trkpt><trkpt lat="43.5349814" lon="10.6515415"><ele>136.33333333333334</ele><time>2026-04-18T07:17:28.451Z</time></trkpt><trkpt lat="43.534911" lon="10.6515877"><ele>133.5</ele><time>2026-04-18T07:17:29.44Z</time></trkpt><trkpt lat="43.5348467" lon="10.6516438"><ele>130.66666666666666</ele><time>2026-04-18T07:17:30.451Z</time></trkpt><trkpt lat="43.5347974" lon="10.6517105"><ele>127.83333333333333</ele><time>2026-04-18T07:17:31.448Z</time></trkpt><trkpt lat="43.5347638" lon="10.6518003"><ele>125.0</ele><time>2026-04-18T07:17:32.451Z</time></trkpt><trkpt lat="43.5347435" lon="10.6519158"><ele>124.16666666666666</ele><time>2026-04-18T07:17:33.443Z</time></trkpt><trkpt lat="43.5347487" lon="10.6520282"><ele>123.33333333333333</ele><time>2026-04-18T07:17:34.444Z</time></trkpt><trkpt lat="43.5347588" lon="10.6521353"><ele>122.5</ele><time>2026-04-18T07:17:35.436Z</time></trkpt><trkpt lat="43.5347689" lon="10.6522365"><ele>121.66666666666666</ele><time>2026-04-18T07:17:36.426Z</time></trkpt><trkpt lat="43.534779" lon="10.6524027"><ele>120.83333333333333</ele><time>2026-04-18T07:17:38.46Z</time></trkpt><trkpt lat="43.534775" lon="10.6525328"><ele>120.0</ele><time>2026-04-18T07:17:40.449Z</time></trkpt><trkpt lat="43.5347896" lon="10.6526384"><ele>120.0</ele><time>2026-04-18T07:17:42.444Z</time></trkpt><trkpt lat="43.5348212" lon="10.6527625"><ele>120.0</ele><time>2026-04-18T07:17:44.446Z</time></trkpt><trkpt lat="43.5348546" lon="10.6528921"><ele>120.0</ele><time>2026-04-18T07:17:46.445Z</time></trkpt><trkpt lat="43.5348983" lon="10.6530169"><ele>120.0</ele><time>2026-04-18T07:17:48.455Z</time></trkpt><trkpt lat="43.5349488" lon="10.6531765"><ele>120.0</ele><time>2026-04-18T07:17:50.448Z</time></trkpt><trkpt lat="43.5349766" lon="10.6532583"><ele>118.5</ele><time>2026-04-18T07:17:51.459Z</time></trkpt><trkpt lat="43.5350044" lon="10.6533424"><ele>117.0</ele><time>2026-04-18T07:17:52.435Z</time></trkpt><trkpt lat="43.5350398" lon="10.6535043"><ele>115.5</ele><time>2026-04-18T07:17:54.438Z</time></trkpt><trkpt lat="43.5350494" lon="10.6536755"><ele>114.0</ele><time>2026-04-18T07:17:56.45Z</time></trkpt><trkpt lat="43.5350459" lon="10.6537634"><ele>112.5</ele><time>2026-04-18T07:17:57.439Z</time></trkpt><trkpt lat="43.5350398" lon="10.6538539"><ele>111.0</ele><time>2026-04-18T07:17:58.442Z</time></trkpt><trkpt lat="43.5350092" lon="10.6540168"><ele>110.6</ele><time>2026-04-18T07:18:00.446Z</time></trkpt><trkpt lat="43.5349605" lon="10.6541606"><ele>110.19999999999999</ele><time>2026-04-18T07:18:02.445Z</time></trkpt><trkpt lat="43.5349028" lon="10.6542997"><ele>109.80000000000001</ele><time>2026-04-18T07:18:04.442Z</time></trkpt><trkpt lat="43.5348634" lon="10.654384"><ele>109.4</ele><time>2026-04-18T07:18:05.44Z</time></trkpt><trkpt lat="43.5348213" lon="10.6544714"><ele>109.0</ele><time>2026-04-18T07:18:06.445Z</time></trkpt><trkpt lat="43.5347809" lon="10.6545508"><ele>109.00000000000001</ele><time>2026-04-18T07:18:07.448Z</time></trkpt><trkpt lat="43.534707" lon="10.6546928"><ele>109.0</ele><time>2026-04-18T07:18:09.444Z</time></trkpt><trkpt lat="43.5346544" lon="10.6547668"><ele>109.0</ele><time>2026-04-18T07:18:10.452Z</time></trkpt><trkpt lat="43.5345925" lon="10.6548291"><ele>109.0</ele><time>2026-04-18T07:18:11.438Z</time></trkpt><trkpt lat="43.5345298" lon="10.6548914"><ele>109.00000000000001</ele><time>2026-04-18T07:18:12.45Z</time></trkpt><trkpt lat="43.5344525" lon="10.6549477"><ele>109.0</ele><time>2026-04-18T07:18:13.447Z</time></trkpt><trkpt lat="43.5343777" lon="10.6550058"><ele>109.00000000000001</ele><time>2026-04-18T07:18:14.455Z</time></trkpt><trkpt lat="43.5343054" lon="10.6550663"><ele>109.0</ele><time>2026-04-18T07:18:15.451Z</time></trkpt><trkpt lat="43.5342354" lon="10.6551229"><ele>109.0</ele><time>2026-04-18T07:18:16.437Z</time></trkpt><trkpt lat="43.5341663" lon="10.6551662"><ele>109.0</ele><time>2026-04-18T07:18:17.45Z</time></trkpt><trkpt lat="43.534096" lon="10.6552154"><ele>109.00000000000001</ele><time>2026-04-18T07:18:18.456Z</time></trkpt><trkpt lat="43.5340341" lon="10.6552655"><ele>109.0</ele><time>2026-04-18T07:18:19.441Z</time></trkpt><trkpt lat="43.5339747" lon="10.6553377"><ele>109.50000000000001</ele><time>2026-04-18T07:18:20.452Z</time></trkpt><trkpt lat="43.5339242" lon="10.6554216"><ele>110.0</ele><time>2026-04-18T07:18:21.449Z</time></trkpt><trkpt lat="43.5338701" lon="10.6555065"><ele>110.5</ele><time>2026-04-18T07:18:22.44Z</time></trkpt><trkpt lat="43.5338282" lon="10.6555942"><ele>111.0</ele><time>2026-04-18T07:18:23.446Z</time></trkpt><trkpt lat="43.5337909" lon="10.6556848"><ele>111.50000000000001</ele><time>2026-04-18T07:18:24.463Z</time></trkpt><trkpt lat="43.5337673" lon="10.6557798"><ele>112.0</ele><time>2026-04-18T07:18:25.446Z</time></trkpt><trkpt lat="43.5337455" lon="10.655881"><ele>112.50000000000001</ele><time>2026-04-18T07:18:26.457Z</time></trkpt><trkpt lat="43.5337211" lon="10.6559836"><ele>113.0</ele><time>2026-04-18T07:18:27.447Z</time></trkpt><trkpt lat="43.5336988" lon="10.6560889"><ele>113.5</ele><time>2026-04-18T07:18:28.453Z</time></trkpt><trkpt lat="43.5336775" lon="10.656191"><ele>114.0</ele><time>2026-04-18T07:18:29.439Z</time></trkpt><trkpt lat="43.533656" lon="10.656294"><ele>114.50000000000001</ele><time>2026-04-18T07:18:30.441Z</time></trkpt><trkpt lat="43.5336334" lon="10.6563897"><ele>115.0</ele><time>2026-04-18T07:18:31.441Z</time></trkpt><trkpt lat="43.5336076" lon="10.6564833"><ele>116.14285714285712</ele><time>2026-04-18T07:18:32.458Z</time></trkpt><trkpt lat="43.533586" lon="10.6565759"><ele>117.28571428571428</ele><time>2026-04-18T07:18:33.44Z</time></trkpt><trkpt lat="43.5335618" lon="10.6566619"><ele>118.42857142857143</ele><time>2026-04-18T07:18:34.443Z</time></trkpt><trkpt lat="43.5335295" lon="10.656752"><ele>119.57142857142857</ele><time>2026-04-18T07:18:35.453Z</time></trkpt><trkpt lat="43.5334934" lon="10.6568419"><ele>120.71428571428572</ele><time>2026-04-18T07:18:36.448Z</time></trkpt><trkpt lat="43.5334528" lon="10.6569321"><ele>121.85714285714288</ele><time>2026-04-18T07:18:37.438Z</time></trkpt><trkpt lat="43.5334107" lon="10.6570217"><ele>123.00000000000001</ele><time>2026-04-18T07:18:38.447Z</time></trkpt><trkpt lat="43.5333658" lon="10.6571042"><ele>124.5</ele><time>2026-04-18T07:18:39.435Z</time></trkpt><trkpt lat="43.5333139" lon="10.6571913"><ele>126.0</ele><time>2026-04-18T07:18:40.447Z</time></trkpt><trkpt lat="43.5332645" lon="10.6572782"><ele>127.5</ele><time>2026-04-18T07:18:41.445Z</time></trkpt><trkpt lat="43.5332125" lon="10.6573626"><ele>129.0</ele><time>2026-04-18T07:18:42.437Z</time></trkpt><trkpt lat="43.5331582" lon="10.6574439"><ele>130.5</ele><time>2026-04-18T07:18:43.44Z</time></trkpt><trkpt lat="43.5331045" lon="10.6575117"><ele>132.0</ele><time>2026-04-18T07:18:44.458Z</time></trkpt><trkpt lat="43.53304" lon="10.65755"><ele>132.0</ele><time>2026-04-18T07:18:45.446Z</time></trkpt><trkpt lat="43.5329608" lon="10.6575636"><ele>132.0</ele><time>2026-04-18T07:18:46.453Z</time></trkpt><trkpt lat="43.532888" lon="10.657589"><ele>132.0</ele><time>2026-04-18T07:18:47.452Z</time></trkpt><trkpt lat="43.5328025" lon="10.6576129"><ele>132.0</ele><time>2026-04-18T07:18:48.443Z</time></trkpt><trkpt lat="43.5327168" lon="10.6576331"><ele>132.0</ele><time>2026-04-18T07:18:49.441Z</time></trkpt><trkpt lat="43.5326357" lon="10.657647"><ele>132.0</ele><time>2026-04-18T07:18:50.431Z</time></trkpt><trkpt lat="43.5325604" lon="10.6576533"><ele>133.16666666666666</ele><time>2026-04-18T07:18:51.452Z</time></trkpt><trkpt lat="43.5324946" lon="10.6576506"><ele>134.33333333333334</ele><time>2026-04-18T07:18:52.448Z</time></trkpt><trkpt lat="43.5324021" lon="10.6576464"><ele>135.5</ele><time>2026-04-18T07:18:54.443Z</time></trkpt><trkpt lat="43.5323561" lon="10.6577172"><ele>136.66666666666669</ele><time>2026-04-18T07:18:58.458Z</time></trkpt><trkpt lat="43.5324366" lon="10.6577882"><ele>137.83333333333334</ele><time>2026-04-18T07:19:12.44Z</time></trkpt><trkpt lat="43.5324979" lon="10.65785"><ele>139.0</ele><time>2026-04-18T07:19:14.442Z</time></trkpt><trkpt lat="43.5325189" lon="10.6579946"><ele>142.5</ele><time>2026-04-18T07:19:16.454Z</time></trkpt><trkpt lat="43.5324605" lon="10.6581242"><ele>146.0</ele><time>2026-04-18T07:19:18.443Z</time></trkpt><trkpt lat="43.5323528" lon="10.6582016"><ele>149.5</ele><time>2026-04-18T07:19:20.438Z</time></trkpt><trkpt lat="43.5322239" lon="10.6581625"><ele>153.0</ele><time>2026-04-18T07:19:22.442Z</time></trkpt><trkpt lat="43.5321497" lon="10.6581008"><ele>153.0</ele><time>2026-04-18T07:19:23.45Z</time></trkpt><trkpt lat="43.5320644" lon="10.6580377"><ele>153.0</ele><time>2026-04-18T07:19:24.436Z</time></trkpt><trkpt lat="43.5319816" lon="10.6579828"><ele>153.0</ele><time>2026-04-18T07:19:25.433Z</time></trkpt><trkpt lat="43.531906" lon="10.6579349"><ele>153.0</ele><time>2026-04-18T07:19:26.45Z</time></trkpt><trkpt lat="43.5318326" lon="10.6579144"><ele>153.0</ele><time>2026-04-18T07:19:27.459Z</time></trkpt><trkpt lat="43.5317151" lon="10.6579292"><ele>154.20000000000002</ele><time>2026-04-18T07:19:29.458Z</time></trkpt><trkpt lat="43.5316383" lon="10.6580493"><ele>155.4</ele><time>2026-04-18T07:19:31.447Z</time></trkpt><trkpt lat="43.5316374" lon="10.6582145"><ele>156.60000000000002</ele><time>2026-04-18T07:19:33.434Z</time></trkpt><trkpt lat="43.5317107" lon="10.6583452"><ele>157.8</ele><time>2026-04-18T07:19:35.434Z</time></trkpt><trkpt lat="43.5317752" lon="10.658399"><ele>159.0</ele><time>2026-04-18T07:19:36.432Z</time></trkpt><trkpt lat="43.5318423" lon="10.6584583"><ele>159.0</ele><time>2026-04-18T07:19:37.435Z</time></trkpt><trkpt lat="43.5319117" lon="10.6585257"><ele>159.0</ele><time>2026-04-18T07:19:38.442Z</time></trkpt><trkpt lat="43.5319756" lon="10.6585982"><ele>159.0</ele><time>2026-04-18T07:19:39.441Z</time></trkpt><trkpt lat="43.5320249" lon="10.6586809"><ele>159.0</ele><time>2026-04-18T07:19:40.445Z</time></trkpt><trkpt lat="43.5320683" lon="10.6587808"><ele>159.0</ele><time>2026-04-18T07:19:41.45Z</time></trkpt><trkpt lat="43.5321166" lon="10.6588912"><ele>159.0</ele><time>2026-04-18T07:19:42.442Z</time></trkpt><trkpt lat="43.5321629" lon="10.6590173"><ele>159.5</ele><time>2026-04-18T07:19:43.442Z</time></trkpt><trkpt lat="43.5322229" lon="10.6591408"><ele>160.0</ele><time>2026-04-18T07:19:44.449Z</time></trkpt><trkpt lat="43.5322987" lon="10.6592715"><ele>160.5</ele><time>2026-04-18T07:19:45.433Z</time></trkpt><trkpt lat="43.5323826" lon="10.6594109"><ele>161.0</ele><time>2026-04-18T07:19:46.444Z</time></trkpt><trkpt lat="43.5324686" lon="10.6595559"><ele>164.0</ele><time>2026-04-18T07:19:47.438Z</time></trkpt><trkpt lat="43.5325594" lon="10.6597017"><ele>167.0</ele><time>2026-04-18T07:19:48.443Z</time></trkpt><trkpt lat="43.5326474" lon="10.6598461"><ele>170.0</ele><time>2026-04-18T07:19:49.441Z</time></trkpt><trkpt lat="43.5327385" lon="10.6599734"><ele>173.0</ele><time>2026-04-18T07:19:50.446Z</time></trkpt><trkpt lat="43.5328219" lon="10.6600977"><ele>172.0</ele><time>2026-04-18T07:19:51.447Z</time></trkpt><trkpt lat="43.5329041" lon="10.6602251"><ele>171.0</ele><time>2026-04-18T07:19:52.45Z</time></trkpt><trkpt lat="43.5329746" lon="10.6603482"><ele>170.0</ele><time>2026-04-18T07:19:53.462Z</time></trkpt><trkpt lat="43.5330418" lon="10.6604665"><ele>169.0</ele><time>2026-04-18T07:19:54.451Z</time></trkpt><trkpt lat="43.5331103" lon="10.6605789"><ele>169.0</ele><time>2026-04-18T07:19:55.441Z</time></trkpt><trkpt lat="43.5331871" lon="10.66068"><ele>169.0</ele><time>2026-04-18T07:19:56.454Z</time></trkpt><trkpt lat="43.5332659" lon="10.6607664"><ele>169.0</ele><time>2026-04-18T07:19:57.43Z</time></trkpt><trkpt lat="43.5333428" lon="10.6608408"><ele>169.0</ele><time>2026-04-18T07:19:58.448Z</time></trkpt><trkpt lat="43.5334169" lon="10.6608975"><ele>169.0</ele><time>2026-04-18T07:19:59.44Z</time></trkpt><trkpt lat="43.5334749" lon="10.6609394"><ele>169.0</ele><time>2026-04-18T07:20:00.429Z</time></trkpt><trkpt lat="43.5335398" lon="10.6609942"><ele>169.0</ele><time>2026-04-18T07:20:02.441Z</time></trkpt><trkpt lat="43.5336063" lon="10.6610638"><ele>169.0</ele><time>2026-04-18T07:20:05.432Z</time></trkpt><trkpt lat="43.5336984" lon="10.6611167"><ele>169.0</ele><time>2026-04-18T07:20:07.438Z</time></trkpt><trkpt lat="43.5337671" lon="10.6611351"><ele>169.0</ele><time>2026-04-18T07:20:08.439Z</time></trkpt><trkpt lat="43.533846" lon="10.6611472"><ele>169.0</ele><time>2026-04-18T07:20:09.465Z</time></trkpt><trkpt lat="43.5339305" lon="10.6611602"><ele>168.0</ele><time>2026-04-18T07:20:10.447Z</time></trkpt><trkpt lat="43.5340194" lon="10.6611758"><ele>167.0</ele><time>2026-04-18T07:20:11.43Z</time></trkpt><trkpt lat="43.5340966" lon="10.6611921"><ele>166.0</ele><time>2026-04-18T07:20:12.449Z</time></trkpt><trkpt lat="43.5341652" lon="10.6612125"><ele>165.0</ele><time>2026-04-18T07:20:13.439Z</time></trkpt><trkpt lat="43.534256" lon="10.6612504"><ele>164.0</ele><time>2026-04-18T07:20:15.432Z</time></trkpt><trkpt lat="43.5342687" lon="10.6613617"><ele>163.0</ele><time>2026-04-18T07:20:18.445Z</time></trkpt><trkpt lat="43.5341961" lon="10.661495"><ele>163.0</ele><time>2026-04-18T07:20:20.439Z</time></trkpt><trkpt lat="43.534147" lon="10.6615901"><ele>163.0</ele><time>2026-04-18T07:20:21.43Z</time></trkpt><trkpt lat="43.5340919" lon="10.6617053"><ele>163.0</ele><time>2026-04-18T07:20:22.461Z</time></trkpt><trkpt lat="43.5340471" lon="10.6618301"><ele>163.0</ele><time>2026-04-18T07:20:23.448Z</time></trkpt><trkpt lat="43.5340072" lon="10.6619678"><ele>163.0</ele><time>2026-04-18T07:20:24.447Z</time></trkpt><trkpt lat="43.5339537" lon="10.6621301"><ele>161.5</ele><time>2026-04-18T07:20:25.45Z</time></trkpt><trkpt lat="43.5338953" lon="10.6622979"><ele>160.0</ele><time>2026-04-18T07:20:26.45Z</time></trkpt><trkpt lat="43.5338396" lon="10.6624582"><ele>158.5</ele><time>2026-04-18T07:20:27.443Z</time></trkpt><trkpt lat="43.5337839" lon="10.6626205"><ele>157.0</ele><time>2026-04-18T07:20:28.434Z</time></trkpt><trkpt lat="43.533732" lon="10.6627854"><ele>160.75</ele><time>2026-04-18T07:20:29.453Z</time></trkpt><trkpt lat="43.5336792" lon="10.6629545"><ele>164.5</ele><time>2026-04-18T07:20:30.437Z</time></trkpt><trkpt lat="43.5336327" lon="10.6631307"><ele>168.25</ele><time>2026-04-18T07:20:31.42Z</time></trkpt><trkpt lat="43.5335921" lon="10.6633104"><ele>172.0</ele><time>2026-04-18T07:20:32.459Z</time></trkpt><trkpt lat="43.5335583" lon="10.6634766"><ele>170.6</ele><time>2026-04-18T07:20:33.436Z</time></trkpt><trkpt lat="43.5335293" lon="10.6636337"><ele>169.2</ele><time>2026-04-18T07:20:34.464Z</time></trkpt><trkpt lat="43.5335012" lon="10.6637739"><ele>167.8</ele><time>2026-04-18T07:20:35.448Z</time></trkpt><trkpt lat="43.5334813" lon="10.6638992"><ele>166.4</ele><time>2026-04-18T07:20:36.453Z</time></trkpt><trkpt lat="43.5334676" lon="10.6640388"><ele>165.0</ele><time>2026-04-18T07:20:37.448Z</time></trkpt><trkpt lat="43.533456" lon="10.6641826"><ele>165.0</ele><time>2026-04-18T07:20:38.435Z</time></trkpt><trkpt lat="43.5334466" lon="10.6643292"><ele>165.0</ele><time>2026-04-18T07:20:39.447Z</time></trkpt><trkpt lat="43.5334279" lon="10.66447"><ele>165.0</ele><time>2026-04-18T07:20:40.45Z</time></trkpt><trkpt lat="43.533385" lon="10.6645837"><ele>165.0</ele><time>2026-04-18T07:20:41.438Z</time></trkpt><trkpt lat="43.5333175" lon="10.6646938"><ele>165.0</ele><time>2026-04-18T07:20:42.439Z</time></trkpt><trkpt lat="43.5332371" lon="10.6647886"><ele>162.5</ele><time>2026-04-18T07:20:43.448Z</time></trkpt><trkpt lat="43.5331426" lon="10.6648805"><ele>160.0</ele><time>2026-04-18T07:20:44.439Z</time></trkpt><trkpt lat="43.5330471" lon="10.6649644"><ele>157.5</ele><time>2026-04-18T07:20:45.444Z</time></trkpt><trkpt lat="43.5329419" lon="10.6650275"><ele>155.0</ele><time>2026-04-18T07:20:46.458Z</time></trkpt><trkpt lat="43.5328363" lon="10.6650523"><ele>154.6</ele><time>2026-04-18T07:20:47.438Z</time></trkpt><trkpt lat="43.5327316" lon="10.6650206"><ele>154.2</ele><time>2026-04-18T07:20:48.442Z</time></trkpt><trkpt lat="43.5326175" lon="10.6649897"><ele>153.8</ele><time>2026-04-18T07:20:49.448Z</time></trkpt><trkpt lat="43.5325014" lon="10.6649694"><ele>153.4</ele><time>2026-04-18T07:20:50.44Z</time></trkpt><trkpt lat="43.5323935" lon="10.6649713"><ele>153.0</ele><time>2026-04-18T07:20:51.44Z</time></trkpt><trkpt lat="43.5322902" lon="10.6650002"><ele>153.0</ele><time>2026-04-18T07:20:52.455Z</time></trkpt><trkpt lat="43.5322037" lon="10.6650616"><ele>153.0</ele><time>2026-04-18T07:20:53.443Z</time></trkpt><trkpt lat="43.5321192" lon="10.6651575"><ele>153.0</ele><time>2026-04-18T07:20:54.457Z</time></trkpt><trkpt lat="43.5320489" lon="10.6652782"><ele>153.0</ele><time>2026-04-18T07:20:55.434Z</time></trkpt><trkpt lat="43.5319849" lon="10.6654167"><ele>153.0</ele><time>2026-04-18T07:20:56.432Z</time></trkpt><trkpt lat="43.5319172" lon="10.6655757"><ele>151.5</ele><time>2026-04-18T07:20:57.442Z</time></trkpt><trkpt lat="43.531852" lon="10.6657258"><ele>150.0</ele><time>2026-04-18T07:20:58.443Z</time></trkpt><trkpt lat="43.5317887" lon="10.6658786"><ele>148.5</ele><time>2026-04-18T07:20:59.454Z</time></trkpt><trkpt lat="43.5317207" lon="10.666027"><ele>147.0</ele><time>2026-04-18T07:21:00.447Z</time></trkpt><trkpt lat="43.5316543" lon="10.666158"><ele>147.0</ele><time>2026-04-18T07:21:01.442Z</time></trkpt><trkpt lat="43.5315873" lon="10.6662759"><ele>147.0</ele><time>2026-04-18T07:21:02.449Z</time></trkpt><trkpt lat="43.531516" lon="10.6663932"><ele>147.0</ele><time>2026-04-18T07:21:03.459Z</time></trkpt><trkpt lat="43.531433" lon="10.666515"><ele>147.0</ele><time>2026-04-18T07:21:04.439Z</time></trkpt><trkpt lat="43.5313361" lon="10.6666531"><ele>147.0</ele><time>2026-04-18T07:21:05.453Z</time></trkpt><trkpt lat="43.531239" lon="10.6667992"><ele>147.0</ele><time>2026-04-18T07:21:06.44Z</time></trkpt><trkpt lat="43.5311402" lon="10.6669503"><ele>147.0</ele><time>2026-04-18T07:21:07.471Z</time></trkpt><trkpt lat="43.5310424" lon="10.6671104"><ele>147.0</ele><time>2026-04-18T07:21:08.455Z</time></trkpt><trkpt lat="43.5309506" lon="10.6672576"><ele>150.0</ele><time>2026-04-18T07:21:09.454Z</time></trkpt><trkpt lat="43.5308676" lon="10.667385"><ele>153.0</ele><time>2026-04-18T07:21:10.446Z</time></trkpt><trkpt lat="43.5307745" lon="10.6674975"><ele>156.0</ele><time>2026-04-18T07:21:11.449Z</time></trkpt><trkpt lat="43.5306743" lon="10.6676016"><ele>159.0</ele><time>2026-04-18T07:21:12.442Z</time></trkpt><trkpt lat="43.5305711" lon="10.6677004"><ele>160.0</ele><time>2026-04-18T07:21:13.449Z</time></trkpt><trkpt lat="43.5304644" lon="10.6677988"><ele>161.0</ele><time>2026-04-18T07:21:14.439Z</time></trkpt><trkpt lat="43.5303583" lon="10.6678975"><ele>162.0</ele><time>2026-04-18T07:21:15.443Z</time></trkpt><trkpt lat="43.5302623" lon="10.6680073"><ele>163.0</ele><time>2026-04-18T07:21:16.444Z</time></trkpt><trkpt lat="43.5301764" lon="10.6681359"><ele>163.0</ele><time>2026-04-18T07:21:17.436Z</time></trkpt><trkpt lat="43.5300904" lon="10.6682888"><ele>163.0</ele><time>2026-04-18T07:21:18.426Z</time></trkpt><trkpt lat="43.5299922" lon="10.6684398"><ele>163.0</ele><time>2026-04-18T07:21:19.434Z</time></trkpt><trkpt lat="43.5298955" lon="10.6685982"><ele>163.0</ele><time>2026-04-18T07:21:20.446Z</time></trkpt><trkpt lat="43.5297952" lon="10.6687542"><ele>162.5</ele><time>2026-04-18T07:21:21.447Z</time></trkpt><trkpt lat="43.5296955" lon="10.6689029"><ele>162.0</ele><time>2026-04-18T07:21:22.454Z</time></trkpt><trkpt lat="43.5295935" lon="10.6690513"><ele>161.5</ele><time>2026-04-18T07:21:23.446Z</time></trkpt><trkpt lat="43.5294911" lon="10.6691885"><ele>161.0</ele><time>2026-04-18T07:21:24.458Z</time></trkpt><trkpt lat="43.5293867" lon="10.6693317"><ele>161.5</ele><time>2026-04-18T07:21:25.446Z</time></trkpt><trkpt lat="43.5292777" lon="10.669458"><ele>162.0</ele><time>2026-04-18T07:21:26.44Z</time></trkpt><trkpt lat="43.5291622" lon="10.669567"><ele>162.5</ele><time>2026-04-18T07:21:27.43Z</time></trkpt><trkpt lat="43.5290323" lon="10.6696743"><ele>163.0</ele><time>2026-04-18T07:21:28.446Z</time></trkpt><trkpt lat="43.5289112" lon="10.6697899"><ele>163.0</ele><time>2026-04-18T07:21:29.44Z</time></trkpt><trkpt lat="43.5287886" lon="10.669921"><ele>163.0</ele><time>2026-04-18T07:21:30.441Z</time></trkpt><trkpt lat="43.5286678" lon="10.6700487"><ele>163.0</ele><time>2026-04-18T07:21:31.444Z</time></trkpt><trkpt lat="43.5285514" lon="10.6701802"><ele>162.33333333333334</ele><time>2026-04-18T07:21:32.459Z</time></trkpt><trkpt lat="43.5284398" lon="10.6703133"><ele>161.66666666666666</ele><time>2026-04-18T07:21:33.449Z</time></trkpt><trkpt lat="43.5283247" lon="10.6704553"><ele>161.0</ele><time>2026-04-18T07:21:34.467Z</time></trkpt><trkpt lat="43.5282126" lon="10.6706109"><ele>161.0</ele><time>2026-04-18T07:21:35.463Z</time></trkpt><trkpt lat="43.5281022" lon="10.6707518"><ele>161.0</ele><time>2026-04-18T07:21:36.448Z</time></trkpt><trkpt lat="43.5279893" lon="10.6708956"><ele>161.0</ele><time>2026-04-18T07:21:37.473Z</time></trkpt><trkpt lat="43.5278801" lon="10.6710343"><ele>162.25</ele><time>2026-04-18T07:21:38.443Z</time></trkpt><trkpt lat="43.5277695" lon="10.6711697"><ele>163.5</ele><time>2026-04-18T07:21:39.437Z</time></trkpt><trkpt lat="43.5276638" lon="10.6713077"><ele>164.75</ele><time>2026-04-18T07:21:40.449Z</time></trkpt><trkpt lat="43.5275648" lon="10.6714426"><ele>166.0</ele><time>2026-04-18T07:21:41.448Z</time></trkpt><trkpt lat="43.5274703" lon="10.6715956"><ele>166.0</ele><time>2026-04-18T07:21:42.448Z</time></trkpt><trkpt lat="43.5273909" lon="10.671769"><ele>166.0</ele><time>2026-04-18T07:21:43.438Z</time></trkpt><trkpt lat="43.5273194" lon="10.67194"><ele>166.0</ele><time>2026-04-18T07:21:44.445Z</time></trkpt><trkpt lat="43.5272534" lon="10.672102"><ele>166.0</ele><time>2026-04-18T07:21:45.453Z</time></trkpt><trkpt lat="43.5271826" lon="10.6722398"><ele>167.0</ele><time>2026-04-18T07:21:46.447Z</time></trkpt><trkpt lat="43.5271008" lon="10.6723494"><ele>168.0</ele><time>2026-04-18T07:21:47.456Z</time></trkpt><trkpt lat="43.5270077" lon="10.6724318"><ele>169.0</ele><time>2026-04-18T07:21:48.441Z</time></trkpt><trkpt lat="43.5269014" lon="10.672483"><ele>170.0</ele><time>2026-04-18T07:21:49.436Z</time></trkpt><trkpt lat="43.5267915" lon="10.6724849"><ele>171.0</ele><time>2026-04-18T07:21:50.442Z</time></trkpt><trkpt lat="43.5266733" lon="10.6724752"><ele>171.0</ele><time>2026-04-18T07:21:51.445Z</time></trkpt><trkpt lat="43.5265514" lon="10.6724544"><ele>171.0</ele><time>2026-04-18T07:21:52.436Z</time></trkpt><trkpt lat="43.5264322" lon="10.6724272"><ele>171.0</ele><time>2026-04-18T07:21:53.435Z</time></trkpt><trkpt lat="43.5263269" lon="10.6724329"><ele>171.0</ele><time>2026-04-18T07:21:54.432Z</time></trkpt><trkpt lat="43.5262314" lon="10.6724767"><ele>170.8</ele><time>2026-04-18T07:21:55.439Z</time></trkpt><trkpt lat="43.5261373" lon="10.672547"><ele>170.60000000000002</ele><time>2026-04-18T07:21:56.435Z</time></trkpt><trkpt lat="43.5260517" lon="10.6726262"><ele>170.4</ele><time>2026-04-18T07:21:57.456Z</time></trkpt><trkpt lat="43.5259847" lon="10.6727267"><ele>170.2</ele><time>2026-04-18T07:21:58.444Z</time></trkpt><trkpt lat="43.5259178" lon="10.6728263"><ele>170.0</ele><time>2026-04-18T07:21:59.452Z</time></trkpt><trkpt lat="43.5258646" lon="10.6729577"><ele>170.0</ele><time>2026-04-18T07:22:00.452Z</time></trkpt><trkpt lat="43.5258387" lon="10.6731143"><ele>170.0</ele><time>2026-04-18T07:22:01.455Z</time></trkpt><trkpt lat="43.5258249" lon="10.6732703"><ele>170.0</ele><time>2026-04-18T07:22:02.434Z</time></trkpt><trkpt lat="43.5258149" lon="10.6734282"><ele>170.0</ele><time>2026-04-18T07:22:03.446Z</time></trkpt><trkpt lat="43.525802" lon="10.6735895"><ele>172.0</ele><time>2026-04-18T07:22:04.452Z</time></trkpt><trkpt lat="43.525796" lon="10.6737541"><ele>174.0</ele><time>2026-04-18T07:22:05.44Z</time></trkpt><trkpt lat="43.5257852" lon="10.6739279"><ele>176.0</ele><time>2026-04-18T07:22:06.447Z</time></trkpt><trkpt lat="43.5257709" lon="10.6740994"><ele>178.0</ele><time>2026-04-18T07:22:07.452Z</time></trkpt><trkpt lat="43.5257476" lon="10.6742751"><ele>179.25</ele><time>2026-04-18T07:22:08.431Z</time></trkpt><trkpt lat="43.5257228" lon="10.674445"><ele>180.5</ele><time>2026-04-18T07:22:09.43Z</time></trkpt><trkpt lat="43.5257001" lon="10.674615"><ele>181.75</ele><time>2026-04-18T07:22:10.457Z</time></trkpt><trkpt lat="43.5256767" lon="10.6747798"><ele>183.0</ele><time>2026-04-18T07:22:11.446Z</time></trkpt><trkpt lat="43.525654" lon="10.6749458"><ele>183.0</ele><time>2026-04-18T07:22:12.452Z</time></trkpt><trkpt lat="43.5256287" lon="10.6750995"><ele>183.0</ele><time>2026-04-18T07:22:13.451Z</time></trkpt><trkpt lat="43.5256069" lon="10.6752405"><ele>183.0</ele><time>2026-04-18T07:22:14.439Z</time></trkpt><trkpt lat="43.5255843" lon="10.6753733"><ele>183.0</ele><time>2026-04-18T07:22:15.456Z</time></trkpt><trkpt lat="43.5255465" lon="10.6754892"><ele>183.0</ele><time>2026-04-18T07:22:16.456Z</time></trkpt><trkpt lat="43.5255063" lon="10.6755946"><ele>183.0</ele><time>2026-04-18T07:22:17.436Z</time></trkpt><trkpt lat="43.5254578" lon="10.6756883"><ele>183.0</ele><time>2026-04-18T07:22:18.449Z</time></trkpt><trkpt lat="43.5254166" lon="10.6757661"><ele>183.0</ele><time>2026-04-18T07:22:19.434Z</time></trkpt><trkpt lat="43.5253463" lon="10.6758941"><ele>183.0</ele><time>2026-04-18T07:22:21.445Z</time></trkpt><trkpt lat="43.5252555" lon="10.6759979"><ele>183.0</ele><time>2026-04-18T07:22:23.44Z</time></trkpt><trkpt lat="43.5251802" lon="10.6760399"><ele>183.0</ele><time>2026-04-18T07:22:24.448Z</time></trkpt><trkpt lat="43.5251241" lon="10.6760837"><ele>183.0</ele><time>2026-04-18T07:22:25.439Z</time></trkpt><trkpt lat="43.5250305" lon="10.6761718"><ele>183.0</ele><time>2026-04-18T07:22:27.435Z</time></trkpt><trkpt lat="43.5249553" lon="10.6762514"><ele>183.0</ele><time>2026-04-18T07:22:29.419Z</time></trkpt><trkpt lat="43.5248691" lon="10.6763269"><ele>183.0</ele><time>2026-04-18T07:22:31.443Z</time></trkpt><trkpt lat="43.5247917" lon="10.6763969"><ele>182.83333333333334</ele><time>2026-04-18T07:22:33.445Z</time></trkpt><trkpt lat="43.5247249" lon="10.676435"><ele>182.66666666666666</ele><time>2026-04-18T07:22:35.431Z</time></trkpt><trkpt lat="43.5246937" lon="10.6765197"><ele>182.5</ele><time>2026-04-18T07:22:38.432Z</time></trkpt><trkpt lat="43.5246367" lon="10.6766062"><ele>182.33333333333331</ele><time>2026-04-18T07:22:41.424Z</time></trkpt><trkpt lat="43.5246028" lon="10.6767205"><ele>182.16666666666666</ele><time>2026-04-18T07:22:43.446Z</time></trkpt><trkpt lat="43.5245727" lon="10.67685"><ele>182.0</ele><time>2026-04-18T07:22:45.434Z</time></trkpt><trkpt lat="43.524555" lon="10.676935"><ele>181.5</ele><time>2026-04-18T07:22:47.419Z</time></trkpt><trkpt lat="43.5245505" lon="10.677041"><ele>181.0</ele><time>2026-04-18T07:22:50.434Z</time></trkpt><trkpt lat="43.524555" lon="10.6771516"><ele>180.5</ele><time>2026-04-18T07:22:53.451Z</time></trkpt><trkpt lat="43.5245667" lon="10.6772382"><ele>180.0</ele><time>2026-04-18T07:23:16.442Z</time></trkpt><trkpt lat="43.5246355" lon="10.6773146"><ele>179.5</ele><time>2026-04-18T07:23:19.427Z</time></trkpt><trkpt lat="43.5247039" lon="10.6774107"><ele>179.0</ele><time>2026-04-18T07:23:21.437Z</time></trkpt><trkpt lat="43.5247584" lon="10.6775163"><ele>178.33333333333331</ele><time>2026-04-18T07:23:23.437Z</time></trkpt><trkpt lat="43.5247724" lon="10.6776843"><ele>177.66666666666666</ele><time>2026-04-18T07:23:25.443Z</time></trkpt><trkpt lat="43.5247616" lon="10.6777922"><ele>177.0</ele><time>2026-04-18T07:23:26.428Z</time></trkpt><trkpt lat="43.5247618" lon="10.6779005"><ele>176.33333333333334</ele><time>2026-04-18T07:23:27.463Z</time></trkpt><trkpt lat="43.5247672" lon="10.6780156"><ele>175.66666666666669</ele><time>2026-04-18T07:23:28.431Z</time></trkpt><trkpt lat="43.5247619" lon="10.67813"><ele>175.0</ele><time>2026-04-18T07:23:29.437Z</time></trkpt><trkpt lat="43.5247698" lon="10.6782542"><ele>174.5</ele><time>2026-04-18T07:23:30.44Z</time></trkpt><trkpt lat="43.5247811" lon="10.6783736"><ele>174.0</ele><time>2026-04-18T07:23:31.438Z</time></trkpt><trkpt lat="43.5247966" lon="10.6784905"><ele>173.5</ele><time>2026-04-18T07:23:32.441Z</time></trkpt><trkpt lat="43.5248127" lon="10.6786028"><ele>173.0</ele><time>2026-04-18T07:23:33.426Z</time></trkpt><trkpt lat="43.5248264" lon="10.67871"><ele>172.5</ele><time>2026-04-18T07:23:34.42Z</time></trkpt><trkpt lat="43.5248396" lon="10.6788165"><ele>172.0</ele><time>2026-04-18T07:23:35.458Z</time></trkpt><trkpt lat="43.524853" lon="10.6789207"><ele>173.16666666666669</ele><time>2026-04-18T07:23:36.454Z</time></trkpt><trkpt lat="43.5248626" lon="10.6790233"><ele>174.33333333333334</ele><time>2026-04-18T07:23:37.439Z</time></trkpt><trkpt lat="43.5248759" lon="10.6791362"><ele>175.5</ele><time>2026-04-18T07:23:38.453Z</time></trkpt><trkpt lat="43.5248803" lon="10.6792439"><ele>176.66666666666666</ele><time>2026-04-18T07:23:39.446Z</time></trkpt><trkpt lat="43.524879" lon="10.6793593"><ele>177.83333333333331</ele><time>2026-04-18T07:23:40.453Z</time></trkpt><trkpt lat="43.5248771" lon="10.6794759"><ele>179.0</ele><time>2026-04-18T07:23:41.432Z</time></trkpt><trkpt lat="43.5248662" lon="10.6795926"><ele>179.6</ele><time>2026-04-18T07:23:42.433Z</time></trkpt><trkpt lat="43.5248628" lon="10.6797144"><ele>180.2</ele><time>2026-04-18T07:23:43.434Z</time></trkpt><trkpt lat="43.524864" lon="10.6798373"><ele>180.79999999999998</ele><time>2026-04-18T07:23:44.454Z</time></trkpt><trkpt lat="43.5248794" lon="10.679962"><ele>181.39999999999998</ele><time>2026-04-18T07:23:45.427Z</time></trkpt><trkpt lat="43.5249013" lon="10.6800928"><ele>182.0</ele><time>2026-04-18T07:23:46.44Z</time></trkpt><trkpt lat="43.5249303" lon="10.6802291"><ele>180.6</ele><time>2026-04-18T07:23:47.461Z</time></trkpt><trkpt lat="43.5249612" lon="10.6803729"><ele>179.2</ele><time>2026-04-18T07:23:48.443Z</time></trkpt><trkpt lat="43.5249857" lon="10.6805203"><ele>177.8</ele><time>2026-04-18T07:23:49.449Z</time></trkpt><trkpt lat="43.5249998" lon="10.6806686"><ele>176.4</ele><time>2026-04-18T07:23:50.443Z</time></trkpt><trkpt lat="43.5250036" lon="10.6808154"><ele>175.0</ele><time>2026-04-18T07:23:51.442Z</time></trkpt><trkpt lat="43.5250072" lon="10.6809651"><ele>174.4</ele><time>2026-04-18T07:23:52.445Z</time></trkpt><trkpt lat="43.5250019" lon="10.6811093"><ele>173.8</ele><time>2026-04-18T07:23:53.437Z</time></trkpt><trkpt lat="43.5249995" lon="10.6812661"><ele>173.2</ele><time>2026-04-18T07:23:54.443Z</time></trkpt><trkpt lat="43.5250018" lon="10.68142"><ele>172.6</ele><time>2026-04-18T07:23:55.437Z</time></trkpt><trkpt lat="43.5250004" lon="10.6815798"><ele>172.0</ele><time>2026-04-18T07:23:56.444Z</time></trkpt><trkpt lat="43.5249969" lon="10.6817336"><ele>172.0</ele><time>2026-04-18T07:23:57.445Z</time></trkpt><trkpt lat="43.5249889" lon="10.6818845"><ele>172.0</ele><time>2026-04-18T07:23:58.441Z</time></trkpt><trkpt lat="43.5249816" lon="10.6820287"><ele>172.0</ele><time>2026-04-18T07:23:59.441Z</time></trkpt><trkpt lat="43.5249691" lon="10.6821647"><ele>172.0</ele><time>2026-04-18T07:24:00.453Z</time></trkpt><trkpt lat="43.5249711" lon="10.6822885"><ele>172.0</ele><time>2026-04-18T07:24:01.441Z</time></trkpt><trkpt lat="43.5249864" lon="10.6824017"><ele>171.6</ele><time>2026-04-18T07:24:02.446Z</time></trkpt><trkpt lat="43.5250172" lon="10.6825003"><ele>171.2</ele><time>2026-04-18T07:24:03.433Z</time></trkpt><trkpt lat="43.5251383" lon="10.6825953"><ele>170.8</ele><time>2026-04-18T07:24:05.424Z</time></trkpt><trkpt lat="43.5252288" lon="10.6826015"><ele>170.4</ele><time>2026-04-18T07:24:06.436Z</time></trkpt><trkpt lat="43.5253234" lon="10.6826185"><ele>170.0</ele><time>2026-04-18T07:24:07.438Z</time></trkpt><trkpt lat="43.5254158" lon="10.6826762"><ele>168.8</ele><time>2026-04-18T07:24:08.433Z</time></trkpt><trkpt lat="43.5254922" lon="10.6827736"><ele>167.6</ele><time>2026-04-18T07:24:09.43Z</time></trkpt><trkpt lat="43.5255407" lon="10.6828991"><ele>166.39999999999998</ele><time>2026-04-18T07:24:10.428Z</time></trkpt><trkpt lat="43.5255712" lon="10.6830041"><ele>165.2</ele><time>2026-04-18T07:24:11.441Z</time></trkpt><trkpt lat="43.5256087" lon="10.6831482"><ele>164.0</ele><time>2026-04-18T07:24:13.44Z</time></trkpt><trkpt lat="43.5256284" lon="10.6832894"><ele>164.0</ele><time>2026-04-18T07:24:15.456Z</time></trkpt><trkpt lat="43.5255449" lon="10.6834134"><ele>164.0</ele><time>2026-04-18T07:24:17.444Z</time></trkpt><trkpt lat="43.5254804" lon="10.6834602"><ele>164.0</ele><time>2026-04-18T07:24:18.435Z</time></trkpt><trkpt lat="43.5253982" lon="10.6835181"><ele>164.0</ele><time>2026-04-18T07:24:19.433Z</time></trkpt><trkpt lat="43.5253079" lon="10.6835921"><ele>164.0</ele><time>2026-04-18T07:24:20.461Z</time></trkpt><trkpt lat="43.5252091" lon="10.6836717"><ele>161.79999999999998</ele><time>2026-04-18T07:24:21.428Z</time></trkpt><trkpt lat="43.5250982" lon="10.6837528"><ele>159.6</ele><time>2026-04-18T07:24:22.465Z</time></trkpt><trkpt lat="43.5249877" lon="10.6838298"><ele>157.4</ele><time>2026-04-18T07:24:23.436Z</time></trkpt><trkpt lat="43.5248859" lon="10.6838882"><ele>155.2</ele><time>2026-04-18T07:24:24.441Z</time></trkpt><trkpt lat="43.5247997" lon="10.6839104"><ele>153.0</ele><time>2026-04-18T07:24:25.438Z</time></trkpt><trkpt lat="43.5247056" lon="10.6838852"><ele>153.0</ele><time>2026-04-18T07:24:27.429Z</time></trkpt><trkpt lat="43.5246481" lon="10.6838332"><ele>153.0</ele><time>2026-04-18T07:24:30.44Z</time></trkpt><trkpt lat="43.5245886" lon="10.6837604"><ele>153.0</ele><time>2026-04-18T07:24:33.437Z</time></trkpt><trkpt lat="43.5245231" lon="10.6838333"><ele>153.0</ele><time>2026-04-18T07:24:36.443Z</time></trkpt><trkpt lat="43.5245159" lon="10.6839955"><ele>153.0</ele><time>2026-04-18T07:24:38.429Z</time></trkpt><trkpt lat="43.5245065" lon="10.6841709"><ele>151.4</ele><time>2026-04-18T07:24:40.442Z</time></trkpt><trkpt lat="43.5245026" lon="10.6842591"><ele>149.8</ele><time>2026-04-18T07:24:41.429Z</time></trkpt><trkpt lat="43.5245216" lon="10.6844195"><ele>148.2</ele><time>2026-04-18T07:24:43.437Z</time></trkpt><trkpt lat="43.5246343" lon="10.684493"><ele>146.6</ele><time>2026-04-18T07:24:45.431Z</time></trkpt><trkpt lat="43.5247327" lon="10.6844928"><ele>145.0</ele><time>2026-04-18T07:24:46.44Z</time></trkpt><trkpt lat="43.5248317" lon="10.6845121"><ele>145.0</ele><time>2026-04-18T07:24:47.434Z</time></trkpt><trkpt lat="43.524937" lon="10.6845503"><ele>145.0</ele><time>2026-04-18T07:24:48.448Z</time></trkpt><trkpt lat="43.525035" lon="10.6845976"><ele>145.0</ele><time>2026-04-18T07:24:49.443Z</time></trkpt><trkpt lat="43.5251202" lon="10.684674"><ele>145.0</ele><time>2026-04-18T07:24:50.438Z</time></trkpt><trkpt lat="43.5252018" lon="10.6847806"><ele>145.0</ele><time>2026-04-18T07:24:51.438Z</time></trkpt><trkpt lat="43.5252518" lon="10.684898"><ele>145.0</ele><time>2026-04-18T07:24:52.427Z</time></trkpt><trkpt lat="43.5253015" lon="10.6850249"><ele>145.0</ele><time>2026-04-18T07:24:53.438Z</time></trkpt><trkpt lat="43.5253224" lon="10.6851893"><ele>145.0</ele><time>2026-04-18T07:24:54.437Z</time></trkpt><trkpt lat="43.5253539" lon="10.6853731"><ele>145.0</ele><time>2026-04-18T07:24:55.449Z</time></trkpt><trkpt lat="43.5253957" lon="10.6855538"><ele>146.0</ele><time>2026-04-18T07:24:56.439Z</time></trkpt><trkpt lat="43.5254372" lon="10.6857203"><ele>147.0</ele><time>2026-04-18T07:24:57.439Z</time></trkpt><trkpt lat="43.5254848" lon="10.6858952"><ele>148.0</ele><time>2026-04-18T07:24:58.435Z</time></trkpt><trkpt lat="43.525518" lon="10.6860711"><ele>149.0</ele><time>2026-04-18T07:24:59.442Z</time></trkpt><trkpt lat="43.5255476" lon="10.6862517"><ele>146.0</ele><time>2026-04-18T07:25:00.447Z</time></trkpt><trkpt lat="43.5255632" lon="10.6864359"><ele>143.0</ele><time>2026-04-18T07:25:01.44Z</time></trkpt><trkpt lat="43.5255687" lon="10.6866078"><ele>140.0</ele><time>2026-04-18T07:25:02.428Z</time></trkpt><trkpt lat="43.5255659" lon="10.6867663"><ele>137.0</ele><time>2026-04-18T07:25:03.432Z</time></trkpt><trkpt lat="43.5255461" lon="10.6869172"><ele>135.25</ele><time>2026-04-18T07:25:04.442Z</time></trkpt><trkpt lat="43.5255206" lon="10.687064"><ele>133.5</ele><time>2026-04-18T07:25:05.43Z</time></trkpt><trkpt lat="43.5254871" lon="10.6872186"><ele>131.75</ele><time>2026-04-18T07:25:06.446Z</time></trkpt><trkpt lat="43.5254447" lon="10.6873729"><ele>130.0</ele><time>2026-04-18T07:25:07.432Z</time></trkpt><trkpt lat="43.5253998" lon="10.6875315"><ele>128.0</ele><time>2026-04-18T07:25:08.434Z</time></trkpt><trkpt lat="43.5253563" lon="10.6876951"><ele>126.0</ele><time>2026-04-18T07:25:09.436Z</time></trkpt><trkpt lat="43.525311" lon="10.6878527"><ele>124.0</ele><time>2026-04-18T07:25:10.443Z</time></trkpt><trkpt lat="43.5252678" lon="10.6880072"><ele>122.0</ele><time>2026-04-18T07:25:11.458Z</time></trkpt><trkpt lat="43.5252313" lon="10.6881578"><ele>121.75</ele><time>2026-04-18T07:25:12.44Z</time></trkpt><trkpt lat="43.5251958" lon="10.68832"><ele>121.5</ele><time>2026-04-18T07:25:13.446Z</time></trkpt><trkpt lat="43.5251745" lon="10.6884921"><ele>121.25</ele><time>2026-04-18T07:25:14.457Z</time></trkpt><trkpt lat="43.5251554" lon="10.6886882"><ele>121.0</ele><time>2026-04-18T07:25:15.453Z</time></trkpt><trkpt lat="43.5251418" lon="10.6888831"><ele>120.75</ele><time>2026-04-18T07:25:16.455Z</time></trkpt><trkpt lat="43.5251154" lon="10.6890703"><ele>120.5</ele><time>2026-04-18T07:25:17.457Z</time></trkpt><trkpt lat="43.525086" lon="10.6892595"><ele>120.25</ele><time>2026-04-18T07:25:18.443Z</time></trkpt><trkpt lat="43.5250542" lon="10.6894403"><ele>120.0</ele><time>2026-04-18T07:25:19.453Z</time></trkpt><trkpt lat="43.5250241" lon="10.6896182"><ele>120.0</ele><time>2026-04-18T07:25:20.441Z</time></trkpt><trkpt lat="43.5249995" lon="10.6897908"><ele>120.0</ele><time>2026-04-18T07:25:21.434Z</time></trkpt><trkpt lat="43.5249958" lon="10.6899558"><ele>120.0</ele><time>2026-04-18T07:25:22.458Z</time></trkpt><trkpt lat="43.5249964" lon="10.6901382"><ele>120.0</ele><time>2026-04-18T07:25:23.452Z</time></trkpt><trkpt lat="43.5250149" lon="10.6903268"><ele>119.0</ele><time>2026-04-18T07:25:24.455Z</time></trkpt><trkpt lat="43.5250424" lon="10.6905253"><ele>118.0</ele><time>2026-04-18T07:25:25.442Z</time></trkpt><trkpt lat="43.5250744" lon="10.6907272"><ele>117.0</ele><time>2026-04-18T07:25:26.446Z</time></trkpt><trkpt lat="43.5251018" lon="10.6909323"><ele>116.0</ele><time>2026-04-18T07:25:27.446Z</time></trkpt><trkpt lat="43.5251251" lon="10.6911326"><ele>114.5</ele><time>2026-04-18T07:25:28.444Z</time></trkpt><trkpt lat="43.5251581" lon="10.6913225"><ele>113.0</ele><time>2026-04-18T07:25:29.445Z</time></trkpt><trkpt lat="43.5251991" lon="10.6915028"><ele>111.5</ele><time>2026-04-18T07:25:30.451Z</time></trkpt><trkpt lat="43.5252466" lon="10.6916742"><ele>110.0</ele><time>2026-04-18T07:25:31.441Z</time></trkpt><trkpt lat="43.525297" lon="10.6918396"><ele>109.0</ele><time>2026-04-18T07:25:32.445Z</time></trkpt><trkpt lat="43.5253324" lon="10.6920048"><ele>108.0</ele><time>2026-04-18T07:25:33.436Z</time></trkpt><trkpt lat="43.5253633" lon="10.6921811"><ele>107.0</ele><time>2026-04-18T07:25:34.447Z</time></trkpt><trkpt lat="43.5253868" lon="10.6923553"><ele>106.0</ele><time>2026-04-18T07:25:35.447Z</time></trkpt><trkpt lat="43.5254023" lon="10.6925333"><ele>106.0</ele><time>2026-04-18T07:25:36.449Z</time></trkpt><trkpt lat="43.5254159" lon="10.692711"><ele>106.0</ele><time>2026-04-18T07:25:37.457Z</time></trkpt><trkpt lat="43.5254186" lon="10.69289"><ele>106.0</ele><time>2026-04-18T07:25:38.439Z</time></trkpt><trkpt lat="43.5254241" lon="10.6930546"><ele>106.0</ele><time>2026-04-18T07:25:39.443Z</time></trkpt><trkpt lat="43.5254266" lon="10.6932104"><ele>106.25</ele><time>2026-04-18T07:25:40.445Z</time></trkpt><trkpt lat="43.52545" lon="10.6933583"><ele>106.5</ele><time>2026-04-18T07:25:41.449Z</time></trkpt><trkpt lat="43.5254954" lon="10.6935088"><ele>106.75</ele><time>2026-04-18T07:25:42.439Z</time></trkpt><trkpt lat="43.5255576" lon="10.6936623"><ele>107.0</ele><time>2026-04-18T07:25:43.429Z</time></trkpt><trkpt lat="43.5256281" lon="10.6938206"><ele>107.0</ele><time>2026-04-18T07:25:44.427Z</time></trkpt><trkpt lat="43.525697" lon="10.6939638"><ele>107.0</ele><time>2026-04-18T07:25:45.441Z</time></trkpt><trkpt lat="43.5257618" lon="10.6941089"><ele>107.0</ele><time>2026-04-18T07:25:46.439Z</time></trkpt><trkpt lat="43.5258102" lon="10.6942574"><ele>107.0</ele><time>2026-04-18T07:25:47.442Z</time></trkpt><trkpt lat="43.5258334" lon="10.6944193"><ele>106.5</ele><time>2026-04-18T07:25:48.451Z</time></trkpt><trkpt lat="43.525847" lon="10.6945914"><ele>106.0</ele><time>2026-04-18T07:25:49.448Z</time></trkpt><trkpt lat="43.5258629" lon="10.6947554"><ele>105.5</ele><time>2026-04-18T07:25:50.449Z</time></trkpt><trkpt lat="43.5258565" lon="10.6949214"><ele>105.0</ele><time>2026-04-18T07:25:51.428Z</time></trkpt><trkpt lat="43.5258028" lon="10.6950609"><ele>105.0</ele><time>2026-04-18T07:25:52.445Z</time></trkpt><trkpt lat="43.5257363" lon="10.6951749"><ele>105.0</ele><time>2026-04-18T07:25:53.451Z</time></trkpt><trkpt lat="43.5256737" lon="10.6952584"><ele>105.0</ele><time>2026-04-18T07:25:54.456Z</time></trkpt><trkpt lat="43.525632" lon="10.6953491"><ele>105.0</ele><time>2026-04-18T07:25:55.45Z</time></trkpt><trkpt lat="43.5256225" lon="10.6954726"><ele>105.0</ele><time>2026-04-18T07:25:56.446Z</time></trkpt><trkpt lat="43.5256492" lon="10.6955977"><ele>104.0</ele><time>2026-04-18T07:25:57.439Z</time></trkpt><trkpt lat="43.5256946" lon="10.6957409"><ele>103.0</ele><time>2026-04-18T07:25:58.448Z</time></trkpt><trkpt lat="43.525732" lon="10.6958829"><ele>102.0</ele><time>2026-04-18T07:25:59.427Z</time></trkpt><trkpt lat="43.5257576" lon="10.6960263"><ele>101.0</ele><time>2026-04-18T07:26:00.441Z</time></trkpt><trkpt lat="43.5257745" lon="10.6961724"><ele>100.0</ele><time>2026-04-18T07:26:01.435Z</time></trkpt><trkpt lat="43.5257697" lon="10.6963216"><ele>98.75</ele><time>2026-04-18T07:26:02.446Z</time></trkpt><trkpt lat="43.5257507" lon="10.6964886"><ele>97.5</ele><time>2026-04-18T07:26:03.447Z</time></trkpt><trkpt lat="43.5257267" lon="10.6966621"><ele>96.25</ele><time>2026-04-18T07:26:04.442Z</time></trkpt><trkpt lat="43.525699" lon="10.6968423"><ele>95.0</ele><time>2026-04-18T07:26:05.444Z</time></trkpt><trkpt lat="43.5256643" lon="10.6970075"><ele>94.5</ele><time>2026-04-18T07:26:06.448Z</time></trkpt><trkpt lat="43.5256065" lon="10.6971555"><ele>94.0</ele><time>2026-04-18T07:26:07.449Z</time></trkpt><trkpt lat="43.5255392" lon="10.6972911"><ele>93.5</ele><time>2026-04-18T07:26:08.441Z</time></trkpt><trkpt lat="43.5254789" lon="10.6974155"><ele>93.0</ele><time>2026-04-18T07:26:09.435Z</time></trkpt><trkpt lat="43.5254271" lon="10.6975478"><ele>93.0</ele><time>2026-04-18T07:26:10.456Z</time></trkpt><trkpt lat="43.5254036" lon="10.697689"><ele>93.0</ele><time>2026-04-18T07:26:11.442Z</time></trkpt><trkpt lat="43.5253911" lon="10.6978408"><ele>93.0</ele><time>2026-04-18T07:26:12.446Z</time></trkpt><trkpt lat="43.5254003" lon="10.6979907"><ele>93.0</ele><time>2026-04-18T07:26:13.437Z</time></trkpt><trkpt lat="43.5254244" lon="10.6981552"><ele>93.0</ele><time>2026-04-18T07:26:14.432Z</time></trkpt><trkpt lat="43.5254644" lon="10.6983258"><ele>92.0</ele><time>2026-04-18T07:26:15.445Z</time></trkpt><trkpt lat="43.5254983" lon="10.6984942"><ele>91.0</ele><time>2026-04-18T07:26:16.464Z</time></trkpt><trkpt lat="43.5255188" lon="10.6986535"><ele>90.0</ele><time>2026-04-18T07:26:17.431Z</time></trkpt><trkpt lat="43.5255154" lon="10.698818"><ele>89.0</ele><time>2026-04-18T07:26:18.435Z</time></trkpt><trkpt lat="43.5254905" lon="10.698986"><ele>88.4</ele><time>2026-04-18T07:26:19.441Z</time></trkpt><trkpt lat="43.5254385" lon="10.6991471"><ele>87.80000000000001</ele><time>2026-04-18T07:26:20.449Z</time></trkpt><trkpt lat="43.525378" lon="10.6992835"><ele>87.19999999999999</ele><time>2026-04-18T07:26:21.443Z</time></trkpt><trkpt lat="43.5253323" lon="10.699411"><ele>86.6</ele><time>2026-04-18T07:26:22.438Z</time></trkpt><trkpt lat="43.5252982" lon="10.6995357"><ele>86.0</ele><time>2026-04-18T07:26:23.443Z</time></trkpt><trkpt lat="43.5252976" lon="10.6996571"><ele>84.0</ele><time>2026-04-18T07:26:24.434Z</time></trkpt><trkpt lat="43.5253211" lon="10.6997861"><ele>82.0</ele><time>2026-04-18T07:26:25.434Z</time></trkpt><trkpt lat="43.5253634" lon="10.6999254"><ele>80.0</ele><time>2026-04-18T07:26:26.444Z</time></trkpt><trkpt lat="43.5254176" lon="10.700088"><ele>78.0</ele><time>2026-04-18T07:26:27.434Z</time></trkpt><trkpt lat="43.5254825" lon="10.7002749"><ele>75.0</ele><time>2026-04-18T07:26:28.422Z</time></trkpt><trkpt lat="43.5255472" lon="10.7004581"><ele>72.0</ele><time>2026-04-18T07:26:29.422Z</time></trkpt><trkpt lat="43.5256132" lon="10.7006382"><ele>69.0</ele><time>2026-04-18T07:26:30.432Z</time></trkpt><trkpt lat="43.525669" lon="10.7008197"><ele>66.0</ele><time>2026-04-18T07:26:31.44Z</time></trkpt><trkpt lat="43.5257016" lon="10.7009998"><ele>64.5</ele><time>2026-04-18T07:26:32.433Z</time></trkpt><trkpt lat="43.5257218" lon="10.7011837"><ele>63.0</ele><time>2026-04-18T07:26:33.428Z</time></trkpt><trkpt lat="43.5257248" lon="10.7013673"><ele>61.5</ele><time>2026-04-18T07:26:34.443Z</time></trkpt><trkpt lat="43.52573" lon="10.7015202"><ele>60.0</ele><time>2026-04-18T07:26:35.447Z</time></trkpt><trkpt lat="43.5257321" lon="10.7016682"><ele>60.0</ele><time>2026-04-18T07:26:36.442Z</time></trkpt><trkpt lat="43.5257384" lon="10.7018035"><ele>60.0</ele><time>2026-04-18T07:26:37.439Z</time></trkpt><trkpt lat="43.5257563" lon="10.7019474"><ele>60.0</ele><time>2026-04-18T07:26:38.44Z</time></trkpt><trkpt lat="43.5257938" lon="10.7020835"><ele>60.0</ele><time>2026-04-18T07:26:39.447Z</time></trkpt><trkpt lat="43.5258315" lon="10.7022188"><ele>60.0</ele><time>2026-04-18T07:26:40.435Z</time></trkpt><trkpt lat="43.5258664" lon="10.7023286"><ele>59.5</ele><time>2026-04-18T07:26:41.44Z</time></trkpt><trkpt lat="43.5259037" lon="10.70243"><ele>59.0</ele><time>2026-04-18T07:26:42.442Z</time></trkpt><trkpt lat="43.5259246" lon="10.7025232"><ele>58.5</ele><time>2026-04-18T07:26:43.451Z</time></trkpt><trkpt lat="43.5259539" lon="10.7026383"><ele>58.0</ele><time>2026-04-18T07:26:45.443Z</time></trkpt><trkpt lat="43.526011" lon="10.7027119"><ele>57.5</ele><time>2026-04-18T07:26:50.456Z</time></trkpt><trkpt lat="43.5261071" lon="10.7026657"><ele>57.0</ele><time>2026-04-18T07:26:52.441Z</time></trkpt><trkpt lat="43.5262298" lon="10.7025593"><ele>56.75</ele><time>2026-04-18T07:26:54.441Z</time></trkpt><trkpt lat="43.526319" lon="10.7024878"><ele>56.5</ele><time>2026-04-18T07:26:55.471Z</time></trkpt><trkpt lat="43.5264294" lon="10.7024205"><ele>56.25</ele><time>2026-04-18T07:26:56.449Z</time></trkpt><trkpt lat="43.5265518" lon="10.7023592"><ele>56.0</ele><time>2026-04-18T07:26:57.447Z</time></trkpt><trkpt lat="43.5266937" lon="10.7023166"><ele>56.0</ele><time>2026-04-18T07:26:58.431Z</time></trkpt><trkpt lat="43.5268422" lon="10.7022888"><ele>56.0</ele><time>2026-04-18T07:26:59.453Z</time></trkpt><trkpt lat="43.5270124" lon="10.7022774"><ele>56.0</ele><time>2026-04-18T07:27:00.44Z</time></trkpt><trkpt lat="43.5271991" lon="10.7022746"><ele>56.0</ele><time>2026-04-18T07:27:01.446Z</time></trkpt><trkpt lat="43.5273978" lon="10.7022714"><ele>56.0</ele><time>2026-04-18T07:27:02.439Z</time></trkpt><trkpt lat="43.527601" lon="10.7022643"><ele>56.0</ele><time>2026-04-18T07:27:03.442Z</time></trkpt><trkpt lat="43.5278104" lon="10.7022619"><ele>56.66666666666667</ele><time>2026-04-18T07:27:04.44Z</time></trkpt><trkpt lat="43.5280222" lon="10.7022555"><ele>57.33333333333333</ele><time>2026-04-18T07:27:05.438Z</time></trkpt><trkpt lat="43.5282326" lon="10.7022476"><ele>58.0</ele><time>2026-04-18T07:27:06.454Z</time></trkpt><trkpt lat="43.528438" lon="10.7022463"><ele>58.0</ele><time>2026-04-18T07:27:07.429Z</time></trkpt><trkpt lat="43.5286366" lon="10.7022388"><ele>58.0</ele><time>2026-04-18T07:27:08.435Z</time></trkpt><trkpt lat="43.5288356" lon="10.7022314"><ele>58.0</ele><time>2026-04-18T07:27:09.436Z</time></trkpt><trkpt lat="43.52903" lon="10.7022171"><ele>57.0</ele><time>2026-04-18T07:27:10.45Z</time></trkpt><trkpt lat="43.5292227" lon="10.7021986"><ele>56.0</ele><time>2026-04-18T07:27:11.445Z</time></trkpt><trkpt lat="43.529408" lon="10.7021755"><ele>55.0</ele><time>2026-04-18T07:27:12.433Z</time></trkpt><trkpt lat="43.5295858" lon="10.7021488"><ele>54.666666666666664</ele><time>2026-04-18T07:27:13.445Z</time></trkpt><trkpt lat="43.5297618" lon="10.7021259"><ele>54.33333333333333</ele><time>2026-04-18T07:27:14.433Z</time></trkpt><trkpt lat="43.5299322" lon="10.7021012"><ele>54.0</ele><time>2026-04-18T07:27:15.45Z</time></trkpt><trkpt lat="43.5301054" lon="10.7020721"><ele>54.0</ele><time>2026-04-18T07:27:16.421Z</time></trkpt><trkpt lat="43.530283" lon="10.7020457"><ele>54.0</ele><time>2026-04-18T07:27:17.414Z</time></trkpt><trkpt lat="43.5304701" lon="10.7020225"><ele>54.0</ele><time>2026-04-18T07:27:18.443Z</time></trkpt><trkpt lat="43.530659" lon="10.7020042"><ele>54.33333333333333</ele><time>2026-04-18T07:27:19.435Z</time></trkpt><trkpt lat="43.5308494" lon="10.7019771"><ele>54.666666666666664</ele><time>2026-04-18T07:27:20.435Z</time></trkpt><trkpt lat="43.5310457" lon="10.7019531"><ele>55.0</ele><time>2026-04-18T07:27:21.433Z</time></trkpt><trkpt lat="43.5312384" lon="10.7019194"><ele>55.0</ele><time>2026-04-18T07:27:22.449Z</time></trkpt><trkpt lat="43.531429" lon="10.7018773"><ele>55.0</ele><time>2026-04-18T07:27:23.423Z</time></trkpt><trkpt lat="43.53162" lon="10.7018435"><ele>55.0</ele><time>2026-04-18T07:27:24.472Z</time></trkpt><trkpt lat="43.5318123" lon="10.7017979"><ele>55.0</ele><time>2026-04-18T07:27:25.423Z</time></trkpt><trkpt lat="43.5320117" lon="10.7017472"><ele>55.0</ele><time>2026-04-18T07:27:26.451Z</time></trkpt><trkpt lat="43.5322122" lon="10.7017059"><ele>55.0</ele><time>2026-04-18T07:27:27.453Z</time></trkpt><trkpt lat="43.5324075" lon="10.7016706"><ele>55.0</ele><time>2026-04-18T07:27:28.456Z</time></trkpt><trkpt lat="43.5326015" lon="10.701631"><ele>55.0</ele><time>2026-04-18T07:27:29.448Z</time></trkpt><trkpt lat="43.5327937" lon="10.7015976"><ele>55.0</ele><time>2026-04-18T07:27:30.443Z</time></trkpt><trkpt lat="43.5329847" lon="10.7015587"><ele>55.33333333333333</ele><time>2026-04-18T07:27:31.442Z</time></trkpt><trkpt lat="43.5331742" lon="10.7015179"><ele>55.66666666666667</ele><time>2026-04-18T07:27:32.455Z</time></trkpt><trkpt lat="43.5333626" lon="10.7014791"><ele>56.0</ele><time>2026-04-18T07:27:33.44Z</time></trkpt><trkpt lat="43.5335434" lon="10.7014453"><ele>56.66666666666667</ele><time>2026-04-18T07:27:34.446Z</time></trkpt><trkpt lat="43.5337241" lon="10.7014033"><ele>57.33333333333333</ele><time>2026-04-18T07:27:35.433Z</time></trkpt><trkpt lat="43.5339016" lon="10.701365"><ele>58.0</ele><time>2026-04-18T07:27:36.455Z</time></trkpt><trkpt lat="43.5340748" lon="10.7013319"><ele>58.0</ele><time>2026-04-18T07:27:37.45Z</time></trkpt><trkpt lat="43.5342421" lon="10.7013"><ele>58.0</ele><time>2026-04-18T07:27:38.455Z</time></trkpt><trkpt lat="43.5344025" lon="10.7012645"><ele>58.0</ele><time>2026-04-18T07:27:39.448Z</time></trkpt><trkpt lat="43.5345541" lon="10.7012323"><ele>57.5</ele><time>2026-04-18T07:27:40.455Z</time></trkpt><trkpt lat="43.5347001" lon="10.7012075"><ele>57.0</ele><time>2026-04-18T07:27:41.452Z</time></trkpt><trkpt lat="43.5348383" lon="10.7011759"><ele>56.5</ele><time>2026-04-18T07:27:42.455Z</time></trkpt><trkpt lat="43.534974" lon="10.701144"><ele>56.0</ele><time>2026-04-18T07:27:43.453Z</time></trkpt><trkpt lat="43.5351007" lon="10.7011183"><ele>56.0</ele><time>2026-04-18T07:27:44.45Z</time></trkpt><trkpt lat="43.5352302" lon="10.7010882"><ele>56.0</ele><time>2026-04-18T07:27:45.445Z</time></trkpt><trkpt lat="43.5353521" lon="10.7010631"><ele>56.0</ele><time>2026-04-18T07:27:46.45Z</time></trkpt><trkpt lat="43.5354619" lon="10.7010408"><ele>56.0</ele><time>2026-04-18T07:27:47.454Z</time></trkpt><trkpt lat="43.5355602" lon="10.7010224"><ele>56.199999999999996</ele><time>2026-04-18T07:27:48.454Z</time></trkpt><trkpt lat="43.5356557" lon="10.7010029"><ele>56.39999999999999</ele><time>2026-04-18T07:27:49.446Z</time></trkpt><trkpt lat="43.5357554" lon="10.7009803"><ele>56.6</ele><time>2026-04-18T07:27:50.443Z</time></trkpt><trkpt lat="43.5358554" lon="10.70096"><ele>56.8</ele><time>2026-04-18T07:27:51.447Z</time></trkpt><trkpt lat="43.5359588" lon="10.7009383"><ele>57.0</ele><time>2026-04-18T07:27:52.448Z</time></trkpt><trkpt lat="43.5360638" lon="10.7009138"><ele>57.0</ele><time>2026-04-18T07:27:53.452Z</time></trkpt><trkpt lat="43.5361611" lon="10.7008928"><ele>57.0</ele><time>2026-04-18T07:27:54.456Z</time></trkpt><trkpt lat="43.5362634" lon="10.7008693"><ele>57.0</ele><time>2026-04-18T07:27:55.458Z</time></trkpt><trkpt lat="43.5363723" lon="10.7008433"><ele>57.0</ele><time>2026-04-18T07:27:56.468Z</time></trkpt><trkpt lat="43.53649" lon="10.7008184"><ele>57.0</ele><time>2026-04-18T07:27:57.461Z</time></trkpt><trkpt lat="43.5366125" lon="10.7007928"><ele>57.0</ele><time>2026-04-18T07:27:58.467Z</time></trkpt><trkpt lat="43.5367455" lon="10.7007676"><ele>57.0</ele><time>2026-04-18T07:27:59.465Z</time></trkpt><trkpt lat="43.5368634" lon="10.7007424"><ele>57.0</ele><time>2026-04-18T07:28:00.455Z</time></trkpt><trkpt lat="43.5369731" lon="10.7007164"><ele>57.0</ele><time>2026-04-18T07:28:01.457Z</time></trkpt><trkpt lat="43.5370705" lon="10.7006927"><ele>57.0</ele><time>2026-04-18T07:28:02.442Z</time></trkpt><trkpt lat="43.5371574" lon="10.7006737"><ele>57.0</ele><time>2026-04-18T07:28:03.452Z</time></trkpt><trkpt lat="43.5372328" lon="10.7006623"><ele>57.0</ele><time>2026-04-18T07:28:04.452Z</time></trkpt><trkpt lat="43.5373059" lon="10.7006445"><ele>57.0</ele><time>2026-04-18T07:28:05.463Z</time></trkpt><trkpt lat="43.5374138" lon="10.7006312"><ele>57.0</ele><time>2026-04-18T07:28:07.462Z</time></trkpt><trkpt lat="43.537516" lon="10.7006189"><ele>57.0</ele><time>2026-04-18T07:28:09.458Z</time></trkpt><trkpt lat="43.5375905" lon="10.7006105"><ele>57.0</ele><time>2026-04-18T07:28:10.45Z</time></trkpt><trkpt lat="43.5376999" lon="10.7005929"><ele>57.0</ele><time>2026-04-18T07:28:11.45Z</time></trkpt><trkpt lat="43.5378192" lon="10.7005678"><ele>57.0</ele><time>2026-04-18T07:28:12.453Z</time></trkpt><trkpt lat="43.5379448" lon="10.7005534"><ele>57.0</ele><time>2026-04-18T07:28:13.445Z</time></trkpt><trkpt lat="43.5380834" lon="10.7005363"><ele>57.0</ele><time>2026-04-18T07:28:14.452Z</time></trkpt><trkpt lat="43.5382288" lon="10.7005139"><ele>57.0</ele><time>2026-04-18T07:28:15.444Z</time></trkpt><trkpt lat="43.5383843" lon="10.7004865"><ele>57.0</ele><time>2026-04-18T07:28:16.453Z</time></trkpt><trkpt lat="43.5385463" lon="10.7004611"><ele>57.0</ele><time>2026-04-18T07:28:17.449Z</time></trkpt><trkpt lat="43.5387023" lon="10.7004393"><ele>57.0</ele><time>2026-04-18T07:28:18.45Z</time></trkpt><trkpt lat="43.5388552" lon="10.700423"><ele>57.0</ele><time>2026-04-18T07:28:19.451Z</time></trkpt><trkpt lat="43.5390017" lon="10.7004015"><ele>57.0</ele><time>2026-04-18T07:28:20.444Z</time></trkpt><trkpt lat="43.5391517" lon="10.7003835"><ele>57.0</ele><time>2026-04-18T07:28:21.439Z</time></trkpt><trkpt lat="43.5392937" lon="10.7003678"><ele>57.0</ele><time>2026-04-18T07:28:22.442Z</time></trkpt><trkpt lat="43.5394269" lon="10.7003514"><ele>57.0</ele><time>2026-04-18T07:28:23.453Z</time></trkpt><trkpt lat="43.5395574" lon="10.7003368"><ele>57.0</ele><time>2026-04-18T07:28:24.439Z</time></trkpt><trkpt lat="43.539683" lon="10.7003237"><ele>57.0</ele><time>2026-04-18T07:28:25.443Z</time></trkpt><trkpt lat="43.5398076" lon="10.7003053"><ele>57.0</ele><time>2026-04-18T07:28:26.425Z</time></trkpt><trkpt lat="43.5399303" lon="10.700293"><ele>57.0</ele><time>2026-04-18T07:28:27.449Z</time></trkpt><trkpt lat="43.5400541" lon="10.7002834"><ele>57.0</ele><time>2026-04-18T07:28:28.446Z</time></trkpt><trkpt lat="43.5401679" lon="10.7002625"><ele>57.0</ele><time>2026-04-18T07:28:29.433Z</time></trkpt><trkpt lat="43.5402802" lon="10.7002409"><ele>57.0</ele><time>2026-04-18T07:28:30.447Z</time></trkpt><trkpt lat="43.5403883" lon="10.700218"><ele>57.0</ele><time>2026-04-18T07:28:31.439Z</time></trkpt><trkpt lat="43.5404926" lon="10.7002053"><ele>57.0</ele><time>2026-04-18T07:28:32.436Z</time></trkpt><trkpt lat="43.540697" lon="10.700185"><ele>57.25</ele><time>2026-04-18T07:28:34.443Z</time></trkpt><trkpt lat="43.5408993" lon="10.7001556"><ele>57.5</ele><time>2026-04-18T07:28:36.421Z</time></trkpt><trkpt lat="43.5409987" lon="10.7001366"><ele>57.75</ele><time>2026-04-18T07:28:37.46Z</time></trkpt><trkpt lat="43.5410942" lon="10.7001173"><ele>58.0</ele><time>2026-04-18T07:28:38.443Z</time></trkpt><trkpt lat="43.5411879" lon="10.700105"><ele>57.666666666666664</ele><time>2026-04-18T07:28:39.447Z</time></trkpt><trkpt lat="43.5412798" lon="10.7000881"><ele>57.33333333333333</ele><time>2026-04-18T07:28:40.439Z</time></trkpt><trkpt lat="43.5413553" lon="10.7000834"><ele>57.0</ele><time>2026-04-18T07:28:41.441Z</time></trkpt><trkpt lat="43.5414279" lon="10.7000808"><ele>56.66666666666667</ele><time>2026-04-18T07:28:42.445Z</time></trkpt><trkpt lat="43.5414957" lon="10.7000794"><ele>56.333333333333336</ele><time>2026-04-18T07:28:43.441Z</time></trkpt><trkpt lat="43.5415592" lon="10.7000881"><ele>56.0</ele><time>2026-04-18T07:28:44.455Z</time></trkpt><trkpt lat="43.5416653" lon="10.7001651"><ele>56.0</ele><time>2026-04-18T07:28:46.453Z</time></trkpt><trkpt lat="43.5417115" lon="10.7002381"><ele>55.99999999999999</ele><time>2026-04-18T07:28:47.434Z</time></trkpt><trkpt lat="43.5417397" lon="10.7003385"><ele>55.99999999999999</ele><time>2026-04-18T07:28:48.444Z</time></trkpt><trkpt lat="43.5417573" lon="10.7004609"><ele>56.0</ele><time>2026-04-18T07:28:49.433Z</time></trkpt><trkpt lat="43.5417748" lon="10.7006047"><ele>56.0</ele><time>2026-04-18T07:28:50.447Z</time></trkpt><trkpt lat="43.5417945" lon="10.7007503"><ele>56.0</ele><time>2026-04-18T07:28:51.457Z</time></trkpt><trkpt lat="43.5418169" lon="10.7009038"><ele>56.0</ele><time>2026-04-18T07:28:52.445Z</time></trkpt><trkpt lat="43.541848" lon="10.7010689"><ele>56.0</ele><time>2026-04-18T07:28:53.439Z</time></trkpt><trkpt lat="43.5418683" lon="10.7012475"><ele>56.0</ele><time>2026-04-18T07:28:54.449Z</time></trkpt><trkpt lat="43.5418968" lon="10.7014251"><ele>55.5</ele><time>2026-04-18T07:28:55.447Z</time></trkpt><trkpt lat="43.5419235" lon="10.701613"><ele>55.0</ele><time>2026-04-18T07:28:56.443Z</time></trkpt><trkpt lat="43.541951" lon="10.7018005"><ele>54.5</ele><time>2026-04-18T07:28:57.439Z</time></trkpt><trkpt lat="43.541978" lon="10.7019924"><ele>54.0</ele><time>2026-04-18T07:28:58.456Z</time></trkpt><trkpt lat="43.5420022" lon="10.7021812"><ele>54.0</ele><time>2026-04-18T07:28:59.447Z</time></trkpt><trkpt lat="43.5420256" lon="10.7023672"><ele>54.0</ele><time>2026-04-18T07:29:00.438Z</time></trkpt><trkpt lat="43.5420502" lon="10.7025478"><ele>54.0</ele><time>2026-04-18T07:29:01.441Z</time></trkpt><trkpt lat="43.5420735" lon="10.7027222"><ele>54.0</ele><time>2026-04-18T07:29:02.443Z</time></trkpt><trkpt lat="43.5420981" lon="10.7028889"><ele>53.400000000000006</ele><time>2026-04-18T07:29:03.446Z</time></trkpt><trkpt lat="43.5421205" lon="10.703048"><ele>52.800000000000004</ele><time>2026-04-18T07:29:04.443Z</time></trkpt><trkpt lat="43.5421408" lon="10.7032039"><ele>52.2</ele><time>2026-04-18T07:29:05.437Z</time></trkpt><trkpt lat="43.5421568" lon="10.7033478"><ele>51.599999999999994</ele><time>2026-04-18T07:29:06.446Z</time></trkpt><trkpt lat="43.542176" lon="10.7034929"><ele>51.0</ele><time>2026-04-18T07:29:07.438Z</time></trkpt><trkpt lat="43.5421909" lon="10.7036189"><ele>51.0</ele><time>2026-04-18T07:29:08.445Z</time></trkpt><trkpt lat="43.5422103" lon="10.7037422"><ele>51.0</ele><time>2026-04-18T07:29:09.442Z</time></trkpt><trkpt lat="43.5422275" lon="10.703861"><ele>51.0</ele><time>2026-04-18T07:29:10.447Z</time></trkpt><trkpt lat="43.5422446" lon="10.7039877"><ele>51.0</ele><time>2026-04-18T07:29:11.448Z</time></trkpt><trkpt lat="43.5422598" lon="10.7041193"><ele>51.0</ele><time>2026-04-18T07:29:12.451Z</time></trkpt><trkpt lat="43.5422791" lon="10.7042529"><ele>51.0</ele><time>2026-04-18T07:29:13.444Z</time></trkpt><trkpt lat="43.5422943" lon="10.7043891"><ele>51.0</ele><time>2026-04-18T07:29:14.441Z</time></trkpt><trkpt lat="43.542315" lon="10.7045334"><ele>51.0</ele><time>2026-04-18T07:29:15.451Z</time></trkpt><trkpt lat="43.5423352" lon="10.7046702"><ele>51.0</ele><time>2026-04-18T07:29:16.445Z</time></trkpt><trkpt lat="43.5423565" lon="10.7048056"><ele>51.0</ele><time>2026-04-18T07:29:17.444Z</time></trkpt><trkpt lat="43.5423761" lon="10.7049451"><ele>50.8</ele><time>2026-04-18T07:29:18.446Z</time></trkpt><trkpt lat="43.5423958" lon="10.7050796"><ele>50.599999999999994</ele><time>2026-04-18T07:29:19.442Z</time></trkpt><trkpt lat="43.5424134" lon="10.7052114"><ele>50.4</ele><time>2026-04-18T07:29:20.445Z</time></trkpt><trkpt lat="43.5424344" lon="10.7053484"><ele>50.2</ele><time>2026-04-18T07:29:21.445Z</time></trkpt><trkpt lat="43.5424514" lon="10.7054881"><ele>50.0</ele><time>2026-04-18T07:29:22.449Z</time></trkpt><trkpt lat="43.5424683" lon="10.7056246"><ele>50.0</ele><time>2026-04-18T07:29:23.456Z</time></trkpt><trkpt lat="43.5424829" lon="10.7057546"><ele>50.0</ele><time>2026-04-18T07:29:24.451Z</time></trkpt><trkpt lat="43.5425025" lon="10.7058864"><ele>50.0</ele><time>2026-04-18T07:29:25.472Z</time></trkpt><trkpt lat="43.5425223" lon="10.7060278"><ele>50.0</ele><time>2026-04-18T07:29:26.448Z</time></trkpt><trkpt lat="43.5425326" lon="10.7061636"><ele>50.0</ele><time>2026-04-18T07:29:27.445Z</time></trkpt><trkpt lat="43.5425457" lon="10.7062761"><ele>50.16666666666667</ele><time>2026-04-18T07:29:28.445Z</time></trkpt><trkpt lat="43.5425594" lon="10.7063822"><ele>50.333333333333336</ele><time>2026-04-18T07:29:29.465Z</time></trkpt><trkpt lat="43.5425704" lon="10.7064782"><ele>50.5</ele><time>2026-04-18T07:29:30.464Z</time></trkpt><trkpt lat="43.5425902" lon="10.7066259"><ele>50.66666666666667</ele><time>2026-04-18T07:29:32.435Z</time></trkpt><trkpt lat="43.5426115" lon="10.7067631"><ele>50.833333333333336</ele><time>2026-04-18T07:29:34.457Z</time></trkpt><trkpt lat="43.5426298" lon="10.7068543"><ele>51.0</ele><time>2026-04-18T07:29:35.434Z</time></trkpt><trkpt lat="43.5426454" lon="10.7069599"><ele>50.5</ele><time>2026-04-18T07:29:36.463Z</time></trkpt><trkpt lat="43.5426647" lon="10.7070932"><ele>50.0</ele><time>2026-04-18T07:29:37.448Z</time></trkpt><trkpt lat="43.5426859" lon="10.7072448"><ele>49.5</ele><time>2026-04-18T07:29:38.445Z</time></trkpt><trkpt lat="43.5427152" lon="10.7074215"><ele>49.0</ele><time>2026-04-18T07:29:39.449Z</time></trkpt><trkpt lat="43.5427375" lon="10.7076243"><ele>48.666666666666664</ele><time>2026-04-18T07:29:40.447Z</time></trkpt><trkpt lat="43.5427669" lon="10.7078201"><ele>48.33333333333333</ele><time>2026-04-18T07:29:41.425Z</time></trkpt><trkpt lat="43.542798" lon="10.7080225"><ele>48.0</ele><time>2026-04-18T07:29:42.446Z</time></trkpt><trkpt lat="43.5428257" lon="10.7082394"><ele>48.0</ele><time>2026-04-18T07:29:43.443Z</time></trkpt><trkpt lat="43.5428558" lon="10.7084618"><ele>48.0</ele><time>2026-04-18T07:29:44.448Z</time></trkpt><trkpt lat="43.5428909" lon="10.7086873"><ele>48.0</ele><time>2026-04-18T07:29:45.437Z</time></trkpt><trkpt lat="43.5429226" lon="10.7089156"><ele>48.0</ele><time>2026-04-18T07:29:46.448Z</time></trkpt><trkpt lat="43.5429556" lon="10.7091512"><ele>48.0</ele><time>2026-04-18T07:29:47.446Z</time></trkpt><trkpt lat="43.5429876" lon="10.7093874"><ele>48.0</ele><time>2026-04-18T07:29:48.435Z</time></trkpt><trkpt lat="43.5430231" lon="10.7096233"><ele>48.0</ele><time>2026-04-18T07:29:49.436Z</time></trkpt><trkpt lat="43.5430573" lon="10.7098542"><ele>48.0</ele><time>2026-04-18T07:29:50.438Z</time></trkpt><trkpt lat="43.5430928" lon="10.7100819"><ele>48.0</ele><time>2026-04-18T07:29:51.434Z</time></trkpt><trkpt lat="43.5431241" lon="10.7103105"><ele>47.0</ele><time>2026-04-18T07:29:52.448Z</time></trkpt><trkpt lat="43.5431588" lon="10.7105391"><ele>46.0</ele><time>2026-04-18T07:29:53.437Z</time></trkpt><trkpt lat="43.5431902" lon="10.7107703"><ele>45.0</ele><time>2026-04-18T07:29:54.441Z</time></trkpt><trkpt lat="43.5432176" lon="10.7109979"><ele>44.333333333333336</ele><time>2026-04-18T07:29:55.423Z</time></trkpt><trkpt lat="43.5432421" lon="10.7112156"><ele>43.66666666666667</ele><time>2026-04-18T07:29:56.438Z</time></trkpt><trkpt lat="43.5432707" lon="10.7114289"><ele>43.0</ele><time>2026-04-18T07:29:57.44Z</time></trkpt><trkpt lat="43.5433051" lon="10.7116402"><ele>43.0</ele><time>2026-04-18T07:29:58.444Z</time></trkpt><trkpt lat="43.5433337" lon="10.7118494"><ele>43.0</ele><time>2026-04-18T07:29:59.436Z</time></trkpt><trkpt lat="43.5433611" lon="10.7120573"><ele>43.0</ele><time>2026-04-18T07:30:00.443Z</time></trkpt><trkpt lat="43.5433922" lon="10.712266"><ele>43.0</ele><time>2026-04-18T07:30:01.44Z</time></trkpt><trkpt lat="43.5434121" lon="10.7124665"><ele>43.0</ele><time>2026-04-18T07:30:02.434Z</time></trkpt><trkpt lat="43.5434363" lon="10.7126615"><ele>43.0</ele><time>2026-04-18T07:30:03.431Z</time></trkpt><trkpt lat="43.5434533" lon="10.7128586"><ele>43.0</ele><time>2026-04-18T07:30:04.449Z</time></trkpt><trkpt lat="43.5434711" lon="10.713063"><ele>42.75</ele><time>2026-04-18T07:30:05.441Z</time></trkpt><trkpt lat="43.5435012" lon="10.7132597"><ele>42.5</ele><time>2026-04-18T07:30:06.45Z</time></trkpt><trkpt lat="43.5435298" lon="10.7134612"><ele>42.25</ele><time>2026-04-18T07:30:07.431Z</time></trkpt><trkpt lat="43.5435575" lon="10.7136589"><ele>42.0</ele><time>2026-04-18T07:30:08.452Z</time></trkpt><trkpt lat="43.5435845" lon="10.7138516"><ele>41.75</ele><time>2026-04-18T07:30:09.446Z</time></trkpt><trkpt lat="43.543613" lon="10.7140405"><ele>41.5</ele><time>2026-04-18T07:30:10.437Z</time></trkpt><trkpt lat="43.5436372" lon="10.7142262"><ele>41.25</ele><time>2026-04-18T07:30:11.424Z</time></trkpt><trkpt lat="43.5436634" lon="10.7144023"><ele>41.0</ele><time>2026-04-18T07:30:12.443Z</time></trkpt><trkpt lat="43.5436885" lon="10.7145617"><ele>41.83333333333333</ele><time>2026-04-18T07:30:13.444Z</time></trkpt><trkpt lat="43.5437111" lon="10.7146828"><ele>42.666666666666664</ele><time>2026-04-18T07:30:14.445Z</time></trkpt><trkpt lat="43.543731" lon="10.7147946"><ele>43.5</ele><time>2026-04-18T07:30:15.428Z</time></trkpt><trkpt lat="43.5437536" lon="10.7148854"><ele>44.333333333333336</ele><time>2026-04-18T07:30:16.447Z</time></trkpt><trkpt lat="43.5437724" lon="10.714969"><ele>45.16666666666667</ele><time>2026-04-18T07:30:17.436Z</time></trkpt><trkpt lat="43.5437968" lon="10.715087"><ele>46.0</ele><time>2026-04-18T07:30:19.444Z</time></trkpt><trkpt lat="43.5437561" lon="10.7151954"><ele>46.0</ele><time>2026-04-18T07:30:22.474Z</time></trkpt><trkpt lat="43.5436935" lon="10.7151786"><ele>46.0</ele><time>2026-04-18T07:30:24.452Z</time></trkpt><trkpt lat="43.5436615" lon="10.7150645"><ele>46.0</ele><time>2026-04-18T07:30:26.45Z</time></trkpt><trkpt lat="43.5436098" lon="10.7149017"><ele>46.0</ele><time>2026-04-18T07:30:28.454Z</time></trkpt><trkpt lat="43.5435846" lon="10.7147962"><ele>46.0</ele><time>2026-04-18T07:30:29.451Z</time></trkpt><trkpt lat="43.5435516" lon="10.7146864"><ele>46.0</ele><time>2026-04-18T07:30:30.451Z</time></trkpt><trkpt lat="43.5435137" lon="10.7145702"><ele>46.0</ele><time>2026-04-18T07:30:31.456Z</time></trkpt><trkpt lat="43.5434779" lon="10.7144437"><ele>46.0</ele><time>2026-04-18T07:30:32.447Z</time></trkpt><trkpt lat="43.543445" lon="10.714338"><ele>46.0</ele><time>2026-04-18T07:30:33.45Z</time></trkpt><trkpt lat="43.543402" lon="10.7142469"><ele>46.0</ele><time>2026-04-18T07:30:34.43Z</time></trkpt><trkpt lat="43.5433467" lon="10.7141716"><ele>46.0</ele><time>2026-04-18T07:30:35.426Z</time></trkpt><trkpt lat="43.5432808" lon="10.7140972"><ele>46.0</ele><time>2026-04-18T07:30:36.433Z</time></trkpt><trkpt lat="43.5432033" lon="10.714056"><ele>45.0</ele><time>2026-04-18T07:30:37.441Z</time></trkpt><trkpt lat="43.5431246" lon="10.7140224"><ele>44.0</ele><time>2026-04-18T07:30:38.445Z</time></trkpt><trkpt lat="43.5430474" lon="10.7139967"><ele>43.0</ele><time>2026-04-18T07:30:39.446Z</time></trkpt><trkpt lat="43.5429772" lon="10.7139817"><ele>42.0</ele><time>2026-04-18T07:30:40.455Z</time></trkpt><trkpt lat="43.5428696" lon="10.7139673"><ele>41.0</ele><time>2026-04-18T07:30:42.455Z</time></trkpt><trkpt lat="43.5427328" lon="10.7139775"><ele>41.0</ele><time>2026-04-18T07:30:44.442Z</time></trkpt><trkpt lat="43.5426607" lon="10.7139806"><ele>41.0</ele><time>2026-04-18T07:30:45.445Z</time></trkpt><trkpt lat="43.5425779" lon="10.7139866"><ele>41.0</ele><time>2026-04-18T07:30:46.449Z</time></trkpt><trkpt lat="43.542486" lon="10.7139914"><ele>41.0</ele><time>2026-04-18T07:30:47.455Z</time></trkpt><trkpt lat="43.5423951" lon="10.7140006"><ele>41.0</ele><time>2026-04-18T07:30:48.458Z</time></trkpt><trkpt lat="43.5423054" lon="10.7140138"><ele>41.0</ele><time>2026-04-18T07:30:49.468Z</time></trkpt><trkpt lat="43.5422143" lon="10.7140372"><ele>41.0</ele><time>2026-04-18T07:30:50.455Z</time></trkpt><trkpt lat="43.5421219" lon="10.7140621"><ele>41.0</ele><time>2026-04-18T07:30:51.429Z</time></trkpt><trkpt lat="43.542031" lon="10.714101"><ele>41.0</ele><time>2026-04-18T07:30:52.431Z</time></trkpt><trkpt lat="43.5419407" lon="10.7141284"><ele>41.0</ele><time>2026-04-18T07:30:53.437Z</time></trkpt><trkpt lat="43.5418542" lon="10.7141582"><ele>41.0</ele><time>2026-04-18T07:30:54.454Z</time></trkpt><trkpt lat="43.5417674" lon="10.7141878"><ele>40.8</ele><time>2026-04-18T07:30:55.445Z</time></trkpt><trkpt lat="43.5416874" lon="10.7142131"><ele>40.599999999999994</ele><time>2026-04-18T07:30:56.447Z</time></trkpt><trkpt lat="43.5416035" lon="10.7142437"><ele>40.4</ele><time>2026-04-18T07:30:57.442Z</time></trkpt><trkpt lat="43.5415149" lon="10.7142917"><ele>40.2</ele><time>2026-04-18T07:30:58.441Z</time></trkpt><trkpt lat="43.5414215" lon="10.7143305"><ele>40.0</ele><time>2026-04-18T07:30:59.461Z</time></trkpt><trkpt lat="43.5413304" lon="10.714371"><ele>40.66666666666667</ele><time>2026-04-18T07:31:00.453Z</time></trkpt><trkpt lat="43.5412436" lon="10.7144065"><ele>41.333333333333336</ele><time>2026-04-18T07:31:01.436Z</time></trkpt><trkpt lat="43.541161" lon="10.714435"><ele>42.0</ele><time>2026-04-18T07:31:02.45Z</time></trkpt><trkpt lat="43.5410783" lon="10.7144684"><ele>42.666666666666664</ele><time>2026-04-18T07:31:03.432Z</time></trkpt><trkpt lat="43.5409925" lon="10.7144875"><ele>43.33333333333333</ele><time>2026-04-18T07:31:04.451Z</time></trkpt><trkpt lat="43.5409115" lon="10.7144993"><ele>44.0</ele><time>2026-04-18T07:31:05.442Z</time></trkpt><trkpt lat="43.5408378" lon="10.7145043"><ele>44.33333333333333</ele><time>2026-04-18T07:31:06.443Z</time></trkpt><trkpt lat="43.5407625" lon="10.714494"><ele>44.666666666666664</ele><time>2026-04-18T07:31:07.442Z</time></trkpt><trkpt lat="43.5406904" lon="10.7144911"><ele>45.0</ele><time>2026-04-18T07:31:08.441Z</time></trkpt><trkpt lat="43.54062" lon="10.7145007"><ele>45.333333333333336</ele><time>2026-04-18T07:31:09.461Z</time></trkpt><trkpt lat="43.5405545" lon="10.714515"><ele>45.66666666666667</ele><time>2026-04-18T07:31:10.453Z</time></trkpt><trkpt lat="43.5404884" lon="10.7145198"><ele>46.0</ele><time>2026-04-18T07:31:11.444Z</time></trkpt><trkpt lat="43.5403719" lon="10.7145297"><ele>47.0</ele><time>2026-04-18T07:31:13.429Z</time></trkpt><trkpt lat="43.540267" lon="10.7145452"><ele>48.0</ele><time>2026-04-18T07:31:15.425Z</time></trkpt><trkpt lat="43.5401835" lon="10.7145235"><ele>49.0</ele><time>2026-04-18T07:31:17.427Z</time></trkpt><trkpt lat="43.5401181" lon="10.7145152"><ele>50.0</ele><time>2026-04-18T07:31:19.426Z</time></trkpt><trkpt lat="43.5400317" lon="10.7144906"><ele>50.99999999999999</ele><time>2026-04-18T07:31:22.445Z</time></trkpt><trkpt lat="43.5399641" lon="10.7144928"><ele>52.0</ele><time>2026-04-18T07:31:24.423Z</time></trkpt><trkpt lat="43.5398938" lon="10.7144752"><ele>51.99999999999999</ele><time>2026-04-18T07:31:26.435Z</time></trkpt><trkpt lat="43.5398225" lon="10.7144413"><ele>52.0</ele><time>2026-04-18T07:31:28.433Z</time></trkpt><trkpt lat="43.539727" lon="10.7144384"><ele>52.0</ele><time>2026-04-18T07:31:30.436Z</time></trkpt><trkpt lat="43.5396435" lon="10.7144396"><ele>52.0</ele><time>2026-04-18T07:31:32.432Z</time></trkpt><trkpt lat="43.5395589" lon="10.7144749"><ele>51.99999999999999</ele><time>2026-04-18T07:31:34.44Z</time></trkpt><trkpt lat="43.5394887" lon="10.7145491"><ele>52.0</ele><time>2026-04-18T07:31:36.436Z</time></trkpt><trkpt lat="43.5394455" lon="10.7146396"><ele>51.8</ele><time>2026-04-18T07:31:42.432Z</time></trkpt><trkpt lat="43.5393916" lon="10.7147496"><ele>51.6</ele><time>2026-04-18T07:31:44.437Z</time></trkpt><trkpt lat="43.5393225" lon="10.7148631"><ele>51.4</ele><time>2026-04-18T07:31:46.441Z</time></trkpt><trkpt lat="43.539238" lon="10.7149445"><ele>51.199999999999996</ele><time>2026-04-18T07:31:48.437Z</time></trkpt><trkpt lat="43.5391525" lon="10.714919"><ele>51.0</ele><time>2026-04-18T07:31:50.438Z</time></trkpt><trkpt lat="43.5391094" lon="10.7148268"><ele>51.0</ele><time>2026-04-18T07:31:52.441Z</time></trkpt><trkpt lat="43.5390787" lon="10.7146863"><ele>51.0</ele><time>2026-04-18T07:31:54.45Z</time></trkpt><trkpt lat="43.5390424" lon="10.7145509"><ele>51.0</ele><time>2026-04-18T07:31:56.445Z</time></trkpt><trkpt lat="43.5389713" lon="10.7144014"><ele>51.0</ele><time>2026-04-18T07:31:58.445Z</time></trkpt><trkpt lat="43.5389262" lon="10.7143301"><ele>51.0</ele><time>2026-04-18T07:31:59.434Z</time></trkpt><trkpt lat="43.5388732" lon="10.7142682"><ele>49.666666666666664</ele><time>2026-04-18T07:32:00.441Z</time></trkpt><trkpt lat="43.5388129" lon="10.7142163"><ele>48.333333333333336</ele><time>2026-04-18T07:32:01.446Z</time></trkpt><trkpt lat="43.5387328" lon="10.7141453"><ele>47.0</ele><time>2026-04-18T07:32:03.458Z</time></trkpt><trkpt lat="43.5386701" lon="10.7140776"><ele>45.66666666666667</ele><time>2026-04-18T07:32:05.439Z</time></trkpt><trkpt lat="43.538618" lon="10.7140101"><ele>44.333333333333336</ele><time>2026-04-18T07:32:07.441Z</time></trkpt><trkpt lat="43.5385544" lon="10.7139521"><ele>43.0</ele><time>2026-04-18T07:32:09.433Z</time></trkpt><trkpt lat="43.5384761" lon="10.7139214"><ele>43.0</ele><time>2026-04-18T07:32:11.435Z</time></trkpt><trkpt lat="43.5384148" lon="10.7138793"><ele>43.0</ele><time>2026-04-18T07:32:13.434Z</time></trkpt><trkpt lat="43.5383341" lon="10.7138127"><ele>43.0</ele><time>2026-04-18T07:32:16.428Z</time></trkpt><trkpt lat="43.5382919" lon="10.7137392"><ele>43.0</ele><time>2026-04-18T07:32:18.434Z</time></trkpt><trkpt lat="43.5382584" lon="10.7136412"><ele>43.0</ele><time>2026-04-18T07:32:20.437Z</time></trkpt><trkpt lat="43.5382476" lon="10.7135362"><ele>43.0</ele><time>2026-04-18T07:32:22.438Z</time></trkpt><trkpt lat="43.5382547" lon="10.7134431"><ele>42.833333333333336</ele><time>2026-04-18T07:32:24.427Z</time></trkpt><trkpt lat="43.538277" lon="10.7133495"><ele>42.66666666666667</ele><time>2026-04-18T07:32:26.46Z</time></trkpt><trkpt lat="43.5382869" lon="10.7132325"><ele>42.5</ele><time>2026-04-18T07:32:29.428Z</time></trkpt><trkpt lat="43.5382377" lon="10.713144"><ele>42.333333333333336</ele><time>2026-04-18T07:32:32.461Z</time></trkpt><trkpt lat="43.5381704" lon="10.7130901"><ele>42.166666666666664</ele><time>2026-04-18T07:32:34.447Z</time></trkpt><trkpt lat="43.5380946" lon="10.7130128"><ele>42.0</ele><time>2026-04-18T07:32:36.45Z</time></trkpt><trkpt lat="43.5380173" lon="10.7129387"><ele>42.0</ele><time>2026-04-18T07:32:38.438Z</time></trkpt><trkpt lat="43.537952" lon="10.712853"><ele>42.0</ele><time>2026-04-18T07:32:40.442Z</time></trkpt><trkpt lat="43.5378982" lon="10.7127605"><ele>42.0</ele><time>2026-04-18T07:32:42.452Z</time></trkpt><trkpt lat="43.5378275" lon="10.7126852"><ele>42.0</ele><time>2026-04-18T07:32:44.435Z</time></trkpt><trkpt lat="43.5377535" lon="10.7126177"><ele>42.0</ele><time>2026-04-18T07:32:46.427Z</time></trkpt><trkpt lat="43.5376907" lon="10.712567"><ele>42.0</ele><time>2026-04-18T07:32:48.426Z</time></trkpt><trkpt lat="43.5376033" lon="10.7125192"><ele>42.0</ele><time>2026-04-18T07:32:50.439Z</time></trkpt><trkpt lat="43.5375391" lon="10.7124473"><ele>42.0</ele><time>2026-04-18T07:32:52.417Z</time></trkpt><trkpt lat="43.5374886" lon="10.7123621"><ele>42.0</ele><time>2026-04-18T07:32:54.428Z</time></trkpt><trkpt lat="43.5374509" lon="10.7122697"><ele>42.0</ele><time>2026-04-18T07:32:56.435Z</time></trkpt><trkpt lat="43.5373885" lon="10.7121939"><ele>42.0</ele><time>2026-04-18T07:32:58.436Z</time></trkpt><trkpt lat="43.5372927" lon="10.7121245"><ele>42.0</ele><time>2026-04-18T07:33:00.442Z</time></trkpt><trkpt lat="43.5372292" lon="10.7120731"><ele>42.0</ele><time>2026-04-18T07:33:01.427Z</time></trkpt><trkpt lat="43.5371735" lon="10.712023"><ele>42.0</ele><time>2026-04-18T07:33:02.434Z</time></trkpt><trkpt lat="43.5371056" lon="10.7119715"><ele>42.0</ele><time>2026-04-18T07:33:03.454Z</time></trkpt><trkpt lat="43.5370401" lon="10.7119425"><ele>42.0</ele><time>2026-04-18T07:33:04.442Z</time></trkpt><trkpt lat="43.5369289" lon="10.7118809"><ele>42.0</ele><time>2026-04-18T07:33:06.433Z</time></trkpt><trkpt lat="43.5368038" lon="10.7118358"><ele>42.0</ele><time>2026-04-18T07:33:08.43Z</time></trkpt><trkpt lat="43.5367415" lon="10.7118148"><ele>42.0</ele><time>2026-04-18T07:33:09.421Z</time></trkpt><trkpt lat="43.5366787" lon="10.7117992"><ele>42.0</ele><time>2026-04-18T07:33:10.44Z</time></trkpt><trkpt lat="43.5366151" lon="10.7117826"><ele>42.0</ele><time>2026-04-18T07:33:11.437Z</time></trkpt><trkpt lat="43.5364949" lon="10.7117527"><ele>42.0</ele><time>2026-04-18T07:33:13.443Z</time></trkpt><trkpt lat="43.5363755" lon="10.7117242"><ele>42.0</ele><time>2026-04-18T07:33:15.439Z</time></trkpt><trkpt lat="43.5362669" lon="10.7117016"><ele>41.8</ele><time>2026-04-18T07:33:17.438Z</time></trkpt><trkpt lat="43.5361596" lon="10.7116808"><ele>41.6</ele><time>2026-04-18T07:33:19.44Z</time></trkpt><trkpt lat="43.5360508" lon="10.7116625"><ele>41.4</ele><time>2026-04-18T07:33:21.451Z</time></trkpt><trkpt lat="43.5359472" lon="10.7116526"><ele>41.199999999999996</ele><time>2026-04-18T07:33:23.453Z</time></trkpt><trkpt lat="43.5358394" lon="10.7116368"><ele>41.0</ele><time>2026-04-18T07:33:25.438Z</time></trkpt><trkpt lat="43.5357256" lon="10.7115948"><ele>41.0</ele><time>2026-04-18T07:33:27.44Z</time></trkpt><trkpt lat="43.5356276" lon="10.7115508"><ele>41.0</ele><time>2026-04-18T07:33:29.44Z</time></trkpt><trkpt lat="43.535534" lon="10.7114907"><ele>41.0</ele><time>2026-04-18T07:33:31.444Z</time></trkpt><trkpt lat="43.5354398" lon="10.711447"><ele>41.0</ele><time>2026-04-18T07:33:33.449Z</time></trkpt><trkpt lat="43.535339" lon="10.7114077"><ele>41.0</ele><time>2026-04-18T07:33:35.453Z</time></trkpt><trkpt lat="43.5352358" lon="10.7113655"><ele>41.199999999999996</ele><time>2026-04-18T07:33:37.443Z</time></trkpt><trkpt lat="43.5351383" lon="10.7113248"><ele>41.4</ele><time>2026-04-18T07:33:39.45Z</time></trkpt><trkpt lat="43.5350356" lon="10.7112731"><ele>41.6</ele><time>2026-04-18T07:33:41.448Z</time></trkpt><trkpt lat="43.5349468" lon="10.7112228"><ele>41.8</ele><time>2026-04-18T07:33:43.444Z</time></trkpt><trkpt lat="43.5348548" lon="10.7111875"><ele>42.0</ele><time>2026-04-18T07:33:45.44Z</time></trkpt><trkpt lat="43.5347582" lon="10.7111528"><ele>42.0</ele><time>2026-04-18T07:33:47.431Z</time></trkpt><trkpt lat="43.5346737" lon="10.7111044"><ele>42.0</ele><time>2026-04-18T07:33:49.437Z</time></trkpt><trkpt lat="43.5345779" lon="10.7110435"><ele>42.0</ele><time>2026-04-18T07:33:51.439Z</time></trkpt><trkpt lat="43.5344858" lon="10.7109792"><ele>42.0</ele><time>2026-04-18T07:33:53.441Z</time></trkpt><trkpt lat="43.5344165" lon="10.7109159"><ele>42.0</ele><time>2026-04-18T07:33:55.44Z</time></trkpt><trkpt lat="43.5343361" lon="10.7108717"><ele>42.0</ele><time>2026-04-18T07:33:57.435Z</time></trkpt><trkpt lat="43.5342623" lon="10.7109095"><ele>42.0</ele><time>2026-04-18T07:33:59.425Z</time></trkpt><trkpt lat="43.5342017" lon="10.7110374"><ele>42.0</ele><time>2026-04-18T07:34:01.419Z</time></trkpt><trkpt lat="43.5341881" lon="10.7111386"><ele>42.0</ele><time>2026-04-18T07:34:02.439Z</time></trkpt><trkpt lat="43.5341627" lon="10.7112449"><ele>42.0</ele><time>2026-04-18T07:34:03.434Z</time></trkpt><trkpt lat="43.5341368" lon="10.7113266"><ele>42.0</ele><time>2026-04-18T07:34:04.435Z</time></trkpt><trkpt lat="43.5341205" lon="10.7114174"><ele>41.8</ele><time>2026-04-18T07:34:05.432Z</time></trkpt><trkpt lat="43.5340987" lon="10.7115095"><ele>41.6</ele><time>2026-04-18T07:34:06.43Z</time></trkpt><trkpt lat="43.5340737" lon="10.7115954"><ele>41.4</ele><time>2026-04-18T07:34:07.427Z</time></trkpt><trkpt lat="43.534" lon="10.71172"><ele>41.199999999999996</ele><time>2026-04-18T07:34:09.443Z</time></trkpt><trkpt lat="43.5339365" lon="10.7117392"><ele>41.0</ele><time>2026-04-18T07:34:10.429Z</time></trkpt><trkpt lat="43.5338051" lon="10.7117602"><ele>41.0</ele><time>2026-04-18T07:34:12.447Z</time></trkpt><trkpt lat="43.5337292" lon="10.7117736"><ele>41.0</ele><time>2026-04-18T07:34:13.426Z</time></trkpt><trkpt lat="43.5336606" lon="10.711807"><ele>41.0</ele><time>2026-04-18T07:34:14.447Z</time></trkpt><trkpt lat="43.533591" lon="10.7118368"><ele>41.0</ele><time>2026-04-18T07:34:15.433Z</time></trkpt><trkpt lat="43.533513" lon="10.711874"><ele>41.0</ele><time>2026-04-18T07:34:16.44Z</time></trkpt><trkpt lat="43.5334323" lon="10.7119051"><ele>41.0</ele><time>2026-04-18T07:34:17.44Z</time></trkpt><trkpt lat="43.533348" lon="10.7119405"><ele>41.8</ele><time>2026-04-18T07:34:18.451Z</time></trkpt><trkpt lat="43.533264" lon="10.7119774"><ele>42.599999999999994</ele><time>2026-04-18T07:34:19.445Z</time></trkpt><trkpt lat="43.5331766" lon="10.7120137"><ele>43.4</ele><time>2026-04-18T07:34:20.451Z</time></trkpt><trkpt lat="43.5330877" lon="10.7120488"><ele>44.2</ele><time>2026-04-18T07:34:21.442Z</time></trkpt><trkpt lat="43.5329956" lon="10.7120894"><ele>45.0</ele><time>2026-04-18T07:34:22.455Z</time></trkpt><trkpt lat="43.5328965" lon="10.7121272"><ele>44.8</ele><time>2026-04-18T07:34:23.453Z</time></trkpt><trkpt lat="43.5327946" lon="10.7121691"><ele>44.6</ele><time>2026-04-18T07:34:24.459Z</time></trkpt><trkpt lat="43.5326971" lon="10.7122033"><ele>44.400000000000006</ele><time>2026-04-18T07:34:25.442Z</time></trkpt><trkpt lat="43.5326039" lon="10.7122362"><ele>44.2</ele><time>2026-04-18T07:34:26.444Z</time></trkpt><trkpt lat="43.5325122" lon="10.7122707"><ele>44.0</ele><time>2026-04-18T07:34:27.448Z</time></trkpt><trkpt lat="43.5324236" lon="10.7123031"><ele>44.0</ele><time>2026-04-18T07:34:28.438Z</time></trkpt><trkpt lat="43.5323294" lon="10.7123436"><ele>44.0</ele><time>2026-04-18T07:34:29.446Z</time></trkpt><trkpt lat="43.5322367" lon="10.7123771"><ele>44.0</ele><time>2026-04-18T07:34:30.44Z</time></trkpt><trkpt lat="43.532143" lon="10.7124142"><ele>44.0</ele><time>2026-04-18T07:34:31.436Z</time></trkpt><trkpt lat="43.5320515" lon="10.7124548"><ele>44.0</ele><time>2026-04-18T07:34:32.436Z</time></trkpt><trkpt lat="43.5319586" lon="10.7124955"><ele>43.6</ele><time>2026-04-18T07:34:33.436Z</time></trkpt><trkpt lat="43.5318672" lon="10.7125289"><ele>43.2</ele><time>2026-04-18T07:34:34.445Z</time></trkpt><trkpt lat="43.5317769" lon="10.7125632"><ele>42.800000000000004</ele><time>2026-04-18T07:34:35.438Z</time></trkpt><trkpt lat="43.5316882" lon="10.7126046"><ele>42.400000000000006</ele><time>2026-04-18T07:34:36.44Z</time></trkpt><trkpt lat="43.5315981" lon="10.7126462"><ele>42.0</ele><time>2026-04-18T07:34:37.445Z</time></trkpt><trkpt lat="43.5315148" lon="10.7126864"><ele>42.0</ele><time>2026-04-18T07:34:38.443Z</time></trkpt><trkpt lat="43.5314338" lon="10.7127144"><ele>42.0</ele><time>2026-04-18T07:34:39.438Z</time></trkpt><trkpt lat="43.5313528" lon="10.7127401"><ele>42.0</ele><time>2026-04-18T07:34:40.443Z</time></trkpt><trkpt lat="43.5312829" lon="10.7127697"><ele>42.0</ele><time>2026-04-18T07:34:41.443Z</time></trkpt><trkpt lat="43.5311768" lon="10.7128186"><ele>42.0</ele><time>2026-04-18T07:34:43.445Z</time></trkpt><trkpt lat="43.5311161" lon="10.7128431"><ele>42.0</ele><time>2026-04-18T07:34:44.448Z</time></trkpt><trkpt lat="43.5310493" lon="10.7128613"><ele>42.166666666666664</ele><time>2026-04-18T07:34:45.458Z</time></trkpt><trkpt lat="43.530971" lon="10.7128912"><ele>42.333333333333336</ele><time>2026-04-18T07:34:46.445Z</time></trkpt><trkpt lat="43.5308822" lon="10.7129323"><ele>42.5</ele><time>2026-04-18T07:34:47.442Z</time></trkpt><trkpt lat="43.5307965" lon="10.7129754"><ele>42.66666666666667</ele><time>2026-04-18T07:34:48.441Z</time></trkpt><trkpt lat="43.5307111" lon="10.713013"><ele>42.833333333333336</ele><time>2026-04-18T07:34:49.441Z</time></trkpt><trkpt lat="43.5306269" lon="10.7130499"><ele>43.0</ele><time>2026-04-18T07:34:50.443Z</time></trkpt><trkpt lat="43.5305432" lon="10.7130841"><ele>43.0</ele><time>2026-04-18T07:34:51.455Z</time></trkpt><trkpt lat="43.5304604" lon="10.7131178"><ele>43.0</ele><time>2026-04-18T07:34:52.455Z</time></trkpt><trkpt lat="43.5303736" lon="10.7131544"><ele>43.0</ele><time>2026-04-18T07:34:53.443Z</time></trkpt><trkpt lat="43.530289" lon="10.713185"><ele>43.0</ele><time>2026-04-18T07:34:54.446Z</time></trkpt><trkpt lat="43.5302062" lon="10.7132098"><ele>43.0</ele><time>2026-04-18T07:34:55.457Z</time></trkpt><trkpt lat="43.5301229" lon="10.7132471"><ele>43.0</ele><time>2026-04-18T07:34:56.45Z</time></trkpt><trkpt lat="43.5300383" lon="10.7132803"><ele>43.2</ele><time>2026-04-18T07:34:57.443Z</time></trkpt><trkpt lat="43.5299543" lon="10.7133194"><ele>43.4</ele><time>2026-04-18T07:34:58.445Z</time></trkpt><trkpt lat="43.5298704" lon="10.7133502"><ele>43.6</ele><time>2026-04-18T07:34:59.454Z</time></trkpt><trkpt lat="43.5297844" lon="10.7133881"><ele>43.800000000000004</ele><time>2026-04-18T07:35:00.441Z</time></trkpt><trkpt lat="43.5296948" lon="10.7134238"><ele>44.0</ele><time>2026-04-18T07:35:01.436Z</time></trkpt><trkpt lat="43.5296009" lon="10.713462"><ele>44.2</ele><time>2026-04-18T07:35:02.453Z</time></trkpt><trkpt lat="43.5295077" lon="10.7134989"><ele>44.400000000000006</ele><time>2026-04-18T07:35:03.444Z</time></trkpt><trkpt lat="43.5294213" lon="10.7135351"><ele>44.6</ele><time>2026-04-18T07:35:04.452Z</time></trkpt><trkpt lat="43.5293453" lon="10.7135662"><ele>44.8</ele><time>2026-04-18T07:35:05.451Z</time></trkpt><trkpt lat="43.5292488" lon="10.7135979"><ele>45.0</ele><time>2026-04-18T07:35:07.442Z</time></trkpt><trkpt lat="43.5291627" lon="10.7136406"><ele>45.0</ele><time>2026-04-18T07:35:09.445Z</time></trkpt><trkpt lat="43.5290574" lon="10.7136729"><ele>45.0</ele><time>2026-04-18T07:35:11.433Z</time></trkpt><trkpt lat="43.5289488" lon="10.7137041"><ele>45.0</ele><time>2026-04-18T07:35:13.448Z</time></trkpt><trkpt lat="43.5288464" lon="10.7137619"><ele>45.0</ele><time>2026-04-18T07:35:15.446Z</time></trkpt><trkpt lat="43.528786" lon="10.7137895"><ele>45.0</ele><time>2026-04-18T07:35:16.434Z</time></trkpt><trkpt lat="43.5287095" lon="10.7138122"><ele>45.0</ele><time>2026-04-18T07:35:17.439Z</time></trkpt><trkpt lat="43.5286196" lon="10.7138451"><ele>45.0</ele><time>2026-04-18T07:35:18.436Z</time></trkpt><trkpt lat="43.5285126" lon="10.7138842"><ele>45.0</ele><time>2026-04-18T07:35:19.441Z</time></trkpt><trkpt lat="43.5284034" lon="10.7139232"><ele>45.0</ele><time>2026-04-18T07:35:20.444Z</time></trkpt><trkpt lat="43.5282962" lon="10.7139734"><ele>45.0</ele><time>2026-04-18T07:35:21.44Z</time></trkpt><trkpt lat="43.5281772" lon="10.7140185"><ele>45.0</ele><time>2026-04-18T07:35:22.439Z</time></trkpt><trkpt lat="43.528054" lon="10.7140663"><ele>45.0</ele><time>2026-04-18T07:35:23.434Z</time></trkpt><trkpt lat="43.5279203" lon="10.7141172"><ele>45.0</ele><time>2026-04-18T07:35:24.444Z</time></trkpt><trkpt lat="43.5277894" lon="10.7141684"><ele>45.0</ele><time>2026-04-18T07:35:25.446Z</time></trkpt><trkpt lat="43.5276619" lon="10.7142198"><ele>45.0</ele><time>2026-04-18T07:35:26.444Z</time></trkpt><trkpt lat="43.5275303" lon="10.7142783"><ele>45.0</ele><time>2026-04-18T07:35:27.453Z</time></trkpt><trkpt lat="43.5273829" lon="10.7143424"><ele>45.0</ele><time>2026-04-18T07:35:28.443Z</time></trkpt><trkpt lat="43.5272298" lon="10.7144028"><ele>46.75</ele><time>2026-04-18T07:35:29.442Z</time></trkpt><trkpt lat="43.5270841" lon="10.7144675"><ele>48.5</ele><time>2026-04-18T07:35:30.445Z</time></trkpt><trkpt lat="43.5269453" lon="10.7145248"><ele>50.25</ele><time>2026-04-18T07:35:31.441Z</time></trkpt><trkpt lat="43.5268151" lon="10.7145763"><ele>52.0</ele><time>2026-04-18T07:35:32.437Z</time></trkpt><trkpt lat="43.5266885" lon="10.7146296"><ele>52.0</ele><time>2026-04-18T07:35:33.448Z</time></trkpt><trkpt lat="43.5265662" lon="10.7146777"><ele>52.0</ele><time>2026-04-18T07:35:34.444Z</time></trkpt><trkpt lat="43.526454" lon="10.7147217"><ele>52.0</ele><time>2026-04-18T07:35:35.443Z</time></trkpt><trkpt lat="43.5263441" lon="10.7147628"><ele>52.0</ele><time>2026-04-18T07:35:36.446Z</time></trkpt><trkpt lat="43.5262322" lon="10.7148118"><ele>50.5</ele><time>2026-04-18T07:35:37.441Z</time></trkpt><trkpt lat="43.5261184" lon="10.7148583"><ele>49.0</ele><time>2026-04-18T07:35:38.439Z</time></trkpt><trkpt lat="43.5260042" lon="10.7148987"><ele>47.5</ele><time>2026-04-18T07:35:39.447Z</time></trkpt><trkpt lat="43.5258965" lon="10.7149384"><ele>46.0</ele><time>2026-04-18T07:35:40.448Z</time></trkpt><trkpt lat="43.5257883" lon="10.714982"><ele>46.0</ele><time>2026-04-18T07:35:41.436Z</time></trkpt><trkpt lat="43.5256806" lon="10.7150248"><ele>46.0</ele><time>2026-04-18T07:35:42.447Z</time></trkpt><trkpt lat="43.525574" lon="10.7150662"><ele>46.0</ele><time>2026-04-18T07:35:43.431Z</time></trkpt><trkpt lat="43.5254756" lon="10.7151074"><ele>46.0</ele><time>2026-04-18T07:35:44.45Z</time></trkpt><trkpt lat="43.525381" lon="10.7151547"><ele>46.0</ele><time>2026-04-18T07:35:45.451Z</time></trkpt><trkpt lat="43.5252881" lon="10.7151974"><ele>46.333333333333336</ele><time>2026-04-18T07:35:46.449Z</time></trkpt><trkpt lat="43.5251922" lon="10.71524"><ele>46.66666666666667</ele><time>2026-04-18T07:35:47.45Z</time></trkpt><trkpt lat="43.5250964" lon="10.7152857"><ele>47.0</ele><time>2026-04-18T07:35:48.439Z</time></trkpt><trkpt lat="43.5250125" lon="10.7153142"><ele>47.333333333333336</ele><time>2026-04-18T07:35:49.441Z</time></trkpt><trkpt lat="43.5249359" lon="10.7153455"><ele>47.666666666666664</ele><time>2026-04-18T07:35:50.449Z</time></trkpt><trkpt lat="43.5248722" lon="10.7153561"><ele>48.0</ele><time>2026-04-18T07:35:51.441Z</time></trkpt><trkpt lat="43.5247511" lon="10.7153962"><ele>48.0</ele><time>2026-04-18T07:35:53.45Z</time></trkpt><trkpt lat="43.524656" lon="10.7155071"><ele>48.0</ele><time>2026-04-18T07:35:55.432Z</time></trkpt><trkpt lat="43.5246195" lon="10.7155896"><ele>48.0</ele><time>2026-04-18T07:35:56.447Z</time></trkpt><trkpt lat="43.5246007" lon="10.7157196"><ele>48.0</ele><time>2026-04-18T07:35:58.439Z</time></trkpt><trkpt lat="43.5245964" lon="10.7158132"><ele>48.0</ele><time>2026-04-18T07:36:13.438Z</time></trkpt><trkpt lat="43.5245988" lon="10.7159118"><ele>48.0</ele><time>2026-04-18T07:36:20.442Z</time></trkpt><trkpt lat="43.5245881" lon="10.7160038"><ele>48.833333333333336</ele><time>2026-04-18T07:36:24.444Z</time></trkpt><trkpt lat="43.5245868" lon="10.7161087"><ele>49.66666666666667</ele><time>2026-04-18T07:36:28.446Z</time></trkpt><trkpt lat="43.5245874" lon="10.7162043"><ele>50.5</ele><time>2026-04-18T07:36:31.452Z</time></trkpt><trkpt lat="43.5245823" lon="10.7163352"><ele>51.333333333333336</ele><time>2026-04-18T07:36:34.443Z</time></trkpt><trkpt lat="43.5245794" lon="10.7164391"><ele>52.16666666666667</ele><time>2026-04-18T07:36:36.444Z</time></trkpt><trkpt lat="43.5245737" lon="10.7165449"><ele>53.0</ele><time>2026-04-18T07:36:38.453Z</time></trkpt><trkpt lat="43.524563" lon="10.7166441"><ele>51.50000000000001</ele><time>2026-04-18T07:36:40.44Z</time></trkpt><trkpt lat="43.5245279" lon="10.7167537"><ele>50.0</ele><time>2026-04-18T07:36:42.452Z</time></trkpt><trkpt lat="43.5245016" lon="10.7168506"><ele>48.5</ele><time>2026-04-18T07:36:44.442Z</time></trkpt><trkpt lat="43.5244656" lon="10.7169715"><ele>47.0</ele><time>2026-04-18T07:36:46.439Z</time></trkpt><trkpt lat="43.5244258" lon="10.717084"><ele>45.5</ele><time>2026-04-18T07:36:48.433Z</time></trkpt><trkpt lat="43.5243865" lon="10.7171977"><ele>44.0</ele><time>2026-04-18T07:36:50.442Z</time></trkpt><trkpt lat="43.5243454" lon="10.7173193"><ele>44.0</ele><time>2026-04-18T07:36:52.454Z</time></trkpt><trkpt lat="43.5242973" lon="10.7174911"><ele>44.0</ele><time>2026-04-18T07:36:54.435Z</time></trkpt><trkpt lat="43.524273" lon="10.7175933"><ele>44.0</ele><time>2026-04-18T07:36:55.444Z</time></trkpt><trkpt lat="43.5242456" lon="10.7176868"><ele>44.0</ele><time>2026-04-18T07:36:56.448Z</time></trkpt><trkpt lat="43.5242192" lon="10.7177769"><ele>44.0</ele><time>2026-04-18T07:36:57.441Z</time></trkpt><trkpt lat="43.5241943" lon="10.7178678"><ele>44.0</ele><time>2026-04-18T07:36:58.441Z</time></trkpt><trkpt lat="43.5241709" lon="10.7179586"><ele>44.6</ele><time>2026-04-18T07:36:59.438Z</time></trkpt><trkpt lat="43.524147" lon="10.7180442"><ele>45.2</ele><time>2026-04-18T07:37:00.439Z</time></trkpt><trkpt lat="43.5241097" lon="10.7181898"><ele>45.800000000000004</ele><time>2026-04-18T07:37:02.437Z</time></trkpt><trkpt lat="43.5240629" lon="10.7183411"><ele>46.400000000000006</ele><time>2026-04-18T07:37:04.44Z</time></trkpt><trkpt lat="43.5240251" lon="10.7184801"><ele>47.0</ele><time>2026-04-18T07:37:06.437Z</time></trkpt><trkpt lat="43.5239831" lon="10.7186318"><ele>47.166666666666664</ele><time>2026-04-18T07:37:08.447Z</time></trkpt><trkpt lat="43.5239365" lon="10.7187835"><ele>47.33333333333333</ele><time>2026-04-18T07:37:10.44Z</time></trkpt><trkpt lat="43.5238924" lon="10.7189084"><ele>47.5</ele><time>2026-04-18T07:37:12.446Z</time></trkpt><trkpt lat="43.5238604" lon="10.7190073"><ele>47.666666666666664</ele><time>2026-04-18T07:37:14.444Z</time></trkpt><trkpt lat="43.5238361" lon="10.7190906"><ele>47.833333333333336</ele><time>2026-04-18T07:37:16.457Z</time></trkpt><trkpt lat="43.5238192" lon="10.7191789"><ele>48.0</ele><time>2026-04-18T07:37:20.448Z</time></trkpt><trkpt lat="43.5238103" lon="10.7192731"><ele>48.0</ele><time>2026-04-18T07:37:36.451Z</time></trkpt><trkpt lat="43.5237624" lon="10.7193328"><ele>48.0</ele><time>2026-04-18T07:38:15.438Z</time></trkpt><trkpt lat="43.5237443" lon="10.7194328"><ele>48.0</ele><time>2026-04-18T07:38:22.435Z</time></trkpt><trkpt lat="43.5237132" lon="10.7195368"><ele>48.0</ele><time>2026-04-18T07:38:25.441Z</time></trkpt><trkpt lat="43.5236781" lon="10.7196629"><ele>48.0</ele><time>2026-04-18T07:38:27.429Z</time></trkpt><trkpt lat="43.5236648" lon="10.7197741"><ele>48.0</ele><time>2026-04-18T07:38:28.422Z</time></trkpt><trkpt lat="43.5236371" lon="10.7198637"><ele>47.666666666666664</ele><time>2026-04-18T07:38:29.422Z</time></trkpt><trkpt lat="43.5235651" lon="10.7200129"><ele>47.333333333333336</ele><time>2026-04-18T07:38:31.438Z</time></trkpt><trkpt lat="43.5235296" lon="10.7200857"><ele>47.0</ele><time>2026-04-18T07:38:32.452Z</time></trkpt><trkpt lat="43.5234952" lon="10.7201656"><ele>46.66666666666667</ele><time>2026-04-18T07:38:33.434Z</time></trkpt><trkpt lat="43.5234575" lon="10.7202475"><ele>46.333333333333336</ele><time>2026-04-18T07:38:34.453Z</time></trkpt><trkpt lat="43.5234272" lon="10.7203453"><ele>46.0</ele><time>2026-04-18T07:38:35.44Z</time></trkpt><trkpt lat="43.5233907" lon="10.7204611"><ele>46.0</ele><time>2026-04-18T07:38:36.433Z</time></trkpt><trkpt lat="43.5233601" lon="10.7205891"><ele>46.0</ele><time>2026-04-18T07:38:37.444Z</time></trkpt><trkpt lat="43.5233361" lon="10.7207057"><ele>46.0</ele><time>2026-04-18T07:38:38.444Z</time></trkpt><trkpt lat="43.5233146" lon="10.7208234"><ele>46.0</ele><time>2026-04-18T07:38:39.439Z</time></trkpt><trkpt lat="43.5232921" lon="10.7209515"><ele>46.0</ele><time>2026-04-18T07:38:40.436Z</time></trkpt><trkpt lat="43.5232605" lon="10.7210779"><ele>46.0</ele><time>2026-04-18T07:38:41.435Z</time></trkpt><trkpt lat="43.5232281" lon="10.7212073"><ele>46.0</ele><time>2026-04-18T07:38:42.452Z</time></trkpt><trkpt lat="43.5231884" lon="10.7213264"><ele>46.0</ele><time>2026-04-18T07:38:43.448Z</time></trkpt><trkpt lat="43.5231289" lon="10.7214511"><ele>46.0</ele><time>2026-04-18T07:38:44.44Z</time></trkpt><trkpt lat="43.5230728" lon="10.7215581"><ele>46.0</ele><time>2026-04-18T07:38:45.441Z</time></trkpt><trkpt lat="43.5230248" lon="10.7216555"><ele>46.0</ele><time>2026-04-18T07:38:46.443Z</time></trkpt><trkpt lat="43.5229695" lon="10.7217512"><ele>46.0</ele><time>2026-04-18T07:38:47.457Z</time></trkpt><trkpt lat="43.5229184" lon="10.7218494"><ele>46.0</ele><time>2026-04-18T07:38:48.454Z</time></trkpt><trkpt lat="43.5228693" lon="10.7219313"><ele>46.0</ele><time>2026-04-18T07:38:49.45Z</time></trkpt><trkpt lat="43.5228185" lon="10.7220114"><ele>46.0</ele><time>2026-04-18T07:38:50.428Z</time></trkpt><trkpt lat="43.5227749" lon="10.7220866"><ele>46.0</ele><time>2026-04-18T07:38:51.446Z</time></trkpt><trkpt lat="43.5227356" lon="10.7221686"><ele>46.66666666666667</ele><time>2026-04-18T07:38:52.448Z</time></trkpt><trkpt lat="43.5226654" lon="10.7222778"><ele>47.333333333333336</ele><time>2026-04-18T07:38:54.439Z</time></trkpt><trkpt lat="43.5225653" lon="10.7223788"><ele>48.0</ele><time>2026-04-18T07:38:56.453Z</time></trkpt><trkpt lat="43.5225039" lon="10.7224322"><ele>48.66666666666667</ele><time>2026-04-18T07:38:57.432Z</time></trkpt><trkpt lat="43.5224542" lon="10.7224902"><ele>49.333333333333336</ele><time>2026-04-18T07:38:58.434Z</time></trkpt><trkpt lat="43.5223944" lon="10.7225392"><ele>50.0</ele><time>2026-04-18T07:38:59.439Z</time></trkpt><trkpt lat="43.5223389" lon="10.7225928"><ele>50.00000000000001</ele><time>2026-04-18T07:39:00.439Z</time></trkpt><trkpt lat="43.5222921" lon="10.7226522"><ele>50.0</ele><time>2026-04-18T07:39:01.428Z</time></trkpt><trkpt lat="43.5222078" lon="10.7227327"><ele>50.0</ele><time>2026-04-18T07:39:03.429Z</time></trkpt><trkpt lat="43.5221354" lon="10.722786"><ele>50.0</ele><time>2026-04-18T07:39:05.441Z</time></trkpt><trkpt lat="43.5220622" lon="10.7228496"><ele>50.00000000000001</ele><time>2026-04-18T07:39:07.435Z</time></trkpt><trkpt lat="43.5219849" lon="10.7229112"><ele>50.0</ele><time>2026-04-18T07:39:09.433Z</time></trkpt><trkpt lat="43.5219027" lon="10.7229808"><ele>50.0</ele><time>2026-04-18T07:39:11.428Z</time></trkpt><trkpt lat="43.521822" lon="10.7230501"><ele>50.0</ele><time>2026-04-18T07:39:13.437Z</time></trkpt><trkpt lat="43.5217378" lon="10.7231174"><ele>50.0</ele><time>2026-04-18T07:39:15.423Z</time></trkpt><trkpt lat="43.5216421" lon="10.723196"><ele>50.0</ele><time>2026-04-18T07:39:17.439Z</time></trkpt><trkpt lat="43.521544" lon="10.7233088"><ele>50.0</ele><time>2026-04-18T07:39:19.447Z</time></trkpt><trkpt lat="43.5214884" lon="10.723371"><ele>50.00000000000001</ele><time>2026-04-18T07:39:20.43Z</time></trkpt><trkpt lat="43.5214386" lon="10.7234351"><ele>50.0</ele><time>2026-04-18T07:39:21.439Z</time></trkpt><trkpt lat="43.521391" lon="10.7235058"><ele>50.0</ele><time>2026-04-18T07:39:22.437Z</time></trkpt><trkpt lat="43.5213468" lon="10.7235788"><ele>50.0</ele><time>2026-04-18T07:39:23.446Z</time></trkpt><trkpt lat="43.5213124" lon="10.7236524"><ele>50.00000000000001</ele><time>2026-04-18T07:39:24.441Z</time></trkpt><trkpt lat="43.5212547" lon="10.7237725"><ele>50.0</ele><time>2026-04-18T07:39:26.43Z</time></trkpt><trkpt lat="43.5212048" lon="10.7239"><ele>49.66666666666667</ele><time>2026-04-18T07:39:28.448Z</time></trkpt><trkpt lat="43.5211367" lon="10.7240459"><ele>49.333333333333336</ele><time>2026-04-18T07:39:30.443Z</time></trkpt><trkpt lat="43.5210975" lon="10.7241217"><ele>49.0</ele><time>2026-04-18T07:39:31.439Z</time></trkpt><trkpt lat="43.5210482" lon="10.7242004"><ele>48.66666666666667</ele><time>2026-04-18T07:39:32.436Z</time></trkpt><trkpt lat="43.5209986" lon="10.7242855"><ele>48.333333333333336</ele><time>2026-04-18T07:39:33.432Z</time></trkpt><trkpt lat="43.5209494" lon="10.7243694"><ele>48.0</ele><time>2026-04-18T07:39:34.421Z</time></trkpt><trkpt lat="43.520894" lon="10.7244633"><ele>48.0</ele><time>2026-04-18T07:39:35.441Z</time></trkpt><trkpt lat="43.5208413" lon="10.7245508"><ele>48.0</ele><time>2026-04-18T07:39:36.429Z</time></trkpt><trkpt lat="43.5208056" lon="10.7246365"><ele>48.0</ele><time>2026-04-18T07:39:37.428Z</time></trkpt><trkpt lat="43.5207746" lon="10.7247798"><ele>48.0</ele><time>2026-04-18T07:39:39.439Z</time></trkpt><trkpt lat="43.5207839" lon="10.724918"><ele>48.0</ele><time>2026-04-18T07:39:41.446Z</time></trkpt><trkpt lat="43.5207978" lon="10.7250066"><ele>48.0</ele><time>2026-04-18T07:39:42.453Z</time></trkpt><trkpt lat="43.5208223" lon="10.7251766"><ele>48.14285714285714</ele><time>2026-04-18T07:39:44.444Z</time></trkpt><trkpt lat="43.5208212" lon="10.7252705"><ele>48.285714285714285</ele><time>2026-04-18T07:39:45.441Z</time></trkpt><trkpt lat="43.5208203" lon="10.7253707"><ele>48.42857142857143</ele><time>2026-04-18T07:39:46.451Z</time></trkpt><trkpt lat="43.5208248" lon="10.7254704"><ele>48.57142857142857</ele><time>2026-04-18T07:39:47.441Z</time></trkpt><trkpt lat="43.5208324" lon="10.7255752"><ele>48.714285714285715</ele><time>2026-04-18T07:39:48.436Z</time></trkpt><trkpt lat="43.520849" lon="10.7256778"><ele>48.857142857142854</ele><time>2026-04-18T07:39:49.43Z</time></trkpt><trkpt lat="43.5208711" lon="10.7257799"><ele>49.0</ele><time>2026-04-18T07:39:50.431Z</time></trkpt><trkpt lat="43.5208988" lon="10.7258794"><ele>48.99999999999999</ele><time>2026-04-18T07:39:51.432Z</time></trkpt><trkpt lat="43.520927" lon="10.7259708"><ele>49.0</ele><time>2026-04-18T07:39:52.442Z</time></trkpt><trkpt lat="43.5209444" lon="10.7260543"><ele>49.0</ele><time>2026-04-18T07:39:53.443Z</time></trkpt><trkpt lat="43.52099" lon="10.7261839"><ele>49.0</ele><time>2026-04-18T07:39:55.434Z</time></trkpt><trkpt lat="43.5209921" lon="10.7262854"><ele>48.99999999999999</ele><time>2026-04-18T07:39:57.444Z</time></trkpt><trkpt lat="43.5209294" lon="10.7263558"><ele>49.0</ele><time>2026-04-18T07:39:59.428Z</time></trkpt><trkpt lat="43.5208501" lon="10.7264309"><ele>49.0</ele><time>2026-04-18T07:40:01.431Z</time></trkpt><trkpt lat="43.5207633" lon="10.7265007"><ele>49.0</ele><time>2026-04-18T07:40:03.442Z</time></trkpt><trkpt lat="43.5206694" lon="10.7265477"><ele>49.0</ele><time>2026-04-18T07:40:05.434Z</time></trkpt><trkpt lat="43.5205711" lon="10.7265962"><ele>49.0</ele><time>2026-04-18T07:40:07.441Z</time></trkpt><trkpt lat="43.5204751" lon="10.7266879"><ele>49.0</ele><time>2026-04-18T07:40:09.441Z</time></trkpt><trkpt lat="43.5203716" lon="10.726777"><ele>49.0</ele><time>2026-04-18T07:40:11.447Z</time></trkpt><trkpt lat="43.5202719" lon="10.7268643"><ele>49.0</ele><time>2026-04-18T07:40:13.444Z</time></trkpt><trkpt lat="43.5201805" lon="10.7269448"><ele>49.0</ele><time>2026-04-18T07:40:15.449Z</time></trkpt><trkpt lat="43.5200926" lon="10.7270321"><ele>49.0</ele><time>2026-04-18T07:40:17.458Z</time></trkpt><trkpt lat="43.5200058" lon="10.7271294"><ele>49.0</ele><time>2026-04-18T07:40:19.427Z</time></trkpt><trkpt lat="43.5199183" lon="10.7272138"><ele>49.33333333333333</ele><time>2026-04-18T07:40:21.428Z</time></trkpt><trkpt lat="43.5198247" lon="10.7272932"><ele>49.666666666666664</ele><time>2026-04-18T07:40:23.434Z</time></trkpt><trkpt lat="43.5197608" lon="10.7273623"><ele>50.0</ele><time>2026-04-18T07:40:25.428Z</time></trkpt><trkpt lat="43.5197165" lon="10.7274556"><ele>50.33333333333333</ele><time>2026-04-18T07:40:37.432Z</time></trkpt><trkpt lat="43.5196647" lon="10.7275512"><ele>50.666666666666664</ele><time>2026-04-18T07:40:40.434Z</time></trkpt><trkpt lat="43.5196497" lon="10.7276375"><ele>51.0</ele><time>2026-04-18T07:40:42.44Z</time></trkpt><trkpt lat="43.5196568" lon="10.7277281"><ele>51.833333333333336</ele><time>2026-04-18T07:40:44.441Z</time></trkpt><trkpt lat="43.5196651" lon="10.7278363"><ele>52.66666666666667</ele><time>2026-04-18T07:40:47.438Z</time></trkpt><trkpt lat="43.5196728" lon="10.7279393"><ele>53.5</ele><time>2026-04-18T07:40:53.433Z</time></trkpt><trkpt lat="43.5196573" lon="10.728043"><ele>54.333333333333336</ele><time>2026-04-18T07:40:57.44Z</time></trkpt><trkpt lat="43.5196635" lon="10.7281413"><ele>55.16666666666667</ele><time>2026-04-18T07:41:00.427Z</time></trkpt><trkpt lat="43.5196592" lon="10.7282706"><ele>56.0</ele><time>2026-04-18T07:41:02.442Z</time></trkpt><trkpt lat="43.5196294" lon="10.7284138"><ele>56.00000000000001</ele><time>2026-04-18T07:41:04.438Z</time></trkpt><trkpt lat="43.5196156" lon="10.7285167"><ele>56.0</ele><time>2026-04-18T07:41:06.435Z</time></trkpt><trkpt lat="43.5196012" lon="10.7286133"><ele>56.0</ele><time>2026-04-18T07:41:08.439Z</time></trkpt><trkpt lat="43.5196087" lon="10.7287414"><ele>56.0</ele><time>2026-04-18T07:41:10.445Z</time></trkpt><trkpt lat="43.5196219" lon="10.7288468"><ele>56.00000000000001</ele><time>2026-04-18T07:41:12.456Z</time></trkpt><trkpt lat="43.5196354" lon="10.7289666"><ele>56.0</ele><time>2026-04-18T07:41:14.45Z</time></trkpt><trkpt lat="43.519642" lon="10.7290726"><ele>56.66666666666667</ele><time>2026-04-18T07:41:16.441Z</time></trkpt><trkpt lat="43.5196524" lon="10.729178"><ele>57.333333333333336</ele><time>2026-04-18T07:41:18.434Z</time></trkpt><trkpt lat="43.5196635" lon="10.7292869"><ele>58.0</ele><time>2026-04-18T07:41:20.449Z</time></trkpt><trkpt lat="43.519689" lon="10.7294051"><ele>58.66666666666667</ele><time>2026-04-18T07:41:23.448Z</time></trkpt><trkpt lat="43.5197121" lon="10.7295164"><ele>59.333333333333336</ele><time>2026-04-18T07:41:26.439Z</time></trkpt><trkpt lat="43.5197205" lon="10.7296046"><ele>60.0</ele><time>2026-04-18T07:41:28.452Z</time></trkpt><trkpt lat="43.5197054" lon="10.7296922"><ele>60.28571428571429</ele><time>2026-04-18T07:41:30.457Z</time></trkpt><trkpt lat="43.5196815" lon="10.7297974"><ele>60.57142857142857</ele><time>2026-04-18T07:41:33.436Z</time></trkpt><trkpt lat="43.5196632" lon="10.7298977"><ele>60.85714285714286</ele><time>2026-04-18T07:41:36.449Z</time></trkpt><trkpt lat="43.5196425" lon="10.7300021"><ele>61.142857142857146</ele><time>2026-04-18T07:41:39.436Z</time></trkpt><trkpt lat="43.5196213" lon="10.7300969"><ele>61.42857142857143</ele><time>2026-04-18T07:41:42.448Z</time></trkpt><trkpt lat="43.5195909" lon="10.7301735"><ele>61.714285714285715</ele><time>2026-04-18T07:41:45.436Z</time></trkpt><trkpt lat="43.5195939" lon="10.7302634"><ele>62.0</ele><time>2026-04-18T07:41:49.424Z</time></trkpt><trkpt lat="43.5195938" lon="10.7303589"><ele>62.833333333333336</ele><time>2026-04-18T07:41:54.437Z</time></trkpt><trkpt lat="43.5195923" lon="10.7304737"><ele>63.66666666666667</ele><time>2026-04-18T07:41:58.429Z</time></trkpt><trkpt lat="43.5195833" lon="10.7305704"><ele>64.5</ele><time>2026-04-18T07:42:01.451Z</time></trkpt><trkpt lat="43.5196012" lon="10.7306714"><ele>65.33333333333333</ele><time>2026-04-18T07:42:04.454Z</time></trkpt><trkpt lat="43.5196145" lon="10.7307776"><ele>66.16666666666666</ele><time>2026-04-18T07:42:08.454Z</time></trkpt><trkpt lat="43.5196409" lon="10.7308905"><ele>67.0</ele><time>2026-04-18T07:42:12.43Z</time></trkpt><trkpt lat="43.519652" lon="10.730985"><ele>68.71428571428572</ele><time>2026-04-18T07:42:15.442Z</time></trkpt><trkpt lat="43.5196495" lon="10.7310752"><ele>70.42857142857143</ele><time>2026-04-18T07:42:18.448Z</time></trkpt><trkpt lat="43.5196539" lon="10.7311768"><ele>72.14285714285714</ele><time>2026-04-18T07:42:21.445Z</time></trkpt><trkpt lat="43.5196588" lon="10.7312775"><ele>73.85714285714286</ele><time>2026-04-18T07:42:26.459Z</time></trkpt><trkpt lat="43.5196558" lon="10.7313879"><ele>75.57142857142857</ele><time>2026-04-18T07:42:30.437Z</time></trkpt><trkpt lat="43.5196834" lon="10.7314767"><ele>77.28571428571429</ele><time>2026-04-18T07:42:35.452Z</time></trkpt><trkpt lat="43.5197125" lon="10.7315549"><ele>79.0</ele><time>2026-04-18T07:42:39.441Z</time></trkpt><trkpt lat="43.5197354" lon="10.731666"><ele>79.0</ele><time>2026-04-18T07:42:43.453Z</time></trkpt><trkpt lat="43.519767" lon="10.7317535"><ele>79.0</ele><time>2026-04-18T07:42:45.463Z</time></trkpt><trkpt lat="43.5197888" lon="10.7318391"><ele>79.0</ele><time>2026-04-18T07:42:47.452Z</time></trkpt><trkpt lat="43.5198176" lon="10.7319512"><ele>79.0</ele><time>2026-04-18T07:42:50.455Z</time></trkpt><trkpt lat="43.5198361" lon="10.7320348"><ele>79.0</ele><time>2026-04-18T07:42:52.44Z</time></trkpt><trkpt lat="43.5198552" lon="10.7321467"><ele>79.0</ele><time>2026-04-18T07:42:55.443Z</time></trkpt><trkpt lat="43.5198495" lon="10.7322695"><ele>80.16666666666666</ele><time>2026-04-18T07:42:58.439Z</time></trkpt><trkpt lat="43.5198561" lon="10.7323822"><ele>81.33333333333333</ele><time>2026-04-18T07:43:01.433Z</time></trkpt><trkpt lat="43.5198715" lon="10.732485"><ele>82.5</ele><time>2026-04-18T07:43:04.446Z</time></trkpt><trkpt lat="43.5198686" lon="10.7325984"><ele>83.66666666666667</ele><time>2026-04-18T07:43:07.437Z</time></trkpt><trkpt lat="43.5198382" lon="10.7326756"><ele>84.83333333333334</ele><time>2026-04-18T07:43:10.441Z</time></trkpt><trkpt lat="43.5198246" lon="10.7327883"><ele>86.0</ele><time>2026-04-18T07:43:14.447Z</time></trkpt><trkpt lat="43.5198405" lon="10.7329165"><ele>87.66666666666667</ele><time>2026-04-18T07:43:17.451Z</time></trkpt><trkpt lat="43.5198396" lon="10.7330393"><ele>89.33333333333334</ele><time>2026-04-18T07:43:20.444Z</time></trkpt><trkpt lat="43.5198488" lon="10.7331605"><ele>91.0</ele><time>2026-04-18T07:43:23.447Z</time></trkpt><trkpt lat="43.5198603" lon="10.7332818"><ele>92.66666666666667</ele><time>2026-04-18T07:43:26.451Z</time></trkpt><trkpt lat="43.519866" lon="10.7333991"><ele>94.33333333333333</ele><time>2026-04-18T07:43:29.456Z</time></trkpt><trkpt lat="43.5198609" lon="10.7335252"><ele>96.0</ele><time>2026-04-18T07:43:32.44Z</time></trkpt><trkpt lat="43.5198593" lon="10.7336156"><ele>96.83333333333333</ele><time>2026-04-18T07:43:34.439Z</time></trkpt><trkpt lat="43.5198503" lon="10.7337061"><ele>97.66666666666666</ele><time>2026-04-18T07:43:36.448Z</time></trkpt><trkpt lat="43.5198399" lon="10.7338018"><ele>98.5</ele><time>2026-04-18T07:43:38.452Z</time></trkpt><trkpt lat="43.5198437" lon="10.7339225"><ele>99.33333333333333</ele><time>2026-04-18T07:43:40.466Z</time></trkpt><trkpt lat="43.5198245" lon="10.734065"><ele>100.16666666666666</ele><time>2026-04-18T07:43:42.447Z</time></trkpt><trkpt lat="43.5198184" lon="10.7341975"><ele>101.0</ele><time>2026-04-18T07:43:44.451Z</time></trkpt><trkpt lat="43.5198242" lon="10.7342939"><ele>100.99999999999999</ele><time>2026-04-18T07:43:46.458Z</time></trkpt><trkpt lat="43.5198758" lon="10.7343634"><ele>101.0</ele><time>2026-04-18T07:43:48.451Z</time></trkpt><trkpt lat="43.5199446" lon="10.7343945"><ele>101.0</ele><time>2026-04-18T07:43:50.44Z</time></trkpt><trkpt lat="43.5200241" lon="10.7344536"><ele>101.0</ele><time>2026-04-18T07:43:53.428Z</time></trkpt><trkpt lat="43.5200906" lon="10.7344981"><ele>100.99999999999999</ele><time>2026-04-18T07:43:55.431Z</time></trkpt><trkpt lat="43.5201623" lon="10.7345545"><ele>101.0</ele><time>2026-04-18T07:43:57.428Z</time></trkpt><trkpt lat="43.5202381" lon="10.7346115"><ele>100.4</ele><time>2026-04-18T07:43:59.436Z</time></trkpt><trkpt lat="43.5203019" lon="10.7346748"><ele>99.8</ele><time>2026-04-18T07:44:01.421Z</time></trkpt><trkpt lat="43.5204058" lon="10.7347233"><ele>99.2</ele><time>2026-04-18T07:44:06.43Z</time></trkpt><trkpt lat="43.5204959" lon="10.7347875"><ele>98.60000000000001</ele><time>2026-04-18T07:44:08.451Z</time></trkpt><trkpt lat="43.5205948" lon="10.7348832"><ele>98.0</ele><time>2026-04-18T07:44:10.431Z</time></trkpt><trkpt lat="43.5206433" lon="10.7349396"><ele>100.0</ele><time>2026-04-18T07:44:11.435Z</time></trkpt><trkpt lat="43.5206838" lon="10.7350123"><ele>102.0</ele><time>2026-04-18T07:44:12.435Z</time></trkpt><trkpt lat="43.5207191" lon="10.7350874"><ele>104.0</ele><time>2026-04-18T07:44:13.426Z</time></trkpt><trkpt lat="43.5207484" lon="10.7351686"><ele>106.0</ele><time>2026-04-18T07:44:14.444Z</time></trkpt><trkpt lat="43.5207745" lon="10.7352865"><ele>108.0</ele><time>2026-04-18T07:44:16.449Z</time></trkpt><trkpt lat="43.520814" lon="10.735392"><ele>110.0</ele><time>2026-04-18T07:44:18.438Z</time></trkpt><trkpt lat="43.5208679" lon="10.7354625"><ele>112.0</ele><time>2026-04-18T07:44:20.431Z</time></trkpt><trkpt lat="43.5209198" lon="10.735516"><ele>112.42857142857143</ele><time>2026-04-18T07:44:22.438Z</time></trkpt><trkpt lat="43.5209812" lon="10.7355963"><ele>112.85714285714286</ele><time>2026-04-18T07:44:25.442Z</time></trkpt><trkpt lat="43.5210237" lon="10.7356628"><ele>113.28571428571428</ele><time>2026-04-18T07:44:27.434Z</time></trkpt><trkpt lat="43.5210727" lon="10.7357398"><ele>113.71428571428571</ele><time>2026-04-18T07:44:30.434Z</time></trkpt><trkpt lat="43.5211209" lon="10.7358033"><ele>114.14285714285714</ele><time>2026-04-18T07:44:33.424Z</time></trkpt><trkpt lat="43.5211839" lon="10.7358649"><ele>114.57142857142856</ele><time>2026-04-18T07:44:36.44Z</time></trkpt><trkpt lat="43.5212522" lon="10.7358992"><ele>114.99999999999999</ele><time>2026-04-18T07:44:39.445Z</time></trkpt><trkpt lat="43.5213065" lon="10.7359506"><ele>118.4</ele><time>2026-04-18T07:44:42.458Z</time></trkpt><trkpt lat="43.5213786" lon="10.735995"><ele>121.8</ele><time>2026-04-18T07:44:45.445Z</time></trkpt><trkpt lat="43.5214605" lon="10.7360845"><ele>125.19999999999999</ele><time>2026-04-18T07:44:48.466Z</time></trkpt><trkpt lat="43.521509" lon="10.7361919"><ele>128.6</ele><time>2026-04-18T07:44:50.441Z</time></trkpt><trkpt lat="43.5215663" lon="10.7362951"><ele>132.0</ele><time>2026-04-18T07:44:52.447Z</time></trkpt><trkpt lat="43.5216236" lon="10.7363922"><ele>132.4</ele><time>2026-04-18T07:44:54.449Z</time></trkpt><trkpt lat="43.5216744" lon="10.7364805"><ele>132.79999999999998</ele><time>2026-04-18T07:44:57.455Z</time></trkpt><trkpt lat="43.5217173" lon="10.7365585"><ele>133.2</ele><time>2026-04-18T07:45:04.436Z</time></trkpt><trkpt lat="43.5217935" lon="10.7366562"><ele>133.6</ele><time>2026-04-18T07:45:13.434Z</time></trkpt><trkpt lat="43.5218297" lon="10.7367456"><ele>134.0</ele><time>2026-04-18T07:45:14.439Z</time></trkpt><trkpt lat="43.5219284" lon="10.736867"><ele>133.66666666666666</ele><time>2026-04-18T07:45:16.451Z</time></trkpt><trkpt lat="43.5219801" lon="10.7369166"><ele>133.33333333333331</ele><time>2026-04-18T07:45:17.436Z</time></trkpt><trkpt lat="43.5220364" lon="10.737001"><ele>133.0</ele><time>2026-04-18T07:45:19.434Z</time></trkpt><trkpt lat="43.5220844" lon="10.7370634"><ele>132.66666666666666</ele><time>2026-04-18T07:45:21.438Z</time></trkpt><trkpt lat="43.5221221" lon="10.7371865"><ele>132.33333333333334</ele><time>2026-04-18T07:45:25.439Z</time></trkpt><trkpt lat="43.5220906" lon="10.7373346"><ele>132.0</ele><time>2026-04-18T07:45:27.423Z</time></trkpt><trkpt lat="43.5220735" lon="10.7374339"><ele>134.0</ele><time>2026-04-18T07:45:28.438Z</time></trkpt><trkpt lat="43.5220499" lon="10.7375413"><ele>136.0</ele><time>2026-04-18T07:45:29.451Z</time></trkpt><trkpt lat="43.5220051" lon="10.7376543"><ele>138.0</ele><time>2026-04-18T07:45:30.445Z</time></trkpt><trkpt lat="43.5219492" lon="10.7377674"><ele>140.0</ele><time>2026-04-18T07:45:31.428Z</time></trkpt><trkpt lat="43.5218984" lon="10.737858"><ele>142.0</ele><time>2026-04-18T07:45:32.444Z</time></trkpt><trkpt lat="43.5217984" lon="10.7379536"><ele>142.33333333333334</ele><time>2026-04-18T07:45:34.453Z</time></trkpt><trkpt lat="43.521717" lon="10.7380172"><ele>142.66666666666669</ele><time>2026-04-18T07:45:36.439Z</time></trkpt><trkpt lat="43.5216914" lon="10.7381018"><ele>143.0</ele><time>2026-04-18T07:45:38.45Z</time></trkpt><trkpt lat="43.5217326" lon="10.7382584"><ele>143.33333333333334</ele><time>2026-04-18T07:45:40.438Z</time></trkpt><trkpt lat="43.5217524" lon="10.7383629"><ele>143.66666666666666</ele><time>2026-04-18T07:45:41.446Z</time></trkpt><trkpt lat="43.5217786" lon="10.7384772"><ele>144.0</ele><time>2026-04-18T07:45:42.438Z</time></trkpt><trkpt lat="43.5217987" lon="10.7386129"><ele>144.0</ele><time>2026-04-18T07:45:43.426Z</time></trkpt><trkpt lat="43.5218208" lon="10.7387495"><ele>144.0</ele><time>2026-04-18T07:45:44.429Z</time></trkpt><trkpt lat="43.5218546" lon="10.7388772"><ele>144.0</ele><time>2026-04-18T07:45:45.448Z</time></trkpt><trkpt lat="43.5218946" lon="10.7390037"><ele>144.0</ele><time>2026-04-18T07:45:46.465Z</time></trkpt><trkpt lat="43.5219411" lon="10.7391409"><ele>144.0</ele><time>2026-04-18T07:45:47.442Z</time></trkpt><trkpt lat="43.5219943" lon="10.7392794"><ele>143.25</ele><time>2026-04-18T07:45:48.458Z</time></trkpt><trkpt lat="43.5220488" lon="10.7394267"><ele>142.5</ele><time>2026-04-18T07:45:49.439Z</time></trkpt><trkpt lat="43.5220996" lon="10.7395824"><ele>141.75</ele><time>2026-04-18T07:45:50.455Z</time></trkpt><trkpt lat="43.522155" lon="10.7397195"><ele>141.0</ele><time>2026-04-18T07:45:51.453Z</time></trkpt><trkpt lat="43.5222103" lon="10.7398609"><ele>144.0</ele><time>2026-04-18T07:45:52.459Z</time></trkpt><trkpt lat="43.5222628" lon="10.7400008"><ele>147.0</ele><time>2026-04-18T07:45:53.43Z</time></trkpt><trkpt lat="43.52232" lon="10.7401439"><ele>150.0</ele><time>2026-04-18T07:45:54.455Z</time></trkpt><trkpt lat="43.5223711" lon="10.7402802"><ele>153.0</ele><time>2026-04-18T07:45:55.441Z</time></trkpt><trkpt lat="43.522427" lon="10.740402"><ele>156.0</ele><time>2026-04-18T07:45:56.444Z</time></trkpt><trkpt lat="43.5224773" lon="10.7405318"><ele>156.4</ele><time>2026-04-18T07:45:57.457Z</time></trkpt><trkpt lat="43.5225306" lon="10.7406634"><ele>156.8</ele><time>2026-04-18T07:45:58.448Z</time></trkpt><trkpt lat="43.5225853" lon="10.7407913"><ele>157.20000000000002</ele><time>2026-04-18T07:45:59.443Z</time></trkpt><trkpt lat="43.5226343" lon="10.7409142"><ele>157.6</ele><time>2026-04-18T07:46:00.444Z</time></trkpt><trkpt lat="43.5226874" lon="10.7410328"><ele>158.0</ele><time>2026-04-18T07:46:01.446Z</time></trkpt><trkpt lat="43.5227502" lon="10.7411482"><ele>158.0</ele><time>2026-04-18T07:46:02.444Z</time></trkpt><trkpt lat="43.5228197" lon="10.741261"><ele>158.0</ele><time>2026-04-18T07:46:03.448Z</time></trkpt><trkpt lat="43.5228995" lon="10.7413701"><ele>158.0</ele><time>2026-04-18T07:46:04.451Z</time></trkpt><trkpt lat="43.5229994" lon="10.7414805"><ele>158.0</ele><time>2026-04-18T07:46:05.446Z</time></trkpt><trkpt lat="43.5231086" lon="10.7415799"><ele>158.25</ele><time>2026-04-18T07:46:06.447Z</time></trkpt><trkpt lat="43.5232077" lon="10.7416751"><ele>158.5</ele><time>2026-04-18T07:46:07.448Z</time></trkpt><trkpt lat="43.5233104" lon="10.7417742"><ele>158.75</ele><time>2026-04-18T07:46:08.429Z</time></trkpt><trkpt lat="43.523404" lon="10.7418688"><ele>159.0</ele><time>2026-04-18T07:46:09.441Z</time></trkpt><trkpt lat="43.5234904" lon="10.7419451"><ele>159.6</ele><time>2026-04-18T07:46:10.452Z</time></trkpt><trkpt lat="43.5235659" lon="10.7420087"><ele>160.2</ele><time>2026-04-18T07:46:11.449Z</time></trkpt><trkpt lat="43.5236381" lon="10.7420595"><ele>160.79999999999998</ele><time>2026-04-18T07:46:12.439Z</time></trkpt><trkpt lat="43.5237167" lon="10.7420727"><ele>161.4</ele><time>2026-04-18T07:46:13.442Z</time></trkpt><trkpt lat="43.5238137" lon="10.7420584"><ele>162.0</ele><time>2026-04-18T07:46:14.442Z</time></trkpt><trkpt lat="43.523914" lon="10.7420127"><ele>162.0</ele><time>2026-04-18T07:46:15.441Z</time></trkpt><trkpt lat="43.5240223" lon="10.741957"><ele>162.0</ele><time>2026-04-18T07:46:16.434Z</time></trkpt><trkpt lat="43.5241328" lon="10.7419153"><ele>162.0</ele><time>2026-04-18T07:46:17.443Z</time></trkpt><trkpt lat="43.5242448" lon="10.7418733"><ele>162.0</ele><time>2026-04-18T07:46:18.453Z</time></trkpt><trkpt lat="43.524353" lon="10.7418236"><ele>162.6</ele><time>2026-04-18T07:46:19.433Z</time></trkpt><trkpt lat="43.5244639" lon="10.7417837"><ele>163.2</ele><time>2026-04-18T07:46:20.44Z</time></trkpt><trkpt lat="43.5245767" lon="10.7417498"><ele>163.8</ele><time>2026-04-18T07:46:21.44Z</time></trkpt><trkpt lat="43.524678" lon="10.7417489"><ele>164.4</ele><time>2026-04-18T07:46:22.442Z</time></trkpt><trkpt lat="43.5247602" lon="10.7417649"><ele>165.0</ele><time>2026-04-18T07:46:23.439Z</time></trkpt><trkpt lat="43.524843" lon="10.7417913"><ele>166.4</ele><time>2026-04-18T07:46:24.459Z</time></trkpt><trkpt lat="43.5249376" lon="10.7417962"><ele>167.8</ele><time>2026-04-18T07:46:25.426Z</time></trkpt><trkpt lat="43.5250465" lon="10.7417941"><ele>169.2</ele><time>2026-04-18T07:46:26.438Z</time></trkpt><trkpt lat="43.525163" lon="10.7417936"><ele>170.6</ele><time>2026-04-18T07:46:27.434Z</time></trkpt><trkpt lat="43.5252646" lon="10.7417723"><ele>172.0</ele><time>2026-04-18T07:46:28.436Z</time></trkpt><trkpt lat="43.525344" lon="10.7417361"><ele>171.5</ele><time>2026-04-18T07:46:29.437Z</time></trkpt><trkpt lat="43.5254024" lon="10.7416976"><ele>171.0</ele><time>2026-04-18T07:46:30.442Z</time></trkpt><trkpt lat="43.5254671" lon="10.7416541"><ele>170.5</ele><time>2026-04-18T07:46:31.442Z</time></trkpt><trkpt lat="43.5255384" lon="10.7416066"><ele>170.0</ele><time>2026-04-18T07:46:32.445Z</time></trkpt><trkpt lat="43.5256077" lon="10.7415388"><ele>169.5</ele><time>2026-04-18T07:46:33.45Z</time></trkpt><trkpt lat="43.5256874" lon="10.7414563"><ele>169.0</ele><time>2026-04-18T07:46:34.437Z</time></trkpt><trkpt lat="43.5257666" lon="10.741382"><ele>169.0</ele><time>2026-04-18T07:46:35.438Z</time></trkpt><trkpt lat="43.5258314" lon="10.7413272"><ele>169.0</ele><time>2026-04-18T07:46:36.445Z</time></trkpt><trkpt lat="43.5259181" lon="10.7412842"><ele>169.0</ele><time>2026-04-18T07:46:38.433Z</time></trkpt><trkpt lat="43.5259961" lon="10.7413828"><ele>169.0</ele><time>2026-04-18T07:46:41.431Z</time></trkpt><trkpt lat="43.5260609" lon="10.7415057"><ele>169.0</ele><time>2026-04-18T07:46:43.431Z</time></trkpt><trkpt lat="43.5261011" lon="10.7415779"><ele>169.0</ele><time>2026-04-18T07:46:44.446Z</time></trkpt><trkpt lat="43.5261565" lon="10.7416464"><ele>169.0</ele><time>2026-04-18T07:46:45.443Z</time></trkpt><trkpt lat="43.5262229" lon="10.741723"><ele>169.0</ele><time>2026-04-18T07:46:46.445Z</time></trkpt><trkpt lat="43.526294" lon="10.7417967"><ele>169.0</ele><time>2026-04-18T07:46:47.43Z</time></trkpt><trkpt lat="43.526358" lon="10.7418672"><ele>169.0</ele><time>2026-04-18T07:46:48.448Z</time></trkpt><trkpt lat="43.5264219" lon="10.7419565"><ele>169.0</ele><time>2026-04-18T07:46:49.45Z</time></trkpt><trkpt lat="43.5264882" lon="10.7420553"><ele>169.39999999999998</ele><time>2026-04-18T07:46:50.449Z</time></trkpt><trkpt lat="43.5265574" lon="10.742151"><ele>169.8</ele><time>2026-04-18T07:46:51.439Z</time></trkpt><trkpt lat="43.5266278" lon="10.7422522"><ele>170.2</ele><time>2026-04-18T07:46:52.433Z</time></trkpt><trkpt lat="43.5266995" lon="10.7423566"><ele>170.60000000000002</ele><time>2026-04-18T07:46:53.443Z</time></trkpt><trkpt lat="43.526777" lon="10.7424487"><ele>171.0</ele><time>2026-04-18T07:46:54.429Z</time></trkpt><trkpt lat="43.5268477" lon="10.7425572"><ele>171.0</ele><time>2026-04-18T07:46:55.437Z</time></trkpt><trkpt lat="43.5269116" lon="10.7426716"><ele>171.0</ele><time>2026-04-18T07:46:56.43Z</time></trkpt><trkpt lat="43.5269655" lon="10.7427944"><ele>171.0</ele><time>2026-04-18T07:46:57.434Z</time></trkpt><trkpt lat="43.5270095" lon="10.7429216"><ele>171.0</ele><time>2026-04-18T07:46:58.433Z</time></trkpt><trkpt lat="43.527047" lon="10.7430322"><ele>171.0</ele><time>2026-04-18T07:46:59.439Z</time></trkpt><trkpt lat="43.5270937" lon="10.7431375"><ele>171.0</ele><time>2026-04-18T07:47:00.44Z</time></trkpt><trkpt lat="43.527129" lon="10.7432401"><ele>171.0</ele><time>2026-04-18T07:47:01.433Z</time></trkpt><trkpt lat="43.5271597" lon="10.7433302"><ele>171.0</ele><time>2026-04-18T07:47:02.438Z</time></trkpt><trkpt lat="43.5272115" lon="10.7434657"><ele>171.0</ele><time>2026-04-18T07:47:04.447Z</time></trkpt><trkpt lat="43.5272272" lon="10.7436265"><ele>171.0</ele><time>2026-04-18T07:47:06.447Z</time></trkpt><trkpt lat="43.5272463" lon="10.7437847"><ele>171.0</ele><time>2026-04-18T07:47:08.45Z</time></trkpt><trkpt lat="43.5272712" lon="10.7438667"><ele>171.0</ele><time>2026-04-18T07:47:09.436Z</time></trkpt><trkpt lat="43.5273035" lon="10.7439498"><ele>171.0</ele><time>2026-04-18T07:47:10.453Z</time></trkpt><trkpt lat="43.5273367" lon="10.7440315"><ele>171.0</ele><time>2026-04-18T07:47:11.446Z</time></trkpt><trkpt lat="43.5273815" lon="10.7441155"><ele>171.0</ele><time>2026-04-18T07:47:12.446Z</time></trkpt><trkpt lat="43.5274285" lon="10.7441839"><ele>171.0</ele><time>2026-04-18T07:47:13.438Z</time></trkpt><trkpt lat="43.5275245" lon="10.7442695"><ele>171.0</ele><time>2026-04-18T07:47:15.442Z</time></trkpt><trkpt lat="43.527635" lon="10.7443114"><ele>171.0</ele><time>2026-04-18T07:47:17.438Z</time></trkpt><trkpt lat="43.5276991" lon="10.744337"><ele>171.0</ele><time>2026-04-18T07:47:18.447Z</time></trkpt><trkpt lat="43.5277636" lon="10.7443736"><ele>171.0</ele><time>2026-04-18T07:47:19.437Z</time></trkpt><trkpt lat="43.5278269" lon="10.7444175"><ele>171.0</ele><time>2026-04-18T07:47:20.437Z</time></trkpt><trkpt lat="43.5278834" lon="10.7444669"><ele>171.0</ele><time>2026-04-18T07:47:21.445Z</time></trkpt><trkpt lat="43.5279928" lon="10.7445453"><ele>169.5</ele><time>2026-04-18T07:47:23.428Z</time></trkpt><trkpt lat="43.5280832" lon="10.7446407"><ele>168.0</ele><time>2026-04-18T07:47:25.429Z</time></trkpt><trkpt lat="43.5281369" lon="10.7447515"><ele>166.5</ele><time>2026-04-18T07:47:27.437Z</time></trkpt><trkpt lat="43.5282092" lon="10.7449239"><ele>165.0</ele><time>2026-04-18T07:47:30.436Z</time></trkpt><trkpt lat="43.5282715" lon="10.7450639"><ele>165.0</ele><time>2026-04-18T07:47:32.435Z</time></trkpt><trkpt lat="43.5283055" lon="10.7451384"><ele>165.0</ele><time>2026-04-18T07:47:33.434Z</time></trkpt><trkpt lat="43.5283783" lon="10.7452427"><ele>165.0</ele><time>2026-04-18T07:47:35.447Z</time></trkpt><trkpt lat="43.5284217" lon="10.7453232"><ele>165.0</ele><time>2026-04-18T07:47:37.437Z</time></trkpt><trkpt lat="43.5284538" lon="10.7454096"><ele>165.0</ele><time>2026-04-18T07:48:02.439Z</time></trkpt><trkpt lat="43.5284925" lon="10.7454931"><ele>165.0</ele><time>2026-04-18T07:48:07.439Z</time></trkpt><trkpt lat="43.5285348" lon="10.7456121"><ele>163.83333333333334</ele><time>2026-04-18T07:48:10.428Z</time></trkpt><trkpt lat="43.5285252" lon="10.7457054"><ele>162.66666666666666</ele><time>2026-04-18T07:48:11.426Z</time></trkpt><trkpt lat="43.5285058" lon="10.7458091"><ele>161.5</ele><time>2026-04-18T07:48:12.44Z</time></trkpt><trkpt lat="43.5284952" lon="10.7459088"><ele>160.33333333333331</ele><time>2026-04-18T07:48:13.439Z</time></trkpt><trkpt lat="43.528481" lon="10.7459958"><ele>159.16666666666666</ele><time>2026-04-18T07:48:14.448Z</time></trkpt><trkpt lat="43.5284722" lon="10.7461527"><ele>158.0</ele><time>2026-04-18T07:48:16.453Z</time></trkpt><trkpt lat="43.5284882" lon="10.7462786"><ele>156.8</ele><time>2026-04-18T07:48:18.437Z</time></trkpt><trkpt lat="43.5285036" lon="10.746409"><ele>155.60000000000002</ele><time>2026-04-18T07:48:20.436Z</time></trkpt><trkpt lat="43.5285229" lon="10.7465328"><ele>154.39999999999998</ele><time>2026-04-18T07:48:22.432Z</time></trkpt><trkpt lat="43.52854" lon="10.7466692"><ele>153.2</ele><time>2026-04-18T07:48:24.446Z</time></trkpt><trkpt lat="43.5285463" lon="10.7467873"><ele>152.0</ele><time>2026-04-18T07:48:26.447Z</time></trkpt><trkpt lat="43.5285493" lon="10.7469256"><ele>152.0</ele><time>2026-04-18T07:48:28.441Z</time></trkpt><trkpt lat="43.5285742" lon="10.7470737"><ele>152.0</ele><time>2026-04-18T07:48:30.44Z</time></trkpt><trkpt lat="43.5286168" lon="10.7472218"><ele>152.0</ele><time>2026-04-18T07:48:32.433Z</time></trkpt><trkpt lat="43.5286644" lon="10.7473386"><ele>152.0</ele><time>2026-04-18T07:48:34.441Z</time></trkpt><trkpt lat="43.5287184" lon="10.7474329"><ele>152.0</ele><time>2026-04-18T07:48:36.433Z</time></trkpt><trkpt lat="43.5287731" lon="10.747508"><ele>153.66666666666666</ele><time>2026-04-18T07:48:38.442Z</time></trkpt><trkpt lat="43.5288417" lon="10.7475892"><ele>155.33333333333331</ele><time>2026-04-18T07:48:40.44Z</time></trkpt><trkpt lat="43.528901" lon="10.7476464"><ele>157.0</ele><time>2026-04-18T07:48:43.437Z</time></trkpt><trkpt lat="43.5289654" lon="10.7477569"><ele>158.66666666666666</ele><time>2026-04-18T07:50:04.444Z</time></trkpt><trkpt lat="43.5289705" lon="10.7476447"><ele>160.33333333333334</ele><time>2026-04-18T07:50:11.441Z</time></trkpt><trkpt lat="43.5290027" lon="10.7475257"><ele>162.0</ele><time>2026-04-18T07:50:13.432Z</time></trkpt><trkpt lat="43.5290572" lon="10.7474061"><ele>162.0</ele><time>2026-04-18T07:50:15.438Z</time></trkpt><trkpt lat="43.5291016" lon="10.7472891"><ele>162.0</ele><time>2026-04-18T07:50:17.44Z</time></trkpt><trkpt lat="43.5291301" lon="10.7471557"><ele>162.0</ele><time>2026-04-18T07:50:19.432Z</time></trkpt><trkpt lat="43.5291843" lon="10.7470316"><ele>162.0</ele><time>2026-04-18T07:50:21.438Z</time></trkpt><trkpt lat="43.5292242" lon="10.7469605"><ele>162.0</ele><time>2026-04-18T07:50:22.453Z</time></trkpt><trkpt lat="43.529265" lon="10.7468928"><ele>162.0</ele><time>2026-04-18T07:50:23.443Z</time></trkpt><trkpt lat="43.5293297" lon="10.7467472"><ele>163.0</ele><time>2026-04-18T07:50:25.435Z</time></trkpt><trkpt lat="43.5294031" lon="10.7466048"><ele>164.0</ele><time>2026-04-18T07:50:27.443Z</time></trkpt><trkpt lat="43.5294743" lon="10.7464636"><ele>165.0</ele><time>2026-04-18T07:50:29.44Z</time></trkpt><trkpt lat="43.5295476" lon="10.7463428"><ele>166.0</ele><time>2026-04-18T07:50:31.429Z</time></trkpt><trkpt lat="43.5295862" lon="10.7462379"><ele>164.5</ele><time>2026-04-18T07:50:33.441Z</time></trkpt><trkpt lat="43.5295982" lon="10.7461242"><ele>163.0</ele><time>2026-04-18T07:50:35.435Z</time></trkpt><trkpt lat="43.5296068" lon="10.7460023"><ele>161.5</ele><time>2026-04-18T07:50:37.434Z</time></trkpt><trkpt lat="43.5296383" lon="10.7458581"><ele>160.0</ele><time>2026-04-18T07:50:39.438Z</time></trkpt><trkpt lat="43.5296593" lon="10.7457688"><ele>158.5</ele><time>2026-04-18T07:50:40.451Z</time></trkpt><trkpt lat="43.5296812" lon="10.7456761"><ele>157.0</ele><time>2026-04-18T07:50:41.422Z</time></trkpt><trkpt lat="43.5296934" lon="10.7455905"><ele>157.0</ele><time>2026-04-18T07:50:42.437Z</time></trkpt><trkpt lat="43.5296984" lon="10.7454548"><ele>157.0</ele><time>2026-04-18T07:50:44.441Z</time></trkpt><trkpt lat="43.5297186" lon="10.7453632"><ele>157.0</ele><time>2026-04-18T07:50:46.432Z</time></trkpt><trkpt lat="43.5297858" lon="10.7452969"><ele>157.0</ele><time>2026-04-18T07:50:48.438Z</time></trkpt><trkpt lat="43.529892" lon="10.7452396"><ele>157.0</ele><time>2026-04-18T07:50:50.436Z</time></trkpt><trkpt lat="43.5299524" lon="10.7452141"><ele>157.0</ele><time>2026-04-18T07:50:51.434Z</time></trkpt><trkpt lat="43.5300548" lon="10.7451539"><ele>156.85714285714283</ele><time>2026-04-18T07:50:53.437Z</time></trkpt><trkpt lat="43.5301112" lon="10.7451032"><ele>156.71428571428572</ele><time>2026-04-18T07:50:54.44Z</time></trkpt><trkpt lat="43.5301715" lon="10.7450442"><ele>156.57142857142856</ele><time>2026-04-18T07:50:55.429Z</time></trkpt><trkpt lat="43.5302319" lon="10.7449739"><ele>156.42857142857142</ele><time>2026-04-18T07:50:56.448Z</time></trkpt><trkpt lat="43.5302868" lon="10.744917"><ele>156.28571428571428</ele><time>2026-04-18T07:50:57.439Z</time></trkpt><trkpt lat="43.5303462" lon="10.7448608"><ele>156.14285714285714</ele><time>2026-04-18T07:50:58.436Z</time></trkpt><trkpt lat="43.5304115" lon="10.7448153"><ele>156.0</ele><time>2026-04-18T07:50:59.44Z</time></trkpt><trkpt lat="43.5304908" lon="10.7447846"><ele>156.0</ele><time>2026-04-18T07:51:00.436Z</time></trkpt><trkpt lat="43.5305642" lon="10.7447632"><ele>156.0</ele><time>2026-04-18T07:51:01.437Z</time></trkpt><trkpt lat="43.5306305" lon="10.7447318"><ele>156.0</ele><time>2026-04-18T07:51:02.423Z</time></trkpt><trkpt lat="43.5306985" lon="10.7446957"><ele>156.0</ele><time>2026-04-18T07:51:03.438Z</time></trkpt><trkpt lat="43.5307564" lon="10.7446513"><ele>156.0</ele><time>2026-04-18T07:51:04.43Z</time></trkpt><trkpt lat="43.5308102" lon="10.7445919"><ele>156.0</ele><time>2026-04-18T07:51:05.422Z</time></trkpt><trkpt lat="43.5308546" lon="10.7445207"><ele>156.0</ele><time>2026-04-18T07:51:06.44Z</time></trkpt><trkpt lat="43.5308927" lon="10.744439"><ele>156.0</ele><time>2026-04-18T07:51:07.43Z</time></trkpt><trkpt lat="43.5309179" lon="10.744343"><ele>156.0</ele><time>2026-04-18T07:51:08.434Z</time></trkpt><trkpt lat="43.5309372" lon="10.7442473"><ele>156.0</ele><time>2026-04-18T07:51:09.427Z</time></trkpt><trkpt lat="43.5309514" lon="10.7441506"><ele>156.0</ele><time>2026-04-18T07:51:10.448Z</time></trkpt><trkpt lat="43.5309634" lon="10.7440639"><ele>156.0</ele><time>2026-04-18T07:51:11.437Z</time></trkpt><trkpt lat="43.5309734" lon="10.7438855"><ele>156.0</ele><time>2026-04-18T07:51:13.43Z</time></trkpt><trkpt lat="43.5309738" lon="10.7437917"><ele>156.0</ele><time>2026-04-18T07:51:14.433Z</time></trkpt><trkpt lat="43.5309708" lon="10.7436989"><ele>156.0</ele><time>2026-04-18T07:51:15.439Z</time></trkpt><trkpt lat="43.5309493" lon="10.7435359"><ele>156.0</ele><time>2026-04-18T07:51:17.437Z</time></trkpt><trkpt lat="43.530934" lon="10.7434512"><ele>156.0</ele><time>2026-04-18T07:51:18.439Z</time></trkpt><trkpt lat="43.5309211" lon="10.743291"><ele>156.0</ele><time>2026-04-18T07:51:20.435Z</time></trkpt><trkpt lat="43.530903" lon="10.7431591"><ele>157.2</ele><time>2026-04-18T07:51:22.442Z</time></trkpt><trkpt lat="43.5308905" lon="10.7430136"><ele>158.39999999999998</ele><time>2026-04-18T07:51:24.442Z</time></trkpt><trkpt lat="43.5309265" lon="10.7428793"><ele>159.6</ele><time>2026-04-18T07:51:26.438Z</time></trkpt><trkpt lat="43.5309457" lon="10.7427515"><ele>160.79999999999998</ele><time>2026-04-18T07:51:28.435Z</time></trkpt><trkpt lat="43.5309551" lon="10.7426149"><ele>162.0</ele><time>2026-04-18T07:51:30.427Z</time></trkpt><trkpt lat="43.5309543" lon="10.7425226"><ele>162.66666666666666</ele><time>2026-04-18T07:51:31.439Z</time></trkpt><trkpt lat="43.5309331" lon="10.7424037"><ele>163.33333333333334</ele><time>2026-04-18T07:51:32.442Z</time></trkpt><trkpt lat="43.5308947" lon="10.7422765"><ele>164.0</ele><time>2026-04-18T07:51:33.438Z</time></trkpt><trkpt lat="43.5308558" lon="10.7421562"><ele>164.66666666666669</ele><time>2026-04-18T07:51:34.446Z</time></trkpt><trkpt lat="43.5308252" lon="10.7420543"><ele>165.33333333333334</ele><time>2026-04-18T07:51:35.443Z</time></trkpt><trkpt lat="43.5308006" lon="10.741968"><ele>166.0</ele><time>2026-04-18T07:51:36.444Z</time></trkpt><trkpt lat="43.5307602" lon="10.7418331"><ele>166.42857142857142</ele><time>2026-04-18T07:51:38.437Z</time></trkpt><trkpt lat="43.5307279" lon="10.7417396"><ele>166.85714285714286</ele><time>2026-04-18T07:51:40.446Z</time></trkpt><trkpt lat="43.5307024" lon="10.7416484"><ele>167.28571428571428</ele><time>2026-04-18T07:51:43.44Z</time></trkpt><trkpt lat="43.5306798" lon="10.7415431"><ele>167.71428571428572</ele><time>2026-04-18T07:51:46.449Z</time></trkpt><trkpt lat="43.5306807" lon="10.741444"><ele>168.14285714285714</ele><time>2026-04-18T07:51:49.44Z</time></trkpt><trkpt lat="43.5307072" lon="10.7413464"><ele>168.57142857142858</ele><time>2026-04-18T07:51:52.447Z</time></trkpt><trkpt lat="43.5307406" lon="10.7412592"><ele>169.0</ele><time>2026-04-18T07:51:54.456Z</time></trkpt><trkpt lat="43.5307513" lon="10.7411494"><ele>168.79999999999998</ele><time>2026-04-18T07:51:57.438Z</time></trkpt><trkpt lat="43.5307892" lon="10.7410352"><ele>168.6</ele><time>2026-04-18T07:52:00.443Z</time></trkpt><trkpt lat="43.5308253" lon="10.7409488"><ele>168.4</ele><time>2026-04-18T07:52:02.441Z</time></trkpt><trkpt lat="43.5308731" lon="10.7408203"><ele>168.2</ele><time>2026-04-18T07:52:04.434Z</time></trkpt><trkpt lat="43.5309046" lon="10.740678"><ele>168.0</ele><time>2026-04-18T07:52:06.446Z</time></trkpt><trkpt lat="43.5309192" lon="10.7405312"><ele>168.0</ele><time>2026-04-18T07:52:08.445Z</time></trkpt><trkpt lat="43.5309605" lon="10.740398"><ele>168.0</ele><time>2026-04-18T07:52:10.448Z</time></trkpt><trkpt lat="43.5309949" lon="10.7402916"><ele>168.0</ele><time>2026-04-18T07:52:12.446Z</time></trkpt><trkpt lat="43.5310252" lon="10.7402011"><ele>168.0</ele><time>2026-04-18T07:52:14.435Z</time></trkpt><trkpt lat="43.531064" lon="10.740102"><ele>168.0</ele><time>2026-04-18T07:52:16.443Z</time></trkpt><trkpt lat="43.5310967" lon="10.7399977"><ele>168.0</ele><time>2026-04-18T07:52:18.45Z</time></trkpt><trkpt lat="43.5311122" lon="10.7399044"><ele>168.16666666666666</ele><time>2026-04-18T07:52:20.44Z</time></trkpt><trkpt lat="43.5311391" lon="10.7398201"><ele>168.33333333333334</ele><time>2026-04-18T07:52:22.432Z</time></trkpt><trkpt lat="43.5311613" lon="10.7397226"><ele>168.5</ele><time>2026-04-18T07:52:24.447Z</time></trkpt><trkpt lat="43.531213" lon="10.7396264"><ele>168.66666666666669</ele><time>2026-04-18T07:52:26.435Z</time></trkpt><trkpt lat="43.5312956" lon="10.7395458"><ele>168.83333333333334</ele><time>2026-04-18T07:52:28.438Z</time></trkpt><trkpt lat="43.5313773" lon="10.7394522"><ele>169.0</ele><time>2026-04-18T07:52:30.443Z</time></trkpt><trkpt lat="43.5314562" lon="10.73935"><ele>167.16666666666669</ele><time>2026-04-18T07:52:32.446Z</time></trkpt><trkpt lat="43.5315387" lon="10.7392349"><ele>165.33333333333334</ele><time>2026-04-18T07:52:34.46Z</time></trkpt><trkpt lat="43.5316261" lon="10.7391218"><ele>163.5</ele><time>2026-04-18T07:52:36.431Z</time></trkpt><trkpt lat="43.5316807" lon="10.7390716"><ele>161.66666666666666</ele><time>2026-04-18T07:52:37.43Z</time></trkpt><trkpt lat="43.5317402" lon="10.7390258"><ele>159.83333333333331</ele><time>2026-04-18T07:52:38.433Z</time></trkpt><trkpt lat="43.5318014" lon="10.7389652"><ele>158.0</ele><time>2026-04-18T07:52:39.453Z</time></trkpt><trkpt lat="43.5318895" lon="10.7389135"><ele>158.0</ele><time>2026-04-18T07:52:40.455Z</time></trkpt><trkpt lat="43.5319685" lon="10.7388675"><ele>158.0</ele><time>2026-04-18T07:52:41.435Z</time></trkpt><trkpt lat="43.5320467" lon="10.7388184"><ele>158.0</ele><time>2026-04-18T07:52:42.443Z</time></trkpt><trkpt lat="43.5321119" lon="10.7387643"><ele>158.0</ele><time>2026-04-18T07:52:43.431Z</time></trkpt><trkpt lat="43.5321877" lon="10.7387158"><ele>158.0</ele><time>2026-04-18T07:52:44.439Z</time></trkpt><trkpt lat="43.5322749" lon="10.7386731"><ele>158.0</ele><time>2026-04-18T07:52:45.442Z</time></trkpt><trkpt lat="43.5323645" lon="10.7386292"><ele>156.8</ele><time>2026-04-18T07:52:46.45Z</time></trkpt><trkpt lat="43.5324471" lon="10.7385783"><ele>155.60000000000002</ele><time>2026-04-18T07:52:47.432Z</time></trkpt><trkpt lat="43.5325277" lon="10.7385208"><ele>154.39999999999998</ele><time>2026-04-18T07:52:48.432Z</time></trkpt><trkpt lat="43.5326118" lon="10.7384614"><ele>153.2</ele><time>2026-04-18T07:52:49.446Z</time></trkpt><trkpt lat="43.5326962" lon="10.7384025"><ele>152.0</ele><time>2026-04-18T07:52:50.437Z</time></trkpt><trkpt lat="43.532778" lon="10.7383457"><ele>152.0</ele><time>2026-04-18T07:52:51.438Z</time></trkpt><trkpt lat="43.5328559" lon="10.738284"><ele>152.0</ele><time>2026-04-18T07:52:52.445Z</time></trkpt><trkpt lat="43.5329224" lon="10.738225"><ele>152.0</ele><time>2026-04-18T07:52:53.444Z</time></trkpt><trkpt lat="43.5329797" lon="10.7381622"><ele>152.0</ele><time>2026-04-18T07:52:54.435Z</time></trkpt><trkpt lat="43.533035" lon="10.7380962"><ele>152.0</ele><time>2026-04-18T07:52:55.451Z</time></trkpt><trkpt lat="43.5330907" lon="10.7380354"><ele>152.0</ele><time>2026-04-18T07:52:56.445Z</time></trkpt><trkpt lat="43.5331457" lon="10.7379765"><ele>151.42857142857142</ele><time>2026-04-18T07:52:57.445Z</time></trkpt><trkpt lat="43.5331952" lon="10.7379205"><ele>150.85714285714286</ele><time>2026-04-18T07:52:58.443Z</time></trkpt><trkpt lat="43.5332481" lon="10.7378731"><ele>150.28571428571428</ele><time>2026-04-18T07:52:59.437Z</time></trkpt><trkpt lat="43.5333045" lon="10.7378231"><ele>149.71428571428572</ele><time>2026-04-18T07:53:00.444Z</time></trkpt><trkpt lat="43.5333557" lon="10.7377695"><ele>149.14285714285714</ele><time>2026-04-18T07:53:01.432Z</time></trkpt><trkpt lat="43.5334509" lon="10.7377098"><ele>148.57142857142858</ele><time>2026-04-18T07:53:03.437Z</time></trkpt><trkpt lat="43.5335154" lon="10.7376837"><ele>148.0</ele><time>2026-04-18T07:53:05.437Z</time></trkpt><trkpt lat="43.533599" lon="10.7376612"><ele>147.8</ele><time>2026-04-18T07:53:08.442Z</time></trkpt><trkpt lat="43.5336661" lon="10.7376269"><ele>147.60000000000002</ele><time>2026-04-18T07:53:10.445Z</time></trkpt><trkpt lat="43.5337454" lon="10.7375933"><ele>147.39999999999998</ele><time>2026-04-18T07:53:12.42Z</time></trkpt><trkpt lat="43.533849" lon="10.7375377"><ele>147.2</ele><time>2026-04-18T07:53:14.455Z</time></trkpt><trkpt lat="43.5339624" lon="10.7374866"><ele>147.0</ele><time>2026-04-18T07:53:16.459Z</time></trkpt><trkpt lat="43.5340735" lon="10.7374386"><ele>146.25</ele><time>2026-04-18T07:53:18.457Z</time></trkpt><trkpt lat="43.5341838" lon="10.7373864"><ele>145.5</ele><time>2026-04-18T07:53:20.453Z</time></trkpt><trkpt lat="43.5342938" lon="10.7373242"><ele>144.75</ele><time>2026-04-18T07:53:22.446Z</time></trkpt><trkpt lat="43.5344111" lon="10.7372553"><ele>144.0</ele><time>2026-04-18T07:53:24.45Z</time></trkpt><trkpt lat="43.5345273" lon="10.7371918"><ele>143.2857142857143</ele><time>2026-04-18T07:53:26.441Z</time></trkpt><trkpt lat="43.5345915" lon="10.7371569"><ele>142.57142857142858</ele><time>2026-04-18T07:53:27.444Z</time></trkpt><trkpt lat="43.5346573" lon="10.7371155"><ele>141.85714285714286</ele><time>2026-04-18T07:53:28.437Z</time></trkpt><trkpt lat="43.5347217" lon="10.7370782"><ele>141.14285714285717</ele><time>2026-04-18T07:53:29.441Z</time></trkpt><trkpt lat="43.534792" lon="10.7370442"><ele>140.42857142857144</ele><time>2026-04-18T07:53:30.444Z</time></trkpt><trkpt lat="43.5348654" lon="10.7370098"><ele>139.71428571428572</ele><time>2026-04-18T07:53:31.442Z</time></trkpt><trkpt lat="43.5349373" lon="10.736964"><ele>139.0</ele><time>2026-04-18T07:53:32.433Z</time></trkpt><trkpt lat="43.5350065" lon="10.7369099"><ele>138.83333333333334</ele><time>2026-04-18T07:53:33.448Z</time></trkpt><trkpt lat="43.5350735" lon="10.7368533"><ele>138.66666666666669</ele><time>2026-04-18T07:53:34.456Z</time></trkpt><trkpt lat="43.5351352" lon="10.736795"><ele>138.5</ele><time>2026-04-18T07:53:35.441Z</time></trkpt><trkpt lat="43.5352014" lon="10.7367374"><ele>138.33333333333334</ele><time>2026-04-18T07:53:36.437Z</time></trkpt><trkpt lat="43.5352711" lon="10.7366719"><ele>138.16666666666666</ele><time>2026-04-18T07:53:37.431Z</time></trkpt><trkpt lat="43.5353344" lon="10.7366145"><ele>138.0</ele><time>2026-04-18T07:53:38.44Z</time></trkpt><trkpt lat="43.5353997" lon="10.7365533"><ele>137.71428571428572</ele><time>2026-04-18T07:53:39.442Z</time></trkpt><trkpt lat="43.5354593" lon="10.7364923"><ele>137.42857142857144</ele><time>2026-04-18T07:53:40.447Z</time></trkpt><trkpt lat="43.53552" lon="10.7364294"><ele>137.14285714285714</ele><time>2026-04-18T07:53:41.434Z</time></trkpt><trkpt lat="43.535579" lon="10.7363678"><ele>136.85714285714286</ele><time>2026-04-18T07:53:42.443Z</time></trkpt><trkpt lat="43.5356373" lon="10.7363149"><ele>136.57142857142856</ele><time>2026-04-18T07:53:43.444Z</time></trkpt><trkpt lat="43.535693" lon="10.7362584"><ele>136.28571428571428</ele><time>2026-04-18T07:53:44.438Z</time></trkpt><trkpt lat="43.5357472" lon="10.7362082"><ele>136.0</ele><time>2026-04-18T07:53:45.441Z</time></trkpt><trkpt lat="43.5358044" lon="10.736159"><ele>136.0</ele><time>2026-04-18T07:53:46.445Z</time></trkpt><trkpt lat="43.5358608" lon="10.7361072"><ele>136.0</ele><time>2026-04-18T07:53:47.438Z</time></trkpt><trkpt lat="43.5359549" lon="10.7360178"><ele>136.0</ele><time>2026-04-18T07:53:49.448Z</time></trkpt><trkpt lat="43.536023" lon="10.7359546"><ele>136.0</ele><time>2026-04-18T07:53:52.443Z</time></trkpt><trkpt lat="43.5360825" lon="10.7359199"><ele>136.0</ele><time>2026-04-18T07:53:58.44Z</time></trkpt><trkpt lat="43.5361475" lon="10.7358629"><ele>136.0</ele><time>2026-04-18T07:54:05.446Z</time></trkpt><trkpt lat="43.5362159" lon="10.7357939"><ele>134.33333333333334</ele><time>2026-04-18T07:54:09.446Z</time></trkpt><trkpt lat="43.5362919" lon="10.7357253"><ele>132.66666666666669</ele><time>2026-04-18T07:54:12.452Z</time></trkpt><trkpt lat="43.5363558" lon="10.7356679"><ele>131.0</ele><time>2026-04-18T07:54:14.444Z</time></trkpt><trkpt lat="43.5364278" lon="10.7355853"><ele>129.33333333333334</ele><time>2026-04-18T07:54:16.442Z</time></trkpt><trkpt lat="43.536495" lon="10.735531"><ele>127.66666666666667</ele><time>2026-04-18T07:54:18.45Z</time></trkpt><trkpt lat="43.5365647" lon="10.7354679"><ele>126.0</ele><time>2026-04-18T07:54:21.462Z</time></trkpt><trkpt lat="43.5366319" lon="10.7354028"><ele>126.0</ele><time>2026-04-18T07:54:24.447Z</time></trkpt><trkpt lat="43.5367162" lon="10.7353268"><ele>126.0</ele><time>2026-04-18T07:54:27.45Z</time></trkpt><trkpt lat="43.5367989" lon="10.7352532"><ele>126.0</ele><time>2026-04-18T07:54:30.44Z</time></trkpt><trkpt lat="43.5368516" lon="10.7351952"><ele>126.0</ele><time>2026-04-18T07:54:32.454Z</time></trkpt><trkpt lat="43.5369125" lon="10.7351356"><ele>126.0</ele><time>2026-04-18T07:54:34.457Z</time></trkpt><trkpt lat="43.536967" lon="10.7350793"><ele>126.0</ele><time>2026-04-18T07:54:36.444Z</time></trkpt><trkpt lat="43.5370355" lon="10.7350075"><ele>125.33333333333333</ele><time>2026-04-18T07:54:38.443Z</time></trkpt><trkpt lat="43.5371059" lon="10.7349403"><ele>124.66666666666666</ele><time>2026-04-18T07:54:40.459Z</time></trkpt><trkpt lat="43.5371745" lon="10.7348746"><ele>124.0</ele><time>2026-04-18T07:54:42.439Z</time></trkpt><trkpt lat="43.5372422" lon="10.7348235"><ele>123.33333333333333</ele><time>2026-04-18T07:54:46.44Z</time></trkpt><trkpt lat="43.5373097" lon="10.7347437"><ele>122.66666666666666</ele><time>2026-04-18T07:54:49.442Z</time></trkpt><trkpt lat="43.5373901" lon="10.7346539"><ele>122.0</ele><time>2026-04-18T07:54:51.447Z</time></trkpt><trkpt lat="43.5374794" lon="10.7345626"><ele>122.0</ele><time>2026-04-18T07:54:53.439Z</time></trkpt><trkpt lat="43.53756" lon="10.7344658"><ele>121.99999999999999</ele><time>2026-04-18T07:54:55.438Z</time></trkpt><trkpt lat="43.5376379" lon="10.7343697"><ele>121.99999999999999</ele><time>2026-04-18T07:54:57.429Z</time></trkpt><trkpt lat="43.5377001" lon="10.7342629"><ele>122.0</ele><time>2026-04-18T07:54:59.436Z</time></trkpt><trkpt lat="43.537738" lon="10.73412"><ele>122.0</ele><time>2026-04-18T07:55:01.437Z</time></trkpt><trkpt lat="43.537761" lon="10.7339797"><ele>119.75</ele><time>2026-04-18T07:55:03.426Z</time></trkpt><trkpt lat="43.5377899" lon="10.7338171"><ele>117.5</ele><time>2026-04-18T07:55:05.437Z</time></trkpt><trkpt lat="43.5378137" lon="10.7336472"><ele>115.25</ele><time>2026-04-18T07:55:07.436Z</time></trkpt><trkpt lat="43.5378166" lon="10.7334925"><ele>113.0</ele><time>2026-04-18T07:55:09.432Z</time></trkpt><trkpt lat="43.5378039" lon="10.7333638"><ele>111.66666666666666</ele><time>2026-04-18T07:55:11.435Z</time></trkpt><trkpt lat="43.5377912" lon="10.7332644"><ele>110.33333333333333</ele><time>2026-04-18T07:55:13.436Z</time></trkpt><trkpt lat="43.5377745" lon="10.7331744"><ele>109.0</ele><time>2026-04-18T07:55:15.441Z</time></trkpt><trkpt lat="43.5377622" lon="10.7330878"><ele>107.66666666666666</ele><time>2026-04-18T07:55:17.435Z</time></trkpt><trkpt lat="43.5377474" lon="10.7329901"><ele>106.33333333333333</ele><time>2026-04-18T07:55:19.435Z</time></trkpt><trkpt lat="43.5377365" lon="10.7328663"><ele>105.0</ele><time>2026-04-18T07:55:21.435Z</time></trkpt><trkpt lat="43.537731" lon="10.7327432"><ele>103.8</ele><time>2026-04-18T07:55:23.437Z</time></trkpt><trkpt lat="43.5377292" lon="10.732609"><ele>102.6</ele><time>2026-04-18T07:55:25.443Z</time></trkpt><trkpt lat="43.5377363" lon="10.7324852"><ele>101.4</ele><time>2026-04-18T07:55:27.451Z</time></trkpt><trkpt lat="43.5377412" lon="10.7323627"><ele>100.2</ele><time>2026-04-18T07:55:29.43Z</time></trkpt><trkpt lat="43.5377632" lon="10.7322322"><ele>99.0</ele><time>2026-04-18T07:55:31.433Z</time></trkpt><trkpt lat="43.5378008" lon="10.7321067"><ele>99.0</ele><time>2026-04-18T07:55:33.443Z</time></trkpt><trkpt lat="43.5378424" lon="10.7320001"><ele>99.0</ele><time>2026-04-18T07:55:35.434Z</time></trkpt><trkpt lat="43.5378974" lon="10.7318884"><ele>99.0</ele><time>2026-04-18T07:55:37.435Z</time></trkpt><trkpt lat="43.5379544" lon="10.7317631"><ele>99.0</ele><time>2026-04-18T07:55:39.426Z</time></trkpt><trkpt lat="43.5380276" lon="10.7316543"><ele>99.0</ele><time>2026-04-18T07:55:41.44Z</time></trkpt><trkpt lat="43.5381127" lon="10.7315883"><ele>99.80000000000001</ele><time>2026-04-18T07:55:43.452Z</time></trkpt><trkpt lat="43.538195" lon="10.731528"><ele>100.60000000000001</ele><time>2026-04-18T07:55:45.429Z</time></trkpt><trkpt lat="43.5382781" lon="10.7314684"><ele>101.4</ele><time>2026-04-18T07:55:47.43Z</time></trkpt><trkpt lat="43.5383556" lon="10.731407"><ele>102.2</ele><time>2026-04-18T07:55:49.433Z</time></trkpt><trkpt lat="43.53844" lon="10.7313471"><ele>103.0</ele><time>2026-04-18T07:55:51.444Z</time></trkpt><trkpt lat="43.5385199" lon="10.7312811"><ele>103.0</ele><time>2026-04-18T07:55:53.438Z</time></trkpt><trkpt lat="43.5386126" lon="10.7312144"><ele>103.0</ele><time>2026-04-18T07:55:55.431Z</time></trkpt><trkpt lat="43.5387144" lon="10.7311371"><ele>103.0</ele><time>2026-04-18T07:55:57.425Z</time></trkpt><trkpt lat="43.5388139" lon="10.7310478"><ele>103.0</ele><time>2026-04-18T07:55:59.431Z</time></trkpt><trkpt lat="43.5388677" lon="10.7310013"><ele>103.0</ele><time>2026-04-18T07:56:00.441Z</time></trkpt><trkpt lat="43.5389681" lon="10.7309017"><ele>100.25</ele><time>2026-04-18T07:56:02.432Z</time></trkpt><trkpt lat="43.5390585" lon="10.7308099"><ele>97.5</ele><time>2026-04-18T07:56:04.417Z</time></trkpt><trkpt lat="43.539144" lon="10.7306925"><ele>94.75</ele><time>2026-04-18T07:56:06.425Z</time></trkpt><trkpt lat="43.5392266" lon="10.7305755"><ele>92.0</ele><time>2026-04-18T07:56:08.436Z</time></trkpt><trkpt lat="43.5392994" lon="10.7304467"><ele>92.0</ele><time>2026-04-18T07:56:10.431Z</time></trkpt><trkpt lat="43.5393717" lon="10.730332"><ele>92.0</ele><time>2026-04-18T07:56:12.439Z</time></trkpt><trkpt lat="43.539421" lon="10.7302521"><ele>92.0</ele><time>2026-04-18T07:56:14.43Z</time></trkpt><trkpt lat="43.5394677" lon="10.7301669"><ele>92.0</ele><time>2026-04-18T07:56:16.424Z</time></trkpt><trkpt lat="43.5395462" lon="10.7300534"><ele>92.0</ele><time>2026-04-18T07:56:18.438Z</time></trkpt><trkpt lat="43.5395924" lon="10.7299896"><ele>92.0</ele><time>2026-04-18T07:56:19.426Z</time></trkpt><trkpt lat="43.5396831" lon="10.7298902"><ele>89.66666666666667</ele><time>2026-04-18T07:56:21.425Z</time></trkpt><trkpt lat="43.5397658" lon="10.7298219"><ele>87.33333333333334</ele><time>2026-04-18T07:56:23.444Z</time></trkpt><trkpt lat="43.5398334" lon="10.7297886"><ele>85.0</ele><time>2026-04-18T07:56:25.442Z</time></trkpt><trkpt lat="43.539904" lon="10.7297448"><ele>82.66666666666667</ele><time>2026-04-18T07:56:27.435Z</time></trkpt><trkpt lat="43.5399893" lon="10.7297032"><ele>80.33333333333333</ele><time>2026-04-18T07:56:29.447Z</time></trkpt><trkpt lat="43.5400783" lon="10.7296531"><ele>78.0</ele><time>2026-04-18T07:56:31.447Z</time></trkpt><trkpt lat="43.540174" lon="10.7296045"><ele>78.0</ele><time>2026-04-18T07:56:33.444Z</time></trkpt><trkpt lat="43.5402704" lon="10.7295379"><ele>78.0</ele><time>2026-04-18T07:56:35.439Z</time></trkpt><trkpt lat="43.5403642" lon="10.7295144"><ele>78.0</ele><time>2026-04-18T07:56:37.432Z</time></trkpt><trkpt lat="43.5404273" lon="10.7295035"><ele>78.0</ele><time>2026-04-18T07:56:39.428Z</time></trkpt><trkpt lat="43.5405143" lon="10.7294934"><ele>78.0</ele><time>2026-04-18T07:56:42.412Z</time></trkpt><trkpt lat="43.5406009" lon="10.7294755"><ele>78.0</ele><time>2026-04-18T07:56:45.427Z</time></trkpt><trkpt lat="43.5406808" lon="10.7294482"><ele>76.33333333333333</ele><time>2026-04-18T07:56:48.426Z</time></trkpt><trkpt lat="43.5407642" lon="10.729379"><ele>74.66666666666667</ele><time>2026-04-18T07:56:51.428Z</time></trkpt><trkpt lat="43.5408152" lon="10.7292849"><ele>73.0</ele><time>2026-04-18T07:56:53.439Z</time></trkpt><trkpt lat="43.5408504" lon="10.729207"><ele>71.33333333333334</ele><time>2026-04-18T07:56:55.428Z</time></trkpt><trkpt lat="43.5408938" lon="10.729122"><ele>69.66666666666667</ele><time>2026-04-18T07:56:58.439Z</time></trkpt><trkpt lat="43.5409231" lon="10.7290282"><ele>68.0</ele><time>2026-04-18T07:57:01.43Z</time></trkpt><trkpt lat="43.5409458" lon="10.7289323"><ele>68.0</ele><time>2026-04-18T07:57:03.435Z</time></trkpt><trkpt lat="43.540974" lon="10.7288464"><ele>68.0</ele><time>2026-04-18T07:57:05.427Z</time></trkpt><trkpt lat="43.5410169" lon="10.7287456"><ele>68.0</ele><time>2026-04-18T07:57:07.443Z</time></trkpt><trkpt lat="43.5410506" lon="10.7286425"><ele>68.0</ele><time>2026-04-18T07:57:09.437Z</time></trkpt><trkpt lat="43.5410807" lon="10.7285403"><ele>68.0</ele><time>2026-04-18T07:57:11.431Z</time></trkpt><trkpt lat="43.5411136" lon="10.7284264"><ele>68.0</ele><time>2026-04-18T07:57:13.449Z</time></trkpt><trkpt lat="43.5411481" lon="10.7282967"><ele>66.83333333333334</ele><time>2026-04-18T07:57:15.438Z</time></trkpt><trkpt lat="43.5411953" lon="10.7281515"><ele>65.66666666666667</ele><time>2026-04-18T07:57:17.434Z</time></trkpt><trkpt lat="43.541222" lon="10.7280695"><ele>64.5</ele><time>2026-04-18T07:57:18.437Z</time></trkpt><trkpt lat="43.541256" lon="10.7279916"><ele>63.33333333333333</ele><time>2026-04-18T07:57:19.451Z</time></trkpt><trkpt lat="43.5412875" lon="10.7279023"><ele>62.166666666666664</ele><time>2026-04-18T07:57:20.44Z</time></trkpt><trkpt lat="43.541315" lon="10.7277816"><ele>61.0</ele><time>2026-04-18T07:57:21.441Z</time></trkpt><trkpt lat="43.5413428" lon="10.7276234"><ele>60.33333333333333</ele><time>2026-04-18T07:57:22.444Z</time></trkpt><trkpt lat="43.5413587" lon="10.7274867"><ele>59.666666666666664</ele><time>2026-04-18T07:57:23.441Z</time></trkpt><trkpt lat="43.5413775" lon="10.7273685"><ele>59.0</ele><time>2026-04-18T07:57:24.451Z</time></trkpt><trkpt lat="43.5414094" lon="10.7272735"><ele>58.33333333333333</ele><time>2026-04-18T07:57:25.441Z</time></trkpt><trkpt lat="43.5414561" lon="10.7271888"><ele>57.666666666666664</ele><time>2026-04-18T07:57:26.44Z</time></trkpt><trkpt lat="43.5414973" lon="10.7271167"><ele>57.0</ele><time>2026-04-18T07:57:27.431Z</time></trkpt><trkpt lat="43.5415729" lon="10.7269926"><ele>57.333333333333336</ele><time>2026-04-18T07:57:29.441Z</time></trkpt><trkpt lat="43.54165" lon="10.7268654"><ele>57.66666666666667</ele><time>2026-04-18T07:57:31.437Z</time></trkpt><trkpt lat="43.5417287" lon="10.7267493"><ele>58.0</ele><time>2026-04-18T07:57:33.452Z</time></trkpt><trkpt lat="43.5417707" lon="10.7266821"><ele>58.333333333333336</ele><time>2026-04-18T07:57:34.457Z</time></trkpt><trkpt lat="43.5418156" lon="10.7266133"><ele>58.66666666666667</ele><time>2026-04-18T07:57:35.44Z</time></trkpt><trkpt lat="43.5418617" lon="10.7265414"><ele>59.0</ele><time>2026-04-18T07:57:36.434Z</time></trkpt><trkpt lat="43.5419073" lon="10.7264678"><ele>59.00000000000001</ele><time>2026-04-18T07:57:37.439Z</time></trkpt><trkpt lat="43.5419551" lon="10.7263898"><ele>59.0</ele><time>2026-04-18T07:57:38.443Z</time></trkpt><trkpt lat="43.5420094" lon="10.726303"><ele>59.0</ele><time>2026-04-18T07:57:39.429Z</time></trkpt><trkpt lat="43.5420652" lon="10.7262119"><ele>59.0</ele><time>2026-04-18T07:57:40.439Z</time></trkpt><trkpt lat="43.5421181" lon="10.7261353"><ele>59.00000000000001</ele><time>2026-04-18T07:57:41.423Z</time></trkpt><trkpt lat="43.5421652" lon="10.7260629"><ele>59.0</ele><time>2026-04-18T07:57:42.453Z</time></trkpt><trkpt lat="43.5422113" lon="10.7259909"><ele>60.16666666666667</ele><time>2026-04-18T07:57:43.437Z</time></trkpt><trkpt lat="43.5422617" lon="10.7259207"><ele>61.333333333333336</ele><time>2026-04-18T07:57:44.447Z</time></trkpt><trkpt lat="43.5423047" lon="10.725857"><ele>62.5</ele><time>2026-04-18T07:57:45.441Z</time></trkpt><trkpt lat="43.5423492" lon="10.7257932"><ele>63.66666666666667</ele><time>2026-04-18T07:57:46.443Z</time></trkpt><trkpt lat="43.5424099" lon="10.7257084"><ele>64.83333333333333</ele><time>2026-04-18T07:57:48.442Z</time></trkpt><trkpt lat="43.5424833" lon="10.7256493"><ele>66.0</ele><time>2026-04-18T07:57:50.436Z</time></trkpt><trkpt lat="43.5425717" lon="10.7256543"><ele>66.0</ele><time>2026-04-18T07:57:52.441Z</time></trkpt><trkpt lat="43.5426885" lon="10.7256633"><ele>66.0</ele><time>2026-04-18T07:57:54.438Z</time></trkpt><trkpt lat="43.5427822" lon="10.725599"><ele>66.0</ele><time>2026-04-18T07:57:56.441Z</time></trkpt><trkpt lat="43.5428464" lon="10.7254648"><ele>66.0</ele><time>2026-04-18T07:57:58.442Z</time></trkpt><trkpt lat="43.5428892" lon="10.7253242"><ele>66.0</ele><time>2026-04-18T07:58:00.444Z</time></trkpt><trkpt lat="43.5429234" lon="10.7251961"><ele>71.8</ele><time>2026-04-18T07:58:02.447Z</time></trkpt><trkpt lat="43.5429467" lon="10.7250764"><ele>77.6</ele><time>2026-04-18T07:58:04.449Z</time></trkpt><trkpt lat="43.5429685" lon="10.7249519"><ele>83.4</ele><time>2026-04-18T07:58:06.434Z</time></trkpt><trkpt lat="43.542983" lon="10.7248035"><ele>89.2</ele><time>2026-04-18T07:58:08.446Z</time></trkpt><trkpt lat="43.5430089" lon="10.7246555"><ele>95.0</ele><time>2026-04-18T07:58:10.443Z</time></trkpt><trkpt lat="43.5430755" lon="10.7245423"><ele>95.0</ele><time>2026-04-18T07:58:12.446Z</time></trkpt><trkpt lat="43.5431863" lon="10.7244693"><ele>95.0</ele><time>2026-04-18T07:58:14.413Z</time></trkpt><trkpt lat="43.5432563" lon="10.7244398"><ele>95.0</ele><time>2026-04-18T07:58:15.43Z</time></trkpt><trkpt lat="43.543325" lon="10.7244082"><ele>95.0</ele><time>2026-04-18T07:58:16.438Z</time></trkpt><trkpt lat="43.5433783" lon="10.7243617"><ele>95.0</ele><time>2026-04-18T07:58:17.433Z</time></trkpt><trkpt lat="43.5434226" lon="10.7242994"><ele>95.0</ele><time>2026-04-18T07:58:18.458Z</time></trkpt><trkpt lat="43.5434789" lon="10.7241399"><ele>95.5</ele><time>2026-04-18T07:58:20.446Z</time></trkpt><trkpt lat="43.5435057" lon="10.7240538"><ele>96.0</ele><time>2026-04-18T07:58:21.424Z</time></trkpt><trkpt lat="43.54354" lon="10.7239704"><ele>96.5</ele><time>2026-04-18T07:58:22.426Z</time></trkpt><trkpt lat="43.5436261" lon="10.7238405"><ele>97.0</ele><time>2026-04-18T07:58:24.432Z</time></trkpt><trkpt lat="43.543682" lon="10.723785"><ele>97.49999999999999</ele><time>2026-04-18T07:58:25.429Z</time></trkpt><trkpt lat="43.543737" lon="10.7237259"><ele>98.0</ele><time>2026-04-18T07:58:26.442Z</time></trkpt><trkpt lat="43.5437876" lon="10.7236648"><ele>101.80000000000001</ele><time>2026-04-18T07:58:27.434Z</time></trkpt><trkpt lat="43.5438671" lon="10.7235374"><ele>105.6</ele><time>2026-04-18T07:58:29.431Z</time></trkpt><trkpt lat="43.5439362" lon="10.7234043"><ele>109.39999999999999</ele><time>2026-04-18T07:58:31.435Z</time></trkpt><trkpt lat="43.5439841" lon="10.7232811"><ele>113.19999999999999</ele><time>2026-04-18T07:58:33.44Z</time></trkpt><trkpt lat="43.5440174" lon="10.723166"><ele>117.0</ele><time>2026-04-18T07:58:37.435Z</time></trkpt><trkpt lat="43.5440379" lon="10.7230717"><ele>117.0</ele><time>2026-04-18T07:58:39.442Z</time></trkpt><trkpt lat="43.5440666" lon="10.722937"><ele>117.0</ele><time>2026-04-18T07:58:41.435Z</time></trkpt><trkpt lat="43.5440968" lon="10.7228601"><ele>117.0</ele><time>2026-04-18T07:58:42.433Z</time></trkpt><trkpt lat="43.5441448" lon="10.722702"><ele>117.0</ele><time>2026-04-18T07:58:44.438Z</time></trkpt><trkpt lat="43.54418" lon="10.7226183"><ele>117.0</ele><time>2026-04-18T07:58:45.443Z</time></trkpt><trkpt lat="43.5442183" lon="10.7225278"><ele>117.0</ele><time>2026-04-18T07:58:46.448Z</time></trkpt><trkpt lat="43.544255" lon="10.7224326"><ele>117.42857142857143</ele><time>2026-04-18T07:58:47.444Z</time></trkpt><trkpt lat="43.5443005" lon="10.7223398"><ele>117.85714285714286</ele><time>2026-04-18T07:58:48.435Z</time></trkpt><trkpt lat="43.544341" lon="10.7222548"><ele>118.28571428571429</ele><time>2026-04-18T07:58:49.443Z</time></trkpt><trkpt lat="43.5443776" lon="10.7221776"><ele>118.71428571428572</ele><time>2026-04-18T07:58:50.443Z</time></trkpt><trkpt lat="43.5444108" lon="10.7221011"><ele>119.14285714285714</ele><time>2026-04-18T07:58:51.437Z</time></trkpt><trkpt lat="43.5444559" lon="10.7220352"><ele>119.57142857142858</ele><time>2026-04-18T07:58:52.443Z</time></trkpt><trkpt lat="43.5445053" lon="10.7219642"><ele>120.0</ele><time>2026-04-18T07:58:53.435Z</time></trkpt><trkpt lat="43.5445587" lon="10.7218978"><ele>120.0</ele><time>2026-04-18T07:58:54.437Z</time></trkpt><trkpt lat="43.5446139" lon="10.7218239"><ele>120.0</ele><time>2026-04-18T07:58:55.44Z</time></trkpt><trkpt lat="43.5446739" lon="10.7217505"><ele>120.0</ele><time>2026-04-18T07:58:56.449Z</time></trkpt><trkpt lat="43.5447374" lon="10.7216878"><ele>120.0</ele><time>2026-04-18T07:58:57.44Z</time></trkpt><trkpt lat="43.5448167" lon="10.7216384"><ele>120.0</ele><time>2026-04-18T07:58:58.436Z</time></trkpt><trkpt lat="43.5449018" lon="10.7216026"><ele>120.0</ele><time>2026-04-18T07:58:59.433Z</time></trkpt><trkpt lat="43.5449864" lon="10.7215793"><ele>120.0</ele><time>2026-04-18T07:59:00.438Z</time></trkpt><trkpt lat="43.545076" lon="10.7215507"><ele>120.0</ele><time>2026-04-18T07:59:01.441Z</time></trkpt><trkpt lat="43.5451604" lon="10.7215177"><ele>120.0</ele><time>2026-04-18T07:59:02.444Z</time></trkpt><trkpt lat="43.5452425" lon="10.7214767"><ele>120.0</ele><time>2026-04-18T07:59:03.429Z</time></trkpt><trkpt lat="43.5453254" lon="10.7214369"><ele>120.0</ele><time>2026-04-18T07:59:04.446Z</time></trkpt><trkpt lat="43.5454083" lon="10.7213945"><ele>120.0</ele><time>2026-04-18T07:59:05.429Z</time></trkpt><trkpt lat="43.5454856" lon="10.7213593"><ele>119.5</ele><time>2026-04-18T07:59:06.439Z</time></trkpt><trkpt lat="43.5455612" lon="10.7213274"><ele>119.0</ele><time>2026-04-18T07:59:07.438Z</time></trkpt><trkpt lat="43.5456286" lon="10.7212934"><ele>118.5</ele><time>2026-04-18T07:59:08.442Z</time></trkpt><trkpt lat="43.5457318" lon="10.7212421"><ele>118.0</ele><time>2026-04-18T07:59:10.445Z</time></trkpt><trkpt lat="43.5457918" lon="10.7211747"><ele>117.5</ele><time>2026-04-18T07:59:13.431Z</time></trkpt><trkpt lat="43.5457843" lon="10.7210824"><ele>117.0</ele><time>2026-04-18T07:59:15.426Z</time></trkpt><trkpt lat="43.5457146" lon="10.7209748"><ele>117.66666666666667</ele><time>2026-04-18T07:59:17.43Z</time></trkpt><trkpt lat="43.5456557" lon="10.720919"><ele>118.33333333333334</ele><time>2026-04-18T07:59:18.447Z</time></trkpt><trkpt lat="43.5455851" lon="10.720861"><ele>119.0</ele><time>2026-04-18T07:59:19.433Z</time></trkpt><trkpt lat="43.5455037" lon="10.7208065"><ele>119.66666666666667</ele><time>2026-04-18T07:59:20.443Z</time></trkpt><trkpt lat="43.5454153" lon="10.7207719"><ele>120.33333333333334</ele><time>2026-04-18T07:59:21.429Z</time></trkpt><trkpt lat="43.5453227" lon="10.7207446"><ele>121.0</ele><time>2026-04-18T07:59:22.442Z</time></trkpt><trkpt lat="43.5452418" lon="10.7207163"><ele>121.00000000000001</ele><time>2026-04-18T07:59:23.424Z</time></trkpt><trkpt lat="43.5451659" lon="10.7206842"><ele>121.0</ele><time>2026-04-18T07:59:24.445Z</time></trkpt><trkpt lat="43.5450975" lon="10.7206517"><ele>121.0</ele><time>2026-04-18T07:59:25.446Z</time></trkpt><trkpt lat="43.5450234" lon="10.7205486"><ele>121.0</ele><time>2026-04-18T07:59:27.428Z</time></trkpt><trkpt lat="43.5450277" lon="10.7203928"><ele>121.00000000000001</ele><time>2026-04-18T07:59:29.435Z</time></trkpt><trkpt lat="43.545062" lon="10.7202991"><ele>121.0</ele><time>2026-04-18T07:59:30.441Z</time></trkpt><trkpt lat="43.5451276" lon="10.7201935"><ele>120.5</ele><time>2026-04-18T07:59:31.438Z</time></trkpt><trkpt lat="43.5452202" lon="10.7200757"><ele>120.0</ele><time>2026-04-18T07:59:32.453Z</time></trkpt><trkpt lat="43.5453002" lon="10.719966"><ele>119.5</ele><time>2026-04-18T07:59:33.437Z</time></trkpt><trkpt lat="43.545385" lon="10.7198658"><ele>119.0</ele><time>2026-04-18T07:59:34.428Z</time></trkpt><trkpt lat="43.5454738" lon="10.7197725"><ele>119.0</ele><time>2026-04-18T07:59:35.444Z</time></trkpt><trkpt lat="43.5455596" lon="10.7197057"><ele>119.0</ele><time>2026-04-18T07:59:36.436Z</time></trkpt><trkpt lat="43.5456486" lon="10.7196751"><ele>119.0</ele><time>2026-04-18T07:59:37.422Z</time></trkpt><trkpt lat="43.5457356" lon="10.7196491"><ele>119.0</ele><time>2026-04-18T07:59:38.443Z</time></trkpt><trkpt lat="43.545822" lon="10.7196205"><ele>119.0</ele><time>2026-04-18T07:59:39.445Z</time></trkpt><trkpt lat="43.5459074" lon="10.7195943"><ele>118.99999999999999</ele><time>2026-04-18T07:59:40.434Z</time></trkpt><trkpt lat="43.5459978" lon="10.7195648"><ele>119.0</ele><time>2026-04-18T07:59:41.427Z</time></trkpt><trkpt lat="43.5460861" lon="10.7195326"><ele>119.0</ele><time>2026-04-18T07:59:42.435Z</time></trkpt><trkpt lat="43.54617" lon="10.7194943"><ele>119.0</ele><time>2026-04-18T07:59:43.432Z</time></trkpt><trkpt lat="43.5462468" lon="10.719459"><ele>118.99999999999999</ele><time>2026-04-18T07:59:44.441Z</time></trkpt><trkpt lat="43.5463206" lon="10.7194239"><ele>119.0</ele><time>2026-04-18T07:59:45.432Z</time></trkpt><trkpt lat="43.5463892" lon="10.7193985"><ele>117.2</ele><time>2026-04-18T07:59:46.432Z</time></trkpt><trkpt lat="43.546468" lon="10.7193837"><ele>115.4</ele><time>2026-04-18T07:59:48.436Z</time></trkpt><trkpt lat="43.5465603" lon="10.7193759"><ele>113.6</ele><time>2026-04-18T07:59:51.439Z</time></trkpt><trkpt lat="43.5466814" lon="10.7193863"><ele>111.8</ele><time>2026-04-18T07:59:53.421Z</time></trkpt><trkpt lat="43.5467688" lon="10.7193861"><ele>110.0</ele><time>2026-04-18T07:59:54.429Z</time></trkpt><trkpt lat="43.5468619" lon="10.7193825"><ele>110.0</ele><time>2026-04-18T07:59:55.432Z</time></trkpt><trkpt lat="43.5469469" lon="10.7193651"><ele>110.0</ele><time>2026-04-18T07:59:56.437Z</time></trkpt><trkpt lat="43.5470325" lon="10.719355"><ele>110.0</ele><time>2026-04-18T07:59:57.424Z</time></trkpt><trkpt lat="43.5471259" lon="10.7193536"><ele>110.0</ele><time>2026-04-18T07:59:58.44Z</time></trkpt><trkpt lat="43.5472179" lon="10.7193491"><ele>110.0</ele><time>2026-04-18T07:59:59.419Z</time></trkpt><trkpt lat="43.5473136" lon="10.7193469"><ele>109.6</ele><time>2026-04-18T08:00:00.442Z</time></trkpt><trkpt lat="43.547415" lon="10.7193411"><ele>109.2</ele><time>2026-04-18T08:00:01.434Z</time></trkpt><trkpt lat="43.5475152" lon="10.7193398"><ele>108.80000000000001</ele><time>2026-04-18T08:00:02.431Z</time></trkpt><trkpt lat="43.547619" lon="10.7193391"><ele>108.4</ele><time>2026-04-18T08:00:03.431Z</time></trkpt><trkpt lat="43.5477264" lon="10.7193394"><ele>108.0</ele><time>2026-04-18T08:00:04.438Z</time></trkpt><trkpt lat="43.5478372" lon="10.7193379"><ele>109.2</ele><time>2026-04-18T08:00:05.434Z</time></trkpt><trkpt lat="43.5479437" lon="10.7193271"><ele>110.4</ele><time>2026-04-18T08:00:06.435Z</time></trkpt><trkpt lat="43.5480479" lon="10.7193218"><ele>111.60000000000001</ele><time>2026-04-18T08:00:07.434Z</time></trkpt><trkpt lat="43.5481509" lon="10.7193167"><ele>112.80000000000001</ele><time>2026-04-18T08:00:08.422Z</time></trkpt><trkpt lat="43.5482561" lon="10.719316"><ele>114.0</ele><time>2026-04-18T08:00:09.427Z</time></trkpt><trkpt lat="43.5483629" lon="10.7193123"><ele>114.0</ele><time>2026-04-18T08:00:10.434Z</time></trkpt><trkpt lat="43.5484717" lon="10.7193083"><ele>114.0</ele><time>2026-04-18T08:00:11.422Z</time></trkpt><trkpt lat="43.5485839" lon="10.7193078"><ele>114.0</ele><time>2026-04-18T08:00:12.416Z</time></trkpt><trkpt lat="43.5486938" lon="10.7193051"><ele>114.0</ele><time>2026-04-18T08:00:13.425Z</time></trkpt><trkpt lat="43.5488084" lon="10.7193167"><ele>114.0</ele><time>2026-04-18T08:00:14.431Z</time></trkpt><trkpt lat="43.5489166" lon="10.7193379"><ele>114.4</ele><time>2026-04-18T08:00:15.429Z</time></trkpt><trkpt lat="43.5490223" lon="10.7193799"><ele>114.80000000000001</ele><time>2026-04-18T08:00:16.436Z</time></trkpt><trkpt lat="43.54912" lon="10.7194288"><ele>115.19999999999999</ele><time>2026-04-18T08:00:17.423Z</time></trkpt><trkpt lat="43.5492043" lon="10.7194791"><ele>115.6</ele><time>2026-04-18T08:00:18.428Z</time></trkpt><trkpt lat="43.549269" lon="10.7195469"><ele>116.0</ele><time>2026-04-18T08:00:19.427Z</time></trkpt><trkpt lat="43.5493257" lon="10.7196218"><ele>117.16666666666666</ele><time>2026-04-18T08:00:20.426Z</time></trkpt><trkpt lat="43.5493743" lon="10.7196963"><ele>118.33333333333333</ele><time>2026-04-18T08:00:21.426Z</time></trkpt><trkpt lat="43.549419" lon="10.7197891"><ele>119.5</ele><time>2026-04-18T08:00:22.426Z</time></trkpt><trkpt lat="43.5494652" lon="10.7198683"><ele>120.66666666666666</ele><time>2026-04-18T08:00:23.417Z</time></trkpt><trkpt lat="43.5495051" lon="10.7199419"><ele>121.83333333333333</ele><time>2026-04-18T08:00:24.425Z</time></trkpt><trkpt lat="43.5495953" lon="10.7200788"><ele>123.0</ele><time>2026-04-18T08:00:26.447Z</time></trkpt><trkpt lat="43.5496448" lon="10.720158"><ele>123.83333333333333</ele><time>2026-04-18T08:00:27.431Z</time></trkpt><trkpt lat="43.549682" lon="10.7202576"><ele>124.66666666666666</ele><time>2026-04-18T08:00:28.446Z</time></trkpt><trkpt lat="43.5497068" lon="10.7203639"><ele>125.5</ele><time>2026-04-18T08:00:29.44Z</time></trkpt><trkpt lat="43.5497119" lon="10.7204803"><ele>126.33333333333333</ele><time>2026-04-18T08:00:30.434Z</time></trkpt><trkpt lat="43.5497049" lon="10.7205909"><ele>127.16666666666666</ele><time>2026-04-18T08:00:31.434Z</time></trkpt><trkpt lat="43.5497006" lon="10.7207106"><ele>128.0</ele><time>2026-04-18T08:00:32.438Z</time></trkpt><trkpt lat="43.5496943" lon="10.7208384"><ele>127.99999999999999</ele><time>2026-04-18T08:00:33.438Z</time></trkpt><trkpt lat="43.5496852" lon="10.7209626"><ele>128.0</ele><time>2026-04-18T08:00:34.446Z</time></trkpt><trkpt lat="43.5496816" lon="10.7210674"><ele>128.0</ele><time>2026-04-18T08:00:35.436Z</time></trkpt><trkpt lat="43.5496713" lon="10.7211539"><ele>128.0</ele><time>2026-04-18T08:00:36.442Z</time></trkpt><trkpt lat="43.5496205" lon="10.7212652"><ele>127.99999999999999</ele><time>2026-04-18T08:00:38.438Z</time></trkpt><trkpt lat="43.5495832" lon="10.7213472"><ele>128.0</ele><time>2026-04-18T08:00:40.426Z</time></trkpt><trkpt lat="43.5495818" lon="10.72147"><ele>129.20000000000002</ele><time>2026-04-18T08:00:42.441Z</time></trkpt><trkpt lat="43.5496438" lon="10.7216286"><ele>130.4</ele><time>2026-04-18T08:00:44.434Z</time></trkpt><trkpt lat="43.5496741" lon="10.7217211"><ele>131.60000000000002</ele><time>2026-04-18T08:00:45.42Z</time></trkpt><trkpt lat="43.5497077" lon="10.7218193"><ele>132.8</ele><time>2026-04-18T08:00:46.435Z</time></trkpt><trkpt lat="43.5497464" lon="10.7219301"><ele>134.0</ele><time>2026-04-18T08:00:47.428Z</time></trkpt><trkpt lat="43.549786" lon="10.7220516"><ele>133.83333333333331</ele><time>2026-04-18T08:00:48.433Z</time></trkpt><trkpt lat="43.5498195" lon="10.7221732"><ele>133.66666666666666</ele><time>2026-04-18T08:00:49.439Z</time></trkpt><trkpt lat="43.5498501" lon="10.7222945"><ele>133.5</ele><time>2026-04-18T08:00:50.433Z</time></trkpt><trkpt lat="43.549876" lon="10.7224133"><ele>133.33333333333334</ele><time>2026-04-18T08:00:51.433Z</time></trkpt><trkpt lat="43.5498904" lon="10.7225281"><ele>133.16666666666669</ele><time>2026-04-18T08:00:52.432Z</time></trkpt><trkpt lat="43.5498824" lon="10.7226391"><ele>133.0</ele><time>2026-04-18T08:00:53.438Z</time></trkpt><trkpt lat="43.5498705" lon="10.7227495"><ele>133.0</ele><time>2026-04-18T08:00:54.433Z</time></trkpt><trkpt lat="43.5498701" lon="10.7228553"><ele>133.0</ele><time>2026-04-18T08:00:55.428Z</time></trkpt><trkpt lat="43.5498893" lon="10.7229642"><ele>133.0</ele><time>2026-04-18T08:00:56.432Z</time></trkpt><trkpt lat="43.5499313" lon="10.7230794"><ele>133.0</ele><time>2026-04-18T08:00:57.436Z</time></trkpt><trkpt lat="43.5499709" lon="10.7231922"><ele>133.0</ele><time>2026-04-18T08:00:58.447Z</time></trkpt><trkpt lat="43.5500078" lon="10.7233128"><ele>133.0</ele><time>2026-04-18T08:00:59.442Z</time></trkpt><trkpt lat="43.5500257" lon="10.7234386"><ele>131.16666666666669</ele><time>2026-04-18T08:01:00.424Z</time></trkpt><trkpt lat="43.5500385" lon="10.723565"><ele>129.33333333333334</ele><time>2026-04-18T08:01:01.424Z</time></trkpt><trkpt lat="43.550051" lon="10.723687"><ele>127.5</ele><time>2026-04-18T08:01:02.421Z</time></trkpt><trkpt lat="43.5500805" lon="10.7237967"><ele>125.66666666666666</ele><time>2026-04-18T08:01:03.445Z</time></trkpt><trkpt lat="43.5501136" lon="10.7239041"><ele>123.83333333333333</ele><time>2026-04-18T08:01:04.439Z</time></trkpt><trkpt lat="43.5501608" lon="10.7239912"><ele>122.0</ele><time>2026-04-18T08:01:05.436Z</time></trkpt><trkpt lat="43.5502036" lon="10.7240723"><ele>121.99999999999999</ele><time>2026-04-18T08:01:06.436Z</time></trkpt><trkpt lat="43.5502593" lon="10.7241352"><ele>122.0</ele><time>2026-04-18T08:01:07.424Z</time></trkpt><trkpt lat="43.5503211" lon="10.7241907"><ele>122.0</ele><time>2026-04-18T08:01:08.437Z</time></trkpt><trkpt lat="43.5503857" lon="10.7242407"><ele>122.0</ele><time>2026-04-18T08:01:09.418Z</time></trkpt><trkpt lat="43.5504567" lon="10.7242781"><ele>121.99999999999999</ele><time>2026-04-18T08:01:10.427Z</time></trkpt><trkpt lat="43.5505364" lon="10.724286"><ele>122.0</ele><time>2026-04-18T08:01:11.431Z</time></trkpt><trkpt lat="43.5506278" lon="10.7242985"><ele>123.0</ele><time>2026-04-18T08:01:12.435Z</time></trkpt><trkpt lat="43.5507326" lon="10.724315"><ele>124.0</ele><time>2026-04-18T08:01:13.425Z</time></trkpt><trkpt lat="43.5508487" lon="10.7243314"><ele>125.0</ele><time>2026-04-18T08:01:14.419Z</time></trkpt><trkpt lat="43.5509715" lon="10.7243678"><ele>126.0</ele><time>2026-04-18T08:01:15.447Z</time></trkpt><trkpt lat="43.5510954" lon="10.7244108"><ele>119.75</ele><time>2026-04-18T08:01:16.438Z</time></trkpt><trkpt lat="43.5512224" lon="10.7244487"><ele>113.5</ele><time>2026-04-18T08:01:17.427Z</time></trkpt><trkpt lat="43.5513434" lon="10.7244902"><ele>107.25</ele><time>2026-04-18T08:01:18.431Z</time></trkpt><trkpt lat="43.5514581" lon="10.7245384"><ele>101.0</ele><time>2026-04-18T08:01:19.437Z</time></trkpt><trkpt lat="43.5515696" lon="10.7245775"><ele>101.0</ele><time>2026-04-18T08:01:20.431Z</time></trkpt><trkpt lat="43.5516851" lon="10.7246105"><ele>101.0</ele><time>2026-04-18T08:01:21.424Z</time></trkpt><trkpt lat="43.5518005" lon="10.7246224"><ele>101.0</ele><time>2026-04-18T08:01:22.435Z</time></trkpt><trkpt lat="43.5519245" lon="10.7246188"><ele>101.0</ele><time>2026-04-18T08:01:23.436Z</time></trkpt><trkpt lat="43.5520451" lon="10.7246103"><ele>99.5</ele><time>2026-04-18T08:01:24.441Z</time></trkpt><trkpt lat="43.5521774" lon="10.7245874"><ele>98.0</ele><time>2026-04-18T08:01:25.428Z</time></trkpt><trkpt lat="43.5523035" lon="10.7245721"><ele>96.5</ele><time>2026-04-18T08:01:26.442Z</time></trkpt><trkpt lat="43.5524288" lon="10.724561"><ele>95.0</ele><time>2026-04-18T08:01:27.43Z</time></trkpt><trkpt lat="43.5525571" lon="10.7245695"><ele>95.0</ele><time>2026-04-18T08:01:28.433Z</time></trkpt><trkpt lat="43.5526942" lon="10.7245941"><ele>95.0</ele><time>2026-04-18T08:01:29.443Z</time></trkpt><trkpt lat="43.5528306" lon="10.7246229"><ele>95.0</ele><time>2026-04-18T08:01:30.425Z</time></trkpt><trkpt lat="43.5529761" lon="10.7246574"><ele>95.0</ele><time>2026-04-18T08:01:31.441Z</time></trkpt><trkpt lat="43.5531238" lon="10.7246936"><ele>92.0</ele><time>2026-04-18T08:01:32.439Z</time></trkpt><trkpt lat="43.5532807" lon="10.7247273"><ele>89.0</ele><time>2026-04-18T08:01:33.43Z</time></trkpt><trkpt lat="43.553447" lon="10.7247605"><ele>86.0</ele><time>2026-04-18T08:01:34.446Z</time></trkpt><trkpt lat="43.5536174" lon="10.7247964"><ele>84.33333333333334</ele><time>2026-04-18T08:01:35.435Z</time></trkpt><trkpt lat="43.5537862" lon="10.7248317"><ele>82.66666666666667</ele><time>2026-04-18T08:01:36.423Z</time></trkpt><trkpt lat="43.5539587" lon="10.7248688"><ele>81.0</ele><time>2026-04-18T08:01:37.432Z</time></trkpt><trkpt lat="43.5541448" lon="10.7249003"><ele>81.0</ele><time>2026-04-18T08:01:38.431Z</time></trkpt><trkpt lat="43.5543382" lon="10.7249187"><ele>81.0</ele><time>2026-04-18T08:01:39.429Z</time></trkpt><trkpt lat="43.5545459" lon="10.7249222"><ele>81.0</ele><time>2026-04-18T08:01:40.436Z</time></trkpt><trkpt lat="43.5547571" lon="10.7249031"><ele>78.0</ele><time>2026-04-18T08:01:41.431Z</time></trkpt><trkpt lat="43.5549516" lon="10.7248927"><ele>75.0</ele><time>2026-04-18T08:01:42.444Z</time></trkpt><trkpt lat="43.5551406" lon="10.7248868"><ele>72.0</ele><time>2026-04-18T08:01:43.44Z</time></trkpt><trkpt lat="43.5553276" lon="10.7248906"><ele>70.33333333333333</ele><time>2026-04-18T08:01:44.431Z</time></trkpt><trkpt lat="43.5555136" lon="10.724888"><ele>68.66666666666666</ele><time>2026-04-18T08:01:45.432Z</time></trkpt><trkpt lat="43.5556978" lon="10.7248889"><ele>67.0</ele><time>2026-04-18T08:01:46.439Z</time></trkpt><trkpt lat="43.5558908" lon="10.7249044"><ele>67.0</ele><time>2026-04-18T08:01:47.436Z</time></trkpt><trkpt lat="43.5560751" lon="10.7249376"><ele>67.0</ele><time>2026-04-18T08:01:48.447Z</time></trkpt><trkpt lat="43.5562553" lon="10.7249966"><ele>67.0</ele><time>2026-04-18T08:01:49.42Z</time></trkpt><trkpt lat="43.5564339" lon="10.7250628"><ele>66.33333333333333</ele><time>2026-04-18T08:01:50.438Z</time></trkpt><trkpt lat="43.5566059" lon="10.7251246"><ele>65.66666666666667</ele><time>2026-04-18T08:01:51.424Z</time></trkpt><trkpt lat="43.5567706" lon="10.7251891"><ele>65.0</ele><time>2026-04-18T08:01:52.438Z</time></trkpt><trkpt lat="43.5569275" lon="10.7252453"><ele>60.0</ele><time>2026-04-18T08:01:53.438Z</time></trkpt><trkpt lat="43.5570831" lon="10.7253221"><ele>55.0</ele><time>2026-04-18T08:01:54.434Z</time></trkpt><trkpt lat="43.5572346" lon="10.7254533"><ele>50.0</ele><time>2026-04-18T08:01:55.426Z</time></trkpt><trkpt lat="43.5573677" lon="10.7256042"><ele>50.0</ele><time>2026-04-18T08:01:56.426Z</time></trkpt><trkpt lat="43.5574973" lon="10.7257894"><ele>50.0</ele><time>2026-04-18T08:01:57.425Z</time></trkpt><trkpt lat="43.5576118" lon="10.725973"><ele>50.0</ele><time>2026-04-18T08:01:58.426Z</time></trkpt><trkpt lat="43.5577296" lon="10.7261606"><ele>49.333333333333336</ele><time>2026-04-18T08:01:59.429Z</time></trkpt><trkpt lat="43.5578377" lon="10.7263366"><ele>48.66666666666667</ele><time>2026-04-18T08:02:00.438Z</time></trkpt><trkpt lat="43.5579467" lon="10.7265126"><ele>48.0</ele><time>2026-04-18T08:02:01.424Z</time></trkpt><trkpt lat="43.558062" lon="10.7266886"><ele>47.666666666666664</ele><time>2026-04-18T08:02:02.439Z</time></trkpt><trkpt lat="43.5581814" lon="10.7268699"><ele>47.33333333333333</ele><time>2026-04-18T08:02:03.421Z</time></trkpt><trkpt lat="43.5582961" lon="10.7270548"><ele>47.0</ele><time>2026-04-18T08:02:04.445Z</time></trkpt><trkpt lat="43.55841" lon="10.7272372"><ele>47.0</ele><time>2026-04-18T08:02:05.459Z</time></trkpt><trkpt lat="43.5585202" lon="10.7274193"><ele>47.0</ele><time>2026-04-18T08:02:06.449Z</time></trkpt><trkpt lat="43.558638" lon="10.7275947"><ele>47.0</ele><time>2026-04-18T08:02:07.451Z</time></trkpt><trkpt lat="43.5587518" lon="10.7277645"><ele>47.0</ele><time>2026-04-18T08:02:08.439Z</time></trkpt><trkpt lat="43.5588628" lon="10.7279394"><ele>47.0</ele><time>2026-04-18T08:02:09.44Z</time></trkpt><trkpt lat="43.5589667" lon="10.7281132"><ele>47.0</ele><time>2026-04-18T08:02:10.431Z</time></trkpt><trkpt lat="43.5590768" lon="10.7282865"><ele>47.0</ele><time>2026-04-18T08:02:11.435Z</time></trkpt><trkpt lat="43.5591817" lon="10.7284563"><ele>47.0</ele><time>2026-04-18T08:02:12.44Z</time></trkpt><trkpt lat="43.5592853" lon="10.7286233"><ele>47.0</ele><time>2026-04-18T08:02:13.438Z</time></trkpt><trkpt lat="43.5593877" lon="10.7287828"><ele>47.666666666666664</ele><time>2026-04-18T08:02:14.433Z</time></trkpt><trkpt lat="43.559491" lon="10.7289399"><ele>48.33333333333333</ele><time>2026-04-18T08:02:15.442Z</time></trkpt><trkpt lat="43.5595945" lon="10.7291066"><ele>49.0</ele><time>2026-04-18T08:02:16.443Z</time></trkpt><trkpt lat="43.5597026" lon="10.7292766"><ele>47.666666666666664</ele><time>2026-04-18T08:02:17.425Z</time></trkpt><trkpt lat="43.5598066" lon="10.7294468"><ele>46.33333333333333</ele><time>2026-04-18T08:02:18.445Z</time></trkpt><trkpt lat="43.5599126" lon="10.7296171"><ele>45.0</ele><time>2026-04-18T08:02:19.45Z</time></trkpt><trkpt lat="43.5600206" lon="10.7297919"><ele>45.0</ele><time>2026-04-18T08:02:20.441Z</time></trkpt><trkpt lat="43.5601413" lon="10.7299787"><ele>45.0</ele><time>2026-04-18T08:02:21.427Z</time></trkpt><trkpt lat="43.5602761" lon="10.7301765"><ele>45.0</ele><time>2026-04-18T08:02:22.446Z</time></trkpt><trkpt lat="43.560418" lon="10.7303912"><ele>45.0</ele><time>2026-04-18T08:02:23.443Z</time></trkpt><trkpt lat="43.5605664" lon="10.7306154"><ele>45.0</ele><time>2026-04-18T08:02:24.429Z</time></trkpt><trkpt lat="43.5607091" lon="10.7308513"><ele>45.0</ele><time>2026-04-18T08:02:25.442Z</time></trkpt><trkpt lat="43.560849" lon="10.731091"><ele>44.666666666666664</ele><time>2026-04-18T08:02:26.438Z</time></trkpt><trkpt lat="43.5609808" lon="10.7313201"><ele>44.33333333333333</ele><time>2026-04-18T08:02:27.422Z</time></trkpt><trkpt lat="43.5611068" lon="10.7315377"><ele>44.0</ele><time>2026-04-18T08:02:28.44Z</time></trkpt><trkpt lat="43.5612284" lon="10.7317385"><ele>44.33333333333333</ele><time>2026-04-18T08:02:29.441Z</time></trkpt><trkpt lat="43.561348" lon="10.7319295"><ele>44.666666666666664</ele><time>2026-04-18T08:02:30.439Z</time></trkpt><trkpt lat="43.5614667" lon="10.7321182"><ele>45.0</ele><time>2026-04-18T08:02:31.426Z</time></trkpt><trkpt lat="43.5615898" lon="10.7323105"><ele>45.0</ele><time>2026-04-18T08:02:32.424Z</time></trkpt><trkpt lat="43.5617059" lon="10.7324956"><ele>45.0</ele><time>2026-04-18T08:02:33.435Z</time></trkpt><trkpt lat="43.5618224" lon="10.7326739"><ele>45.0</ele><time>2026-04-18T08:02:34.448Z</time></trkpt><trkpt lat="43.5619353" lon="10.732852"><ele>45.666666666666664</ele><time>2026-04-18T08:02:35.44Z</time></trkpt><trkpt lat="43.562048" lon="10.7330313"><ele>46.33333333333333</ele><time>2026-04-18T08:02:36.42Z</time></trkpt><trkpt lat="43.5621549" lon="10.733205"><ele>47.0</ele><time>2026-04-18T08:02:37.455Z</time></trkpt><trkpt lat="43.5622687" lon="10.7333934"><ele>47.0</ele><time>2026-04-18T08:02:38.435Z</time></trkpt><trkpt lat="43.5623847" lon="10.7335803"><ele>47.0</ele><time>2026-04-18T08:02:39.443Z</time></trkpt><trkpt lat="43.5625053" lon="10.7337624"><ele>47.0</ele><time>2026-04-18T08:02:40.444Z</time></trkpt><trkpt lat="43.5626239" lon="10.7339437"><ele>47.0</ele><time>2026-04-18T08:02:41.444Z</time></trkpt><trkpt lat="43.5627458" lon="10.7341278"><ele>47.0</ele><time>2026-04-18T08:02:42.444Z</time></trkpt><trkpt lat="43.5628641" lon="10.7343115"><ele>47.0</ele><time>2026-04-18T08:02:43.444Z</time></trkpt><trkpt lat="43.5629828" lon="10.7345048"><ele>47.33333333333333</ele><time>2026-04-18T08:02:44.441Z</time></trkpt><trkpt lat="43.5630943" lon="10.7347083"><ele>47.666666666666664</ele><time>2026-04-18T08:02:45.436Z</time></trkpt><trkpt lat="43.5631933" lon="10.7349264"><ele>48.0</ele><time>2026-04-18T08:02:46.441Z</time></trkpt><trkpt lat="43.5632824" lon="10.7351441"><ele>47.666666666666664</ele><time>2026-04-18T08:02:47.429Z</time></trkpt><trkpt lat="43.5633684" lon="10.7353638"><ele>47.33333333333333</ele><time>2026-04-18T08:02:48.438Z</time></trkpt><trkpt lat="43.5634567" lon="10.7355798"><ele>47.0</ele><time>2026-04-18T08:02:49.43Z</time></trkpt><trkpt lat="43.5635422" lon="10.7357925"><ele>47.0</ele><time>2026-04-18T08:02:50.45Z</time></trkpt><trkpt lat="43.5636301" lon="10.7360007"><ele>47.0</ele><time>2026-04-18T08:02:51.442Z</time></trkpt><trkpt lat="43.5637212" lon="10.7362074"><ele>47.0</ele><time>2026-04-18T08:02:52.442Z</time></trkpt><trkpt lat="43.5638074" lon="10.7364198"><ele>47.33333333333333</ele><time>2026-04-18T08:02:53.443Z</time></trkpt><trkpt lat="43.5638973" lon="10.7366276"><ele>47.666666666666664</ele><time>2026-04-18T08:02:54.44Z</time></trkpt><trkpt lat="43.5639841" lon="10.7368317"><ele>48.0</ele><time>2026-04-18T08:02:55.441Z</time></trkpt><trkpt lat="43.5640722" lon="10.7370376"><ele>48.0</ele><time>2026-04-18T08:02:56.445Z</time></trkpt><trkpt lat="43.5641566" lon="10.7372354"><ele>48.0</ele><time>2026-04-18T08:02:57.437Z</time></trkpt><trkpt lat="43.5642394" lon="10.7374365"><ele>48.0</ele><time>2026-04-18T08:02:58.436Z</time></trkpt><trkpt lat="43.564324" lon="10.7376355"><ele>48.0</ele><time>2026-04-18T08:02:59.436Z</time></trkpt><trkpt lat="43.564406" lon="10.7378308"><ele>48.0</ele><time>2026-04-18T08:03:00.444Z</time></trkpt><trkpt lat="43.5644846" lon="10.7380286"><ele>48.0</ele><time>2026-04-18T08:03:01.424Z</time></trkpt><trkpt lat="43.5645644" lon="10.738219"><ele>48.25</ele><time>2026-04-18T08:03:02.446Z</time></trkpt><trkpt lat="43.5646448" lon="10.7383916"><ele>48.5</ele><time>2026-04-18T08:03:03.447Z</time></trkpt><trkpt lat="43.5647226" lon="10.7385511"><ele>48.75</ele><time>2026-04-18T08:03:04.43Z</time></trkpt><trkpt lat="43.5648005" lon="10.7386952"><ele>49.0</ele><time>2026-04-18T08:03:05.448Z</time></trkpt><trkpt lat="43.5648759" lon="10.7388197"><ele>49.400000000000006</ele><time>2026-04-18T08:03:06.432Z</time></trkpt><trkpt lat="43.5649491" lon="10.7389316"><ele>49.8</ele><time>2026-04-18T08:03:07.431Z</time></trkpt><trkpt lat="43.5650026" lon="10.739029"><ele>50.2</ele><time>2026-04-18T08:03:08.439Z</time></trkpt><trkpt lat="43.5650375" lon="10.7391064"><ele>50.599999999999994</ele><time>2026-04-18T08:03:09.437Z</time></trkpt><trkpt lat="43.5650592" lon="10.73925"><ele>51.0</ele><time>2026-04-18T08:03:11.417Z</time></trkpt><trkpt lat="43.5650369" lon="10.7394184"><ele>51.4</ele><time>2026-04-18T08:03:13.443Z</time></trkpt><trkpt lat="43.5649967" lon="10.7395233"><ele>51.8</ele><time>2026-04-18T08:03:14.44Z</time></trkpt><trkpt lat="43.5649415" lon="10.7396314"><ele>52.199999999999996</ele><time>2026-04-18T08:03:15.427Z</time></trkpt><trkpt lat="43.5648731" lon="10.7397537"><ele>52.599999999999994</ele><time>2026-04-18T08:03:16.436Z</time></trkpt><trkpt lat="43.5647936" lon="10.7398909"><ele>53.0</ele><time>2026-04-18T08:03:17.436Z</time></trkpt><trkpt lat="43.5647089" lon="10.7400474"><ele>53.0</ele><time>2026-04-18T08:03:18.445Z</time></trkpt><trkpt lat="43.5646202" lon="10.7402084"><ele>53.0</ele><time>2026-04-18T08:03:19.439Z</time></trkpt><trkpt lat="43.5645222" lon="10.7403858"><ele>53.0</ele><time>2026-04-18T08:03:20.431Z</time></trkpt><trkpt lat="43.5644153" lon="10.7405587"><ele>52.333333333333336</ele><time>2026-04-18T08:03:21.444Z</time></trkpt><trkpt lat="43.5643086" lon="10.7407347"><ele>51.66666666666667</ele><time>2026-04-18T08:03:22.44Z</time></trkpt><trkpt lat="43.5642045" lon="10.7409186"><ele>51.0</ele><time>2026-04-18T08:03:23.429Z</time></trkpt><trkpt lat="43.5640949" lon="10.7411074"><ele>53.0</ele><time>2026-04-18T08:03:24.443Z</time></trkpt><trkpt lat="43.5639843" lon="10.7412959"><ele>55.0</ele><time>2026-04-18T08:03:25.429Z</time></trkpt><trkpt lat="43.5638711" lon="10.7414885"><ele>57.0</ele><time>2026-04-18T08:03:26.439Z</time></trkpt><trkpt lat="43.5637569" lon="10.741686"><ele>56.33333333333333</ele><time>2026-04-18T08:03:27.429Z</time></trkpt><trkpt lat="43.5636472" lon="10.7418782"><ele>55.666666666666664</ele><time>2026-04-18T08:03:28.425Z</time></trkpt><trkpt lat="43.5635393" lon="10.7420781"><ele>55.0</ele><time>2026-04-18T08:03:29.439Z</time></trkpt><trkpt lat="43.5634305" lon="10.7422732"><ele>55.0</ele><time>2026-04-18T08:03:30.442Z</time></trkpt><trkpt lat="43.5633195" lon="10.7424688"><ele>55.0</ele><time>2026-04-18T08:03:31.438Z</time></trkpt><trkpt lat="43.5632087" lon="10.7426639"><ele>55.0</ele><time>2026-04-18T08:03:32.433Z</time></trkpt><trkpt lat="43.5631025" lon="10.742853"><ele>56.0</ele><time>2026-04-18T08:03:33.423Z</time></trkpt><trkpt lat="43.5629965" lon="10.7430378"><ele>57.0</ele><time>2026-04-18T08:03:34.442Z</time></trkpt><trkpt lat="43.5628905" lon="10.7432281"><ele>58.0</ele><time>2026-04-18T08:03:35.434Z</time></trkpt><trkpt lat="43.5627914" lon="10.7434116"><ele>57.0</ele><time>2026-04-18T08:03:36.439Z</time></trkpt><trkpt lat="43.5626964" lon="10.7435983"><ele>56.0</ele><time>2026-04-18T08:03:37.436Z</time></trkpt><trkpt lat="43.562599" lon="10.7437813"><ele>55.0</ele><time>2026-04-18T08:03:38.438Z</time></trkpt><trkpt lat="43.5625096" lon="10.7439559"><ele>55.0</ele><time>2026-04-18T08:03:39.44Z</time></trkpt><trkpt lat="43.5624319" lon="10.7441335"><ele>55.0</ele><time>2026-04-18T08:03:40.442Z</time></trkpt><trkpt lat="43.5623713" lon="10.7443133"><ele>55.0</ele><time>2026-04-18T08:03:41.426Z</time></trkpt><trkpt lat="43.5623166" lon="10.7445031"><ele>55.0</ele><time>2026-04-18T08:03:42.431Z</time></trkpt><trkpt lat="43.5622719" lon="10.7446901"><ele>56.0</ele><time>2026-04-18T08:03:43.422Z</time></trkpt><trkpt lat="43.5622396" lon="10.7448918"><ele>57.0</ele><time>2026-04-18T08:03:44.443Z</time></trkpt><trkpt lat="43.5622065" lon="10.745098"><ele>58.0</ele><time>2026-04-18T08:03:45.426Z</time></trkpt><trkpt lat="43.5621875" lon="10.7452996"><ele>58.0</ele><time>2026-04-18T08:03:46.421Z</time></trkpt><trkpt lat="43.5621665" lon="10.7455011"><ele>58.0</ele><time>2026-04-18T08:03:47.436Z</time></trkpt><trkpt lat="43.5621577" lon="10.7457007"><ele>58.0</ele><time>2026-04-18T08:03:48.429Z</time></trkpt><trkpt lat="43.5621538" lon="10.7459075"><ele>58.0</ele><time>2026-04-18T08:03:49.432Z</time></trkpt><trkpt lat="43.5621548" lon="10.7461158"><ele>57.0</ele><time>2026-04-18T08:03:50.44Z</time></trkpt><trkpt lat="43.5621585" lon="10.74633"><ele>56.0</ele><time>2026-04-18T08:03:51.432Z</time></trkpt><trkpt lat="43.5621687" lon="10.7465341"><ele>55.0</ele><time>2026-04-18T08:03:52.44Z</time></trkpt><trkpt lat="43.5621812" lon="10.7467205"><ele>54.0</ele><time>2026-04-18T08:03:53.439Z</time></trkpt><trkpt lat="43.5622129" lon="10.7468827"><ele>53.6</ele><time>2026-04-18T08:03:54.444Z</time></trkpt><trkpt lat="43.5622437" lon="10.7470297"><ele>53.2</ele><time>2026-04-18T08:03:55.428Z</time></trkpt><trkpt lat="43.5622804" lon="10.7471724"><ele>52.800000000000004</ele><time>2026-04-18T08:03:56.439Z</time></trkpt><trkpt lat="43.5623193" lon="10.7473151"><ele>52.400000000000006</ele><time>2026-04-18T08:03:57.424Z</time></trkpt><trkpt lat="43.5623698" lon="10.7474498"><ele>52.0</ele><time>2026-04-18T08:03:58.456Z</time></trkpt><trkpt lat="43.5624271" lon="10.7475893"><ele>52.25</ele><time>2026-04-18T08:03:59.436Z</time></trkpt><trkpt lat="43.5624853" lon="10.7477365"><ele>52.5</ele><time>2026-04-18T08:04:00.443Z</time></trkpt><trkpt lat="43.5625378" lon="10.7478904"><ele>52.75</ele><time>2026-04-18T08:04:01.442Z</time></trkpt><trkpt lat="43.5625926" lon="10.7480441"><ele>53.0</ele><time>2026-04-18T08:04:02.431Z</time></trkpt><trkpt lat="43.562638" lon="10.7481837"><ele>53.00000000000001</ele><time>2026-04-18T08:04:03.422Z</time></trkpt><trkpt lat="43.5626853" lon="10.7483117"><ele>53.0</ele><time>2026-04-18T08:04:04.432Z</time></trkpt><trkpt lat="43.5627203" lon="10.7484143"><ele>53.0</ele><time>2026-04-18T08:04:05.444Z</time></trkpt><trkpt lat="43.562745" lon="10.7484953"><ele>53.0</ele><time>2026-04-18T08:04:06.426Z</time></trkpt><trkpt lat="43.5627496" lon="10.7486438"><ele>53.00000000000001</ele><time>2026-04-18T08:04:08.426Z</time></trkpt><trkpt lat="43.5627212" lon="10.7487283"><ele>53.0</ele><time>2026-04-18T08:04:09.446Z</time></trkpt><trkpt lat="43.5626767" lon="10.7487993"><ele>52.8</ele><time>2026-04-18T08:04:10.426Z</time></trkpt><trkpt lat="43.5626054" lon="10.7488646"><ele>52.599999999999994</ele><time>2026-04-18T08:04:11.423Z</time></trkpt><trkpt lat="43.5625211" lon="10.7489155"><ele>52.400000000000006</ele><time>2026-04-18T08:04:12.422Z</time></trkpt><trkpt lat="43.5624245" lon="10.7489191"><ele>52.2</ele><time>2026-04-18T08:04:13.425Z</time></trkpt><trkpt lat="43.5623198" lon="10.7488976"><ele>52.0</ele><time>2026-04-18T08:04:14.423Z</time></trkpt><trkpt lat="43.5622084" lon="10.7488711"><ele>52.0</ele><time>2026-04-18T08:04:15.435Z</time></trkpt><trkpt lat="43.5620971" lon="10.7488491"><ele>52.0</ele><time>2026-04-18T08:04:16.434Z</time></trkpt><trkpt lat="43.5619804" lon="10.7488233"><ele>52.0</ele><time>2026-04-18T08:04:17.445Z</time></trkpt><trkpt lat="43.5618639" lon="10.7488044"><ele>52.0</ele><time>2026-04-18T08:04:18.427Z</time></trkpt><trkpt lat="43.5617481" lon="10.748779"><ele>51.5</ele><time>2026-04-18T08:04:19.441Z</time></trkpt><trkpt lat="43.5616283" lon="10.7487534"><ele>51.0</ele><time>2026-04-18T08:04:20.447Z</time></trkpt><trkpt lat="43.5615085" lon="10.7487357"><ele>50.5</ele><time>2026-04-18T08:04:21.427Z</time></trkpt><trkpt lat="43.5613923" lon="10.7487244"><ele>50.0</ele><time>2026-04-18T08:04:22.442Z</time></trkpt><trkpt lat="43.5612809" lon="10.7487387"><ele>50.5</ele><time>2026-04-18T08:04:23.436Z</time></trkpt><trkpt lat="43.5611714" lon="10.7487639"><ele>51.0</ele><time>2026-04-18T08:04:24.44Z</time></trkpt><trkpt lat="43.5610597" lon="10.7487886"><ele>51.5</ele><time>2026-04-18T08:04:25.433Z</time></trkpt><trkpt lat="43.5609465" lon="10.748822"><ele>52.0</ele><time>2026-04-18T08:04:26.441Z</time></trkpt><trkpt lat="43.5608299" lon="10.7488551"><ele>52.0</ele><time>2026-04-18T08:04:27.439Z</time></trkpt><trkpt lat="43.5607068" lon="10.7488935"><ele>52.0</ele><time>2026-04-18T08:04:28.435Z</time></trkpt><trkpt lat="43.5605823" lon="10.7489375"><ele>52.0</ele><time>2026-04-18T08:04:29.442Z</time></trkpt><trkpt lat="43.560447" lon="10.7489756"><ele>52.0</ele><time>2026-04-18T08:04:30.443Z</time></trkpt><trkpt lat="43.5603112" lon="10.7490136"><ele>51.75</ele><time>2026-04-18T08:04:31.433Z</time></trkpt><trkpt lat="43.5601827" lon="10.7490463"><ele>51.5</ele><time>2026-04-18T08:04:32.437Z</time></trkpt><trkpt lat="43.5600493" lon="10.7490898"><ele>51.25</ele><time>2026-04-18T08:04:33.434Z</time></trkpt><trkpt lat="43.5599273" lon="10.7491357"><ele>51.0</ele><time>2026-04-18T08:04:34.431Z</time></trkpt><trkpt lat="43.5598086" lon="10.7491828"><ele>51.0</ele><time>2026-04-18T08:04:35.434Z</time></trkpt><trkpt lat="43.5596914" lon="10.7492425"><ele>51.0</ele><time>2026-04-18T08:04:36.429Z</time></trkpt><trkpt lat="43.5595934" lon="10.7493413"><ele>51.0</ele><time>2026-04-18T08:04:37.422Z</time></trkpt><trkpt lat="43.5595085" lon="10.7494675"><ele>51.0</ele><time>2026-04-18T08:04:38.425Z</time></trkpt><trkpt lat="43.5594258" lon="10.7496061"><ele>51.0</ele><time>2026-04-18T08:04:39.436Z</time></trkpt><trkpt lat="43.5593438" lon="10.7497459"><ele>51.0</ele><time>2026-04-18T08:04:40.432Z</time></trkpt><trkpt lat="43.5592573" lon="10.7498698"><ele>51.0</ele><time>2026-04-18T08:04:41.442Z</time></trkpt><trkpt lat="43.5591881" lon="10.7499772"><ele>51.0</ele><time>2026-04-18T08:04:42.429Z</time></trkpt><trkpt lat="43.5591308" lon="10.7500594"><ele>51.0</ele><time>2026-04-18T08:04:43.441Z</time></trkpt><trkpt lat="43.5590727" lon="10.7501305"><ele>51.0</ele><time>2026-04-18T08:04:44.428Z</time></trkpt><trkpt lat="43.5590242" lon="10.7501908"><ele>51.0</ele><time>2026-04-18T08:04:45.432Z</time></trkpt><trkpt lat="43.5589654" lon="10.7502587"><ele>51.0</ele><time>2026-04-18T08:04:46.432Z</time></trkpt><trkpt lat="43.5588897" lon="10.750366"><ele>51.0</ele><time>2026-04-18T08:04:48.433Z</time></trkpt><trkpt lat="43.5588928" lon="10.7505116"><ele>51.0</ele><time>2026-04-18T08:04:50.43Z</time></trkpt><trkpt lat="43.5589224" lon="10.750596"><ele>51.0</ele><time>2026-04-18T08:04:51.435Z</time></trkpt><trkpt lat="43.5589732" lon="10.7506887"><ele>52.0</ele><time>2026-04-18T08:04:52.429Z</time></trkpt><trkpt lat="43.5590319" lon="10.7507922"><ele>53.0</ele><time>2026-04-18T08:04:53.443Z</time></trkpt><trkpt lat="43.55909" lon="10.7509044"><ele>53.99999999999999</ele><time>2026-04-18T08:04:54.445Z</time></trkpt><trkpt lat="43.5591278" lon="10.7510222"><ele>55.0</ele><time>2026-04-18T08:04:55.425Z</time></trkpt><trkpt lat="43.5591552" lon="10.7511499"><ele>56.0</ele><time>2026-04-18T08:04:56.434Z</time></trkpt><trkpt lat="43.559171" lon="10.7512815"><ele>57.0</ele><time>2026-04-18T08:04:57.436Z</time></trkpt><trkpt lat="43.5591788" lon="10.7514268"><ele>57.99999999999999</ele><time>2026-04-18T08:04:58.434Z</time></trkpt><trkpt lat="43.5591872" lon="10.7515768"><ele>58.99999999999999</ele><time>2026-04-18T08:04:59.427Z</time></trkpt><trkpt lat="43.559196" lon="10.751724"><ele>60.0</ele><time>2026-04-18T08:05:00.434Z</time></trkpt><trkpt lat="43.5592016" lon="10.751853"><ele>61.0</ele><time>2026-04-18T08:05:01.431Z</time></trkpt><trkpt lat="43.5591958" lon="10.7519657"><ele>61.71428571428571</ele><time>2026-04-18T08:05:02.445Z</time></trkpt><trkpt lat="43.5591741" lon="10.7520619"><ele>62.42857142857143</ele><time>2026-04-18T08:05:03.439Z</time></trkpt><trkpt lat="43.5591309" lon="10.7521306"><ele>63.14285714285714</ele><time>2026-04-18T08:05:04.423Z</time></trkpt><trkpt lat="43.5590707" lon="10.7521719"><ele>63.857142857142854</ele><time>2026-04-18T08:05:05.422Z</time></trkpt><trkpt lat="43.5590054" lon="10.7522033"><ele>64.57142857142857</ele><time>2026-04-18T08:05:06.441Z</time></trkpt><trkpt lat="43.5589371" lon="10.7522332"><ele>65.28571428571428</ele><time>2026-04-18T08:05:07.412Z</time></trkpt><trkpt lat="43.5588646" lon="10.7522653"><ele>66.0</ele><time>2026-04-18T08:05:08.437Z</time></trkpt><trkpt lat="43.5587911" lon="10.7522944"><ele>66.0</ele><time>2026-04-18T08:05:09.435Z</time></trkpt><trkpt lat="43.558725" lon="10.752333"><ele>66.0</ele><time>2026-04-18T08:05:10.44Z</time></trkpt><trkpt lat="43.5586631" lon="10.7523884"><ele>66.0</ele><time>2026-04-18T08:05:11.434Z</time></trkpt><trkpt lat="43.5586139" lon="10.7524569"><ele>66.0</ele><time>2026-04-18T08:05:12.429Z</time></trkpt><trkpt lat="43.5585765" lon="10.7525392"><ele>66.0</ele><time>2026-04-18T08:05:13.417Z</time></trkpt><trkpt lat="43.5585402" lon="10.7527137"><ele>66.0</ele><time>2026-04-18T08:05:15.429Z</time></trkpt><trkpt lat="43.5585282" lon="10.7528063"><ele>67.16666666666667</ele><time>2026-04-18T08:05:16.438Z</time></trkpt><trkpt lat="43.5585203" lon="10.7528956"><ele>68.33333333333333</ele><time>2026-04-18T08:05:17.433Z</time></trkpt><trkpt lat="43.558489" lon="10.7530544"><ele>69.5</ele><time>2026-04-18T08:05:19.426Z</time></trkpt><trkpt lat="43.5584725" lon="10.7531453"><ele>70.66666666666666</ele><time>2026-04-18T08:05:20.433Z</time></trkpt><trkpt lat="43.5584728" lon="10.7532478"><ele>71.83333333333333</ele><time>2026-04-18T08:05:21.429Z</time></trkpt><trkpt lat="43.5584603" lon="10.7533753"><ele>73.0</ele><time>2026-04-18T08:05:22.429Z</time></trkpt><trkpt lat="43.5584444" lon="10.7535061"><ele>75.0</ele><time>2026-04-18T08:05:23.436Z</time></trkpt><trkpt lat="43.5584211" lon="10.7536556"><ele>77.0</ele><time>2026-04-18T08:05:24.428Z</time></trkpt><trkpt lat="43.5583969" lon="10.7537972"><ele>79.0</ele><time>2026-04-18T08:05:25.434Z</time></trkpt><trkpt lat="43.5583764" lon="10.7539378"><ele>81.0</ele><time>2026-04-18T08:05:26.439Z</time></trkpt><trkpt lat="43.558355" lon="10.7540964"><ele>83.0</ele><time>2026-04-18T08:05:27.432Z</time></trkpt><trkpt lat="43.5583308" lon="10.7542471"><ele>84.4</ele><time>2026-04-18T08:05:28.427Z</time></trkpt><trkpt lat="43.5582987" lon="10.7544027"><ele>85.80000000000001</ele><time>2026-04-18T08:05:29.437Z</time></trkpt><trkpt lat="43.5582725" lon="10.7545566"><ele>87.2</ele><time>2026-04-18T08:05:30.438Z</time></trkpt><trkpt lat="43.5582493" lon="10.7546952"><ele>88.6</ele><time>2026-04-18T08:05:31.431Z</time></trkpt><trkpt lat="43.5582251" lon="10.7548231"><ele>90.0</ele><time>2026-04-18T08:05:32.443Z</time></trkpt><trkpt lat="43.5581861" lon="10.7549434"><ele>90.0</ele><time>2026-04-18T08:05:33.431Z</time></trkpt><trkpt lat="43.5581413" lon="10.7550569"><ele>90.0</ele><time>2026-04-18T08:05:34.425Z</time></trkpt><trkpt lat="43.5580976" lon="10.7551695"><ele>90.0</ele><time>2026-04-18T08:05:35.43Z</time></trkpt><trkpt lat="43.5580461" lon="10.7552787"><ele>90.0</ele><time>2026-04-18T08:05:36.435Z</time></trkpt><trkpt lat="43.5580003" lon="10.7553782"><ele>90.0</ele><time>2026-04-18T08:05:37.428Z</time></trkpt><trkpt lat="43.5579568" lon="10.7554814"><ele>90.0</ele><time>2026-04-18T08:05:38.456Z</time></trkpt><trkpt lat="43.5579165" lon="10.7555746"><ele>90.0</ele><time>2026-04-18T08:05:39.432Z</time></trkpt><trkpt lat="43.5578808" lon="10.7556667"><ele>90.0</ele><time>2026-04-18T08:05:40.449Z</time></trkpt><trkpt lat="43.5578445" lon="10.7557762"><ele>90.0</ele><time>2026-04-18T08:05:41.439Z</time></trkpt><trkpt lat="43.5578488" lon="10.7559336"><ele>90.0</ele><time>2026-04-18T08:05:42.438Z</time></trkpt><trkpt lat="43.5578936" lon="10.7560834"><ele>92.2</ele><time>2026-04-18T08:05:43.438Z</time></trkpt><trkpt lat="43.5579367" lon="10.7561891"><ele>94.4</ele><time>2026-04-18T08:05:44.437Z</time></trkpt><trkpt lat="43.5579793" lon="10.7563067"><ele>96.6</ele><time>2026-04-18T08:05:45.427Z</time></trkpt><trkpt lat="43.558009" lon="10.7564209"><ele>98.8</ele><time>2026-04-18T08:05:46.435Z</time></trkpt><trkpt lat="43.5580376" lon="10.756536"><ele>101.0</ele><time>2026-04-18T08:05:47.436Z</time></trkpt><trkpt lat="43.5580565" lon="10.7566598"><ele>101.0</ele><time>2026-04-18T08:05:48.422Z</time></trkpt><trkpt lat="43.5580569" lon="10.7567895"><ele>101.0</ele><time>2026-04-18T08:05:49.427Z</time></trkpt><trkpt lat="43.5580466" lon="10.7569306"><ele>101.0</ele><time>2026-04-18T08:05:50.441Z</time></trkpt><trkpt lat="43.558035" lon="10.7570786"><ele>101.0</ele><time>2026-04-18T08:05:51.423Z</time></trkpt><trkpt lat="43.5580158" lon="10.75724"><ele>101.0</ele><time>2026-04-18T08:05:52.443Z</time></trkpt><trkpt lat="43.5579902" lon="10.7574008"><ele>100.75</ele><time>2026-04-18T08:05:53.436Z</time></trkpt><trkpt lat="43.5579572" lon="10.7575704"><ele>100.5</ele><time>2026-04-18T08:05:54.433Z</time></trkpt><trkpt lat="43.5579259" lon="10.7577381"><ele>100.25</ele><time>2026-04-18T08:05:55.438Z</time></trkpt><trkpt lat="43.5578931" lon="10.7579127"><ele>100.0</ele><time>2026-04-18T08:05:56.43Z</time></trkpt><trkpt lat="43.5578574" lon="10.758087"><ele>100.0</ele><time>2026-04-18T08:05:57.446Z</time></trkpt><trkpt lat="43.5578077" lon="10.7582501"><ele>100.0</ele><time>2026-04-18T08:05:58.43Z</time></trkpt><trkpt lat="43.5577477" lon="10.7584018"><ele>100.0</ele><time>2026-04-18T08:05:59.435Z</time></trkpt><trkpt lat="43.5576887" lon="10.7585432"><ele>100.0</ele><time>2026-04-18T08:06:00.439Z</time></trkpt><trkpt lat="43.5576345" lon="10.7586672"><ele>101.8</ele><time>2026-04-18T08:06:01.446Z</time></trkpt><trkpt lat="43.5575729" lon="10.7587845"><ele>103.6</ele><time>2026-04-18T08:06:02.437Z</time></trkpt><trkpt lat="43.5575025" lon="10.7588933"><ele>105.4</ele><time>2026-04-18T08:06:03.427Z</time></trkpt><trkpt lat="43.5574322" lon="10.7589926"><ele>107.2</ele><time>2026-04-18T08:06:04.434Z</time></trkpt><trkpt lat="43.5573567" lon="10.7590857"><ele>109.0</ele><time>2026-04-18T08:06:05.429Z</time></trkpt><trkpt lat="43.5572915" lon="10.7591744"><ele>109.0</ele><time>2026-04-18T08:06:06.441Z</time></trkpt><trkpt lat="43.5572283" lon="10.7592613"><ele>109.0</ele><time>2026-04-18T08:06:07.439Z</time></trkpt><trkpt lat="43.5571682" lon="10.759345"><ele>109.0</ele><time>2026-04-18T08:06:08.434Z</time></trkpt><trkpt lat="43.5571222" lon="10.7594246"><ele>109.0</ele><time>2026-04-18T08:06:09.43Z</time></trkpt><trkpt lat="43.5570901" lon="10.7595005"><ele>109.0</ele><time>2026-04-18T08:06:10.435Z</time></trkpt><trkpt lat="43.5570817" lon="10.759593"><ele>109.0</ele><time>2026-04-18T08:06:11.446Z</time></trkpt><trkpt lat="43.5570987" lon="10.7596792"><ele>109.0</ele><time>2026-04-18T08:06:12.425Z</time></trkpt><trkpt lat="43.5571343" lon="10.7597665"><ele>110.00000000000001</ele><time>2026-04-18T08:06:13.433Z</time></trkpt><trkpt lat="43.557164" lon="10.7598544"><ele>111.0</ele><time>2026-04-18T08:06:14.434Z</time></trkpt><trkpt lat="43.5571898" lon="10.7599419"><ele>112.0</ele><time>2026-04-18T08:06:15.418Z</time></trkpt><trkpt lat="43.5572088" lon="10.7600305"><ele>113.0</ele><time>2026-04-18T08:06:16.44Z</time></trkpt><trkpt lat="43.5572295" lon="10.7601208"><ele>114.00000000000001</ele><time>2026-04-18T08:06:17.431Z</time></trkpt><trkpt lat="43.5572554" lon="10.7602364"><ele>115.0</ele><time>2026-04-18T08:06:18.439Z</time></trkpt><trkpt lat="43.5572904" lon="10.7603726"><ele>116.25</ele><time>2026-04-18T08:06:19.423Z</time></trkpt><trkpt lat="43.5573256" lon="10.7605139"><ele>117.5</ele><time>2026-04-18T08:06:20.436Z</time></trkpt><trkpt lat="43.5573681" lon="10.7606723"><ele>118.75</ele><time>2026-04-18T08:06:21.433Z</time></trkpt><trkpt lat="43.5574105" lon="10.760837"><ele>120.0</ele><time>2026-04-18T08:06:22.438Z</time></trkpt><trkpt lat="43.5574509" lon="10.7610096"><ele>121.0</ele><time>2026-04-18T08:06:23.44Z</time></trkpt><trkpt lat="43.5574866" lon="10.7611853"><ele>122.0</ele><time>2026-04-18T08:06:24.424Z</time></trkpt><trkpt lat="43.5575161" lon="10.7613638"><ele>123.0</ele><time>2026-04-18T08:06:25.44Z</time></trkpt><trkpt lat="43.5575429" lon="10.7615378"><ele>124.0</ele><time>2026-04-18T08:06:26.446Z</time></trkpt><trkpt lat="43.5575706" lon="10.7617158"><ele>124.75</ele><time>2026-04-18T08:06:27.431Z</time></trkpt><trkpt lat="43.5576015" lon="10.7618826"><ele>125.5</ele><time>2026-04-18T08:06:28.427Z</time></trkpt><trkpt lat="43.5576251" lon="10.7620316"><ele>126.25</ele><time>2026-04-18T08:06:29.425Z</time></trkpt><trkpt lat="43.557645" lon="10.7621856"><ele>127.0</ele><time>2026-04-18T08:06:30.432Z</time></trkpt><trkpt lat="43.5576517" lon="10.7623282"><ele>127.00000000000001</ele><time>2026-04-18T08:06:31.42Z</time></trkpt><trkpt lat="43.5576695" lon="10.7624674"><ele>127.0</ele><time>2026-04-18T08:06:32.431Z</time></trkpt><trkpt lat="43.5576712" lon="10.7625995"><ele>127.0</ele><time>2026-04-18T08:06:33.418Z</time></trkpt><trkpt lat="43.557668" lon="10.7627232"><ele>127.0</ele><time>2026-04-18T08:06:34.423Z</time></trkpt><trkpt lat="43.5576668" lon="10.7628268"><ele>127.00000000000001</ele><time>2026-04-18T08:06:35.423Z</time></trkpt><trkpt lat="43.5576662" lon="10.7629328"><ele>127.0</ele><time>2026-04-18T08:06:36.42Z</time></trkpt><trkpt lat="43.5576609" lon="10.7630511"><ele>127.83333333333334</ele><time>2026-04-18T08:06:37.428Z</time></trkpt><trkpt lat="43.5576558" lon="10.7631873"><ele>128.66666666666669</ele><time>2026-04-18T08:06:38.43Z</time></trkpt><trkpt lat="43.5576509" lon="10.7633014"><ele>129.5</ele><time>2026-04-18T08:06:39.423Z</time></trkpt><trkpt lat="43.5576539" lon="10.7634142"><ele>130.33333333333334</ele><time>2026-04-18T08:06:40.429Z</time></trkpt><trkpt lat="43.5576722" lon="10.7635085"><ele>131.16666666666666</ele><time>2026-04-18T08:06:41.421Z</time></trkpt><trkpt lat="43.557691" lon="10.7636203"><ele>132.0</ele><time>2026-04-18T08:06:42.428Z</time></trkpt><trkpt lat="43.5576906" lon="10.7637468"><ele>133.75</ele><time>2026-04-18T08:06:43.426Z</time></trkpt><trkpt lat="43.557695" lon="10.7638538"><ele>135.5</ele><time>2026-04-18T08:06:44.445Z</time></trkpt><trkpt lat="43.5577189" lon="10.7639458"><ele>137.25</ele><time>2026-04-18T08:06:45.432Z</time></trkpt><trkpt lat="43.5575934" lon="10.764096"><ele>139.0</ele><time>2026-04-18T08:06:47.45Z</time></trkpt><trkpt lat="43.557469" lon="10.7641914"><ele>139.0</ele><time>2026-04-18T08:06:48.418Z</time></trkpt><trkpt lat="43.5574178" lon="10.7643005"><ele>139.0</ele><time>2026-04-18T08:06:49.412Z</time></trkpt><trkpt lat="43.5573515" lon="10.7644301"><ele>139.0</ele><time>2026-04-18T08:06:50.432Z</time></trkpt><trkpt lat="43.5573015" lon="10.7645796"><ele>139.0</ele><time>2026-04-18T08:06:51.432Z</time></trkpt><trkpt lat="43.5572541" lon="10.7647339"><ele>141.0</ele><time>2026-04-18T08:06:52.43Z</time></trkpt><trkpt lat="43.5572041" lon="10.7648886"><ele>143.0</ele><time>2026-04-18T08:06:53.413Z</time></trkpt><trkpt lat="43.5571448" lon="10.7650466"><ele>145.0</ele><time>2026-04-18T08:06:54.42Z</time></trkpt><trkpt lat="43.5570946" lon="10.7652119"><ele>147.0</ele><time>2026-04-18T08:06:55.442Z</time></trkpt><trkpt lat="43.5570495" lon="10.7653537"><ele>146.79999999999998</ele><time>2026-04-18T08:06:56.432Z</time></trkpt><trkpt lat="43.5569985" lon="10.765487"><ele>146.6</ele><time>2026-04-18T08:06:57.434Z</time></trkpt><trkpt lat="43.5569358" lon="10.7656047"><ele>146.39999999999998</ele><time>2026-04-18T08:06:58.433Z</time></trkpt><trkpt lat="43.5568646" lon="10.7657072"><ele>146.2</ele><time>2026-04-18T08:06:59.426Z</time></trkpt><trkpt lat="43.5567792" lon="10.7657952"><ele>146.0</ele><time>2026-04-18T08:07:00.437Z</time></trkpt><trkpt lat="43.5566983" lon="10.7658844"><ele>146.0</ele><time>2026-04-18T08:07:01.429Z</time></trkpt><trkpt lat="43.5566154" lon="10.7659733"><ele>146.0</ele><time>2026-04-18T08:07:02.432Z</time></trkpt><trkpt lat="43.5565323" lon="10.7660701"><ele>146.0</ele><time>2026-04-18T08:07:03.423Z</time></trkpt><trkpt lat="43.5564506" lon="10.7661705"><ele>146.0</ele><time>2026-04-18T08:07:04.432Z</time></trkpt><trkpt lat="43.5563765" lon="10.7662647"><ele>146.0</ele><time>2026-04-18T08:07:05.431Z</time></trkpt><trkpt lat="43.5563115" lon="10.7663422"><ele>146.71428571428572</ele><time>2026-04-18T08:07:06.432Z</time></trkpt><trkpt lat="43.5562477" lon="10.7664104"><ele>147.42857142857144</ele><time>2026-04-18T08:07:07.425Z</time></trkpt><trkpt lat="43.5561899" lon="10.7664514"><ele>148.14285714285717</ele><time>2026-04-18T08:07:08.423Z</time></trkpt><trkpt lat="43.5561247" lon="10.7664703"><ele>148.85714285714286</ele><time>2026-04-18T08:07:09.423Z</time></trkpt><trkpt lat="43.5560578" lon="10.7664994"><ele>149.57142857142858</ele><time>2026-04-18T08:07:10.436Z</time></trkpt><trkpt lat="43.555986" lon="10.7665327"><ele>150.2857142857143</ele><time>2026-04-18T08:07:11.434Z</time></trkpt><trkpt lat="43.5559184" lon="10.7665817"><ele>151.0</ele><time>2026-04-18T08:07:12.443Z</time></trkpt><trkpt lat="43.5558567" lon="10.7666515"><ele>151.0</ele><time>2026-04-18T08:07:13.428Z</time></trkpt><trkpt lat="43.555806" lon="10.7667142"><ele>151.0</ele><time>2026-04-18T08:07:14.419Z</time></trkpt><trkpt lat="43.5558066" lon="10.7668624"><ele>151.0</ele><time>2026-04-18T08:07:16.427Z</time></trkpt><trkpt lat="43.555825" lon="10.767017"><ele>151.0</ele><time>2026-04-18T08:07:18.429Z</time></trkpt><trkpt lat="43.555841" lon="10.767115"><ele>151.0</ele><time>2026-04-18T08:07:19.44Z</time></trkpt><trkpt lat="43.5558616" lon="10.7672144"><ele>151.0</ele><time>2026-04-18T08:07:20.415Z</time></trkpt><trkpt lat="43.5558861" lon="10.767316"><ele>150.83333333333334</ele><time>2026-04-18T08:07:21.438Z</time></trkpt><trkpt lat="43.5559221" lon="10.7674199"><ele>150.66666666666669</ele><time>2026-04-18T08:07:22.424Z</time></trkpt><trkpt lat="43.5559575" lon="10.7675107"><ele>150.5</ele><time>2026-04-18T08:07:23.43Z</time></trkpt><trkpt lat="43.5559883" lon="10.7676161"><ele>150.33333333333334</ele><time>2026-04-18T08:07:25.433Z</time></trkpt><trkpt lat="43.5560064" lon="10.7677238"><ele>150.16666666666666</ele><time>2026-04-18T08:07:27.427Z</time></trkpt><trkpt lat="43.5559664" lon="10.7678455"><ele>150.0</ele><time>2026-04-18T08:07:29.422Z</time></trkpt><trkpt lat="43.5559241" lon="10.76792"><ele>149.0</ele><time>2026-04-18T08:07:30.435Z</time></trkpt><trkpt lat="43.55586" lon="10.7679977"><ele>148.0</ele><time>2026-04-18T08:07:31.425Z</time></trkpt><trkpt lat="43.5557957" lon="10.7680852"><ele>147.0</ele><time>2026-04-18T08:07:32.435Z</time></trkpt><trkpt lat="43.5557304" lon="10.7681738"><ele>146.0</ele><time>2026-04-18T08:07:33.42Z</time></trkpt><trkpt lat="43.5556598" lon="10.768263"><ele>145.0</ele><time>2026-04-18T08:07:34.434Z</time></trkpt><trkpt lat="43.5555862" lon="10.7683579"><ele>145.0</ele><time>2026-04-18T08:07:35.437Z</time></trkpt><trkpt lat="43.5555074" lon="10.7684647"><ele>145.0</ele><time>2026-04-18T08:07:36.439Z</time></trkpt><trkpt lat="43.5554317" lon="10.7685866"><ele>145.0</ele><time>2026-04-18T08:07:37.43Z</time></trkpt><trkpt lat="43.5553565" lon="10.7687017"><ele>145.0</ele><time>2026-04-18T08:07:38.423Z</time></trkpt><trkpt lat="43.5552904" lon="10.7688151"><ele>145.0</ele><time>2026-04-18T08:07:39.417Z</time></trkpt><trkpt lat="43.5552198" lon="10.7689161"><ele>143.83333333333334</ele><time>2026-04-18T08:07:40.44Z</time></trkpt><trkpt lat="43.5551553" lon="10.7690123"><ele>142.66666666666669</ele><time>2026-04-18T08:07:41.411Z</time></trkpt><trkpt lat="43.5550888" lon="10.7690981"><ele>141.5</ele><time>2026-04-18T08:07:42.424Z</time></trkpt><trkpt lat="43.5550291" lon="10.7691767"><ele>140.33333333333334</ele><time>2026-04-18T08:07:43.41Z</time></trkpt><trkpt lat="43.5549649" lon="10.7692469"><ele>139.16666666666666</ele><time>2026-04-18T08:07:44.433Z</time></trkpt><trkpt lat="43.5549087" lon="10.7693211"><ele>138.0</ele><time>2026-04-18T08:07:45.438Z</time></trkpt><trkpt lat="43.5548513" lon="10.7694128"><ele>137.5</ele><time>2026-04-18T08:07:46.447Z</time></trkpt><trkpt lat="43.5547895" lon="10.7694916"><ele>137.0</ele><time>2026-04-18T08:07:47.437Z</time></trkpt><trkpt lat="43.5547277" lon="10.7695757"><ele>136.5</ele><time>2026-04-18T08:07:48.449Z</time></trkpt><trkpt lat="43.5546722" lon="10.7696595"><ele>136.0</ele><time>2026-04-18T08:07:49.447Z</time></trkpt><trkpt lat="43.5546276" lon="10.7697582"><ele>135.5</ele><time>2026-04-18T08:07:50.435Z</time></trkpt><trkpt lat="43.554582" lon="10.7698775"><ele>135.0</ele><time>2026-04-18T08:07:51.432Z</time></trkpt><trkpt lat="43.5545379" lon="10.7699687"><ele>136.2</ele><time>2026-04-18T08:07:52.438Z</time></trkpt><trkpt lat="43.5545012" lon="10.7700754"><ele>137.4</ele><time>2026-04-18T08:07:53.439Z</time></trkpt><trkpt lat="43.5544608" lon="10.7701822"><ele>138.6</ele><time>2026-04-18T08:07:54.441Z</time></trkpt><trkpt lat="43.5544178" lon="10.7702997"><ele>139.8</ele><time>2026-04-18T08:07:55.436Z</time></trkpt><trkpt lat="43.5543755" lon="10.7704137"><ele>141.0</ele><time>2026-04-18T08:07:56.437Z</time></trkpt><trkpt lat="43.5543349" lon="10.7705288"><ele>141.2</ele><time>2026-04-18T08:07:57.434Z</time></trkpt><trkpt lat="43.5542923" lon="10.7706492"><ele>141.39999999999998</ele><time>2026-04-18T08:07:58.44Z</time></trkpt><trkpt lat="43.5542524" lon="10.7707754"><ele>141.6</ele><time>2026-04-18T08:07:59.436Z</time></trkpt><trkpt lat="43.554208" lon="10.7709018"><ele>141.79999999999998</ele><time>2026-04-18T08:08:00.442Z</time></trkpt><trkpt lat="43.554164" lon="10.7710257"><ele>142.0</ele><time>2026-04-18T08:08:01.439Z</time></trkpt><trkpt lat="43.5541235" lon="10.7711577"><ele>142.0</ele><time>2026-04-18T08:08:02.448Z</time></trkpt><trkpt lat="43.5540958" lon="10.7712955"><ele>142.0</ele><time>2026-04-18T08:08:03.445Z</time></trkpt><trkpt lat="43.5540733" lon="10.771435"><ele>142.0</ele><time>2026-04-18T08:08:04.428Z</time></trkpt><trkpt lat="43.5540513" lon="10.7715778"><ele>142.0</ele><time>2026-04-18T08:08:05.434Z</time></trkpt><trkpt lat="43.5540495" lon="10.7717252"><ele>142.0</ele><time>2026-04-18T08:08:06.439Z</time></trkpt><trkpt lat="43.554063" lon="10.7718917"><ele>142.0</ele><time>2026-04-18T08:08:07.429Z</time></trkpt><trkpt lat="43.5540848" lon="10.7720743"><ele>142.0</ele><time>2026-04-18T08:08:08.432Z</time></trkpt><trkpt lat="43.5541037" lon="10.7722633"><ele>142.0</ele><time>2026-04-18T08:08:09.421Z</time></trkpt><trkpt lat="43.5541141" lon="10.772459"><ele>142.0</ele><time>2026-04-18T08:08:10.44Z</time></trkpt><trkpt lat="43.5541326" lon="10.7726468"><ele>142.75</ele><time>2026-04-18T08:08:11.431Z</time></trkpt><trkpt lat="43.5541462" lon="10.7728411"><ele>143.5</ele><time>2026-04-18T08:08:12.425Z</time></trkpt><trkpt lat="43.5541509" lon="10.7730267"><ele>144.25</ele><time>2026-04-18T08:08:13.432Z</time></trkpt><trkpt lat="43.5541577" lon="10.7732099"><ele>145.0</ele><time>2026-04-18T08:08:14.433Z</time></trkpt><trkpt lat="43.5541642" lon="10.7733877"><ele>146.75</ele><time>2026-04-18T08:08:15.441Z</time></trkpt><trkpt lat="43.5541721" lon="10.7735662"><ele>148.5</ele><time>2026-04-18T08:08:16.439Z</time></trkpt><trkpt lat="43.5541797" lon="10.7737365"><ele>150.25</ele><time>2026-04-18T08:08:17.436Z</time></trkpt><trkpt lat="43.5541846" lon="10.7738957"><ele>152.0</ele><time>2026-04-18T08:08:18.423Z</time></trkpt><trkpt lat="43.554185" lon="10.7740599"><ele>152.0</ele><time>2026-04-18T08:08:19.435Z</time></trkpt><trkpt lat="43.5541733" lon="10.7742166"><ele>152.0</ele><time>2026-04-18T08:08:20.44Z</time></trkpt><trkpt lat="43.5541536" lon="10.7743801"><ele>152.0</ele><time>2026-04-18T08:08:21.441Z</time></trkpt><trkpt lat="43.5541273" lon="10.7745275"><ele>152.0</ele><time>2026-04-18T08:08:22.423Z</time></trkpt><trkpt lat="43.5541035" lon="10.7746655"><ele>152.0</ele><time>2026-04-18T08:08:23.429Z</time></trkpt><trkpt lat="43.5540811" lon="10.7747813"><ele>153.6</ele><time>2026-04-18T08:08:24.441Z</time></trkpt><trkpt lat="43.5540627" lon="10.7748952"><ele>155.2</ele><time>2026-04-18T08:08:25.428Z</time></trkpt><trkpt lat="43.5540647" lon="10.7750027"><ele>156.8</ele><time>2026-04-18T08:08:26.429Z</time></trkpt><trkpt lat="43.5540821" lon="10.7750949"><ele>158.4</ele><time>2026-04-18T08:08:27.435Z</time></trkpt><trkpt lat="43.5541444" lon="10.7752353"><ele>160.0</ele><time>2026-04-18T08:08:29.436Z</time></trkpt><trkpt lat="43.5542428" lon="10.7753436"><ele>160.0</ele><time>2026-04-18T08:08:31.422Z</time></trkpt><trkpt lat="43.5542958" lon="10.7754047"><ele>160.0</ele><time>2026-04-18T08:08:32.438Z</time></trkpt><trkpt lat="43.5543525" lon="10.7754659"><ele>160.0</ele><time>2026-04-18T08:08:33.442Z</time></trkpt><trkpt lat="43.5544167" lon="10.7755333"><ele>160.0</ele><time>2026-04-18T08:08:34.424Z</time></trkpt><trkpt lat="43.5544801" lon="10.7756072"><ele>160.0</ele><time>2026-04-18T08:08:35.431Z</time></trkpt><trkpt lat="43.5545394" lon="10.7756947"><ele>160.0</ele><time>2026-04-18T08:08:36.435Z</time></trkpt><trkpt lat="43.5545971" lon="10.7757839"><ele>160.83333333333334</ele><time>2026-04-18T08:08:37.41Z</time></trkpt><trkpt lat="43.5546512" lon="10.7758613"><ele>161.66666666666669</ele><time>2026-04-18T08:08:38.425Z</time></trkpt><trkpt lat="43.5547043" lon="10.7759393"><ele>162.5</ele><time>2026-04-18T08:08:39.439Z</time></trkpt><trkpt lat="43.5547589" lon="10.7760179"><ele>163.33333333333334</ele><time>2026-04-18T08:08:40.437Z</time></trkpt><trkpt lat="43.5548174" lon="10.7761073"><ele>164.16666666666666</ele><time>2026-04-18T08:08:41.459Z</time></trkpt><trkpt lat="43.5548665" lon="10.7762063"><ele>165.0</ele><time>2026-04-18T08:08:42.436Z</time></trkpt><trkpt lat="43.5549112" lon="10.7762946"><ele>167.66666666666666</ele><time>2026-04-18T08:08:43.428Z</time></trkpt><trkpt lat="43.5549478" lon="10.776383"><ele>170.33333333333334</ele><time>2026-04-18T08:08:44.439Z</time></trkpt><trkpt lat="43.5549682" lon="10.7764754"><ele>173.0</ele><time>2026-04-18T08:08:45.435Z</time></trkpt><trkpt lat="43.5549873" lon="10.7765642"><ele>175.66666666666669</ele><time>2026-04-18T08:08:46.428Z</time></trkpt><trkpt lat="43.5549893" lon="10.7767238"><ele>178.33333333333334</ele><time>2026-04-18T08:08:48.438Z</time></trkpt><trkpt lat="43.5549693" lon="10.776848"><ele>181.0</ele><time>2026-04-18T08:08:50.432Z</time></trkpt><trkpt lat="43.5549407" lon="10.7769556"><ele>181.83333333333334</ele><time>2026-04-18T08:08:52.43Z</time></trkpt><trkpt lat="43.5549523" lon="10.7770865"><ele>182.66666666666669</ele><time>2026-04-18T08:08:54.439Z</time></trkpt><trkpt lat="43.5549894" lon="10.7772608"><ele>183.5</ele><time>2026-04-18T08:08:56.438Z</time></trkpt><trkpt lat="43.5550193" lon="10.7773463"><ele>184.33333333333334</ele><time>2026-04-18T08:08:57.42Z</time></trkpt><trkpt lat="43.5550754" lon="10.7774243"><ele>185.16666666666666</ele><time>2026-04-18T08:08:58.422Z</time></trkpt><trkpt lat="43.5551226" lon="10.7774848"><ele>186.0</ele><time>2026-04-18T08:08:59.44Z</time></trkpt><trkpt lat="43.5551787" lon="10.7775443"><ele>186.0</ele><time>2026-04-18T08:09:00.437Z</time></trkpt><trkpt lat="43.5552283" lon="10.7776077"><ele>186.0</ele><time>2026-04-18T08:09:01.427Z</time></trkpt><trkpt lat="43.5553135" lon="10.7777032"><ele>186.0</ele><time>2026-04-18T08:09:03.422Z</time></trkpt><trkpt lat="43.5553626" lon="10.7778331"><ele>186.0</ele><time>2026-04-18T08:09:05.427Z</time></trkpt><trkpt lat="43.5553723" lon="10.7780132"><ele>186.0</ele><time>2026-04-18T08:09:07.441Z</time></trkpt><trkpt lat="43.5553883" lon="10.7781758"><ele>185.4</ele><time>2026-04-18T08:09:09.428Z</time></trkpt><trkpt lat="43.5554092" lon="10.7782787"><ele>184.8</ele><time>2026-04-18T08:09:10.432Z</time></trkpt><trkpt lat="43.5554296" lon="10.7784014"><ele>184.20000000000002</ele><time>2026-04-18T08:09:11.446Z</time></trkpt><trkpt lat="43.5554363" lon="10.778523"><ele>183.60000000000002</ele><time>2026-04-18T08:09:12.422Z</time></trkpt><trkpt lat="43.5554438" lon="10.7786564"><ele>183.0</ele><time>2026-04-18T08:09:13.42Z</time></trkpt><trkpt lat="43.5554407" lon="10.7787888"><ele>182.4</ele><time>2026-04-18T08:09:14.447Z</time></trkpt><trkpt lat="43.5554388" lon="10.7789256"><ele>181.8</ele><time>2026-04-18T08:09:15.423Z</time></trkpt><trkpt lat="43.5554387" lon="10.7790586"><ele>181.2</ele><time>2026-04-18T08:09:16.442Z</time></trkpt><trkpt lat="43.5554375" lon="10.779187"><ele>180.6</ele><time>2026-04-18T08:09:17.439Z</time></trkpt><trkpt lat="43.5554338" lon="10.7793131"><ele>180.0</ele><time>2026-04-18T08:09:18.423Z</time></trkpt><trkpt lat="43.5554313" lon="10.7794354"><ele>179.6</ele><time>2026-04-18T08:09:19.437Z</time></trkpt><trkpt lat="43.555435" lon="10.7795578"><ele>179.2</ele><time>2026-04-18T08:09:20.448Z</time></trkpt><trkpt lat="43.5554476" lon="10.7796914"><ele>178.8</ele><time>2026-04-18T08:09:21.431Z</time></trkpt><trkpt lat="43.5554728" lon="10.779824"><ele>178.4</ele><time>2026-04-18T08:09:22.431Z</time></trkpt><trkpt lat="43.5555131" lon="10.7799617"><ele>178.0</ele><time>2026-04-18T08:09:23.426Z</time></trkpt><trkpt lat="43.5555572" lon="10.7800932"><ele>178.5</ele><time>2026-04-18T08:09:24.431Z</time></trkpt><trkpt lat="43.5556014" lon="10.7802141"><ele>179.0</ele><time>2026-04-18T08:09:25.427Z</time></trkpt><trkpt lat="43.5556361" lon="10.780332"><ele>179.5</ele><time>2026-04-18T08:09:26.432Z</time></trkpt><trkpt lat="43.5556677" lon="10.7804495"><ele>180.0</ele><time>2026-04-18T08:09:27.431Z</time></trkpt><trkpt lat="43.5556972" lon="10.7805611"><ele>180.5</ele><time>2026-04-18T08:09:28.424Z</time></trkpt><trkpt lat="43.5557273" lon="10.7806663"><ele>181.0</ele><time>2026-04-18T08:09:29.43Z</time></trkpt><trkpt lat="43.5557603" lon="10.7807808"><ele>181.0</ele><time>2026-04-18T08:09:30.44Z</time></trkpt><trkpt lat="43.555785" lon="10.7808816"><ele>181.0</ele><time>2026-04-18T08:09:31.423Z</time></trkpt><trkpt lat="43.5558097" lon="10.780984"><ele>181.0</ele><time>2026-04-18T08:09:32.434Z</time></trkpt><trkpt lat="43.5558296" lon="10.7810864"><ele>181.0</ele><time>2026-04-18T08:09:33.427Z</time></trkpt><trkpt lat="43.5558416" lon="10.7811981"><ele>181.0</ele><time>2026-04-18T08:09:34.44Z</time></trkpt><trkpt lat="43.5558392" lon="10.7813116"><ele>181.0</ele><time>2026-04-18T08:09:35.432Z</time></trkpt><trkpt lat="43.5558305" lon="10.7814344"><ele>181.0</ele><time>2026-04-18T08:09:36.441Z</time></trkpt><trkpt lat="43.555819" lon="10.7815474"><ele>181.0</ele><time>2026-04-18T08:09:37.437Z</time></trkpt><trkpt lat="43.5558085" lon="10.7816457"><ele>181.0</ele><time>2026-04-18T08:09:38.425Z</time></trkpt><trkpt lat="43.5557718" lon="10.7817386"><ele>181.0</ele><time>2026-04-18T08:09:39.432Z</time></trkpt><trkpt lat="43.5557194" lon="10.7818309"><ele>181.0</ele><time>2026-04-18T08:09:40.42Z</time></trkpt><trkpt lat="43.5556826" lon="10.7819254"><ele>181.0</ele><time>2026-04-18T08:09:41.422Z</time></trkpt><trkpt lat="43.5556413" lon="10.7820743"><ele>179.66666666666669</ele><time>2026-04-18T08:09:43.427Z</time></trkpt><trkpt lat="43.5556234" lon="10.7821577"><ele>178.33333333333334</ele><time>2026-04-18T08:09:44.427Z</time></trkpt><trkpt lat="43.5556091" lon="10.7822436"><ele>177.0</ele><time>2026-04-18T08:09:45.426Z</time></trkpt><trkpt lat="43.5555822" lon="10.782419"><ele>175.66666666666666</ele><time>2026-04-18T08:09:47.425Z</time></trkpt><trkpt lat="43.555579" lon="10.782508"><ele>174.33333333333331</ele><time>2026-04-18T08:09:48.429Z</time></trkpt><trkpt lat="43.5555708" lon="10.7826097"><ele>173.0</ele><time>2026-04-18T08:09:49.424Z</time></trkpt><trkpt lat="43.5555653" lon="10.7827263"><ele>171.33333333333331</ele><time>2026-04-18T08:09:50.439Z</time></trkpt><trkpt lat="43.5555665" lon="10.7828364"><ele>169.66666666666666</ele><time>2026-04-18T08:09:51.437Z</time></trkpt><trkpt lat="43.5555649" lon="10.782964"><ele>168.0</ele><time>2026-04-18T08:09:52.439Z</time></trkpt><trkpt lat="43.5555586" lon="10.7830796"><ele>166.33333333333334</ele><time>2026-04-18T08:09:53.432Z</time></trkpt><trkpt lat="43.5555507" lon="10.7831927"><ele>164.66666666666669</ele><time>2026-04-18T08:09:54.434Z</time></trkpt><trkpt lat="43.5555393" lon="10.783309"><ele>163.0</ele><time>2026-04-18T08:09:55.422Z</time></trkpt><trkpt lat="43.5555276" lon="10.78342"><ele>161.83333333333334</ele><time>2026-04-18T08:09:56.429Z</time></trkpt><trkpt lat="43.555519" lon="10.7835351"><ele>160.66666666666669</ele><time>2026-04-18T08:09:57.425Z</time></trkpt><trkpt lat="43.5555083" lon="10.7836535"><ele>159.5</ele><time>2026-04-18T08:09:58.419Z</time></trkpt><trkpt lat="43.5554946" lon="10.7837743"><ele>158.33333333333334</ele><time>2026-04-18T08:09:59.43Z</time></trkpt><trkpt lat="43.5554842" lon="10.7838871"><ele>157.16666666666666</ele><time>2026-04-18T08:10:00.443Z</time></trkpt><trkpt lat="43.5554787" lon="10.7839958"><ele>156.0</ele><time>2026-04-18T08:10:01.423Z</time></trkpt><trkpt lat="43.5554813" lon="10.7841016"><ele>156.0</ele><time>2026-04-18T08:10:02.445Z</time></trkpt><trkpt lat="43.5554863" lon="10.7842052"><ele>156.0</ele><time>2026-04-18T08:10:03.433Z</time></trkpt><trkpt lat="43.5555012" lon="10.7843073"><ele>156.0</ele><time>2026-04-18T08:10:04.449Z</time></trkpt><trkpt lat="43.5555274" lon="10.7843981"><ele>156.0</ele><time>2026-04-18T08:10:05.442Z</time></trkpt><trkpt lat="43.5555545" lon="10.7845024"><ele>156.0</ele><time>2026-04-18T08:10:06.447Z</time></trkpt><trkpt lat="43.5555932" lon="10.7845952"><ele>156.0</ele><time>2026-04-18T08:10:07.429Z</time></trkpt><trkpt lat="43.555633" lon="10.7847056"><ele>156.2</ele><time>2026-04-18T08:10:08.417Z</time></trkpt><trkpt lat="43.555674" lon="10.7848245"><ele>156.39999999999998</ele><time>2026-04-18T08:10:09.439Z</time></trkpt><trkpt lat="43.5557147" lon="10.7849419"><ele>156.6</ele><time>2026-04-18T08:10:10.431Z</time></trkpt><trkpt lat="43.5557367" lon="10.7850626"><ele>156.79999999999998</ele><time>2026-04-18T08:10:11.436Z</time></trkpt><trkpt lat="43.5557372" lon="10.7851866"><ele>157.0</ele><time>2026-04-18T08:10:12.434Z</time></trkpt><trkpt lat="43.5557216" lon="10.7853071"><ele>157.0</ele><time>2026-04-18T08:10:13.423Z</time></trkpt><trkpt lat="43.5556924" lon="10.7854252"><ele>157.0</ele><time>2026-04-18T08:10:14.425Z</time></trkpt><trkpt lat="43.5556587" lon="10.7855466"><ele>157.0</ele><time>2026-04-18T08:10:15.424Z</time></trkpt><trkpt lat="43.5556319" lon="10.785667"><ele>157.0</ele><time>2026-04-18T08:10:16.447Z</time></trkpt><trkpt lat="43.5556438" lon="10.7858008"><ele>157.0</ele><time>2026-04-18T08:10:17.442Z</time></trkpt><trkpt lat="43.5556763" lon="10.7859108"><ele>157.0</ele><time>2026-04-18T08:10:18.44Z</time></trkpt><trkpt lat="43.5557411" lon="10.7859969"><ele>157.0</ele><time>2026-04-18T08:10:19.432Z</time></trkpt><trkpt lat="43.5558286" lon="10.7860682"><ele>157.0</ele><time>2026-04-18T08:10:20.435Z</time></trkpt><trkpt lat="43.5559208" lon="10.7861513"><ele>157.0</ele><time>2026-04-18T08:10:21.436Z</time></trkpt><trkpt lat="43.5560046" lon="10.7862242"><ele>157.0</ele><time>2026-04-18T08:10:22.429Z</time></trkpt><trkpt lat="43.5560782" lon="10.7862991"><ele>156.83333333333334</ele><time>2026-04-18T08:10:23.436Z</time></trkpt><trkpt lat="43.5561428" lon="10.7863799"><ele>156.66666666666669</ele><time>2026-04-18T08:10:24.432Z</time></trkpt><trkpt lat="43.5562046" lon="10.7864745"><ele>156.5</ele><time>2026-04-18T08:10:25.424Z</time></trkpt><trkpt lat="43.5562637" lon="10.7865756"><ele>156.33333333333334</ele><time>2026-04-18T08:10:26.442Z</time></trkpt><trkpt lat="43.5563202" lon="10.786667"><ele>156.16666666666666</ele><time>2026-04-18T08:10:27.439Z</time></trkpt><trkpt lat="43.5563747" lon="10.7867623"><ele>156.0</ele><time>2026-04-18T08:10:28.425Z</time></trkpt><trkpt lat="43.5564313" lon="10.7868486"><ele>155.33333333333334</ele><time>2026-04-18T08:10:29.44Z</time></trkpt><trkpt lat="43.5564802" lon="10.7869362"><ele>154.66666666666666</ele><time>2026-04-18T08:10:30.435Z</time></trkpt><trkpt lat="43.5565357" lon="10.7870242"><ele>154.0</ele><time>2026-04-18T08:10:31.432Z</time></trkpt><trkpt lat="43.5565944" lon="10.7871123"><ele>153.33333333333331</ele><time>2026-04-18T08:10:32.434Z</time></trkpt><trkpt lat="43.5566497" lon="10.7872015"><ele>152.66666666666666</ele><time>2026-04-18T08:10:33.439Z</time></trkpt><trkpt lat="43.5567037" lon="10.7872991"><ele>152.0</ele><time>2026-04-18T08:10:34.434Z</time></trkpt><trkpt lat="43.5567481" lon="10.7873925"><ele>152.0</ele><time>2026-04-18T08:10:35.433Z</time></trkpt><trkpt lat="43.5567879" lon="10.7874866"><ele>152.0</ele><time>2026-04-18T08:10:36.434Z</time></trkpt><trkpt lat="43.5568281" lon="10.7875849"><ele>152.0</ele><time>2026-04-18T08:10:37.437Z</time></trkpt><trkpt lat="43.5568624" lon="10.787696"><ele>152.0</ele><time>2026-04-18T08:10:38.422Z</time></trkpt><trkpt lat="43.5568914" lon="10.7878113"><ele>152.0</ele><time>2026-04-18T08:10:39.454Z</time></trkpt><trkpt lat="43.556915" lon="10.7879181"><ele>152.0</ele><time>2026-04-18T08:10:40.437Z</time></trkpt><trkpt lat="43.5569423" lon="10.7880165"><ele>152.66666666666666</ele><time>2026-04-18T08:10:41.433Z</time></trkpt><trkpt lat="43.5569726" lon="10.7881078"><ele>153.33333333333331</ele><time>2026-04-18T08:10:42.438Z</time></trkpt><trkpt lat="43.5570063" lon="10.7881921"><ele>154.0</ele><time>2026-04-18T08:10:43.431Z</time></trkpt><trkpt lat="43.5570371" lon="10.7882805"><ele>154.66666666666666</ele><time>2026-04-18T08:10:44.459Z</time></trkpt><trkpt lat="43.5570904" lon="10.7884157"><ele>155.33333333333334</ele><time>2026-04-18T08:10:46.451Z</time></trkpt><trkpt lat="43.5571454" lon="10.7885468"><ele>156.0</ele><time>2026-04-18T08:10:48.43Z</time></trkpt><trkpt lat="43.5572083" lon="10.7886917"><ele>156.0</ele><time>2026-04-18T08:10:50.439Z</time></trkpt><trkpt lat="43.5572718" lon="10.788834"><ele>156.0</ele><time>2026-04-18T08:10:52.444Z</time></trkpt><trkpt lat="43.5573033" lon="10.7889201"><ele>156.0</ele><time>2026-04-18T08:10:53.435Z</time></trkpt><trkpt lat="43.5573261" lon="10.7890025"><ele>156.0</ele><time>2026-04-18T08:10:54.438Z</time></trkpt><trkpt lat="43.5573541" lon="10.7891551"><ele>156.0</ele><time>2026-04-18T08:10:56.439Z</time></trkpt><trkpt lat="43.5573721" lon="10.7892971"><ele>155.33333333333334</ele><time>2026-04-18T08:10:58.444Z</time></trkpt><trkpt lat="43.5573896" lon="10.7894623"><ele>154.66666666666666</ele><time>2026-04-18T08:11:00.44Z</time></trkpt><trkpt lat="43.557416" lon="10.7896255"><ele>154.0</ele><time>2026-04-18T08:11:02.436Z</time></trkpt><trkpt lat="43.5574361" lon="10.7897137"><ele>153.33333333333331</ele><time>2026-04-18T08:11:03.442Z</time></trkpt><trkpt lat="43.5574593" lon="10.789801"><ele>152.66666666666666</ele><time>2026-04-18T08:11:04.449Z</time></trkpt><trkpt lat="43.5574935" lon="10.7898762"><ele>152.0</ele><time>2026-04-18T08:11:05.436Z</time></trkpt><trkpt lat="43.5575313" lon="10.7899498"><ele>152.0</ele><time>2026-04-18T08:11:06.438Z</time></trkpt><trkpt lat="43.5575698" lon="10.790022"><ele>152.0</ele><time>2026-04-18T08:11:07.439Z</time></trkpt><trkpt lat="43.5576102" lon="10.7900892"><ele>152.0</ele><time>2026-04-18T08:11:08.436Z</time></trkpt><trkpt lat="43.5576464" lon="10.7901605"><ele>152.0</ele><time>2026-04-18T08:11:09.424Z</time></trkpt><trkpt lat="43.5577102" lon="10.7902945"><ele>152.0</ele><time>2026-04-18T08:11:11.426Z</time></trkpt><trkpt lat="43.5577703" lon="10.7904238"><ele>152.0</ele><time>2026-04-18T08:11:13.418Z</time></trkpt><trkpt lat="43.5578439" lon="10.7905534"><ele>150.5</ele><time>2026-04-18T08:11:15.433Z</time></trkpt><trkpt lat="43.5579148" lon="10.7906852"><ele>149.0</ele><time>2026-04-18T08:11:17.446Z</time></trkpt><trkpt lat="43.557955" lon="10.7907592"><ele>147.5</ele><time>2026-04-18T08:11:18.442Z</time></trkpt><trkpt lat="43.5579899" lon="10.7908348"><ele>146.0</ele><time>2026-04-18T08:11:19.436Z</time></trkpt><trkpt lat="43.5580374" lon="10.7909521"><ele>144.5</ele><time>2026-04-18T08:11:21.43Z</time></trkpt><trkpt lat="43.5580676" lon="10.7910614"><ele>143.0</ele><time>2026-04-18T08:11:24.443Z</time></trkpt><trkpt lat="43.5580798" lon="10.7911587"><ele>142.16666666666666</ele><time>2026-04-18T08:11:27.439Z</time></trkpt><trkpt lat="43.5580956" lon="10.7912475"><ele>141.33333333333331</ele><time>2026-04-18T08:11:29.436Z</time></trkpt><trkpt lat="43.5580921" lon="10.7913662"><ele>140.5</ele><time>2026-04-18T08:11:31.43Z</time></trkpt><trkpt lat="43.5580684" lon="10.7915266"><ele>139.66666666666666</ele><time>2026-04-18T08:11:33.427Z</time></trkpt><trkpt lat="43.558053" lon="10.7916181"><ele>138.83333333333334</ele><time>2026-04-18T08:11:34.434Z</time></trkpt><trkpt lat="43.5580275" lon="10.7917138"><ele>138.0</ele><time>2026-04-18T08:11:35.438Z</time></trkpt><trkpt lat="43.5579826" lon="10.7918142"><ele>138.5</ele><time>2026-04-18T08:11:36.44Z</time></trkpt><trkpt lat="43.5579327" lon="10.7919035"><ele>139.0</ele><time>2026-04-18T08:11:37.429Z</time></trkpt><trkpt lat="43.5578847" lon="10.7919936"><ele>139.5</ele><time>2026-04-18T08:11:38.443Z</time></trkpt><trkpt lat="43.5578457" lon="10.792087"><ele>140.0</ele><time>2026-04-18T08:11:39.441Z</time></trkpt><trkpt lat="43.5578291" lon="10.7921917"><ele>140.5</ele><time>2026-04-18T08:11:40.441Z</time></trkpt><trkpt lat="43.5578363" lon="10.7923136"><ele>141.0</ele><time>2026-04-18T08:11:41.445Z</time></trkpt><trkpt lat="43.5578553" lon="10.7924503"><ele>141.33333333333334</ele><time>2026-04-18T08:11:42.433Z</time></trkpt><trkpt lat="43.5578856" lon="10.7925838"><ele>141.66666666666666</ele><time>2026-04-18T08:11:43.438Z</time></trkpt><trkpt lat="43.5579024" lon="10.7927083"><ele>142.0</ele><time>2026-04-18T08:11:44.443Z</time></trkpt><trkpt lat="43.5579264" lon="10.7928124"><ele>142.33333333333331</ele><time>2026-04-18T08:11:45.438Z</time></trkpt><trkpt lat="43.557947" lon="10.7929134"><ele>142.66666666666666</ele><time>2026-04-18T08:11:46.438Z</time></trkpt><trkpt lat="43.557967" lon="10.7930075"><ele>143.0</ele><time>2026-04-18T08:11:47.438Z</time></trkpt><trkpt lat="43.5579866" lon="10.7930953"><ele>144.4</ele><time>2026-04-18T08:11:48.439Z</time></trkpt><trkpt lat="43.558009" lon="10.7931791"><ele>145.8</ele><time>2026-04-18T08:11:49.438Z</time></trkpt><trkpt lat="43.5580335" lon="10.7932617"><ele>147.2</ele><time>2026-04-18T08:11:50.442Z</time></trkpt><trkpt lat="43.5580829" lon="10.7934167"><ele>148.6</ele><time>2026-04-18T08:11:52.438Z</time></trkpt><trkpt lat="43.5581298" lon="10.7935658"><ele>150.0</ele><time>2026-04-18T08:11:54.44Z</time></trkpt><trkpt lat="43.5581708" lon="10.7937235"><ele>150.0</ele><time>2026-04-18T08:11:56.438Z</time></trkpt><trkpt lat="43.5581887" lon="10.7938904"><ele>150.0</ele><time>2026-04-18T08:11:58.44Z</time></trkpt><trkpt lat="43.558206" lon="10.7940564"><ele>150.0</ele><time>2026-04-18T08:12:00.433Z</time></trkpt><trkpt lat="43.5582332" lon="10.7942252"><ele>150.0</ele><time>2026-04-18T08:12:02.432Z</time></trkpt><trkpt lat="43.5582918" lon="10.7943824"><ele>148.83333333333334</ele><time>2026-04-18T08:12:04.439Z</time></trkpt><trkpt lat="43.558336" lon="10.7944581"><ele>147.66666666666666</ele><time>2026-04-18T08:12:05.442Z</time></trkpt><trkpt lat="43.5583818" lon="10.7945404"><ele>146.5</ele><time>2026-04-18T08:12:06.449Z</time></trkpt><trkpt lat="43.5584241" lon="10.7946262"><ele>145.33333333333331</ele><time>2026-04-18T08:12:07.438Z</time></trkpt><trkpt lat="43.5584675" lon="10.7947167"><ele>144.16666666666666</ele><time>2026-04-18T08:12:08.438Z</time></trkpt><trkpt lat="43.5585087" lon="10.794809"><ele>143.0</ele><time>2026-04-18T08:12:09.43Z</time></trkpt><trkpt lat="43.5585525" lon="10.7949042"><ele>143.0</ele><time>2026-04-18T08:12:10.442Z</time></trkpt><trkpt lat="43.5586008" lon="10.7949994"><ele>143.0</ele><time>2026-04-18T08:12:11.439Z</time></trkpt><trkpt lat="43.5586489" lon="10.7950937"><ele>143.0</ele><time>2026-04-18T08:12:12.447Z</time></trkpt><trkpt lat="43.558704" lon="10.7951903"><ele>143.0</ele><time>2026-04-18T08:12:13.431Z</time></trkpt><trkpt lat="43.5587623" lon="10.795268"><ele>143.0</ele><time>2026-04-18T08:12:14.439Z</time></trkpt><trkpt lat="43.5588271" lon="10.7953422"><ele>143.0</ele><time>2026-04-18T08:12:15.435Z</time></trkpt><trkpt lat="43.5588923" lon="10.7954163"><ele>144.33333333333331</ele><time>2026-04-18T08:12:16.435Z</time></trkpt><trkpt lat="43.5589537" lon="10.7954799"><ele>145.66666666666666</ele><time>2026-04-18T08:12:17.431Z</time></trkpt><trkpt lat="43.5590166" lon="10.7955339"><ele>147.0</ele><time>2026-04-18T08:12:18.42Z</time></trkpt><trkpt lat="43.5590827" lon="10.7955884"><ele>148.33333333333334</ele><time>2026-04-18T08:12:19.441Z</time></trkpt><trkpt lat="43.5591459" lon="10.7956323"><ele>149.66666666666669</ele><time>2026-04-18T08:12:20.437Z</time></trkpt><trkpt lat="43.5592417" lon="10.7957112"><ele>151.0</ele><time>2026-04-18T08:12:22.443Z</time></trkpt><trkpt lat="43.5593241" lon="10.7957967"><ele>151.0</ele><time>2026-04-18T08:12:24.441Z</time></trkpt><trkpt lat="43.5593767" lon="10.7958464"><ele>151.0</ele><time>2026-04-18T08:12:25.441Z</time></trkpt><trkpt lat="43.5594278" lon="10.7959051"><ele>151.0</ele><time>2026-04-18T08:12:26.435Z</time></trkpt><trkpt lat="43.5594743" lon="10.7959842"><ele>151.0</ele><time>2026-04-18T08:12:27.438Z</time></trkpt><trkpt lat="43.5595263" lon="10.7960686"><ele>151.0</ele><time>2026-04-18T08:12:28.419Z</time></trkpt><trkpt lat="43.5595779" lon="10.7961588"><ele>151.0</ele><time>2026-04-18T08:12:29.425Z</time></trkpt><trkpt lat="43.5596287" lon="10.7962487"><ele>153.42857142857144</ele><time>2026-04-18T08:12:30.442Z</time></trkpt><trkpt lat="43.5596751" lon="10.7963282"><ele>155.85714285714286</ele><time>2026-04-18T08:12:31.438Z</time></trkpt><trkpt lat="43.5597301" lon="10.7964119"><ele>158.28571428571428</ele><time>2026-04-18T08:12:32.438Z</time></trkpt><trkpt lat="43.5597812" lon="10.7964898"><ele>160.71428571428572</ele><time>2026-04-18T08:12:33.441Z</time></trkpt><trkpt lat="43.5598307" lon="10.7965696"><ele>163.14285714285714</ele><time>2026-04-18T08:12:34.434Z</time></trkpt><trkpt lat="43.5598725" lon="10.7966515"><ele>165.57142857142858</ele><time>2026-04-18T08:12:35.426Z</time></trkpt><trkpt lat="43.5599195" lon="10.79672"><ele>168.0</ele><time>2026-04-18T08:12:36.438Z</time></trkpt><trkpt lat="43.5599645" lon="10.79679"><ele>166.42857142857142</ele><time>2026-04-18T08:12:37.421Z</time></trkpt><trkpt lat="43.560013" lon="10.7968565"><ele>164.85714285714286</ele><time>2026-04-18T08:12:38.42Z</time></trkpt><trkpt lat="43.5600579" lon="10.7969276"><ele>163.28571428571428</ele><time>2026-04-18T08:12:39.444Z</time></trkpt><trkpt lat="43.5601058" lon="10.7970003"><ele>161.71428571428572</ele><time>2026-04-18T08:12:40.431Z</time></trkpt><trkpt lat="43.5601474" lon="10.7970762"><ele>160.14285714285714</ele><time>2026-04-18T08:12:41.43Z</time></trkpt><trkpt lat="43.5601864" lon="10.7971454"><ele>158.57142857142856</ele><time>2026-04-18T08:12:42.434Z</time></trkpt><trkpt lat="43.5602298" lon="10.7972149"><ele>157.0</ele><time>2026-04-18T08:12:43.427Z</time></trkpt><trkpt lat="43.5602777" lon="10.7972795"><ele>156.99999999999997</ele><time>2026-04-18T08:12:44.433Z</time></trkpt><trkpt lat="43.5603341" lon="10.7973338"><ele>157.0</ele><time>2026-04-18T08:12:45.437Z</time></trkpt><trkpt lat="43.5603977" lon="10.7973712"><ele>157.0</ele><time>2026-04-18T08:12:46.43Z</time></trkpt><trkpt lat="43.560471" lon="10.7973978"><ele>157.0</ele><time>2026-04-18T08:12:47.431Z</time></trkpt><trkpt lat="43.5605439" lon="10.7974271"><ele>157.0</ele><time>2026-04-18T08:12:48.415Z</time></trkpt><trkpt lat="43.5606162" lon="10.7974505"><ele>156.99999999999997</ele><time>2026-04-18T08:12:49.421Z</time></trkpt><trkpt lat="43.5606879" lon="10.7974571"><ele>157.0</ele><time>2026-04-18T08:12:50.436Z</time></trkpt><trkpt lat="43.5607611" lon="10.7974525"><ele>158.83333333333334</ele><time>2026-04-18T08:12:51.436Z</time></trkpt><trkpt lat="43.5608421" lon="10.797453"><ele>160.66666666666669</ele><time>2026-04-18T08:12:52.43Z</time></trkpt><trkpt lat="43.5609253" lon="10.7974527"><ele>162.5</ele><time>2026-04-18T08:12:53.435Z</time></trkpt><trkpt lat="43.561007" lon="10.7974543"><ele>164.33333333333334</ele><time>2026-04-18T08:12:54.436Z</time></trkpt><trkpt lat="43.5610883" lon="10.7974679"><ele>166.16666666666666</ele><time>2026-04-18T08:12:55.422Z</time></trkpt><trkpt lat="43.5611715" lon="10.7974734"><ele>168.0</ele><time>2026-04-18T08:12:56.434Z</time></trkpt><trkpt lat="43.561253" lon="10.7974835"><ele>168.0</ele><time>2026-04-18T08:12:57.434Z</time></trkpt><trkpt lat="43.5613353" lon="10.7975088"><ele>168.0</ele><time>2026-04-18T08:12:58.428Z</time></trkpt><trkpt lat="43.5614131" lon="10.7975268"><ele>168.0</ele><time>2026-04-18T08:12:59.434Z</time></trkpt><trkpt lat="43.5614886" lon="10.7975437"><ele>168.0</ele><time>2026-04-18T08:13:00.429Z</time></trkpt><trkpt lat="43.5615629" lon="10.79756"><ele>168.0</ele><time>2026-04-18T08:13:01.427Z</time></trkpt><trkpt lat="43.5616374" lon="10.7975909"><ele>168.0</ele><time>2026-04-18T08:13:02.447Z</time></trkpt><trkpt lat="43.561715" lon="10.7976163"><ele>168.0</ele><time>2026-04-18T08:13:03.42Z</time></trkpt><trkpt lat="43.5617927" lon="10.7976387"><ele>168.0</ele><time>2026-04-18T08:13:04.438Z</time></trkpt><trkpt lat="43.561866" lon="10.79766"><ele>168.0</ele><time>2026-04-18T08:13:05.429Z</time></trkpt><trkpt lat="43.5619394" lon="10.7976786"><ele>168.0</ele><time>2026-04-18T08:13:06.442Z</time></trkpt><trkpt lat="43.5620072" lon="10.7976998"><ele>168.0</ele><time>2026-04-18T08:13:07.436Z</time></trkpt><trkpt lat="43.562079" lon="10.7977238"><ele>168.0</ele><time>2026-04-18T08:13:08.422Z</time></trkpt><trkpt lat="43.5621434" lon="10.7977483"><ele>168.0</ele><time>2026-04-18T08:13:09.427Z</time></trkpt><trkpt lat="43.5622076" lon="10.7977844"><ele>169.66666666666666</ele><time>2026-04-18T08:13:10.429Z</time></trkpt><trkpt lat="43.5623078" lon="10.7978765"><ele>171.33333333333334</ele><time>2026-04-18T08:13:12.446Z</time></trkpt><trkpt lat="43.5623682" lon="10.7979287"><ele>173.0</ele><time>2026-04-18T08:13:13.438Z</time></trkpt><trkpt lat="43.5624314" lon="10.7979883"><ele>174.66666666666669</ele><time>2026-04-18T08:13:14.456Z</time></trkpt><trkpt lat="43.5624941" lon="10.798053"><ele>176.33333333333334</ele><time>2026-04-18T08:13:15.433Z</time></trkpt><trkpt lat="43.5625543" lon="10.7981277"><ele>178.0</ele><time>2026-04-18T08:13:16.439Z</time></trkpt><trkpt lat="43.562615" lon="10.7981994"><ele>178.0</ele><time>2026-04-18T08:13:17.428Z</time></trkpt><trkpt lat="43.562677" lon="10.7982738"><ele>178.0</ele><time>2026-04-18T08:13:18.432Z</time></trkpt><trkpt lat="43.5627552" lon="10.7983458"><ele>178.0</ele><time>2026-04-18T08:13:19.437Z</time></trkpt><trkpt lat="43.5628315" lon="10.7984017"><ele>178.0</ele><time>2026-04-18T08:13:20.437Z</time></trkpt><trkpt lat="43.562906" lon="10.7984608"><ele>178.0</ele><time>2026-04-18T08:13:21.445Z</time></trkpt><trkpt lat="43.562985" lon="10.7985208"><ele>178.0</ele><time>2026-04-18T08:13:22.446Z</time></trkpt><trkpt lat="43.5630552" lon="10.7985849"><ele>179.57142857142856</ele><time>2026-04-18T08:13:23.431Z</time></trkpt><trkpt lat="43.5631214" lon="10.7986492"><ele>181.14285714285714</ele><time>2026-04-18T08:13:24.436Z</time></trkpt><trkpt lat="43.563184" lon="10.7987106"><ele>182.71428571428572</ele><time>2026-04-18T08:13:25.421Z</time></trkpt><trkpt lat="43.5632483" lon="10.7987605"><ele>184.28571428571428</ele><time>2026-04-18T08:13:26.439Z</time></trkpt><trkpt lat="43.5633097" lon="10.7988109"><ele>185.85714285714286</ele><time>2026-04-18T08:13:27.431Z</time></trkpt><trkpt lat="43.5633699" lon="10.7988607"><ele>187.42857142857142</ele><time>2026-04-18T08:13:28.428Z</time></trkpt><trkpt lat="43.5634254" lon="10.7989151"><ele>189.0</ele><time>2026-04-18T08:13:29.427Z</time></trkpt><trkpt lat="43.5634827" lon="10.7989631"><ele>189.0</ele><time>2026-04-18T08:13:30.448Z</time></trkpt><trkpt lat="43.5635391" lon="10.7990171"><ele>189.0</ele><time>2026-04-18T08:13:31.424Z</time></trkpt><trkpt lat="43.5635894" lon="10.7990728"><ele>189.0</ele><time>2026-04-18T08:13:32.424Z</time></trkpt><trkpt lat="43.5636388" lon="10.799135"><ele>189.0</ele><time>2026-04-18T08:13:33.434Z</time></trkpt><trkpt lat="43.5636807" lon="10.7992025"><ele>189.0</ele><time>2026-04-18T08:13:34.44Z</time></trkpt><trkpt lat="43.5637197" lon="10.7992751"><ele>189.0</ele><time>2026-04-18T08:13:35.435Z</time></trkpt><trkpt lat="43.5637725" lon="10.7994307"><ele>188.33333333333334</ele><time>2026-04-18T08:13:37.438Z</time></trkpt><trkpt lat="43.5637993" lon="10.7995196"><ele>187.66666666666666</ele><time>2026-04-18T08:13:38.441Z</time></trkpt><trkpt lat="43.5638256" lon="10.799611"><ele>187.0</ele><time>2026-04-18T08:13:39.435Z</time></trkpt><trkpt lat="43.5638606" lon="10.7997076"><ele>186.33333333333331</ele><time>2026-04-18T08:13:40.431Z</time></trkpt><trkpt lat="43.5639033" lon="10.7997802"><ele>185.66666666666666</ele><time>2026-04-18T08:13:41.423Z</time></trkpt><trkpt lat="43.5639694" lon="10.7998467"><ele>185.0</ele><time>2026-04-18T08:13:42.434Z</time></trkpt><trkpt lat="43.5640441" lon="10.7998987"><ele>185.0</ele><time>2026-04-18T08:13:43.441Z</time></trkpt><trkpt lat="43.564117" lon="10.7999499"><ele>185.0</ele><time>2026-04-18T08:13:44.436Z</time></trkpt><trkpt lat="43.5641865" lon="10.7999972"><ele>185.0</ele><time>2026-04-18T08:13:45.435Z</time></trkpt><trkpt lat="43.5642576" lon="10.8000375"><ele>185.0</ele><time>2026-04-18T08:13:46.434Z</time></trkpt><trkpt lat="43.5643286" lon="10.8000839"><ele>185.0</ele><time>2026-04-18T08:13:47.44Z</time></trkpt><trkpt lat="43.5643988" lon="10.8001337"><ele>185.0</ele><time>2026-04-18T08:13:48.424Z</time></trkpt><trkpt lat="43.5644699" lon="10.8001674"><ele>184.16666666666666</ele><time>2026-04-18T08:13:49.428Z</time></trkpt><trkpt lat="43.5645365" lon="10.8002029"><ele>183.33333333333331</ele><time>2026-04-18T08:13:50.423Z</time></trkpt><trkpt lat="43.5646" lon="10.8002386"><ele>182.5</ele><time>2026-04-18T08:13:51.441Z</time></trkpt><trkpt lat="43.5646715" lon="10.8002723"><ele>181.66666666666666</ele><time>2026-04-18T08:13:52.437Z</time></trkpt><trkpt lat="43.5647485" lon="10.8003127"><ele>180.83333333333334</ele><time>2026-04-18T08:13:53.441Z</time></trkpt><trkpt lat="43.5648316" lon="10.800353"><ele>180.0</ele><time>2026-04-18T08:13:54.428Z</time></trkpt><trkpt lat="43.5649171" lon="10.8003982"><ele>180.0</ele><time>2026-04-18T08:13:55.43Z</time></trkpt><trkpt lat="43.565004" lon="10.8004294"><ele>180.0</ele><time>2026-04-18T08:13:56.424Z</time></trkpt><trkpt lat="43.5650933" lon="10.8004292"><ele>180.0</ele><time>2026-04-18T08:13:57.431Z</time></trkpt><trkpt lat="43.565174" lon="10.8004248"><ele>180.0</ele><time>2026-04-18T08:13:58.424Z</time></trkpt><trkpt lat="43.5652566" lon="10.8004049"><ele>180.0</ele><time>2026-04-18T08:13:59.429Z</time></trkpt><trkpt lat="43.5653386" lon="10.8004044"><ele>180.0</ele><time>2026-04-18T08:14:00.447Z</time></trkpt><trkpt lat="43.5654201" lon="10.8004204"><ele>180.33333333333334</ele><time>2026-04-18T08:14:01.427Z</time></trkpt><trkpt lat="43.5654951" lon="10.8004493"><ele>180.66666666666666</ele><time>2026-04-18T08:14:02.43Z</time></trkpt><trkpt lat="43.5655669" lon="10.8005052"><ele>181.0</ele><time>2026-04-18T08:14:03.44Z</time></trkpt><trkpt lat="43.5656296" lon="10.8005794"><ele>181.33333333333331</ele><time>2026-04-18T08:14:04.432Z</time></trkpt><trkpt lat="43.5656812" lon="10.800667"><ele>181.66666666666666</ele><time>2026-04-18T08:14:05.443Z</time></trkpt><trkpt lat="43.5657344" lon="10.8007493"><ele>182.0</ele><time>2026-04-18T08:14:06.432Z</time></trkpt><trkpt lat="43.5657917" lon="10.8008203"><ele>182.0</ele><time>2026-04-18T08:14:07.433Z</time></trkpt><trkpt lat="43.5658553" lon="10.800877"><ele>182.0</ele><time>2026-04-18T08:14:08.435Z</time></trkpt><trkpt lat="43.5659298" lon="10.8009283"><ele>182.0</ele><time>2026-04-18T08:14:09.437Z</time></trkpt><trkpt lat="43.566002" lon="10.8009835"><ele>182.0</ele><time>2026-04-18T08:14:10.439Z</time></trkpt><trkpt lat="43.5660836" lon="10.8010474"><ele>182.0</ele><time>2026-04-18T08:14:11.431Z</time></trkpt><trkpt lat="43.5661692" lon="10.8011004"><ele>182.0</ele><time>2026-04-18T08:14:12.456Z</time></trkpt><trkpt lat="43.5662567" lon="10.8011586"><ele>182.2</ele><time>2026-04-18T08:14:13.428Z</time></trkpt><trkpt lat="43.5663471" lon="10.8012167"><ele>182.39999999999998</ele><time>2026-04-18T08:14:14.441Z</time></trkpt><trkpt lat="43.5664454" lon="10.8012739"><ele>182.60000000000002</ele><time>2026-04-18T08:14:15.431Z</time></trkpt><trkpt lat="43.5665459" lon="10.8013446"><ele>182.8</ele><time>2026-04-18T08:14:16.431Z</time></trkpt><trkpt lat="43.5666504" lon="10.801415"><ele>183.0</ele><time>2026-04-18T08:14:17.427Z</time></trkpt><trkpt lat="43.5667627" lon="10.8014896"><ele>183.0</ele><time>2026-04-18T08:14:18.43Z</time></trkpt><trkpt lat="43.5668826" lon="10.8015579"><ele>183.0</ele><time>2026-04-18T08:14:19.427Z</time></trkpt><trkpt lat="43.5670075" lon="10.8016382"><ele>183.0</ele><time>2026-04-18T08:14:20.439Z</time></trkpt><trkpt lat="43.5671313" lon="10.8017018"><ele>183.0</ele><time>2026-04-18T08:14:21.429Z</time></trkpt><trkpt lat="43.5672553" lon="10.8017645"><ele>183.0</ele><time>2026-04-18T08:14:22.429Z</time></trkpt><trkpt lat="43.56738" lon="10.8018102"><ele>183.0</ele><time>2026-04-18T08:14:23.433Z</time></trkpt><trkpt lat="43.5674988" lon="10.8018398"><ele>183.0</ele><time>2026-04-18T08:14:24.427Z</time></trkpt><trkpt lat="43.5676124" lon="10.8018637"><ele>183.0</ele><time>2026-04-18T08:14:25.429Z</time></trkpt><trkpt lat="43.567722" lon="10.8018782"><ele>183.0</ele><time>2026-04-18T08:14:26.438Z</time></trkpt><trkpt lat="43.5678439" lon="10.8019012"><ele>183.0</ele><time>2026-04-18T08:14:27.432Z</time></trkpt><trkpt lat="43.5679598" lon="10.8019076"><ele>183.0</ele><time>2026-04-18T08:14:28.423Z</time></trkpt><trkpt lat="43.5680776" lon="10.8019172"><ele>183.0</ele><time>2026-04-18T08:14:29.422Z</time></trkpt><trkpt lat="43.5681989" lon="10.801922"><ele>182.5</ele><time>2026-04-18T08:14:30.432Z</time></trkpt><trkpt lat="43.568323" lon="10.801932"><ele>182.0</ele><time>2026-04-18T08:14:31.44Z</time></trkpt><trkpt lat="43.5684502" lon="10.8019373"><ele>181.5</ele><time>2026-04-18T08:14:32.434Z</time></trkpt><trkpt lat="43.5685735" lon="10.8019419"><ele>181.0</ele><time>2026-04-18T08:14:33.438Z</time></trkpt><trkpt lat="43.5686961" lon="10.8019496"><ele>184.25</ele><time>2026-04-18T08:14:34.434Z</time></trkpt><trkpt lat="43.5688137" lon="10.8019546"><ele>187.5</ele><time>2026-04-18T08:14:35.439Z</time></trkpt><trkpt lat="43.5689247" lon="10.8019499"><ele>190.75</ele><time>2026-04-18T08:14:36.449Z</time></trkpt><trkpt lat="43.5690347" lon="10.8019163"><ele>194.0</ele><time>2026-04-18T08:14:37.428Z</time></trkpt><trkpt lat="43.5691372" lon="10.801864"><ele>194.00000000000003</ele><time>2026-04-18T08:14:38.436Z</time></trkpt><trkpt lat="43.5692372" lon="10.8018286"><ele>194.0</ele><time>2026-04-18T08:14:39.428Z</time></trkpt><trkpt lat="43.5693327" lon="10.8018097"><ele>194.0</ele><time>2026-04-18T08:14:40.443Z</time></trkpt><trkpt lat="43.5694064" lon="10.8018233"><ele>194.0</ele><time>2026-04-18T08:14:41.432Z</time></trkpt><trkpt lat="43.5694704" lon="10.8018616"><ele>194.00000000000003</ele><time>2026-04-18T08:14:42.445Z</time></trkpt><trkpt lat="43.5695238" lon="10.8019222"><ele>194.0</ele><time>2026-04-18T08:14:43.435Z</time></trkpt><trkpt lat="43.5695733" lon="10.8020005"><ele>198.16666666666669</ele><time>2026-04-18T08:14:44.447Z</time></trkpt><trkpt lat="43.5696231" lon="10.8020886"><ele>202.33333333333334</ele><time>2026-04-18T08:14:45.43Z</time></trkpt><trkpt lat="43.5696731" lon="10.8021797"><ele>206.5</ele><time>2026-04-18T08:14:46.444Z</time></trkpt><trkpt lat="43.5697189" lon="10.8022793"><ele>210.66666666666669</ele><time>2026-04-18T08:14:47.427Z</time></trkpt><trkpt lat="43.5697662" lon="10.8023792"><ele>214.83333333333334</ele><time>2026-04-18T08:14:48.43Z</time></trkpt><trkpt lat="43.5698143" lon="10.8024818"><ele>219.0</ele><time>2026-04-18T08:14:49.425Z</time></trkpt><trkpt lat="43.5698588" lon="10.8025854"><ele>216.66666666666666</ele><time>2026-04-18T08:14:50.439Z</time></trkpt><trkpt lat="43.5699016" lon="10.8026878"><ele>214.33333333333331</ele><time>2026-04-18T08:14:51.455Z</time></trkpt><trkpt lat="43.5699446" lon="10.8027867"><ele>212.0</ele><time>2026-04-18T08:14:52.447Z</time></trkpt><trkpt lat="43.5699834" lon="10.8028932"><ele>209.66666666666666</ele><time>2026-04-18T08:14:53.447Z</time></trkpt><trkpt lat="43.5700291" lon="10.8029928"><ele>207.33333333333331</ele><time>2026-04-18T08:14:54.45Z</time></trkpt><trkpt lat="43.5700777" lon="10.8030884"><ele>205.0</ele><time>2026-04-18T08:14:55.418Z</time></trkpt><trkpt lat="43.570136" lon="10.8031792"><ele>205.0</ele><time>2026-04-18T08:14:56.43Z</time></trkpt><trkpt lat="43.5702051" lon="10.8032607"><ele>205.0</ele><time>2026-04-18T08:14:57.427Z</time></trkpt><trkpt lat="43.5702901" lon="10.8033259"><ele>205.0</ele><time>2026-04-18T08:14:58.431Z</time></trkpt><trkpt lat="43.5703833" lon="10.8033827"><ele>205.0</ele><time>2026-04-18T08:14:59.43Z</time></trkpt><trkpt lat="43.5704885" lon="10.8034345"><ele>205.0</ele><time>2026-04-18T08:15:00.433Z</time></trkpt><trkpt lat="43.5705988" lon="10.803498"><ele>204.4</ele><time>2026-04-18T08:15:01.428Z</time></trkpt><trkpt lat="43.5707023" lon="10.8035651"><ele>203.8</ele><time>2026-04-18T08:15:02.443Z</time></trkpt><trkpt lat="43.5707982" lon="10.80363"><ele>203.2</ele><time>2026-04-18T08:15:03.425Z</time></trkpt><trkpt lat="43.5708775" lon="10.803713"><ele>202.6</ele><time>2026-04-18T08:15:04.424Z</time></trkpt><trkpt lat="43.5709448" lon="10.8038085"><ele>202.0</ele><time>2026-04-18T08:15:05.438Z</time></trkpt><trkpt lat="43.5709986" lon="10.8039258"><ele>202.0</ele><time>2026-04-18T08:15:06.422Z</time></trkpt><trkpt lat="43.5710303" lon="10.8040638"><ele>202.0</ele><time>2026-04-18T08:15:07.431Z</time></trkpt><trkpt lat="43.5710619" lon="10.8042023"><ele>202.0</ele><time>2026-04-18T08:15:08.425Z</time></trkpt><trkpt lat="43.5710814" lon="10.8043601"><ele>202.0</ele><time>2026-04-18T08:15:09.417Z</time></trkpt><trkpt lat="43.5710844" lon="10.804522"><ele>202.0</ele><time>2026-04-18T08:15:10.424Z</time></trkpt><trkpt lat="43.5710821" lon="10.8046925"><ele>199.5</ele><time>2026-04-18T08:15:11.439Z</time></trkpt><trkpt lat="43.5710643" lon="10.804859"><ele>197.0</ele><time>2026-04-18T08:15:12.426Z</time></trkpt><trkpt lat="43.5710525" lon="10.8050358"><ele>194.5</ele><time>2026-04-18T08:15:13.448Z</time></trkpt><trkpt lat="43.5710376" lon="10.8052322"><ele>192.0</ele><time>2026-04-18T08:15:14.434Z</time></trkpt><trkpt lat="43.5710159" lon="10.8054296"><ele>189.25</ele><time>2026-04-18T08:15:15.442Z</time></trkpt><trkpt lat="43.5710032" lon="10.8056154"><ele>186.5</ele><time>2026-04-18T08:15:16.444Z</time></trkpt><trkpt lat="43.5709933" lon="10.805785"><ele>183.75</ele><time>2026-04-18T08:15:17.444Z</time></trkpt><trkpt lat="43.5709936" lon="10.805951"><ele>181.0</ele><time>2026-04-18T08:15:18.444Z</time></trkpt><trkpt lat="43.5710099" lon="10.8061171"><ele>179.75</ele><time>2026-04-18T08:15:19.451Z</time></trkpt><trkpt lat="43.5710356" lon="10.806286"><ele>178.5</ele><time>2026-04-18T08:15:20.446Z</time></trkpt><trkpt lat="43.5710619" lon="10.8064547"><ele>177.25</ele><time>2026-04-18T08:15:21.445Z</time></trkpt><trkpt lat="43.5710865" lon="10.8066245"><ele>176.0</ele><time>2026-04-18T08:15:22.448Z</time></trkpt><trkpt lat="43.5711082" lon="10.8067952"><ele>176.8</ele><time>2026-04-18T08:15:23.432Z</time></trkpt><trkpt lat="43.5711329" lon="10.8069497"><ele>177.60000000000002</ele><time>2026-04-18T08:15:24.427Z</time></trkpt><trkpt lat="43.5711572" lon="10.8070915"><ele>178.4</ele><time>2026-04-18T08:15:25.433Z</time></trkpt><trkpt lat="43.571177" lon="10.8072275"><ele>179.2</ele><time>2026-04-18T08:15:26.424Z</time></trkpt><trkpt lat="43.571178" lon="10.807366"><ele>180.0</ele><time>2026-04-18T08:15:27.434Z</time></trkpt><trkpt lat="43.5711643" lon="10.8074957"><ele>180.0</ele><time>2026-04-18T08:15:28.432Z</time></trkpt><trkpt lat="43.5711313" lon="10.807623"><ele>180.0</ele><time>2026-04-18T08:15:29.433Z</time></trkpt><trkpt lat="43.5710786" lon="10.8077451"><ele>180.0</ele><time>2026-04-18T08:15:30.432Z</time></trkpt><trkpt lat="43.5710132" lon="10.8078622"><ele>180.0</ele><time>2026-04-18T08:15:31.432Z</time></trkpt><trkpt lat="43.570936" lon="10.807982"><ele>180.0</ele><time>2026-04-18T08:15:32.419Z</time></trkpt><trkpt lat="43.5708582" lon="10.8081037"><ele>178.66666666666666</ele><time>2026-04-18T08:15:33.423Z</time></trkpt><trkpt lat="43.5707796" lon="10.8082267"><ele>177.33333333333331</ele><time>2026-04-18T08:15:34.422Z</time></trkpt><trkpt lat="43.5706237" lon="10.8084806"><ele>176.0</ele><time>2026-04-18T08:15:36.45Z</time></trkpt><trkpt lat="43.5705411" lon="10.8086041"><ele>174.8</ele><time>2026-04-18T08:15:37.434Z</time></trkpt><trkpt lat="43.5704644" lon="10.8087068"><ele>173.60000000000002</ele><time>2026-04-18T08:15:38.439Z</time></trkpt><trkpt lat="43.5703775" lon="10.8087777"><ele>172.4</ele><time>2026-04-18T08:15:39.439Z</time></trkpt><trkpt lat="43.5702786" lon="10.8088241"><ele>171.2</ele><time>2026-04-18T08:15:40.439Z</time></trkpt><trkpt lat="43.570179" lon="10.8088422"><ele>170.0</ele><time>2026-04-18T08:15:41.446Z</time></trkpt><trkpt lat="43.5700796" lon="10.8088235"><ele>170.0</ele><time>2026-04-18T08:15:42.439Z</time></trkpt><trkpt lat="43.569986" lon="10.8087951"><ele>170.0</ele><time>2026-04-18T08:15:43.442Z</time></trkpt><trkpt lat="43.5698892" lon="10.8087355"><ele>170.0</ele><time>2026-04-18T08:15:44.444Z</time></trkpt><trkpt lat="43.569793" lon="10.8086633"><ele>170.0</ele><time>2026-04-18T08:15:45.433Z</time></trkpt><trkpt lat="43.5696988" lon="10.8086136"><ele>170.0</ele><time>2026-04-18T08:15:46.438Z</time></trkpt><trkpt lat="43.5696032" lon="10.8085763"><ele>169.6</ele><time>2026-04-18T08:15:47.422Z</time></trkpt><trkpt lat="43.5695087" lon="10.8085825"><ele>169.2</ele><time>2026-04-18T08:15:48.426Z</time></trkpt><trkpt lat="43.5694066" lon="10.8086498"><ele>168.8</ele><time>2026-04-18T08:15:49.439Z</time></trkpt><trkpt lat="43.5693105" lon="10.8087468"><ele>168.4</ele><time>2026-04-18T08:15:50.43Z</time></trkpt><trkpt lat="43.5692141" lon="10.8088401"><ele>168.0</ele><time>2026-04-18T08:15:51.421Z</time></trkpt><trkpt lat="43.5691135" lon="10.8089378"><ele>168.0</ele><time>2026-04-18T08:15:52.442Z</time></trkpt><trkpt lat="43.5690169" lon="10.8090603"><ele>168.0</ele><time>2026-04-18T08:15:53.437Z</time></trkpt><trkpt lat="43.568927" lon="10.8091869"><ele>168.0</ele><time>2026-04-18T08:15:54.449Z</time></trkpt><trkpt lat="43.5688479" lon="10.8093183"><ele>168.0</ele><time>2026-04-18T08:15:55.422Z</time></trkpt><trkpt lat="43.5687762" lon="10.8094473"><ele>168.2</ele><time>2026-04-18T08:15:56.434Z</time></trkpt><trkpt lat="43.5687092" lon="10.8095723"><ele>168.4</ele><time>2026-04-18T08:15:57.428Z</time></trkpt><trkpt lat="43.5686382" lon="10.8096873"><ele>168.6</ele><time>2026-04-18T08:15:58.432Z</time></trkpt><trkpt lat="43.5685698" lon="10.8097829"><ele>168.79999999999998</ele><time>2026-04-18T08:15:59.42Z</time></trkpt><trkpt lat="43.568487" lon="10.809853"><ele>169.0</ele><time>2026-04-18T08:16:00.442Z</time></trkpt><trkpt lat="43.5684065" lon="10.809892"><ele>169.0</ele><time>2026-04-18T08:16:01.434Z</time></trkpt><trkpt lat="43.5683141" lon="10.8099078"><ele>169.0</ele><time>2026-04-18T08:16:02.45Z</time></trkpt><trkpt lat="43.5682262" lon="10.8099254"><ele>169.0</ele><time>2026-04-18T08:16:03.435Z</time></trkpt><trkpt lat="43.5681441" lon="10.8099637"><ele>169.0</ele><time>2026-04-18T08:16:04.434Z</time></trkpt><trkpt lat="43.5680637" lon="10.8100245"><ele>169.0</ele><time>2026-04-18T08:16:05.431Z</time></trkpt><trkpt lat="43.5679983" lon="10.8101137"><ele>168.0</ele><time>2026-04-18T08:16:06.453Z</time></trkpt><trkpt lat="43.5679348" lon="10.8102276"><ele>167.0</ele><time>2026-04-18T08:16:07.429Z</time></trkpt><trkpt lat="43.5678728" lon="10.8103497"><ele>166.0</ele><time>2026-04-18T08:16:08.444Z</time></trkpt><trkpt lat="43.5678135" lon="10.8104686"><ele>165.0</ele><time>2026-04-18T08:16:09.467Z</time></trkpt><trkpt lat="43.5677658" lon="10.8106003"><ele>164.0</ele><time>2026-04-18T08:16:10.443Z</time></trkpt><trkpt lat="43.567748" lon="10.8107517"><ele>164.6</ele><time>2026-04-18T08:16:11.442Z</time></trkpt><trkpt lat="43.5677569" lon="10.810893"><ele>165.2</ele><time>2026-04-18T08:16:12.447Z</time></trkpt><trkpt lat="43.5677884" lon="10.8110465"><ele>165.79999999999998</ele><time>2026-04-18T08:16:13.439Z</time></trkpt><trkpt lat="43.5678276" lon="10.8111732"><ele>166.39999999999998</ele><time>2026-04-18T08:16:14.455Z</time></trkpt><trkpt lat="43.5678658" lon="10.8113039"><ele>167.0</ele><time>2026-04-18T08:16:15.44Z</time></trkpt><trkpt lat="43.5679096" lon="10.8114166"><ele>167.0</ele><time>2026-04-18T08:16:16.436Z</time></trkpt><trkpt lat="43.56794" lon="10.8115491"><ele>167.0</ele><time>2026-04-18T08:16:17.435Z</time></trkpt><trkpt lat="43.5679725" lon="10.8116795"><ele>167.0</ele><time>2026-04-18T08:16:18.428Z</time></trkpt><trkpt lat="43.5680099" lon="10.8118094"><ele>167.0</ele><time>2026-04-18T08:16:19.423Z</time></trkpt><trkpt lat="43.5680469" lon="10.811944"><ele>167.0</ele><time>2026-04-18T08:16:20.452Z</time></trkpt><trkpt lat="43.5680817" lon="10.8120843"><ele>168.0</ele><time>2026-04-18T08:16:21.433Z</time></trkpt><trkpt lat="43.568116" lon="10.8122245"><ele>169.0</ele><time>2026-04-18T08:16:22.455Z</time></trkpt><trkpt lat="43.5681517" lon="10.8123702"><ele>170.0</ele><time>2026-04-18T08:16:23.424Z</time></trkpt><trkpt lat="43.5681826" lon="10.812502"><ele>171.0</ele><time>2026-04-18T08:16:24.426Z</time></trkpt><trkpt lat="43.5682102" lon="10.8126328"><ele>172.0</ele><time>2026-04-18T08:16:25.426Z</time></trkpt><trkpt lat="43.5682271" lon="10.8127529"><ele>172.0</ele><time>2026-04-18T08:16:26.447Z</time></trkpt><trkpt lat="43.568214" lon="10.8128715"><ele>172.0</ele><time>2026-04-18T08:16:27.438Z</time></trkpt><trkpt lat="43.5681813" lon="10.8129872"><ele>172.0</ele><time>2026-04-18T08:16:28.451Z</time></trkpt><trkpt lat="43.5681389" lon="10.8131056"><ele>172.0</ele><time>2026-04-18T08:16:29.441Z</time></trkpt><trkpt lat="43.5680884" lon="10.8132288"><ele>172.0</ele><time>2026-04-18T08:16:30.455Z</time></trkpt><trkpt lat="43.5680376" lon="10.8133502"><ele>172.0</ele><time>2026-04-18T08:16:31.434Z</time></trkpt><trkpt lat="43.5679958" lon="10.8134644"><ele>172.0</ele><time>2026-04-18T08:16:32.454Z</time></trkpt><trkpt lat="43.5679825" lon="10.8136028"><ele>172.0</ele><time>2026-04-18T08:16:33.436Z</time></trkpt><trkpt lat="43.5679873" lon="10.8137512"><ele>172.0</ele><time>2026-04-18T08:16:34.421Z</time></trkpt><trkpt lat="43.5679948" lon="10.8138973"><ele>172.0</ele><time>2026-04-18T08:16:35.424Z</time></trkpt><trkpt lat="43.5680168" lon="10.8140503"><ele>172.2</ele><time>2026-04-18T08:16:36.444Z</time></trkpt><trkpt lat="43.5680381" lon="10.8142053"><ele>172.39999999999998</ele><time>2026-04-18T08:16:37.445Z</time></trkpt><trkpt lat="43.5680633" lon="10.8143613"><ele>172.60000000000002</ele><time>2026-04-18T08:16:38.432Z</time></trkpt><trkpt lat="43.5680826" lon="10.8145041"><ele>172.8</ele><time>2026-04-18T08:16:39.432Z</time></trkpt><trkpt lat="43.5680993" lon="10.8146456"><ele>173.0</ele><time>2026-04-18T08:16:40.441Z</time></trkpt><trkpt lat="43.5681147" lon="10.8148032"><ele>174.25</ele><time>2026-04-18T08:16:41.448Z</time></trkpt><trkpt lat="43.5681339" lon="10.8149636"><ele>175.5</ele><time>2026-04-18T08:16:42.442Z</time></trkpt><trkpt lat="43.5681593" lon="10.8151291"><ele>176.75</ele><time>2026-04-18T08:16:43.433Z</time></trkpt><trkpt lat="43.5681823" lon="10.8152956"><ele>178.0</ele><time>2026-04-18T08:16:44.444Z</time></trkpt><trkpt lat="43.5682112" lon="10.8154605"><ele>178.0</ele><time>2026-04-18T08:16:45.436Z</time></trkpt><trkpt lat="43.5682525" lon="10.815624"><ele>178.0</ele><time>2026-04-18T08:16:46.431Z</time></trkpt><trkpt lat="43.5683066" lon="10.815782"><ele>178.0</ele><time>2026-04-18T08:16:47.438Z</time></trkpt><trkpt lat="43.5683671" lon="10.8159342"><ele>178.0</ele><time>2026-04-18T08:16:48.44Z</time></trkpt><trkpt lat="43.5684347" lon="10.8160866"><ele>178.0</ele><time>2026-04-18T08:16:49.416Z</time></trkpt><trkpt lat="43.5685038" lon="10.8162399"><ele>178.0</ele><time>2026-04-18T08:16:50.425Z</time></trkpt><trkpt lat="43.5685805" lon="10.8164001"><ele>178.0</ele><time>2026-04-18T08:16:51.434Z</time></trkpt><trkpt lat="43.5686642" lon="10.8165745"><ele>178.0</ele><time>2026-04-18T08:16:52.447Z</time></trkpt><trkpt lat="43.5687547" lon="10.8167624"><ele>179.33333333333334</ele><time>2026-04-18T08:16:53.428Z</time></trkpt><trkpt lat="43.5688478" lon="10.8169572"><ele>180.66666666666666</ele><time>2026-04-18T08:16:54.446Z</time></trkpt><trkpt lat="43.5689363" lon="10.8171527"><ele>182.0</ele><time>2026-04-18T08:16:55.446Z</time></trkpt><trkpt lat="43.569015" lon="10.8173442"><ele>182.0</ele><time>2026-04-18T08:16:56.448Z</time></trkpt><trkpt lat="43.569092" lon="10.8175337"><ele>182.0</ele><time>2026-04-18T08:16:57.427Z</time></trkpt><trkpt lat="43.5691647" lon="10.8176996"><ele>182.0</ele><time>2026-04-18T08:16:58.428Z</time></trkpt><trkpt lat="43.5692308" lon="10.817859"><ele>182.0</ele><time>2026-04-18T08:16:59.424Z</time></trkpt><trkpt lat="43.5692957" lon="10.8180124"><ele>179.5</ele><time>2026-04-18T08:17:00.449Z</time></trkpt><trkpt lat="43.5693586" lon="10.8181633"><ele>177.0</ele><time>2026-04-18T08:17:01.431Z</time></trkpt><trkpt lat="43.5694127" lon="10.8183113"><ele>174.5</ele><time>2026-04-18T08:17:02.436Z</time></trkpt><trkpt lat="43.5694641" lon="10.8184501"><ele>172.0</ele><time>2026-04-18T08:17:03.435Z</time></trkpt><trkpt lat="43.5694918" lon="10.8185876"><ele>171.66666666666669</ele><time>2026-04-18T08:17:04.426Z</time></trkpt><trkpt lat="43.5695043" lon="10.818706"><ele>171.33333333333334</ele><time>2026-04-18T08:17:05.446Z</time></trkpt><trkpt lat="43.5695056" lon="10.8188179"><ele>171.0</ele><time>2026-04-18T08:17:06.435Z</time></trkpt><trkpt lat="43.5695101" lon="10.8189333"><ele>170.66666666666666</ele><time>2026-04-18T08:17:07.441Z</time></trkpt><trkpt lat="43.5694901" lon="10.8190491"><ele>170.33333333333331</ele><time>2026-04-18T08:17:08.426Z</time></trkpt><trkpt lat="43.5694558" lon="10.8191671"><ele>170.0</ele><time>2026-04-18T08:17:09.431Z</time></trkpt><trkpt lat="43.5694055" lon="10.8192784"><ele>169.8</ele><time>2026-04-18T08:17:10.429Z</time></trkpt><trkpt lat="43.5693471" lon="10.8193936"><ele>169.6</ele><time>2026-04-18T08:17:11.425Z</time></trkpt><trkpt lat="43.5692873" lon="10.8195056"><ele>169.39999999999998</ele><time>2026-04-18T08:17:12.428Z</time></trkpt><trkpt lat="43.5692253" lon="10.8196215"><ele>169.2</ele><time>2026-04-18T08:17:13.439Z</time></trkpt><trkpt lat="43.5691613" lon="10.8197438"><ele>169.0</ele><time>2026-04-18T08:17:14.437Z</time></trkpt><trkpt lat="43.5691058" lon="10.8198645"><ele>169.0</ele><time>2026-04-18T08:17:15.431Z</time></trkpt><trkpt lat="43.5690528" lon="10.8199898"><ele>169.0</ele><time>2026-04-18T08:17:16.434Z</time></trkpt><trkpt lat="43.5689998" lon="10.8201124"><ele>169.0</ele><time>2026-04-18T08:17:17.432Z</time></trkpt><trkpt lat="43.5689598" lon="10.8202228"><ele>169.0</ele><time>2026-04-18T08:17:18.433Z</time></trkpt><trkpt lat="43.5689279" lon="10.8203272"><ele>169.0</ele><time>2026-04-18T08:17:19.419Z</time></trkpt><trkpt lat="43.5689027" lon="10.8204422"><ele>167.6</ele><time>2026-04-18T08:17:20.435Z</time></trkpt><trkpt lat="43.5688914" lon="10.8205713"><ele>166.2</ele><time>2026-04-18T08:17:21.439Z</time></trkpt><trkpt lat="43.5689097" lon="10.8207097"><ele>164.79999999999998</ele><time>2026-04-18T08:17:22.436Z</time></trkpt><trkpt lat="43.5689347" lon="10.8208527"><ele>163.39999999999998</ele><time>2026-04-18T08:17:23.427Z</time></trkpt><trkpt lat="43.5689612" lon="10.8209923"><ele>162.0</ele><time>2026-04-18T08:17:24.436Z</time></trkpt><trkpt lat="43.5689878" lon="10.8211427"><ele>159.75</ele><time>2026-04-18T08:17:25.429Z</time></trkpt><trkpt lat="43.5690148" lon="10.8213097"><ele>157.5</ele><time>2026-04-18T08:17:26.438Z</time></trkpt><trkpt lat="43.5690464" lon="10.8214839"><ele>155.25</ele><time>2026-04-18T08:17:27.417Z</time></trkpt><trkpt lat="43.5690785" lon="10.8216427"><ele>153.0</ele><time>2026-04-18T08:17:28.439Z</time></trkpt><trkpt lat="43.5691043" lon="10.8217867"><ele>151.75</ele><time>2026-04-18T08:17:29.424Z</time></trkpt><trkpt lat="43.5691272" lon="10.8219298"><ele>150.5</ele><time>2026-04-18T08:17:30.432Z</time></trkpt><trkpt lat="43.569142" lon="10.8220832"><ele>149.25</ele><time>2026-04-18T08:17:31.431Z</time></trkpt><trkpt lat="43.5691375" lon="10.8222495"><ele>148.0</ele><time>2026-04-18T08:17:32.441Z</time></trkpt><trkpt lat="43.56912" lon="10.8224273"><ele>148.0</ele><time>2026-04-18T08:17:33.418Z</time></trkpt><trkpt lat="43.5691034" lon="10.8226086"><ele>148.0</ele><time>2026-04-18T08:17:34.428Z</time></trkpt><trkpt lat="43.5690923" lon="10.8227897"><ele>148.0</ele><time>2026-04-18T08:17:35.431Z</time></trkpt><trkpt lat="43.5690707" lon="10.8229632"><ele>148.0</ele><time>2026-04-18T08:17:36.424Z</time></trkpt><trkpt lat="43.5690559" lon="10.8231472"><ele>147.5</ele><time>2026-04-18T08:17:37.419Z</time></trkpt><trkpt lat="43.5690368" lon="10.823323"><ele>147.0</ele><time>2026-04-18T08:17:38.426Z</time></trkpt><trkpt lat="43.5690117" lon="10.8234958"><ele>146.5</ele><time>2026-04-18T08:17:39.416Z</time></trkpt><trkpt lat="43.5689834" lon="10.8236646"><ele>146.0</ele><time>2026-04-18T08:17:40.419Z</time></trkpt><trkpt lat="43.5689517" lon="10.8238323"><ele>144.75</ele><time>2026-04-18T08:17:41.415Z</time></trkpt><trkpt lat="43.5689271" lon="10.8240006"><ele>143.5</ele><time>2026-04-18T08:17:42.436Z</time></trkpt><trkpt lat="43.568904" lon="10.8241658"><ele>142.25</ele><time>2026-04-18T08:17:43.425Z</time></trkpt><trkpt lat="43.5688741" lon="10.8243156"><ele>141.0</ele><time>2026-04-18T08:17:44.429Z</time></trkpt><trkpt lat="43.5688523" lon="10.8244521"><ele>140.33333333333334</ele><time>2026-04-18T08:17:45.431Z</time></trkpt><trkpt lat="43.5688283" lon="10.824564"><ele>139.66666666666666</ele><time>2026-04-18T08:17:46.435Z</time></trkpt><trkpt lat="43.5688063" lon="10.8246628"><ele>139.0</ele><time>2026-04-18T08:17:47.419Z</time></trkpt><trkpt lat="43.5687874" lon="10.8247493"><ele>138.33333333333331</ele><time>2026-04-18T08:17:48.441Z</time></trkpt><trkpt lat="43.5687628" lon="10.8248948"><ele>137.66666666666666</ele><time>2026-04-18T08:17:50.43Z</time></trkpt><trkpt lat="43.5686996" lon="10.8249792"><ele>137.0</ele><time>2026-04-18T08:17:52.435Z</time></trkpt><trkpt lat="43.5686076" lon="10.8249421"><ele>136.79999999999998</ele><time>2026-04-18T08:17:54.437Z</time></trkpt><trkpt lat="43.5685436" lon="10.8247866"><ele>136.6</ele><time>2026-04-18T08:17:56.429Z</time></trkpt><trkpt lat="43.5685279" lon="10.8246824"><ele>136.39999999999998</ele><time>2026-04-18T08:17:57.427Z</time></trkpt><trkpt lat="43.5685212" lon="10.8245452"><ele>136.2</ele><time>2026-04-18T08:17:58.443Z</time></trkpt><trkpt lat="43.5685088" lon="10.8244126"><ele>136.0</ele><time>2026-04-18T08:17:59.409Z</time></trkpt><trkpt lat="43.5685016" lon="10.8242795"><ele>134.75</ele><time>2026-04-18T08:18:00.431Z</time></trkpt><trkpt lat="43.568484" lon="10.8241254"><ele>133.5</ele><time>2026-04-18T08:18:01.428Z</time></trkpt><trkpt lat="43.5684692" lon="10.8239742"><ele>132.25</ele><time>2026-04-18T08:18:02.434Z</time></trkpt><trkpt lat="43.5684566" lon="10.8238142"><ele>131.0</ele><time>2026-04-18T08:18:03.432Z</time></trkpt><trkpt lat="43.5684498" lon="10.8236499"><ele>131.0</ele><time>2026-04-18T08:18:04.432Z</time></trkpt><trkpt lat="43.5684413" lon="10.8234843"><ele>131.0</ele><time>2026-04-18T08:18:05.438Z</time></trkpt><trkpt lat="43.5684299" lon="10.8233174"><ele>131.0</ele><time>2026-04-18T08:18:06.437Z</time></trkpt><trkpt lat="43.5684162" lon="10.8231476"><ele>131.0</ele><time>2026-04-18T08:18:07.435Z</time></trkpt><trkpt lat="43.5684069" lon="10.8229779"><ele>130.75</ele><time>2026-04-18T08:18:08.429Z</time></trkpt><trkpt lat="43.5683995" lon="10.8228076"><ele>130.5</ele><time>2026-04-18T08:18:09.418Z</time></trkpt><trkpt lat="43.5683864" lon="10.8226405"><ele>130.25</ele><time>2026-04-18T08:18:10.438Z</time></trkpt><trkpt lat="43.5683729" lon="10.8224734"><ele>130.0</ele><time>2026-04-18T08:18:11.422Z</time></trkpt><trkpt lat="43.5683512" lon="10.8223291"><ele>130.0</ele><time>2026-04-18T08:18:12.443Z</time></trkpt><trkpt lat="43.5683188" lon="10.8222008"><ele>130.0</ele><time>2026-04-18T08:18:13.43Z</time></trkpt><trkpt lat="43.5682638" lon="10.8220856"><ele>130.0</ele><time>2026-04-18T08:18:14.421Z</time></trkpt><trkpt lat="43.5681906" lon="10.8219814"><ele>130.0</ele><time>2026-04-18T08:18:15.425Z</time></trkpt><trkpt lat="43.5681022" lon="10.82191"><ele>130.0</ele><time>2026-04-18T08:18:16.437Z</time></trkpt><trkpt lat="43.5679951" lon="10.8218738"><ele>130.0</ele><time>2026-04-18T08:18:17.42Z</time></trkpt><trkpt lat="43.5678797" lon="10.8218485"><ele>130.0</ele><time>2026-04-18T08:18:18.418Z</time></trkpt><trkpt lat="43.5677678" lon="10.8218224"><ele>130.0</ele><time>2026-04-18T08:18:19.447Z</time></trkpt><trkpt lat="43.5676588" lon="10.8217868"><ele>130.0</ele><time>2026-04-18T08:18:20.427Z</time></trkpt><trkpt lat="43.5675555" lon="10.8217556"><ele>130.0</ele><time>2026-04-18T08:18:21.438Z</time></trkpt><trkpt lat="43.5674496" lon="10.8217206"><ele>129.2</ele><time>2026-04-18T08:18:22.432Z</time></trkpt><trkpt lat="43.5673449" lon="10.8216911"><ele>128.4</ele><time>2026-04-18T08:18:23.445Z</time></trkpt><trkpt lat="43.5672358" lon="10.8216517"><ele>127.6</ele><time>2026-04-18T08:18:24.428Z</time></trkpt><trkpt lat="43.5671293" lon="10.8216226"><ele>126.8</ele><time>2026-04-18T08:18:25.423Z</time></trkpt><trkpt lat="43.5670323" lon="10.8215957"><ele>126.0</ele><time>2026-04-18T08:18:26.454Z</time></trkpt><trkpt lat="43.5669358" lon="10.8215681"><ele>122.8</ele><time>2026-04-18T08:18:27.432Z</time></trkpt><trkpt lat="43.5668404" lon="10.8215451"><ele>119.6</ele><time>2026-04-18T08:18:28.424Z</time></trkpt><trkpt lat="43.5667474" lon="10.8215183"><ele>116.4</ele><time>2026-04-18T08:18:29.428Z</time></trkpt><trkpt lat="43.566655" lon="10.8214873"><ele>113.2</ele><time>2026-04-18T08:18:30.433Z</time></trkpt><trkpt lat="43.5665684" lon="10.8214479"><ele>110.0</ele><time>2026-04-18T08:18:31.419Z</time></trkpt><trkpt lat="43.5664832" lon="10.8214133"><ele>110.0</ele><time>2026-04-18T08:18:32.431Z</time></trkpt><trkpt lat="43.5663973" lon="10.821385"><ele>110.0</ele><time>2026-04-18T08:18:33.426Z</time></trkpt><trkpt lat="43.5663096" lon="10.821353"><ele>110.0</ele><time>2026-04-18T08:18:34.438Z</time></trkpt><trkpt lat="43.5662186" lon="10.8213268"><ele>110.0</ele><time>2026-04-18T08:18:35.411Z</time></trkpt><trkpt lat="43.5661243" lon="10.8213089"><ele>110.0</ele><time>2026-04-18T08:18:36.442Z</time></trkpt><trkpt lat="43.5660284" lon="10.8212849"><ele>107.8</ele><time>2026-04-18T08:18:37.423Z</time></trkpt><trkpt lat="43.5659356" lon="10.8212625"><ele>105.6</ele><time>2026-04-18T08:18:38.449Z</time></trkpt><trkpt lat="43.5658407" lon="10.8212347"><ele>103.4</ele><time>2026-04-18T08:18:39.436Z</time></trkpt><trkpt lat="43.5657452" lon="10.8211911"><ele>101.2</ele><time>2026-04-18T08:18:40.437Z</time></trkpt><trkpt lat="43.565642" lon="10.8211509"><ele>99.0</ele><time>2026-04-18T08:18:41.421Z</time></trkpt><trkpt lat="43.5655418" lon="10.8210869"><ele>99.0</ele><time>2026-04-18T08:18:42.449Z</time></trkpt><trkpt lat="43.5654459" lon="10.8210062"><ele>99.0</ele><time>2026-04-18T08:18:43.426Z</time></trkpt><trkpt lat="43.5653498" lon="10.820908"><ele>99.0</ele><time>2026-04-18T08:18:44.423Z</time></trkpt><trkpt lat="43.5652571" lon="10.8208035"><ele>99.0</ele><time>2026-04-18T08:18:45.426Z</time></trkpt><trkpt lat="43.5651662" lon="10.8206938"><ele>99.0</ele><time>2026-04-18T08:18:46.442Z</time></trkpt><trkpt lat="43.5650716" lon="10.8205843"><ele>99.0</ele><time>2026-04-18T08:18:47.423Z</time></trkpt><trkpt lat="43.5649675" lon="10.8204772"><ele>99.0</ele><time>2026-04-18T08:18:48.429Z</time></trkpt><trkpt lat="43.5648636" lon="10.8203633"><ele>99.0</ele><time>2026-04-18T08:18:49.44Z</time></trkpt><trkpt lat="43.5647566" lon="10.8202504"><ele>99.5</ele><time>2026-04-18T08:18:50.437Z</time></trkpt><trkpt lat="43.5646554" lon="10.8201361"><ele>100.0</ele><time>2026-04-18T08:18:51.436Z</time></trkpt><trkpt lat="43.5645622" lon="10.8200172"><ele>100.5</ele><time>2026-04-18T08:18:52.427Z</time></trkpt><trkpt lat="43.5644758" lon="10.8198984"><ele>101.0</ele><time>2026-04-18T08:18:53.428Z</time></trkpt><trkpt lat="43.5643969" lon="10.8197718"><ele>97.5</ele><time>2026-04-18T08:18:54.444Z</time></trkpt><trkpt lat="43.5643211" lon="10.8196355"><ele>94.0</ele><time>2026-04-18T08:18:55.44Z</time></trkpt><trkpt lat="43.5642586" lon="10.8194909"><ele>90.5</ele><time>2026-04-18T08:18:56.442Z</time></trkpt><trkpt lat="43.5641905" lon="10.819347"><ele>87.0</ele><time>2026-04-18T08:18:57.438Z</time></trkpt><trkpt lat="43.5641276" lon="10.819205"><ele>87.0</ele><time>2026-04-18T08:18:58.443Z</time></trkpt><trkpt lat="43.5640673" lon="10.8190654"><ele>87.0</ele><time>2026-04-18T08:18:59.428Z</time></trkpt><trkpt lat="43.5640101" lon="10.8189356"><ele>87.0</ele><time>2026-04-18T08:19:00.45Z</time></trkpt><trkpt lat="43.5639568" lon="10.8188203"><ele>87.0</ele><time>2026-04-18T08:19:01.433Z</time></trkpt><trkpt lat="43.5639039" lon="10.8187171"><ele>87.0</ele><time>2026-04-18T08:19:02.434Z</time></trkpt><trkpt lat="43.5638424" lon="10.8186325"><ele>87.0</ele><time>2026-04-18T08:19:03.438Z</time></trkpt><trkpt lat="43.5637692" lon="10.818569"><ele>87.0</ele><time>2026-04-18T08:19:04.431Z</time></trkpt><trkpt lat="43.5636938" lon="10.8185268"><ele>87.0</ele><time>2026-04-18T08:19:05.42Z</time></trkpt><trkpt lat="43.5636093" lon="10.8184973"><ele>87.0</ele><time>2026-04-18T08:19:06.44Z</time></trkpt><trkpt lat="43.5635232" lon="10.8185135"><ele>87.0</ele><time>2026-04-18T08:19:07.427Z</time></trkpt><trkpt lat="43.5634386" lon="10.8185594"><ele>87.0</ele><time>2026-04-18T08:19:08.434Z</time></trkpt><trkpt lat="43.5633533" lon="10.8186181"><ele>85.39999999999999</ele><time>2026-04-18T08:19:09.429Z</time></trkpt><trkpt lat="43.5632636" lon="10.8186746"><ele>83.8</ele><time>2026-04-18T08:19:10.438Z</time></trkpt><trkpt lat="43.5631653" lon="10.8187372"><ele>82.2</ele><time>2026-04-18T08:19:11.435Z</time></trkpt><trkpt lat="43.5630641" lon="10.8188127"><ele>80.6</ele><time>2026-04-18T08:19:12.449Z</time></trkpt><trkpt lat="43.5629652" lon="10.8188872"><ele>79.0</ele><time>2026-04-18T08:19:13.437Z</time></trkpt><trkpt lat="43.5628738" lon="10.8189601"><ele>79.83333333333333</ele><time>2026-04-18T08:19:14.412Z</time></trkpt><trkpt lat="43.5627905" lon="10.8190196"><ele>80.66666666666666</ele><time>2026-04-18T08:19:15.422Z</time></trkpt><trkpt lat="43.5627131" lon="10.8190703"><ele>81.5</ele><time>2026-04-18T08:19:16.421Z</time></trkpt><trkpt lat="43.5626385" lon="10.8191251"><ele>82.33333333333333</ele><time>2026-04-18T08:19:17.412Z</time></trkpt><trkpt lat="43.5625707" lon="10.8191684"><ele>83.16666666666667</ele><time>2026-04-18T08:19:18.434Z</time></trkpt><trkpt lat="43.562502" lon="10.8192057"><ele>84.0</ele><time>2026-04-18T08:19:19.419Z</time></trkpt><trkpt lat="43.56243" lon="10.8192259"><ele>84.0</ele><time>2026-04-18T08:19:20.433Z</time></trkpt><trkpt lat="43.5623532" lon="10.8192164"><ele>84.0</ele><time>2026-04-18T08:19:21.424Z</time></trkpt><trkpt lat="43.5622799" lon="10.8192127"><ele>84.0</ele><time>2026-04-18T08:19:22.463Z</time></trkpt><trkpt lat="43.562206" lon="10.8191799"><ele>84.0</ele><time>2026-04-18T08:19:23.416Z</time></trkpt><trkpt lat="43.5621302" lon="10.8191308"><ele>84.0</ele><time>2026-04-18T08:19:24.432Z</time></trkpt><trkpt lat="43.5620632" lon="10.8190613"><ele>84.0</ele><time>2026-04-18T08:19:25.428Z</time></trkpt><trkpt lat="43.561997" lon="10.8189696"><ele>83.6</ele><time>2026-04-18T08:19:26.418Z</time></trkpt><trkpt lat="43.5619258" lon="10.8188681"><ele>83.2</ele><time>2026-04-18T08:19:27.42Z</time></trkpt><trkpt lat="43.5618598" lon="10.8187534"><ele>82.8</ele><time>2026-04-18T08:19:28.416Z</time></trkpt><trkpt lat="43.5617876" lon="10.8186276"><ele>82.39999999999999</ele><time>2026-04-18T08:19:29.419Z</time></trkpt><trkpt lat="43.5617126" lon="10.8185052"><ele>82.0</ele><time>2026-04-18T08:19:30.422Z</time></trkpt><trkpt lat="43.5616351" lon="10.8183747"><ele>82.0</ele><time>2026-04-18T08:19:31.421Z</time></trkpt><trkpt lat="43.5615595" lon="10.8182493"><ele>82.0</ele><time>2026-04-18T08:19:32.419Z</time></trkpt><trkpt lat="43.5614866" lon="10.8181167"><ele>82.0</ele><time>2026-04-18T08:19:33.413Z</time></trkpt><trkpt lat="43.5614109" lon="10.8179829"><ele>82.0</ele><time>2026-04-18T08:19:34.426Z</time></trkpt><trkpt lat="43.5613324" lon="10.8178535"><ele>82.0</ele><time>2026-04-18T08:19:35.419Z</time></trkpt><trkpt lat="43.5612531" lon="10.817723"><ele>82.0</ele><time>2026-04-18T08:19:36.427Z</time></trkpt><trkpt lat="43.5611753" lon="10.8175816"><ele>82.0</ele><time>2026-04-18T08:19:37.42Z</time></trkpt><trkpt lat="43.5611056" lon="10.8174472"><ele>82.0</ele><time>2026-04-18T08:19:38.417Z</time></trkpt><trkpt lat="43.5610346" lon="10.8173164"><ele>81.6</ele><time>2026-04-18T08:19:39.425Z</time></trkpt><trkpt lat="43.5609627" lon="10.8171874"><ele>81.19999999999999</ele><time>2026-04-18T08:19:40.417Z</time></trkpt><trkpt lat="43.5608937" lon="10.8170659"><ele>80.8</ele><time>2026-04-18T08:19:41.423Z</time></trkpt><trkpt lat="43.5608248" lon="10.8169677"><ele>80.4</ele><time>2026-04-18T08:19:42.427Z</time></trkpt><trkpt lat="43.5607574" lon="10.816873"><ele>80.0</ele><time>2026-04-18T08:19:43.419Z</time></trkpt><trkpt lat="43.5606834" lon="10.8167982"><ele>80.0</ele><time>2026-04-18T08:19:44.442Z</time></trkpt><trkpt lat="43.5606093" lon="10.8167229"><ele>80.0</ele><time>2026-04-18T08:19:45.417Z</time></trkpt><trkpt lat="43.5605226" lon="10.8166395"><ele>80.0</ele><time>2026-04-18T08:19:46.424Z</time></trkpt><trkpt lat="43.5604364" lon="10.8165544"><ele>80.0</ele><time>2026-04-18T08:19:47.426Z</time></trkpt><trkpt lat="43.5603541" lon="10.8164782"><ele>80.0</ele><time>2026-04-18T08:19:48.422Z</time></trkpt><trkpt lat="43.560272" lon="10.816389"><ele>79.5</ele><time>2026-04-18T08:19:49.416Z</time></trkpt><trkpt lat="43.5601913" lon="10.8163069"><ele>79.0</ele><time>2026-04-18T08:19:50.427Z</time></trkpt><trkpt lat="43.5601198" lon="10.8162382"><ele>78.5</ele><time>2026-04-18T08:19:51.42Z</time></trkpt><trkpt lat="43.5600539" lon="10.8161696"><ele>78.0</ele><time>2026-04-18T08:19:52.422Z</time></trkpt><trkpt lat="43.5599837" lon="10.8161036"><ele>77.5</ele><time>2026-04-18T08:19:53.423Z</time></trkpt><trkpt lat="43.5599166" lon="10.8160395"><ele>77.0</ele><time>2026-04-18T08:19:54.412Z</time></trkpt><trkpt lat="43.5598457" lon="10.8159723"><ele>77.0</ele><time>2026-04-18T08:19:55.419Z</time></trkpt><trkpt lat="43.5597688" lon="10.8159082"><ele>77.0</ele><time>2026-04-18T08:19:56.423Z</time></trkpt><trkpt lat="43.5596939" lon="10.815852"><ele>77.0</ele><time>2026-04-18T08:19:57.416Z</time></trkpt><trkpt lat="43.5596073" lon="10.8157965"><ele>77.0</ele><time>2026-04-18T08:19:58.409Z</time></trkpt><trkpt lat="43.5595123" lon="10.8157572"><ele>77.0</ele><time>2026-04-18T08:19:59.413Z</time></trkpt><trkpt lat="43.5594034" lon="10.8157224"><ele>78.0</ele><time>2026-04-18T08:20:00.415Z</time></trkpt><trkpt lat="43.5593032" lon="10.8156762"><ele>79.0</ele><time>2026-04-18T08:20:01.415Z</time></trkpt><trkpt lat="43.5591941" lon="10.8156557"><ele>80.0</ele><time>2026-04-18T08:20:02.422Z</time></trkpt><trkpt lat="43.5590786" lon="10.8156334"><ele>81.0</ele><time>2026-04-18T08:20:03.419Z</time></trkpt><trkpt lat="43.5589597" lon="10.8156147"><ele>81.0</ele><time>2026-04-18T08:20:04.421Z</time></trkpt><trkpt lat="43.5588447" lon="10.8155932"><ele>81.0</ele><time>2026-04-18T08:20:05.414Z</time></trkpt><trkpt lat="43.5587297" lon="10.8155711"><ele>81.0</ele><time>2026-04-18T08:20:06.414Z</time></trkpt><trkpt lat="43.5586134" lon="10.8155498"><ele>81.0</ele><time>2026-04-18T08:20:07.416Z</time></trkpt><trkpt lat="43.558498" lon="10.8155281"><ele>80.75</ele><time>2026-04-18T08:20:08.416Z</time></trkpt><trkpt lat="43.5583972" lon="10.8154956"><ele>80.5</ele><time>2026-04-18T08:20:09.413Z</time></trkpt><trkpt lat="43.5582844" lon="10.8154588"><ele>80.25</ele><time>2026-04-18T08:20:10.41Z</time></trkpt><trkpt lat="43.5581635" lon="10.8154273"><ele>80.0</ele><time>2026-04-18T08:20:11.421Z</time></trkpt><trkpt lat="43.5580433" lon="10.8154087"><ele>80.0</ele><time>2026-04-18T08:20:12.415Z</time></trkpt><trkpt lat="43.5579188" lon="10.8153765"><ele>80.0</ele><time>2026-04-18T08:20:13.424Z</time></trkpt><trkpt lat="43.5577835" lon="10.8153472"><ele>80.0</ele><time>2026-04-18T08:20:14.425Z</time></trkpt><trkpt lat="43.5576535" lon="10.8153116"><ele>80.0</ele><time>2026-04-18T08:20:15.423Z</time></trkpt><trkpt lat="43.557524" lon="10.8152744"><ele>80.25</ele><time>2026-04-18T08:20:16.425Z</time></trkpt><trkpt lat="43.557396" lon="10.8152475"><ele>80.5</ele><time>2026-04-18T08:20:17.411Z</time></trkpt><trkpt lat="43.5572704" lon="10.8152238"><ele>80.75</ele><time>2026-04-18T08:20:18.419Z</time></trkpt><trkpt lat="43.5571438" lon="10.8152066"><ele>81.0</ele><time>2026-04-18T08:20:19.42Z</time></trkpt><trkpt lat="43.5570236" lon="10.8151923"><ele>81.0</ele><time>2026-04-18T08:20:20.431Z</time></trkpt><trkpt lat="43.5569074" lon="10.8151871"><ele>81.0</ele><time>2026-04-18T08:20:21.442Z</time></trkpt><trkpt lat="43.5567926" lon="10.8152065"><ele>81.0</ele><time>2026-04-18T08:20:22.43Z</time></trkpt><trkpt lat="43.5566859" lon="10.8152315"><ele>81.0</ele><time>2026-04-18T08:20:23.422Z</time></trkpt><trkpt lat="43.5565776" lon="10.8152642"><ele>81.0</ele><time>2026-04-18T08:20:24.42Z</time></trkpt><trkpt lat="43.5564643" lon="10.8152982"><ele>81.0</ele><time>2026-04-18T08:20:25.425Z</time></trkpt><trkpt lat="43.5563564" lon="10.8153355"><ele>81.0</ele><time>2026-04-18T08:20:26.427Z</time></trkpt><trkpt lat="43.55626" lon="10.8153745"><ele>81.0</ele><time>2026-04-18T08:20:27.418Z</time></trkpt><trkpt lat="43.5561598" lon="10.8154106"><ele>81.0</ele><time>2026-04-18T08:20:28.419Z</time></trkpt><trkpt lat="43.5560687" lon="10.8154395"><ele>82.6</ele><time>2026-04-18T08:20:29.418Z</time></trkpt><trkpt lat="43.5559815" lon="10.8154558"><ele>84.19999999999999</ele><time>2026-04-18T08:20:30.421Z</time></trkpt><trkpt lat="43.5558881" lon="10.8154994"><ele>85.80000000000001</ele><time>2026-04-18T08:20:31.424Z</time></trkpt><trkpt lat="43.5557958" lon="10.8155356"><ele>87.4</ele><time>2026-04-18T08:20:32.42Z</time></trkpt><trkpt lat="43.5557056" lon="10.8155758"><ele>89.0</ele><time>2026-04-18T08:20:33.429Z</time></trkpt><trkpt lat="43.5556248" lon="10.8156152"><ele>89.0</ele><time>2026-04-18T08:20:34.447Z</time></trkpt><trkpt lat="43.5555488" lon="10.8156655"><ele>89.0</ele><time>2026-04-18T08:20:35.439Z</time></trkpt><trkpt lat="43.5554667" lon="10.8157414"><ele>89.0</ele><time>2026-04-18T08:20:36.445Z</time></trkpt><trkpt lat="43.5553926" lon="10.8158343"><ele>89.0</ele><time>2026-04-18T08:20:37.433Z</time></trkpt><trkpt lat="43.555327" lon="10.8159502"><ele>89.0</ele><time>2026-04-18T08:20:38.415Z</time></trkpt><trkpt lat="43.5552597" lon="10.816072"><ele>90.6</ele><time>2026-04-18T08:20:39.442Z</time></trkpt><trkpt lat="43.5551913" lon="10.8161949"><ele>92.2</ele><time>2026-04-18T08:20:40.442Z</time></trkpt><trkpt lat="43.5551257" lon="10.8163152"><ele>93.8</ele><time>2026-04-18T08:20:41.43Z</time></trkpt><trkpt lat="43.555056" lon="10.8164319"><ele>95.39999999999999</ele><time>2026-04-18T08:20:42.423Z</time></trkpt><trkpt lat="43.5549928" lon="10.8165506"><ele>97.0</ele><time>2026-04-18T08:20:43.434Z</time></trkpt><trkpt lat="43.554935" lon="10.8166577"><ele>97.0</ele><time>2026-04-18T08:20:44.442Z</time></trkpt><trkpt lat="43.5548763" lon="10.8167627"><ele>97.0</ele><time>2026-04-18T08:20:45.428Z</time></trkpt><trkpt lat="43.5548211" lon="10.8168686"><ele>97.0</ele><time>2026-04-18T08:20:46.433Z</time></trkpt><trkpt lat="43.5547637" lon="10.8169717"><ele>97.0</ele><time>2026-04-18T08:20:47.447Z</time></trkpt><trkpt lat="43.5547039" lon="10.8170822"><ele>97.0</ele><time>2026-04-18T08:20:48.425Z</time></trkpt><trkpt lat="43.5546419" lon="10.8171967"><ele>97.66666666666667</ele><time>2026-04-18T08:20:49.442Z</time></trkpt><trkpt lat="43.5545824" lon="10.817306"><ele>98.33333333333334</ele><time>2026-04-18T08:20:50.429Z</time></trkpt><trkpt lat="43.5545283" lon="10.8174105"><ele>99.0</ele><time>2026-04-18T08:20:51.426Z</time></trkpt><trkpt lat="43.5544763" lon="10.8175073"><ele>99.66666666666666</ele><time>2026-04-18T08:20:52.439Z</time></trkpt><trkpt lat="43.5544281" lon="10.8176009"><ele>100.33333333333333</ele><time>2026-04-18T08:20:53.432Z</time></trkpt><trkpt lat="43.554378" lon="10.8176874"><ele>101.0</ele><time>2026-04-18T08:20:54.439Z</time></trkpt><trkpt lat="43.5543243" lon="10.8177721"><ele>102.6</ele><time>2026-04-18T08:20:55.425Z</time></trkpt><trkpt lat="43.5542665" lon="10.8178673"><ele>104.19999999999999</ele><time>2026-04-18T08:20:56.441Z</time></trkpt><trkpt lat="43.5542067" lon="10.8179644"><ele>105.80000000000001</ele><time>2026-04-18T08:20:57.426Z</time></trkpt><trkpt lat="43.55415" lon="10.8180644"><ele>107.4</ele><time>2026-04-18T08:20:58.422Z</time></trkpt><trkpt lat="43.554097" lon="10.8181593"><ele>109.0</ele><time>2026-04-18T08:20:59.424Z</time></trkpt><trkpt lat="43.5540419" lon="10.8182601"><ele>109.0</ele><time>2026-04-18T08:21:00.43Z</time></trkpt><trkpt lat="43.5539842" lon="10.8183654"><ele>109.0</ele><time>2026-04-18T08:21:01.436Z</time></trkpt><trkpt lat="43.5539255" lon="10.8184779"><ele>109.0</ele><time>2026-04-18T08:21:02.43Z</time></trkpt><trkpt lat="43.553861" lon="10.8185994"><ele>109.0</ele><time>2026-04-18T08:21:03.428Z</time></trkpt><trkpt lat="43.5537917" lon="10.8187253"><ele>109.0</ele><time>2026-04-18T08:21:04.439Z</time></trkpt><trkpt lat="43.5537309" lon="10.8188427"><ele>110.4</ele><time>2026-04-18T08:21:05.426Z</time></trkpt><trkpt lat="43.5536723" lon="10.8189519"><ele>111.80000000000001</ele><time>2026-04-18T08:21:06.458Z</time></trkpt><trkpt lat="43.5536129" lon="10.8190673"><ele>113.19999999999999</ele><time>2026-04-18T08:21:07.456Z</time></trkpt><trkpt lat="43.5535491" lon="10.8191778"><ele>114.6</ele><time>2026-04-18T08:21:08.44Z</time></trkpt><trkpt lat="43.5534882" lon="10.8192897"><ele>116.0</ele><time>2026-04-18T08:21:09.44Z</time></trkpt><trkpt lat="43.553424" lon="10.8194038"><ele>117.19999999999999</ele><time>2026-04-18T08:21:10.441Z</time></trkpt><trkpt lat="43.5533573" lon="10.8195088"><ele>118.39999999999999</ele><time>2026-04-18T08:21:11.428Z</time></trkpt><trkpt lat="43.5532898" lon="10.8196215"><ele>119.6</ele><time>2026-04-18T08:21:12.444Z</time></trkpt><trkpt lat="43.5532223" lon="10.8197296"><ele>120.8</ele><time>2026-04-18T08:21:13.444Z</time></trkpt><trkpt lat="43.5531595" lon="10.8198339"><ele>122.0</ele><time>2026-04-18T08:21:14.438Z</time></trkpt><trkpt lat="43.5530926" lon="10.819936"><ele>122.0</ele><time>2026-04-18T08:21:15.441Z</time></trkpt><trkpt lat="43.553024" lon="10.8200432"><ele>121.99999999999999</ele><time>2026-04-18T08:21:16.424Z</time></trkpt><trkpt lat="43.5529582" lon="10.820153"><ele>121.99999999999999</ele><time>2026-04-18T08:21:17.431Z</time></trkpt><trkpt lat="43.5528916" lon="10.8202658"><ele>122.0</ele><time>2026-04-18T08:21:18.442Z</time></trkpt><trkpt lat="43.5528237" lon="10.8203755"><ele>122.0</ele><time>2026-04-18T08:21:19.429Z</time></trkpt><trkpt lat="43.552762" lon="10.8204814"><ele>122.8</ele><time>2026-04-18T08:21:20.436Z</time></trkpt><trkpt lat="43.5527003" lon="10.8205845"><ele>123.6</ele><time>2026-04-18T08:21:21.44Z</time></trkpt><trkpt lat="43.5526368" lon="10.8206899"><ele>124.39999999999999</ele><time>2026-04-18T08:21:22.443Z</time></trkpt><trkpt lat="43.5525728" lon="10.8208022"><ele>125.19999999999999</ele><time>2026-04-18T08:21:23.441Z</time></trkpt><trkpt lat="43.5525113" lon="10.8209141"><ele>126.0</ele><time>2026-04-18T08:21:24.456Z</time></trkpt><trkpt lat="43.5524436" lon="10.8210329"><ele>127.25</ele><time>2026-04-18T08:21:25.442Z</time></trkpt><trkpt lat="43.5523771" lon="10.8211497"><ele>128.5</ele><time>2026-04-18T08:21:26.432Z</time></trkpt><trkpt lat="43.5523074" lon="10.8212724"><ele>129.75</ele><time>2026-04-18T08:21:27.435Z</time></trkpt><trkpt lat="43.5522327" lon="10.8214015"><ele>131.0</ele><time>2026-04-18T08:21:28.437Z</time></trkpt><trkpt lat="43.5521649" lon="10.8215285"><ele>131.0</ele><time>2026-04-18T08:21:29.44Z</time></trkpt><trkpt lat="43.5520994" lon="10.8216557"><ele>131.0</ele><time>2026-04-18T08:21:30.443Z</time></trkpt><trkpt lat="43.5520353" lon="10.8217837"><ele>131.0</ele><time>2026-04-18T08:21:31.438Z</time></trkpt><trkpt lat="43.5519711" lon="10.8219052"><ele>131.0</ele><time>2026-04-18T08:21:32.432Z</time></trkpt><trkpt lat="43.5519104" lon="10.8220195"><ele>131.0</ele><time>2026-04-18T08:21:33.421Z</time></trkpt><trkpt lat="43.5518489" lon="10.8221255"><ele>132.2</ele><time>2026-04-18T08:21:34.444Z</time></trkpt><trkpt lat="43.5517926" lon="10.8222322"><ele>133.39999999999998</ele><time>2026-04-18T08:21:35.438Z</time></trkpt><trkpt lat="43.5517276" lon="10.8223373"><ele>134.6</ele><time>2026-04-18T08:21:36.43Z</time></trkpt><trkpt lat="43.5516685" lon="10.8224415"><ele>135.79999999999998</ele><time>2026-04-18T08:21:37.433Z</time></trkpt><trkpt lat="43.5516141" lon="10.8225342"><ele>137.0</ele><time>2026-04-18T08:21:38.437Z</time></trkpt><trkpt lat="43.5515565" lon="10.8226298"><ele>139.0</ele><time>2026-04-18T08:21:39.437Z</time></trkpt><trkpt lat="43.5514876" lon="10.8227234"><ele>141.0</ele><time>2026-04-18T08:21:40.443Z</time></trkpt><trkpt lat="43.5514153" lon="10.8228156"><ele>143.0</ele><time>2026-04-18T08:21:41.431Z</time></trkpt><trkpt lat="43.5513304" lon="10.8228853"><ele>145.0</ele><time>2026-04-18T08:21:42.429Z</time></trkpt><trkpt lat="43.5512281" lon="10.8229243"><ele>147.0</ele><time>2026-04-18T08:21:43.419Z</time></trkpt><trkpt lat="43.5511317" lon="10.8229583"><ele>147.0</ele><time>2026-04-18T08:21:44.437Z</time></trkpt><trkpt lat="43.5510468" lon="10.8229655"><ele>147.0</ele><time>2026-04-18T08:21:45.426Z</time></trkpt><trkpt lat="43.5509451" lon="10.8229706"><ele>147.0</ele><time>2026-04-18T08:21:46.434Z</time></trkpt><trkpt lat="43.550842" lon="10.8229572"><ele>147.0</ele><time>2026-04-18T08:21:47.422Z</time></trkpt><trkpt lat="43.5507335" lon="10.8229139"><ele>147.0</ele><time>2026-04-18T08:21:48.431Z</time></trkpt><trkpt lat="43.550617" lon="10.8228702"><ele>147.0</ele><time>2026-04-18T08:21:49.459Z</time></trkpt><trkpt lat="43.5504965" lon="10.8228273"><ele>147.0</ele><time>2026-04-18T08:21:50.427Z</time></trkpt><trkpt lat="43.5503765" lon="10.8227885"><ele>147.0</ele><time>2026-04-18T08:21:51.438Z</time></trkpt><trkpt lat="43.5502519" lon="10.8227584"><ele>147.0</ele><time>2026-04-18T08:21:52.428Z</time></trkpt><trkpt lat="43.5501365" lon="10.8227296"><ele>147.75</ele><time>2026-04-18T08:21:53.423Z</time></trkpt><trkpt lat="43.550023" lon="10.8227018"><ele>148.5</ele><time>2026-04-18T08:21:54.433Z</time></trkpt><trkpt lat="43.5499057" lon="10.8226721"><ele>149.25</ele><time>2026-04-18T08:21:55.44Z</time></trkpt><trkpt lat="43.5497832" lon="10.8226405"><ele>150.0</ele><time>2026-04-18T08:21:56.422Z</time></trkpt><trkpt lat="43.5496609" lon="10.8226114"><ele>148.75</ele><time>2026-04-18T08:21:57.419Z</time></trkpt><trkpt lat="43.5495341" lon="10.8225829"><ele>147.5</ele><time>2026-04-18T08:21:58.424Z</time></trkpt><trkpt lat="43.5494188" lon="10.8225528"><ele>146.25</ele><time>2026-04-18T08:21:59.438Z</time></trkpt><trkpt lat="43.5493" lon="10.8225212"><ele>145.0</ele><time>2026-04-18T08:22:00.44Z</time></trkpt><trkpt lat="43.5491807" lon="10.822489"><ele>145.0</ele><time>2026-04-18T08:22:01.43Z</time></trkpt><trkpt lat="43.5490594" lon="10.8224572"><ele>145.0</ele><time>2026-04-18T08:22:02.444Z</time></trkpt><trkpt lat="43.5489376" lon="10.8224288"><ele>145.0</ele><time>2026-04-18T08:22:03.431Z</time></trkpt><trkpt lat="43.548822" lon="10.822395"><ele>145.0</ele><time>2026-04-18T08:22:04.438Z</time></trkpt><trkpt lat="43.5487134" lon="10.8223515"><ele>146.8</ele><time>2026-04-18T08:22:05.44Z</time></trkpt><trkpt lat="43.5486134" lon="10.8222903"><ele>148.6</ele><time>2026-04-18T08:22:06.437Z</time></trkpt><trkpt lat="43.5485214" lon="10.8222146"><ele>150.4</ele><time>2026-04-18T08:22:07.43Z</time></trkpt><trkpt lat="43.54843" lon="10.8221266"><ele>152.2</ele><time>2026-04-18T08:22:08.426Z</time></trkpt><trkpt lat="43.5483484" lon="10.8220291"><ele>154.0</ele><time>2026-04-18T08:22:09.431Z</time></trkpt><trkpt lat="43.5482706" lon="10.8219283"><ele>154.0</ele><time>2026-04-18T08:22:10.446Z</time></trkpt><trkpt lat="43.5481912" lon="10.8218329"><ele>154.0</ele><time>2026-04-18T08:22:11.437Z</time></trkpt><trkpt lat="43.5481232" lon="10.8217277"><ele>154.0</ele><time>2026-04-18T08:22:12.435Z</time></trkpt><trkpt lat="43.5480572" lon="10.8216179"><ele>154.0</ele><time>2026-04-18T08:22:13.425Z</time></trkpt><trkpt lat="43.5479852" lon="10.821521"><ele>154.0</ele><time>2026-04-18T08:22:14.442Z</time></trkpt><trkpt lat="43.5479138" lon="10.8214311"><ele>152.0</ele><time>2026-04-18T08:22:15.423Z</time></trkpt><trkpt lat="43.5478533" lon="10.8213479"><ele>150.0</ele><time>2026-04-18T08:22:16.429Z</time></trkpt><trkpt lat="43.5477869" lon="10.8212577"><ele>148.0</ele><time>2026-04-18T08:22:17.433Z</time></trkpt><trkpt lat="43.5477145" lon="10.8211659"><ele>146.0</ele><time>2026-04-18T08:22:18.423Z</time></trkpt><trkpt lat="43.5476378" lon="10.8210735"><ele>144.0</ele><time>2026-04-18T08:22:19.445Z</time></trkpt><trkpt lat="43.5475609" lon="10.8209781"><ele>144.0</ele><time>2026-04-18T08:22:20.43Z</time></trkpt><trkpt lat="43.5474894" lon="10.8208777"><ele>144.0</ele><time>2026-04-18T08:22:21.43Z</time></trkpt><trkpt lat="43.5474122" lon="10.8207708"><ele>144.0</ele><time>2026-04-18T08:22:22.432Z</time></trkpt><trkpt lat="43.5473432" lon="10.8206627"><ele>144.0</ele><time>2026-04-18T08:22:23.432Z</time></trkpt><trkpt lat="43.5472761" lon="10.8205659"><ele>144.0</ele><time>2026-04-18T08:22:24.443Z</time></trkpt><trkpt lat="43.5472195" lon="10.8204887"><ele>144.0</ele><time>2026-04-18T08:22:25.431Z</time></trkpt><trkpt lat="43.5471655" lon="10.8204315"><ele>144.0</ele><time>2026-04-18T08:22:26.441Z</time></trkpt><trkpt lat="43.5470542" lon="10.8203646"><ele>144.0</ele><time>2026-04-18T08:22:28.436Z</time></trkpt><trkpt lat="43.5469889" lon="10.8203875"><ele>144.0</ele><time>2026-04-18T08:22:29.435Z</time></trkpt><trkpt lat="43.5469374" lon="10.8204455"><ele>144.0</ele><time>2026-04-18T08:22:30.443Z</time></trkpt><trkpt lat="43.5469045" lon="10.8205306"><ele>144.0</ele><time>2026-04-18T08:22:31.441Z</time></trkpt><trkpt lat="43.5468628" lon="10.8206415"><ele>141.0</ele><time>2026-04-18T08:22:32.432Z</time></trkpt><trkpt lat="43.5468272" lon="10.8207681"><ele>138.0</ele><time>2026-04-18T08:22:33.431Z</time></trkpt><trkpt lat="43.5468064" lon="10.8208956"><ele>135.0</ele><time>2026-04-18T08:22:34.417Z</time></trkpt><trkpt lat="43.5467759" lon="10.8210261"><ele>132.0</ele><time>2026-04-18T08:22:35.41Z</time></trkpt><trkpt lat="43.5467529" lon="10.8211606"><ele>129.0</ele><time>2026-04-18T08:22:36.428Z</time></trkpt><trkpt lat="43.5467234" lon="10.8212759"><ele>128.6</ele><time>2026-04-18T08:22:37.411Z</time></trkpt><trkpt lat="43.5466958" lon="10.8213884"><ele>128.2</ele><time>2026-04-18T08:22:38.419Z</time></trkpt><trkpt lat="43.5466538" lon="10.8215082"><ele>127.79999999999998</ele><time>2026-04-18T08:22:39.416Z</time></trkpt><trkpt lat="43.5466186" lon="10.8216341"><ele>127.39999999999999</ele><time>2026-04-18T08:22:40.42Z</time></trkpt><trkpt lat="43.5465956" lon="10.821777"><ele>127.0</ele><time>2026-04-18T08:22:41.434Z</time></trkpt><trkpt lat="43.5465715" lon="10.8219059"><ele>126.39999999999999</ele><time>2026-04-18T08:22:42.42Z</time></trkpt><trkpt lat="43.5465464" lon="10.8220529"><ele>125.79999999999998</ele><time>2026-04-18T08:22:43.41Z</time></trkpt><trkpt lat="43.5465152" lon="10.8221942"><ele>125.2</ele><time>2026-04-18T08:22:44.422Z</time></trkpt><trkpt lat="43.5464873" lon="10.8223385"><ele>124.6</ele><time>2026-04-18T08:22:45.411Z</time></trkpt><trkpt lat="43.5464585" lon="10.8224728"><ele>124.0</ele><time>2026-04-18T08:22:46.409Z</time></trkpt><trkpt lat="43.5464355" lon="10.8225836"><ele>123.66666666666667</ele><time>2026-04-18T08:22:47.406Z</time></trkpt><trkpt lat="43.5464088" lon="10.8226861"><ele>123.33333333333334</ele><time>2026-04-18T08:22:48.432Z</time></trkpt><trkpt lat="43.5463803" lon="10.8227756"><ele>123.0</ele><time>2026-04-18T08:22:49.442Z</time></trkpt><trkpt lat="43.5463011" lon="10.822873"><ele>122.66666666666666</ele><time>2026-04-18T08:22:51.422Z</time></trkpt><trkpt lat="43.5461853" lon="10.8229043"><ele>122.33333333333333</ele><time>2026-04-18T08:22:53.427Z</time></trkpt><trkpt lat="43.5461212" lon="10.8228837"><ele>122.0</ele><time>2026-04-18T08:22:54.444Z</time></trkpt><trkpt lat="43.5460625" lon="10.8228183"><ele>119.6</ele><time>2026-04-18T08:22:55.433Z</time></trkpt><trkpt lat="43.5459965" lon="10.8227358"><ele>117.19999999999999</ele><time>2026-04-18T08:22:56.434Z</time></trkpt><trkpt lat="43.5459395" lon="10.8226384"><ele>114.8</ele><time>2026-04-18T08:22:57.453Z</time></trkpt><trkpt lat="43.5458872" lon="10.8225249"><ele>112.4</ele><time>2026-04-18T08:22:58.449Z</time></trkpt><trkpt lat="43.5458329" lon="10.8224084"><ele>110.0</ele><time>2026-04-18T08:22:59.45Z</time></trkpt><trkpt lat="43.545781" lon="10.8222762"><ele>110.0</ele><time>2026-04-18T08:23:00.438Z</time></trkpt><trkpt lat="43.5457323" lon="10.8221499"><ele>110.0</ele><time>2026-04-18T08:23:01.436Z</time></trkpt><trkpt lat="43.5456885" lon="10.8220104"><ele>110.0</ele><time>2026-04-18T08:23:02.451Z</time></trkpt><trkpt lat="43.5456481" lon="10.8218645"><ele>110.0</ele><time>2026-04-18T08:23:03.429Z</time></trkpt><trkpt lat="43.5456217" lon="10.8217237"><ele>110.0</ele><time>2026-04-18T08:23:04.439Z</time></trkpt><trkpt lat="43.5455986" lon="10.8215709"><ele>110.0</ele><time>2026-04-18T08:23:05.432Z</time></trkpt><trkpt lat="43.5455772" lon="10.8214142"><ele>110.0</ele><time>2026-04-18T08:23:06.437Z</time></trkpt><trkpt lat="43.545561" lon="10.8212712"><ele>110.0</ele><time>2026-04-18T08:23:07.443Z</time></trkpt><trkpt lat="43.5455353" lon="10.8211381"><ele>110.0</ele><time>2026-04-18T08:23:08.439Z</time></trkpt><trkpt lat="43.5455082" lon="10.8210071"><ele>110.0</ele><time>2026-04-18T08:23:09.427Z</time></trkpt><trkpt lat="43.5454842" lon="10.8208678"><ele>109.8</ele><time>2026-04-18T08:23:10.426Z</time></trkpt><trkpt lat="43.5454587" lon="10.8207321"><ele>109.6</ele><time>2026-04-18T08:23:11.433Z</time></trkpt><trkpt lat="43.5454311" lon="10.8206045"><ele>109.4</ele><time>2026-04-18T08:23:12.455Z</time></trkpt><trkpt lat="43.545403" lon="10.8204789"><ele>109.2</ele><time>2026-04-18T08:23:13.452Z</time></trkpt><trkpt lat="43.5453611" lon="10.8203717"><ele>109.0</ele><time>2026-04-18T08:23:14.441Z</time></trkpt><trkpt lat="43.545306" lon="10.8202822"><ele>102.0</ele><time>2026-04-18T08:23:15.431Z</time></trkpt><trkpt lat="43.5452392" lon="10.8201999"><ele>95.0</ele><time>2026-04-18T08:23:16.419Z</time></trkpt><trkpt lat="43.5402033" lon="10.8394967"><ele>110.0</ele><time>2026-04-18T08:27:24.416Z</time></trkpt><trkpt lat="43.5400909" lon="10.839472"><ele>125.0</ele><time>2026-04-18T08:27:26.409Z</time></trkpt><trkpt lat="43.540033" lon="10.8393799"><ele>140.0</ele><time>2026-04-18T08:27:28.417Z</time></trkpt><trkpt lat="43.5399496" lon="10.8393093"><ele>155.0</ele><time>2026-04-18T08:27:30.42Z</time></trkpt><trkpt lat="43.5398851" lon="10.8392444"><ele>170.0</ele><time>2026-04-18T08:27:32.428Z</time></trkpt><trkpt lat="43.5398177" lon="10.8391841"><ele>170.0</ele><time>2026-04-18T08:27:34.422Z</time></trkpt><trkpt lat="43.5397385" lon="10.8391247"><ele>170.0</ele><time>2026-04-18T08:27:36.431Z</time></trkpt><trkpt lat="43.5396641" lon="10.8390702"><ele>170.0</ele><time>2026-04-18T08:27:38.41Z</time></trkpt><trkpt lat="43.5395829" lon="10.8390116"><ele>170.0</ele><time>2026-04-18T08:27:41.431Z</time></trkpt><trkpt lat="43.5395242" lon="10.8389672"><ele>170.0</ele><time>2026-04-18T08:27:43.425Z</time></trkpt><trkpt lat="43.5394667" lon="10.8389198"><ele>170.0</ele><time>2026-04-18T08:27:45.419Z</time></trkpt><trkpt lat="43.5394084" lon="10.8388791"><ele>169.83333333333331</ele><time>2026-04-18T08:27:47.434Z</time></trkpt><trkpt lat="43.5393328" lon="10.838823"><ele>169.66666666666666</ele><time>2026-04-18T08:27:50.431Z</time></trkpt><trkpt lat="43.5392823" lon="10.8387588"><ele>169.5</ele><time>2026-04-18T08:27:54.437Z</time></trkpt><trkpt lat="43.5392294" lon="10.8386951"><ele>169.33333333333334</ele><time>2026-04-18T08:27:56.444Z</time></trkpt><trkpt lat="43.5391374" lon="10.8385992"><ele>169.16666666666669</ele><time>2026-04-18T08:27:58.431Z</time></trkpt><trkpt lat="43.5390767" lon="10.838546"><ele>169.0</ele><time>2026-04-18T08:27:59.434Z</time></trkpt><trkpt lat="43.5390093" lon="10.8384869"><ele>168.42857142857144</ele><time>2026-04-18T08:28:00.426Z</time></trkpt><trkpt lat="43.5389356" lon="10.8384413"><ele>167.85714285714286</ele><time>2026-04-18T08:28:01.43Z</time></trkpt><trkpt lat="43.5388682" lon="10.8384006"><ele>167.28571428571428</ele><time>2026-04-18T08:28:02.429Z</time></trkpt><trkpt lat="43.5387991" lon="10.8383643"><ele>166.71428571428572</ele><time>2026-04-18T08:28:03.434Z</time></trkpt><trkpt lat="43.5387336" lon="10.8383211"><ele>166.14285714285714</ele><time>2026-04-18T08:28:04.43Z</time></trkpt><trkpt lat="43.5386724" lon="10.8382672"><ele>165.57142857142858</ele><time>2026-04-18T08:28:05.434Z</time></trkpt><trkpt lat="43.5386107" lon="10.8382201"><ele>165.0</ele><time>2026-04-18T08:28:06.436Z</time></trkpt><trkpt lat="43.5385291" lon="10.8381399"><ele>165.0</ele><time>2026-04-18T08:28:08.416Z</time></trkpt><trkpt lat="43.5384533" lon="10.8380749"><ele>165.0</ele><time>2026-04-18T08:28:11.429Z</time></trkpt><trkpt lat="43.5383986" lon="10.8380223"><ele>165.0</ele><time>2026-04-18T08:28:14.418Z</time></trkpt><trkpt lat="43.5383297" lon="10.8379604"><ele>165.0</ele><time>2026-04-18T08:28:18.432Z</time></trkpt><trkpt lat="43.538254" lon="10.837911"><ele>165.0</ele><time>2026-04-18T08:28:20.433Z</time></trkpt><trkpt lat="43.5381647" lon="10.8378431"><ele>165.0</ele><time>2026-04-18T08:28:22.443Z</time></trkpt><trkpt lat="43.5380803" lon="10.8377714"><ele>165.0</ele><time>2026-04-18T08:28:24.437Z</time></trkpt><trkpt lat="43.5380044" lon="10.8376961"><ele>165.0</ele><time>2026-04-18T08:28:26.435Z</time></trkpt><trkpt lat="43.5379286" lon="10.8376379"><ele>165.0</ele><time>2026-04-18T08:28:28.419Z</time></trkpt><trkpt lat="43.5378673" lon="10.8375876"><ele>165.0</ele><time>2026-04-18T08:28:30.434Z</time></trkpt><trkpt lat="43.5378073" lon="10.8375317"><ele>165.0</ele><time>2026-04-18T08:28:32.434Z</time></trkpt><trkpt lat="43.5377316" lon="10.8374414"><ele>165.0</ele><time>2026-04-18T08:28:34.435Z</time></trkpt><trkpt lat="43.5376515" lon="10.8373655"><ele>163.83333333333334</ele><time>2026-04-18T08:28:36.433Z</time></trkpt><trkpt lat="43.5375438" lon="10.8373147"><ele>162.66666666666666</ele><time>2026-04-18T08:28:38.436Z</time></trkpt><trkpt lat="43.5374825" lon="10.8372866"><ele>161.5</ele><time>2026-04-18T08:28:39.435Z</time></trkpt><trkpt lat="43.5374129" lon="10.8372715"><ele>160.33333333333331</ele><time>2026-04-18T08:28:40.434Z</time></trkpt><trkpt lat="43.5373408" lon="10.837252"><ele>159.16666666666666</ele><time>2026-04-18T08:28:41.43Z</time></trkpt><trkpt lat="43.5372742" lon="10.8372301"><ele>158.0</ele><time>2026-04-18T08:28:42.423Z</time></trkpt><trkpt lat="43.5372118" lon="10.8372115"><ele>158.0</ele><time>2026-04-18T08:28:43.451Z</time></trkpt><trkpt lat="43.5371007" lon="10.837171"><ele>158.0</ele><time>2026-04-18T08:28:45.431Z</time></trkpt><trkpt lat="43.5369946" lon="10.8371081"><ele>158.0</ele><time>2026-04-18T08:28:47.423Z</time></trkpt><trkpt lat="43.5369032" lon="10.8370197"><ele>158.0</ele><time>2026-04-18T08:28:49.427Z</time></trkpt><trkpt lat="43.5368217" lon="10.8369466"><ele>158.0</ele><time>2026-04-18T08:28:51.448Z</time></trkpt><trkpt lat="43.5367343" lon="10.836878"><ele>157.83333333333331</ele><time>2026-04-18T08:28:53.436Z</time></trkpt><trkpt lat="43.5366579" lon="10.8368277"><ele>157.66666666666666</ele><time>2026-04-18T08:28:55.43Z</time></trkpt><trkpt lat="43.5365899" lon="10.8367879"><ele>157.5</ele><time>2026-04-18T08:28:58.427Z</time></trkpt><trkpt lat="43.5365165" lon="10.8367362"><ele>157.33333333333334</ele><time>2026-04-18T08:29:01.436Z</time></trkpt><trkpt lat="43.5364437" lon="10.8366777"><ele>157.16666666666669</ele><time>2026-04-18T08:29:03.43Z</time></trkpt><trkpt lat="43.5363615" lon="10.8365747"><ele>157.0</ele><time>2026-04-18T08:29:05.425Z</time></trkpt><trkpt lat="43.536275" lon="10.836477"><ele>159.6</ele><time>2026-04-18T08:29:07.42Z</time></trkpt><trkpt lat="43.5361828" lon="10.8363895"><ele>162.2</ele><time>2026-04-18T08:29:09.432Z</time></trkpt><trkpt lat="43.5360716" lon="10.8363216"><ele>164.8</ele><time>2026-04-18T08:29:11.418Z</time></trkpt><trkpt lat="43.53596" lon="10.836264"><ele>167.4</ele><time>2026-04-18T08:29:13.428Z</time></trkpt><trkpt lat="43.5359058" lon="10.836219"><ele>170.0</ele><time>2026-04-18T08:29:14.42Z</time></trkpt><trkpt lat="43.5358468" lon="10.8361635"><ele>170.0</ele><time>2026-04-18T08:29:15.441Z</time></trkpt><trkpt lat="43.5357988" lon="10.8360874"><ele>170.0</ele><time>2026-04-18T08:29:16.421Z</time></trkpt><trkpt lat="43.5357535" lon="10.8360038"><ele>170.0</ele><time>2026-04-18T08:29:17.451Z</time></trkpt><trkpt lat="43.5357098" lon="10.8359282"><ele>170.0</ele><time>2026-04-18T08:29:18.422Z</time></trkpt><trkpt lat="43.5356602" lon="10.8358554"><ele>170.0</ele><time>2026-04-18T08:29:19.422Z</time></trkpt><trkpt lat="43.5356109" lon="10.8357694"><ele>170.0</ele><time>2026-04-18T08:29:20.43Z</time></trkpt><trkpt lat="43.5355498" lon="10.8356774"><ele>168.66666666666666</ele><time>2026-04-18T08:29:21.434Z</time></trkpt><trkpt lat="43.5354802" lon="10.8355838"><ele>167.33333333333331</ele><time>2026-04-18T08:29:22.428Z</time></trkpt><trkpt lat="43.5354072" lon="10.835503"><ele>166.0</ele><time>2026-04-18T08:29:23.437Z</time></trkpt><trkpt lat="43.535345" lon="10.8354364"><ele>164.66666666666666</ele><time>2026-04-18T08:29:24.429Z</time></trkpt><trkpt lat="43.5352783" lon="10.8353781"><ele>163.33333333333334</ele><time>2026-04-18T08:29:25.434Z</time></trkpt><trkpt lat="43.5352066" lon="10.8353235"><ele>162.0</ele><time>2026-04-18T08:29:26.434Z</time></trkpt><trkpt lat="43.5351408" lon="10.8352906"><ele>163.33333333333334</ele><time>2026-04-18T08:29:27.437Z</time></trkpt><trkpt lat="43.5350844" lon="10.8352495"><ele>164.66666666666666</ele><time>2026-04-18T08:29:28.423Z</time></trkpt><trkpt lat="43.5350005" lon="10.8351623"><ele>166.0</ele><time>2026-04-18T08:29:30.425Z</time></trkpt><trkpt lat="43.5349426" lon="10.8350489"><ele>167.33333333333331</ele><time>2026-04-18T08:29:32.437Z</time></trkpt><trkpt lat="43.5348915" lon="10.8349195"><ele>168.66666666666666</ele><time>2026-04-18T08:29:34.431Z</time></trkpt><trkpt lat="43.5348618" lon="10.8348398"><ele>170.0</ele><time>2026-04-18T08:29:35.42Z</time></trkpt><trkpt lat="43.534826" lon="10.8347529"><ele>170.0</ele><time>2026-04-18T08:29:36.431Z</time></trkpt><trkpt lat="43.5347862" lon="10.8346596"><ele>170.0</ele><time>2026-04-18T08:29:37.433Z</time></trkpt><trkpt lat="43.5347432" lon="10.8345661"><ele>170.0</ele><time>2026-04-18T08:29:38.428Z</time></trkpt><trkpt lat="43.5346951" lon="10.8344818"><ele>170.0</ele><time>2026-04-18T08:29:39.438Z</time></trkpt><trkpt lat="43.5346482" lon="10.8343986"><ele>170.0</ele><time>2026-04-18T08:29:40.434Z</time></trkpt><trkpt lat="43.5345935" lon="10.8343252"><ele>170.0</ele><time>2026-04-18T08:29:41.423Z</time></trkpt><trkpt lat="43.5345386" lon="10.8342532"><ele>170.4</ele><time>2026-04-18T08:29:42.432Z</time></trkpt><trkpt lat="43.5344821" lon="10.8341921"><ele>170.8</ele><time>2026-04-18T08:29:43.422Z</time></trkpt><trkpt lat="43.5343973" lon="10.8340924"><ele>171.2</ele><time>2026-04-18T08:29:45.426Z</time></trkpt><trkpt lat="43.5343361" lon="10.8340214"><ele>171.6</ele><time>2026-04-18T08:29:47.437Z</time></trkpt><trkpt lat="43.5342593" lon="10.8339529"><ele>172.0</ele><time>2026-04-18T08:29:49.445Z</time></trkpt><trkpt lat="43.5341637" lon="10.833892"><ele>172.0</ele><time>2026-04-18T08:29:51.432Z</time></trkpt><trkpt lat="43.5340548" lon="10.8338072"><ele>172.0</ele><time>2026-04-18T08:29:53.427Z</time></trkpt><trkpt lat="43.5339944" lon="10.8337627"><ele>172.0</ele><time>2026-04-18T08:29:54.432Z</time></trkpt><trkpt lat="43.5339447" lon="10.8337077"><ele>172.0</ele><time>2026-04-18T08:29:55.427Z</time></trkpt><trkpt lat="43.5338722" lon="10.83359"><ele>172.0</ele><time>2026-04-18T08:29:57.434Z</time></trkpt><trkpt lat="43.5338047" lon="10.8334687"><ele>171.5</ele><time>2026-04-18T08:29:59.433Z</time></trkpt><trkpt lat="43.533735" lon="10.8333393"><ele>171.0</ele><time>2026-04-18T08:30:01.438Z</time></trkpt><trkpt lat="43.5336939" lon="10.8332716"><ele>170.5</ele><time>2026-04-18T08:30:02.437Z</time></trkpt><trkpt lat="43.5336469" lon="10.833198"><ele>170.0</ele><time>2026-04-18T08:30:03.42Z</time></trkpt><trkpt lat="43.5335945" lon="10.8331173"><ele>169.5</ele><time>2026-04-18T08:30:04.424Z</time></trkpt><trkpt lat="43.5335477" lon="10.8330285"><ele>169.0</ele><time>2026-04-18T08:30:05.422Z</time></trkpt><trkpt lat="43.533501" lon="10.8329375"><ele>169.0</ele><time>2026-04-18T08:30:06.434Z</time></trkpt><trkpt lat="43.5334552" lon="10.8328426"><ele>169.0</ele><time>2026-04-18T08:30:07.439Z</time></trkpt><trkpt lat="43.5334151" lon="10.8327406"><ele>169.0</ele><time>2026-04-18T08:30:08.421Z</time></trkpt><trkpt lat="43.5333793" lon="10.8326405"><ele>169.0</ele><time>2026-04-18T08:30:09.433Z</time></trkpt><trkpt lat="43.533343" lon="10.8325451"><ele>169.0</ele><time>2026-04-18T08:30:10.43Z</time></trkpt><trkpt lat="43.5333123" lon="10.832459"><ele>169.0</ele><time>2026-04-18T08:30:11.429Z</time></trkpt><trkpt lat="43.5332717" lon="10.8323846"><ele>169.16666666666669</ele><time>2026-04-18T08:30:12.435Z</time></trkpt><trkpt lat="43.5332313" lon="10.8323129"><ele>169.33333333333334</ele><time>2026-04-18T08:30:13.434Z</time></trkpt><trkpt lat="43.5331432" lon="10.8321941"><ele>169.5</ele><time>2026-04-18T08:30:15.429Z</time></trkpt><trkpt lat="43.5330901" lon="10.8321356"><ele>169.66666666666666</ele><time>2026-04-18T08:30:16.414Z</time></trkpt><trkpt lat="43.53304" lon="10.8320714"><ele>169.83333333333331</ele><time>2026-04-18T08:30:17.437Z</time></trkpt><trkpt lat="43.5329919" lon="10.8319953"><ele>170.0</ele><time>2026-04-18T08:30:18.431Z</time></trkpt><trkpt lat="43.5329493" lon="10.8319217"><ele>170.0</ele><time>2026-04-18T08:30:19.437Z</time></trkpt><trkpt lat="43.5329146" lon="10.8318452"><ele>170.0</ele><time>2026-04-18T08:30:20.44Z</time></trkpt><trkpt lat="43.5328744" lon="10.83176"><ele>170.0</ele><time>2026-04-18T08:30:21.429Z</time></trkpt><trkpt lat="43.5328392" lon="10.8316743"><ele>170.0</ele><time>2026-04-18T08:30:22.439Z</time></trkpt><trkpt lat="43.5327975" lon="10.8315836"><ele>170.0</ele><time>2026-04-18T08:30:23.438Z</time></trkpt><trkpt lat="43.5327541" lon="10.8314907"><ele>170.0</ele><time>2026-04-18T08:30:24.431Z</time></trkpt><trkpt lat="43.5327098" lon="10.8313931"><ele>170.0</ele><time>2026-04-18T08:30:25.431Z</time></trkpt><trkpt lat="43.5326593" lon="10.8313063"><ele>170.0</ele><time>2026-04-18T08:30:26.445Z</time></trkpt><trkpt lat="43.5326116" lon="10.831231"><ele>170.0</ele><time>2026-04-18T08:30:27.439Z</time></trkpt><trkpt lat="43.5325511" lon="10.8311582"><ele>170.0</ele><time>2026-04-18T08:30:28.433Z</time></trkpt><trkpt lat="43.5324815" lon="10.831088"><ele>170.0</ele><time>2026-04-18T08:30:29.432Z</time></trkpt><trkpt lat="43.5324098" lon="10.8310245"><ele>170.0</ele><time>2026-04-18T08:30:30.445Z</time></trkpt><trkpt lat="43.5323404" lon="10.8309731"><ele>171.4</ele><time>2026-04-18T08:30:31.432Z</time></trkpt><trkpt lat="43.5322692" lon="10.8309191"><ele>172.8</ele><time>2026-04-18T08:30:32.42Z</time></trkpt><trkpt lat="43.5322033" lon="10.8308729"><ele>174.2</ele><time>2026-04-18T08:30:33.426Z</time></trkpt><trkpt lat="43.5320876" lon="10.8308354"><ele>175.6</ele><time>2026-04-18T08:30:35.426Z</time></trkpt><trkpt lat="43.5320268" lon="10.8308123"><ele>177.0</ele><time>2026-04-18T08:30:36.433Z</time></trkpt><trkpt lat="43.5319179" lon="10.8307592"><ele>177.8</ele><time>2026-04-18T08:30:38.418Z</time></trkpt><trkpt lat="43.5318028" lon="10.8306981"><ele>178.6</ele><time>2026-04-18T08:30:40.443Z</time></trkpt><trkpt lat="43.5317183" lon="10.8306342"><ele>179.4</ele><time>2026-04-18T08:30:42.411Z</time></trkpt><trkpt lat="43.5316264" lon="10.8305637"><ele>180.20000000000002</ele><time>2026-04-18T08:30:44.43Z</time></trkpt><trkpt lat="43.5315668" lon="10.8305313"><ele>181.0</ele><time>2026-04-18T08:30:45.437Z</time></trkpt><trkpt lat="43.5315022" lon="10.8304932"><ele>181.0</ele><time>2026-04-18T08:30:46.426Z</time></trkpt><trkpt lat="43.5314324" lon="10.8304529"><ele>181.0</ele><time>2026-04-18T08:30:47.429Z</time></trkpt><trkpt lat="43.5313689" lon="10.8304289"><ele>181.0</ele><time>2026-04-18T08:30:48.431Z</time></trkpt><trkpt lat="43.531306" lon="10.8303971"><ele>181.0</ele><time>2026-04-18T08:30:49.421Z</time></trkpt><trkpt lat="43.5312445" lon="10.8303507"><ele>181.0</ele><time>2026-04-18T08:30:50.437Z</time></trkpt><trkpt lat="43.5311859" lon="10.830303"><ele>181.0</ele><time>2026-04-18T08:30:51.438Z</time></trkpt><trkpt lat="43.5311384" lon="10.8302386"><ele>181.0</ele><time>2026-04-18T08:30:52.425Z</time></trkpt><trkpt lat="43.5310957" lon="10.8301692"><ele>180.57142857142856</ele><time>2026-04-18T08:30:53.427Z</time></trkpt><trkpt lat="43.5310621" lon="10.8300956"><ele>180.14285714285714</ele><time>2026-04-18T08:30:54.433Z</time></trkpt><trkpt lat="43.5310381" lon="10.830002"><ele>179.71428571428572</ele><time>2026-04-18T08:30:55.424Z</time></trkpt><trkpt lat="43.5310199" lon="10.8299175"><ele>179.28571428571428</ele><time>2026-04-18T08:30:56.427Z</time></trkpt><trkpt lat="43.5310109" lon="10.8298285"><ele>178.85714285714286</ele><time>2026-04-18T08:30:57.428Z</time></trkpt><trkpt lat="43.5309952" lon="10.8297424"><ele>178.42857142857142</ele><time>2026-04-18T08:30:58.43Z</time></trkpt><trkpt lat="43.5309713" lon="10.8295994"><ele>178.0</ele><time>2026-04-18T08:31:00.427Z</time></trkpt><trkpt lat="43.5309548" lon="10.8294203"><ele>178.0</ele><time>2026-04-18T08:31:02.41Z</time></trkpt><trkpt lat="43.5309434" lon="10.8293306"><ele>178.0</ele><time>2026-04-18T08:31:03.417Z</time></trkpt><trkpt lat="43.5309312" lon="10.8292166"><ele>178.0</ele><time>2026-04-18T08:31:05.429Z</time></trkpt><trkpt lat="43.5309097" lon="10.8291181"><ele>178.0</ele><time>2026-04-18T08:31:07.425Z</time></trkpt><trkpt lat="43.5308749" lon="10.8290079"><ele>178.0</ele><time>2026-04-18T08:31:09.435Z</time></trkpt><trkpt lat="43.5308382" lon="10.8289064"><ele>178.0</ele><time>2026-04-18T08:31:11.436Z</time></trkpt><trkpt lat="43.5307952" lon="10.8288148"><ele>177.60000000000002</ele><time>2026-04-18T08:31:13.44Z</time></trkpt><trkpt lat="43.5307389" lon="10.8287324"><ele>177.20000000000002</ele><time>2026-04-18T08:31:15.435Z</time></trkpt><trkpt lat="43.5306774" lon="10.828639"><ele>176.8</ele><time>2026-04-18T08:31:17.426Z</time></trkpt><trkpt lat="43.5306092" lon="10.8285348"><ele>176.4</ele><time>2026-04-18T08:31:19.44Z</time></trkpt><trkpt lat="43.5305509" lon="10.8284448"><ele>176.0</ele><time>2026-04-18T08:31:21.427Z</time></trkpt><trkpt lat="43.5304896" lon="10.8283557"><ele>175.33333333333331</ele><time>2026-04-18T08:31:23.448Z</time></trkpt><trkpt lat="43.530432" lon="10.82828"><ele>174.66666666666666</ele><time>2026-04-18T08:31:25.431Z</time></trkpt><trkpt lat="43.5303792" lon="10.8282"><ele>174.0</ele><time>2026-04-18T08:31:27.442Z</time></trkpt><trkpt lat="43.5303163" lon="10.8281151"><ele>173.33333333333334</ele><time>2026-04-18T08:31:29.427Z</time></trkpt><trkpt lat="43.5302523" lon="10.8280308"><ele>172.66666666666669</ele><time>2026-04-18T08:31:31.432Z</time></trkpt><trkpt lat="43.5301973" lon="10.8279568"><ele>172.0</ele><time>2026-04-18T08:31:33.424Z</time></trkpt><trkpt lat="43.5301323" lon="10.8278847"><ele>171.33333333333334</ele><time>2026-04-18T08:31:36.431Z</time></trkpt><trkpt lat="43.5300849" lon="10.8277998"><ele>170.66666666666669</ele><time>2026-04-18T08:31:45.44Z</time></trkpt><trkpt lat="43.530066" lon="10.8277055"><ele>170.0</ele><time>2026-04-18T08:31:49.422Z</time></trkpt><trkpt lat="43.5300296" lon="10.827624"><ele>169.33333333333334</ele><time>2026-04-18T08:31:52.445Z</time></trkpt><trkpt lat="43.529992" lon="10.827551"><ele>168.66666666666666</ele><time>2026-04-18T08:31:55.435Z</time></trkpt><trkpt lat="43.5299327" lon="10.8274654"><ele>168.0</ele><time>2026-04-18T08:31:59.442Z</time></trkpt><trkpt lat="43.5298681" lon="10.8273808"><ele>168.0</ele><time>2026-04-18T08:32:02.435Z</time></trkpt><trkpt lat="43.5298095" lon="10.8273205"><ele>168.0</ele><time>2026-04-18T08:32:05.431Z</time></trkpt><trkpt lat="43.529765" lon="10.8272225"><ele>168.0</ele><time>2026-04-18T08:32:09.438Z</time></trkpt><trkpt lat="43.5297139" lon="10.8271345"><ele>168.0</ele><time>2026-04-18T08:32:12.434Z</time></trkpt><trkpt lat="43.5296682" lon="10.8270544"><ele>168.0</ele><time>2026-04-18T08:32:15.434Z</time></trkpt><trkpt lat="43.529614" lon="10.826967"><ele>168.0</ele><time>2026-04-18T08:32:18.427Z</time></trkpt><trkpt lat="43.529573" lon="10.8268986"><ele>165.83333333333334</ele><time>2026-04-18T08:32:21.435Z</time></trkpt><trkpt lat="43.5295158" lon="10.8268085"><ele>163.66666666666666</ele><time>2026-04-18T08:32:26.434Z</time></trkpt><trkpt lat="43.5294592" lon="10.8267141"><ele>161.5</ele><time>2026-04-18T08:32:29.442Z</time></trkpt><trkpt lat="43.5294195" lon="10.8266457"><ele>159.33333333333331</ele><time>2026-04-18T08:32:31.444Z</time></trkpt><trkpt lat="43.5293784" lon="10.8265598"><ele>157.16666666666666</ele><time>2026-04-18T08:32:34.439Z</time></trkpt><trkpt lat="43.5293375" lon="10.8264692"><ele>155.0</ele><time>2026-04-18T08:32:37.44Z</time></trkpt><trkpt lat="43.5292842" lon="10.8263741"><ele>155.0</ele><time>2026-04-18T08:32:40.427Z</time></trkpt><trkpt lat="43.5292466" lon="10.8263005"><ele>155.0</ele><time>2026-04-18T08:32:42.432Z</time></trkpt><trkpt lat="43.5292004" lon="10.8262154"><ele>155.0</ele><time>2026-04-18T08:32:44.441Z</time></trkpt><trkpt lat="43.5291532" lon="10.8261254"><ele>155.0</ele><time>2026-04-18T08:32:46.431Z</time></trkpt><trkpt lat="43.5290925" lon="10.8260197"><ele>155.0</ele><time>2026-04-18T08:32:48.412Z</time></trkpt><trkpt lat="43.5290321" lon="10.8258894"><ele>155.0</ele><time>2026-04-18T08:32:50.428Z</time></trkpt><trkpt lat="43.5289788" lon="10.8257657"><ele>152.6</ele><time>2026-04-18T08:32:52.425Z</time></trkpt><trkpt lat="43.5289361" lon="10.8256247"><ele>150.2</ele><time>2026-04-18T08:32:54.447Z</time></trkpt><trkpt lat="43.528894" lon="10.8254866"><ele>147.8</ele><time>2026-04-18T08:32:56.444Z</time></trkpt><trkpt lat="43.5288584" lon="10.8253613"><ele>145.4</ele><time>2026-04-18T08:32:58.427Z</time></trkpt><trkpt lat="43.528835" lon="10.8252341"><ele>143.0</ele><time>2026-04-18T08:33:00.439Z</time></trkpt><trkpt lat="43.5288154" lon="10.8251119"><ele>142.14285714285714</ele><time>2026-04-18T08:33:02.439Z</time></trkpt><trkpt lat="43.5287997" lon="10.8250118"><ele>141.28571428571428</ele><time>2026-04-18T08:33:04.429Z</time></trkpt><trkpt lat="43.5287819" lon="10.8249009"><ele>140.42857142857144</ele><time>2026-04-18T08:33:07.435Z</time></trkpt><trkpt lat="43.528762" lon="10.8248177"><ele>139.57142857142856</ele><time>2026-04-18T08:33:09.439Z</time></trkpt><trkpt lat="43.5287472" lon="10.8247294"><ele>138.71428571428572</ele><time>2026-04-18T08:33:11.429Z</time></trkpt><trkpt lat="43.5287273" lon="10.8246417"><ele>137.85714285714286</ele><time>2026-04-18T08:33:13.434Z</time></trkpt><trkpt lat="43.5287004" lon="10.8245225"><ele>137.0</ele><time>2026-04-18T08:33:16.412Z</time></trkpt><trkpt lat="43.5286701" lon="10.8244403"><ele>137.00000000000003</ele><time>2026-04-18T08:33:19.427Z</time></trkpt><trkpt lat="43.5286408" lon="10.824362"><ele>137.0</ele><time>2026-04-18T08:33:23.437Z</time></trkpt><trkpt lat="43.528617" lon="10.8242576"><ele>137.0</ele><time>2026-04-18T08:33:27.439Z</time></trkpt><trkpt lat="43.5285929" lon="10.8241676"><ele>137.0</ele><time>2026-04-18T08:33:30.429Z</time></trkpt><trkpt lat="43.5285544" lon="10.8240725"><ele>137.0</ele><time>2026-04-18T08:33:33.43Z</time></trkpt><trkpt lat="43.5285205" lon="10.8239821"><ele>137.00000000000003</ele><time>2026-04-18T08:33:36.423Z</time></trkpt><trkpt lat="43.5284831" lon="10.8238935"><ele>137.0</ele><time>2026-04-18T08:33:39.423Z</time></trkpt><trkpt lat="43.5284556" lon="10.823807"><ele>136.83333333333331</ele><time>2026-04-18T08:33:42.444Z</time></trkpt><trkpt lat="43.5284254" lon="10.8237181"><ele>136.66666666666666</ele><time>2026-04-18T08:33:45.44Z</time></trkpt><trkpt lat="43.5283889" lon="10.8236044"><ele>136.5</ele><time>2026-04-18T08:33:48.437Z</time></trkpt><trkpt lat="43.5283459" lon="10.8235039"><ele>136.33333333333334</ele><time>2026-04-18T08:33:50.44Z</time></trkpt><trkpt lat="43.5283037" lon="10.823411"><ele>136.16666666666669</ele><time>2026-04-18T08:33:52.439Z</time></trkpt><trkpt lat="43.5282626" lon="10.8233202"><ele>136.0</ele><time>2026-04-18T08:33:54.434Z</time></trkpt><trkpt lat="43.5282176" lon="10.8232187"><ele>134.83333333333334</ele><time>2026-04-18T08:33:56.429Z</time></trkpt><trkpt lat="43.5281723" lon="10.8231098"><ele>133.66666666666669</ele><time>2026-04-18T08:33:58.417Z</time></trkpt><trkpt lat="43.5281314" lon="10.8230164"><ele>132.5</ele><time>2026-04-18T08:34:00.429Z</time></trkpt><trkpt lat="43.5280984" lon="10.8229311"><ele>131.33333333333334</ele><time>2026-04-18T08:34:02.441Z</time></trkpt><trkpt lat="43.5280643" lon="10.8228529"><ele>130.16666666666666</ele><time>2026-04-18T08:34:05.427Z</time></trkpt><trkpt lat="43.5280209" lon="10.8227605"><ele>129.0</ele><time>2026-04-18T08:34:15.431Z</time></trkpt><trkpt lat="43.5279858" lon="10.8226821"><ele>127.2</ele><time>2026-04-18T08:34:17.435Z</time></trkpt><trkpt lat="43.5279433" lon="10.8225938"><ele>125.4</ele><time>2026-04-18T08:34:20.424Z</time></trkpt><trkpt lat="43.5278813" lon="10.8225018"><ele>123.6</ele><time>2026-04-18T08:34:22.429Z</time></trkpt><trkpt lat="43.5278495" lon="10.8223607"><ele>121.8</ele><time>2026-04-18T08:34:24.432Z</time></trkpt><trkpt lat="43.5278836" lon="10.8222103"><ele>120.0</ele><time>2026-04-18T08:34:26.424Z</time></trkpt><trkpt lat="43.5279271" lon="10.8221347"><ele>120.0</ele><time>2026-04-18T08:34:27.433Z</time></trkpt><trkpt lat="43.5279695" lon="10.8220553"><ele>120.0</ele><time>2026-04-18T08:34:28.418Z</time></trkpt><trkpt lat="43.5280044" lon="10.8219673"><ele>120.0</ele><time>2026-04-18T08:34:29.425Z</time></trkpt><trkpt lat="43.5280284" lon="10.8218552"><ele>120.0</ele><time>2026-04-18T08:34:30.431Z</time></trkpt><trkpt lat="43.5280419" lon="10.8217215"><ele>120.0</ele><time>2026-04-18T08:34:31.429Z</time></trkpt><trkpt lat="43.528029" lon="10.821574"><ele>120.0</ele><time>2026-04-18T08:34:32.433Z</time></trkpt><trkpt lat="43.5280097" lon="10.8214214"><ele>118.0</ele><time>2026-04-18T08:34:33.432Z</time></trkpt><trkpt lat="43.5279893" lon="10.8212491"><ele>116.0</ele><time>2026-04-18T08:34:34.438Z</time></trkpt><trkpt lat="43.5279693" lon="10.8210833"><ele>114.0</ele><time>2026-04-18T08:34:35.436Z</time></trkpt><trkpt lat="43.5279439" lon="10.820925"><ele>112.0</ele><time>2026-04-18T08:34:36.432Z</time></trkpt><trkpt lat="43.5279143" lon="10.8207917"><ele>111.66666666666667</ele><time>2026-04-18T08:34:37.424Z</time></trkpt><trkpt lat="43.527886" lon="10.8206848"><ele>111.33333333333334</ele><time>2026-04-18T08:34:38.42Z</time></trkpt><trkpt lat="43.5278566" lon="10.8205918"><ele>111.0</ele><time>2026-04-18T08:34:39.433Z</time></trkpt><trkpt lat="43.5278034" lon="10.8205284"><ele>110.66666666666666</ele><time>2026-04-18T08:34:40.435Z</time></trkpt><trkpt lat="43.5277363" lon="10.8204763"><ele>110.33333333333333</ele><time>2026-04-18T08:34:41.425Z</time></trkpt><trkpt lat="43.5276459" lon="10.8204393"><ele>110.0</ele><time>2026-04-18T08:34:42.429Z</time></trkpt><trkpt lat="43.5275562" lon="10.8204123"><ele>109.99999999999999</ele><time>2026-04-18T08:34:43.435Z</time></trkpt><trkpt lat="43.5274655" lon="10.8203907"><ele>110.0</ele><time>2026-04-18T08:34:44.432Z</time></trkpt><trkpt lat="43.5273804" lon="10.8203694"><ele>110.0</ele><time>2026-04-18T08:34:45.438Z</time></trkpt><trkpt lat="43.5272954" lon="10.8203498"><ele>110.0</ele><time>2026-04-18T08:34:46.428Z</time></trkpt><trkpt lat="43.5272092" lon="10.8203149"><ele>109.99999999999999</ele><time>2026-04-18T08:34:47.439Z</time></trkpt><trkpt lat="43.527122" lon="10.8202705"><ele>110.0</ele><time>2026-04-18T08:34:48.427Z</time></trkpt><trkpt lat="43.5270547" lon="10.8202023"><ele>107.16666666666666</ele><time>2026-04-18T08:34:49.437Z</time></trkpt><trkpt lat="43.5270042" lon="10.8201128"><ele>104.33333333333333</ele><time>2026-04-18T08:34:50.427Z</time></trkpt><trkpt lat="43.5269855" lon="10.8200046"><ele>101.5</ele><time>2026-04-18T08:34:51.424Z</time></trkpt><trkpt lat="43.5270008" lon="10.8198808"><ele>98.66666666666666</ele><time>2026-04-18T08:34:52.427Z</time></trkpt><trkpt lat="43.5270178" lon="10.819761"><ele>95.83333333333333</ele><time>2026-04-18T08:34:53.427Z</time></trkpt><trkpt lat="43.527035" lon="10.8196423"><ele>93.0</ele><time>2026-04-18T08:34:54.432Z</time></trkpt><trkpt lat="43.5270517" lon="10.81953"><ele>92.66666666666667</ele><time>2026-04-18T08:34:55.442Z</time></trkpt><trkpt lat="43.5270616" lon="10.8194137"><ele>92.33333333333333</ele><time>2026-04-18T08:34:56.423Z</time></trkpt><trkpt lat="43.5270696" lon="10.8192998"><ele>92.0</ele><time>2026-04-18T08:34:57.416Z</time></trkpt><trkpt lat="43.5270635" lon="10.8191784"><ele>91.66666666666666</ele><time>2026-04-18T08:34:58.416Z</time></trkpt><trkpt lat="43.5270503" lon="10.8190614"><ele>91.33333333333333</ele><time>2026-04-18T08:34:59.42Z</time></trkpt><trkpt lat="43.5270251" lon="10.8189579"><ele>91.0</ele><time>2026-04-18T08:35:00.411Z</time></trkpt><trkpt lat="43.5269599" lon="10.8188311"><ele>90.66666666666666</ele><time>2026-04-18T08:35:02.437Z</time></trkpt><trkpt lat="43.5269041" lon="10.8187293"><ele>90.33333333333333</ele><time>2026-04-18T08:35:04.434Z</time></trkpt><trkpt lat="43.5268627" lon="10.8186528"><ele>90.0</ele><time>2026-04-18T08:35:25.428Z</time></trkpt><trkpt lat="43.5268251" lon="10.8185516"><ele>89.66666666666667</ele><time>2026-04-18T08:35:29.423Z</time></trkpt><trkpt lat="43.5268389" lon="10.8184453"><ele>89.33333333333334</ele><time>2026-04-18T08:35:33.427Z</time></trkpt><trkpt lat="43.5268706" lon="10.8183608"><ele>89.0</ele><time>2026-04-18T08:35:35.453Z</time></trkpt><trkpt lat="43.526935" lon="10.8182498"><ele>89.0</ele><time>2026-04-18T08:35:37.433Z</time></trkpt><trkpt lat="43.527022" lon="10.8181093"><ele>89.0</ele><time>2026-04-18T08:35:39.433Z</time></trkpt><trkpt lat="43.5270624" lon="10.8180271"><ele>89.0</ele><time>2026-04-18T08:35:40.433Z</time></trkpt><trkpt lat="43.5271018" lon="10.8179407"><ele>89.0</ele><time>2026-04-18T08:35:41.428Z</time></trkpt><trkpt lat="43.5271442" lon="10.8178622"><ele>89.0</ele><time>2026-04-18T08:35:42.429Z</time></trkpt><trkpt lat="43.5271836" lon="10.8177844"><ele>89.0</ele><time>2026-04-18T08:35:43.436Z</time></trkpt><trkpt lat="43.5272471" lon="10.8176635"><ele>88.0</ele><time>2026-04-18T08:35:45.428Z</time></trkpt><trkpt lat="43.5273162" lon="10.817525"><ele>87.0</ele><time>2026-04-18T08:35:47.426Z</time></trkpt><trkpt lat="43.5273696" lon="10.8174615"><ele>86.0</ele><time>2026-04-18T08:35:48.426Z</time></trkpt><trkpt lat="43.527418" lon="10.8173997"><ele>85.0</ele><time>2026-04-18T08:35:49.436Z</time></trkpt><trkpt lat="43.5275081" lon="10.8173091"><ele>84.0</ele><time>2026-04-18T08:35:51.433Z</time></trkpt><trkpt lat="43.5275836" lon="10.8172415"><ele>84.0</ele><time>2026-04-18T08:35:53.419Z</time></trkpt><trkpt lat="43.5276494" lon="10.8172274"><ele>84.0</ele><time>2026-04-18T08:35:55.438Z</time></trkpt><trkpt lat="43.5277177" lon="10.8171801"><ele>84.0</ele><time>2026-04-18T08:38:55.431Z</time></trkpt><trkpt lat="43.5277699" lon="10.8170752"><ele>84.0</ele><time>2026-04-18T08:38:58.418Z</time></trkpt><trkpt lat="43.5277879" lon="10.8169448"><ele>84.0</ele><time>2026-04-18T08:39:00.42Z</time></trkpt><trkpt lat="43.5278286" lon="10.8167893"><ele>84.25</ele><time>2026-04-18T08:39:02.423Z</time></trkpt><trkpt lat="43.5278799" lon="10.8166304"><ele>84.5</ele><time>2026-04-18T08:39:04.423Z</time></trkpt><trkpt lat="43.5279334" lon="10.8164812"><ele>84.75</ele><time>2026-04-18T08:39:06.425Z</time></trkpt><trkpt lat="43.527987" lon="10.8163261"><ele>85.0</ele><time>2026-04-18T08:39:08.426Z</time></trkpt><trkpt lat="43.5280516" lon="10.8161785"><ele>86.0</ele><time>2026-04-18T08:39:10.432Z</time></trkpt><trkpt lat="43.5281196" lon="10.8160602"><ele>87.0</ele><time>2026-04-18T08:39:12.438Z</time></trkpt><trkpt lat="43.5282031" lon="10.8159871"><ele>88.0</ele><time>2026-04-18T08:39:14.424Z</time></trkpt><trkpt lat="43.528312" lon="10.815968"><ele>89.0</ele><time>2026-04-18T08:39:16.429Z</time></trkpt><trkpt lat="43.5284197" lon="10.8159864"><ele>90.0</ele><time>2026-04-18T08:39:18.433Z</time></trkpt><trkpt lat="43.5285305" lon="10.8160122"><ele>90.0</ele><time>2026-04-18T08:39:20.428Z</time></trkpt><trkpt lat="43.5285965" lon="10.8160369"><ele>90.0</ele><time>2026-04-18T08:39:21.434Z</time></trkpt><trkpt lat="43.5286641" lon="10.816053"><ele>90.0</ele><time>2026-04-18T08:39:22.425Z</time></trkpt><trkpt lat="43.5287269" lon="10.8160683"><ele>90.0</ele><time>2026-04-18T08:39:23.428Z</time></trkpt><trkpt lat="43.5287902" lon="10.8160812"><ele>90.0</ele><time>2026-04-18T08:39:24.434Z</time></trkpt><trkpt lat="43.5288532" lon="10.8160855"><ele>90.0</ele><time>2026-04-18T08:39:25.423Z</time></trkpt><trkpt lat="43.5289192" lon="10.8160792"><ele>90.0</ele><time>2026-04-18T08:39:26.425Z</time></trkpt><trkpt lat="43.5289958" lon="10.8160659"><ele>91.28571428571428</ele><time>2026-04-18T08:39:27.417Z</time></trkpt><trkpt lat="43.5290698" lon="10.816036"><ele>92.57142857142858</ele><time>2026-04-18T08:39:28.427Z</time></trkpt><trkpt lat="43.5291371" lon="10.8159958"><ele>93.85714285714286</ele><time>2026-04-18T08:39:29.418Z</time></trkpt><trkpt lat="43.529204" lon="10.8159633"><ele>95.14285714285714</ele><time>2026-04-18T08:39:30.426Z</time></trkpt><trkpt lat="43.5292688" lon="10.8159296"><ele>96.42857142857142</ele><time>2026-04-18T08:39:31.429Z</time></trkpt><trkpt lat="43.5293292" lon="10.8159032"><ele>97.71428571428572</ele><time>2026-04-18T08:39:32.437Z</time></trkpt><trkpt lat="43.5293899" lon="10.8158768"><ele>99.0</ele><time>2026-04-18T08:39:33.421Z</time></trkpt><trkpt lat="43.5294499" lon="10.8158459"><ele>105.25</ele><time>2026-04-18T08:39:34.429Z</time></trkpt><trkpt lat="43.5295735" lon="10.8158065"><ele>111.5</ele><time>2026-04-18T08:39:36.421Z</time></trkpt><trkpt lat="43.5296803" lon="10.8157669"><ele>117.75</ele><time>2026-04-18T08:39:38.42Z</time></trkpt><trkpt lat="43.5297956" lon="10.8157266"><ele>124.0</ele><time>2026-04-18T08:39:40.42Z</time></trkpt><trkpt lat="43.5299146" lon="10.8157059"><ele>124.00000000000001</ele><time>2026-04-18T08:39:42.42Z</time></trkpt><trkpt lat="43.5299789" lon="10.8156909"><ele>124.0</ele><time>2026-04-18T08:39:43.416Z</time></trkpt><trkpt lat="43.5300445" lon="10.8156841"><ele>124.0</ele><time>2026-04-18T08:39:44.415Z</time></trkpt><trkpt lat="43.5301168" lon="10.8156737"><ele>124.0</ele><time>2026-04-18T08:39:45.429Z</time></trkpt><trkpt lat="43.5301921" lon="10.8156633"><ele>124.00000000000001</ele><time>2026-04-18T08:39:46.415Z</time></trkpt><trkpt lat="43.5302745" lon="10.8156541"><ele>124.0</ele><time>2026-04-18T08:39:47.425Z</time></trkpt><trkpt lat="43.5303654" lon="10.8156419"><ele>124.50000000000001</ele><time>2026-04-18T08:39:48.408Z</time></trkpt><trkpt lat="43.5304421" lon="10.8156267"><ele>125.0</ele><time>2026-04-18T08:39:49.411Z</time></trkpt><trkpt lat="43.5305075" lon="10.8155996"><ele>125.5</ele><time>2026-04-18T08:39:50.421Z</time></trkpt><trkpt lat="43.5306449" lon="10.8155715"><ele>126.0</ele><time>2026-04-18T08:39:52.435Z</time></trkpt><trkpt lat="43.5307244" lon="10.8155616"><ele>126.50000000000001</ele><time>2026-04-18T08:39:53.423Z</time></trkpt><trkpt lat="43.5308036" lon="10.8155674"><ele>127.0</ele><time>2026-04-18T08:39:54.424Z</time></trkpt><trkpt lat="43.5308923" lon="10.8155901"><ele>127.00000000000001</ele><time>2026-04-18T08:39:55.418Z</time></trkpt><trkpt lat="43.530977" lon="10.8156178"><ele>127.0</ele><time>2026-04-18T08:39:56.423Z</time></trkpt><trkpt lat="43.5310614" lon="10.8156488"><ele>127.0</ele><time>2026-04-18T08:39:57.422Z</time></trkpt><trkpt lat="43.5311397" lon="10.8156805"><ele>127.0</ele><time>2026-04-18T08:39:58.408Z</time></trkpt><trkpt lat="43.531221" lon="10.8157038"><ele>127.00000000000001</ele><time>2026-04-18T08:39:59.426Z</time></trkpt><trkpt lat="43.5312987" lon="10.8157396"><ele>127.0</ele><time>2026-04-18T08:40:00.429Z</time></trkpt><trkpt lat="43.5313767" lon="10.8157712"><ele>127.71428571428572</ele><time>2026-04-18T08:40:01.421Z</time></trkpt><trkpt lat="43.531455" lon="10.8157922"><ele>128.42857142857142</ele><time>2026-04-18T08:40:02.43Z</time></trkpt><trkpt lat="43.5315285" lon="10.8158092"><ele>129.14285714285714</ele><time>2026-04-18T08:40:03.436Z</time></trkpt><trkpt lat="43.5316033" lon="10.8158063"><ele>129.85714285714286</ele><time>2026-04-18T08:40:04.422Z</time></trkpt><trkpt lat="43.5316766" lon="10.8158139"><ele>130.57142857142858</ele><time>2026-04-18T08:40:05.436Z</time></trkpt><trkpt lat="43.531744" lon="10.8158174"><ele>131.28571428571428</ele><time>2026-04-18T08:40:06.425Z</time></trkpt><trkpt lat="43.5318134" lon="10.815825"><ele>132.0</ele><time>2026-04-18T08:40:07.427Z</time></trkpt><trkpt lat="43.5318814" lon="10.8158354"><ele>132.0</ele><time>2026-04-18T08:40:08.418Z</time></trkpt><trkpt lat="43.5319434" lon="10.8158538"><ele>132.0</ele><time>2026-04-18T08:40:09.438Z</time></trkpt><trkpt lat="43.5320032" lon="10.815885"><ele>132.0</ele><time>2026-04-18T08:40:10.434Z</time></trkpt><trkpt lat="43.5321159" lon="10.8159621"><ele>132.0</ele><time>2026-04-18T08:40:12.432Z</time></trkpt><trkpt lat="43.5321729" lon="10.8160108"><ele>132.0</ele><time>2026-04-18T08:40:13.421Z</time></trkpt><trkpt lat="43.5322312" lon="10.8160674"><ele>132.0</ele><time>2026-04-18T08:40:14.43Z</time></trkpt><trkpt lat="43.5322897" lon="10.8161275"><ele>132.85714285714286</ele><time>2026-04-18T08:40:15.429Z</time></trkpt><trkpt lat="43.5323587" lon="10.8161954"><ele>133.71428571428572</ele><time>2026-04-18T08:40:16.431Z</time></trkpt><trkpt lat="43.5324163" lon="10.8162545"><ele>134.57142857142858</ele><time>2026-04-18T08:40:17.427Z</time></trkpt><trkpt lat="43.5324788" lon="10.8163047"><ele>135.42857142857144</ele><time>2026-04-18T08:40:18.418Z</time></trkpt><trkpt lat="43.5325416" lon="10.8163425"><ele>136.2857142857143</ele><time>2026-04-18T08:40:19.422Z</time></trkpt><trkpt lat="43.5326155" lon="10.8163715"><ele>137.14285714285714</ele><time>2026-04-18T08:40:20.431Z</time></trkpt><trkpt lat="43.5326854" lon="10.8163976"><ele>138.0</ele><time>2026-04-18T08:40:21.418Z</time></trkpt><trkpt lat="43.5327524" lon="10.8164264"><ele>138.0</ele><time>2026-04-18T08:40:22.434Z</time></trkpt><trkpt lat="43.5328161" lon="10.8164518"><ele>138.0</ele><time>2026-04-18T08:40:23.42Z</time></trkpt><trkpt lat="43.5328822" lon="10.8164767"><ele>138.0</ele><time>2026-04-18T08:40:24.429Z</time></trkpt><trkpt lat="43.5330113" lon="10.816527"><ele>138.0</ele><time>2026-04-18T08:40:26.428Z</time></trkpt><trkpt lat="43.5330895" lon="10.8165504"><ele>138.0</ele><time>2026-04-18T08:40:27.423Z</time></trkpt><trkpt lat="43.5331603" lon="10.816584"><ele>138.0</ele><time>2026-04-18T08:40:28.426Z</time></trkpt><trkpt lat="43.533237" lon="10.8166183"><ele>137.8</ele><time>2026-04-18T08:40:29.431Z</time></trkpt><trkpt lat="43.5333113" lon="10.81665"><ele>137.60000000000002</ele><time>2026-04-18T08:40:30.423Z</time></trkpt><trkpt lat="43.5333778" lon="10.8166844"><ele>137.39999999999998</ele><time>2026-04-18T08:40:31.423Z</time></trkpt><trkpt lat="43.5334928" lon="10.8167371"><ele>137.2</ele><time>2026-04-18T08:40:33.421Z</time></trkpt><trkpt lat="43.5336127" lon="10.8167443"><ele>137.0</ele><time>2026-04-18T08:40:35.43Z</time></trkpt><trkpt lat="43.5337167" lon="10.8167321"><ele>138.0</ele><time>2026-04-18T08:40:37.418Z</time></trkpt><trkpt lat="43.533796" lon="10.816707"><ele>139.0</ele><time>2026-04-18T08:40:41.43Z</time></trkpt><trkpt lat="43.5338632" lon="10.8166743"><ele>140.0</ele><time>2026-04-18T08:40:43.443Z</time></trkpt><trkpt lat="43.5339598" lon="10.8166544"><ele>141.0</ele><time>2026-04-18T08:40:45.424Z</time></trkpt><trkpt lat="43.5340775" lon="10.8166353"><ele>142.0</ele><time>2026-04-18T08:40:47.411Z</time></trkpt><trkpt lat="43.5341426" lon="10.8166339"><ele>143.0</ele><time>2026-04-18T08:40:48.441Z</time></trkpt><trkpt lat="43.5342104" lon="10.8166352"><ele>143.0</ele><time>2026-04-18T08:40:49.421Z</time></trkpt><trkpt lat="43.5343257" lon="10.8166278"><ele>143.0</ele><time>2026-04-18T08:40:51.434Z</time></trkpt><trkpt lat="43.5344419" lon="10.8166339"><ele>143.0</ele><time>2026-04-18T08:40:53.435Z</time></trkpt><trkpt lat="43.5345484" lon="10.8166486"><ele>143.0</ele><time>2026-04-18T08:40:55.436Z</time></trkpt><trkpt lat="43.5346575" lon="10.8166654"><ele>143.0</ele><time>2026-04-18T08:40:57.425Z</time></trkpt><trkpt lat="43.5347686" lon="10.8166896"><ele>144.8</ele><time>2026-04-18T08:40:59.425Z</time></trkpt><trkpt lat="43.5349004" lon="10.8166873"><ele>146.60000000000002</ele><time>2026-04-18T08:41:01.424Z</time></trkpt><trkpt lat="43.5349666" lon="10.8166756"><ele>148.39999999999998</ele><time>2026-04-18T08:41:02.42Z</time></trkpt><trkpt lat="43.5350718" lon="10.8166044"><ele>150.2</ele><time>2026-04-18T08:41:04.434Z</time></trkpt><trkpt lat="43.5351845" lon="10.8165269"><ele>152.0</ele><time>2026-04-18T08:41:06.422Z</time></trkpt><trkpt lat="43.5352725" lon="10.8164537"><ele>152.0</ele><time>2026-04-18T08:41:08.437Z</time></trkpt><trkpt lat="43.5353631" lon="10.8163743"><ele>152.0</ele><time>2026-04-18T08:41:10.432Z</time></trkpt><trkpt lat="43.5354175" lon="10.8163285"><ele>152.0</ele><time>2026-04-18T08:41:11.435Z</time></trkpt><trkpt lat="43.5354846" lon="10.8162951"><ele>152.0</ele><time>2026-04-18T08:41:12.433Z</time></trkpt><trkpt lat="43.5355474" lon="10.8162394"><ele>152.0</ele><time>2026-04-18T08:41:13.433Z</time></trkpt><trkpt lat="43.5356095" lon="10.8161867"><ele>152.0</ele><time>2026-04-18T08:41:14.419Z</time></trkpt><trkpt lat="43.5356648" lon="10.8161332"><ele>154.0</ele><time>2026-04-18T08:41:15.439Z</time></trkpt><trkpt lat="43.53572" lon="10.8160829"><ele>156.0</ele><time>2026-04-18T08:41:16.423Z</time></trkpt><trkpt lat="43.5357748" lon="10.8160266"><ele>158.0</ele><time>2026-04-18T08:41:17.435Z</time></trkpt><trkpt lat="43.5358301" lon="10.8159772"><ele>160.0</ele><time>2026-04-18T08:41:18.431Z</time></trkpt><trkpt lat="43.535944" lon="10.8158915"><ele>162.0</ele><time>2026-04-18T08:41:20.426Z</time></trkpt><trkpt lat="43.5360105" lon="10.8158492"><ele>164.0</ele><time>2026-04-18T08:41:21.423Z</time></trkpt><trkpt lat="43.5360787" lon="10.8158061"><ele>163.99999999999997</ele><time>2026-04-18T08:41:22.424Z</time></trkpt><trkpt lat="43.536139" lon="10.8157754"><ele>164.0</ele><time>2026-04-18T08:41:23.427Z</time></trkpt><trkpt lat="43.5362003" lon="10.815746"><ele>164.0</ele><time>2026-04-18T08:41:24.436Z</time></trkpt><trkpt lat="43.5362674" lon="10.8157158"><ele>164.0</ele><time>2026-04-18T08:41:25.429Z</time></trkpt><trkpt lat="43.5363402" lon="10.8156864"><ele>164.0</ele><time>2026-04-18T08:41:26.439Z</time></trkpt><trkpt lat="43.5364179" lon="10.8156579"><ele>163.99999999999997</ele><time>2026-04-18T08:41:27.435Z</time></trkpt><trkpt lat="43.5364904" lon="10.8156347"><ele>164.0</ele><time>2026-04-18T08:41:28.432Z</time></trkpt><trkpt lat="43.5365607" lon="10.8156235"><ele>165.6</ele><time>2026-04-18T08:41:29.432Z</time></trkpt><trkpt lat="43.5366287" lon="10.8156196"><ele>167.2</ele><time>2026-04-18T08:41:30.429Z</time></trkpt><trkpt lat="43.5367449" lon="10.8156243"><ele>168.79999999999998</ele><time>2026-04-18T08:41:32.422Z</time></trkpt><trkpt lat="43.5368515" lon="10.8156286"><ele>170.39999999999998</ele><time>2026-04-18T08:41:34.413Z</time></trkpt><trkpt lat="43.536957" lon="10.8156061"><ele>172.0</ele><time>2026-04-18T08:41:36.417Z</time></trkpt><trkpt lat="43.5370502" lon="10.815484"><ele>170.57142857142858</ele><time>2026-04-18T08:41:38.42Z</time></trkpt><trkpt lat="43.5370965" lon="10.8153959"><ele>169.14285714285714</ele><time>2026-04-18T08:41:39.43Z</time></trkpt><trkpt lat="43.5371317" lon="10.8153049"><ele>167.71428571428572</ele><time>2026-04-18T08:41:40.412Z</time></trkpt><trkpt lat="43.5371641" lon="10.8152271"><ele>166.28571428571428</ele><time>2026-04-18T08:41:41.408Z</time></trkpt><trkpt lat="43.5372009" lon="10.8151319"><ele>164.85714285714286</ele><time>2026-04-18T08:41:43.419Z</time></trkpt><trkpt lat="43.5372429" lon="10.8150554"><ele>163.42857142857144</ele><time>2026-04-18T08:41:50.434Z</time></trkpt><trkpt lat="43.5372549" lon="10.8149599"><ele>162.0</ele><time>2026-04-18T08:41:52.426Z</time></trkpt><trkpt lat="43.5372384" lon="10.8148168"><ele>161.66666666666666</ele><time>2026-04-18T08:41:54.431Z</time></trkpt><trkpt lat="43.5372151" lon="10.8147311"><ele>161.33333333333334</ele><time>2026-04-18T08:41:55.426Z</time></trkpt><trkpt lat="43.5371857" lon="10.8146077"><ele>161.0</ele><time>2026-04-18T08:41:56.443Z</time></trkpt><trkpt lat="43.5371643" lon="10.8144721"><ele>160.66666666666669</ele><time>2026-04-18T08:41:57.421Z</time></trkpt><trkpt lat="43.5371574" lon="10.8143409"><ele>160.33333333333334</ele><time>2026-04-18T08:41:58.429Z</time></trkpt><trkpt lat="43.5371706" lon="10.8142177"><ele>160.0</ele><time>2026-04-18T08:41:59.428Z</time></trkpt><trkpt lat="43.537205" lon="10.8140992"><ele>161.4</ele><time>2026-04-18T08:42:00.409Z</time></trkpt><trkpt lat="43.5372547" lon="10.813977"><ele>162.8</ele><time>2026-04-18T08:42:01.421Z</time></trkpt><trkpt lat="43.5373081" lon="10.8138571"><ele>164.2</ele><time>2026-04-18T08:42:02.431Z</time></trkpt><trkpt lat="43.537364" lon="10.8137468"><ele>165.6</ele><time>2026-04-18T08:42:03.432Z</time></trkpt><trkpt lat="43.5374244" lon="10.8136361"><ele>167.0</ele><time>2026-04-18T08:42:04.441Z</time></trkpt><trkpt lat="43.5374817" lon="10.8135215"><ele>168.66666666666666</ele><time>2026-04-18T08:42:05.423Z</time></trkpt><trkpt lat="43.5375276" lon="10.813412"><ele>170.33333333333331</ele><time>2026-04-18T08:42:06.417Z</time></trkpt><trkpt lat="43.5375595" lon="10.8132935"><ele>172.0</ele><time>2026-04-18T08:42:07.417Z</time></trkpt><trkpt lat="43.5375719" lon="10.8131795"><ele>173.66666666666666</ele><time>2026-04-18T08:42:08.434Z</time></trkpt><trkpt lat="43.5375664" lon="10.8130685"><ele>175.33333333333334</ele><time>2026-04-18T08:42:09.416Z</time></trkpt><trkpt lat="43.5375338" lon="10.8129607"><ele>177.0</ele><time>2026-04-18T08:42:10.421Z</time></trkpt><trkpt lat="43.5374625" lon="10.8128594"><ele>177.0</ele><time>2026-04-18T08:42:11.424Z</time></trkpt><trkpt lat="43.5374007" lon="10.8127752"><ele>177.0</ele><time>2026-04-18T08:42:12.425Z</time></trkpt><trkpt lat="43.537337" lon="10.8127144"><ele>177.0</ele><time>2026-04-18T08:42:13.425Z</time></trkpt><trkpt lat="43.5372618" lon="10.8126566"><ele>177.0</ele><time>2026-04-18T08:42:14.422Z</time></trkpt><trkpt lat="43.5371754" lon="10.8125832"><ele>177.0</ele><time>2026-04-18T08:42:15.418Z</time></trkpt><trkpt lat="43.5370964" lon="10.8124758"><ele>176.5</ele><time>2026-04-18T08:42:16.428Z</time></trkpt><trkpt lat="43.5370088" lon="10.8123675"><ele>176.0</ele><time>2026-04-18T08:42:17.418Z</time></trkpt><trkpt lat="43.5369289" lon="10.8122488"><ele>175.5</ele><time>2026-04-18T08:42:18.423Z</time></trkpt><trkpt lat="43.5368474" lon="10.8121278"><ele>175.0</ele><time>2026-04-18T08:42:19.413Z</time></trkpt><trkpt lat="43.5367772" lon="10.812007"><ele>175.0</ele><time>2026-04-18T08:42:20.426Z</time></trkpt><trkpt lat="43.5367119" lon="10.8118861"><ele>175.0</ele><time>2026-04-18T08:42:21.42Z</time></trkpt><trkpt lat="43.5366451" lon="10.8117764"><ele>175.0</ele><time>2026-04-18T08:42:22.419Z</time></trkpt><trkpt lat="43.5365862" lon="10.8116516"><ele>175.0</ele><time>2026-04-18T08:42:23.443Z</time></trkpt><trkpt lat="43.5365358" lon="10.8115168"><ele>175.0</ele><time>2026-04-18T08:42:24.436Z</time></trkpt><trkpt lat="43.5364979" lon="10.81137"><ele>173.5</ele><time>2026-04-18T08:42:25.441Z</time></trkpt><trkpt lat="43.5364719" lon="10.8112199"><ele>172.0</ele><time>2026-04-18T08:42:26.434Z</time></trkpt><trkpt lat="43.536462" lon="10.811067"><ele>170.5</ele><time>2026-04-18T08:42:27.435Z</time></trkpt><trkpt lat="43.536459" lon="10.8109005"><ele>169.0</ele><time>2026-04-18T08:42:28.437Z</time></trkpt><trkpt lat="43.5364607" lon="10.8107258"><ele>168.6</ele><time>2026-04-18T08:42:29.428Z</time></trkpt><trkpt lat="43.536464" lon="10.8105556"><ele>168.2</ele><time>2026-04-18T08:42:30.425Z</time></trkpt><trkpt lat="43.5364568" lon="10.8104042"><ele>167.79999999999998</ele><time>2026-04-18T08:42:31.43Z</time></trkpt><trkpt lat="43.5364451" lon="10.8102628"><ele>167.39999999999998</ele><time>2026-04-18T08:42:32.43Z</time></trkpt><trkpt lat="43.5364108" lon="10.8101245"><ele>167.0</ele><time>2026-04-18T08:42:33.43Z</time></trkpt><trkpt lat="43.5363519" lon="10.8100015"><ele>166.6</ele><time>2026-04-18T08:42:34.419Z</time></trkpt><trkpt lat="43.5362834" lon="10.8098886"><ele>166.2</ele><time>2026-04-18T08:42:35.439Z</time></trkpt><trkpt lat="43.5362183" lon="10.8097752"><ele>165.8</ele><time>2026-04-18T08:42:36.421Z</time></trkpt><trkpt lat="43.5361523" lon="10.8096662"><ele>165.4</ele><time>2026-04-18T08:42:37.424Z</time></trkpt><trkpt lat="43.5361005" lon="10.8095435"><ele>165.0</ele><time>2026-04-18T08:42:38.431Z</time></trkpt><trkpt lat="43.5360598" lon="10.8094095"><ele>164.8</ele><time>2026-04-18T08:42:39.429Z</time></trkpt><trkpt lat="43.5360313" lon="10.809268"><ele>164.6</ele><time>2026-04-18T08:42:40.432Z</time></trkpt><trkpt lat="43.5360006" lon="10.8091299"><ele>164.39999999999998</ele><time>2026-04-18T08:42:41.435Z</time></trkpt><trkpt lat="43.535976" lon="10.8089991"><ele>164.2</ele><time>2026-04-18T08:42:42.422Z</time></trkpt><trkpt lat="43.5359699" lon="10.8088724"><ele>164.0</ele><time>2026-04-18T08:42:43.431Z</time></trkpt><trkpt lat="43.5359783" lon="10.8087459"><ele>164.0</ele><time>2026-04-18T08:42:44.429Z</time></trkpt><trkpt lat="43.5359991" lon="10.8086099"><ele>164.0</ele><time>2026-04-18T08:42:45.437Z</time></trkpt><trkpt lat="43.5360256" lon="10.8084712"><ele>164.0</ele><time>2026-04-18T08:42:46.44Z</time></trkpt><trkpt lat="43.5360567" lon="10.8083255"><ele>164.0</ele><time>2026-04-18T08:42:47.436Z</time></trkpt><trkpt lat="43.5360906" lon="10.8081724"><ele>164.0</ele><time>2026-04-18T08:42:48.423Z</time></trkpt><trkpt lat="43.5361193" lon="10.808015"><ele>163.75</ele><time>2026-04-18T08:42:49.435Z</time></trkpt><trkpt lat="43.5361266" lon="10.8078589"><ele>163.5</ele><time>2026-04-18T08:42:50.428Z</time></trkpt><trkpt lat="43.5361232" lon="10.8077042"><ele>163.25</ele><time>2026-04-18T08:42:51.44Z</time></trkpt><trkpt lat="43.5361232" lon="10.8075508"><ele>163.0</ele><time>2026-04-18T08:42:52.427Z</time></trkpt><trkpt lat="43.5361181" lon="10.8073911"><ele>163.0</ele><time>2026-04-18T08:42:53.435Z</time></trkpt><trkpt lat="43.5361165" lon="10.8072409"><ele>163.0</ele><time>2026-04-18T08:42:54.441Z</time></trkpt><trkpt lat="43.5361079" lon="10.8070971"><ele>163.0</ele><time>2026-04-18T08:42:55.428Z</time></trkpt><trkpt lat="43.5360993" lon="10.8069593"><ele>163.0</ele><time>2026-04-18T08:42:56.434Z</time></trkpt><trkpt lat="43.5360817" lon="10.8068229"><ele>163.0</ele><time>2026-04-18T08:42:57.426Z</time></trkpt><trkpt lat="43.5360567" lon="10.8067011"><ele>163.16666666666669</ele><time>2026-04-18T08:42:58.421Z</time></trkpt><trkpt lat="43.5360276" lon="10.8065714"><ele>163.33333333333334</ele><time>2026-04-18T08:42:59.435Z</time></trkpt><trkpt lat="43.5360082" lon="10.8064553"><ele>163.5</ele><time>2026-04-18T08:43:00.43Z</time></trkpt><trkpt lat="43.5359964" lon="10.8063386"><ele>163.66666666666666</ele><time>2026-04-18T08:43:01.423Z</time></trkpt><trkpt lat="43.536001" lon="10.8062178"><ele>163.83333333333331</ele><time>2026-04-18T08:43:02.441Z</time></trkpt><trkpt lat="43.5360106" lon="10.8060985"><ele>164.0</ele><time>2026-04-18T08:43:03.432Z</time></trkpt><trkpt lat="43.5360253" lon="10.8059783"><ele>164.0</ele><time>2026-04-18T08:43:04.437Z</time></trkpt><trkpt lat="43.5360455" lon="10.8058476"><ele>164.0</ele><time>2026-04-18T08:43:05.418Z</time></trkpt><trkpt lat="43.536079" lon="10.8056976"><ele>164.0</ele><time>2026-04-18T08:43:06.428Z</time></trkpt><trkpt lat="43.5361079" lon="10.805562"><ele>164.0</ele><time>2026-04-18T08:43:07.431Z</time></trkpt><trkpt lat="43.5361486" lon="10.8054222"><ele>164.0</ele><time>2026-04-18T08:43:08.427Z</time></trkpt><trkpt lat="43.5362071" lon="10.8052832"><ele>164.0</ele><time>2026-04-18T08:43:09.429Z</time></trkpt><trkpt lat="43.536265" lon="10.805146"><ele>164.0</ele><time>2026-04-18T08:43:10.426Z</time></trkpt><trkpt lat="43.5363221" lon="10.8050053"><ele>164.0</ele><time>2026-04-18T08:43:11.423Z</time></trkpt><trkpt lat="43.5363811" lon="10.8048633"><ele>164.0</ele><time>2026-04-18T08:43:12.424Z</time></trkpt><trkpt lat="43.5364368" lon="10.8047152"><ele>164.0</ele><time>2026-04-18T08:43:13.415Z</time></trkpt><trkpt lat="43.536489" lon="10.8045793"><ele>164.0</ele><time>2026-04-18T08:43:14.418Z</time></trkpt><trkpt lat="43.5365332" lon="10.8044299"><ele>164.0</ele><time>2026-04-18T08:43:15.422Z</time></trkpt><trkpt lat="43.5365707" lon="10.8042814"><ele>164.0</ele><time>2026-04-18T08:43:16.435Z</time></trkpt><trkpt lat="43.5366049" lon="10.8041212"><ele>162.5</ele><time>2026-04-18T08:43:17.438Z</time></trkpt><trkpt lat="43.5366356" lon="10.8039555"><ele>161.0</ele><time>2026-04-18T08:43:18.428Z</time></trkpt><trkpt lat="43.5366618" lon="10.8037878"><ele>159.5</ele><time>2026-04-18T08:43:19.422Z</time></trkpt><trkpt lat="43.5366831" lon="10.8036202"><ele>158.0</ele><time>2026-04-18T08:43:20.428Z</time></trkpt><trkpt lat="43.5367027" lon="10.8034513"><ele>157.5</ele><time>2026-04-18T08:43:21.432Z</time></trkpt><trkpt lat="43.5367121" lon="10.8032737"><ele>157.0</ele><time>2026-04-18T08:43:22.427Z</time></trkpt><trkpt lat="43.5367228" lon="10.8030991"><ele>156.5</ele><time>2026-04-18T08:43:23.419Z</time></trkpt><trkpt lat="43.5367262" lon="10.8029303"><ele>156.0</ele><time>2026-04-18T08:43:24.428Z</time></trkpt><trkpt lat="43.5367295" lon="10.8027637"><ele>157.0</ele><time>2026-04-18T08:43:25.422Z</time></trkpt><trkpt lat="43.536733" lon="10.8026038"><ele>158.0</ele><time>2026-04-18T08:43:26.444Z</time></trkpt><trkpt lat="43.5367382" lon="10.8024434"><ele>159.0</ele><time>2026-04-18T08:43:27.427Z</time></trkpt><trkpt lat="43.5367554" lon="10.8022825"><ele>160.0</ele><time>2026-04-18T08:43:28.425Z</time></trkpt><trkpt lat="43.5367798" lon="10.802131"><ele>160.0</ele><time>2026-04-18T08:43:29.424Z</time></trkpt><trkpt lat="43.5368156" lon="10.8019856"><ele>160.0</ele><time>2026-04-18T08:43:30.438Z</time></trkpt><trkpt lat="43.5368553" lon="10.8018471"><ele>160.0</ele><time>2026-04-18T08:43:31.438Z</time></trkpt><trkpt lat="43.5369055" lon="10.8017224"><ele>160.0</ele><time>2026-04-18T08:43:32.435Z</time></trkpt><trkpt lat="43.5369638" lon="10.8016024"><ele>160.0</ele><time>2026-04-18T08:43:33.43Z</time></trkpt><trkpt lat="43.5370295" lon="10.8014905"><ele>160.8</ele><time>2026-04-18T08:43:34.423Z</time></trkpt><trkpt lat="43.5370984" lon="10.8013927"><ele>161.6</ele><time>2026-04-18T08:43:35.443Z</time></trkpt><trkpt lat="43.5371731" lon="10.8013072"><ele>162.39999999999998</ele><time>2026-04-18T08:43:36.427Z</time></trkpt><trkpt lat="43.537253" lon="10.8012307"><ele>163.2</ele><time>2026-04-18T08:43:37.426Z</time></trkpt><trkpt lat="43.5373278" lon="10.8011626"><ele>164.0</ele><time>2026-04-18T08:43:38.412Z</time></trkpt><trkpt lat="43.537406" lon="10.8010986"><ele>164.0</ele><time>2026-04-18T08:43:39.43Z</time></trkpt><trkpt lat="43.5374825" lon="10.8010326"><ele>164.0</ele><time>2026-04-18T08:43:40.428Z</time></trkpt><trkpt lat="43.5375542" lon="10.8009665"><ele>164.0</ele><time>2026-04-18T08:43:41.436Z</time></trkpt><trkpt lat="43.5376218" lon="10.8008979"><ele>164.0</ele><time>2026-04-18T08:43:42.43Z</time></trkpt><trkpt lat="43.5376931" lon="10.8008275"><ele>164.0</ele><time>2026-04-18T08:43:43.425Z</time></trkpt><trkpt lat="43.5377572" lon="10.8007471"><ele>164.0</ele><time>2026-04-18T08:43:44.437Z</time></trkpt><trkpt lat="43.5378249" lon="10.8006584"><ele>164.39999999999998</ele><time>2026-04-18T08:43:45.429Z</time></trkpt><trkpt lat="43.5378955" lon="10.8005652"><ele>164.8</ele><time>2026-04-18T08:43:46.415Z</time></trkpt><trkpt lat="43.5379644" lon="10.8004751"><ele>165.2</ele><time>2026-04-18T08:43:47.437Z</time></trkpt><trkpt lat="43.5380279" lon="10.8003665"><ele>165.60000000000002</ele><time>2026-04-18T08:43:48.425Z</time></trkpt><trkpt lat="43.5380847" lon="10.80025"><ele>166.0</ele><time>2026-04-18T08:43:49.434Z</time></trkpt><trkpt lat="43.538135" lon="10.8001235"><ele>166.0</ele><time>2026-04-18T08:43:50.424Z</time></trkpt><trkpt lat="43.5381876" lon="10.7999884"><ele>166.0</ele><time>2026-04-18T08:43:51.436Z</time></trkpt><trkpt lat="43.5382473" lon="10.7998446"><ele>166.0</ele><time>2026-04-18T08:43:52.422Z</time></trkpt><trkpt lat="43.5383069" lon="10.7996977"><ele>166.0</ele><time>2026-04-18T08:43:53.436Z</time></trkpt><trkpt lat="43.5383709" lon="10.7995419"><ele>166.0</ele><time>2026-04-18T08:43:54.433Z</time></trkpt><trkpt lat="43.5384315" lon="10.7993873"><ele>166.0</ele><time>2026-04-18T08:43:55.43Z</time></trkpt><trkpt lat="43.5384814" lon="10.7992389"><ele>166.0</ele><time>2026-04-18T08:43:56.426Z</time></trkpt><trkpt lat="43.5385152" lon="10.799104"><ele>166.0</ele><time>2026-04-18T08:43:57.43Z</time></trkpt><trkpt lat="43.5385386" lon="10.7989547"><ele>165.20000000000002</ele><time>2026-04-18T08:43:58.438Z</time></trkpt><trkpt lat="43.53855" lon="10.7987984"><ele>164.4</ele><time>2026-04-18T08:43:59.43Z</time></trkpt><trkpt lat="43.5385498" lon="10.7986513"><ele>163.6</ele><time>2026-04-18T08:44:00.432Z</time></trkpt><trkpt lat="43.5385354" lon="10.7984975"><ele>162.8</ele><time>2026-04-18T08:44:01.431Z</time></trkpt><trkpt lat="43.5385193" lon="10.798359"><ele>162.0</ele><time>2026-04-18T08:44:02.426Z</time></trkpt><trkpt lat="43.5384952" lon="10.7982184"><ele>161.6</ele><time>2026-04-18T08:44:03.426Z</time></trkpt><trkpt lat="43.5384705" lon="10.7980765"><ele>161.2</ele><time>2026-04-18T08:44:04.433Z</time></trkpt><trkpt lat="43.5384536" lon="10.7979257"><ele>160.8</ele><time>2026-04-18T08:44:05.43Z</time></trkpt><trkpt lat="43.5384316" lon="10.7977718"><ele>160.4</ele><time>2026-04-18T08:44:06.433Z</time></trkpt><trkpt lat="43.5384105" lon="10.7976216"><ele>160.0</ele><time>2026-04-18T08:44:07.431Z</time></trkpt><trkpt lat="43.5383916" lon="10.7974663"><ele>160.0</ele><time>2026-04-18T08:44:08.429Z</time></trkpt><trkpt lat="43.5383701" lon="10.7973134"><ele>160.0</ele><time>2026-04-18T08:44:09.421Z</time></trkpt><trkpt lat="43.5383497" lon="10.7971656"><ele>160.0</ele><time>2026-04-18T08:44:10.414Z</time></trkpt><trkpt lat="43.5383214" lon="10.7970249"><ele>160.0</ele><time>2026-04-18T08:44:11.423Z</time></trkpt><trkpt lat="43.5382851" lon="10.7968837"><ele>160.0</ele><time>2026-04-18T08:44:12.423Z</time></trkpt><trkpt lat="43.5382421" lon="10.7967508"><ele>161.6</ele><time>2026-04-18T08:44:13.422Z</time></trkpt><trkpt lat="43.5382022" lon="10.7966282"><ele>163.2</ele><time>2026-04-18T08:44:14.429Z</time></trkpt><trkpt lat="43.53817" lon="10.7965084"><ele>164.8</ele><time>2026-04-18T08:44:15.428Z</time></trkpt><trkpt lat="43.5381439" lon="10.79639"><ele>166.4</ele><time>2026-04-18T08:44:16.424Z</time></trkpt><trkpt lat="43.5381301" lon="10.7962719"><ele>168.0</ele><time>2026-04-18T08:44:17.423Z</time></trkpt><trkpt lat="43.5381344" lon="10.7961494"><ele>168.0</ele><time>2026-04-18T08:44:18.419Z</time></trkpt><trkpt lat="43.5381541" lon="10.7960422"><ele>168.0</ele><time>2026-04-18T08:44:19.432Z</time></trkpt><trkpt lat="43.5381866" lon="10.7959422"><ele>168.0</ele><time>2026-04-18T08:44:20.43Z</time></trkpt><trkpt lat="43.5382185" lon="10.795851"><ele>168.0</ele><time>2026-04-18T08:44:21.42Z</time></trkpt><trkpt lat="43.5382552" lon="10.7957643"><ele>168.0</ele><time>2026-04-18T08:44:22.428Z</time></trkpt><trkpt lat="43.5382905" lon="10.7956896"><ele>168.0</ele><time>2026-04-18T08:44:23.433Z</time></trkpt><trkpt lat="43.5383345" lon="10.7956123"><ele>168.0</ele><time>2026-04-18T08:44:24.428Z</time></trkpt><trkpt lat="43.53838" lon="10.79555"><ele>167.83333333333334</ele><time>2026-04-18T08:44:25.421Z</time></trkpt><trkpt lat="43.5384379" lon="10.7954957"><ele>167.66666666666666</ele><time>2026-04-18T08:44:26.42Z</time></trkpt><trkpt lat="43.5385431" lon="10.7954302"><ele>167.5</ele><time>2026-04-18T08:44:28.433Z</time></trkpt><trkpt lat="43.538603" lon="10.7953931"><ele>167.33333333333331</ele><time>2026-04-18T08:44:29.425Z</time></trkpt><trkpt lat="43.5386679" lon="10.7953603"><ele>167.16666666666666</ele><time>2026-04-18T08:44:30.423Z</time></trkpt><trkpt lat="43.5387315" lon="10.7953228"><ele>167.0</ele><time>2026-04-18T08:44:31.422Z</time></trkpt><trkpt lat="43.5387883" lon="10.7952771"><ele>169.0</ele><time>2026-04-18T08:44:32.43Z</time></trkpt><trkpt lat="43.5388663" lon="10.7951542"><ele>171.0</ele><time>2026-04-18T08:44:34.428Z</time></trkpt><trkpt lat="43.5388956" lon="10.7950706"><ele>173.0</ele><time>2026-04-18T08:44:35.415Z</time></trkpt><trkpt lat="43.5389198" lon="10.7949895"><ele>175.0</ele><time>2026-04-18T08:44:36.423Z</time></trkpt><trkpt lat="43.5389394" lon="10.7948986"><ele>177.0</ele><time>2026-04-18T08:44:37.41Z</time></trkpt><trkpt lat="43.5389534" lon="10.7948034"><ele>179.0</ele><time>2026-04-18T08:44:38.418Z</time></trkpt><trkpt lat="43.5389665" lon="10.7947095"><ele>179.0</ele><time>2026-04-18T08:44:39.417Z</time></trkpt><trkpt lat="43.5389796" lon="10.7946058"><ele>179.0</ele><time>2026-04-18T08:44:40.428Z</time></trkpt><trkpt lat="43.5389969" lon="10.7945073"><ele>179.0</ele><time>2026-04-18T08:44:41.422Z</time></trkpt><trkpt lat="43.5390071" lon="10.7944018"><ele>179.0</ele><time>2026-04-18T08:44:42.423Z</time></trkpt><trkpt lat="43.5390282" lon="10.7942981"><ele>179.0</ele><time>2026-04-18T08:44:43.423Z</time></trkpt><trkpt lat="43.5390557" lon="10.7942021"><ele>179.0</ele><time>2026-04-18T08:44:44.419Z</time></trkpt><trkpt lat="43.5390888" lon="10.7941175"><ele>179.2</ele><time>2026-04-18T08:44:45.422Z</time></trkpt><trkpt lat="43.5391321" lon="10.7940406"><ele>179.39999999999998</ele><time>2026-04-18T08:44:46.414Z</time></trkpt><trkpt lat="43.5392181" lon="10.7939293"><ele>179.6</ele><time>2026-04-18T08:44:48.423Z</time></trkpt><trkpt lat="43.5393073" lon="10.7938571"><ele>179.8</ele><time>2026-04-18T08:44:50.432Z</time></trkpt><trkpt lat="43.5393882" lon="10.7937681"><ele>180.0</ele><time>2026-04-18T08:44:52.424Z</time></trkpt><trkpt lat="43.5394472" lon="10.7937036"><ele>180.0</ele><time>2026-04-18T08:44:54.43Z</time></trkpt><trkpt lat="43.5395035" lon="10.7936295"><ele>180.0</ele><time>2026-04-18T08:44:56.426Z</time></trkpt><trkpt lat="43.5395532" lon="10.793538"><ele>180.0</ele><time>2026-04-18T08:44:58.417Z</time></trkpt><trkpt lat="43.5395998" lon="10.7934435"><ele>180.0</ele><time>2026-04-18T08:45:00.417Z</time></trkpt><trkpt lat="43.539623" lon="10.7933235"><ele>180.0</ele><time>2026-04-18T08:45:02.418Z</time></trkpt><trkpt lat="43.53963" lon="10.7932159"><ele>180.0</ele><time>2026-04-18T08:45:04.42Z</time></trkpt><trkpt lat="43.5396291" lon="10.7931135"><ele>180.16666666666666</ele><time>2026-04-18T08:45:06.417Z</time></trkpt><trkpt lat="43.539625" lon="10.7930093"><ele>180.33333333333334</ele><time>2026-04-18T08:45:09.433Z</time></trkpt><trkpt lat="43.5396017" lon="10.7929087"><ele>180.5</ele><time>2026-04-18T08:45:13.433Z</time></trkpt><trkpt lat="43.53958" lon="10.792826"><ele>180.66666666666669</ele><time>2026-04-18T08:45:16.421Z</time></trkpt><trkpt lat="43.5395476" lon="10.7927008"><ele>180.83333333333334</ele><time>2026-04-18T08:45:19.419Z</time></trkpt><trkpt lat="43.539491" lon="10.7925872"><ele>181.0</ele><time>2026-04-18T08:45:21.428Z</time></trkpt><trkpt lat="43.5394229" lon="10.7924546"><ele>181.0</ele><time>2026-04-18T08:45:23.442Z</time></trkpt><trkpt lat="43.539359" lon="10.792312"><ele>181.0</ele><time>2026-04-18T08:45:25.43Z</time></trkpt><trkpt lat="43.539325" lon="10.7922255"><ele>181.0</ele><time>2026-04-18T08:45:26.425Z</time></trkpt><trkpt lat="43.539294" lon="10.7921468"><ele>181.0</ele><time>2026-04-18T08:45:27.425Z</time></trkpt><trkpt lat="43.5392338" lon="10.7920047"><ele>181.0</ele><time>2026-04-18T08:45:29.425Z</time></trkpt><trkpt lat="43.5391761" lon="10.7918664"><ele>182.4</ele><time>2026-04-18T08:45:31.418Z</time></trkpt><trkpt lat="43.5391136" lon="10.7917469"><ele>183.8</ele><time>2026-04-18T08:45:33.415Z</time></trkpt><trkpt lat="43.5390525" lon="10.7916305"><ele>185.20000000000002</ele><time>2026-04-18T08:45:35.421Z</time></trkpt><trkpt lat="43.5390034" lon="10.7915586"><ele>186.60000000000002</ele><time>2026-04-18T08:45:36.427Z</time></trkpt><trkpt lat="43.5389486" lon="10.7914738"><ele>188.0</ele><time>2026-04-18T08:45:37.418Z</time></trkpt><trkpt lat="43.53889" lon="10.7913838"><ele>188.0</ele><time>2026-04-18T08:45:38.422Z</time></trkpt><trkpt lat="43.5388254" lon="10.7912903"><ele>188.0</ele><time>2026-04-18T08:45:39.42Z</time></trkpt><trkpt lat="43.5387551" lon="10.7911891"><ele>188.0</ele><time>2026-04-18T08:45:40.43Z</time></trkpt><trkpt lat="43.5386947" lon="10.7910955"><ele>188.0</ele><time>2026-04-18T08:45:41.434Z</time></trkpt><trkpt lat="43.5386471" lon="10.791018"><ele>188.0</ele><time>2026-04-18T08:45:42.425Z</time></trkpt><trkpt lat="43.5385936" lon="10.7909271"><ele>188.0</ele><time>2026-04-18T08:45:44.422Z</time></trkpt><trkpt lat="43.5385494" lon="10.7908479"><ele>186.2</ele><time>2026-04-18T08:45:48.434Z</time></trkpt><trkpt lat="43.5384701" lon="10.7908089"><ele>184.4</ele><time>2026-04-18T08:45:50.419Z</time></trkpt><trkpt lat="43.5383793" lon="10.7907652"><ele>182.6</ele><time>2026-04-18T08:45:52.424Z</time></trkpt><trkpt lat="43.5382756" lon="10.7906875"><ele>180.79999999999998</ele><time>2026-04-18T08:45:54.428Z</time></trkpt><trkpt lat="43.5382041" lon="10.7906532"><ele>179.0</ele><time>2026-04-18T08:45:55.425Z</time></trkpt><trkpt lat="43.5381266" lon="10.7906238"><ele>179.0</ele><time>2026-04-18T08:45:56.433Z</time></trkpt><trkpt lat="43.5380455" lon="10.790604"><ele>179.0</ele><time>2026-04-18T08:45:57.413Z</time></trkpt><trkpt lat="43.5379576" lon="10.7905878"><ele>179.0</ele><time>2026-04-18T08:45:58.423Z</time></trkpt><trkpt lat="43.5378724" lon="10.7905746"><ele>179.0</ele><time>2026-04-18T08:45:59.435Z</time></trkpt><trkpt lat="43.5377882" lon="10.7905801"><ele>179.0</ele><time>2026-04-18T08:46:00.434Z</time></trkpt><trkpt lat="43.5377137" lon="10.7905898"><ele>179.0</ele><time>2026-04-18T08:46:01.417Z</time></trkpt><trkpt lat="43.5376423" lon="10.7906004"><ele>178.66666666666666</ele><time>2026-04-18T08:46:02.423Z</time></trkpt><trkpt lat="43.5375677" lon="10.7906206"><ele>178.33333333333331</ele><time>2026-04-18T08:46:03.424Z</time></trkpt><trkpt lat="43.5374939" lon="10.7906482"><ele>178.0</ele><time>2026-04-18T08:46:04.422Z</time></trkpt><trkpt lat="43.5374211" lon="10.790679"><ele>177.66666666666666</ele><time>2026-04-18T08:46:05.422Z</time></trkpt><trkpt lat="43.5373533" lon="10.7907017"><ele>177.33333333333334</ele><time>2026-04-18T08:46:06.428Z</time></trkpt><trkpt lat="43.5372793" lon="10.7907323"><ele>177.0</ele><time>2026-04-18T08:46:07.42Z</time></trkpt><trkpt lat="43.5372029" lon="10.7907616"><ele>177.0</ele><time>2026-04-18T08:46:08.43Z</time></trkpt><trkpt lat="43.5371317" lon="10.790784"><ele>177.0</ele><time>2026-04-18T08:46:09.425Z</time></trkpt><trkpt lat="43.5370504" lon="10.7907985"><ele>177.0</ele><time>2026-04-18T08:46:10.418Z</time></trkpt><trkpt lat="43.5369648" lon="10.7908025"><ele>177.0</ele><time>2026-04-18T08:46:11.427Z</time></trkpt><trkpt lat="43.5368844" lon="10.7907974"><ele>177.0</ele><time>2026-04-18T08:46:12.438Z</time></trkpt><trkpt lat="43.5368059" lon="10.7907848"><ele>177.0</ele><time>2026-04-18T08:46:13.41Z</time></trkpt><trkpt lat="43.5367294" lon="10.790779"><ele>177.16666666666666</ele><time>2026-04-18T08:46:14.437Z</time></trkpt><trkpt lat="43.536656" lon="10.7907782"><ele>177.33333333333334</ele><time>2026-04-18T08:46:15.433Z</time></trkpt><trkpt lat="43.5365876" lon="10.7907837"><ele>177.5</ele><time>2026-04-18T08:46:16.423Z</time></trkpt><trkpt lat="43.5365175" lon="10.7907942"><ele>177.66666666666669</ele><time>2026-04-18T08:46:17.437Z</time></trkpt><trkpt lat="43.5363954" lon="10.790817"><ele>177.83333333333334</ele><time>2026-04-18T08:46:19.446Z</time></trkpt><trkpt lat="43.5363329" lon="10.7908308"><ele>178.0</ele><time>2026-04-18T08:46:20.427Z</time></trkpt><trkpt lat="43.5362168" lon="10.7908478"><ele>178.0</ele><time>2026-04-18T08:46:22.428Z</time></trkpt><trkpt lat="43.536114" lon="10.7908445"><ele>178.0</ele><time>2026-04-18T08:46:24.437Z</time></trkpt><trkpt lat="43.5360134" lon="10.7908029"><ele>178.0</ele><time>2026-04-18T08:46:26.416Z</time></trkpt><trkpt lat="43.5359084" lon="10.7907428"><ele>178.0</ele><time>2026-04-18T08:46:28.425Z</time></trkpt><trkpt lat="43.5358512" lon="10.7906962"><ele>178.0</ele><time>2026-04-18T08:46:29.42Z</time></trkpt><trkpt lat="43.5357945" lon="10.7906409"><ele>178.0</ele><time>2026-04-18T08:46:30.424Z</time></trkpt><trkpt lat="43.5357237" lon="10.790586"><ele>178.0</ele><time>2026-04-18T08:46:31.425Z</time></trkpt><trkpt lat="43.5356472" lon="10.7905101"><ele>178.0</ele><time>2026-04-18T08:46:32.416Z</time></trkpt><trkpt lat="43.5355603" lon="10.7904278"><ele>178.0</ele><time>2026-04-18T08:46:33.439Z</time></trkpt><trkpt lat="43.5354653" lon="10.7903493"><ele>178.0</ele><time>2026-04-18T08:46:34.433Z</time></trkpt><trkpt lat="43.5353672" lon="10.7902721"><ele>176.60000000000002</ele><time>2026-04-18T08:46:35.426Z</time></trkpt><trkpt lat="43.5352654" lon="10.7902041"><ele>175.20000000000002</ele><time>2026-04-18T08:46:36.424Z</time></trkpt><trkpt lat="43.535171" lon="10.7901286"><ele>173.8</ele><time>2026-04-18T08:46:37.447Z</time></trkpt><trkpt lat="43.535087" lon="10.790067"><ele>172.4</ele><time>2026-04-18T08:46:38.433Z</time></trkpt><trkpt lat="43.535015" lon="10.7900111"><ele>171.0</ele><time>2026-04-18T08:46:39.417Z</time></trkpt><trkpt lat="43.5349447" lon="10.7899533"><ele>171.0</ele><time>2026-04-18T08:46:40.422Z</time></trkpt><trkpt lat="43.5348688" lon="10.7898914"><ele>171.0</ele><time>2026-04-18T08:46:41.437Z</time></trkpt><trkpt lat="43.5347921" lon="10.7898246"><ele>171.0</ele><time>2026-04-18T08:46:42.429Z</time></trkpt><trkpt lat="43.5347109" lon="10.7897606"><ele>171.0</ele><time>2026-04-18T08:46:43.425Z</time></trkpt><trkpt lat="43.5346167" lon="10.789691"><ele>171.0</ele><time>2026-04-18T08:46:44.431Z</time></trkpt><trkpt lat="43.5345389" lon="10.7896374"><ele>169.8</ele><time>2026-04-18T08:46:45.424Z</time></trkpt><trkpt lat="43.5344621" lon="10.7895955"><ele>168.60000000000002</ele><time>2026-04-18T08:46:46.422Z</time></trkpt><trkpt lat="43.5343837" lon="10.7895436"><ele>167.4</ele><time>2026-04-18T08:46:47.434Z</time></trkpt><trkpt lat="43.5342995" lon="10.7894997"><ele>166.2</ele><time>2026-04-18T08:46:48.432Z</time></trkpt><trkpt lat="43.5342078" lon="10.7894567"><ele>165.0</ele><time>2026-04-18T08:46:49.435Z</time></trkpt><trkpt lat="43.534119" lon="10.7893988"><ele>165.0</ele><time>2026-04-18T08:46:50.434Z</time></trkpt><trkpt lat="43.5340267" lon="10.7893427"><ele>165.0</ele><time>2026-04-18T08:46:51.434Z</time></trkpt><trkpt lat="43.5339315" lon="10.7892845"><ele>165.0</ele><time>2026-04-18T08:46:52.427Z</time></trkpt><trkpt lat="43.5338349" lon="10.7892247"><ele>165.0</ele><time>2026-04-18T08:46:53.42Z</time></trkpt><trkpt lat="43.5337347" lon="10.7891652"><ele>165.0</ele><time>2026-04-18T08:46:54.423Z</time></trkpt><trkpt lat="43.5336364" lon="10.7891055"><ele>164.25</ele><time>2026-04-18T08:46:55.425Z</time></trkpt><trkpt lat="43.5335351" lon="10.7890474"><ele>163.5</ele><time>2026-04-18T08:46:56.424Z</time></trkpt><trkpt lat="43.5334275" lon="10.7889847"><ele>162.75</ele><time>2026-04-18T08:46:57.43Z</time></trkpt><trkpt lat="43.5333191" lon="10.7889165"><ele>162.0</ele><time>2026-04-18T08:46:58.431Z</time></trkpt><trkpt lat="43.5332043" lon="10.7888584"><ele>162.0</ele><time>2026-04-18T08:46:59.421Z</time></trkpt><trkpt lat="43.5330967" lon="10.7888007"><ele>162.0</ele><time>2026-04-18T08:47:00.419Z</time></trkpt><trkpt lat="43.5329882" lon="10.7887351"><ele>162.0</ele><time>2026-04-18T08:47:01.435Z</time></trkpt><trkpt lat="43.5328848" lon="10.788672"><ele>162.0</ele><time>2026-04-18T08:47:02.429Z</time></trkpt><trkpt lat="43.5327802" lon="10.7886114"><ele>160.75</ele><time>2026-04-18T08:47:03.432Z</time></trkpt><trkpt lat="43.5326687" lon="10.7885461"><ele>159.5</ele><time>2026-04-18T08:47:04.434Z</time></trkpt><trkpt lat="43.5325563" lon="10.7884856"><ele>158.25</ele><time>2026-04-18T08:47:05.429Z</time></trkpt><trkpt lat="43.5324423" lon="10.7884233"><ele>157.0</ele><time>2026-04-18T08:47:06.422Z</time></trkpt><trkpt lat="43.5323226" lon="10.7883625"><ele>157.0</ele><time>2026-04-18T08:47:07.429Z</time></trkpt><trkpt lat="43.5322009" lon="10.7883063"><ele>157.0</ele><time>2026-04-18T08:47:08.421Z</time></trkpt><trkpt lat="43.5320864" lon="10.7882425"><ele>157.0</ele><time>2026-04-18T08:47:09.425Z</time></trkpt><trkpt lat="43.5319831" lon="10.7881764"><ele>157.0</ele><time>2026-04-18T08:47:10.436Z</time></trkpt><trkpt lat="43.5319018" lon="10.7881063"><ele>156.33333333333334</ele><time>2026-04-18T08:47:11.422Z</time></trkpt><trkpt lat="43.5318356" lon="10.7880206"><ele>155.66666666666669</ele><time>2026-04-18T08:47:12.435Z</time></trkpt><trkpt lat="43.5317762" lon="10.7879179"><ele>155.0</ele><time>2026-04-18T08:47:13.419Z</time></trkpt><trkpt lat="43.531721" lon="10.7878134"><ele>154.33333333333334</ele><time>2026-04-18T08:47:14.422Z</time></trkpt><trkpt lat="43.531664" lon="10.7877224"><ele>153.66666666666666</ele><time>2026-04-18T08:47:15.429Z</time></trkpt><trkpt lat="43.531611" lon="10.7876358"><ele>153.0</ele><time>2026-04-18T08:47:16.416Z</time></trkpt><trkpt lat="43.5315582" lon="10.7875438"><ele>153.0</ele><time>2026-04-18T08:47:17.437Z</time></trkpt><trkpt lat="43.5315052" lon="10.7874463"><ele>153.0</ele><time>2026-04-18T08:47:18.42Z</time></trkpt><trkpt lat="43.5314554" lon="10.7873534"><ele>153.0</ele><time>2026-04-18T08:47:19.423Z</time></trkpt><trkpt lat="43.5313987" lon="10.7872626"><ele>153.0</ele><time>2026-04-18T08:47:20.436Z</time></trkpt><trkpt lat="43.5313472" lon="10.7871723"><ele>153.0</ele><time>2026-04-18T08:47:21.434Z</time></trkpt><trkpt lat="43.5312925" lon="10.7870805"><ele>153.0</ele><time>2026-04-18T08:47:22.432Z</time></trkpt><trkpt lat="43.5312312" lon="10.7869848"><ele>151.0</ele><time>2026-04-18T08:47:23.417Z</time></trkpt><trkpt lat="43.5311767" lon="10.7868895"><ele>149.0</ele><time>2026-04-18T08:47:24.44Z</time></trkpt><trkpt lat="43.5311227" lon="10.7868036"><ele>147.0</ele><time>2026-04-18T08:47:25.424Z</time></trkpt><trkpt lat="43.531067" lon="10.7867233"><ele>145.0</ele><time>2026-04-18T08:47:26.437Z</time></trkpt><trkpt lat="43.53101" lon="10.7866403"><ele>143.0</ele><time>2026-04-18T08:47:27.423Z</time></trkpt><trkpt lat="43.5309441" lon="10.786555"><ele>141.0</ele><time>2026-04-18T08:47:28.433Z</time></trkpt><trkpt lat="43.5308796" lon="10.7864659"><ele>141.0</ele><time>2026-04-18T08:47:29.437Z</time></trkpt><trkpt lat="43.5308152" lon="10.7863811"><ele>141.0</ele><time>2026-04-18T08:47:30.436Z</time></trkpt><trkpt lat="43.5307598" lon="10.7863031"><ele>141.0</ele><time>2026-04-18T08:47:31.425Z</time></trkpt><trkpt lat="43.5307182" lon="10.7862376"><ele>141.0</ele><time>2026-04-18T08:47:32.439Z</time></trkpt><trkpt lat="43.5306636" lon="10.7861226"><ele>141.0</ele><time>2026-04-18T08:47:34.43Z</time></trkpt><trkpt lat="43.5306538" lon="10.7859783"><ele>141.0</ele><time>2026-04-18T08:47:36.435Z</time></trkpt><trkpt lat="43.5306771" lon="10.7858958"><ele>141.5</ele><time>2026-04-18T08:47:37.428Z</time></trkpt><trkpt lat="43.5307062" lon="10.7858085"><ele>142.0</ele><time>2026-04-18T08:47:38.423Z</time></trkpt><trkpt lat="43.5307487" lon="10.7857081"><ele>142.5</ele><time>2026-04-18T08:47:39.428Z</time></trkpt><trkpt lat="43.5307912" lon="10.7856048"><ele>143.0</ele><time>2026-04-18T08:47:40.441Z</time></trkpt><trkpt lat="43.5308283" lon="10.7855049"><ele>143.5</ele><time>2026-04-18T08:47:41.429Z</time></trkpt><trkpt lat="43.5308582" lon="10.7854114"><ele>144.0</ele><time>2026-04-18T08:47:42.433Z</time></trkpt><trkpt lat="43.530883" lon="10.785323"><ele>144.00000000000003</ele><time>2026-04-18T08:47:43.439Z</time></trkpt><trkpt lat="43.530898" lon="10.7852348"><ele>144.0</ele><time>2026-04-18T08:47:44.427Z</time></trkpt><trkpt lat="43.5309007" lon="10.7851415"><ele>144.0</ele><time>2026-04-18T08:47:45.424Z</time></trkpt><trkpt lat="43.5308906" lon="10.7850482"><ele>144.0</ele><time>2026-04-18T08:47:46.424Z</time></trkpt><trkpt lat="43.5308789" lon="10.7849495"><ele>144.0</ele><time>2026-04-18T08:47:47.428Z</time></trkpt><trkpt lat="43.5308544" lon="10.7848544"><ele>144.00000000000003</ele><time>2026-04-18T08:47:48.426Z</time></trkpt><trkpt lat="43.5308284" lon="10.7847597"><ele>144.0</ele><time>2026-04-18T08:47:49.424Z</time></trkpt><trkpt lat="43.5308012" lon="10.7846636"><ele>143.16666666666666</ele><time>2026-04-18T08:47:50.425Z</time></trkpt><trkpt lat="43.5307738" lon="10.7845665"><ele>142.33333333333334</ele><time>2026-04-18T08:47:51.43Z</time></trkpt><trkpt lat="43.5307407" lon="10.7844743"><ele>141.5</ele><time>2026-04-18T08:47:52.436Z</time></trkpt><trkpt lat="43.5307074" lon="10.7843865"><ele>140.66666666666669</ele><time>2026-04-18T08:47:53.435Z</time></trkpt><trkpt lat="43.530659" lon="10.7842444"><ele>139.83333333333334</ele><time>2026-04-18T08:47:55.421Z</time></trkpt><trkpt lat="43.5305826" lon="10.7841508"><ele>139.0</ele><time>2026-04-18T08:47:57.434Z</time></trkpt><trkpt lat="43.5305048" lon="10.7841342"><ele>138.33333333333334</ele><time>2026-04-18T08:47:59.424Z</time></trkpt><trkpt lat="43.5304085" lon="10.7842053"><ele>137.66666666666669</ele><time>2026-04-18T08:48:01.419Z</time></trkpt><trkpt lat="43.5303541" lon="10.7842663"><ele>137.0</ele><time>2026-04-18T08:48:02.428Z</time></trkpt><trkpt lat="43.530298" lon="10.7843312"><ele>136.33333333333334</ele><time>2026-04-18T08:48:03.429Z</time></trkpt><trkpt lat="43.5302401" lon="10.7843973"><ele>135.66666666666666</ele><time>2026-04-18T08:48:04.424Z</time></trkpt><trkpt lat="43.5301798" lon="10.7844738"><ele>135.0</ele><time>2026-04-18T08:48:05.431Z</time></trkpt><trkpt lat="43.5301248" lon="10.7845507"><ele>135.0</ele><time>2026-04-18T08:48:06.435Z</time></trkpt><trkpt lat="43.5300722" lon="10.7846043"><ele>135.0</ele><time>2026-04-18T08:48:07.419Z</time></trkpt><trkpt lat="43.5300122" lon="10.7846418"><ele>135.0</ele><time>2026-04-18T08:48:08.421Z</time></trkpt><trkpt lat="43.5299509" lon="10.784669"><ele>135.0</ele><time>2026-04-18T08:48:09.432Z</time></trkpt><trkpt lat="43.5298864" lon="10.7846888"><ele>135.0</ele><time>2026-04-18T08:48:10.433Z</time></trkpt><trkpt lat="43.5298124" lon="10.7847086"><ele>135.0</ele><time>2026-04-18T08:48:11.434Z</time></trkpt><trkpt lat="43.5297315" lon="10.7847226"><ele>135.0</ele><time>2026-04-18T08:48:12.421Z</time></trkpt><trkpt lat="43.5296421" lon="10.784725"><ele>130.6</ele><time>2026-04-18T08:48:13.448Z</time></trkpt><trkpt lat="43.5295493" lon="10.7847176"><ele>126.2</ele><time>2026-04-18T08:48:14.429Z</time></trkpt><trkpt lat="43.5294562" lon="10.7847202"><ele>121.80000000000001</ele><time>2026-04-18T08:48:15.434Z</time></trkpt><trkpt lat="43.52937" lon="10.7847124"><ele>117.4</ele><time>2026-04-18T08:48:16.421Z</time></trkpt><trkpt lat="43.5292819" lon="10.7847009"><ele>113.0</ele><time>2026-04-18T08:48:17.423Z</time></trkpt><trkpt lat="43.5291935" lon="10.7846924"><ele>112.99999999999999</ele><time>2026-04-18T08:48:18.441Z</time></trkpt><trkpt lat="43.5291127" lon="10.784677"><ele>113.0</ele><time>2026-04-18T08:48:19.437Z</time></trkpt><trkpt lat="43.5290349" lon="10.7846622"><ele>113.0</ele><time>2026-04-18T08:48:20.426Z</time></trkpt><trkpt lat="43.5289554" lon="10.7846437"><ele>113.0</ele><time>2026-04-18T08:48:21.436Z</time></trkpt><trkpt lat="43.5288682" lon="10.7846187"><ele>112.99999999999999</ele><time>2026-04-18T08:48:22.439Z</time></trkpt><trkpt lat="43.5287952" lon="10.7846084"><ele>113.0</ele><time>2026-04-18T08:48:23.412Z</time></trkpt><trkpt lat="43.528718" lon="10.7846045"><ele>110.99999999999999</ele><time>2026-04-18T08:48:24.433Z</time></trkpt><trkpt lat="43.5286373" lon="10.7845954"><ele>109.0</ele><time>2026-04-18T08:48:25.435Z</time></trkpt><trkpt lat="43.5285715" lon="10.784608"><ele>107.0</ele><time>2026-04-18T08:48:26.428Z</time></trkpt><trkpt lat="43.5284928" lon="10.7846323"><ele>105.0</ele><time>2026-04-18T08:48:27.439Z</time></trkpt><trkpt lat="43.5284187" lon="10.7846552"><ele>102.99999999999999</ele><time>2026-04-18T08:48:28.428Z</time></trkpt><trkpt lat="43.5283347" lon="10.7846813"><ele>101.0</ele><time>2026-04-18T08:48:29.427Z</time></trkpt><trkpt lat="43.5282447" lon="10.7847045"><ele>101.0</ele><time>2026-04-18T08:48:30.43Z</time></trkpt><trkpt lat="43.5281476" lon="10.7847099"><ele>101.0</ele><time>2026-04-18T08:48:31.435Z</time></trkpt><trkpt lat="43.5280539" lon="10.7847049"><ele>101.0</ele><time>2026-04-18T08:48:32.425Z</time></trkpt><trkpt lat="43.5279519" lon="10.7846964"><ele>101.0</ele><time>2026-04-18T08:48:33.438Z</time></trkpt><trkpt lat="43.5278529" lon="10.784681"><ele>101.0</ele><time>2026-04-18T08:48:34.43Z</time></trkpt><trkpt lat="43.5277542" lon="10.7846677"><ele>98.6</ele><time>2026-04-18T08:48:35.424Z</time></trkpt><trkpt lat="43.5276612" lon="10.7846499"><ele>96.19999999999999</ele><time>2026-04-18T08:48:36.425Z</time></trkpt><trkpt lat="43.5275675" lon="10.7846107"><ele>93.80000000000001</ele><time>2026-04-18T08:48:37.42Z</time></trkpt><trkpt lat="43.5274825" lon="10.7845585"><ele>91.4</ele><time>2026-04-18T08:48:38.43Z</time></trkpt><trkpt lat="43.5273971" lon="10.7845023"><ele>89.0</ele><time>2026-04-18T08:48:39.423Z</time></trkpt><trkpt lat="43.527323" lon="10.7844285"><ele>89.4</ele><time>2026-04-18T08:48:40.421Z</time></trkpt><trkpt lat="43.527259" lon="10.784344"><ele>89.80000000000001</ele><time>2026-04-18T08:48:41.402Z</time></trkpt><trkpt lat="43.5272036" lon="10.7842461"><ele>90.19999999999999</ele><time>2026-04-18T08:48:42.415Z</time></trkpt><trkpt lat="43.5271498" lon="10.784138"><ele>90.6</ele><time>2026-04-18T08:48:43.425Z</time></trkpt><trkpt lat="43.5270929" lon="10.7840268"><ele>91.0</ele><time>2026-04-18T08:48:44.419Z</time></trkpt><trkpt lat="43.5270292" lon="10.7839145"><ele>91.0</ele><time>2026-04-18T08:48:45.421Z</time></trkpt><trkpt lat="43.5269697" lon="10.7838158"><ele>91.0</ele><time>2026-04-18T08:48:46.435Z</time></trkpt><trkpt lat="43.5269146" lon="10.783715"><ele>91.0</ele><time>2026-04-18T08:48:47.425Z</time></trkpt><trkpt lat="43.5268555" lon="10.7836153"><ele>91.0</ele><time>2026-04-18T08:48:48.434Z</time></trkpt><trkpt lat="43.5267954" lon="10.7835188"><ele>91.0</ele><time>2026-04-18T08:48:49.418Z</time></trkpt><trkpt lat="43.5267424" lon="10.7834178"><ele>90.33333333333333</ele><time>2026-04-18T08:48:50.43Z</time></trkpt><trkpt lat="43.5266906" lon="10.7833221"><ele>89.66666666666666</ele><time>2026-04-18T08:48:51.427Z</time></trkpt><trkpt lat="43.5266423" lon="10.7832297"><ele>89.0</ele><time>2026-04-18T08:48:52.421Z</time></trkpt><trkpt lat="43.5265994" lon="10.7831328"><ele>88.33333333333333</ele><time>2026-04-18T08:48:53.437Z</time></trkpt><trkpt lat="43.5265661" lon="10.7830376"><ele>87.66666666666667</ele><time>2026-04-18T08:48:54.434Z</time></trkpt><trkpt lat="43.5265293" lon="10.7829242"><ele>87.0</ele><time>2026-04-18T08:48:55.424Z</time></trkpt><trkpt lat="43.5264909" lon="10.7828165"><ele>87.0</ele><time>2026-04-18T08:48:56.428Z</time></trkpt><trkpt lat="43.5264575" lon="10.7827028"><ele>87.0</ele><time>2026-04-18T08:48:57.434Z</time></trkpt><trkpt lat="43.5264188" lon="10.7825794"><ele>87.0</ele><time>2026-04-18T08:48:58.419Z</time></trkpt><trkpt lat="43.526378" lon="10.7824428"><ele>87.0</ele><time>2026-04-18T08:48:59.423Z</time></trkpt><trkpt lat="43.5263401" lon="10.7822991"><ele>87.0</ele><time>2026-04-18T08:49:00.418Z</time></trkpt><trkpt lat="43.5262947" lon="10.7821586"><ele>85.19999999999999</ele><time>2026-04-18T08:49:01.416Z</time></trkpt><trkpt lat="43.5262478" lon="10.7820088"><ele>83.39999999999999</ele><time>2026-04-18T08:49:02.426Z</time></trkpt><trkpt lat="43.5262055" lon="10.7818515"><ele>81.6</ele><time>2026-04-18T08:49:03.426Z</time></trkpt><trkpt lat="43.5261682" lon="10.7817134"><ele>79.8</ele><time>2026-04-18T08:49:04.424Z</time></trkpt><trkpt lat="43.5261355" lon="10.7815949"><ele>78.0</ele><time>2026-04-18T08:49:05.44Z</time></trkpt><trkpt lat="43.5261026" lon="10.7814904"><ele>76.5</ele><time>2026-04-18T08:49:06.434Z</time></trkpt><trkpt lat="43.5260755" lon="10.7814039"><ele>75.0</ele><time>2026-04-18T08:49:07.429Z</time></trkpt><trkpt lat="43.5260502" lon="10.7812899"><ele>73.5</ele><time>2026-04-18T08:49:09.418Z</time></trkpt><trkpt lat="43.5260164" lon="10.7812161"><ele>72.0</ele><time>2026-04-18T08:49:12.424Z</time></trkpt><trkpt lat="43.5259165" lon="10.7812279"><ele>70.5</ele><time>2026-04-18T08:49:16.419Z</time></trkpt><trkpt lat="43.5258551" lon="10.7812804"><ele>69.0</ele><time>2026-04-18T08:49:17.429Z</time></trkpt><trkpt lat="43.5257984" lon="10.7813435"><ele>69.0</ele><time>2026-04-18T08:49:18.425Z</time></trkpt><trkpt lat="43.525722" lon="10.7814235"><ele>69.0</ele><time>2026-04-18T08:49:19.431Z</time></trkpt><trkpt lat="43.5256176" lon="10.7815419"><ele>69.0</ele><time>2026-04-18T08:49:20.438Z</time></trkpt><trkpt lat="43.5255031" lon="10.7816503"><ele>69.0</ele><time>2026-04-18T08:49:21.437Z</time></trkpt><trkpt lat="43.5253877" lon="10.7817528"><ele>69.5</ele><time>2026-04-18T08:49:22.434Z</time></trkpt><trkpt lat="43.5252828" lon="10.7818558"><ele>70.0</ele><time>2026-04-18T08:49:23.432Z</time></trkpt><trkpt lat="43.5251759" lon="10.7819578"><ele>70.5</ele><time>2026-04-18T08:49:24.423Z</time></trkpt><trkpt lat="43.5250756" lon="10.7820539"><ele>71.0</ele><time>2026-04-18T08:49:25.425Z</time></trkpt><trkpt lat="43.52497" lon="10.7821493"><ele>71.0</ele><time>2026-04-18T08:49:26.435Z</time></trkpt><trkpt lat="43.5248755" lon="10.7822534"><ele>71.0</ele><time>2026-04-18T08:49:27.414Z</time></trkpt><trkpt lat="43.5247872" lon="10.7823666"><ele>71.0</ele><time>2026-04-18T08:49:28.406Z</time></trkpt><trkpt lat="43.5247088" lon="10.7825008"><ele>71.0</ele><time>2026-04-18T08:49:29.431Z</time></trkpt><trkpt lat="43.5246347" lon="10.7826338"><ele>72.0</ele><time>2026-04-18T08:49:30.434Z</time></trkpt><trkpt lat="43.5245705" lon="10.7827613"><ele>73.0</ele><time>2026-04-18T08:49:31.47Z</time></trkpt><trkpt lat="43.5245139" lon="10.7828908"><ele>74.0</ele><time>2026-04-18T08:49:32.438Z</time></trkpt><trkpt lat="43.5244538" lon="10.7830286"><ele>75.0</ele><time>2026-04-18T08:49:33.424Z</time></trkpt><trkpt lat="43.5243896" lon="10.7831616"><ele>72.5</ele><time>2026-04-18T08:49:34.419Z</time></trkpt><trkpt lat="43.5243282" lon="10.7832985"><ele>70.0</ele><time>2026-04-18T08:49:35.44Z</time></trkpt><trkpt lat="43.5242692" lon="10.7834299"><ele>67.5</ele><time>2026-04-18T08:49:36.433Z</time></trkpt><trkpt lat="43.5242106" lon="10.7835633"><ele>65.0</ele><time>2026-04-18T08:49:37.417Z</time></trkpt><trkpt lat="43.5241574" lon="10.7836947"><ele>65.0</ele><time>2026-04-18T08:49:38.434Z</time></trkpt><trkpt lat="43.5240973" lon="10.7838292"><ele>65.0</ele><time>2026-04-18T08:49:39.45Z</time></trkpt><trkpt lat="43.5240378" lon="10.7839599"><ele>65.0</ele><time>2026-04-18T08:49:40.44Z</time></trkpt><trkpt lat="43.5239736" lon="10.7840852"><ele>65.0</ele><time>2026-04-18T08:49:41.437Z</time></trkpt><trkpt lat="43.523899" lon="10.7842054"><ele>65.0</ele><time>2026-04-18T08:49:42.43Z</time></trkpt><trkpt lat="43.5238189" lon="10.7843145"><ele>65.0</ele><time>2026-04-18T08:49:43.429Z</time></trkpt><trkpt lat="43.5237328" lon="10.7844016"><ele>65.0</ele><time>2026-04-18T08:49:44.442Z</time></trkpt><trkpt lat="43.5236426" lon="10.7844769"><ele>65.0</ele><time>2026-04-18T08:49:45.417Z</time></trkpt><trkpt lat="43.5235433" lon="10.7845461"><ele>65.0</ele><time>2026-04-18T08:49:46.412Z</time></trkpt><trkpt lat="43.5234423" lon="10.7846053"><ele>66.0</ele><time>2026-04-18T08:49:47.426Z</time></trkpt><trkpt lat="43.5233338" lon="10.7846815"><ele>67.0</ele><time>2026-04-18T08:49:48.439Z</time></trkpt><trkpt lat="43.5232175" lon="10.784756"><ele>68.0</ele><time>2026-04-18T08:49:49.428Z</time></trkpt><trkpt lat="43.5230995" lon="10.784825"><ele>69.0</ele><time>2026-04-18T08:49:50.418Z</time></trkpt><trkpt lat="43.5229825" lon="10.7848957"><ele>68.60000000000001</ele><time>2026-04-18T08:49:51.429Z</time></trkpt><trkpt lat="43.5228722" lon="10.7849635"><ele>68.2</ele><time>2026-04-18T08:49:52.426Z</time></trkpt><trkpt lat="43.5227627" lon="10.7850288"><ele>67.80000000000001</ele><time>2026-04-18T08:49:53.427Z</time></trkpt><trkpt lat="43.5226666" lon="10.7850878"><ele>67.4</ele><time>2026-04-18T08:49:54.437Z</time></trkpt><trkpt lat="43.5225842" lon="10.785137"><ele>67.0</ele><time>2026-04-18T08:49:55.428Z</time></trkpt><trkpt lat="43.5225139" lon="10.7851777"><ele>67.4</ele><time>2026-04-18T08:49:56.416Z</time></trkpt><trkpt lat="43.5224147" lon="10.7852309"><ele>67.80000000000001</ele><time>2026-04-18T08:49:58.417Z</time></trkpt><trkpt lat="43.5223661" lon="10.7853051"><ele>68.2</ele><time>2026-04-18T08:50:00.43Z</time></trkpt><trkpt lat="43.5224156" lon="10.7854187"><ele>68.60000000000001</ele><time>2026-04-18T08:50:02.419Z</time></trkpt><trkpt lat="43.5225083" lon="10.7855219"><ele>69.0</ele><time>2026-04-18T08:50:04.438Z</time></trkpt><trkpt lat="43.5225337" lon="10.7856235"><ele>69.0</ele><time>2026-04-18T08:50:05.428Z</time></trkpt><trkpt lat="43.5225519" lon="10.785718"><ele>69.0</ele><time>2026-04-18T08:50:06.435Z</time></trkpt><trkpt lat="43.5225636" lon="10.7858323"><ele>69.0</ele><time>2026-04-18T08:50:07.426Z</time></trkpt><trkpt lat="43.5225731" lon="10.7859562"><ele>69.0</ele><time>2026-04-18T08:50:08.425Z</time></trkpt><trkpt lat="43.5225755" lon="10.7860803"><ele>69.0</ele><time>2026-04-18T08:50:09.431Z</time></trkpt><trkpt lat="43.5225779" lon="10.7861876"><ele>69.0</ele><time>2026-04-18T08:50:10.438Z</time></trkpt><trkpt lat="43.5225822" lon="10.7862851"><ele>69.16666666666667</ele><time>2026-04-18T08:50:11.421Z</time></trkpt><trkpt lat="43.5225883" lon="10.7863738"><ele>69.33333333333333</ele><time>2026-04-18T08:50:12.419Z</time></trkpt><trkpt lat="43.5225959" lon="10.7865484"><ele>69.5</ele><time>2026-04-18T08:50:14.438Z</time></trkpt><trkpt lat="43.5226025" lon="10.7866421"><ele>69.66666666666666</ele><time>2026-04-18T08:50:15.437Z</time></trkpt><trkpt lat="43.5226125" lon="10.7867299"><ele>69.83333333333333</ele><time>2026-04-18T08:50:16.418Z</time></trkpt><trkpt lat="43.5226245" lon="10.7868201"><ele>70.0</ele><time>2026-04-18T08:50:17.429Z</time></trkpt><trkpt lat="43.5226351" lon="10.7869143"><ele>70.33333333333333</ele><time>2026-04-18T08:50:18.43Z</time></trkpt><trkpt lat="43.5226474" lon="10.7870117"><ele>70.66666666666666</ele><time>2026-04-18T08:50:19.418Z</time></trkpt><trkpt lat="43.52266" lon="10.7871153"><ele>71.0</ele><time>2026-04-18T08:50:20.424Z</time></trkpt><trkpt lat="43.5226759" lon="10.7872139"><ele>71.33333333333333</ele><time>2026-04-18T08:50:21.427Z</time></trkpt><trkpt lat="43.5226948" lon="10.7873193"><ele>71.66666666666667</ele><time>2026-04-18T08:50:22.421Z</time></trkpt><trkpt lat="43.52271" lon="10.7874243"><ele>72.0</ele><time>2026-04-18T08:50:23.428Z</time></trkpt><trkpt lat="43.5227261" lon="10.7875289"><ele>72.0</ele><time>2026-04-18T08:50:24.434Z</time></trkpt><trkpt lat="43.5227404" lon="10.7876316"><ele>72.0</ele><time>2026-04-18T08:50:25.432Z</time></trkpt><trkpt lat="43.5227508" lon="10.7877256"><ele>72.0</ele><time>2026-04-18T08:50:26.431Z</time></trkpt><trkpt lat="43.5227614" lon="10.7878172"><ele>72.0</ele><time>2026-04-18T08:50:27.442Z</time></trkpt><trkpt lat="43.5227759" lon="10.7879086"><ele>72.0</ele><time>2026-04-18T08:50:28.432Z</time></trkpt><trkpt lat="43.5227943" lon="10.7880583"><ele>72.0</ele><time>2026-04-18T08:50:30.433Z</time></trkpt><trkpt lat="43.5228157" lon="10.7881987"><ele>72.4</ele><time>2026-04-18T08:50:32.435Z</time></trkpt><trkpt lat="43.5228401" lon="10.7883487"><ele>72.80000000000001</ele><time>2026-04-18T08:50:34.432Z</time></trkpt><trkpt lat="43.5228653" lon="10.7885021"><ele>73.2</ele><time>2026-04-18T08:50:36.435Z</time></trkpt><trkpt lat="43.5228896" lon="10.788656"><ele>73.60000000000001</ele><time>2026-04-18T08:50:38.423Z</time></trkpt><trkpt lat="43.522903" lon="10.7887434"><ele>74.0</ele><time>2026-04-18T08:50:39.432Z</time></trkpt><trkpt lat="43.5229184" lon="10.7888346"><ele>75.66666666666667</ele><time>2026-04-18T08:50:40.432Z</time></trkpt><trkpt lat="43.5229331" lon="10.7889324"><ele>77.33333333333334</ele><time>2026-04-18T08:50:41.42Z</time></trkpt><trkpt lat="43.522942" lon="10.789034"><ele>79.0</ele><time>2026-04-18T08:50:42.438Z</time></trkpt><trkpt lat="43.5229512" lon="10.7891406"><ele>80.66666666666667</ele><time>2026-04-18T08:50:43.434Z</time></trkpt><trkpt lat="43.5229617" lon="10.789242"><ele>82.33333333333333</ele><time>2026-04-18T08:50:44.428Z</time></trkpt><trkpt lat="43.5229759" lon="10.7893488"><ele>84.0</ele><time>2026-04-18T08:50:45.433Z</time></trkpt><trkpt lat="43.5229947" lon="10.7894628"><ele>85.0</ele><time>2026-04-18T08:50:46.43Z</time></trkpt><trkpt lat="43.5230198" lon="10.7895768"><ele>86.0</ele><time>2026-04-18T08:50:47.434Z</time></trkpt><trkpt lat="43.5230395" lon="10.789679"><ele>87.0</ele><time>2026-04-18T08:50:48.428Z</time></trkpt><trkpt lat="43.5230621" lon="10.7897671"><ele>88.0</ele><time>2026-04-18T08:50:49.431Z</time></trkpt><trkpt lat="43.5230989" lon="10.789868"><ele>89.0</ele><time>2026-04-18T08:50:51.438Z</time></trkpt><trkpt lat="43.5231289" lon="10.7899966"><ele>90.0</ele><time>2026-04-18T08:50:55.427Z</time></trkpt><trkpt lat="43.5231372" lon="10.7901109"><ele>91.4</ele><time>2026-04-18T08:50:57.424Z</time></trkpt><trkpt lat="43.5231536" lon="10.7902719"><ele>92.8</ele><time>2026-04-18T08:50:59.441Z</time></trkpt><trkpt lat="43.5231761" lon="10.7904312"><ele>94.19999999999999</ele><time>2026-04-18T08:51:01.429Z</time></trkpt><trkpt lat="43.5231942" lon="10.7905145"><ele>95.6</ele><time>2026-04-18T08:51:02.422Z</time></trkpt><trkpt lat="43.5232194" lon="10.7906896"><ele>97.0</ele><time>2026-04-18T08:51:04.42Z</time></trkpt><trkpt lat="43.5232336" lon="10.7907833"><ele>97.00000000000001</ele><time>2026-04-18T08:51:05.423Z</time></trkpt><trkpt lat="43.5232547" lon="10.7908757"><ele>97.0</ele><time>2026-04-18T08:51:06.431Z</time></trkpt><trkpt lat="43.523282" lon="10.7909667"><ele>97.0</ele><time>2026-04-18T08:51:07.432Z</time></trkpt><trkpt lat="43.5233208" lon="10.7910491"><ele>97.0</ele><time>2026-04-18T08:51:08.431Z</time></trkpt><trkpt lat="43.5233582" lon="10.7911216"><ele>97.00000000000001</ele><time>2026-04-18T08:51:09.428Z</time></trkpt><trkpt lat="43.5234344" lon="10.7912489"><ele>97.0</ele><time>2026-04-18T08:51:11.416Z</time></trkpt><trkpt lat="43.5235084" lon="10.7913626"><ele>96.6</ele><time>2026-04-18T08:51:13.426Z</time></trkpt><trkpt lat="43.523573" lon="10.7914606"><ele>96.19999999999999</ele><time>2026-04-18T08:51:15.433Z</time></trkpt><trkpt lat="43.523646" lon="10.7915749"><ele>95.8</ele><time>2026-04-18T08:51:17.432Z</time></trkpt><trkpt lat="43.5237189" lon="10.7917173"><ele>95.4</ele><time>2026-04-18T08:51:19.425Z</time></trkpt><trkpt lat="43.5237434" lon="10.7918007"><ele>95.0</ele><time>2026-04-18T08:51:20.436Z</time></trkpt><trkpt lat="43.5237595" lon="10.7918852"><ele>94.66666666666667</ele><time>2026-04-18T08:51:21.418Z</time></trkpt><trkpt lat="43.5237663" lon="10.7919733"><ele>94.33333333333334</ele><time>2026-04-18T08:51:22.434Z</time></trkpt><trkpt lat="43.5237606" lon="10.792091"><ele>94.0</ele><time>2026-04-18T08:51:24.437Z</time></trkpt><trkpt lat="43.5237431" lon="10.7921832"><ele>93.66666666666667</ele><time>2026-04-18T08:51:27.424Z</time></trkpt><trkpt lat="43.5237171" lon="10.7923234"><ele>93.33333333333333</ele><time>2026-04-18T08:51:30.436Z</time></trkpt><trkpt lat="43.5236632" lon="10.7924618"><ele>93.0</ele><time>2026-04-18T08:51:32.432Z</time></trkpt><trkpt lat="43.5236276" lon="10.7925539"><ele>93.0</ele><time>2026-04-18T08:51:33.428Z</time></trkpt><trkpt lat="43.5235963" lon="10.7926583"><ele>93.0</ele><time>2026-04-18T08:51:34.418Z</time></trkpt><trkpt lat="43.523571" lon="10.7927591"><ele>93.0</ele><time>2026-04-18T08:51:35.427Z</time></trkpt><trkpt lat="43.5235477" lon="10.7928549"><ele>93.0</ele><time>2026-04-18T08:51:36.419Z</time></trkpt><trkpt lat="43.5235307" lon="10.7929512"><ele>93.0</ele><time>2026-04-18T08:51:37.414Z</time></trkpt><trkpt lat="43.5235151" lon="10.7930547"><ele>93.0</ele><time>2026-04-18T08:51:38.421Z</time></trkpt><trkpt lat="43.5235133" lon="10.7931584"><ele>93.5</ele><time>2026-04-18T08:51:39.419Z</time></trkpt><trkpt lat="43.5235163" lon="10.7932667"><ele>94.0</ele><time>2026-04-18T08:51:40.415Z</time></trkpt><trkpt lat="43.5235201" lon="10.7933774"><ele>94.5</ele><time>2026-04-18T08:51:41.428Z</time></trkpt><trkpt lat="43.5235269" lon="10.7934853"><ele>95.0</ele><time>2026-04-18T08:51:42.421Z</time></trkpt><trkpt lat="43.5235332" lon="10.7935962"><ele>95.5</ele><time>2026-04-18T08:51:43.426Z</time></trkpt><trkpt lat="43.5235376" lon="10.7937083"><ele>96.0</ele><time>2026-04-18T08:51:44.425Z</time></trkpt><trkpt lat="43.52354" lon="10.7938146"><ele>96.0</ele><time>2026-04-18T08:51:45.423Z</time></trkpt><trkpt lat="43.523538" lon="10.7939332"><ele>96.0</ele><time>2026-04-18T08:51:46.43Z</time></trkpt><trkpt lat="43.5235361" lon="10.7940567"><ele>96.0</ele><time>2026-04-18T08:51:47.42Z</time></trkpt><trkpt lat="43.523528" lon="10.7941819"><ele>96.0</ele><time>2026-04-18T08:51:48.44Z</time></trkpt><trkpt lat="43.523512" lon="10.7943085"><ele>96.0</ele><time>2026-04-18T08:51:49.435Z</time></trkpt><trkpt lat="43.5234996" lon="10.7944378"><ele>96.0</ele><time>2026-04-18T08:51:50.419Z</time></trkpt><trkpt lat="43.5234889" lon="10.7945716"><ele>96.0</ele><time>2026-04-18T08:51:51.438Z</time></trkpt><trkpt lat="43.5234854" lon="10.7946885"><ele>96.0</ele><time>2026-04-18T08:51:52.43Z</time></trkpt><trkpt lat="43.5234808" lon="10.7948032"><ele>96.0</ele><time>2026-04-18T08:51:53.421Z</time></trkpt><trkpt lat="43.5234774" lon="10.7949248"><ele>96.0</ele><time>2026-04-18T08:51:54.422Z</time></trkpt><trkpt lat="43.5234892" lon="10.7950347"><ele>96.0</ele><time>2026-04-18T08:51:55.425Z</time></trkpt><trkpt lat="43.5235112" lon="10.7951493"><ele>95.33333333333333</ele><time>2026-04-18T08:51:56.434Z</time></trkpt><trkpt lat="43.5235357" lon="10.7952656"><ele>94.66666666666667</ele><time>2026-04-18T08:51:57.431Z</time></trkpt><trkpt lat="43.5235584" lon="10.795388"><ele>94.0</ele><time>2026-04-18T08:51:58.428Z</time></trkpt><trkpt lat="43.5235862" lon="10.7955124"><ele>93.33333333333334</ele><time>2026-04-18T08:51:59.433Z</time></trkpt><trkpt lat="43.5236081" lon="10.7956319"><ele>92.66666666666667</ele><time>2026-04-18T08:52:00.427Z</time></trkpt><trkpt lat="43.5236356" lon="10.79574"><ele>92.0</ele><time>2026-04-18T08:52:01.429Z</time></trkpt><trkpt lat="43.5236667" lon="10.7958476"><ele>92.0</ele><time>2026-04-18T08:52:02.431Z</time></trkpt><trkpt lat="43.5236997" lon="10.7959516"><ele>92.0</ele><time>2026-04-18T08:52:03.429Z</time></trkpt><trkpt lat="43.5237369" lon="10.7960489"><ele>92.0</ele><time>2026-04-18T08:52:04.427Z</time></trkpt><trkpt lat="43.5237738" lon="10.7961489"><ele>92.0</ele><time>2026-04-18T08:52:05.431Z</time></trkpt><trkpt lat="43.5238059" lon="10.7962655"><ele>92.0</ele><time>2026-04-18T08:52:06.431Z</time></trkpt><trkpt lat="43.523848" lon="10.7963733"><ele>92.0</ele><time>2026-04-18T08:52:07.429Z</time></trkpt><trkpt lat="43.5238822" lon="10.7964877"><ele>92.39999999999999</ele><time>2026-04-18T08:52:08.442Z</time></trkpt><trkpt lat="43.5239101" lon="10.7965987"><ele>92.8</ele><time>2026-04-18T08:52:09.434Z</time></trkpt><trkpt lat="43.5239361" lon="10.7967167"><ele>93.2</ele><time>2026-04-18T08:52:10.429Z</time></trkpt><trkpt lat="43.5239595" lon="10.7968384"><ele>93.6</ele><time>2026-04-18T08:52:11.437Z</time></trkpt><trkpt lat="43.5239837" lon="10.7969665"><ele>94.0</ele><time>2026-04-18T08:52:12.416Z</time></trkpt><trkpt lat="43.5240038" lon="10.7970995"><ele>94.0</ele><time>2026-04-18T08:52:13.43Z</time></trkpt><trkpt lat="43.5240213" lon="10.7972342"><ele>94.0</ele><time>2026-04-18T08:52:14.423Z</time></trkpt><trkpt lat="43.5240264" lon="10.7973768"><ele>94.0</ele><time>2026-04-18T08:52:15.432Z</time></trkpt><trkpt lat="43.5240354" lon="10.7975134"><ele>94.0</ele><time>2026-04-18T08:52:16.43Z</time></trkpt><trkpt lat="43.5240405" lon="10.7976508"><ele>94.0</ele><time>2026-04-18T08:52:17.43Z</time></trkpt><trkpt lat="43.5240526" lon="10.797791"><ele>94.80000000000001</ele><time>2026-04-18T08:52:18.423Z</time></trkpt><trkpt lat="43.5240589" lon="10.7979285"><ele>95.60000000000001</ele><time>2026-04-18T08:52:19.415Z</time></trkpt><trkpt lat="43.5240668" lon="10.7980645"><ele>96.4</ele><time>2026-04-18T08:52:20.429Z</time></trkpt><trkpt lat="43.5240751" lon="10.7981952"><ele>97.2</ele><time>2026-04-18T08:52:21.428Z</time></trkpt><trkpt lat="43.524091" lon="10.7983271"><ele>98.0</ele><time>2026-04-18T08:52:22.428Z</time></trkpt><trkpt lat="43.5241157" lon="10.7984472"><ele>98.60000000000001</ele><time>2026-04-18T08:52:23.427Z</time></trkpt><trkpt lat="43.5241403" lon="10.7985792"><ele>99.2</ele><time>2026-04-18T08:52:24.42Z</time></trkpt><trkpt lat="43.5241673" lon="10.7987097"><ele>99.8</ele><time>2026-04-18T08:52:25.427Z</time></trkpt><trkpt lat="43.5241889" lon="10.7988407"><ele>100.4</ele><time>2026-04-18T08:52:26.42Z</time></trkpt><trkpt lat="43.5242093" lon="10.7989807"><ele>101.0</ele><time>2026-04-18T08:52:27.448Z</time></trkpt><trkpt lat="43.5242239" lon="10.7991305"><ele>101.0</ele><time>2026-04-18T08:52:28.438Z</time></trkpt><trkpt lat="43.5242397" lon="10.7992842"><ele>101.0</ele><time>2026-04-18T08:52:29.425Z</time></trkpt><trkpt lat="43.524251" lon="10.799433"><ele>101.0</ele><time>2026-04-18T08:52:30.436Z</time></trkpt><trkpt lat="43.5242587" lon="10.7995625"><ele>101.0</ele><time>2026-04-18T08:52:31.432Z</time></trkpt><trkpt lat="43.5242542" lon="10.799699"><ele>101.0</ele><time>2026-04-18T08:52:32.436Z</time></trkpt><trkpt lat="43.5242408" lon="10.7998345"><ele>100.83333333333333</ele><time>2026-04-18T08:52:33.427Z</time></trkpt><trkpt lat="43.5242249" lon="10.7999604"><ele>100.66666666666666</ele><time>2026-04-18T08:52:34.449Z</time></trkpt><trkpt lat="43.5242071" lon="10.8000765"><ele>100.5</ele><time>2026-04-18T08:52:35.442Z</time></trkpt><trkpt lat="43.5241979" lon="10.800186"><ele>100.33333333333334</ele><time>2026-04-18T08:52:36.429Z</time></trkpt><trkpt lat="43.52419" lon="10.8003048"><ele>100.16666666666667</ele><time>2026-04-18T08:52:37.428Z</time></trkpt><trkpt lat="43.5241831" lon="10.8004261"><ele>100.0</ele><time>2026-04-18T08:52:38.44Z</time></trkpt><trkpt lat="43.5241797" lon="10.8005455"><ele>100.00000000000001</ele><time>2026-04-18T08:52:39.452Z</time></trkpt><trkpt lat="43.5241749" lon="10.8006632"><ele>100.0</ele><time>2026-04-18T08:52:40.426Z</time></trkpt><trkpt lat="43.5241688" lon="10.800787"><ele>100.0</ele><time>2026-04-18T08:52:41.434Z</time></trkpt><trkpt lat="43.5241568" lon="10.8009042"><ele>100.0</ele><time>2026-04-18T08:52:42.437Z</time></trkpt><trkpt lat="43.5241384" lon="10.801013"><ele>100.00000000000001</ele><time>2026-04-18T08:52:43.438Z</time></trkpt><trkpt lat="43.5241105" lon="10.8011172"><ele>100.0</ele><time>2026-04-18T08:52:44.433Z</time></trkpt><trkpt lat="43.5240763" lon="10.8012249"><ele>99.00000000000001</ele><time>2026-04-18T08:52:45.438Z</time></trkpt><trkpt lat="43.5240352" lon="10.8013314"><ele>98.0</ele><time>2026-04-18T08:52:46.43Z</time></trkpt><trkpt lat="43.5239915" lon="10.8014361"><ele>97.0</ele><time>2026-04-18T08:52:47.429Z</time></trkpt><trkpt lat="43.5239511" lon="10.8015378"><ele>96.0</ele><time>2026-04-18T08:52:48.427Z</time></trkpt><trkpt lat="43.5239124" lon="10.8016331"><ele>95.0</ele><time>2026-04-18T08:52:49.423Z</time></trkpt><trkpt lat="43.5238763" lon="10.8017169"><ele>94.0</ele><time>2026-04-18T08:52:50.423Z</time></trkpt><trkpt lat="43.523826" lon="10.80181"><ele>94.0</ele><time>2026-04-18T08:52:52.428Z</time></trkpt><trkpt lat="43.5237621" lon="10.8019084"><ele>94.0</ele><time>2026-04-18T08:53:00.43Z</time></trkpt><trkpt lat="43.5236949" lon="10.8019952"><ele>94.0</ele><time>2026-04-18T08:53:02.437Z</time></trkpt><trkpt lat="43.5236026" lon="10.8020513"><ele>94.0</ele><time>2026-04-18T08:53:04.433Z</time></trkpt><trkpt lat="43.523504" lon="10.8021095"><ele>94.0</ele><time>2026-04-18T08:53:06.432Z</time></trkpt><trkpt lat="43.5234067" lon="10.8021855"><ele>95.28571428571428</ele><time>2026-04-18T08:53:08.438Z</time></trkpt><trkpt lat="43.5233471" lon="10.802222"><ele>96.57142857142857</ele><time>2026-04-18T08:53:09.439Z</time></trkpt><trkpt lat="43.5232895" lon="10.8022634"><ele>97.85714285714286</ele><time>2026-04-18T08:53:10.437Z</time></trkpt><trkpt lat="43.5232342" lon="10.8023107"><ele>99.14285714285714</ele><time>2026-04-18T08:53:11.444Z</time></trkpt><trkpt lat="43.5231831" lon="10.8023702"><ele>100.42857142857143</ele><time>2026-04-18T08:53:12.429Z</time></trkpt><trkpt lat="43.5231375" lon="10.8024322"><ele>101.71428571428571</ele><time>2026-04-18T08:53:13.426Z</time></trkpt><trkpt lat="43.5230969" lon="10.8025099"><ele>103.0</ele><time>2026-04-18T08:53:14.435Z</time></trkpt><trkpt lat="43.5230625" lon="10.8025853"><ele>103.80000000000001</ele><time>2026-04-18T08:53:15.442Z</time></trkpt><trkpt lat="43.5230368" lon="10.8026722"><ele>104.6</ele><time>2026-04-18T08:53:16.421Z</time></trkpt><trkpt lat="43.5230006" lon="10.802831"><ele>105.39999999999999</ele><time>2026-04-18T08:53:18.429Z</time></trkpt><trkpt lat="43.5229797" lon="10.80296"><ele>106.19999999999999</ele><time>2026-04-18T08:53:20.436Z</time></trkpt><trkpt lat="43.5229605" lon="10.8030669"><ele>107.0</ele><time>2026-04-18T08:53:22.438Z</time></trkpt><trkpt lat="43.5229451" lon="10.8032248"><ele>106.99999999999999</ele><time>2026-04-18T08:53:24.453Z</time></trkpt><trkpt lat="43.5229373" lon="10.803314"><ele>107.0</ele><time>2026-04-18T08:53:25.442Z</time></trkpt><trkpt lat="43.5229356" lon="10.8034089"><ele>107.0</ele><time>2026-04-18T08:53:26.433Z</time></trkpt><trkpt lat="43.522942" lon="10.8035069"><ele>107.0</ele><time>2026-04-18T08:53:27.433Z</time></trkpt><trkpt lat="43.5229559" lon="10.8035937"><ele>106.99999999999999</ele><time>2026-04-18T08:53:28.434Z</time></trkpt><trkpt lat="43.5229869" lon="10.8037569"><ele>107.0</ele><time>2026-04-18T08:53:30.435Z</time></trkpt><trkpt lat="43.523046" lon="10.803905"><ele>106.85714285714286</ele><time>2026-04-18T08:53:32.434Z</time></trkpt><trkpt lat="43.5230859" lon="10.8039837"><ele>106.71428571428572</ele><time>2026-04-18T08:53:33.438Z</time></trkpt><trkpt lat="43.52313" lon="10.8040575"><ele>106.57142857142858</ele><time>2026-04-18T08:53:34.435Z</time></trkpt><trkpt lat="43.5231773" lon="10.8041411"><ele>106.42857142857143</ele><time>2026-04-18T08:53:35.438Z</time></trkpt><trkpt lat="43.5232178" lon="10.8042335"><ele>106.28571428571428</ele><time>2026-04-18T08:53:36.437Z</time></trkpt><trkpt lat="43.5232546" lon="10.8043299"><ele>106.14285714285715</ele><time>2026-04-18T08:53:37.437Z</time></trkpt><trkpt lat="43.5232844" lon="10.8044227"><ele>106.0</ele><time>2026-04-18T08:53:38.44Z</time></trkpt><trkpt lat="43.523319" lon="10.8045164"><ele>105.00000000000001</ele><time>2026-04-18T08:53:39.431Z</time></trkpt><trkpt lat="43.523355" lon="10.8046061"><ele>104.0</ele><time>2026-04-18T08:53:40.447Z</time></trkpt><trkpt lat="43.523391" lon="10.8046929"><ele>103.0</ele><time>2026-04-18T08:53:41.42Z</time></trkpt><trkpt lat="43.5234273" lon="10.8047826"><ele>102.0</ele><time>2026-04-18T08:53:42.446Z</time></trkpt><trkpt lat="43.5234633" lon="10.8048716"><ele>101.00000000000001</ele><time>2026-04-18T08:53:43.421Z</time></trkpt><trkpt lat="43.5235063" lon="10.8049602"><ele>100.0</ele><time>2026-04-18T08:53:44.452Z</time></trkpt><trkpt lat="43.523549" lon="10.8050528"><ele>100.00000000000001</ele><time>2026-04-18T08:53:45.427Z</time></trkpt><trkpt lat="43.5235949" lon="10.8051508"><ele>100.0</ele><time>2026-04-18T08:53:46.427Z</time></trkpt><trkpt lat="43.523634" lon="10.8052494"><ele>100.0</ele><time>2026-04-18T08:53:47.435Z</time></trkpt><trkpt lat="43.5236615" lon="10.8053495"><ele>100.0</ele><time>2026-04-18T08:53:48.434Z</time></trkpt><trkpt lat="43.5236817" lon="10.8054612"><ele>100.00000000000001</ele><time>2026-04-18T08:53:49.439Z</time></trkpt><trkpt lat="43.5236982" lon="10.8055691"><ele>100.0</ele><time>2026-04-18T08:53:50.434Z</time></trkpt><trkpt lat="43.5237156" lon="10.8056716"><ele>99.83333333333334</ele><time>2026-04-18T08:53:51.439Z</time></trkpt><trkpt lat="43.5237371" lon="10.8057723"><ele>99.66666666666667</ele><time>2026-04-18T08:53:52.432Z</time></trkpt><trkpt lat="43.5237591" lon="10.8058602"><ele>99.5</ele><time>2026-04-18T08:53:53.429Z</time></trkpt><trkpt lat="43.5237835" lon="10.8059431"><ele>99.33333333333334</ele><time>2026-04-18T08:53:54.437Z</time></trkpt><trkpt lat="43.5238067" lon="10.8060268"><ele>99.16666666666667</ele><time>2026-04-18T08:53:55.436Z</time></trkpt><trkpt lat="43.5238329" lon="10.8061861"><ele>99.0</ele><time>2026-04-18T08:53:57.425Z</time></trkpt><trkpt lat="43.5238337" lon="10.8062801"><ele>98.5</ele><time>2026-04-18T08:53:58.423Z</time></trkpt><trkpt lat="43.5238357" lon="10.8063718"><ele>98.0</ele><time>2026-04-18T08:53:59.43Z</time></trkpt><trkpt lat="43.5238132" lon="10.8065409"><ele>97.5</ele><time>2026-04-18T08:54:01.427Z</time></trkpt><trkpt lat="43.5237951" lon="10.8066284"><ele>97.0</ele><time>2026-04-18T08:54:02.425Z</time></trkpt><trkpt lat="43.5237759" lon="10.8067171"><ele>96.5</ele><time>2026-04-18T08:54:03.438Z</time></trkpt><trkpt lat="43.523753" lon="10.8068093"><ele>96.0</ele><time>2026-04-18T08:54:04.437Z</time></trkpt><trkpt lat="43.5237325" lon="10.806911"><ele>96.0</ele><time>2026-04-18T08:54:05.428Z</time></trkpt><trkpt lat="43.5237292" lon="10.8070141"><ele>96.0</ele><time>2026-04-18T08:54:06.432Z</time></trkpt><trkpt lat="43.5237386" lon="10.8071202"><ele>96.0</ele><time>2026-04-18T08:54:07.439Z</time></trkpt><trkpt lat="43.5237495" lon="10.8072306"><ele>96.0</ele><time>2026-04-18T08:54:08.455Z</time></trkpt><trkpt lat="43.5237645" lon="10.8073384"><ele>96.0</ele><time>2026-04-18T08:54:09.422Z</time></trkpt><trkpt lat="43.5237817" lon="10.807447"><ele>96.0</ele><time>2026-04-18T08:54:10.437Z</time></trkpt><trkpt lat="43.5238008" lon="10.8075591"><ele>96.0</ele><time>2026-04-18T08:54:11.428Z</time></trkpt><trkpt lat="43.5238401" lon="10.8076715"><ele>96.0</ele><time>2026-04-18T08:54:12.443Z</time></trkpt><trkpt lat="43.523885" lon="10.8077892"><ele>96.0</ele><time>2026-04-18T08:54:13.424Z</time></trkpt><trkpt lat="43.5239314" lon="10.8078963"><ele>96.0</ele><time>2026-04-18T08:54:14.433Z</time></trkpt><trkpt lat="43.5239746" lon="10.808002"><ele>96.0</ele><time>2026-04-18T08:54:15.43Z</time></trkpt><trkpt lat="43.5240215" lon="10.8081013"><ele>96.0</ele><time>2026-04-18T08:54:16.422Z</time></trkpt><trkpt lat="43.5240599" lon="10.8082067"><ele>96.0</ele><time>2026-04-18T08:54:17.427Z</time></trkpt><trkpt lat="43.5240969" lon="10.8083062"><ele>96.0</ele><time>2026-04-18T08:54:18.425Z</time></trkpt><trkpt lat="43.5241168" lon="10.8084027"><ele>96.0</ele><time>2026-04-18T08:54:19.442Z</time></trkpt><trkpt lat="43.5241244" lon="10.8084972"><ele>96.0</ele><time>2026-04-18T08:54:20.435Z</time></trkpt><trkpt lat="43.5241179" lon="10.8085929"><ele>96.0</ele><time>2026-04-18T08:54:21.443Z</time></trkpt><trkpt lat="43.5241011" lon="10.8086997"><ele>96.66666666666667</ele><time>2026-04-18T08:54:22.431Z</time></trkpt><trkpt lat="43.5240899" lon="10.8088013"><ele>97.33333333333334</ele><time>2026-04-18T08:54:23.426Z</time></trkpt><trkpt lat="43.5240762" lon="10.8088993"><ele>98.0</ele><time>2026-04-18T08:54:24.426Z</time></trkpt><trkpt lat="43.5240681" lon="10.8089915"><ele>98.66666666666667</ele><time>2026-04-18T08:54:25.428Z</time></trkpt><trkpt lat="43.5240663" lon="10.8090848"><ele>99.33333333333334</ele><time>2026-04-18T08:54:26.436Z</time></trkpt><trkpt lat="43.5240671" lon="10.8092344"><ele>100.0</ele><time>2026-04-18T08:54:28.442Z</time></trkpt><trkpt lat="43.524074" lon="10.8093882"><ele>100.50000000000001</ele><time>2026-04-18T08:54:30.453Z</time></trkpt><trkpt lat="43.5240831" lon="10.8095357"><ele>101.0</ele><time>2026-04-18T08:54:32.439Z</time></trkpt><trkpt lat="43.5241133" lon="10.8096937"><ele>101.5</ele><time>2026-04-18T08:54:34.426Z</time></trkpt><trkpt lat="43.5241253" lon="10.8097864"><ele>102.0</ele><time>2026-04-18T08:54:35.427Z</time></trkpt><trkpt lat="43.5241365" lon="10.8098836"><ele>102.50000000000001</ele><time>2026-04-18T08:54:36.43Z</time></trkpt><trkpt lat="43.5241458" lon="10.8099819"><ele>103.0</ele><time>2026-04-18T08:54:37.431Z</time></trkpt><trkpt lat="43.5241429" lon="10.8100779"><ele>103.14285714285714</ele><time>2026-04-18T08:54:38.431Z</time></trkpt><trkpt lat="43.5241455" lon="10.8101724"><ele>103.28571428571428</ele><time>2026-04-18T08:54:39.441Z</time></trkpt><trkpt lat="43.5241382" lon="10.8102657"><ele>103.42857142857142</ele><time>2026-04-18T08:54:40.446Z</time></trkpt><trkpt lat="43.5241235" lon="10.8103552"><ele>103.57142857142857</ele><time>2026-04-18T08:54:41.449Z</time></trkpt><trkpt lat="43.5241032" lon="10.8104423"><ele>103.71428571428572</ele><time>2026-04-18T08:54:42.445Z</time></trkpt><trkpt lat="43.5240782" lon="10.8105359"><ele>103.85714285714285</ele><time>2026-04-18T08:54:43.431Z</time></trkpt><trkpt lat="43.5240559" lon="10.8106198"><ele>104.0</ele><time>2026-04-18T08:54:44.433Z</time></trkpt><trkpt lat="43.5240323" lon="10.8107098"><ele>104.0</ele><time>2026-04-18T08:54:45.439Z</time></trkpt><trkpt lat="43.5240025" lon="10.8108728"><ele>104.0</ele><time>2026-04-18T08:54:47.422Z</time></trkpt><trkpt lat="43.5239881" lon="10.8110412"><ele>104.0</ele><time>2026-04-18T08:54:49.44Z</time></trkpt><trkpt lat="43.5239623" lon="10.8112068"><ele>104.0</ele><time>2026-04-18T08:54:51.433Z</time></trkpt><trkpt lat="43.5239194" lon="10.8113654"><ele>103.6</ele><time>2026-04-18T08:54:53.423Z</time></trkpt><trkpt lat="43.5238888" lon="10.8114521"><ele>103.2</ele><time>2026-04-18T08:54:54.432Z</time></trkpt><trkpt lat="43.5238279" lon="10.8115887"><ele>102.8</ele><time>2026-04-18T08:54:56.429Z</time></trkpt><trkpt lat="43.5237476" lon="10.8116976"><ele>102.39999999999999</ele><time>2026-04-18T08:54:58.436Z</time></trkpt><trkpt lat="43.5236557" lon="10.8118063"><ele>102.0</ele><time>2026-04-18T08:55:00.431Z</time></trkpt><trkpt lat="43.5235583" lon="10.8119114"><ele>105.5</ele><time>2026-04-18T08:55:02.428Z</time></trkpt><trkpt lat="43.5234568" lon="10.8119974"><ele>109.0</ele><time>2026-04-18T08:55:04.452Z</time></trkpt><trkpt lat="43.5233306" lon="10.8120672"><ele>112.5</ele><time>2026-04-18T08:55:06.424Z</time></trkpt><trkpt lat="43.5232602" lon="10.8120985"><ele>116.0</ele><time>2026-04-18T08:55:07.438Z</time></trkpt><trkpt lat="43.5231434" lon="10.8121626"><ele>116.0</ele><time>2026-04-18T08:55:09.432Z</time></trkpt><trkpt lat="43.5230665" lon="10.8122709"><ele>116.0</ele><time>2026-04-18T08:55:11.438Z</time></trkpt><trkpt lat="43.5230032" lon="10.812388"><ele>116.0</ele><time>2026-04-18T08:55:13.446Z</time></trkpt><trkpt lat="43.5229517" lon="10.8125076"><ele>116.0</ele><time>2026-04-18T08:55:15.411Z</time></trkpt><trkpt lat="43.5229064" lon="10.8126222"><ele>116.0</ele><time>2026-04-18T08:55:17.434Z</time></trkpt><trkpt lat="43.5228533" lon="10.812781"><ele>117.19999999999999</ele><time>2026-04-18T08:55:19.436Z</time></trkpt><trkpt lat="43.5228255" lon="10.8128683"><ele>118.39999999999999</ele><time>2026-04-18T08:55:20.424Z</time></trkpt><trkpt lat="43.522765" lon="10.8130133"><ele>119.6</ele><time>2026-04-18T08:55:22.43Z</time></trkpt><trkpt lat="43.522689" lon="10.8131274"><ele>120.8</ele><time>2026-04-18T08:55:24.435Z</time></trkpt><trkpt lat="43.5226214" lon="10.813221"><ele>122.0</ele><time>2026-04-18T08:55:26.428Z</time></trkpt><trkpt lat="43.5225735" lon="10.8132819"><ele>121.99999999999999</ele><time>2026-04-18T08:55:27.438Z</time></trkpt><trkpt lat="43.5225148" lon="10.8133467"><ele>122.0</ele><time>2026-04-18T08:55:28.421Z</time></trkpt><trkpt lat="43.5224553" lon="10.813406"><ele>122.0</ele><time>2026-04-18T08:55:29.437Z</time></trkpt><trkpt lat="43.5223854" lon="10.8134649"><ele>122.0</ele><time>2026-04-18T08:55:30.423Z</time></trkpt><trkpt lat="43.5223125" lon="10.8135303"><ele>121.99999999999999</ele><time>2026-04-18T08:55:31.423Z</time></trkpt><trkpt lat="43.5222421" lon="10.813602"><ele>122.0</ele><time>2026-04-18T08:55:32.433Z</time></trkpt><trkpt lat="43.5221837" lon="10.813669"><ele>122.49999999999999</ele><time>2026-04-18T08:55:33.422Z</time></trkpt><trkpt lat="43.5221328" lon="10.8137227"><ele>123.0</ele><time>2026-04-18T08:55:34.423Z</time></trkpt><trkpt lat="43.5220611" lon="10.8138643"><ele>123.5</ele><time>2026-04-18T08:55:36.435Z</time></trkpt><trkpt lat="43.5220311" lon="10.8139458"><ele>124.0</ele><time>2026-04-18T08:55:37.426Z</time></trkpt><trkpt lat="43.5219994" lon="10.8140425"><ele>124.49999999999999</ele><time>2026-04-18T08:55:38.447Z</time></trkpt><trkpt lat="43.5219756" lon="10.8141408"><ele>125.0</ele><time>2026-04-18T08:55:39.434Z</time></trkpt><trkpt lat="43.5219513" lon="10.8142389"><ele>125.6</ele><time>2026-04-18T08:55:40.421Z</time></trkpt><trkpt lat="43.521925" lon="10.8143246"><ele>126.2</ele><time>2026-04-18T08:55:41.43Z</time></trkpt><trkpt lat="43.5219033" lon="10.8144087"><ele>126.80000000000001</ele><time>2026-04-18T08:55:42.436Z</time></trkpt><trkpt lat="43.5218549" lon="10.8145468"><ele>127.4</ele><time>2026-04-18T08:55:44.422Z</time></trkpt><trkpt lat="43.5217902" lon="10.8146588"><ele>128.0</ele><time>2026-04-18T08:55:46.434Z</time></trkpt><trkpt lat="43.5217376" lon="10.8147864"><ele>127.99999999999999</ele><time>2026-04-18T08:55:48.44Z</time></trkpt><trkpt lat="43.5217188" lon="10.8149343"><ele>128.0</ele><time>2026-04-18T08:55:50.426Z</time></trkpt><trkpt lat="43.5217124" lon="10.8151034"><ele>128.0</ele><time>2026-04-18T08:55:52.43Z</time></trkpt><trkpt lat="43.5217181" lon="10.8151916"><ele>128.0</ele><time>2026-04-18T08:55:53.438Z</time></trkpt><trkpt lat="43.5217153" lon="10.8152816"><ele>127.99999999999999</ele><time>2026-04-18T08:55:54.426Z</time></trkpt><trkpt lat="43.5217179" lon="10.8153737"><ele>128.0</ele><time>2026-04-18T08:55:55.422Z</time></trkpt><trkpt lat="43.5217236" lon="10.8155371"><ele>127.80000000000001</ele><time>2026-04-18T08:55:57.425Z</time></trkpt><trkpt lat="43.5217263" lon="10.8156962"><ele>127.60000000000001</ele><time>2026-04-18T08:55:59.424Z</time></trkpt><trkpt lat="43.5217533" lon="10.8158525"><ele>127.39999999999999</ele><time>2026-04-18T08:56:01.418Z</time></trkpt><trkpt lat="43.5218067" lon="10.81601"><ele>127.19999999999999</ele><time>2026-04-18T08:56:03.434Z</time></trkpt><trkpt lat="43.5218517" lon="10.8160742"><ele>127.0</ele><time>2026-04-18T08:56:04.429Z</time></trkpt><trkpt lat="43.5218994" lon="10.8161451"><ele>126.39999999999999</ele><time>2026-04-18T08:56:05.427Z</time></trkpt><trkpt lat="43.5219537" lon="10.8162083"><ele>125.79999999999998</ele><time>2026-04-18T08:56:06.426Z</time></trkpt><trkpt lat="43.5219986" lon="10.8162703"><ele>125.2</ele><time>2026-04-18T08:56:07.429Z</time></trkpt><trkpt lat="43.5220444" lon="10.8163385"><ele>124.6</ele><time>2026-04-18T08:56:08.416Z</time></trkpt><trkpt lat="43.5221056" lon="10.8164808"><ele>124.0</ele><time>2026-04-18T08:56:10.426Z</time></trkpt><trkpt lat="43.5221317" lon="10.816663"><ele>124.00000000000001</ele><time>2026-04-18T08:56:12.431Z</time></trkpt><trkpt lat="43.5221415" lon="10.8167652"><ele>124.0</ele><time>2026-04-18T08:56:13.427Z</time></trkpt><trkpt lat="43.5221311" lon="10.8168812"><ele>124.0</ele><time>2026-04-18T08:56:14.422Z</time></trkpt><trkpt lat="43.5221105" lon="10.8169823"><ele>124.0</ele><time>2026-04-18T08:56:15.428Z</time></trkpt><trkpt lat="43.5220811" lon="10.8170846"><ele>124.00000000000001</ele><time>2026-04-18T08:56:16.429Z</time></trkpt><trkpt lat="43.5220579" lon="10.8171822"><ele>124.0</ele><time>2026-04-18T08:56:17.43Z</time></trkpt><trkpt lat="43.5220299" lon="10.8172873"><ele>123.83333333333334</ele><time>2026-04-18T08:56:18.437Z</time></trkpt><trkpt lat="43.5219964" lon="10.8173858"><ele>123.66666666666667</ele><time>2026-04-18T08:56:19.43Z</time></trkpt><trkpt lat="43.5219664" lon="10.8174764"><ele>123.5</ele><time>2026-04-18T08:56:20.428Z</time></trkpt><trkpt lat="43.5219389" lon="10.8175651"><ele>123.33333333333334</ele><time>2026-04-18T08:56:21.435Z</time></trkpt><trkpt lat="43.5219148" lon="10.8176474"><ele>123.16666666666667</ele><time>2026-04-18T08:56:22.43Z</time></trkpt><trkpt lat="43.5218717" lon="10.8177853"><ele>123.0</ele><time>2026-04-18T08:56:24.432Z</time></trkpt><trkpt lat="43.5218065" lon="10.8179026"><ele>124.60000000000001</ele><time>2026-04-18T08:56:26.43Z</time></trkpt><trkpt lat="43.5217164" lon="10.8180244"><ele>126.20000000000002</ele><time>2026-04-18T08:56:28.431Z</time></trkpt><trkpt lat="43.5216704" lon="10.8180901"><ele>127.8</ele><time>2026-04-18T08:56:29.429Z</time></trkpt><trkpt lat="43.5216234" lon="10.8181489"><ele>129.4</ele><time>2026-04-18T08:56:30.418Z</time></trkpt><trkpt lat="43.5215297" lon="10.818255"><ele>131.0</ele><time>2026-04-18T08:56:32.433Z</time></trkpt><trkpt lat="43.521448" lon="10.8183428"><ele>131.0</ele><time>2026-04-18T08:56:34.443Z</time></trkpt><trkpt lat="43.5213766" lon="10.8184239"><ele>131.0</ele><time>2026-04-18T08:56:36.437Z</time></trkpt><trkpt lat="43.521333" lon="10.818515"><ele>131.0</ele><time>2026-04-18T08:56:38.436Z</time></trkpt><trkpt lat="43.5213063" lon="10.8186015"><ele>131.0</ele><time>2026-04-18T08:56:40.428Z</time></trkpt><trkpt lat="43.521286" lon="10.8186953"><ele>131.0</ele><time>2026-04-18T08:56:42.431Z</time></trkpt><trkpt lat="43.521283" lon="10.8187997"><ele>131.0</ele><time>2026-04-18T08:56:44.433Z</time></trkpt><trkpt lat="43.5212918" lon="10.8189139"><ele>130.0</ele><time>2026-04-18T08:56:46.437Z</time></trkpt><trkpt lat="43.521339" lon="10.8190551"><ele>129.0</ele><time>2026-04-18T08:56:48.434Z</time></trkpt><trkpt lat="43.5214031" lon="10.8192015"><ele>128.0</ele><time>2026-04-18T08:56:50.434Z</time></trkpt><trkpt lat="43.5214459" lon="10.81932"><ele>127.0</ele><time>2026-04-18T08:56:52.429Z</time></trkpt><trkpt lat="43.5214633" lon="10.8194327"><ele>126.0</ele><time>2026-04-18T08:56:55.431Z</time></trkpt><trkpt lat="43.5214717" lon="10.8195261"><ele>123.8</ele><time>2026-04-18T08:56:57.426Z</time></trkpt><trkpt lat="43.5214788" lon="10.8196613"><ele>121.6</ele><time>2026-04-18T08:56:59.426Z</time></trkpt><trkpt lat="43.5214598" lon="10.8198101"><ele>119.4</ele><time>2026-04-18T08:57:01.434Z</time></trkpt><trkpt lat="43.5214177" lon="10.8199484"><ele>117.2</ele><time>2026-04-18T08:57:03.426Z</time></trkpt><trkpt lat="43.5213663" lon="10.8200636"><ele>115.0</ele><time>2026-04-18T08:57:05.425Z</time></trkpt><trkpt lat="43.5213265" lon="10.8201985"><ele>113.0</ele><time>2026-04-18T08:57:07.422Z</time></trkpt><trkpt lat="43.5213172" lon="10.8203529"><ele>111.0</ele><time>2026-04-18T08:57:09.433Z</time></trkpt><trkpt lat="43.5213277" lon="10.820521"><ele>109.0</ele><time>2026-04-18T08:57:11.429Z</time></trkpt><trkpt lat="43.5213359" lon="10.820677"><ele>107.0</ele><time>2026-04-18T08:57:13.428Z</time></trkpt><trkpt lat="43.5213425" lon="10.820843"><ele>106.66666666666666</ele><time>2026-04-18T08:57:15.417Z</time></trkpt><trkpt lat="43.5213483" lon="10.8210112"><ele>106.33333333333333</ele><time>2026-04-18T08:57:17.413Z</time></trkpt><trkpt lat="43.5213507" lon="10.8211024"><ele>106.0</ele><time>2026-04-18T08:57:18.436Z</time></trkpt><trkpt lat="43.521358" lon="10.821195"><ele>105.66666666666666</ele><time>2026-04-18T08:57:19.425Z</time></trkpt><trkpt lat="43.5213627" lon="10.8212861"><ele>105.33333333333333</ele><time>2026-04-18T08:57:20.422Z</time></trkpt><trkpt lat="43.5213691" lon="10.8213818"><ele>105.0</ele><time>2026-04-18T08:57:21.428Z</time></trkpt><trkpt lat="43.5213739" lon="10.8214718"><ele>105.0</ele><time>2026-04-18T08:57:22.436Z</time></trkpt><trkpt lat="43.5213873" lon="10.8216169"><ele>105.0</ele><time>2026-04-18T08:57:24.425Z</time></trkpt><trkpt lat="43.5213994" lon="10.8217481"><ele>105.0</ele><time>2026-04-18T08:57:26.428Z</time></trkpt><trkpt lat="43.5214079" lon="10.8218927"><ele>105.0</ele><time>2026-04-18T08:57:28.419Z</time></trkpt><trkpt lat="43.5214121" lon="10.8220596"><ele>105.0</ele><time>2026-04-18T08:57:30.418Z</time></trkpt><trkpt lat="43.5214195" lon="10.8222099"><ele>104.8</ele><time>2026-04-18T08:57:32.422Z</time></trkpt><trkpt lat="43.5214275" lon="10.8223462"><ele>104.6</ele><time>2026-04-18T08:57:34.434Z</time></trkpt><trkpt lat="43.5214398" lon="10.8224804"><ele>104.4</ele><time>2026-04-18T08:57:36.425Z</time></trkpt><trkpt lat="43.5214901" lon="10.8225839"><ele>104.2</ele><time>2026-04-18T08:57:38.44Z</time></trkpt><trkpt lat="43.52157" lon="10.8226565"><ele>104.0</ele><time>2026-04-18T08:57:40.43Z</time></trkpt><trkpt lat="43.5216665" lon="10.822717"><ele>103.83333333333333</ele><time>2026-04-18T08:57:42.428Z</time></trkpt><trkpt lat="43.521755" lon="10.8227889"><ele>103.66666666666666</ele><time>2026-04-18T08:57:44.432Z</time></trkpt><trkpt lat="43.5218252" lon="10.8229085"><ele>103.5</ele><time>2026-04-18T08:57:46.432Z</time></trkpt><trkpt lat="43.5218569" lon="10.8229856"><ele>103.33333333333334</ele><time>2026-04-18T08:57:47.432Z</time></trkpt><trkpt lat="43.5218816" lon="10.8230689"><ele>103.16666666666667</ele><time>2026-04-18T08:57:48.431Z</time></trkpt><trkpt lat="43.5219031" lon="10.8231636"><ele>103.0</ele><time>2026-04-18T08:57:49.435Z</time></trkpt><trkpt lat="43.5219247" lon="10.8232659"><ele>103.0</ele><time>2026-04-18T08:57:50.417Z</time></trkpt><trkpt lat="43.5219458" lon="10.8233713"><ele>103.0</ele><time>2026-04-18T08:57:51.419Z</time></trkpt><trkpt lat="43.5219751" lon="10.823473"><ele>103.0</ele><time>2026-04-18T08:57:52.434Z</time></trkpt><trkpt lat="43.5220017" lon="10.8235555"><ele>103.0</ele><time>2026-04-18T08:57:53.415Z</time></trkpt><trkpt lat="43.5220278" lon="10.8237154"><ele>103.0</ele><time>2026-04-18T08:57:55.423Z</time></trkpt><trkpt lat="43.5220275" lon="10.8238648"><ele>103.0</ele><time>2026-04-18T08:57:57.43Z</time></trkpt><trkpt lat="43.5219878" lon="10.8239997"><ele>103.0</ele><time>2026-04-18T08:57:59.436Z</time></trkpt><trkpt lat="43.5219449" lon="10.8241247"><ele>103.0</ele><time>2026-04-18T08:58:01.434Z</time></trkpt><trkpt lat="43.5219028" lon="10.8242735"><ele>103.0</ele><time>2026-04-18T08:58:03.434Z</time></trkpt><trkpt lat="43.521882" lon="10.8244226"><ele>103.0</ele><time>2026-04-18T08:58:05.415Z</time></trkpt><trkpt lat="43.5218904" lon="10.8245897"><ele>102.33333333333334</ele><time>2026-04-18T08:58:07.444Z</time></trkpt><trkpt lat="43.5219115" lon="10.8247602"><ele>101.66666666666667</ele><time>2026-04-18T08:58:09.416Z</time></trkpt><trkpt lat="43.5219235" lon="10.8248614"><ele>101.0</ele><time>2026-04-18T08:58:10.416Z</time></trkpt><trkpt lat="43.5219355" lon="10.824956"><ele>100.33333333333334</ele><time>2026-04-18T08:58:11.409Z</time></trkpt><trkpt lat="43.5219499" lon="10.8250465"><ele>99.66666666666667</ele><time>2026-04-18T08:58:12.434Z</time></trkpt><trkpt lat="43.5219638" lon="10.8251327"><ele>99.0</ele><time>2026-04-18T08:58:13.433Z</time></trkpt><trkpt lat="43.5219901" lon="10.8252949"><ele>98.0</ele><time>2026-04-18T08:58:15.425Z</time></trkpt><trkpt lat="43.5220125" lon="10.8254476"><ele>97.0</ele><time>2026-04-18T08:58:17.425Z</time></trkpt><trkpt lat="43.5220214" lon="10.8256169"><ele>96.0</ele><time>2026-04-18T08:58:19.43Z</time></trkpt><trkpt lat="43.5220116" lon="10.8257192"><ele>95.0</ele><time>2026-04-18T08:58:20.421Z</time></trkpt><trkpt lat="43.5219984" lon="10.8258219"><ele>94.0</ele><time>2026-04-18T08:58:21.426Z</time></trkpt><trkpt lat="43.5219882" lon="10.8259141"><ele>94.5</ele><time>2026-04-18T08:58:22.424Z</time></trkpt><trkpt lat="43.5219795" lon="10.8260145"><ele>95.0</ele><time>2026-04-18T08:58:23.41Z</time></trkpt><trkpt lat="43.5219697" lon="10.8261115"><ele>95.5</ele><time>2026-04-18T08:58:24.418Z</time></trkpt><trkpt lat="43.5219647" lon="10.8262044"><ele>96.0</ele><time>2026-04-18T08:58:25.402Z</time></trkpt><trkpt lat="43.5219633" lon="10.8262971"><ele>96.50000000000001</ele><time>2026-04-18T08:58:26.424Z</time></trkpt><trkpt lat="43.5219953" lon="10.8264721"><ele>97.0</ele><time>2026-04-18T08:58:28.409Z</time></trkpt><trkpt lat="43.5220225" lon="10.8265712"><ele>97.00000000000001</ele><time>2026-04-18T08:58:29.416Z</time></trkpt><trkpt lat="43.5220477" lon="10.8266803"><ele>97.0</ele><time>2026-04-18T08:58:30.435Z</time></trkpt><trkpt lat="43.5220723" lon="10.8267869"><ele>97.0</ele><time>2026-04-18T08:58:31.407Z</time></trkpt><trkpt lat="43.5220926" lon="10.8268865"><ele>97.0</ele><time>2026-04-18T08:58:32.425Z</time></trkpt><trkpt lat="43.5221139" lon="10.8269762"><ele>97.00000000000001</ele><time>2026-04-18T08:58:33.423Z</time></trkpt><trkpt lat="43.5221532" lon="10.8271336"><ele>97.0</ele><time>2026-04-18T08:58:35.428Z</time></trkpt><trkpt lat="43.5221915" lon="10.8272954"><ele>97.0</ele><time>2026-04-18T08:58:37.43Z</time></trkpt><trkpt lat="43.5222196" lon="10.8274373"><ele>97.0</ele><time>2026-04-18T08:58:39.414Z</time></trkpt><trkpt lat="43.522242" lon="10.8275546"><ele>97.0</ele><time>2026-04-18T08:58:41.43Z</time></trkpt><trkpt lat="43.5222557" lon="10.8276678"><ele>97.0</ele><time>2026-04-18T08:58:43.433Z</time></trkpt><trkpt lat="43.5222437" lon="10.8278061"><ele>97.0</ele><time>2026-04-18T08:58:45.426Z</time></trkpt><trkpt lat="43.5221805" lon="10.8279293"><ele>97.00000000000001</ele><time>2026-04-18T08:58:47.423Z</time></trkpt><trkpt lat="43.5221222" lon="10.8279922"><ele>97.0</ele><time>2026-04-18T08:58:48.416Z</time></trkpt><trkpt lat="43.5220547" lon="10.8280366"><ele>97.0</ele><time>2026-04-18T08:58:49.424Z</time></trkpt><trkpt lat="43.5219737" lon="10.8280658"><ele>97.0</ele><time>2026-04-18T08:58:50.42Z</time></trkpt><trkpt lat="43.5218595" lon="10.8280889"><ele>97.00000000000001</ele><time>2026-04-18T08:58:52.425Z</time></trkpt><trkpt lat="43.5217769" lon="10.8281091"><ele>97.0</ele><time>2026-04-18T08:58:54.418Z</time></trkpt><trkpt lat="43.5217013" lon="10.8281269"><ele>99.16666666666667</ele><time>2026-04-18T08:58:56.438Z</time></trkpt><trkpt lat="43.5216136" lon="10.8281254"><ele>101.33333333333334</ele><time>2026-04-18T08:58:58.437Z</time></trkpt><trkpt lat="43.5215329" lon="10.8281324"><ele>103.5</ele><time>2026-04-18T08:59:00.431Z</time></trkpt><trkpt lat="43.5214457" lon="10.8281436"><ele>105.66666666666666</ele><time>2026-04-18T08:59:02.428Z</time></trkpt><trkpt lat="43.5213706" lon="10.8281502"><ele>107.83333333333333</ele><time>2026-04-18T08:59:04.422Z</time></trkpt><trkpt lat="43.5212897" lon="10.828157"><ele>110.0</ele><time>2026-04-18T08:59:06.428Z</time></trkpt><trkpt lat="43.5212054" lon="10.8281609"><ele>112.6</ele><time>2026-04-18T08:59:08.422Z</time></trkpt><trkpt lat="43.5211078" lon="10.8281738"><ele>115.2</ele><time>2026-04-18T08:59:10.436Z</time></trkpt><trkpt lat="43.5210035" lon="10.8281808"><ele>117.80000000000001</ele><time>2026-04-18T08:59:12.418Z</time></trkpt><trkpt lat="43.5208932" lon="10.8282116"><ele>120.4</ele><time>2026-04-18T08:59:14.423Z</time></trkpt><trkpt lat="43.5207924" lon="10.8282668"><ele>123.0</ele><time>2026-04-18T08:59:16.438Z</time></trkpt><trkpt lat="43.5206906" lon="10.8283588"><ele>123.0</ele><time>2026-04-18T08:59:18.42Z</time></trkpt><trkpt lat="43.5206101" lon="10.8284256"><ele>123.0</ele><time>2026-04-18T08:59:20.424Z</time></trkpt><trkpt lat="43.5205472" lon="10.8284655"><ele>123.0</ele><time>2026-04-18T08:59:22.424Z</time></trkpt><trkpt lat="43.5204836" lon="10.8285265"><ele>123.0</ele><time>2026-04-18T08:59:25.431Z</time></trkpt><trkpt lat="43.5204021" lon="10.8285958"><ele>123.0</ele><time>2026-04-18T08:59:28.419Z</time></trkpt><trkpt lat="43.5203187" lon="10.8286389"><ele>123.0</ele><time>2026-04-18T08:59:30.433Z</time></trkpt><trkpt lat="43.5202337" lon="10.8287069"><ele>124.33333333333333</ele><time>2026-04-18T08:59:32.427Z</time></trkpt><trkpt lat="43.5201719" lon="10.8287465"><ele>125.66666666666666</ele><time>2026-04-18T08:59:33.418Z</time></trkpt><trkpt lat="43.5201074" lon="10.8287886"><ele>127.0</ele><time>2026-04-18T08:59:34.421Z</time></trkpt><trkpt lat="43.5200253" lon="10.8288301"><ele>128.33333333333331</ele><time>2026-04-18T08:59:35.418Z</time></trkpt><trkpt lat="43.5199439" lon="10.8288692"><ele>129.66666666666666</ele><time>2026-04-18T08:59:36.418Z</time></trkpt><trkpt lat="43.5198592" lon="10.8289001"><ele>131.0</ele><time>2026-04-18T08:59:37.42Z</time></trkpt><trkpt lat="43.5197802" lon="10.8289237"><ele>131.0</ele><time>2026-04-18T08:59:38.423Z</time></trkpt><trkpt lat="43.5196981" lon="10.828953"><ele>131.0</ele><time>2026-04-18T08:59:39.42Z</time></trkpt><trkpt lat="43.5196198" lon="10.8289794"><ele>131.0</ele><time>2026-04-18T08:59:40.42Z</time></trkpt><trkpt lat="43.5195389" lon="10.8290005"><ele>131.0</ele><time>2026-04-18T08:59:41.433Z</time></trkpt><trkpt lat="43.5194588" lon="10.8290234"><ele>131.0</ele><time>2026-04-18T08:59:42.422Z</time></trkpt><trkpt lat="43.5193841" lon="10.8290495"><ele>131.0</ele><time>2026-04-18T08:59:43.429Z</time></trkpt><trkpt lat="43.5193107" lon="10.8290743"><ele>131.66666666666666</ele><time>2026-04-18T08:59:44.423Z</time></trkpt><trkpt lat="43.5192337" lon="10.8290991"><ele>132.33333333333331</ele><time>2026-04-18T08:59:45.418Z</time></trkpt><trkpt lat="43.5191636" lon="10.8291299"><ele>133.0</ele><time>2026-04-18T08:59:46.417Z</time></trkpt><trkpt lat="43.5190883" lon="10.8291623"><ele>133.66666666666666</ele><time>2026-04-18T08:59:47.413Z</time></trkpt><trkpt lat="43.5190146" lon="10.829191"><ele>134.33333333333334</ele><time>2026-04-18T08:59:48.426Z</time></trkpt><trkpt lat="43.5189412" lon="10.8292253"><ele>135.0</ele><time>2026-04-18T08:59:49.416Z</time></trkpt><trkpt lat="43.5188742" lon="10.8292533"><ele>135.0</ele><time>2026-04-18T08:59:50.429Z</time></trkpt><trkpt lat="43.5188078" lon="10.8292849"><ele>135.0</ele><time>2026-04-18T08:59:51.431Z</time></trkpt><trkpt lat="43.5187425" lon="10.8293272"><ele>135.0</ele><time>2026-04-18T08:59:52.43Z</time></trkpt><trkpt lat="43.5186773" lon="10.8293653"><ele>135.0</ele><time>2026-04-18T08:59:53.423Z</time></trkpt><trkpt lat="43.5186159" lon="10.8294025"><ele>135.0</ele><time>2026-04-18T08:59:54.442Z</time></trkpt><trkpt lat="43.5185493" lon="10.8294343"><ele>135.0</ele><time>2026-04-18T08:59:55.422Z</time></trkpt><trkpt lat="43.5184844" lon="10.8294597"><ele>135.0</ele><time>2026-04-18T08:59:56.423Z</time></trkpt><trkpt lat="43.5184194" lon="10.8294868"><ele>136.6</ele><time>2026-04-18T08:59:57.418Z</time></trkpt><trkpt lat="43.5183019" lon="10.8295252"><ele>138.2</ele><time>2026-04-18T08:59:59.419Z</time></trkpt><trkpt lat="43.518184" lon="10.8295677"><ele>139.8</ele><time>2026-04-18T09:00:01.414Z</time></trkpt><trkpt lat="43.5180788" lon="10.8296058"><ele>141.4</ele><time>2026-04-18T09:00:03.417Z</time></trkpt><trkpt lat="43.5180041" lon="10.8296259"><ele>143.0</ele><time>2026-04-18T09:00:05.414Z</time></trkpt><trkpt lat="43.517924" lon="10.8296677"><ele>145.83333333333331</ele><time>2026-04-18T09:00:07.428Z</time></trkpt><trkpt lat="43.5178359" lon="10.8297098"><ele>148.66666666666666</ele><time>2026-04-18T09:00:09.426Z</time></trkpt><trkpt lat="43.5177512" lon="10.8297411"><ele>151.5</ele><time>2026-04-18T09:00:11.419Z</time></trkpt><trkpt lat="43.5176554" lon="10.8297829"><ele>154.33333333333334</ele><time>2026-04-18T09:00:13.427Z</time></trkpt><trkpt lat="43.517574" lon="10.8298253"><ele>157.16666666666669</ele><time>2026-04-18T09:00:15.426Z</time></trkpt><trkpt lat="43.5175126" lon="10.8298666"><ele>160.0</ele><time>2026-04-18T09:00:17.42Z</time></trkpt><trkpt lat="43.5174349" lon="10.8299491"><ele>160.0</ele><time>2026-04-18T09:00:20.433Z</time></trkpt><trkpt lat="43.5173726" lon="10.8300585"><ele>160.0</ele><time>2026-04-18T09:00:22.418Z</time></trkpt><trkpt lat="43.5173213" lon="10.8301676"><ele>160.0</ele><time>2026-04-18T09:00:24.419Z</time></trkpt><trkpt lat="43.5172759" lon="10.8302486"><ele>160.0</ele><time>2026-04-18T09:00:27.417Z</time></trkpt><trkpt lat="43.5172306" lon="10.8303413"><ele>160.0</ele><time>2026-04-18T09:00:33.43Z</time></trkpt><trkpt lat="43.5171981" lon="10.8304302"><ele>160.0</ele><time>2026-04-18T09:00:37.425Z</time></trkpt><trkpt lat="43.5171537" lon="10.8305325"><ele>159.66666666666669</ele><time>2026-04-18T09:00:44.433Z</time></trkpt><trkpt lat="43.5170938" lon="10.8306152"><ele>159.33333333333334</ele><time>2026-04-18T09:00:47.432Z</time></trkpt><trkpt lat="43.5170425" lon="10.8307002"><ele>159.0</ele><time>2026-04-18T09:00:49.424Z</time></trkpt><trkpt lat="43.5170021" lon="10.83078"><ele>158.66666666666666</ele><time>2026-04-18T09:00:51.439Z</time></trkpt><trkpt lat="43.5169463" lon="10.8308768"><ele>158.33333333333331</ele><time>2026-04-18T09:00:53.415Z</time></trkpt><trkpt lat="43.5169037" lon="10.8309739"><ele>158.0</ele><time>2026-04-18T09:00:55.43Z</time></trkpt><trkpt lat="43.5168531" lon="10.8310666"><ele>160.71428571428572</ele><time>2026-04-18T09:00:57.43Z</time></trkpt><trkpt lat="43.5168066" lon="10.8311559"><ele>163.42857142857144</ele><time>2026-04-18T09:00:59.425Z</time></trkpt><trkpt lat="43.5167693" lon="10.8312266"><ele>166.14285714285717</ele><time>2026-04-18T09:01:01.423Z</time></trkpt><trkpt lat="43.5167426" lon="10.8313055"><ele>168.85714285714286</ele><time>2026-04-18T09:01:06.42Z</time></trkpt><trkpt lat="43.5166934" lon="10.8313898"><ele>171.57142857142856</ele><time>2026-04-18T09:01:09.423Z</time></trkpt><trkpt lat="43.5166459" lon="10.8314598"><ele>174.2857142857143</ele><time>2026-04-18T09:01:12.435Z</time></trkpt><trkpt lat="43.5166012" lon="10.8315276"><ele>177.0</ele><time>2026-04-18T09:01:14.406Z</time></trkpt><trkpt lat="43.5165407" lon="10.8316062"><ele>177.0</ele><time>2026-04-18T09:01:16.41Z</time></trkpt><trkpt lat="43.5164818" lon="10.8316856"><ele>177.0</ele><time>2026-04-18T09:01:18.406Z</time></trkpt><trkpt lat="43.5164334" lon="10.8317637"><ele>177.0</ele><time>2026-04-18T09:01:20.414Z</time></trkpt><trkpt lat="43.5163634" lon="10.8318329"><ele>177.0</ele><time>2026-04-18T09:01:22.422Z</time></trkpt><trkpt lat="43.5162831" lon="10.831864"><ele>177.0</ele><time>2026-04-18T09:01:24.421Z</time></trkpt><trkpt lat="43.5161991" lon="10.8318874"><ele>177.0</ele><time>2026-04-18T09:01:26.437Z</time></trkpt><trkpt lat="43.5161254" lon="10.831881"><ele>176.16666666666666</ele><time>2026-04-18T09:01:28.453Z</time></trkpt><trkpt lat="43.5160267" lon="10.8318564"><ele>175.33333333333334</ele><time>2026-04-18T09:01:31.435Z</time></trkpt><trkpt lat="43.5159516" lon="10.8318014"><ele>174.5</ele><time>2026-04-18T09:01:33.43Z</time></trkpt><trkpt lat="43.5158879" lon="10.8317296"><ele>173.66666666666669</ele><time>2026-04-18T09:01:35.431Z</time></trkpt><trkpt lat="43.5158263" lon="10.8316305"><ele>172.83333333333334</ele><time>2026-04-18T09:01:37.428Z</time></trkpt><trkpt lat="43.5157685" lon="10.8315558"><ele>172.0</ele><time>2026-04-18T09:01:39.429Z</time></trkpt><trkpt lat="43.5157129" lon="10.8314869"><ele>174.16666666666669</ele><time>2026-04-18T09:01:41.422Z</time></trkpt><trkpt lat="43.5156534" lon="10.8314283"><ele>176.33333333333334</ele><time>2026-04-18T09:01:43.429Z</time></trkpt><trkpt lat="43.5155884" lon="10.8313627"><ele>178.5</ele><time>2026-04-18T09:01:45.419Z</time></trkpt><trkpt lat="43.5154965" lon="10.8312962"><ele>180.66666666666666</ele><time>2026-04-18T09:01:47.434Z</time></trkpt><trkpt lat="43.5154051" lon="10.8312264"><ele>182.83333333333331</ele><time>2026-04-18T09:01:49.422Z</time></trkpt><trkpt lat="43.5153406" lon="10.8311813"><ele>185.0</ele><time>2026-04-18T09:01:51.413Z</time></trkpt><trkpt lat="43.51527" lon="10.8311271"><ele>185.0</ele><time>2026-04-18T09:01:55.427Z</time></trkpt><trkpt lat="43.5151899" lon="10.8310858"><ele>185.0</ele><time>2026-04-18T09:01:57.429Z</time></trkpt><trkpt lat="43.5151" lon="10.8310211"><ele>185.0</ele><time>2026-04-18T09:01:59.424Z</time></trkpt><trkpt lat="43.5150371" lon="10.8310021"><ele>185.0</ele><time>2026-04-18T09:02:00.431Z</time></trkpt><trkpt lat="43.5149541" lon="10.8309766"><ele>185.0</ele><time>2026-04-18T09:02:01.431Z</time></trkpt><trkpt lat="43.5148693" lon="10.8309567"><ele>185.0</ele><time>2026-04-18T09:02:02.429Z</time></trkpt><trkpt lat="43.5147836" lon="10.8309486"><ele>185.8</ele><time>2026-04-18T09:02:03.443Z</time></trkpt><trkpt lat="43.5146996" lon="10.8309485"><ele>186.6</ele><time>2026-04-18T09:02:04.437Z</time></trkpt><trkpt lat="43.5146058" lon="10.8309445"><ele>187.39999999999998</ele><time>2026-04-18T09:02:05.438Z</time></trkpt><trkpt lat="43.5145049" lon="10.830956"><ele>188.2</ele><time>2026-04-18T09:02:06.428Z</time></trkpt><trkpt lat="43.5144075" lon="10.8309742"><ele>189.0</ele><time>2026-04-18T09:02:07.411Z</time></trkpt><trkpt lat="43.5143129" lon="10.830994"><ele>189.0</ele><time>2026-04-18T09:02:08.427Z</time></trkpt><trkpt lat="43.5142231" lon="10.8310063"><ele>189.0</ele><time>2026-04-18T09:02:09.427Z</time></trkpt><trkpt lat="43.5141381" lon="10.831012"><ele>189.0</ele><time>2026-04-18T09:02:10.42Z</time></trkpt><trkpt lat="43.5140597" lon="10.8310148"><ele>189.0</ele><time>2026-04-18T09:02:11.43Z</time></trkpt><trkpt lat="43.5139881" lon="10.831023"><ele>189.0</ele><time>2026-04-18T09:02:12.417Z</time></trkpt><trkpt lat="43.5138833" lon="10.8310238"><ele>189.0</ele><time>2026-04-18T09:02:14.42Z</time></trkpt><trkpt lat="43.5137954" lon="10.8310348"><ele>192.0</ele><time>2026-04-18T09:02:16.415Z</time></trkpt><trkpt lat="43.5137056" lon="10.8310777"><ele>195.0</ele><time>2026-04-18T09:02:18.436Z</time></trkpt><trkpt lat="43.5136187" lon="10.8311328"><ele>198.0</ele><time>2026-04-18T09:02:20.422Z</time></trkpt><trkpt lat="43.5135338" lon="10.8311835"><ele>201.0</ele><time>2026-04-18T09:02:22.434Z</time></trkpt><trkpt lat="43.5134523" lon="10.8312203"><ele>204.0</ele><time>2026-04-18T09:02:24.422Z</time></trkpt><trkpt lat="43.5133636" lon="10.8312415"><ele>204.0</ele><time>2026-04-18T09:02:26.425Z</time></trkpt><trkpt lat="43.5132575" lon="10.831279"><ele>204.0</ele><time>2026-04-18T09:02:28.428Z</time></trkpt><trkpt lat="43.5131854" lon="10.8313397"><ele>204.0</ele><time>2026-04-18T09:02:29.428Z</time></trkpt><trkpt lat="43.5131137" lon="10.8314191"><ele>204.0</ele><time>2026-04-18T09:02:30.424Z</time></trkpt><trkpt lat="43.5130535" lon="10.8315014"><ele>204.0</ele><time>2026-04-18T09:02:31.417Z</time></trkpt><trkpt lat="43.5130015" lon="10.8315722"><ele>204.0</ele><time>2026-04-18T09:02:32.419Z</time></trkpt><trkpt lat="43.5129557" lon="10.8316428"><ele>205.33333333333334</ele><time>2026-04-18T09:02:33.412Z</time></trkpt><trkpt lat="43.5128775" lon="10.8317717"><ele>206.66666666666669</ele><time>2026-04-18T09:02:35.413Z</time></trkpt><trkpt lat="43.5127911" lon="10.8318885"><ele>208.0</ele><time>2026-04-18T09:02:37.424Z</time></trkpt><trkpt lat="43.5127364" lon="10.8319383"><ele>209.33333333333334</ele><time>2026-04-18T09:02:38.441Z</time></trkpt><trkpt lat="43.5126725" lon="10.8319781"><ele>210.66666666666669</ele><time>2026-04-18T09:02:39.43Z</time></trkpt><trkpt lat="43.5126131" lon="10.8320132"><ele>212.0</ele><time>2026-04-18T09:02:40.431Z</time></trkpt><trkpt lat="43.5125466" lon="10.8320607"><ele>212.0</ele><time>2026-04-18T09:02:41.413Z</time></trkpt><trkpt lat="43.5124906" lon="10.8321051"><ele>212.0</ele><time>2026-04-18T09:02:42.433Z</time></trkpt><trkpt lat="43.5123867" lon="10.8321579"><ele>212.0</ele><time>2026-04-18T09:02:44.414Z</time></trkpt><trkpt lat="43.5122772" lon="10.8322262"><ele>212.0</ele><time>2026-04-18T09:02:46.436Z</time></trkpt><trkpt lat="43.5122011" lon="10.8323139"><ele>212.0</ele><time>2026-04-18T09:02:48.434Z</time></trkpt><trkpt lat="43.5121582" lon="10.8323811"><ele>212.00000000000003</ele><time>2026-04-18T09:02:50.433Z</time></trkpt><trkpt lat="43.5121085" lon="10.8324662"><ele>212.0</ele><time>2026-04-18T09:02:52.43Z</time></trkpt><trkpt lat="43.5120425" lon="10.8325816"><ele>212.0</ele><time>2026-04-18T09:02:54.425Z</time></trkpt><trkpt lat="43.5120067" lon="10.8326637"><ele>212.0</ele><time>2026-04-18T09:02:55.423Z</time></trkpt><trkpt lat="43.5119772" lon="10.8327504"><ele>212.00000000000003</ele><time>2026-04-18T09:02:56.442Z</time></trkpt><trkpt lat="43.5119467" lon="10.832837"><ele>212.0</ele><time>2026-04-18T09:02:57.437Z</time></trkpt><trkpt lat="43.5119078" lon="10.8329309"><ele>209.83333333333334</ele><time>2026-04-18T09:02:58.43Z</time></trkpt><trkpt lat="43.5118754" lon="10.8330172"><ele>207.66666666666669</ele><time>2026-04-18T09:02:59.421Z</time></trkpt><trkpt lat="43.5118387" lon="10.8331086"><ele>205.5</ele><time>2026-04-18T09:03:00.433Z</time></trkpt><trkpt lat="43.5117946" lon="10.8331897"><ele>203.33333333333331</ele><time>2026-04-18T09:03:01.436Z</time></trkpt><trkpt lat="43.5117547" lon="10.8332656"><ele>201.16666666666666</ele><time>2026-04-18T09:03:02.424Z</time></trkpt><trkpt lat="43.5116815" lon="10.8333852"><ele>199.0</ele><time>2026-04-18T09:03:04.423Z</time></trkpt><trkpt lat="43.5116132" lon="10.8334648"><ele>199.39999999999998</ele><time>2026-04-18T09:03:06.432Z</time></trkpt><trkpt lat="43.5115265" lon="10.8335062"><ele>199.8</ele><time>2026-04-18T09:03:08.475Z</time></trkpt><trkpt lat="43.5114306" lon="10.8335983"><ele>200.2</ele><time>2026-04-18T09:03:10.429Z</time></trkpt><trkpt lat="43.5113234" lon="10.8336762"><ele>200.60000000000002</ele><time>2026-04-18T09:03:12.422Z</time></trkpt><trkpt lat="43.5112633" lon="10.8337282"><ele>201.0</ele><time>2026-04-18T09:03:13.441Z</time></trkpt><trkpt lat="43.5111586" lon="10.8338272"><ele>201.0</ele><time>2026-04-18T09:03:15.424Z</time></trkpt><trkpt lat="43.5110783" lon="10.833913"><ele>201.0</ele><time>2026-04-18T09:03:17.427Z</time></trkpt><trkpt lat="43.5110561" lon="10.8340286"><ele>201.0</ele><time>2026-04-18T09:03:19.432Z</time></trkpt><trkpt lat="43.511083" lon="10.8341895"><ele>201.0</ele><time>2026-04-18T09:03:21.42Z</time></trkpt><trkpt lat="43.5111128" lon="10.8343263"><ele>201.0</ele><time>2026-04-18T09:03:23.427Z</time></trkpt><trkpt lat="43.511135" lon="10.8344593"><ele>200.60000000000002</ele><time>2026-04-18T09:03:25.431Z</time></trkpt><trkpt lat="43.5111378" lon="10.8345933"><ele>200.2</ele><time>2026-04-18T09:03:27.428Z</time></trkpt><trkpt lat="43.5111208" lon="10.8347474"><ele>199.8</ele><time>2026-04-18T09:03:29.423Z</time></trkpt><trkpt lat="43.5110811" lon="10.8348881"><ele>199.39999999999998</ele><time>2026-04-18T09:03:31.429Z</time></trkpt><trkpt lat="43.5110458" lon="10.8350037"><ele>199.0</ele><time>2026-04-18T09:03:33.428Z</time></trkpt><trkpt lat="43.5110177" lon="10.8350815"><ele>197.39999999999998</ele><time>2026-04-18T09:03:35.427Z</time></trkpt><trkpt lat="43.5109691" lon="10.8352084"><ele>195.8</ele><time>2026-04-18T09:03:38.435Z</time></trkpt><trkpt lat="43.5109289" lon="10.8353426"><ele>194.2</ele><time>2026-04-18T09:03:40.418Z</time></trkpt><trkpt lat="43.5109013" lon="10.8355172"><ele>192.60000000000002</ele><time>2026-04-18T09:03:42.43Z</time></trkpt><trkpt lat="43.5108812" lon="10.8356128"><ele>191.0</ele><time>2026-04-18T09:03:43.413Z</time></trkpt><trkpt lat="43.5108676" lon="10.8357082"><ele>191.0</ele><time>2026-04-18T09:03:44.426Z</time></trkpt><trkpt lat="43.5108588" lon="10.8358203"><ele>191.0</ele><time>2026-04-18T09:03:45.436Z</time></trkpt><trkpt lat="43.5108526" lon="10.8359318"><ele>191.0</ele><time>2026-04-18T09:03:46.43Z</time></trkpt><trkpt lat="43.5108525" lon="10.8360357"><ele>191.0</ele><time>2026-04-18T09:03:47.424Z</time></trkpt><trkpt lat="43.5108555" lon="10.8361288"><ele>191.0</ele><time>2026-04-18T09:03:48.418Z</time></trkpt><trkpt lat="43.5108586" lon="10.8362162"><ele>191.0</ele><time>2026-04-18T09:03:49.424Z</time></trkpt><trkpt lat="43.5108679" lon="10.8363709"><ele>190.83333333333331</ele><time>2026-04-18T09:03:51.43Z</time></trkpt><trkpt lat="43.5108697" lon="10.8365375"><ele>190.66666666666666</ele><time>2026-04-18T09:03:53.422Z</time></trkpt><trkpt lat="43.5108617" lon="10.8366305"><ele>190.5</ele><time>2026-04-18T09:03:54.418Z</time></trkpt><trkpt lat="43.5108607" lon="10.836726"><ele>190.33333333333334</ele><time>2026-04-18T09:03:55.428Z</time></trkpt><trkpt lat="43.5108618" lon="10.8368189"><ele>190.16666666666669</ele><time>2026-04-18T09:03:56.419Z</time></trkpt><trkpt lat="43.5108633" lon="10.8369118"><ele>190.0</ele><time>2026-04-18T09:03:57.412Z</time></trkpt><trkpt lat="43.5108601" lon="10.8370053"><ele>190.0</ele><time>2026-04-18T09:03:58.431Z</time></trkpt><trkpt lat="43.5108522" lon="10.837099"><ele>190.0</ele><time>2026-04-18T09:03:59.422Z</time></trkpt><trkpt lat="43.5108398" lon="10.8371879"><ele>190.0</ele><time>2026-04-18T09:04:00.432Z</time></trkpt><trkpt lat="43.5108258" lon="10.8372767"><ele>190.0</ele><time>2026-04-18T09:04:01.435Z</time></trkpt><trkpt lat="43.5108021" lon="10.8373695"><ele>190.0</ele><time>2026-04-18T09:04:02.423Z</time></trkpt><trkpt lat="43.5107779" lon="10.8374519"><ele>190.0</ele><time>2026-04-18T09:04:03.436Z</time></trkpt><trkpt lat="43.5107379" lon="10.837537"><ele>190.0</ele><time>2026-04-18T09:04:04.433Z</time></trkpt><trkpt lat="43.5107023" lon="10.8376261"><ele>190.16666666666669</ele><time>2026-04-18T09:04:05.425Z</time></trkpt><trkpt lat="43.5106778" lon="10.8377342"><ele>190.33333333333334</ele><time>2026-04-18T09:04:06.429Z</time></trkpt><trkpt lat="43.5106636" lon="10.8378498"><ele>190.5</ele><time>2026-04-18T09:04:07.431Z</time></trkpt><trkpt lat="43.5106592" lon="10.8379668"><ele>190.66666666666666</ele><time>2026-04-18T09:04:08.419Z</time></trkpt><trkpt lat="43.5106663" lon="10.8380937"><ele>190.83333333333331</ele><time>2026-04-18T09:04:09.434Z</time></trkpt><trkpt lat="43.5106815" lon="10.8382166"><ele>191.0</ele><time>2026-04-18T09:04:10.419Z</time></trkpt><trkpt lat="43.5106999" lon="10.8383383"><ele>191.0</ele><time>2026-04-18T09:04:11.403Z</time></trkpt><trkpt lat="43.5107284" lon="10.8384443"><ele>191.0</ele><time>2026-04-18T09:04:12.408Z</time></trkpt><trkpt lat="43.5107643" lon="10.8385357"><ele>191.0</ele><time>2026-04-18T09:04:13.406Z</time></trkpt><trkpt lat="43.5107973" lon="10.838671"><ele>191.0</ele><time>2026-04-18T09:04:15.422Z</time></trkpt><trkpt lat="43.5108059" lon="10.8387701"><ele>191.0</ele><time>2026-04-18T09:04:17.425Z</time></trkpt><trkpt lat="43.5108008" lon="10.8388967"><ele>191.0</ele><time>2026-04-18T09:04:19.415Z</time></trkpt><trkpt lat="43.5107863" lon="10.8390548"><ele>190.33333333333331</ele><time>2026-04-18T09:04:21.42Z</time></trkpt><trkpt lat="43.5107723" lon="10.8391409"><ele>189.66666666666666</ele><time>2026-04-18T09:04:22.427Z</time></trkpt><trkpt lat="43.5107339" lon="10.8392981"><ele>189.0</ele><time>2026-04-18T09:04:24.416Z</time></trkpt><trkpt lat="43.5107045" lon="10.839378"><ele>188.33333333333334</ele><time>2026-04-18T09:04:25.415Z</time></trkpt><trkpt lat="43.5106782" lon="10.8394722"><ele>187.66666666666669</ele><time>2026-04-18T09:04:26.415Z</time></trkpt><trkpt lat="43.5106622" lon="10.8395761"><ele>187.0</ele><time>2026-04-18T09:04:27.417Z</time></trkpt><trkpt lat="43.5106588" lon="10.839686"><ele>186.39999999999998</ele><time>2026-04-18T09:04:28.426Z</time></trkpt><trkpt lat="43.5106599" lon="10.8398027"><ele>185.79999999999998</ele><time>2026-04-18T09:04:29.42Z</time></trkpt><trkpt lat="43.5106743" lon="10.8399336"><ele>185.2</ele><time>2026-04-18T09:04:30.425Z</time></trkpt><trkpt lat="43.5106876" lon="10.8400611"><ele>184.6</ele><time>2026-04-18T09:04:31.446Z</time></trkpt><trkpt lat="43.5107045" lon="10.8402036"><ele>184.0</ele><time>2026-04-18T09:04:32.429Z</time></trkpt><trkpt lat="43.5107264" lon="10.8403446"><ele>183.79999999999998</ele><time>2026-04-18T09:04:33.408Z</time></trkpt><trkpt lat="43.5107508" lon="10.8404909"><ele>183.6</ele><time>2026-04-18T09:04:34.412Z</time></trkpt><trkpt lat="43.5107786" lon="10.8406334"><ele>183.4</ele><time>2026-04-18T09:04:35.422Z</time></trkpt><trkpt lat="43.5107979" lon="10.8407863"><ele>183.2</ele><time>2026-04-18T09:04:36.418Z</time></trkpt><trkpt lat="43.5108138" lon="10.8409418"><ele>183.0</ele><time>2026-04-18T09:04:37.435Z</time></trkpt><trkpt lat="43.5108296" lon="10.8410966"><ele>183.0</ele><time>2026-04-18T09:04:38.417Z</time></trkpt><trkpt lat="43.510843" lon="10.8412532"><ele>183.0</ele><time>2026-04-18T09:04:39.407Z</time></trkpt><trkpt lat="43.5108519" lon="10.8414134"><ele>183.0</ele><time>2026-04-18T09:04:40.403Z</time></trkpt><trkpt lat="43.5108638" lon="10.8415602"><ele>183.0</ele><time>2026-04-18T09:04:41.42Z</time></trkpt><trkpt lat="43.5108866" lon="10.8417032"><ele>183.0</ele><time>2026-04-18T09:04:42.416Z</time></trkpt><trkpt lat="43.510913" lon="10.8418348"><ele>183.4</ele><time>2026-04-18T09:04:43.419Z</time></trkpt><trkpt lat="43.5109497" lon="10.8419657"><ele>183.8</ele><time>2026-04-18T09:04:44.427Z</time></trkpt><trkpt lat="43.5109966" lon="10.8420946"><ele>184.2</ele><time>2026-04-18T09:04:45.435Z</time></trkpt><trkpt lat="43.5110426" lon="10.8422199"><ele>184.6</ele><time>2026-04-18T09:04:46.428Z</time></trkpt><trkpt lat="43.5110813" lon="10.8423525"><ele>185.0</ele><time>2026-04-18T09:04:47.429Z</time></trkpt><trkpt lat="43.5111117" lon="10.8424957"><ele>184.6</ele><time>2026-04-18T09:04:48.439Z</time></trkpt><trkpt lat="43.5111202" lon="10.8426376"><ele>184.2</ele><time>2026-04-18T09:04:49.426Z</time></trkpt><trkpt lat="43.5111235" lon="10.8427761"><ele>183.8</ele><time>2026-04-18T09:04:50.432Z</time></trkpt><trkpt lat="43.5111247" lon="10.8429052"><ele>183.4</ele><time>2026-04-18T09:04:51.431Z</time></trkpt><trkpt lat="43.5111253" lon="10.8430211"><ele>183.0</ele><time>2026-04-18T09:04:52.413Z</time></trkpt><trkpt lat="43.5111094" lon="10.843135"><ele>183.0</ele><time>2026-04-18T09:04:53.442Z</time></trkpt><trkpt lat="43.5110886" lon="10.8432437"><ele>183.0</ele><time>2026-04-18T09:04:54.44Z</time></trkpt><trkpt lat="43.5110716" lon="10.8433467"><ele>183.0</ele><time>2026-04-18T09:04:55.433Z</time></trkpt><trkpt lat="43.5110511" lon="10.8434598"><ele>183.0</ele><time>2026-04-18T09:04:56.433Z</time></trkpt><trkpt lat="43.5110345" lon="10.8435683"><ele>183.0</ele><time>2026-04-18T09:04:57.42Z</time></trkpt><trkpt lat="43.5110153" lon="10.8436729"><ele>183.0</ele><time>2026-04-18T09:04:58.437Z</time></trkpt><trkpt lat="43.5109998" lon="10.8437762"><ele>182.33333333333334</ele><time>2026-04-18T09:04:59.443Z</time></trkpt><trkpt lat="43.5109935" lon="10.843882"><ele>181.66666666666666</ele><time>2026-04-18T09:05:00.427Z</time></trkpt><trkpt lat="43.5109992" lon="10.8440045"><ele>181.0</ele><time>2026-04-18T09:05:01.437Z</time></trkpt><trkpt lat="43.5110162" lon="10.8441314"><ele>180.33333333333331</ele><time>2026-04-18T09:05:02.421Z</time></trkpt><trkpt lat="43.5110343" lon="10.8442555"><ele>179.66666666666666</ele><time>2026-04-18T09:05:03.425Z</time></trkpt><trkpt lat="43.5110462" lon="10.844377"><ele>179.0</ele><time>2026-04-18T09:05:04.424Z</time></trkpt><trkpt lat="43.5110604" lon="10.8444886"><ele>178.16666666666666</ele><time>2026-04-18T09:05:05.431Z</time></trkpt><trkpt lat="43.5110733" lon="10.8445746"><ele>177.33333333333331</ele><time>2026-04-18T09:05:06.433Z</time></trkpt><trkpt lat="43.511104" lon="10.8447122"><ele>176.5</ele><time>2026-04-18T09:05:08.433Z</time></trkpt><trkpt lat="43.511144" lon="10.8447877"><ele>175.66666666666666</ele><time>2026-04-18T09:05:10.447Z</time></trkpt><trkpt lat="43.5111709" lon="10.8448668"><ele>174.83333333333334</ele><time>2026-04-18T09:05:12.439Z</time></trkpt><trkpt lat="43.511208" lon="10.844951"><ele>174.0</ele><time>2026-04-18T09:05:14.434Z</time></trkpt><trkpt lat="43.5112699" lon="10.8450619"><ele>174.5</ele><time>2026-04-18T09:05:16.431Z</time></trkpt><trkpt lat="43.5113035" lon="10.8451362"><ele>175.0</ele><time>2026-04-18T09:05:17.441Z</time></trkpt><trkpt lat="43.5113375" lon="10.84522"><ele>175.5</ele><time>2026-04-18T09:05:18.43Z</time></trkpt><trkpt lat="43.5114049" lon="10.8453664"><ele>176.0</ele><time>2026-04-18T09:05:20.434Z</time></trkpt><trkpt lat="43.5114814" lon="10.8455019"><ele>176.5</ele><time>2026-04-18T09:05:22.432Z</time></trkpt><trkpt lat="43.5115253" lon="10.8455694"><ele>177.0</ele><time>2026-04-18T09:05:23.431Z</time></trkpt><trkpt lat="43.5115679" lon="10.8456349"><ele>177.0</ele><time>2026-04-18T09:05:24.44Z</time></trkpt><trkpt lat="43.5116442" lon="10.8457712"><ele>177.0</ele><time>2026-04-18T09:05:26.423Z</time></trkpt><trkpt lat="43.5116756" lon="10.845847"><ele>177.0</ele><time>2026-04-18T09:05:27.423Z</time></trkpt><trkpt lat="43.5117089" lon="10.8459397"><ele>177.0</ele><time>2026-04-18T09:05:28.437Z</time></trkpt><trkpt lat="43.5117333" lon="10.8460402"><ele>177.0</ele><time>2026-04-18T09:05:29.439Z</time></trkpt><trkpt lat="43.5117459" lon="10.8461524"><ele>177.0</ele><time>2026-04-18T09:05:30.44Z</time></trkpt><trkpt lat="43.5117533" lon="10.846269"><ele>177.33333333333334</ele><time>2026-04-18T09:05:31.452Z</time></trkpt><trkpt lat="43.5117492" lon="10.8463781"><ele>177.66666666666666</ele><time>2026-04-18T09:05:32.434Z</time></trkpt><trkpt lat="43.511733" lon="10.8464887"><ele>178.0</ele><time>2026-04-18T09:05:33.429Z</time></trkpt><trkpt lat="43.5117179" lon="10.8466033"><ele>178.33333333333331</ele><time>2026-04-18T09:05:34.426Z</time></trkpt><trkpt lat="43.5116988" lon="10.8467141"><ele>178.66666666666666</ele><time>2026-04-18T09:05:35.421Z</time></trkpt><trkpt lat="43.5116829" lon="10.8468003"><ele>179.0</ele><time>2026-04-18T09:05:36.438Z</time></trkpt><trkpt lat="43.5116555" lon="10.8469399"><ele>179.00000000000003</ele><time>2026-04-18T09:05:38.45Z</time></trkpt><trkpt lat="43.5116366" lon="10.8470456"><ele>179.0</ele><time>2026-04-18T09:05:40.441Z</time></trkpt><trkpt lat="43.5116226" lon="10.8471586"><ele>179.0</ele><time>2026-04-18T09:05:43.421Z</time></trkpt><trkpt lat="43.5116233" lon="10.8472563"><ele>179.0</ele><time>2026-04-18T09:05:45.437Z</time></trkpt><trkpt lat="43.5116424" lon="10.8473402"><ele>179.0</ele><time>2026-04-18T09:05:47.426Z</time></trkpt><trkpt lat="43.5116672" lon="10.8474512"><ele>179.00000000000003</ele><time>2026-04-18T09:05:50.442Z</time></trkpt><trkpt lat="43.5116863" lon="10.847534"><ele>179.0</ele><time>2026-04-18T09:05:52.445Z</time></trkpt><trkpt lat="43.5116957" lon="10.8476443"><ele>179.00000000000003</ele><time>2026-04-18T09:05:54.413Z</time></trkpt><trkpt lat="43.5117089" lon="10.8477348"><ele>179.0</ele><time>2026-04-18T09:05:56.426Z</time></trkpt><trkpt lat="43.51172" lon="10.8478293"><ele>179.0</ele><time>2026-04-18T09:05:58.443Z</time></trkpt><trkpt lat="43.511729" lon="10.8479269"><ele>179.0</ele><time>2026-04-18T09:06:00.43Z</time></trkpt><trkpt lat="43.5117399" lon="10.8480163"><ele>179.0</ele><time>2026-04-18T09:06:02.429Z</time></trkpt><trkpt lat="43.511753" lon="10.848145"><ele>179.00000000000003</ele><time>2026-04-18T09:06:05.425Z</time></trkpt><trkpt lat="43.5117674" lon="10.8482335"><ele>179.0</ele><time>2026-04-18T09:06:07.43Z</time></trkpt><trkpt lat="43.5117874" lon="10.8483197"><ele>179.0</ele><time>2026-04-18T09:06:09.439Z</time></trkpt><trkpt lat="43.5118274" lon="10.8484366"><ele>179.0</ele><time>2026-04-18T09:06:12.422Z</time></trkpt><trkpt lat="43.5118503" lon="10.8485318"><ele>179.0</ele><time>2026-04-18T09:06:14.438Z</time></trkpt><trkpt lat="43.5118761" lon="10.8486645"><ele>179.0</ele><time>2026-04-18T09:06:16.429Z</time></trkpt><trkpt lat="43.5119086" lon="10.8487913"><ele>179.0</ele><time>2026-04-18T09:06:18.43Z</time></trkpt><trkpt lat="43.5119591" lon="10.8489398"><ele>178.6</ele><time>2026-04-18T09:06:20.439Z</time></trkpt><trkpt lat="43.5120201" lon="10.8490727"><ele>178.2</ele><time>2026-04-18T09:06:22.451Z</time></trkpt><trkpt lat="43.5120906" lon="10.8491927"><ele>177.79999999999998</ele><time>2026-04-18T09:06:24.437Z</time></trkpt><trkpt lat="43.5121315" lon="10.8492672"><ele>177.39999999999998</ele><time>2026-04-18T09:06:25.434Z</time></trkpt><trkpt lat="43.5121729" lon="10.8493346"><ele>177.0</ele><time>2026-04-18T09:06:26.426Z</time></trkpt><trkpt lat="43.512256" lon="10.8494539"><ele>176.0</ele><time>2026-04-18T09:06:28.428Z</time></trkpt><trkpt lat="43.5123396" lon="10.8495804"><ele>175.0</ele><time>2026-04-18T09:06:30.418Z</time></trkpt><trkpt lat="43.5124166" lon="10.8496965"><ele>174.0</ele><time>2026-04-18T09:06:32.447Z</time></trkpt><trkpt lat="43.5124902" lon="10.8498066"><ele>173.0</ele><time>2026-04-18T09:06:34.416Z</time></trkpt><trkpt lat="43.5125665" lon="10.8499161"><ele>173.0</ele><time>2026-04-18T09:06:36.437Z</time></trkpt><trkpt lat="43.5126491" lon="10.8500322"><ele>173.0</ele><time>2026-04-18T09:06:38.44Z</time></trkpt><trkpt lat="43.5127415" lon="10.8501354"><ele>173.0</ele><time>2026-04-18T09:06:40.438Z</time></trkpt><trkpt lat="43.5128344" lon="10.8502323"><ele>173.0</ele><time>2026-04-18T09:06:42.438Z</time></trkpt><trkpt lat="43.5129302" lon="10.850342"><ele>172.4</ele><time>2026-04-18T09:06:44.422Z</time></trkpt><trkpt lat="43.5130169" lon="10.8504519"><ele>171.8</ele><time>2026-04-18T09:06:46.443Z</time></trkpt><trkpt lat="43.5130933" lon="10.8505631"><ele>171.2</ele><time>2026-04-18T09:06:48.42Z</time></trkpt><trkpt lat="43.5131583" lon="10.8506792"><ele>170.6</ele><time>2026-04-18T09:06:50.427Z</time></trkpt><trkpt lat="43.5132117" lon="10.8508104"><ele>170.0</ele><time>2026-04-18T09:06:52.412Z</time></trkpt><trkpt lat="43.5132058" lon="10.8509476"><ele>171.0</ele><time>2026-04-18T09:06:54.416Z</time></trkpt><trkpt lat="43.5131507" lon="10.8510771"><ele>172.0</ele><time>2026-04-18T09:06:56.428Z</time></trkpt><trkpt lat="43.5130912" lon="10.8511978"><ele>173.0</ele><time>2026-04-18T09:06:58.434Z</time></trkpt><trkpt lat="43.5130545" lon="10.8513315"><ele>174.0</ele><time>2026-04-18T09:07:00.418Z</time></trkpt><trkpt lat="43.5130131" lon="10.8515716"><ele>174.0</ele><time>2026-04-18T09:07:03.439Z</time></trkpt><trkpt lat="43.5130049" lon="10.8517253"><ele>174.0</ele><time>2026-04-18T09:07:05.405Z</time></trkpt><trkpt lat="43.5129959" lon="10.8518193"><ele>174.0</ele><time>2026-04-18T09:07:07.421Z</time></trkpt><trkpt lat="43.5129668" lon="10.8519428"><ele>174.0</ele><time>2026-04-18T09:07:09.435Z</time></trkpt><trkpt lat="43.5129205" lon="10.8520823"><ele>174.0</ele><time>2026-04-18T09:07:11.405Z</time></trkpt><trkpt lat="43.5128872" lon="10.8522295"><ele>174.0</ele><time>2026-04-18T09:07:13.435Z</time></trkpt><trkpt lat="43.5128378" lon="10.8523702"><ele>174.0</ele><time>2026-04-18T09:07:15.423Z</time></trkpt><trkpt lat="43.512777" lon="10.8525227"><ele>174.0</ele><time>2026-04-18T09:07:17.426Z</time></trkpt><trkpt lat="43.5127425" lon="10.8525963"><ele>174.0</ele><time>2026-04-18T09:07:18.435Z</time></trkpt><trkpt lat="43.5126969" lon="10.8526562"><ele>174.0</ele><time>2026-04-18T09:07:19.423Z</time></trkpt><trkpt lat="43.5126344" lon="10.8527081"><ele>174.0</ele><time>2026-04-18T09:07:20.414Z</time></trkpt><trkpt lat="43.5125654" lon="10.8527429"><ele>174.14285714285714</ele><time>2026-04-18T09:07:21.425Z</time></trkpt><trkpt lat="43.512501" lon="10.8527736"><ele>174.28571428571428</ele><time>2026-04-18T09:07:22.419Z</time></trkpt><trkpt lat="43.5124433" lon="10.8528306"><ele>174.42857142857144</ele><time>2026-04-18T09:07:23.422Z</time></trkpt><trkpt lat="43.5124003" lon="10.8529061"><ele>174.57142857142856</ele><time>2026-04-18T09:07:24.428Z</time></trkpt><trkpt lat="43.5123652" lon="10.852998"><ele>174.71428571428572</ele><time>2026-04-18T09:07:25.427Z</time></trkpt><trkpt lat="43.5123541" lon="10.8531006"><ele>174.85714285714286</ele><time>2026-04-18T09:07:26.424Z</time></trkpt><trkpt lat="43.512339" lon="10.8532021"><ele>175.0</ele><time>2026-04-18T09:07:27.443Z</time></trkpt><trkpt lat="43.512337" lon="10.8533054"><ele>175.0</ele><time>2026-04-18T09:07:28.432Z</time></trkpt><trkpt lat="43.5123377" lon="10.853401"><ele>175.0</ele><time>2026-04-18T09:07:29.429Z</time></trkpt><trkpt lat="43.5123423" lon="10.8534876"><ele>175.0</ele><time>2026-04-18T09:07:30.438Z</time></trkpt><trkpt lat="43.5123414" lon="10.8536082"><ele>175.0</ele><time>2026-04-18T09:07:32.432Z</time></trkpt><trkpt lat="43.5123429" lon="10.8537179"><ele>175.0</ele><time>2026-04-18T09:07:36.433Z</time></trkpt><trkpt lat="43.5123333" lon="10.8538226"><ele>175.0</ele><time>2026-04-18T09:07:38.439Z</time></trkpt><trkpt lat="43.5123216" lon="10.8539345"><ele>175.0</ele><time>2026-04-18T09:07:40.43Z</time></trkpt><trkpt lat="43.5123173" lon="10.8540683"><ele>175.0</ele><time>2026-04-18T09:07:42.441Z</time></trkpt><trkpt lat="43.5123057" lon="10.8542309"><ele>175.0</ele><time>2026-04-18T09:07:44.433Z</time></trkpt><trkpt lat="43.5123002" lon="10.8543966"><ele>175.0</ele><time>2026-04-18T09:07:46.435Z</time></trkpt><trkpt lat="43.5122952" lon="10.8544849"><ele>175.0</ele><time>2026-04-18T09:07:47.423Z</time></trkpt><trkpt lat="43.5122828" lon="10.8546651"><ele>175.14285714285714</ele><time>2026-04-18T09:07:49.417Z</time></trkpt><trkpt lat="43.5122798" lon="10.8547609"><ele>175.28571428571428</ele><time>2026-04-18T09:07:50.435Z</time></trkpt><trkpt lat="43.5122747" lon="10.8548539"><ele>175.42857142857144</ele><time>2026-04-18T09:07:51.431Z</time></trkpt><trkpt lat="43.5122668" lon="10.8549506"><ele>175.57142857142856</ele><time>2026-04-18T09:07:52.43Z</time></trkpt><trkpt lat="43.5122573" lon="10.8550534"><ele>175.71428571428572</ele><time>2026-04-18T09:07:53.434Z</time></trkpt><trkpt lat="43.5122539" lon="10.855152"><ele>175.85714285714286</ele><time>2026-04-18T09:07:54.436Z</time></trkpt><trkpt lat="43.5122456" lon="10.8552525"><ele>176.0</ele><time>2026-04-18T09:07:55.421Z</time></trkpt><trkpt lat="43.5122385" lon="10.8553538"><ele>176.16666666666666</ele><time>2026-04-18T09:07:56.421Z</time></trkpt><trkpt lat="43.5122278" lon="10.8554593"><ele>176.33333333333331</ele><time>2026-04-18T09:07:57.458Z</time></trkpt><trkpt lat="43.5122243" lon="10.8555579"><ele>176.5</ele><time>2026-04-18T09:07:58.452Z</time></trkpt><trkpt lat="43.5122179" lon="10.8556603"><ele>176.66666666666666</ele><time>2026-04-18T09:07:59.436Z</time></trkpt><trkpt lat="43.5122103" lon="10.8557594"><ele>176.83333333333334</ele><time>2026-04-18T09:08:00.432Z</time></trkpt><trkpt lat="43.5122035" lon="10.8558644"><ele>177.0</ele><time>2026-04-18T09:08:01.429Z</time></trkpt><trkpt lat="43.5121938" lon="10.8559741"><ele>177.66666666666666</ele><time>2026-04-18T09:08:02.439Z</time></trkpt><trkpt lat="43.5121786" lon="10.856088"><ele>178.33333333333334</ele><time>2026-04-18T09:08:03.441Z</time></trkpt><trkpt lat="43.5121652" lon="10.8562042"><ele>179.0</ele><time>2026-04-18T09:08:04.414Z</time></trkpt><trkpt lat="43.5121501" lon="10.8563118"><ele>179.66666666666669</ele><time>2026-04-18T09:08:05.427Z</time></trkpt><trkpt lat="43.5121331" lon="10.8563998"><ele>180.33333333333334</ele><time>2026-04-18T09:08:06.457Z</time></trkpt><trkpt lat="43.5121086" lon="10.8565388"><ele>181.0</ele><time>2026-04-18T09:08:08.439Z</time></trkpt><trkpt lat="43.5120861" lon="10.8567048"><ele>181.0</ele><time>2026-04-18T09:08:10.44Z</time></trkpt><trkpt lat="43.5120703" lon="10.8567918"><ele>181.0</ele><time>2026-04-18T09:08:11.422Z</time></trkpt><trkpt lat="43.5120679" lon="10.8569487"><ele>181.0</ele><time>2026-04-18T09:08:13.419Z</time></trkpt><trkpt lat="43.5120657" lon="10.8571136"><ele>181.0</ele><time>2026-04-18T09:08:15.42Z</time></trkpt><trkpt lat="43.5120704" lon="10.8572005"><ele>181.0</ele><time>2026-04-18T09:08:16.413Z</time></trkpt><trkpt lat="43.5120769" lon="10.8572902"><ele>181.0</ele><time>2026-04-18T09:08:17.422Z</time></trkpt><trkpt lat="43.512087" lon="10.8573852"><ele>181.33333333333334</ele><time>2026-04-18T09:08:18.439Z</time></trkpt><trkpt lat="43.512107" lon="10.8574755"><ele>181.66666666666669</ele><time>2026-04-18T09:08:19.436Z</time></trkpt><trkpt lat="43.5121339" lon="10.8575679"><ele>182.0</ele><time>2026-04-18T09:08:20.424Z</time></trkpt><trkpt lat="43.5121644" lon="10.8576709"><ele>182.33333333333334</ele><time>2026-04-18T09:08:21.44Z</time></trkpt><trkpt lat="43.5121953" lon="10.857771"><ele>182.66666666666666</ele><time>2026-04-18T09:08:22.425Z</time></trkpt><trkpt lat="43.5122196" lon="10.8578721"><ele>183.0</ele><time>2026-04-18T09:08:23.424Z</time></trkpt><trkpt lat="43.5122471" lon="10.8579698"><ele>183.0</ele><time>2026-04-18T09:08:24.42Z</time></trkpt><trkpt lat="43.5122722" lon="10.8580687"><ele>183.0</ele><time>2026-04-18T09:08:25.419Z</time></trkpt><trkpt lat="43.5123022" lon="10.8581566"><ele>183.0</ele><time>2026-04-18T09:08:26.422Z</time></trkpt><trkpt lat="43.5123293" lon="10.8582387"><ele>183.0</ele><time>2026-04-18T09:08:27.429Z</time></trkpt><trkpt lat="43.512387" lon="10.8583856"><ele>183.0</ele><time>2026-04-18T09:08:29.43Z</time></trkpt><trkpt lat="43.5124455" lon="10.858534"><ele>182.5</ele><time>2026-04-18T09:08:31.426Z</time></trkpt><trkpt lat="43.5124657" lon="10.8586207"><ele>182.0</ele><time>2026-04-18T09:08:32.416Z</time></trkpt><trkpt lat="43.5124884" lon="10.85871"><ele>181.5</ele><time>2026-04-18T09:08:33.429Z</time></trkpt><trkpt lat="43.5125267" lon="10.8587925"><ele>181.0</ele><time>2026-04-18T09:08:34.424Z</time></trkpt><trkpt lat="43.5125853" lon="10.8588769"><ele>180.5</ele><time>2026-04-18T09:08:35.414Z</time></trkpt><trkpt lat="43.5126549" lon="10.8589599"><ele>180.0</ele><time>2026-04-18T09:08:36.407Z</time></trkpt><trkpt lat="43.5127169" lon="10.8590439"><ele>180.0</ele><time>2026-04-18T09:08:37.404Z</time></trkpt><trkpt lat="43.5127712" lon="10.8591431"><ele>180.0</ele><time>2026-04-18T09:08:38.424Z</time></trkpt><trkpt lat="43.5128205" lon="10.8592346"><ele>180.0</ele><time>2026-04-18T09:08:39.421Z</time></trkpt><trkpt lat="43.5128739" lon="10.8593187"><ele>180.0</ele><time>2026-04-18T09:08:40.414Z</time></trkpt><trkpt lat="43.5129277" lon="10.8594012"><ele>180.0</ele><time>2026-04-18T09:08:41.425Z</time></trkpt><trkpt lat="43.5129837" lon="10.8594815"><ele>180.0</ele><time>2026-04-18T09:08:42.411Z</time></trkpt><trkpt lat="43.513042" lon="10.8595575"><ele>180.83333333333334</ele><time>2026-04-18T09:08:43.429Z</time></trkpt><trkpt lat="43.5131088" lon="10.8596244"><ele>181.66666666666666</ele><time>2026-04-18T09:08:44.415Z</time></trkpt><trkpt lat="43.5131746" lon="10.859688"><ele>182.5</ele><time>2026-04-18T09:08:45.428Z</time></trkpt><trkpt lat="43.5132341" lon="10.8597588"><ele>183.33333333333331</ele><time>2026-04-18T09:08:46.425Z</time></trkpt><trkpt lat="43.5132872" lon="10.8598391"><ele>184.16666666666666</ele><time>2026-04-18T09:08:47.43Z</time></trkpt><trkpt lat="43.5133428" lon="10.8599203"><ele>185.0</ele><time>2026-04-18T09:08:48.432Z</time></trkpt><trkpt lat="43.5133932" lon="10.8599945"><ele>185.0</ele><time>2026-04-18T09:08:49.425Z</time></trkpt><trkpt lat="43.5134398" lon="10.8600734"><ele>185.0</ele><time>2026-04-18T09:08:50.418Z</time></trkpt><trkpt lat="43.5134932" lon="10.8601449"><ele>185.0</ele><time>2026-04-18T09:08:51.43Z</time></trkpt><trkpt lat="43.5135455" lon="10.8602027"><ele>185.0</ele><time>2026-04-18T09:08:52.418Z</time></trkpt><trkpt lat="43.5135901" lon="10.8602672"><ele>185.0</ele><time>2026-04-18T09:08:53.419Z</time></trkpt><trkpt lat="43.5136599" lon="10.8603604"><ele>185.0</ele><time>2026-04-18T09:08:55.432Z</time></trkpt><trkpt lat="43.5137322" lon="10.8604391"><ele>186.8</ele><time>2026-04-18T09:08:57.434Z</time></trkpt><trkpt lat="43.5138016" lon="10.8605215"><ele>188.6</ele><time>2026-04-18T09:08:59.417Z</time></trkpt><trkpt lat="43.5138815" lon="10.8605615"><ele>190.39999999999998</ele><time>2026-04-18T09:09:01.429Z</time></trkpt><trkpt lat="43.5139645" lon="10.860584"><ele>192.2</ele><time>2026-04-18T09:09:03.429Z</time></trkpt><trkpt lat="43.5140524" lon="10.8606135"><ele>194.0</ele><time>2026-04-18T09:09:05.415Z</time></trkpt><trkpt lat="43.5141489" lon="10.8606676"><ele>194.0</ele><time>2026-04-18T09:09:07.431Z</time></trkpt><trkpt lat="43.5142216" lon="10.8607709"><ele>194.0</ele><time>2026-04-18T09:09:09.417Z</time></trkpt><trkpt lat="43.5142867" lon="10.8608897"><ele>194.0</ele><time>2026-04-18T09:09:11.43Z</time></trkpt><trkpt lat="43.5143342" lon="10.8610423"><ele>194.0</ele><time>2026-04-18T09:09:13.433Z</time></trkpt><trkpt lat="43.5143677" lon="10.8611911"><ele>194.0</ele><time>2026-04-18T09:09:15.426Z</time></trkpt><trkpt lat="43.5143984" lon="10.8613357"><ele>195.6</ele><time>2026-04-18T09:09:17.419Z</time></trkpt><trkpt lat="43.5144186" lon="10.8614892"><ele>197.2</ele><time>2026-04-18T09:09:19.409Z</time></trkpt><trkpt lat="43.5143998" lon="10.8616307"><ele>198.79999999999998</ele><time>2026-04-18T09:09:21.426Z</time></trkpt><trkpt lat="43.5143238" lon="10.8617381"><ele>200.39999999999998</ele><time>2026-04-18T09:09:23.424Z</time></trkpt><trkpt lat="43.5142451" lon="10.8618013"><ele>202.0</ele><time>2026-04-18T09:09:25.427Z</time></trkpt><trkpt lat="43.5141798" lon="10.8618485"><ele>202.49999999999997</ele><time>2026-04-18T09:09:27.426Z</time></trkpt><trkpt lat="43.5141052" lon="10.8619197"><ele>203.0</ele><time>2026-04-18T09:09:29.436Z</time></trkpt><trkpt lat="43.5140403" lon="10.8619983"><ele>203.5</ele><time>2026-04-18T09:09:31.436Z</time></trkpt><trkpt lat="43.5139653" lon="10.8621168"><ele>204.0</ele><time>2026-04-18T09:09:33.429Z</time></trkpt><trkpt lat="43.5139328" lon="10.8621977"><ele>204.49999999999997</ele><time>2026-04-18T09:09:34.432Z</time></trkpt><trkpt lat="43.5139039" lon="10.8622887"><ele>205.0</ele><time>2026-04-18T09:09:35.431Z</time></trkpt><trkpt lat="43.5138821" lon="10.8623708"><ele>205.0</ele><time>2026-04-18T09:09:36.432Z</time></trkpt><trkpt lat="43.5138676" lon="10.8625155"><ele>205.0</ele><time>2026-04-18T09:09:38.437Z</time></trkpt><trkpt lat="43.5138793" lon="10.8626883"><ele>205.0</ele><time>2026-04-18T09:09:40.432Z</time></trkpt><trkpt lat="43.5138915" lon="10.8627802"><ele>205.0</ele><time>2026-04-18T09:09:41.424Z</time></trkpt><trkpt lat="43.513898" lon="10.8628695"><ele>205.0</ele><time>2026-04-18T09:09:42.433Z</time></trkpt><trkpt lat="43.5139291" lon="10.8630307"><ele>206.0</ele><time>2026-04-18T09:09:44.425Z</time></trkpt><trkpt lat="43.5139904" lon="10.8631764"><ele>207.0</ele><time>2026-04-18T09:09:46.431Z</time></trkpt><trkpt lat="43.5140643" lon="10.8633096"><ele>208.0</ele><time>2026-04-18T09:09:48.408Z</time></trkpt><trkpt lat="43.5141093" lon="10.8633777"><ele>209.0</ele><time>2026-04-18T09:09:49.422Z</time></trkpt><trkpt lat="43.514155" lon="10.863454"><ele>210.0</ele><time>2026-04-18T09:09:50.412Z</time></trkpt><trkpt lat="43.5141932" lon="10.8635438"><ele>211.0</ele><time>2026-04-18T09:09:51.409Z</time></trkpt><trkpt lat="43.5142203" lon="10.8636552"><ele>212.0</ele><time>2026-04-18T09:09:52.418Z</time></trkpt><trkpt lat="43.5142412" lon="10.8637641"><ele>213.0</ele><time>2026-04-18T09:09:53.42Z</time></trkpt><trkpt lat="43.5142569" lon="10.8638641"><ele>214.0</ele><time>2026-04-18T09:09:54.432Z</time></trkpt><trkpt lat="43.5142676" lon="10.8639592"><ele>215.0</ele><time>2026-04-18T09:09:55.417Z</time></trkpt><trkpt lat="43.5142876" lon="10.8640659"><ele>216.0</ele><time>2026-04-18T09:09:56.422Z</time></trkpt><trkpt lat="43.5142949" lon="10.8641685"><ele>216.0</ele><time>2026-04-18T09:09:57.433Z</time></trkpt><trkpt lat="43.5143035" lon="10.8642736"><ele>216.0</ele><time>2026-04-18T09:09:58.435Z</time></trkpt><trkpt lat="43.5143119" lon="10.8643769"><ele>216.0</ele><time>2026-04-18T09:09:59.43Z</time></trkpt><trkpt lat="43.5143222" lon="10.8644893"><ele>216.0</ele><time>2026-04-18T09:10:00.422Z</time></trkpt><trkpt lat="43.5143225" lon="10.8645957"><ele>216.0</ele><time>2026-04-18T09:10:01.431Z</time></trkpt><trkpt lat="43.5143274" lon="10.8646964"><ele>216.0</ele><time>2026-04-18T09:10:02.422Z</time></trkpt><trkpt lat="43.5143317" lon="10.8647987"><ele>217.28571428571428</ele><time>2026-04-18T09:10:03.424Z</time></trkpt><trkpt lat="43.5143409" lon="10.8648937"><ele>218.57142857142856</ele><time>2026-04-18T09:10:04.425Z</time></trkpt><trkpt lat="43.5143479" lon="10.8649864"><ele>219.8571428571429</ele><time>2026-04-18T09:10:05.423Z</time></trkpt><trkpt lat="43.514358" lon="10.8650804"><ele>221.14285714285717</ele><time>2026-04-18T09:10:06.433Z</time></trkpt><trkpt lat="43.5143682" lon="10.865176"><ele>222.42857142857144</ele><time>2026-04-18T09:10:07.42Z</time></trkpt><trkpt lat="43.514379" lon="10.8652711"><ele>223.71428571428575</ele><time>2026-04-18T09:10:08.428Z</time></trkpt><trkpt lat="43.5143913" lon="10.8653644"><ele>225.00000000000003</ele><time>2026-04-18T09:10:09.422Z</time></trkpt><trkpt lat="43.5144115" lon="10.8655255"><ele>226.66666666666666</ele><time>2026-04-18T09:10:11.426Z</time></trkpt><trkpt lat="43.5144261" lon="10.8656975"><ele>228.33333333333331</ele><time>2026-04-18T09:10:13.423Z</time></trkpt><trkpt lat="43.5144336" lon="10.8657866"><ele>230.0</ele><time>2026-04-18T09:10:14.417Z</time></trkpt><trkpt lat="43.5144385" lon="10.8658839"><ele>231.66666666666666</ele><time>2026-04-18T09:10:15.426Z</time></trkpt><trkpt lat="43.5144532" lon="10.8659813"><ele>233.33333333333331</ele><time>2026-04-18T09:10:16.432Z</time></trkpt><trkpt lat="43.5144695" lon="10.8660761"><ele>235.0</ele><time>2026-04-18T09:10:17.418Z</time></trkpt><trkpt lat="43.5144924" lon="10.8661705"><ele>234.83333333333331</ele><time>2026-04-18T09:10:18.428Z</time></trkpt><trkpt lat="43.5145118" lon="10.86627"><ele>234.66666666666666</ele><time>2026-04-18T09:10:19.415Z</time></trkpt><trkpt lat="43.5145349" lon="10.8663757"><ele>234.5</ele><time>2026-04-18T09:10:20.424Z</time></trkpt><trkpt lat="43.5145546" lon="10.8664859"><ele>234.33333333333331</ele><time>2026-04-18T09:10:21.418Z</time></trkpt><trkpt lat="43.5145733" lon="10.8665983"><ele>234.16666666666666</ele><time>2026-04-18T09:10:22.432Z</time></trkpt><trkpt lat="43.5145814" lon="10.8667111"><ele>234.0</ele><time>2026-04-18T09:10:23.418Z</time></trkpt><trkpt lat="43.5145809" lon="10.8668161"><ele>234.0</ele><time>2026-04-18T09:10:24.439Z</time></trkpt><trkpt lat="43.5145731" lon="10.8669135"><ele>234.0</ele><time>2026-04-18T09:10:25.434Z</time></trkpt><trkpt lat="43.5145678" lon="10.8670196"><ele>234.0</ele><time>2026-04-18T09:10:26.422Z</time></trkpt><trkpt lat="43.5145781" lon="10.8671262"><ele>234.0</ele><time>2026-04-18T09:10:27.422Z</time></trkpt><trkpt lat="43.5146027" lon="10.867242"><ele>234.0</ele><time>2026-04-18T09:10:28.423Z</time></trkpt><trkpt lat="43.5146383" lon="10.867368"><ele>234.0</ele><time>2026-04-18T09:10:29.418Z</time></trkpt><trkpt lat="43.5146894" lon="10.8674877"><ele>235.39999999999998</ele><time>2026-04-18T09:10:30.408Z</time></trkpt><trkpt lat="43.5147422" lon="10.8676183"><ele>236.79999999999998</ele><time>2026-04-18T09:10:31.411Z</time></trkpt><trkpt lat="43.5147972" lon="10.8677606"><ele>238.20000000000002</ele><time>2026-04-18T09:10:32.418Z</time></trkpt><trkpt lat="43.5148506" lon="10.8679035"><ele>239.60000000000002</ele><time>2026-04-18T09:10:33.44Z</time></trkpt><trkpt lat="43.5149099" lon="10.8680237"><ele>241.0</ele><time>2026-04-18T09:10:34.418Z</time></trkpt><trkpt lat="43.5149593" lon="10.8681119"><ele>241.0</ele><time>2026-04-18T09:10:35.419Z</time></trkpt><trkpt lat="43.5150018" lon="10.8681951"><ele>241.00000000000003</ele><time>2026-04-18T09:10:36.415Z</time></trkpt><trkpt lat="43.5150517" lon="10.8682746"><ele>241.00000000000003</ele><time>2026-04-18T09:10:37.419Z</time></trkpt><trkpt lat="43.5151024" lon="10.8683761"><ele>241.0</ele><time>2026-04-18T09:10:38.433Z</time></trkpt><trkpt lat="43.5151632" lon="10.8684866"><ele>241.0</ele><time>2026-04-18T09:10:39.416Z</time></trkpt><trkpt lat="43.5152371" lon="10.8686105"><ele>240.0</ele><time>2026-04-18T09:10:40.417Z</time></trkpt><trkpt lat="43.5153189" lon="10.8687449"><ele>239.0</ele><time>2026-04-18T09:10:41.418Z</time></trkpt><trkpt lat="43.5154152" lon="10.8688954"><ele>238.0</ele><time>2026-04-18T09:10:42.41Z</time></trkpt><trkpt lat="43.5155108" lon="10.8690274"><ele>237.0</ele><time>2026-04-18T09:10:43.419Z</time></trkpt><trkpt lat="43.5156079" lon="10.8691481"><ele>239.5</ele><time>2026-04-18T09:10:44.425Z</time></trkpt><trkpt lat="43.5156938" lon="10.869258"><ele>242.0</ele><time>2026-04-18T09:10:45.427Z</time></trkpt><trkpt lat="43.5157837" lon="10.8693831"><ele>244.5</ele><time>2026-04-18T09:10:46.42Z</time></trkpt><trkpt lat="43.5158655" lon="10.8695033"><ele>247.0</ele><time>2026-04-18T09:10:47.42Z</time></trkpt><trkpt lat="43.5159412" lon="10.8696127"><ele>248.16666666666666</ele><time>2026-04-18T09:10:48.428Z</time></trkpt><trkpt lat="43.5160127" lon="10.8697161"><ele>249.33333333333331</ele><time>2026-04-18T09:10:49.417Z</time></trkpt><trkpt lat="43.5160716" lon="10.8698098"><ele>250.5</ele><time>2026-04-18T09:10:50.427Z</time></trkpt><trkpt lat="43.5161315" lon="10.8698928"><ele>251.66666666666669</ele><time>2026-04-18T09:10:51.43Z</time></trkpt><trkpt lat="43.5161829" lon="10.8699689"><ele>252.83333333333334</ele><time>2026-04-18T09:10:52.419Z</time></trkpt><trkpt lat="43.516232" lon="10.8700396"><ele>254.0</ele><time>2026-04-18T09:10:53.428Z</time></trkpt><trkpt lat="43.5162953" lon="10.8701857"><ele>258.5</ele><time>2026-04-18T09:10:55.407Z</time></trkpt><trkpt lat="43.5163065" lon="10.8703559"><ele>263.0</ele><time>2026-04-18T09:10:57.411Z</time></trkpt><trkpt lat="43.516298" lon="10.8704623"><ele>267.5</ele><time>2026-04-18T09:10:58.421Z</time></trkpt><trkpt lat="43.5162873" lon="10.8705754"><ele>272.0</ele><time>2026-04-18T09:10:59.414Z</time></trkpt><trkpt lat="43.5162809" lon="10.8706816"><ele>276.5</ele><time>2026-04-18T09:11:00.426Z</time></trkpt><trkpt lat="43.5162767" lon="10.8707705"><ele>281.0</ele><time>2026-04-18T09:11:01.414Z</time></trkpt><trkpt lat="43.5162372" lon="10.8709189"><ele>282.0</ele><time>2026-04-18T09:11:03.417Z</time></trkpt><trkpt lat="43.516116" lon="10.8709593"><ele>283.0</ele><time>2026-04-18T09:11:05.426Z</time></trkpt><trkpt lat="43.5160462" lon="10.8709396"><ele>284.0</ele><time>2026-04-18T09:11:06.423Z</time></trkpt><trkpt lat="43.5159356" lon="10.8709455"><ele>285.0</ele><time>2026-04-18T09:11:08.41Z</time></trkpt><trkpt lat="43.5158189" lon="10.8710122"><ele>286.0</ele><time>2026-04-18T09:11:10.424Z</time></trkpt><trkpt lat="43.5157209" lon="10.8711249"><ele>285.99999999999994</ele><time>2026-04-18T09:11:12.429Z</time></trkpt><trkpt lat="43.5156752" lon="10.8712023"><ele>286.0</ele><time>2026-04-18T09:11:13.424Z</time></trkpt><trkpt lat="43.5156486" lon="10.8712856"><ele>286.0</ele><time>2026-04-18T09:11:14.426Z</time></trkpt><trkpt lat="43.5156241" lon="10.8713824"><ele>286.0</ele><time>2026-04-18T09:11:15.427Z</time></trkpt><trkpt lat="43.5156" lon="10.8714799"><ele>286.0</ele><time>2026-04-18T09:11:16.413Z</time></trkpt><trkpt lat="43.5155841" lon="10.8715789"><ele>285.99999999999994</ele><time>2026-04-18T09:11:17.429Z</time></trkpt><trkpt lat="43.5155718" lon="10.8716761"><ele>286.0</ele><time>2026-04-18T09:11:18.428Z</time></trkpt><trkpt lat="43.5155584" lon="10.8717625"><ele>288.0</ele><time>2026-04-18T09:11:19.421Z</time></trkpt><trkpt lat="43.5155407" lon="10.8718464"><ele>290.0</ele><time>2026-04-18T09:11:20.426Z</time></trkpt><trkpt lat="43.5155359" lon="10.871989"><ele>292.0</ele><time>2026-04-18T09:11:22.42Z</time></trkpt><trkpt lat="43.5155914" lon="10.8720887"><ele>294.0</ele><time>2026-04-18T09:11:24.419Z</time></trkpt><trkpt lat="43.5157398" lon="10.8721151"><ele>296.0</ele><time>2026-04-18T09:11:26.415Z</time></trkpt><trkpt lat="43.5158271" lon="10.8721192"><ele>296.0</ele><time>2026-04-18T09:11:27.424Z</time></trkpt><trkpt lat="43.515906" lon="10.8721353"><ele>296.0</ele><time>2026-04-18T09:11:28.431Z</time></trkpt><trkpt lat="43.5159747" lon="10.8721567"><ele>296.0</ele><time>2026-04-18T09:11:29.412Z</time></trkpt><trkpt lat="43.5160643" lon="10.8722166"><ele>296.0</ele><time>2026-04-18T09:11:31.43Z</time></trkpt><trkpt lat="43.5161141" lon="10.8723196"><ele>296.0</ele><time>2026-04-18T09:11:33.43Z</time></trkpt><trkpt lat="43.516124" lon="10.872465"><ele>296.0</ele><time>2026-04-18T09:11:35.438Z</time></trkpt><trkpt lat="43.5161449" lon="10.8726429"><ele>296.83333333333337</ele><time>2026-04-18T09:11:37.425Z</time></trkpt><trkpt lat="43.516171" lon="10.8727237"><ele>297.6666666666667</ele><time>2026-04-18T09:11:38.428Z</time></trkpt><trkpt lat="43.516211" lon="10.8727929"><ele>298.5</ele><time>2026-04-18T09:11:39.413Z</time></trkpt><trkpt lat="43.5162586" lon="10.8728551"><ele>299.3333333333333</ele><time>2026-04-18T09:11:40.42Z</time></trkpt><trkpt lat="43.5163468" lon="10.8729277"><ele>300.16666666666663</ele><time>2026-04-18T09:11:42.422Z</time></trkpt><trkpt lat="43.516385" lon="10.8730242"><ele>301.0</ele><time>2026-04-18T09:11:46.426Z</time></trkpt><trkpt lat="43.5163619" lon="10.8731445"><ele>304.0</ele><time>2026-04-18T09:11:48.412Z</time></trkpt><trkpt lat="43.516354" lon="10.873336"><ele>307.0</ele><time>2026-04-18T09:11:50.412Z</time></trkpt><trkpt lat="43.5163539" lon="10.8734388"><ele>310.0</ele><time>2026-04-18T09:11:51.422Z</time></trkpt><trkpt lat="43.5163661" lon="10.8735352"><ele>313.0</ele><time>2026-04-18T09:11:52.42Z</time></trkpt><trkpt lat="43.5163706" lon="10.8736228"><ele>316.0</ele><time>2026-04-18T09:11:53.409Z</time></trkpt><trkpt lat="43.5163565" lon="10.8737746"><ele>315.8571428571429</ele><time>2026-04-18T09:11:55.428Z</time></trkpt><trkpt lat="43.5163477" lon="10.8738611"><ele>315.7142857142857</ele><time>2026-04-18T09:11:56.411Z</time></trkpt><trkpt lat="43.5163446" lon="10.87395"><ele>315.57142857142856</ele><time>2026-04-18T09:11:57.411Z</time></trkpt><trkpt lat="43.5163326" lon="10.87404"><ele>315.42857142857144</ele><time>2026-04-18T09:11:58.413Z</time></trkpt><trkpt lat="43.5163028" lon="10.8741332"><ele>315.2857142857143</ele><time>2026-04-18T09:11:59.411Z</time></trkpt><trkpt lat="43.5162433" lon="10.8742072"><ele>315.14285714285717</ele><time>2026-04-18T09:12:00.411Z</time></trkpt><trkpt lat="43.5162031" lon="10.8742808"><ele>315.0</ele><time>2026-04-18T09:12:01.418Z</time></trkpt><trkpt lat="43.5161561" lon="10.8743596"><ele>315.0</ele><time>2026-04-18T09:12:02.422Z</time></trkpt><trkpt lat="43.5161169" lon="10.8744415"><ele>315.0</ele><time>2026-04-18T09:12:03.413Z</time></trkpt><trkpt lat="43.5160732" lon="10.8745101"><ele>315.0</ele><time>2026-04-18T09:12:04.428Z</time></trkpt><trkpt lat="43.5160025" lon="10.874565"><ele>315.0</ele><time>2026-04-18T09:12:06.428Z</time></trkpt><trkpt lat="43.5159191" lon="10.874577"><ele>315.0</ele><time>2026-04-18T09:12:08.434Z</time></trkpt><trkpt lat="43.5158171" lon="10.874602"><ele>315.0</ele><time>2026-04-18T09:12:10.425Z</time></trkpt><trkpt lat="43.5157452" lon="10.8746306"><ele>315.0</ele><time>2026-04-18T09:12:12.416Z</time></trkpt><trkpt lat="43.5156613" lon="10.8746744"><ele>315.0</ele><time>2026-04-18T09:12:14.429Z</time></trkpt><trkpt lat="43.5155566" lon="10.874767"><ele>315.0</ele><time>2026-04-18T09:12:16.434Z</time></trkpt><trkpt lat="43.515467" lon="10.8748524"><ele>315.0</ele><time>2026-04-18T09:12:18.42Z</time></trkpt><trkpt lat="43.5153731" lon="10.8749419"><ele>315.0</ele><time>2026-04-18T09:12:20.421Z</time></trkpt><trkpt lat="43.5153098" lon="10.8750174"><ele>315.0</ele><time>2026-04-18T09:12:22.423Z</time></trkpt><trkpt lat="43.5152437" lon="10.8751291"><ele>315.0</ele><time>2026-04-18T09:12:24.42Z</time></trkpt><trkpt lat="43.5152257" lon="10.8752368"><ele>315.0</ele><time>2026-04-18T09:12:26.413Z</time></trkpt><trkpt lat="43.5152188" lon="10.8753544"><ele>315.0</ele><time>2026-04-18T09:12:29.424Z</time></trkpt><trkpt lat="43.5152057" lon="10.8754482"><ele>315.0</ele><time>2026-04-18T09:12:33.413Z</time></trkpt><trkpt lat="43.5151994" lon="10.8755485"><ele>315.0</ele><time>2026-04-18T09:12:37.419Z</time></trkpt><trkpt lat="43.5151936" lon="10.8756509"><ele>315.0</ele><time>2026-04-18T09:12:41.414Z</time></trkpt><trkpt lat="43.5151673" lon="10.8757469"><ele>315.0</ele><time>2026-04-18T09:12:44.427Z</time></trkpt><trkpt lat="43.5151461" lon="10.8758458"><ele>315.0</ele><time>2026-04-18T09:12:51.412Z</time></trkpt><trkpt lat="43.5151578" lon="10.875938"><ele>315.0</ele><time>2026-04-18T09:12:56.428Z</time></trkpt><trkpt lat="43.5152246" lon="10.8759955"><ele>315.0</ele><time>2026-04-18T09:12:58.418Z</time></trkpt><trkpt lat="43.5153288" lon="10.8760016"><ele>315.0</ele><time>2026-04-18T09:13:00.447Z</time></trkpt><trkpt lat="43.5154417" lon="10.876028"><ele>317.8333333333333</ele><time>2026-04-18T09:13:02.421Z</time></trkpt><trkpt lat="43.5155126" lon="10.8760723"><ele>320.6666666666667</ele><time>2026-04-18T09:13:03.422Z</time></trkpt><trkpt lat="43.5155885" lon="10.8761343"><ele>323.5</ele><time>2026-04-18T09:13:04.422Z</time></trkpt><trkpt lat="43.515668" lon="10.8762091"><ele>326.33333333333337</ele><time>2026-04-18T09:13:05.426Z</time></trkpt><trkpt lat="43.5157442" lon="10.8762882"><ele>329.1666666666667</ele><time>2026-04-18T09:13:06.415Z</time></trkpt><trkpt lat="43.5158251" lon="10.8763432"><ele>332.0</ele><time>2026-04-18T09:13:07.435Z</time></trkpt><trkpt lat="43.5159143" lon="10.8763552"><ele>332.0</ele><time>2026-04-18T09:13:08.418Z</time></trkpt><trkpt lat="43.5160194" lon="10.8763289"><ele>332.0</ele><time>2026-04-18T09:13:09.419Z</time></trkpt><trkpt lat="43.5161207" lon="10.8762681"><ele>332.0</ele><time>2026-04-18T09:13:10.43Z</time></trkpt><trkpt lat="43.516221" lon="10.8762192"><ele>332.0</ele><time>2026-04-18T09:13:11.409Z</time></trkpt><trkpt lat="43.516323" lon="10.8761633"><ele>332.0</ele><time>2026-04-18T09:13:12.447Z</time></trkpt><trkpt lat="43.5164309" lon="10.8761005"><ele>332.75</ele><time>2026-04-18T09:13:13.421Z</time></trkpt><trkpt lat="43.5165473" lon="10.8760286"><ele>333.5</ele><time>2026-04-18T09:13:14.432Z</time></trkpt><trkpt lat="43.5166579" lon="10.8759683"><ele>334.25</ele><time>2026-04-18T09:13:15.412Z</time></trkpt><trkpt lat="43.5167665" lon="10.8759057"><ele>335.0</ele><time>2026-04-18T09:13:16.413Z</time></trkpt><trkpt lat="43.5168562" lon="10.8758292"><ele>335.0</ele><time>2026-04-18T09:13:17.423Z</time></trkpt><trkpt lat="43.5169253" lon="10.8757197"><ele>335.0</ele><time>2026-04-18T09:13:18.424Z</time></trkpt><trkpt lat="43.5169742" lon="10.8755796"><ele>335.0</ele><time>2026-04-18T09:13:19.438Z</time></trkpt><trkpt lat="43.5170129" lon="10.875426"><ele>335.0</ele><time>2026-04-18T09:13:20.422Z</time></trkpt><trkpt lat="43.5170576" lon="10.8752729"><ele>337.25</ele><time>2026-04-18T09:13:21.426Z</time></trkpt><trkpt lat="43.5171169" lon="10.8751296"><ele>339.5</ele><time>2026-04-18T09:13:22.412Z</time></trkpt><trkpt lat="43.5171918" lon="10.8750099"><ele>341.75</ele><time>2026-04-18T09:13:23.424Z</time></trkpt><trkpt lat="43.5172864" lon="10.8749236"><ele>344.0</ele><time>2026-04-18T09:13:24.422Z</time></trkpt><trkpt lat="43.5173869" lon="10.8748486"><ele>344.0</ele><time>2026-04-18T09:13:25.424Z</time></trkpt><trkpt lat="43.5175035" lon="10.8747913"><ele>344.0</ele><time>2026-04-18T09:13:26.427Z</time></trkpt><trkpt lat="43.517637" lon="10.8747608"><ele>344.0</ele><time>2026-04-18T09:13:27.422Z</time></trkpt><trkpt lat="43.5177713" lon="10.8747426"><ele>344.0</ele><time>2026-04-18T09:13:28.427Z</time></trkpt><trkpt lat="43.5179039" lon="10.8747365"><ele>346.0</ele><time>2026-04-18T09:13:29.424Z</time></trkpt><trkpt lat="43.518032" lon="10.8747342"><ele>348.0</ele><time>2026-04-18T09:13:30.41Z</time></trkpt><trkpt lat="43.5181553" lon="10.874749"><ele>350.0</ele><time>2026-04-18T09:13:31.416Z</time></trkpt><trkpt lat="43.5182715" lon="10.8747611"><ele>352.0</ele><time>2026-04-18T09:13:32.412Z</time></trkpt><trkpt lat="43.518395" lon="10.8747762"><ele>352.0</ele><time>2026-04-18T09:13:33.444Z</time></trkpt><trkpt lat="43.5185012" lon="10.8747889"><ele>352.0</ele><time>2026-04-18T09:13:34.41Z</time></trkpt><trkpt lat="43.5185976" lon="10.8748095"><ele>352.0</ele><time>2026-04-18T09:13:35.403Z</time></trkpt><trkpt lat="43.5186972" lon="10.8748153"><ele>352.0</ele><time>2026-04-18T09:13:36.401Z</time></trkpt><trkpt lat="43.5187889" lon="10.8748156"><ele>352.0</ele><time>2026-04-18T09:13:37.411Z</time></trkpt><trkpt lat="43.51887" lon="10.874817"><ele>352.25</ele><time>2026-04-18T09:13:38.425Z</time></trkpt><trkpt lat="43.5189521" lon="10.8748372"><ele>352.5</ele><time>2026-04-18T09:13:39.408Z</time></trkpt><trkpt lat="43.5190579" lon="10.8749273"><ele>352.75</ele><time>2026-04-18T09:13:40.401Z</time></trkpt><trkpt lat="43.5191525" lon="10.8750564"><ele>353.0</ele><time>2026-04-18T09:13:41.412Z</time></trkpt><trkpt lat="43.5192268" lon="10.8751831"><ele>353.0</ele><time>2026-04-18T09:13:42.412Z</time></trkpt><trkpt lat="43.5192609" lon="10.8753227"><ele>353.0</ele><time>2026-04-18T09:13:43.404Z</time></trkpt><trkpt lat="43.5192899" lon="10.8754566"><ele>353.0</ele><time>2026-04-18T09:13:44.418Z</time></trkpt><trkpt lat="43.5193265" lon="10.8755864"><ele>353.0</ele><time>2026-04-18T09:13:45.398Z</time></trkpt><trkpt lat="43.5193692" lon="10.8757277"><ele>353.0</ele><time>2026-04-18T09:13:46.407Z</time></trkpt><trkpt lat="43.5194282" lon="10.8758705"><ele>355.2</ele><time>2026-04-18T09:13:47.425Z</time></trkpt><trkpt lat="43.519492" lon="10.8759809"><ele>357.4</ele><time>2026-04-18T09:13:48.416Z</time></trkpt><trkpt lat="43.5195722" lon="10.8760732"><ele>359.59999999999997</ele><time>2026-04-18T09:13:49.402Z</time></trkpt><trkpt lat="43.5196599" lon="10.8761525"><ele>361.79999999999995</ele><time>2026-04-18T09:13:50.412Z</time></trkpt><trkpt lat="43.5197332" lon="10.8762223"><ele>364.0</ele><time>2026-04-18T09:13:51.421Z</time></trkpt><trkpt lat="43.5197882" lon="10.8763061"><ele>359.6</ele><time>2026-04-18T09:13:52.429Z</time></trkpt><trkpt lat="43.5198246" lon="10.8764242"><ele>355.2</ele><time>2026-04-18T09:13:53.408Z</time></trkpt><trkpt lat="43.5198302" lon="10.8765529"><ele>350.8</ele><time>2026-04-18T09:13:54.423Z</time></trkpt><trkpt lat="43.5198401" lon="10.8766879"><ele>346.40000000000003</ele><time>2026-04-18T09:13:55.415Z</time></trkpt><trkpt lat="43.5198602" lon="10.8768259"><ele>342.0</ele><time>2026-04-18T09:13:56.421Z</time></trkpt><trkpt lat="43.5198676" lon="10.8769599"><ele>342.0</ele><time>2026-04-18T09:13:57.428Z</time></trkpt><trkpt lat="43.519885" lon="10.877104"><ele>342.0</ele><time>2026-04-18T09:13:58.412Z</time></trkpt><trkpt lat="43.5199128" lon="10.8772418"><ele>342.0</ele><time>2026-04-18T09:13:59.413Z</time></trkpt><trkpt lat="43.5199341" lon="10.8773812"><ele>342.0</ele><time>2026-04-18T09:14:00.412Z</time></trkpt><trkpt lat="43.5199563" lon="10.8775274"><ele>342.0</ele><time>2026-04-18T09:14:01.42Z</time></trkpt><trkpt lat="43.5199865" lon="10.8776726"><ele>343.25</ele><time>2026-04-18T09:14:02.426Z</time></trkpt><trkpt lat="43.5200215" lon="10.8778091"><ele>344.5</ele><time>2026-04-18T09:14:03.424Z</time></trkpt><trkpt lat="43.5200631" lon="10.8779561"><ele>345.75</ele><time>2026-04-18T09:14:04.412Z</time></trkpt><trkpt lat="43.5201128" lon="10.8781044"><ele>347.0</ele><time>2026-04-18T09:14:05.418Z</time></trkpt><trkpt lat="43.5201596" lon="10.8782482"><ele>347.0</ele><time>2026-04-18T09:14:06.425Z</time></trkpt><trkpt lat="43.5201858" lon="10.878384"><ele>347.0</ele><time>2026-04-18T09:14:07.424Z</time></trkpt><trkpt lat="43.5202035" lon="10.8785112"><ele>347.0</ele><time>2026-04-18T09:14:08.41Z</time></trkpt><trkpt lat="43.5202108" lon="10.8786291"><ele>347.0</ele><time>2026-04-18T09:14:09.409Z</time></trkpt><trkpt lat="43.5201962" lon="10.8787533"><ele>347.0</ele><time>2026-04-18T09:14:10.416Z</time></trkpt><trkpt lat="43.5201524" lon="10.8788664"><ele>344.8</ele><time>2026-04-18T09:14:11.42Z</time></trkpt><trkpt lat="43.5200903" lon="10.8789684"><ele>342.6</ele><time>2026-04-18T09:14:12.415Z</time></trkpt><trkpt lat="43.5200002" lon="10.8790423"><ele>340.40000000000003</ele><time>2026-04-18T09:14:13.402Z</time></trkpt><trkpt lat="43.5199221" lon="10.8791003"><ele>338.20000000000005</ele><time>2026-04-18T09:14:14.412Z</time></trkpt><trkpt lat="43.5198448" lon="10.8791385"><ele>336.0</ele><time>2026-04-18T09:14:15.409Z</time></trkpt><trkpt lat="43.5197622" lon="10.8791449"><ele>336.0</ele><time>2026-04-18T09:14:16.423Z</time></trkpt><trkpt lat="43.5196756" lon="10.8791383"><ele>336.0</ele><time>2026-04-18T09:14:17.401Z</time></trkpt><trkpt lat="43.5195842" lon="10.8791272"><ele>336.0</ele><time>2026-04-18T09:14:18.418Z</time></trkpt><trkpt lat="43.5194808" lon="10.8791202"><ele>336.0</ele><time>2026-04-18T09:14:19.424Z</time></trkpt><trkpt lat="43.5193894" lon="10.8791001"><ele>336.0</ele><time>2026-04-18T09:14:20.41Z</time></trkpt><trkpt lat="43.5193024" lon="10.879084"><ele>336.8333333333333</ele><time>2026-04-18T09:14:21.432Z</time></trkpt><trkpt lat="43.5192161" lon="10.8790758"><ele>337.6666666666667</ele><time>2026-04-18T09:14:22.408Z</time></trkpt><trkpt lat="43.5191355" lon="10.8790861"><ele>338.5</ele><time>2026-04-18T09:14:23.424Z</time></trkpt><trkpt lat="43.5190695" lon="10.879116"><ele>339.33333333333337</ele><time>2026-04-18T09:14:24.415Z</time></trkpt><trkpt lat="43.519009" lon="10.8791608"><ele>340.1666666666667</ele><time>2026-04-18T09:14:25.416Z</time></trkpt><trkpt lat="43.5189782" lon="10.8792445"><ele>341.0</ele><time>2026-04-18T09:14:26.414Z</time></trkpt><trkpt lat="43.5189562" lon="10.8793512"><ele>341.0</ele><time>2026-04-18T09:14:27.414Z</time></trkpt><trkpt lat="43.518962" lon="10.8794624"><ele>341.0</ele><time>2026-04-18T09:14:28.43Z</time></trkpt><trkpt lat="43.5189895" lon="10.8795613"><ele>341.0</ele><time>2026-04-18T09:14:29.418Z</time></trkpt><trkpt lat="43.5190275" lon="10.8796614"><ele>341.0</ele><time>2026-04-18T09:14:30.414Z</time></trkpt><trkpt lat="43.5191026" lon="10.8797303"><ele>341.0</ele><time>2026-04-18T09:14:31.426Z</time></trkpt><trkpt lat="43.5192001" lon="10.8797431"><ele>341.0</ele><time>2026-04-18T09:14:32.426Z</time></trkpt><trkpt lat="43.5192961" lon="10.8797674"><ele>341.0</ele><time>2026-04-18T09:14:33.411Z</time></trkpt><trkpt lat="43.5193987" lon="10.879798"><ele>341.0</ele><time>2026-04-18T09:14:34.418Z</time></trkpt><trkpt lat="43.5194902" lon="10.8798479"><ele>341.0</ele><time>2026-04-18T09:14:35.421Z</time></trkpt><trkpt lat="43.5195714" lon="10.879924"><ele>341.0</ele><time>2026-04-18T09:14:36.424Z</time></trkpt><trkpt lat="43.5196135" lon="10.8800343"><ele>341.0</ele><time>2026-04-18T09:14:37.423Z</time></trkpt><trkpt lat="43.5196264" lon="10.8801255"><ele>339.33333333333337</ele><time>2026-04-18T09:14:38.415Z</time></trkpt><trkpt lat="43.5196347" lon="10.880217"><ele>337.6666666666667</ele><time>2026-04-18T09:14:39.431Z</time></trkpt><trkpt lat="43.5196176" lon="10.8803084"><ele>336.0</ele><time>2026-04-18T09:14:40.401Z</time></trkpt><trkpt lat="43.5195807" lon="10.8804799"><ele>334.3333333333333</ele><time>2026-04-18T09:14:42.414Z</time></trkpt><trkpt lat="43.519566" lon="10.8805724"><ele>332.66666666666663</ele><time>2026-04-18T09:14:43.42Z</time></trkpt><trkpt lat="43.5195596" lon="10.8806732"><ele>331.0</ele><time>2026-04-18T09:14:44.419Z</time></trkpt><trkpt lat="43.5195699" lon="10.8807863"><ele>331.0</ele><time>2026-04-18T09:14:45.403Z</time></trkpt><trkpt lat="43.5195883" lon="10.8809036"><ele>331.0</ele><time>2026-04-18T09:14:46.414Z</time></trkpt><trkpt lat="43.5195961" lon="10.8810274"><ele>331.0</ele><time>2026-04-18T09:14:47.424Z</time></trkpt><trkpt lat="43.5195845" lon="10.8811648"><ele>331.0</ele><time>2026-04-18T09:14:48.415Z</time></trkpt><trkpt lat="43.5195725" lon="10.8813118"><ele>331.0</ele><time>2026-04-18T09:14:49.409Z</time></trkpt><trkpt lat="43.5195468" lon="10.8814553"><ele>337.0</ele><time>2026-04-18T09:14:50.401Z</time></trkpt><trkpt lat="43.5195165" lon="10.8816004"><ele>343.0</ele><time>2026-04-18T09:14:51.41Z</time></trkpt><trkpt lat="43.5194965" lon="10.8817258"><ele>349.0</ele><time>2026-04-18T09:14:52.419Z</time></trkpt><trkpt lat="43.5194937" lon="10.8818538"><ele>355.0</ele><time>2026-04-18T09:14:53.4Z</time></trkpt><trkpt lat="43.5195039" lon="10.8819866"><ele>361.0</ele><time>2026-04-18T09:14:54.414Z</time></trkpt><trkpt lat="43.5195275" lon="10.8821198"><ele>361.0</ele><time>2026-04-18T09:14:55.418Z</time></trkpt><trkpt lat="43.5195629" lon="10.8822531"><ele>361.0</ele><time>2026-04-18T09:14:56.409Z</time></trkpt><trkpt lat="43.5196059" lon="10.8823758"><ele>361.0</ele><time>2026-04-18T09:14:57.432Z</time></trkpt><trkpt lat="43.5196423" lon="10.8824961"><ele>361.0</ele><time>2026-04-18T09:14:58.426Z</time></trkpt><trkpt lat="43.5196917" lon="10.8826084"><ele>361.0</ele><time>2026-04-18T09:14:59.402Z</time></trkpt><trkpt lat="43.5197473" lon="10.8827103"><ele>361.0</ele><time>2026-04-18T09:15:00.416Z</time></trkpt><trkpt lat="43.5198151" lon="10.8827945"><ele>361.0</ele><time>2026-04-18T09:15:01.414Z</time></trkpt><trkpt lat="43.5198817" lon="10.8828642"><ele>361.0</ele><time>2026-04-18T09:15:02.405Z</time></trkpt><trkpt lat="43.5199576" lon="10.8829332"><ele>361.0</ele><time>2026-04-18T09:15:03.412Z</time></trkpt><trkpt lat="43.5200309" lon="10.8830065"><ele>361.0</ele><time>2026-04-18T09:15:04.419Z</time></trkpt><trkpt lat="43.5201162" lon="10.8830712"><ele>361.0</ele><time>2026-04-18T09:15:05.421Z</time></trkpt><trkpt lat="43.5201928" lon="10.8831389"><ele>361.0</ele><time>2026-04-18T09:15:06.42Z</time></trkpt><trkpt lat="43.5202635" lon="10.8831824"><ele>361.0</ele><time>2026-04-18T09:15:07.419Z</time></trkpt><trkpt lat="43.5203277" lon="10.88321"><ele>361.0</ele><time>2026-04-18T09:15:08.418Z</time></trkpt><trkpt lat="43.5204026" lon="10.8832178"><ele>361.0</ele><time>2026-04-18T09:15:09.416Z</time></trkpt><trkpt lat="43.5204862" lon="10.8832084"><ele>361.0</ele><time>2026-04-18T09:15:10.423Z</time></trkpt><trkpt lat="43.5205756" lon="10.883172"><ele>360.0</ele><time>2026-04-18T09:15:11.425Z</time></trkpt><trkpt lat="43.5206704" lon="10.883129"><ele>359.0</ele><time>2026-04-18T09:15:12.415Z</time></trkpt><trkpt lat="43.5207637" lon="10.8831148"><ele>358.0</ele><time>2026-04-18T09:15:13.422Z</time></trkpt><trkpt lat="43.5208499" lon="10.8831265"><ele>357.0</ele><time>2026-04-18T09:15:14.427Z</time></trkpt><trkpt lat="43.5209358" lon="10.8831512"><ele>356.0</ele><time>2026-04-18T09:15:15.399Z</time></trkpt><trkpt lat="43.5210332" lon="10.8831998"><ele>356.0</ele><time>2026-04-18T09:15:16.412Z</time></trkpt><trkpt lat="43.5211191" lon="10.8832593"><ele>356.0</ele><time>2026-04-18T09:15:17.413Z</time></trkpt><trkpt lat="43.5211952" lon="10.8833325"><ele>356.0</ele><time>2026-04-18T09:15:18.42Z</time></trkpt><trkpt lat="43.5212549" lon="10.883417"><ele>356.0</ele><time>2026-04-18T09:15:19.418Z</time></trkpt><trkpt lat="43.5213115" lon="10.8835157"><ele>356.0</ele><time>2026-04-18T09:15:20.417Z</time></trkpt><trkpt lat="43.5213476" lon="10.8836228"><ele>356.83333333333337</ele><time>2026-04-18T09:15:21.42Z</time></trkpt><trkpt lat="43.5213578" lon="10.883743"><ele>357.6666666666667</ele><time>2026-04-18T09:15:22.414Z</time></trkpt><trkpt lat="43.5213257" lon="10.8838499"><ele>358.5</ele><time>2026-04-18T09:15:23.426Z</time></trkpt><trkpt lat="43.5212765" lon="10.8839429"><ele>359.3333333333333</ele><time>2026-04-18T09:15:24.419Z</time></trkpt><trkpt lat="43.5212286" lon="10.8840207"><ele>360.16666666666663</ele><time>2026-04-18T09:15:25.414Z</time></trkpt><trkpt lat="43.5211764" lon="10.8841015"><ele>361.0</ele><time>2026-04-18T09:15:26.432Z</time></trkpt><trkpt lat="43.5211248" lon="10.8841832"><ele>362.20000000000005</ele><time>2026-04-18T09:15:27.418Z</time></trkpt><trkpt lat="43.5210848" lon="10.8842702"><ele>363.40000000000003</ele><time>2026-04-18T09:15:28.419Z</time></trkpt><trkpt lat="43.5210714" lon="10.8843767"><ele>364.6</ele><time>2026-04-18T09:15:29.414Z</time></trkpt><trkpt lat="43.5210919" lon="10.8845188"><ele>365.8</ele><time>2026-04-18T09:15:30.409Z</time></trkpt><trkpt lat="43.5211251" lon="10.8846511"><ele>367.0</ele><time>2026-04-18T09:15:31.401Z</time></trkpt><trkpt lat="43.5211651" lon="10.8847991"><ele>367.0</ele><time>2026-04-18T09:15:32.413Z</time></trkpt><trkpt lat="43.5212044" lon="10.8849331"><ele>367.0</ele><time>2026-04-18T09:15:33.422Z</time></trkpt><trkpt lat="43.521246" lon="10.8850661"><ele>367.0</ele><time>2026-04-18T09:15:34.404Z</time></trkpt><trkpt lat="43.5212901" lon="10.8852034"><ele>367.0</ele><time>2026-04-18T09:15:35.418Z</time></trkpt><trkpt lat="43.5213381" lon="10.8853319"><ele>367.0</ele><time>2026-04-18T09:15:36.422Z</time></trkpt><trkpt lat="43.5214016" lon="10.8854538"><ele>367.75</ele><time>2026-04-18T09:15:37.41Z</time></trkpt><trkpt lat="43.5214692" lon="10.8855701"><ele>368.5</ele><time>2026-04-18T09:15:38.418Z</time></trkpt><trkpt lat="43.5215438" lon="10.8856945"><ele>369.25</ele><time>2026-04-18T09:15:39.417Z</time></trkpt><trkpt lat="43.5216149" lon="10.8858325"><ele>370.0</ele><time>2026-04-18T09:15:40.416Z</time></trkpt><trkpt lat="43.5216792" lon="10.8859779"><ele>370.0</ele><time>2026-04-18T09:15:41.413Z</time></trkpt><trkpt lat="43.52175" lon="10.8861355"><ele>370.0</ele><time>2026-04-18T09:15:42.42Z</time></trkpt><trkpt lat="43.5218193" lon="10.8862885"><ele>370.0</ele><time>2026-04-18T09:15:43.409Z</time></trkpt><trkpt lat="43.5218833" lon="10.8864458"><ele>370.0</ele><time>2026-04-18T09:15:44.406Z</time></trkpt><trkpt lat="43.5219511" lon="10.8866089"><ele>370.0</ele><time>2026-04-18T09:15:45.407Z</time></trkpt><trkpt lat="43.5220118" lon="10.8867579"><ele>370.0</ele><time>2026-04-18T09:15:46.412Z</time></trkpt><trkpt lat="43.522078" lon="10.8869194"><ele>370.0</ele><time>2026-04-18T09:15:47.412Z</time></trkpt><trkpt lat="43.5221396" lon="10.8870744"><ele>370.0</ele><time>2026-04-18T09:15:48.42Z</time></trkpt><trkpt lat="43.522204" lon="10.8872277"><ele>370.5</ele><time>2026-04-18T09:15:49.419Z</time></trkpt><trkpt lat="43.5222599" lon="10.887373"><ele>371.0</ele><time>2026-04-18T09:15:50.415Z</time></trkpt><trkpt lat="43.5223167" lon="10.8875215"><ele>371.5</ele><time>2026-04-18T09:15:51.417Z</time></trkpt><trkpt lat="43.5223643" lon="10.8876661"><ele>372.0</ele><time>2026-04-18T09:15:52.403Z</time></trkpt><trkpt lat="43.5223945" lon="10.8878098"><ele>372.0</ele><time>2026-04-18T09:15:53.435Z</time></trkpt><trkpt lat="43.5224139" lon="10.8879561"><ele>372.0</ele><time>2026-04-18T09:15:54.419Z</time></trkpt><trkpt lat="43.52241" lon="10.8881052"><ele>372.0</ele><time>2026-04-18T09:15:55.417Z</time></trkpt><trkpt lat="43.5223926" lon="10.8882499"><ele>372.0</ele><time>2026-04-18T09:15:56.444Z</time></trkpt><trkpt lat="43.5223787" lon="10.8883868"><ele>372.0</ele><time>2026-04-18T09:15:57.414Z</time></trkpt><trkpt lat="43.5223681" lon="10.8885252"><ele>373.6</ele><time>2026-04-18T09:15:58.416Z</time></trkpt><trkpt lat="43.5223477" lon="10.8886676"><ele>375.20000000000005</ele><time>2026-04-18T09:15:59.418Z</time></trkpt><trkpt lat="43.5223301" lon="10.8888066"><ele>376.8</ele><time>2026-04-18T09:16:00.422Z</time></trkpt><trkpt lat="43.522306" lon="10.8889463"><ele>378.4</ele><time>2026-04-18T09:16:01.42Z</time></trkpt><trkpt lat="43.5222856" lon="10.8890815"><ele>380.0</ele><time>2026-04-18T09:16:02.419Z</time></trkpt><trkpt lat="43.5222667" lon="10.8892177"><ele>381.6</ele><time>2026-04-18T09:16:03.416Z</time></trkpt><trkpt lat="43.5222516" lon="10.8893579"><ele>383.2</ele><time>2026-04-18T09:16:04.429Z</time></trkpt><trkpt lat="43.5222307" lon="10.8895057"><ele>384.79999999999995</ele><time>2026-04-18T09:16:05.421Z</time></trkpt><trkpt lat="43.5222143" lon="10.8896472"><ele>386.4</ele><time>2026-04-18T09:16:06.402Z</time></trkpt><trkpt lat="43.5221997" lon="10.8897937"><ele>388.0</ele><time>2026-04-18T09:16:07.415Z</time></trkpt><trkpt lat="43.5221864" lon="10.8899434"><ele>388.0</ele><time>2026-04-18T09:16:08.419Z</time></trkpt><trkpt lat="43.522178" lon="10.8900881"><ele>388.0</ele><time>2026-04-18T09:16:09.419Z</time></trkpt><trkpt lat="43.5221836" lon="10.8902323"><ele>388.0</ele><time>2026-04-18T09:16:10.403Z</time></trkpt><trkpt lat="43.5221985" lon="10.8903896"><ele>388.0</ele><time>2026-04-18T09:16:11.413Z</time></trkpt><trkpt lat="43.5222221" lon="10.8905433"><ele>388.0</ele><time>2026-04-18T09:16:12.426Z</time></trkpt><trkpt lat="43.5222538" lon="10.8906894"><ele>388.79999999999995</ele><time>2026-04-18T09:16:13.407Z</time></trkpt><trkpt lat="43.5222906" lon="10.8908253"><ele>389.6</ele><time>2026-04-18T09:16:14.404Z</time></trkpt><trkpt lat="43.5223377" lon="10.8909667"><ele>390.4</ele><time>2026-04-18T09:16:15.425Z</time></trkpt><trkpt lat="43.5223857" lon="10.8911126"><ele>391.20000000000005</ele><time>2026-04-18T09:16:16.405Z</time></trkpt><trkpt lat="43.5224309" lon="10.8912523"><ele>392.0</ele><time>2026-04-18T09:16:17.429Z</time></trkpt><trkpt lat="43.5224811" lon="10.89139"><ele>392.8</ele><time>2026-04-18T09:16:18.406Z</time></trkpt><trkpt lat="43.5225362" lon="10.8915191"><ele>393.6</ele><time>2026-04-18T09:16:19.43Z</time></trkpt><trkpt lat="43.522584" lon="10.8916573"><ele>394.40000000000003</ele><time>2026-04-18T09:16:20.416Z</time></trkpt><trkpt lat="43.5226308" lon="10.891798"><ele>395.20000000000005</ele><time>2026-04-18T09:16:21.416Z</time></trkpt><trkpt lat="43.522678" lon="10.8919368"><ele>396.0</ele><time>2026-04-18T09:16:22.414Z</time></trkpt><trkpt lat="43.5227248" lon="10.8920727"><ele>396.8</ele><time>2026-04-18T09:16:23.407Z</time></trkpt><trkpt lat="43.5227772" lon="10.8922093"><ele>397.6</ele><time>2026-04-18T09:16:24.416Z</time></trkpt><trkpt lat="43.522823" lon="10.8923462"><ele>398.4</ele><time>2026-04-18T09:16:25.405Z</time></trkpt><trkpt lat="43.5228684" lon="10.8924818"><ele>399.2</ele><time>2026-04-18T09:16:26.408Z</time></trkpt><trkpt lat="43.522916" lon="10.8926221"><ele>400.0</ele><time>2026-04-18T09:16:27.417Z</time></trkpt><trkpt lat="43.5229622" lon="10.8927619"><ele>400.0</ele><time>2026-04-18T09:16:28.424Z</time></trkpt><trkpt lat="43.5230065" lon="10.892903"><ele>400.0</ele><time>2026-04-18T09:16:29.419Z</time></trkpt><trkpt lat="43.5230497" lon="10.8930489"><ele>400.0</ele><time>2026-04-18T09:16:30.425Z</time></trkpt><trkpt lat="43.523095" lon="10.893189"><ele>400.0</ele><time>2026-04-18T09:16:31.422Z</time></trkpt><trkpt lat="43.5231401" lon="10.8933285"><ele>400.0</ele><time>2026-04-18T09:16:32.405Z</time></trkpt><trkpt lat="43.5231841" lon="10.8934566"><ele>401.33333333333337</ele><time>2026-04-18T09:16:33.406Z</time></trkpt><trkpt lat="43.5232213" lon="10.8935768"><ele>402.6666666666667</ele><time>2026-04-18T09:16:34.427Z</time></trkpt><trkpt lat="43.5232576" lon="10.893678"><ele>404.0</ele><time>2026-04-18T09:16:35.424Z</time></trkpt><trkpt lat="43.5232858" lon="10.8937731"><ele>405.33333333333337</ele><time>2026-04-18T09:16:36.409Z</time></trkpt><trkpt lat="43.5233133" lon="10.893864"><ele>406.6666666666667</ele><time>2026-04-18T09:16:37.416Z</time></trkpt><trkpt lat="43.5233393" lon="10.8939522"><ele>408.0</ele><time>2026-04-18T09:16:38.426Z</time></trkpt><trkpt lat="43.5233803" lon="10.8941117"><ele>408.0</ele><time>2026-04-18T09:16:40.425Z</time></trkpt><trkpt lat="43.5234112" lon="10.8941953"><ele>408.0</ele><time>2026-04-18T09:16:41.411Z</time></trkpt><trkpt lat="43.5234469" lon="10.8942831"><ele>408.0</ele><time>2026-04-18T09:16:42.429Z</time></trkpt><trkpt lat="43.5234843" lon="10.8943646"><ele>408.0</ele><time>2026-04-18T09:16:43.423Z</time></trkpt><trkpt lat="43.5235172" lon="10.8944465"><ele>408.0</ele><time>2026-04-18T09:16:44.405Z</time></trkpt><trkpt lat="43.5235548" lon="10.8945261"><ele>408.0</ele><time>2026-04-18T09:16:45.418Z</time></trkpt><trkpt lat="43.523598" lon="10.8946195"><ele>408.0</ele><time>2026-04-18T09:16:46.414Z</time></trkpt><trkpt lat="43.5236383" lon="10.8947205"><ele>407.8333333333333</ele><time>2026-04-18T09:16:47.403Z</time></trkpt><trkpt lat="43.5236818" lon="10.8948173"><ele>407.66666666666663</ele><time>2026-04-18T09:16:48.412Z</time></trkpt><trkpt lat="43.5237177" lon="10.8949168"><ele>407.5</ele><time>2026-04-18T09:16:49.411Z</time></trkpt><trkpt lat="43.5237569" lon="10.895008"><ele>407.3333333333333</ele><time>2026-04-18T09:16:50.425Z</time></trkpt><trkpt lat="43.523787" lon="10.8951059"><ele>407.16666666666663</ele><time>2026-04-18T09:16:51.424Z</time></trkpt><trkpt lat="43.5238234" lon="10.8952116"><ele>407.0</ele><time>2026-04-18T09:16:52.416Z</time></trkpt><trkpt lat="43.5238553" lon="10.8953171"><ele>406.99999999999994</ele><time>2026-04-18T09:16:53.421Z</time></trkpt><trkpt lat="43.5238866" lon="10.895425"><ele>407.0</ele><time>2026-04-18T09:16:54.416Z</time></trkpt><trkpt lat="43.5239148" lon="10.8955302"><ele>407.0</ele><time>2026-04-18T09:16:55.42Z</time></trkpt><trkpt lat="43.5239412" lon="10.8956375"><ele>407.0</ele><time>2026-04-18T09:16:56.415Z</time></trkpt><trkpt lat="43.5239653" lon="10.8957504"><ele>406.99999999999994</ele><time>2026-04-18T09:16:57.422Z</time></trkpt><trkpt lat="43.5239925" lon="10.8958619"><ele>407.0</ele><time>2026-04-18T09:16:58.406Z</time></trkpt><trkpt lat="43.5240198" lon="10.8959789"><ele>408.0</ele><time>2026-04-18T09:16:59.425Z</time></trkpt><trkpt lat="43.5240475" lon="10.8960957"><ele>409.0</ele><time>2026-04-18T09:17:00.418Z</time></trkpt><trkpt lat="43.5240729" lon="10.8962214"><ele>410.0</ele><time>2026-04-18T09:17:01.422Z</time></trkpt><trkpt lat="43.5241015" lon="10.8963558"><ele>411.0</ele><time>2026-04-18T09:17:02.414Z</time></trkpt><trkpt lat="43.5241339" lon="10.8964925"><ele>412.0</ele><time>2026-04-18T09:17:03.408Z</time></trkpt><trkpt lat="43.5241655" lon="10.896631"><ele>412.20000000000005</ele><time>2026-04-18T09:17:04.418Z</time></trkpt><trkpt lat="43.5241912" lon="10.8967674"><ele>412.4</ele><time>2026-04-18T09:17:05.419Z</time></trkpt><trkpt lat="43.5242194" lon="10.8969065"><ele>412.6</ele><time>2026-04-18T09:17:06.4Z</time></trkpt><trkpt lat="43.5242466" lon="10.8970434"><ele>412.79999999999995</ele><time>2026-04-18T09:17:07.414Z</time></trkpt><trkpt lat="43.5242775" lon="10.8971713"><ele>413.0</ele><time>2026-04-18T09:17:08.415Z</time></trkpt><trkpt lat="43.5243009" lon="10.897295"><ele>412.99999999999994</ele><time>2026-04-18T09:17:09.416Z</time></trkpt><trkpt lat="43.5243211" lon="10.8974142"><ele>413.0</ele><time>2026-04-18T09:17:10.413Z</time></trkpt><trkpt lat="43.5243432" lon="10.8975189"><ele>413.0</ele><time>2026-04-18T09:17:11.429Z</time></trkpt><trkpt lat="43.524367" lon="10.897629"><ele>413.0</ele><time>2026-04-18T09:17:12.424Z</time></trkpt><trkpt lat="43.524389" lon="10.897723"><ele>412.99999999999994</ele><time>2026-04-18T09:17:13.436Z</time></trkpt><trkpt lat="43.5244051" lon="10.8978083"><ele>413.0</ele><time>2026-04-18T09:17:14.411Z</time></trkpt><trkpt lat="43.5244277" lon="10.8979256"><ele>414.0</ele><time>2026-04-18T09:17:16.431Z</time></trkpt><trkpt lat="43.5244332" lon="10.8980197"><ele>415.0</ele><time>2026-04-18T09:17:18.424Z</time></trkpt><trkpt lat="43.5244122" lon="10.8981409"><ele>416.0</ele><time>2026-04-18T09:17:20.424Z</time></trkpt><trkpt lat="43.5243311" lon="10.8982801"><ele>417.0</ele><time>2026-04-18T09:17:22.427Z</time></trkpt><trkpt lat="43.5242707" lon="10.8983607"><ele>418.0</ele><time>2026-04-18T09:17:23.424Z</time></trkpt><trkpt lat="43.524202" lon="10.8984418"><ele>420.0</ele><time>2026-04-18T09:17:24.441Z</time></trkpt><trkpt lat="43.5241292" lon="10.898523"><ele>422.0</ele><time>2026-04-18T09:17:25.438Z</time></trkpt><trkpt lat="43.5240489" lon="10.898614"><ele>423.99999999999994</ele><time>2026-04-18T09:17:26.403Z</time></trkpt><trkpt lat="43.5239668" lon="10.8987004"><ele>426.0</ele><time>2026-04-18T09:17:27.424Z</time></trkpt><trkpt lat="43.5238879" lon="10.8987885"><ele>428.0</ele><time>2026-04-18T09:17:28.422Z</time></trkpt><trkpt lat="43.5238005" lon="10.8988775"><ele>427.5</ele><time>2026-04-18T09:17:29.41Z</time></trkpt><trkpt lat="43.5237145" lon="10.8989749"><ele>427.0</ele><time>2026-04-18T09:17:30.412Z</time></trkpt><trkpt lat="43.5236224" lon="10.8990682"><ele>426.5</ele><time>2026-04-18T09:17:31.404Z</time></trkpt><trkpt lat="43.5235267" lon="10.8991566"><ele>426.0</ele><time>2026-04-18T09:17:32.418Z</time></trkpt><trkpt lat="43.5234235" lon="10.8992528"><ele>426.0</ele><time>2026-04-18T09:17:33.422Z</time></trkpt><trkpt lat="43.5233155" lon="10.8993425"><ele>426.0</ele><time>2026-04-18T09:17:34.421Z</time></trkpt><trkpt lat="43.5232034" lon="10.8994263"><ele>426.0</ele><time>2026-04-18T09:17:35.422Z</time></trkpt><trkpt lat="43.5230915" lon="10.8995001"><ele>426.0</ele><time>2026-04-18T09:17:36.433Z</time></trkpt><trkpt lat="43.5229681" lon="10.8995629"><ele>426.5</ele><time>2026-04-18T09:17:37.406Z</time></trkpt><trkpt lat="43.5228386" lon="10.8996219"><ele>427.0</ele><time>2026-04-18T09:17:38.416Z</time></trkpt><trkpt lat="43.5227112" lon="10.8996794"><ele>427.5</ele><time>2026-04-18T09:17:39.424Z</time></trkpt><trkpt lat="43.5225736" lon="10.8997386"><ele>428.0</ele><time>2026-04-18T09:17:40.411Z</time></trkpt><trkpt lat="43.5224284" lon="10.8997986"><ele>428.0</ele><time>2026-04-18T09:17:41.41Z</time></trkpt><trkpt lat="43.52229" lon="10.8998565"><ele>428.0</ele><time>2026-04-18T09:17:42.405Z</time></trkpt><trkpt lat="43.5221532" lon="10.8999063"><ele>428.0</ele><time>2026-04-18T09:17:43.423Z</time></trkpt><trkpt lat="43.5220153" lon="10.8999769"><ele>428.0</ele><time>2026-04-18T09:17:44.404Z</time></trkpt><trkpt lat="43.5218823" lon="10.9000624"><ele>429.25</ele><time>2026-04-18T09:17:45.416Z</time></trkpt><trkpt lat="43.5217518" lon="10.9001596"><ele>430.5</ele><time>2026-04-18T09:17:46.425Z</time></trkpt><trkpt lat="43.5216266" lon="10.900268"><ele>431.75</ele><time>2026-04-18T09:17:47.405Z</time></trkpt><trkpt lat="43.5215063" lon="10.9003916"><ele>433.0</ele><time>2026-04-18T09:17:48.408Z</time></trkpt><trkpt lat="43.5213824" lon="10.9005171"><ele>433.0</ele><time>2026-04-18T09:17:49.421Z</time></trkpt><trkpt lat="43.5212566" lon="10.9006471"><ele>433.0</ele><time>2026-04-18T09:17:50.405Z</time></trkpt><trkpt lat="43.5211369" lon="10.9007864"><ele>433.0</ele><time>2026-04-18T09:17:51.419Z</time></trkpt><trkpt lat="43.5210156" lon="10.9009223"><ele>435.0</ele><time>2026-04-18T09:17:52.423Z</time></trkpt><trkpt lat="43.5208936" lon="10.901061"><ele>437.0</ele><time>2026-04-18T09:17:53.42Z</time></trkpt><trkpt lat="43.520776" lon="10.901195"><ele>439.0</ele><time>2026-04-18T09:17:54.422Z</time></trkpt><trkpt lat="43.5206602" lon="10.9013264"><ele>439.0</ele><time>2026-04-18T09:17:55.423Z</time></trkpt><trkpt lat="43.5205438" lon="10.901458"><ele>439.0</ele><time>2026-04-18T09:17:56.413Z</time></trkpt><trkpt lat="43.5204207" lon="10.9015962"><ele>439.0</ele><time>2026-04-18T09:17:57.412Z</time></trkpt><trkpt lat="43.5202964" lon="10.9017332"><ele>438.0</ele><time>2026-04-18T09:17:58.421Z</time></trkpt><trkpt lat="43.520173" lon="10.9018769"><ele>437.0</ele><time>2026-04-18T09:17:59.425Z</time></trkpt><trkpt lat="43.52005" lon="10.9020103"><ele>436.0</ele><time>2026-04-18T09:18:00.414Z</time></trkpt><trkpt lat="43.5199268" lon="10.9021441"><ele>436.0</ele><time>2026-04-18T09:18:01.423Z</time></trkpt><trkpt lat="43.5197952" lon="10.9022608"><ele>436.0</ele><time>2026-04-18T09:18:02.423Z</time></trkpt><trkpt lat="43.5196597" lon="10.90237"><ele>436.0</ele><time>2026-04-18T09:18:03.414Z</time></trkpt><trkpt lat="43.519513" lon="10.9024637"><ele>437.6666666666667</ele><time>2026-04-18T09:18:04.428Z</time></trkpt><trkpt lat="43.5193627" lon="10.9025494"><ele>439.33333333333337</ele><time>2026-04-18T09:18:05.422Z</time></trkpt><trkpt lat="43.5192073" lon="10.9025991"><ele>441.0</ele><time>2026-04-18T09:18:06.426Z</time></trkpt><trkpt lat="43.5190469" lon="10.9026384"><ele>441.0</ele><time>2026-04-18T09:18:07.426Z</time></trkpt><trkpt lat="43.5188825" lon="10.9026694"><ele>441.0</ele><time>2026-04-18T09:18:08.416Z</time></trkpt><trkpt lat="43.5187096" lon="10.9026845"><ele>441.0</ele><time>2026-04-18T09:18:09.416Z</time></trkpt><trkpt lat="43.5185334" lon="10.9026897"><ele>441.0</ele><time>2026-04-18T09:18:10.416Z</time></trkpt><trkpt lat="43.5183465" lon="10.9026968"><ele>441.0</ele><time>2026-04-18T09:18:11.414Z</time></trkpt><trkpt lat="43.5181644" lon="10.9027019"><ele>441.0</ele><time>2026-04-18T09:18:12.428Z</time></trkpt><trkpt lat="43.5179936" lon="10.9026984"><ele>444.0</ele><time>2026-04-18T09:18:13.419Z</time></trkpt><trkpt lat="43.5178258" lon="10.902699"><ele>447.0</ele><time>2026-04-18T09:18:14.42Z</time></trkpt><trkpt lat="43.5176725" lon="10.9026929"><ele>450.0</ele><time>2026-04-18T09:18:15.414Z</time></trkpt><trkpt lat="43.5175253" lon="10.9026712"><ele>450.0</ele><time>2026-04-18T09:18:16.41Z</time></trkpt><trkpt lat="43.5173738" lon="10.9026255"><ele>450.0</ele><time>2026-04-18T09:18:17.433Z</time></trkpt><trkpt lat="43.5172283" lon="10.9025477"><ele>450.0</ele><time>2026-04-18T09:18:18.424Z</time></trkpt><trkpt lat="43.517097" lon="10.9024275"><ele>453.66666666666663</ele><time>2026-04-18T09:18:19.412Z</time></trkpt><trkpt lat="43.5169776" lon="10.9022912"><ele>457.3333333333333</ele><time>2026-04-18T09:18:20.409Z</time></trkpt><trkpt lat="43.5168561" lon="10.9021526"><ele>461.0</ele><time>2026-04-18T09:18:21.425Z</time></trkpt><trkpt lat="43.5167393" lon="10.9020196"><ele>461.0</ele><time>2026-04-18T09:18:22.427Z</time></trkpt><trkpt lat="43.5166237" lon="10.9018784"><ele>461.0</ele><time>2026-04-18T09:18:23.434Z</time></trkpt><trkpt lat="43.5165066" lon="10.9017448"><ele>461.0</ele><time>2026-04-18T09:18:24.427Z</time></trkpt><trkpt lat="43.5163895" lon="10.9015997"><ele>460.66666666666663</ele><time>2026-04-18T09:18:25.43Z</time></trkpt><trkpt lat="43.5162653" lon="10.9014624"><ele>460.33333333333337</ele><time>2026-04-18T09:18:26.415Z</time></trkpt><trkpt lat="43.5161328" lon="10.901338"><ele>460.0</ele><time>2026-04-18T09:18:27.443Z</time></trkpt><trkpt lat="43.5159989" lon="10.9012293"><ele>461.0</ele><time>2026-04-18T09:18:28.412Z</time></trkpt><trkpt lat="43.5158696" lon="10.9011297"><ele>462.0</ele><time>2026-04-18T09:18:29.428Z</time></trkpt><trkpt lat="43.515734" lon="10.9010395"><ele>463.0</ele><time>2026-04-18T09:18:30.414Z</time></trkpt><trkpt lat="43.5156002" lon="10.9009463"><ele>464.0</ele><time>2026-04-18T09:18:31.414Z</time></trkpt><trkpt lat="43.5154651" lon="10.9008589"><ele>467.0</ele><time>2026-04-18T09:18:32.418Z</time></trkpt><trkpt lat="43.5153264" lon="10.9007754"><ele>470.0</ele><time>2026-04-18T09:18:33.419Z</time></trkpt><trkpt lat="43.5151874" lon="10.900693"><ele>473.0</ele><time>2026-04-18T09:18:34.42Z</time></trkpt><trkpt lat="43.5150455" lon="10.9006097"><ele>473.0</ele><time>2026-04-18T09:18:35.424Z</time></trkpt><trkpt lat="43.5149097" lon="10.900524"><ele>473.0</ele><time>2026-04-18T09:18:36.446Z</time></trkpt><trkpt lat="43.5147716" lon="10.9004309"><ele>473.0</ele><time>2026-04-18T09:18:37.429Z</time></trkpt><trkpt lat="43.5146391" lon="10.9003411"><ele>474.25</ele><time>2026-04-18T09:18:38.417Z</time></trkpt><trkpt lat="43.51451" lon="10.9002507"><ele>475.5</ele><time>2026-04-18T09:18:39.408Z</time></trkpt><trkpt lat="43.5143821" lon="10.9001493"><ele>476.75</ele><time>2026-04-18T09:18:40.418Z</time></trkpt><trkpt lat="43.5142593" lon="10.9000399"><ele>478.0</ele><time>2026-04-18T09:18:41.412Z</time></trkpt><trkpt lat="43.514149" lon="10.8999246"><ele>478.0</ele><time>2026-04-18T09:18:42.428Z</time></trkpt><trkpt lat="43.5140324" lon="10.8998089"><ele>478.0</ele><time>2026-04-18T09:18:43.41Z</time></trkpt><trkpt lat="43.5139198" lon="10.8996901"><ele>478.0</ele><time>2026-04-18T09:18:44.412Z</time></trkpt><trkpt lat="43.5138102" lon="10.8995815"><ele>478.0</ele><time>2026-04-18T09:18:45.432Z</time></trkpt><trkpt lat="43.5137001" lon="10.8994636"><ele>477.5</ele><time>2026-04-18T09:18:46.421Z</time></trkpt><trkpt lat="43.5135911" lon="10.8993533"><ele>477.0</ele><time>2026-04-18T09:18:47.443Z</time></trkpt><trkpt lat="43.5134812" lon="10.8992426"><ele>476.5</ele><time>2026-04-18T09:18:48.432Z</time></trkpt><trkpt lat="43.5133655" lon="10.8991345"><ele>476.0</ele><time>2026-04-18T09:18:49.432Z</time></trkpt><trkpt lat="43.5132487" lon="10.8990321"><ele>476.5</ele><time>2026-04-18T09:18:50.42Z</time></trkpt><trkpt lat="43.5131322" lon="10.8989711"><ele>477.0</ele><time>2026-04-18T09:18:51.406Z</time></trkpt><trkpt lat="43.5130072" lon="10.8989231"><ele>477.5</ele><time>2026-04-18T09:18:52.427Z</time></trkpt><trkpt lat="43.5128883" lon="10.8988967"><ele>478.0</ele><time>2026-04-18T09:18:53.416Z</time></trkpt><trkpt lat="43.5127698" lon="10.8988924"><ele>478.0</ele><time>2026-04-18T09:18:54.424Z</time></trkpt><trkpt lat="43.5126468" lon="10.8988953"><ele>478.0</ele><time>2026-04-18T09:18:55.415Z</time></trkpt><trkpt lat="43.5125282" lon="10.8989121"><ele>478.0</ele><time>2026-04-18T09:18:56.423Z</time></trkpt><trkpt lat="43.5124146" lon="10.8989657"><ele>478.0</ele><time>2026-04-18T09:18:57.416Z</time></trkpt><trkpt lat="43.5123144" lon="10.8990201"><ele>478.0</ele><time>2026-04-18T09:18:58.41Z</time></trkpt><trkpt lat="43.512208" lon="10.8991013"><ele>478.0</ele><time>2026-04-18T09:18:59.42Z</time></trkpt><trkpt lat="43.5121165" lon="10.8991932"><ele>478.0</ele><time>2026-04-18T09:19:00.413Z</time></trkpt><trkpt lat="43.5120298" lon="10.899306"><ele>478.0</ele><time>2026-04-18T09:19:01.428Z</time></trkpt><trkpt lat="43.5119479" lon="10.89944"><ele>479.5</ele><time>2026-04-18T09:19:02.423Z</time></trkpt><trkpt lat="43.511885" lon="10.8995914"><ele>481.0</ele><time>2026-04-18T09:19:03.422Z</time></trkpt><trkpt lat="43.5118373" lon="10.8997552"><ele>482.5</ele><time>2026-04-18T09:19:04.419Z</time></trkpt><trkpt lat="43.5118036" lon="10.8999226"><ele>484.0</ele><time>2026-04-18T09:19:05.423Z</time></trkpt><trkpt lat="43.5117853" lon="10.9001081"><ele>484.0</ele><time>2026-04-18T09:19:06.419Z</time></trkpt><trkpt lat="43.5117692" lon="10.9002887"><ele>484.0</ele><time>2026-04-18T09:19:07.414Z</time></trkpt><trkpt lat="43.5117562" lon="10.9004715"><ele>484.0</ele><time>2026-04-18T09:19:08.421Z</time></trkpt><trkpt lat="43.5117585" lon="10.9006556"><ele>484.0</ele><time>2026-04-18T09:19:09.406Z</time></trkpt><trkpt lat="43.5117825" lon="10.9008483"><ele>484.0</ele><time>2026-04-18T09:19:10.409Z</time></trkpt><trkpt lat="43.511813" lon="10.901041"><ele>484.0</ele><time>2026-04-18T09:19:11.425Z</time></trkpt><trkpt lat="43.5118641" lon="10.9012351"><ele>484.0</ele><time>2026-04-18T09:19:12.428Z</time></trkpt><trkpt lat="43.5119421" lon="10.9014382"><ele>484.0</ele><time>2026-04-18T09:19:13.425Z</time></trkpt><trkpt lat="43.512014" lon="10.9016458"><ele>484.0</ele><time>2026-04-18T09:19:14.423Z</time></trkpt><trkpt lat="43.5120879" lon="10.901845"><ele>484.0</ele><time>2026-04-18T09:19:15.45Z</time></trkpt><trkpt lat="43.5121525" lon="10.9020521"><ele>484.0</ele><time>2026-04-18T09:19:16.409Z</time></trkpt><trkpt lat="43.5121959" lon="10.9022788"><ele>484.0</ele><time>2026-04-18T09:19:17.408Z</time></trkpt><trkpt lat="43.5122227" lon="10.9025061"><ele>484.0</ele><time>2026-04-18T09:19:18.411Z</time></trkpt><trkpt lat="43.512229" lon="10.9027302"><ele>484.0</ele><time>2026-04-18T09:19:19.422Z</time></trkpt><trkpt lat="43.51222" lon="10.9029548"><ele>484.0</ele><time>2026-04-18T09:19:20.407Z</time></trkpt><trkpt lat="43.5122054" lon="10.9031851"><ele>484.0</ele><time>2026-04-18T09:19:21.411Z</time></trkpt><trkpt lat="43.5121855" lon="10.9034171"><ele>484.33333333333337</ele><time>2026-04-18T09:19:22.421Z</time></trkpt><trkpt lat="43.5121652" lon="10.9036644"><ele>484.66666666666663</ele><time>2026-04-18T09:19:23.41Z</time></trkpt><trkpt lat="43.5121463" lon="10.9038954"><ele>485.0</ele><time>2026-04-18T09:19:24.41Z</time></trkpt><trkpt lat="43.5121217" lon="10.904117"><ele>486.66666666666663</ele><time>2026-04-18T09:19:25.41Z</time></trkpt><trkpt lat="43.5120705" lon="10.9043338"><ele>488.33333333333337</ele><time>2026-04-18T09:19:26.411Z</time></trkpt><trkpt lat="43.511981" lon="10.9045197"><ele>490.0</ele><time>2026-04-18T09:19:27.424Z</time></trkpt><trkpt lat="43.5118607" lon="10.9046885"><ele>490.0</ele><time>2026-04-18T09:19:28.422Z</time></trkpt><trkpt lat="43.5117236" lon="10.9048067"><ele>490.0</ele><time>2026-04-18T09:19:29.415Z</time></trkpt><trkpt lat="43.5115637" lon="10.904877"><ele>490.0</ele><time>2026-04-18T09:19:30.413Z</time></trkpt><trkpt lat="43.5114034" lon="10.9049269"><ele>489.33333333333337</ele><time>2026-04-18T09:19:31.428Z</time></trkpt><trkpt lat="43.5112347" lon="10.9049722"><ele>488.66666666666663</ele><time>2026-04-18T09:19:32.413Z</time></trkpt><trkpt lat="43.5110595" lon="10.9050104"><ele>488.0</ele><time>2026-04-18T09:19:33.403Z</time></trkpt><trkpt lat="43.510871" lon="10.905045"><ele>487.0</ele><time>2026-04-18T09:19:34.425Z</time></trkpt><trkpt lat="43.5106947" lon="10.9050966"><ele>486.0</ele><time>2026-04-18T09:19:35.415Z</time></trkpt><trkpt lat="43.5105257" lon="10.9051493"><ele>485.0</ele><time>2026-04-18T09:19:36.405Z</time></trkpt><trkpt lat="43.510354" lon="10.9052078"><ele>487.0</ele><time>2026-04-18T09:19:37.414Z</time></trkpt><trkpt lat="43.5101832" lon="10.9052803"><ele>489.0</ele><time>2026-04-18T09:19:38.42Z</time></trkpt><trkpt lat="43.5100059" lon="10.9053315"><ele>491.0</ele><time>2026-04-18T09:19:39.42Z</time></trkpt><trkpt lat="43.5098179" lon="10.9053972"><ele>491.0</ele><time>2026-04-18T09:19:40.416Z</time></trkpt><trkpt lat="43.5096319" lon="10.9054696"><ele>491.0</ele><time>2026-04-18T09:19:41.418Z</time></trkpt><trkpt lat="43.5094512" lon="10.9055402"><ele>491.0</ele><time>2026-04-18T09:19:42.408Z</time></trkpt><trkpt lat="43.5092628" lon="10.9056091"><ele>493.66666666666663</ele><time>2026-04-18T09:19:43.438Z</time></trkpt><trkpt lat="43.5090747" lon="10.9056702"><ele>496.33333333333337</ele><time>2026-04-18T09:19:44.414Z</time></trkpt><trkpt lat="43.5088891" lon="10.9057284"><ele>499.0</ele><time>2026-04-18T09:19:45.418Z</time></trkpt><trkpt lat="43.508702" lon="10.9057873"><ele>501.0</ele><time>2026-04-18T09:19:46.414Z</time></trkpt><trkpt lat="43.5085107" lon="10.9058569"><ele>503.0</ele><time>2026-04-18T09:19:47.432Z</time></trkpt><trkpt lat="43.5083278" lon="10.9059221"><ele>505.0</ele><time>2026-04-18T09:19:48.421Z</time></trkpt><trkpt lat="43.508146" lon="10.9059872"><ele>505.6666666666667</ele><time>2026-04-18T09:19:49.427Z</time></trkpt><trkpt lat="43.5079728" lon="10.9060545"><ele>506.33333333333337</ele><time>2026-04-18T09:19:50.423Z</time></trkpt><trkpt lat="43.5078078" lon="10.9061171"><ele>507.0</ele><time>2026-04-18T09:19:51.417Z</time></trkpt><trkpt lat="43.5076429" lon="10.9062015"><ele>508.0</ele><time>2026-04-18T09:19:52.407Z</time></trkpt><trkpt lat="43.5074941" lon="10.9063172"><ele>509.0</ele><time>2026-04-18T09:19:53.395Z</time></trkpt><trkpt lat="43.5073603" lon="10.9064598"><ele>510.0</ele><time>2026-04-18T09:19:54.408Z</time></trkpt><trkpt lat="43.5072315" lon="10.9066028"><ele>512.6666666666666</ele><time>2026-04-18T09:19:55.411Z</time></trkpt><trkpt lat="43.5071069" lon="10.9067541"><ele>515.3333333333333</ele><time>2026-04-18T09:19:56.424Z</time></trkpt><trkpt lat="43.5069836" lon="10.9068906"><ele>518.0</ele><time>2026-04-18T09:19:57.415Z</time></trkpt><trkpt lat="43.5068591" lon="10.907027"><ele>518.6666666666666</ele><time>2026-04-18T09:19:58.405Z</time></trkpt><trkpt lat="43.5067342" lon="10.9071762"><ele>519.3333333333334</ele><time>2026-04-18T09:19:59.41Z</time></trkpt><trkpt lat="43.5066059" lon="10.9073216"><ele>520.0</ele><time>2026-04-18T09:20:00.419Z</time></trkpt><trkpt lat="43.5064836" lon="10.9074733"><ele>520.3333333333334</ele><time>2026-04-18T09:20:01.416Z</time></trkpt><trkpt lat="43.506353" lon="10.9076234"><ele>520.6666666666666</ele><time>2026-04-18T09:20:02.423Z</time></trkpt><trkpt lat="43.5062284" lon="10.9077745"><ele>521.0</ele><time>2026-04-18T09:20:03.41Z</time></trkpt><trkpt lat="43.5061051" lon="10.907908"><ele>522.0</ele><time>2026-04-18T09:20:04.426Z</time></trkpt><trkpt lat="43.505983" lon="10.908023"><ele>523.0</ele><time>2026-04-18T09:20:05.422Z</time></trkpt><trkpt lat="43.5058461" lon="10.9081127"><ele>524.0</ele><time>2026-04-18T09:20:06.425Z</time></trkpt><trkpt lat="43.5056997" lon="10.9081759"><ele>524.0</ele><time>2026-04-18T09:20:07.411Z</time></trkpt><trkpt lat="43.5055457" lon="10.9082043"><ele>524.0</ele><time>2026-04-18T09:20:08.429Z</time></trkpt><trkpt lat="43.5053929" lon="10.9082099"><ele>524.0</ele><time>2026-04-18T09:20:09.423Z</time></trkpt><trkpt lat="43.5052412" lon="10.9081971"><ele>525.3333333333333</ele><time>2026-04-18T09:20:10.426Z</time></trkpt><trkpt lat="43.5050859" lon="10.9081687"><ele>526.6666666666666</ele><time>2026-04-18T09:20:11.421Z</time></trkpt><trkpt lat="43.5049369" lon="10.9081324"><ele>528.0</ele><time>2026-04-18T09:20:12.428Z</time></trkpt><trkpt lat="43.5047925" lon="10.9080944"><ele>528.0</ele><time>2026-04-18T09:20:13.417Z</time></trkpt><trkpt lat="43.5046415" lon="10.9080641"><ele>528.0</ele><time>2026-04-18T09:20:14.419Z</time></trkpt><trkpt lat="43.5044817" lon="10.9080303"><ele>528.0</ele><time>2026-04-18T09:20:15.415Z</time></trkpt><trkpt lat="43.504316" lon="10.9079976"><ele>530.0</ele><time>2026-04-18T09:20:16.42Z</time></trkpt><trkpt lat="43.5041417" lon="10.9079772"><ele>532.0</ele><time>2026-04-18T09:20:17.414Z</time></trkpt><trkpt lat="43.5039685" lon="10.9079485"><ele>534.0</ele><time>2026-04-18T09:20:18.415Z</time></trkpt><trkpt lat="43.5037964" lon="10.9079213"><ele>534.6666666666666</ele><time>2026-04-18T09:20:19.419Z</time></trkpt><trkpt lat="43.5036215" lon="10.9078901"><ele>535.3333333333333</ele><time>2026-04-18T09:20:20.429Z</time></trkpt><trkpt lat="43.5034485" lon="10.9078611"><ele>536.0</ele><time>2026-04-18T09:20:21.434Z</time></trkpt><trkpt lat="43.5032775" lon="10.9078434"><ele>536.0</ele><time>2026-04-18T09:20:22.427Z</time></trkpt><trkpt lat="43.5031078" lon="10.9078194"><ele>536.0</ele><time>2026-04-18T09:20:23.423Z</time></trkpt><trkpt lat="43.5029433" lon="10.9077925"><ele>536.0</ele><time>2026-04-18T09:20:24.416Z</time></trkpt><trkpt lat="43.5027825" lon="10.9077719"><ele>535.3333333333333</ele><time>2026-04-18T09:20:25.421Z</time></trkpt><trkpt lat="43.5026211" lon="10.9077467"><ele>534.6666666666666</ele><time>2026-04-18T09:20:26.426Z</time></trkpt><trkpt lat="43.5024647" lon="10.9077233"><ele>534.0</ele><time>2026-04-18T09:20:27.423Z</time></trkpt><trkpt lat="43.5023112" lon="10.9077036"><ele>534.0</ele><time>2026-04-18T09:20:28.411Z</time></trkpt><trkpt lat="43.5021664" lon="10.9076837"><ele>534.0</ele><time>2026-04-18T09:20:29.415Z</time></trkpt><trkpt lat="43.5020309" lon="10.9076652"><ele>534.0</ele><time>2026-04-18T09:20:30.413Z</time></trkpt><trkpt lat="43.5018998" lon="10.9076621"><ele>534.0</ele><time>2026-04-18T09:20:31.427Z</time></trkpt><trkpt lat="43.5017673" lon="10.9076827"><ele>534.75</ele><time>2026-04-18T09:20:32.427Z</time></trkpt><trkpt lat="43.5016355" lon="10.9077391"><ele>535.5</ele><time>2026-04-18T09:20:33.408Z</time></trkpt><trkpt lat="43.5015113" lon="10.9078068"><ele>536.25</ele><time>2026-04-18T09:20:34.413Z</time></trkpt><trkpt lat="43.5014013" lon="10.9079031"><ele>537.0</ele><time>2026-04-18T09:20:35.426Z</time></trkpt><trkpt lat="43.5012995" lon="10.9080291"><ele>538.25</ele><time>2026-04-18T09:20:36.407Z</time></trkpt><trkpt lat="43.5012003" lon="10.90817"><ele>539.5</ele><time>2026-04-18T09:20:37.435Z</time></trkpt><trkpt lat="43.5011192" lon="10.9083155"><ele>540.75</ele><time>2026-04-18T09:20:38.422Z</time></trkpt><trkpt lat="43.5010418" lon="10.9084632"><ele>542.0</ele><time>2026-04-18T09:20:39.431Z</time></trkpt><trkpt lat="43.5009665" lon="10.9086117"><ele>542.0</ele><time>2026-04-18T09:20:40.428Z</time></trkpt><trkpt lat="43.5008984" lon="10.9087686"><ele>542.0</ele><time>2026-04-18T09:20:41.413Z</time></trkpt><trkpt lat="43.500845" lon="10.9089508"><ele>542.0</ele><time>2026-04-18T09:20:42.418Z</time></trkpt><trkpt lat="43.5007958" lon="10.9091324"><ele>542.0</ele><time>2026-04-18T09:20:43.405Z</time></trkpt><trkpt lat="43.5007534" lon="10.9093129"><ele>542.0</ele><time>2026-04-18T09:20:44.42Z</time></trkpt><trkpt lat="43.5007156" lon="10.9094906"><ele>542.0</ele><time>2026-04-18T09:20:45.414Z</time></trkpt><trkpt lat="43.5006768" lon="10.9096669"><ele>542.0</ele><time>2026-04-18T09:20:46.424Z</time></trkpt><trkpt lat="43.5006409" lon="10.9098275"><ele>542.0</ele><time>2026-04-18T09:20:47.407Z</time></trkpt><trkpt lat="43.5006041" lon="10.9099975"><ele>543.0</ele><time>2026-04-18T09:20:48.426Z</time></trkpt><trkpt lat="43.500589" lon="10.9101631"><ele>544.0</ele><time>2026-04-18T09:20:49.423Z</time></trkpt><trkpt lat="43.5005929" lon="10.9103416"><ele>545.0</ele><time>2026-04-18T09:20:50.423Z</time></trkpt><trkpt lat="43.5006174" lon="10.9105225"><ele>546.0</ele><time>2026-04-18T09:20:51.422Z</time></trkpt><trkpt lat="43.5006449" lon="10.9106911"><ele>546.0</ele><time>2026-04-18T09:20:52.427Z</time></trkpt><trkpt lat="43.500681" lon="10.9108627"><ele>546.0</ele><time>2026-04-18T09:20:53.409Z</time></trkpt><trkpt lat="43.5007146" lon="10.9110334"><ele>546.0</ele><time>2026-04-18T09:20:54.418Z</time></trkpt><trkpt lat="43.5007451" lon="10.9112068"><ele>546.0</ele><time>2026-04-18T09:20:55.423Z</time></trkpt><trkpt lat="43.5007776" lon="10.9113813"><ele>546.0</ele><time>2026-04-18T09:20:56.416Z</time></trkpt><trkpt lat="43.5007981" lon="10.9115571"><ele>546.0</ele><time>2026-04-18T09:20:57.437Z</time></trkpt><trkpt lat="43.5008126" lon="10.9117188"><ele>546.0</ele><time>2026-04-18T09:20:58.421Z</time></trkpt><trkpt lat="43.500832" lon="10.9118754"><ele>546.0</ele><time>2026-04-18T09:20:59.415Z</time></trkpt><trkpt lat="43.5008291" lon="10.9120324"><ele>544.75</ele><time>2026-04-18T09:21:00.427Z</time></trkpt><trkpt lat="43.500804" lon="10.9121774"><ele>543.5</ele><time>2026-04-18T09:21:01.405Z</time></trkpt><trkpt lat="43.5007674" lon="10.9123121"><ele>542.25</ele><time>2026-04-18T09:21:02.421Z</time></trkpt><trkpt lat="43.5007126" lon="10.9124576"><ele>541.0</ele><time>2026-04-18T09:21:03.409Z</time></trkpt><trkpt lat="43.5006519" lon="10.9126131"><ele>540.0</ele><time>2026-04-18T09:21:04.415Z</time></trkpt><trkpt lat="43.5005924" lon="10.9127628"><ele>539.0</ele><time>2026-04-18T09:21:05.405Z</time></trkpt><trkpt lat="43.5005302" lon="10.9129293"><ele>538.0</ele><time>2026-04-18T09:21:06.41Z</time></trkpt><trkpt lat="43.5004546" lon="10.9131047"><ele>537.0</ele><time>2026-04-18T09:21:07.412Z</time></trkpt><trkpt lat="43.5003727" lon="10.9132778"><ele>537.25</ele><time>2026-04-18T09:21:08.423Z</time></trkpt><trkpt lat="43.5002848" lon="10.9134495"><ele>537.5</ele><time>2026-04-18T09:21:09.431Z</time></trkpt><trkpt lat="43.5002029" lon="10.9135927"><ele>537.75</ele><time>2026-04-18T09:21:10.409Z</time></trkpt><trkpt lat="43.5001223" lon="10.9137485"><ele>538.0</ele><time>2026-04-18T09:21:11.413Z</time></trkpt><trkpt lat="43.5000492" lon="10.9139043"><ele>538.0</ele><time>2026-04-18T09:21:12.415Z</time></trkpt><trkpt lat="43.499984" lon="10.9140494"><ele>538.0</ele><time>2026-04-18T09:21:13.415Z</time></trkpt><trkpt lat="43.4999327" lon="10.914191"><ele>538.0</ele><time>2026-04-18T09:21:14.421Z</time></trkpt><trkpt lat="43.4999007" lon="10.9143583"><ele>538.0</ele><time>2026-04-18T09:21:15.412Z</time></trkpt><trkpt lat="43.4998795" lon="10.9145345"><ele>538.0</ele><time>2026-04-18T09:21:16.416Z</time></trkpt><trkpt lat="43.4998776" lon="10.9147069"><ele>538.0</ele><time>2026-04-18T09:21:17.422Z</time></trkpt><trkpt lat="43.4998911" lon="10.9148823"><ele>538.0</ele><time>2026-04-18T09:21:18.429Z</time></trkpt><trkpt lat="43.4999148" lon="10.9150685"><ele>538.0</ele><time>2026-04-18T09:21:19.417Z</time></trkpt><trkpt lat="43.4999385" lon="10.9152571"><ele>537.75</ele><time>2026-04-18T09:21:20.415Z</time></trkpt><trkpt lat="43.4999616" lon="10.9154487"><ele>537.5</ele><time>2026-04-18T09:21:21.422Z</time></trkpt><trkpt lat="43.4999835" lon="10.9156327"><ele>537.25</ele><time>2026-04-18T09:21:22.413Z</time></trkpt><trkpt lat="43.5000067" lon="10.9158216"><ele>537.0</ele><time>2026-04-18T09:21:23.415Z</time></trkpt><trkpt lat="43.5000215" lon="10.9159975"><ele>536.5</ele><time>2026-04-18T09:21:24.432Z</time></trkpt><trkpt lat="43.5000185" lon="10.9161742"><ele>536.0</ele><time>2026-04-18T09:21:25.431Z</time></trkpt><trkpt lat="43.499995" lon="10.9163462"><ele>535.5</ele><time>2026-04-18T09:21:26.428Z</time></trkpt><trkpt lat="43.4999553" lon="10.9164967"><ele>535.0</ele><time>2026-04-18T09:21:27.418Z</time></trkpt><trkpt lat="43.4998965" lon="10.9166246"><ele>535.0</ele><time>2026-04-18T09:21:28.425Z</time></trkpt><trkpt lat="43.4998129" lon="10.9167343"><ele>535.0</ele><time>2026-04-18T09:21:29.425Z</time></trkpt><trkpt lat="43.4997051" lon="10.9168184"><ele>535.0</ele><time>2026-04-18T09:21:30.412Z</time></trkpt><trkpt lat="43.4995972" lon="10.9169056"><ele>535.0</ele><time>2026-04-18T09:21:31.418Z</time></trkpt><trkpt lat="43.4994854" lon="10.9169867"><ele>537.0</ele><time>2026-04-18T09:21:32.415Z</time></trkpt><trkpt lat="43.4993767" lon="10.9170696"><ele>539.0</ele><time>2026-04-18T09:21:33.436Z</time></trkpt><trkpt lat="43.499268" lon="10.9171534"><ele>541.0</ele><time>2026-04-18T09:21:34.415Z</time></trkpt><trkpt lat="43.4991584" lon="10.9172405"><ele>543.0</ele><time>2026-04-18T09:21:35.415Z</time></trkpt><trkpt lat="43.4990505" lon="10.917322"><ele>543.0</ele><time>2026-04-18T09:21:36.433Z</time></trkpt><trkpt lat="43.4989501" lon="10.9174019"><ele>543.0</ele><time>2026-04-18T09:21:37.43Z</time></trkpt><trkpt lat="43.4988627" lon="10.9174762"><ele>543.0</ele><time>2026-04-18T09:21:38.424Z</time></trkpt><trkpt lat="43.4987775" lon="10.9175417"><ele>543.0</ele><time>2026-04-18T09:21:39.44Z</time></trkpt><trkpt lat="43.4986955" lon="10.9176001"><ele>543.0</ele><time>2026-04-18T09:21:40.422Z</time></trkpt><trkpt lat="43.4986136" lon="10.9176558"><ele>542.0</ele><time>2026-04-18T09:21:41.419Z</time></trkpt><trkpt lat="43.4985227" lon="10.9176943"><ele>541.0</ele><time>2026-04-18T09:21:42.414Z</time></trkpt><trkpt lat="43.4984232" lon="10.9177055"><ele>540.0</ele><time>2026-04-18T09:21:43.437Z</time></trkpt><trkpt lat="43.4983239" lon="10.9177199"><ele>539.0</ele><time>2026-04-18T09:21:44.416Z</time></trkpt><trkpt lat="43.4982242" lon="10.9177368"><ele>538.0</ele><time>2026-04-18T09:21:45.411Z</time></trkpt><trkpt lat="43.4981289" lon="10.9177743"><ele>538.0</ele><time>2026-04-18T09:21:46.42Z</time></trkpt><trkpt lat="43.4980452" lon="10.9178424"><ele>538.0</ele><time>2026-04-18T09:21:47.423Z</time></trkpt><trkpt lat="43.4979889" lon="10.9179646"><ele>538.0</ele><time>2026-04-18T09:21:48.414Z</time></trkpt><trkpt lat="43.4979505" lon="10.9181198"><ele>538.0</ele><time>2026-04-18T09:21:49.424Z</time></trkpt><trkpt lat="43.4979081" lon="10.9182812"><ele>538.0</ele><time>2026-04-18T09:21:50.424Z</time></trkpt><trkpt lat="43.497867" lon="10.9184496"><ele>538.0</ele><time>2026-04-18T09:21:51.427Z</time></trkpt><trkpt lat="43.4978134" lon="10.9186231"><ele>538.0</ele><time>2026-04-18T09:21:52.414Z</time></trkpt><trkpt lat="43.4977627" lon="10.9187795"><ele>538.0</ele><time>2026-04-18T09:21:53.415Z</time></trkpt><trkpt lat="43.4977111" lon="10.9189394"><ele>538.0</ele><time>2026-04-18T09:21:54.425Z</time></trkpt><trkpt lat="43.4976665" lon="10.9190939"><ele>536.5</ele><time>2026-04-18T09:21:55.433Z</time></trkpt><trkpt lat="43.4976177" lon="10.9192347"><ele>535.0</ele><time>2026-04-18T09:21:56.438Z</time></trkpt><trkpt lat="43.497568" lon="10.919385"><ele>533.5</ele><time>2026-04-18T09:21:57.425Z</time></trkpt><trkpt lat="43.4975173" lon="10.9195336"><ele>532.0</ele><time>2026-04-18T09:21:58.42Z</time></trkpt><trkpt lat="43.4974727" lon="10.9196923"><ele>532.0</ele><time>2026-04-18T09:21:59.424Z</time></trkpt><trkpt lat="43.4974403" lon="10.9198775"><ele>532.0</ele><time>2026-04-18T09:22:00.443Z</time></trkpt><trkpt lat="43.497417" lon="10.9200702"><ele>532.0</ele><time>2026-04-18T09:22:01.427Z</time></trkpt><trkpt lat="43.4974027" lon="10.9202597"><ele>532.0</ele><time>2026-04-18T09:22:02.418Z</time></trkpt><trkpt lat="43.4974004" lon="10.9204297"><ele>531.0</ele><time>2026-04-18T09:22:03.431Z</time></trkpt><trkpt lat="43.4973993" lon="10.9205812"><ele>530.0</ele><time>2026-04-18T09:22:04.415Z</time></trkpt><trkpt lat="43.497374" lon="10.920702"><ele>529.0</ele><time>2026-04-18T09:22:05.43Z</time></trkpt><trkpt lat="43.4973279" lon="10.9207929"><ele>528.0</ele><time>2026-04-18T09:22:06.413Z</time></trkpt><trkpt lat="43.4972712" lon="10.9208945"><ele>527.0</ele><time>2026-04-18T09:22:07.399Z</time></trkpt><trkpt lat="43.4971847" lon="10.9209699"><ele>525.0</ele><time>2026-04-18T09:22:08.417Z</time></trkpt><trkpt lat="43.4970875" lon="10.9210257"><ele>523.0</ele><time>2026-04-18T09:22:09.415Z</time></trkpt><trkpt lat="43.4969721" lon="10.9210751"><ele>521.0</ele><time>2026-04-18T09:22:10.424Z</time></trkpt><trkpt lat="43.4968551" lon="10.9211283"><ele>519.0</ele><time>2026-04-18T09:22:11.43Z</time></trkpt><trkpt lat="43.4967387" lon="10.921185"><ele>518.75</ele><time>2026-04-18T09:22:12.409Z</time></trkpt><trkpt lat="43.4966239" lon="10.9212441"><ele>518.5</ele><time>2026-04-18T09:22:13.414Z</time></trkpt><trkpt lat="43.4965066" lon="10.9213188"><ele>518.25</ele><time>2026-04-18T09:22:14.412Z</time></trkpt><trkpt lat="43.4963978" lon="10.9214217"><ele>518.0</ele><time>2026-04-18T09:22:15.418Z</time></trkpt><trkpt lat="43.4963129" lon="10.9215528"><ele>517.75</ele><time>2026-04-18T09:22:16.415Z</time></trkpt><trkpt lat="43.4962329" lon="10.9216991"><ele>517.5</ele><time>2026-04-18T09:22:17.413Z</time></trkpt><trkpt lat="43.496162" lon="10.9218576"><ele>517.25</ele><time>2026-04-18T09:22:18.414Z</time></trkpt><trkpt lat="43.4960937" lon="10.9220147"><ele>517.0</ele><time>2026-04-18T09:22:19.42Z</time></trkpt><trkpt lat="43.4960189" lon="10.9221882"><ele>517.0</ele><time>2026-04-18T09:22:20.417Z</time></trkpt><trkpt lat="43.4959422" lon="10.9223625"><ele>517.0</ele><time>2026-04-18T09:22:21.417Z</time></trkpt><trkpt lat="43.4958612" lon="10.9225216"><ele>517.0</ele><time>2026-04-18T09:22:22.42Z</time></trkpt><trkpt lat="43.4957756" lon="10.922688"><ele>517.0</ele><time>2026-04-18T09:22:23.406Z</time></trkpt><trkpt lat="43.4956897" lon="10.922846"><ele>517.6666666666667</ele><time>2026-04-18T09:22:24.409Z</time></trkpt><trkpt lat="43.4955801" lon="10.9229916"><ele>518.3333333333334</ele><time>2026-04-18T09:22:25.43Z</time></trkpt><trkpt lat="43.495458" lon="10.9231458"><ele>519.0</ele><time>2026-04-18T09:22:26.417Z</time></trkpt><trkpt lat="43.4953333" lon="10.9232969"><ele>517.6666666666666</ele><time>2026-04-18T09:22:27.427Z</time></trkpt><trkpt lat="43.495217" lon="10.9234272"><ele>516.3333333333333</ele><time>2026-04-18T09:22:28.408Z</time></trkpt><trkpt lat="43.4951001" lon="10.9235647"><ele>515.0</ele><time>2026-04-18T09:22:29.404Z</time></trkpt><trkpt lat="43.4949887" lon="10.9236994"><ele>515.0</ele><time>2026-04-18T09:22:30.414Z</time></trkpt><trkpt lat="43.4948843" lon="10.923831"><ele>515.0</ele><time>2026-04-18T09:22:31.415Z</time></trkpt><trkpt lat="43.4947702" lon="10.923965"><ele>515.0</ele><time>2026-04-18T09:22:32.427Z</time></trkpt><trkpt lat="43.4946631" lon="10.9240912"><ele>515.0</ele><time>2026-04-18T09:22:33.427Z</time></trkpt><trkpt lat="43.494562" lon="10.9242176"><ele>513.0</ele><time>2026-04-18T09:22:34.41Z</time></trkpt><trkpt lat="43.4944562" lon="10.924343"><ele>511.0</ele><time>2026-04-18T09:22:35.426Z</time></trkpt><trkpt lat="43.4943608" lon="10.9244704"><ele>509.0</ele><time>2026-04-18T09:22:36.428Z</time></trkpt><trkpt lat="43.4942688" lon="10.9246025"><ele>507.0</ele><time>2026-04-18T09:22:37.428Z</time></trkpt><trkpt lat="43.4941768" lon="10.9247324"><ele>507.0</ele><time>2026-04-18T09:22:38.419Z</time></trkpt><trkpt lat="43.4940857" lon="10.924863"><ele>507.0</ele><time>2026-04-18T09:22:39.412Z</time></trkpt><trkpt lat="43.4940103" lon="10.9250057"><ele>507.0</ele><time>2026-04-18T09:22:40.403Z</time></trkpt><trkpt lat="43.4939549" lon="10.9251541"><ele>507.0</ele><time>2026-04-18T09:22:41.404Z</time></trkpt><trkpt lat="43.493936" lon="10.9253245"><ele>506.0</ele><time>2026-04-18T09:22:42.413Z</time></trkpt><trkpt lat="43.493931" lon="10.9254947"><ele>505.0</ele><time>2026-04-18T09:22:43.416Z</time></trkpt><trkpt lat="43.4939254" lon="10.9256785"><ele>504.0</ele><time>2026-04-18T09:22:44.416Z</time></trkpt><trkpt lat="43.4939216" lon="10.9258518"><ele>503.0</ele><time>2026-04-18T09:22:45.419Z</time></trkpt><trkpt lat="43.4939098" lon="10.9260101"><ele>502.16666666666663</ele><time>2026-04-18T09:22:46.416Z</time></trkpt><trkpt lat="43.4939082" lon="10.9261477"><ele>501.3333333333333</ele><time>2026-04-18T09:22:47.414Z</time></trkpt><trkpt lat="43.4939098" lon="10.9262574"><ele>500.5</ele><time>2026-04-18T09:22:48.425Z</time></trkpt><trkpt lat="43.4939046" lon="10.9263606"><ele>499.66666666666663</ele><time>2026-04-18T09:22:49.412Z</time></trkpt><trkpt lat="43.493909" lon="10.9264486"><ele>498.8333333333333</ele><time>2026-04-18T09:22:50.427Z</time></trkpt><trkpt lat="43.4938968" lon="10.9265631"><ele>498.0</ele><time>2026-04-18T09:22:52.412Z</time></trkpt><trkpt lat="43.4938707" lon="10.9266705"><ele>498.0</ele><time>2026-04-18T09:22:55.41Z</time></trkpt><trkpt lat="43.4938085" lon="10.9267869"><ele>498.0</ele><time>2026-04-18T09:22:57.411Z</time></trkpt><trkpt lat="43.4937537" lon="10.9268517"><ele>498.0</ele><time>2026-04-18T09:22:58.408Z</time></trkpt><trkpt lat="43.4936969" lon="10.9269172"><ele>498.0</ele><time>2026-04-18T09:22:59.406Z</time></trkpt><trkpt lat="43.4936411" lon="10.9269944"><ele>498.0</ele><time>2026-04-18T09:23:00.424Z</time></trkpt><trkpt lat="43.4935753" lon="10.9270714"><ele>498.0</ele><time>2026-04-18T09:23:01.414Z</time></trkpt><trkpt lat="43.4935161" lon="10.927152"><ele>498.0</ele><time>2026-04-18T09:23:02.414Z</time></trkpt><trkpt lat="43.4934514" lon="10.9272321"><ele>497.99999999999994</ele><time>2026-04-18T09:23:03.425Z</time></trkpt><trkpt lat="43.4933817" lon="10.9273247"><ele>497.99999999999994</ele><time>2026-04-18T09:23:04.417Z</time></trkpt><trkpt lat="43.4933128" lon="10.9274164"><ele>498.0</ele><time>2026-04-18T09:23:05.418Z</time></trkpt><trkpt lat="43.4932438" lon="10.9275173"><ele>498.0</ele><time>2026-04-18T09:23:06.44Z</time></trkpt><trkpt lat="43.4931751" lon="10.9276265"><ele>497.0</ele><time>2026-04-18T09:23:07.423Z</time></trkpt><trkpt lat="43.4930981" lon="10.9277428"><ele>496.0</ele><time>2026-04-18T09:23:08.408Z</time></trkpt><trkpt lat="43.4930175" lon="10.9278679"><ele>495.0</ele><time>2026-04-18T09:23:09.416Z</time></trkpt><trkpt lat="43.4929317" lon="10.9279986"><ele>494.0</ele><time>2026-04-18T09:23:10.426Z</time></trkpt><trkpt lat="43.4928468" lon="10.9281336"><ele>491.75</ele><time>2026-04-18T09:23:11.409Z</time></trkpt><trkpt lat="43.492764" lon="10.9282618"><ele>489.5</ele><time>2026-04-18T09:23:12.431Z</time></trkpt><trkpt lat="43.4926793" lon="10.9283816"><ele>487.25</ele><time>2026-04-18T09:23:13.429Z</time></trkpt><trkpt lat="43.4925952" lon="10.9284951"><ele>485.0</ele><time>2026-04-18T09:23:14.41Z</time></trkpt><trkpt lat="43.4925092" lon="10.928588"><ele>484.75</ele><time>2026-04-18T09:23:15.406Z</time></trkpt><trkpt lat="43.4924106" lon="10.9286651"><ele>484.5</ele><time>2026-04-18T09:23:16.418Z</time></trkpt><trkpt lat="43.4923021" lon="10.9287352"><ele>484.25</ele><time>2026-04-18T09:23:17.41Z</time></trkpt><trkpt lat="43.49219" lon="10.9287795"><ele>484.0</ele><time>2026-04-18T09:23:18.419Z</time></trkpt><trkpt lat="43.492071" lon="10.9287897"><ele>484.5</ele><time>2026-04-18T09:23:19.43Z</time></trkpt><trkpt lat="43.4919466" lon="10.9287795"><ele>485.0</ele><time>2026-04-18T09:23:20.428Z</time></trkpt><trkpt lat="43.4918319" lon="10.9287232"><ele>485.5</ele><time>2026-04-18T09:23:21.438Z</time></trkpt><trkpt lat="43.491721" lon="10.9286429"><ele>486.0</ele><time>2026-04-18T09:23:22.424Z</time></trkpt><trkpt lat="43.4916119" lon="10.9285701"><ele>486.0</ele><time>2026-04-18T09:23:23.442Z</time></trkpt><trkpt lat="43.491505" lon="10.9285004"><ele>486.0</ele><time>2026-04-18T09:23:24.425Z</time></trkpt><trkpt lat="43.4913971" lon="10.9284694"><ele>486.0</ele><time>2026-04-18T09:23:25.417Z</time></trkpt><trkpt lat="43.4912864" lon="10.9284891"><ele>486.0</ele><time>2026-04-18T09:23:26.412Z</time></trkpt><trkpt lat="43.4911871" lon="10.9285448"><ele>486.0</ele><time>2026-04-18T09:23:27.42Z</time></trkpt><trkpt lat="43.4910967" lon="10.9286355"><ele>483.25</ele><time>2026-04-18T09:23:28.407Z</time></trkpt><trkpt lat="43.4910242" lon="10.9287543"><ele>480.5</ele><time>2026-04-18T09:23:29.423Z</time></trkpt><trkpt lat="43.4909479" lon="10.9289004"><ele>477.75</ele><time>2026-04-18T09:23:30.422Z</time></trkpt><trkpt lat="43.4908739" lon="10.9290424"><ele>475.0</ele><time>2026-04-18T09:23:31.405Z</time></trkpt><trkpt lat="43.4908005" lon="10.92919"><ele>476.25</ele><time>2026-04-18T09:23:32.425Z</time></trkpt><trkpt lat="43.490726" lon="10.9293479"><ele>477.5</ele><time>2026-04-18T09:23:33.404Z</time></trkpt><trkpt lat="43.4906528" lon="10.9295133"><ele>478.75</ele><time>2026-04-18T09:23:34.414Z</time></trkpt><trkpt lat="43.4905797" lon="10.9296745"><ele>480.0</ele><time>2026-04-18T09:23:35.422Z</time></trkpt><trkpt lat="43.4905078" lon="10.9298356"><ele>480.0</ele><time>2026-04-18T09:23:36.42Z</time></trkpt><trkpt lat="43.4904371" lon="10.9300001"><ele>480.0</ele><time>2026-04-18T09:23:37.414Z</time></trkpt><trkpt lat="43.4903715" lon="10.9301667"><ele>480.0</ele><time>2026-04-18T09:23:38.402Z</time></trkpt><trkpt lat="43.4903042" lon="10.9303286"><ele>480.0</ele><time>2026-04-18T09:23:39.415Z</time></trkpt><trkpt lat="43.4902463" lon="10.9304864"><ele>475.5</ele><time>2026-04-18T09:23:40.425Z</time></trkpt><trkpt lat="43.4901875" lon="10.9306457"><ele>471.0</ele><time>2026-04-18T09:23:41.405Z</time></trkpt><trkpt lat="43.4901339" lon="10.9308123"><ele>466.5</ele><time>2026-04-18T09:23:42.405Z</time></trkpt><trkpt lat="43.4900875" lon="10.930983"><ele>462.0</ele><time>2026-04-18T09:23:43.397Z</time></trkpt><trkpt lat="43.4900627" lon="10.9311609"><ele>461.75</ele><time>2026-04-18T09:23:44.409Z</time></trkpt><trkpt lat="43.490061" lon="10.9313456"><ele>461.5</ele><time>2026-04-18T09:23:45.405Z</time></trkpt><trkpt lat="43.4900602" lon="10.9315123"><ele>461.25</ele><time>2026-04-18T09:23:46.413Z</time></trkpt><trkpt lat="43.4900651" lon="10.9316666"><ele>461.0</ele><time>2026-04-18T09:23:47.411Z</time></trkpt><trkpt lat="43.4900726" lon="10.9318054"><ele>460.49999999999994</ele><time>2026-04-18T09:23:48.413Z</time></trkpt><trkpt lat="43.4900737" lon="10.931949"><ele>460.0</ele><time>2026-04-18T09:23:49.414Z</time></trkpt><trkpt lat="43.4900776" lon="10.9320785"><ele>459.5</ele><time>2026-04-18T09:23:50.417Z</time></trkpt><trkpt lat="43.4900839" lon="10.9321957"><ele>459.0</ele><time>2026-04-18T09:23:51.412Z</time></trkpt><trkpt lat="43.4900755" lon="10.9322983"><ele>458.49999999999994</ele><time>2026-04-18T09:23:52.417Z</time></trkpt><trkpt lat="43.490046" lon="10.9323901"><ele>458.0</ele><time>2026-04-18T09:23:53.415Z</time></trkpt><trkpt lat="43.4899898" lon="10.9324582"><ele>458.0</ele><time>2026-04-18T09:23:54.427Z</time></trkpt><trkpt lat="43.4899165" lon="10.9324736"><ele>457.99999999999994</ele><time>2026-04-18T09:23:55.412Z</time></trkpt><trkpt lat="43.4898377" lon="10.9324401"><ele>457.99999999999994</ele><time>2026-04-18T09:23:56.431Z</time></trkpt><trkpt lat="43.4897762" lon="10.9322595"><ele>458.0</ele><time>2026-04-18T09:23:58.414Z</time></trkpt><trkpt lat="43.4897744" lon="10.932139"><ele>458.0</ele><time>2026-04-18T09:23:59.42Z</time></trkpt><trkpt lat="43.4897627" lon="10.9320027"><ele>458.0</ele><time>2026-04-18T09:24:00.422Z</time></trkpt><trkpt lat="43.4897525" lon="10.9318567"><ele>457.99999999999994</ele><time>2026-04-18T09:24:01.399Z</time></trkpt><trkpt lat="43.4897399" lon="10.9317033"><ele>457.99999999999994</ele><time>2026-04-18T09:24:02.419Z</time></trkpt><trkpt lat="43.4897251" lon="10.9315478"><ele>458.0</ele><time>2026-04-18T09:24:03.423Z</time></trkpt><trkpt lat="43.4897105" lon="10.9313882"><ele>458.0</ele><time>2026-04-18T09:24:04.421Z</time></trkpt><trkpt lat="43.489694" lon="10.9312191"><ele>458.75</ele><time>2026-04-18T09:24:05.424Z</time></trkpt><trkpt lat="43.4896796" lon="10.9310409"><ele>459.5</ele><time>2026-04-18T09:24:06.42Z</time></trkpt><trkpt lat="43.4896647" lon="10.930854"><ele>460.25</ele><time>2026-04-18T09:24:07.424Z</time></trkpt><trkpt lat="43.4896484" lon="10.9306699"><ele>461.0</ele><time>2026-04-18T09:24:08.42Z</time></trkpt><trkpt lat="43.4896253" lon="10.9304774"><ele>461.25</ele><time>2026-04-18T09:24:09.413Z</time></trkpt><trkpt lat="43.489595" lon="10.9302896"><ele>461.5</ele><time>2026-04-18T09:24:10.421Z</time></trkpt><trkpt lat="43.489551" lon="10.9301001"><ele>461.75</ele><time>2026-04-18T09:24:11.42Z</time></trkpt><trkpt lat="43.4894985" lon="10.9299079"><ele>462.0</ele><time>2026-04-18T09:24:12.413Z</time></trkpt><trkpt lat="43.4894405" lon="10.9297123"><ele>455.75</ele><time>2026-04-18T09:24:13.425Z</time></trkpt><trkpt lat="43.4893847" lon="10.9295244"><ele>449.5</ele><time>2026-04-18T09:24:14.418Z</time></trkpt><trkpt lat="43.4893275" lon="10.9293368"><ele>443.25</ele><time>2026-04-18T09:24:15.416Z</time></trkpt><trkpt lat="43.4892847" lon="10.9291557"><ele>437.0</ele><time>2026-04-18T09:24:16.413Z</time></trkpt><trkpt lat="43.4892544" lon="10.9289744"><ele>436.75</ele><time>2026-04-18T09:24:17.421Z</time></trkpt><trkpt lat="43.489249" lon="10.9287824"><ele>436.5</ele><time>2026-04-18T09:24:18.416Z</time></trkpt><trkpt lat="43.4892567" lon="10.9285856"><ele>436.25</ele><time>2026-04-18T09:24:19.413Z</time></trkpt><trkpt lat="43.4892687" lon="10.9283792"><ele>436.0</ele><time>2026-04-18T09:24:20.413Z</time></trkpt><trkpt lat="43.4892868" lon="10.9281681"><ele>435.33333333333337</ele><time>2026-04-18T09:24:21.416Z</time></trkpt><trkpt lat="43.4893014" lon="10.9279535"><ele>434.66666666666663</ele><time>2026-04-18T09:24:22.413Z</time></trkpt><trkpt lat="43.4893106" lon="10.927734"><ele>434.0</ele><time>2026-04-18T09:24:23.417Z</time></trkpt><trkpt lat="43.4893249" lon="10.9275154"><ele>433.3333333333333</ele><time>2026-04-18T09:24:24.421Z</time></trkpt><trkpt lat="43.4893446" lon="10.9272865"><ele>432.66666666666663</ele><time>2026-04-18T09:24:25.405Z</time></trkpt><trkpt lat="43.4893722" lon="10.9270688"><ele>432.0</ele><time>2026-04-18T09:24:26.413Z</time></trkpt><trkpt lat="43.4893999" lon="10.9268609"><ele>430.25</ele><time>2026-04-18T09:24:27.426Z</time></trkpt><trkpt lat="43.489426" lon="10.9266481"><ele>428.5</ele><time>2026-04-18T09:24:28.412Z</time></trkpt><trkpt lat="43.4894524" lon="10.9264565"><ele>426.75</ele><time>2026-04-18T09:24:29.41Z</time></trkpt><trkpt lat="43.4894801" lon="10.926269"><ele>425.0</ele><time>2026-04-18T09:24:30.403Z</time></trkpt><trkpt lat="43.4895089" lon="10.9260802"><ele>425.0</ele><time>2026-04-18T09:24:31.422Z</time></trkpt><trkpt lat="43.4895292" lon="10.9258993"><ele>425.0</ele><time>2026-04-18T09:24:32.42Z</time></trkpt><trkpt lat="43.4895515" lon="10.9257249"><ele>425.0</ele><time>2026-04-18T09:24:33.412Z</time></trkpt><trkpt lat="43.4895755" lon="10.9255593"><ele>425.0</ele><time>2026-04-18T09:24:34.406Z</time></trkpt><trkpt lat="43.4895992" lon="10.9254028"><ele>424.99999999999994</ele><time>2026-04-18T09:24:35.422Z</time></trkpt><trkpt lat="43.4896222" lon="10.9252655"><ele>425.0</ele><time>2026-04-18T09:24:36.405Z</time></trkpt><trkpt lat="43.4896397" lon="10.9251512"><ele>425.0</ele><time>2026-04-18T09:24:37.442Z</time></trkpt><trkpt lat="43.4896512" lon="10.925059"><ele>425.0</ele><time>2026-04-18T09:24:38.414Z</time></trkpt><trkpt lat="43.4896375" lon="10.9249245"><ele>424.99999999999994</ele><time>2026-04-18T09:24:40.412Z</time></trkpt><trkpt lat="43.4895632" lon="10.9248477"><ele>425.0</ele><time>2026-04-18T09:24:42.42Z</time></trkpt><trkpt lat="43.4894439" lon="10.924865"><ele>423.85714285714283</ele><time>2026-04-18T09:24:44.416Z</time></trkpt><trkpt lat="43.4893783" lon="10.924902"><ele>422.71428571428567</ele><time>2026-04-18T09:24:45.417Z</time></trkpt><trkpt lat="43.4893026" lon="10.9249516"><ele>421.57142857142856</ele><time>2026-04-18T09:24:46.405Z</time></trkpt><trkpt lat="43.4892462" lon="10.9250107"><ele>420.42857142857144</ele><time>2026-04-18T09:24:47.422Z</time></trkpt><trkpt lat="43.4891926" lon="10.9250717"><ele>419.2857142857143</ele><time>2026-04-18T09:24:48.404Z</time></trkpt><trkpt lat="43.489153" lon="10.9251398"><ele>418.14285714285717</ele><time>2026-04-18T09:24:49.41Z</time></trkpt><trkpt lat="43.4891285" lon="10.9252202"><ele>417.0</ele><time>2026-04-18T09:24:50.418Z</time></trkpt><trkpt lat="43.489105" lon="10.9253199"><ele>417.0</ele><time>2026-04-18T09:24:51.416Z</time></trkpt><trkpt lat="43.4890965" lon="10.9254245"><ele>417.0</ele><time>2026-04-18T09:24:52.407Z</time></trkpt><trkpt lat="43.4890955" lon="10.9255226"><ele>417.0</ele><time>2026-04-18T09:24:53.406Z</time></trkpt><trkpt lat="43.4890971" lon="10.925614"><ele>417.0</ele><time>2026-04-18T09:24:54.403Z</time></trkpt><trkpt lat="43.4891004" lon="10.9257049"><ele>417.0</ele><time>2026-04-18T09:24:55.417Z</time></trkpt><trkpt lat="43.4891002" lon="10.9258047"><ele>417.0</ele><time>2026-04-18T09:24:56.422Z</time></trkpt><trkpt lat="43.4890871" lon="10.9259104"><ele>417.0</ele><time>2026-04-18T09:24:57.419Z</time></trkpt><trkpt lat="43.4890566" lon="10.9260036"><ele>418.14285714285717</ele><time>2026-04-18T09:24:58.425Z</time></trkpt><trkpt lat="43.489016" lon="10.9261005"><ele>419.2857142857143</ele><time>2026-04-18T09:24:59.426Z</time></trkpt><trkpt lat="43.4889677" lon="10.9261926"><ele>420.42857142857144</ele><time>2026-04-18T09:25:00.418Z</time></trkpt><trkpt lat="43.4889135" lon="10.9262541"><ele>421.57142857142856</ele><time>2026-04-18T09:25:01.405Z</time></trkpt><trkpt lat="43.4888517" lon="10.9263016"><ele>422.71428571428567</ele><time>2026-04-18T09:25:02.43Z</time></trkpt><trkpt lat="43.4887887" lon="10.9263399"><ele>423.85714285714283</ele><time>2026-04-18T09:25:03.417Z</time></trkpt><trkpt lat="43.488721" lon="10.9263668"><ele>425.0</ele><time>2026-04-18T09:25:04.402Z</time></trkpt><trkpt lat="43.4886515" lon="10.9263955"><ele>421.99999999999994</ele><time>2026-04-18T09:25:05.4Z</time></trkpt><trkpt lat="43.488565" lon="10.926423"><ele>419.0</ele><time>2026-04-18T09:25:06.415Z</time></trkpt><trkpt lat="43.488479" lon="10.9264563"><ele>416.0</ele><time>2026-04-18T09:25:07.423Z</time></trkpt><trkpt lat="43.4883992" lon="10.9264851"><ele>413.0</ele><time>2026-04-18T09:25:08.418Z</time></trkpt><trkpt lat="43.4883221" lon="10.9265201"><ele>409.99999999999994</ele><time>2026-04-18T09:25:09.43Z</time></trkpt><trkpt lat="43.4882513" lon="10.9265489"><ele>407.0</ele><time>2026-04-18T09:25:10.418Z</time></trkpt><trkpt lat="43.4881838" lon="10.9265918"><ele>407.00000000000006</ele><time>2026-04-18T09:25:11.406Z</time></trkpt><trkpt lat="43.4881226" lon="10.9266247"><ele>407.0</ele><time>2026-04-18T09:25:12.43Z</time></trkpt><trkpt lat="43.488066" lon="10.9266726"><ele>407.0</ele><time>2026-04-18T09:25:13.4Z</time></trkpt><trkpt lat="43.488022" lon="10.9267404"><ele>407.0</ele><time>2026-04-18T09:25:14.433Z</time></trkpt><trkpt lat="43.4879706" lon="10.9268247"><ele>407.0</ele><time>2026-04-18T09:25:15.416Z</time></trkpt><trkpt lat="43.4879307" lon="10.9269231"><ele>407.00000000000006</ele><time>2026-04-18T09:25:16.423Z</time></trkpt><trkpt lat="43.4878936" lon="10.9270065"><ele>407.0</ele><time>2026-04-18T09:25:17.424Z</time></trkpt><trkpt lat="43.4878261" lon="10.9271181"><ele>404.8</ele><time>2026-04-18T09:25:19.41Z</time></trkpt><trkpt lat="43.4877385" lon="10.927177"><ele>402.6</ele><time>2026-04-18T09:25:21.419Z</time></trkpt><trkpt lat="43.4876235" lon="10.9271336"><ele>400.40000000000003</ele><time>2026-04-18T09:25:23.418Z</time></trkpt><trkpt lat="43.4875815" lon="10.9270656"><ele>398.20000000000005</ele><time>2026-04-18T09:25:24.411Z</time></trkpt><trkpt lat="43.4875672" lon="10.926886"><ele>396.0</ele><time>2026-04-18T09:25:26.427Z</time></trkpt><trkpt lat="43.4875856" lon="10.9267827"><ele>395.3333333333333</ele><time>2026-04-18T09:25:27.415Z</time></trkpt><trkpt lat="43.4875883" lon="10.9266616"><ele>394.66666666666663</ele><time>2026-04-18T09:25:28.419Z</time></trkpt><trkpt lat="43.4875683" lon="10.9265492"><ele>394.0</ele><time>2026-04-18T09:25:29.416Z</time></trkpt><trkpt lat="43.4875163" lon="10.9264501"><ele>393.3333333333333</ele><time>2026-04-18T09:25:30.444Z</time></trkpt><trkpt lat="43.4874518" lon="10.9263903"><ele>392.66666666666663</ele><time>2026-04-18T09:25:31.431Z</time></trkpt><trkpt lat="43.4873588" lon="10.9263582"><ele>392.0</ele><time>2026-04-18T09:25:32.418Z</time></trkpt><trkpt lat="43.4872409" lon="10.9263456"><ele>392.0</ele><time>2026-04-18T09:25:33.41Z</time></trkpt><trkpt lat="43.4871024" lon="10.9263321"><ele>392.0</ele><time>2026-04-18T09:25:34.424Z</time></trkpt><trkpt lat="43.4869749" lon="10.9263199"><ele>392.0</ele><time>2026-04-18T09:25:35.425Z</time></trkpt><trkpt lat="43.4868573" lon="10.9263033"><ele>392.0</ele><time>2026-04-18T09:25:36.423Z</time></trkpt><trkpt lat="43.4867486" lon="10.9262803"><ele>389.20000000000005</ele><time>2026-04-18T09:25:37.421Z</time></trkpt><trkpt lat="43.4866457" lon="10.9262625"><ele>386.4</ele><time>2026-04-18T09:25:38.419Z</time></trkpt><trkpt lat="43.4865299" lon="10.9262517"><ele>383.6</ele><time>2026-04-18T09:25:39.434Z</time></trkpt><trkpt lat="43.4864102" lon="10.9262293"><ele>380.79999999999995</ele><time>2026-04-18T09:25:40.425Z</time></trkpt><trkpt lat="43.486306" lon="10.9262297"><ele>378.0</ele><time>2026-04-18T09:25:41.414Z</time></trkpt><trkpt lat="43.4861896" lon="10.9262392"><ele>377.5</ele><time>2026-04-18T09:25:42.424Z</time></trkpt><trkpt lat="43.4860688" lon="10.9262528"><ele>377.0</ele><time>2026-04-18T09:25:43.458Z</time></trkpt><trkpt lat="43.4859404" lon="10.9262606"><ele>376.5</ele><time>2026-04-18T09:25:44.421Z</time></trkpt><trkpt lat="43.4858192" lon="10.9262657"><ele>376.0</ele><time>2026-04-18T09:25:45.422Z</time></trkpt><trkpt lat="43.4857074" lon="10.9262682"><ele>376.0</ele><time>2026-04-18T09:25:46.416Z</time></trkpt><trkpt lat="43.4856054" lon="10.9262721"><ele>376.0</ele><time>2026-04-18T09:25:47.414Z</time></trkpt><trkpt lat="43.4855117" lon="10.9262804"><ele>376.0</ele><time>2026-04-18T09:25:48.41Z</time></trkpt><trkpt lat="43.4854238" lon="10.9262725"><ele>376.0</ele><time>2026-04-18T09:25:49.416Z</time></trkpt><trkpt lat="43.4853344" lon="10.9262539"><ele>376.0</ele><time>2026-04-18T09:25:50.419Z</time></trkpt><trkpt lat="43.4852504" lon="10.9262406"><ele>374.66666666666663</ele><time>2026-04-18T09:25:51.427Z</time></trkpt><trkpt lat="43.4851775" lon="10.9262172"><ele>373.3333333333333</ele><time>2026-04-18T09:25:52.416Z</time></trkpt><trkpt lat="43.4851091" lon="10.9261933"><ele>372.0</ele><time>2026-04-18T09:25:53.415Z</time></trkpt><trkpt lat="43.4850453" lon="10.9261488"><ele>370.6666666666667</ele><time>2026-04-18T09:25:54.414Z</time></trkpt><trkpt lat="43.4849797" lon="10.9260911"><ele>369.33333333333337</ele><time>2026-04-18T09:25:55.449Z</time></trkpt><trkpt lat="43.4849191" lon="10.9260202"><ele>368.0</ele><time>2026-04-18T09:25:56.412Z</time></trkpt><trkpt lat="43.4848641" lon="10.9259423"><ele>368.0</ele><time>2026-04-18T09:25:57.423Z</time></trkpt><trkpt lat="43.484803" lon="10.9258646"><ele>368.0</ele><time>2026-04-18T09:25:58.429Z</time></trkpt><trkpt lat="43.4847405" lon="10.9257818"><ele>368.0</ele><time>2026-04-18T09:25:59.429Z</time></trkpt><trkpt lat="43.4846745" lon="10.9256951"><ele>368.0</ele><time>2026-04-18T09:26:00.445Z</time></trkpt><trkpt lat="43.4846127" lon="10.9256176"><ele>368.0</ele><time>2026-04-18T09:26:01.42Z</time></trkpt><trkpt lat="43.4845467" lon="10.9255594"><ele>368.0</ele><time>2026-04-18T09:26:02.415Z</time></trkpt><trkpt lat="43.4844834" lon="10.9255168"><ele>367.1666666666667</ele><time>2026-04-18T09:26:03.417Z</time></trkpt><trkpt lat="43.4844087" lon="10.9254895"><ele>366.33333333333337</ele><time>2026-04-18T09:26:04.416Z</time></trkpt><trkpt lat="43.4843245" lon="10.9254841"><ele>365.5</ele><time>2026-04-18T09:26:05.434Z</time></trkpt><trkpt lat="43.4842334" lon="10.9254908"><ele>364.6666666666667</ele><time>2026-04-18T09:26:06.432Z</time></trkpt><trkpt lat="43.4841396" lon="10.9255028"><ele>363.8333333333333</ele><time>2026-04-18T09:26:07.409Z</time></trkpt><trkpt lat="43.4840502" lon="10.9255303"><ele>363.0</ele><time>2026-04-18T09:26:08.411Z</time></trkpt><trkpt lat="43.4839692" lon="10.9255743"><ele>363.0</ele><time>2026-04-18T09:26:09.426Z</time></trkpt><trkpt lat="43.4838896" lon="10.9256303"><ele>363.0</ele><time>2026-04-18T09:26:10.42Z</time></trkpt><trkpt lat="43.4838018" lon="10.9256918"><ele>363.0</ele><time>2026-04-18T09:26:11.41Z</time></trkpt><trkpt lat="43.4837148" lon="10.9257749"><ele>363.0</ele><time>2026-04-18T09:26:12.418Z</time></trkpt><trkpt lat="43.4836344" lon="10.9258686"><ele>363.0</ele><time>2026-04-18T09:26:13.416Z</time></trkpt><trkpt lat="43.4835539" lon="10.925969"><ele>361.0</ele><time>2026-04-18T09:26:14.41Z</time></trkpt><trkpt lat="43.483484" lon="10.9260715"><ele>359.0</ele><time>2026-04-18T09:26:15.416Z</time></trkpt><trkpt lat="43.4834064" lon="10.9261577"><ele>357.0</ele><time>2026-04-18T09:26:16.409Z</time></trkpt><trkpt lat="43.4833204" lon="10.9262342"><ele>355.0</ele><time>2026-04-18T09:26:17.415Z</time></trkpt><trkpt lat="43.4832212" lon="10.9262958"><ele>353.0</ele><time>2026-04-18T09:26:18.414Z</time></trkpt><trkpt lat="43.4831194" lon="10.9263561"><ele>353.0</ele><time>2026-04-18T09:26:19.43Z</time></trkpt><trkpt lat="43.4830148" lon="10.9263969"><ele>353.0</ele><time>2026-04-18T09:26:20.413Z</time></trkpt><trkpt lat="43.4829113" lon="10.926427"><ele>353.0</ele><time>2026-04-18T09:26:21.403Z</time></trkpt><trkpt lat="43.4828019" lon="10.9264582"><ele>353.0</ele><time>2026-04-18T09:26:22.422Z</time></trkpt><trkpt lat="43.4826912" lon="10.9264972"><ele>353.0</ele><time>2026-04-18T09:26:23.428Z</time></trkpt><trkpt lat="43.4825857" lon="10.9265429"><ele>352.79999999999995</ele><time>2026-04-18T09:26:24.412Z</time></trkpt><trkpt lat="43.4824921" lon="10.9265862"><ele>352.6</ele><time>2026-04-18T09:26:25.409Z</time></trkpt><trkpt lat="43.4824081" lon="10.926632"><ele>352.4</ele><time>2026-04-18T09:26:26.417Z</time></trkpt><trkpt lat="43.482327" lon="10.9266918"><ele>352.20000000000005</ele><time>2026-04-18T09:26:27.41Z</time></trkpt><trkpt lat="43.4822486" lon="10.9267564"><ele>352.0</ele><time>2026-04-18T09:26:28.409Z</time></trkpt><trkpt lat="43.4821838" lon="10.9268359"><ele>351.8571428571429</ele><time>2026-04-18T09:26:29.41Z</time></trkpt><trkpt lat="43.482124" lon="10.9269148"><ele>351.7142857142857</ele><time>2026-04-18T09:26:30.409Z</time></trkpt><trkpt lat="43.4820701" lon="10.9269977"><ele>351.57142857142856</ele><time>2026-04-18T09:26:31.41Z</time></trkpt><trkpt lat="43.4820236" lon="10.9270763"><ele>351.42857142857144</ele><time>2026-04-18T09:26:32.405Z</time></trkpt><trkpt lat="43.481976" lon="10.9271495"><ele>351.2857142857143</ele><time>2026-04-18T09:26:33.404Z</time></trkpt><trkpt lat="43.4819291" lon="10.9272166"><ele>351.14285714285717</ele><time>2026-04-18T09:26:34.403Z</time></trkpt><trkpt lat="43.4818699" lon="10.9272751"><ele>351.0</ele><time>2026-04-18T09:26:35.427Z</time></trkpt><trkpt lat="43.4818122" lon="10.927323"><ele>350.20000000000005</ele><time>2026-04-18T09:26:36.417Z</time></trkpt><trkpt lat="43.4817394" lon="10.927361"><ele>349.40000000000003</ele><time>2026-04-18T09:26:37.442Z</time></trkpt><trkpt lat="43.481653" lon="10.9273781"><ele>348.6</ele><time>2026-04-18T09:26:38.419Z</time></trkpt><trkpt lat="43.4815582" lon="10.9273758"><ele>347.8</ele><time>2026-04-18T09:26:39.42Z</time></trkpt><trkpt lat="43.4814659" lon="10.9273651"><ele>347.0</ele><time>2026-04-18T09:26:40.413Z</time></trkpt><trkpt lat="43.481368" lon="10.9273447"><ele>347.0</ele><time>2026-04-18T09:26:41.42Z</time></trkpt><trkpt lat="43.4812702" lon="10.9273237"><ele>347.0</ele><time>2026-04-18T09:26:42.428Z</time></trkpt><trkpt lat="43.4811623" lon="10.9272973"><ele>347.0</ele><time>2026-04-18T09:26:43.413Z</time></trkpt><trkpt lat="43.4810571" lon="10.9272763"><ele>347.0</ele><time>2026-04-18T09:26:44.439Z</time></trkpt><trkpt lat="43.4809442" lon="10.9272476"><ele>347.0</ele><time>2026-04-18T09:26:45.425Z</time></trkpt><trkpt lat="43.480825" lon="10.9272219"><ele>346.25</ele><time>2026-04-18T09:26:46.407Z</time></trkpt><trkpt lat="43.4807079" lon="10.9272027"><ele>345.5</ele><time>2026-04-18T09:26:47.416Z</time></trkpt><trkpt lat="43.4805902" lon="10.927183"><ele>344.75</ele><time>2026-04-18T09:26:48.407Z</time></trkpt><trkpt lat="43.480472" lon="10.927166"><ele>344.0</ele><time>2026-04-18T09:26:49.416Z</time></trkpt><trkpt lat="43.4803555" lon="10.9271542"><ele>343.6</ele><time>2026-04-18T09:26:50.43Z</time></trkpt><trkpt lat="43.4802458" lon="10.9271472"><ele>343.2</ele><time>2026-04-18T09:26:51.422Z</time></trkpt><trkpt lat="43.4801355" lon="10.9271391"><ele>342.8</ele><time>2026-04-18T09:26:52.423Z</time></trkpt><trkpt lat="43.4800305" lon="10.9271362"><ele>342.40000000000003</ele><time>2026-04-18T09:26:53.425Z</time></trkpt><trkpt lat="43.4799281" lon="10.9271306"><ele>342.0</ele><time>2026-04-18T09:26:54.408Z</time></trkpt><trkpt lat="43.4798257" lon="10.9271266"><ele>342.0</ele><time>2026-04-18T09:26:55.421Z</time></trkpt><trkpt lat="43.47973" lon="10.9271257"><ele>342.0</ele><time>2026-04-18T09:26:56.409Z</time></trkpt><trkpt lat="43.479633" lon="10.9271272"><ele>342.0</ele><time>2026-04-18T09:26:57.408Z</time></trkpt><trkpt lat="43.4795314" lon="10.927125"><ele>342.0</ele><time>2026-04-18T09:26:58.414Z</time></trkpt><trkpt lat="43.479426" lon="10.9271309"><ele>342.0</ele><time>2026-04-18T09:26:59.414Z</time></trkpt><trkpt lat="43.4793281" lon="10.9271397"><ele>341.40000000000003</ele><time>2026-04-18T09:27:00.402Z</time></trkpt><trkpt lat="43.4792273" lon="10.9271498"><ele>340.8</ele><time>2026-04-18T09:27:01.409Z</time></trkpt><trkpt lat="43.4791259" lon="10.9271499"><ele>340.2</ele><time>2026-04-18T09:27:02.405Z</time></trkpt><trkpt lat="43.4790224" lon="10.9271513"><ele>339.6</ele><time>2026-04-18T09:27:03.399Z</time></trkpt><trkpt lat="43.4789099" lon="10.9271475"><ele>339.0</ele><time>2026-04-18T09:27:04.407Z</time></trkpt><trkpt lat="43.4787984" lon="10.9271349"><ele>337.5</ele><time>2026-04-18T09:27:05.416Z</time></trkpt><trkpt lat="43.4786889" lon="10.9271014"><ele>336.0</ele><time>2026-04-18T09:27:06.412Z</time></trkpt><trkpt lat="43.4785762" lon="10.9270596"><ele>334.5</ele><time>2026-04-18T09:27:07.413Z</time></trkpt><trkpt lat="43.478451" lon="10.9270083"><ele>333.0</ele><time>2026-04-18T09:27:08.408Z</time></trkpt><trkpt lat="43.4783195" lon="10.9269544"><ele>333.0</ele><time>2026-04-18T09:27:09.407Z</time></trkpt><trkpt lat="43.4781898" lon="10.9268913"><ele>333.0</ele><time>2026-04-18T09:27:10.42Z</time></trkpt><trkpt lat="43.478065" lon="10.9268348"><ele>333.0</ele><time>2026-04-18T09:27:11.409Z</time></trkpt><trkpt lat="43.4779461" lon="10.9267838"><ele>333.0</ele><time>2026-04-18T09:27:12.415Z</time></trkpt><trkpt lat="43.4778232" lon="10.9267418"><ele>334.0</ele><time>2026-04-18T09:27:13.424Z</time></trkpt><trkpt lat="43.4777035" lon="10.9266864"><ele>335.0</ele><time>2026-04-18T09:27:14.406Z</time></trkpt><trkpt lat="43.4775858" lon="10.9266309"><ele>336.0</ele><time>2026-04-18T09:27:15.419Z</time></trkpt><trkpt lat="43.477465" lon="10.9265747"><ele>337.0</ele><time>2026-04-18T09:27:16.411Z</time></trkpt><trkpt lat="43.4773498" lon="10.9265035"><ele>337.0</ele><time>2026-04-18T09:27:17.411Z</time></trkpt><trkpt lat="43.4772336" lon="10.9264321"><ele>337.0</ele><time>2026-04-18T09:27:18.405Z</time></trkpt><trkpt lat="43.4771226" lon="10.9263596"><ele>337.0</ele><time>2026-04-18T09:27:19.412Z</time></trkpt><trkpt lat="43.4770095" lon="10.9262832"><ele>337.0</ele><time>2026-04-18T09:27:20.411Z</time></trkpt><trkpt lat="43.4768984" lon="10.926205"><ele>336.20000000000005</ele><time>2026-04-18T09:27:21.409Z</time></trkpt><trkpt lat="43.4767916" lon="10.9261278"><ele>335.4</ele><time>2026-04-18T09:27:22.404Z</time></trkpt><trkpt lat="43.4766849" lon="10.9260583"><ele>334.6</ele><time>2026-04-18T09:27:23.42Z</time></trkpt><trkpt lat="43.4765841" lon="10.9260011"><ele>333.79999999999995</ele><time>2026-04-18T09:27:24.425Z</time></trkpt><trkpt lat="43.4764923" lon="10.9259441"><ele>333.0</ele><time>2026-04-18T09:27:25.426Z</time></trkpt><trkpt lat="43.4764054" lon="10.9258867"><ele>333.0</ele><time>2026-04-18T09:27:26.419Z</time></trkpt><trkpt lat="43.4763256" lon="10.9258347"><ele>333.0</ele><time>2026-04-18T09:27:27.425Z</time></trkpt><trkpt lat="43.4762482" lon="10.9257907"><ele>333.0</ele><time>2026-04-18T09:27:28.425Z</time></trkpt><trkpt lat="43.4761653" lon="10.9257509"><ele>333.0</ele><time>2026-04-18T09:27:29.41Z</time></trkpt><trkpt lat="43.4760776" lon="10.9257224"><ele>333.0</ele><time>2026-04-18T09:27:30.41Z</time></trkpt><trkpt lat="43.4759872" lon="10.9257089"><ele>333.0</ele><time>2026-04-18T09:27:31.405Z</time></trkpt><trkpt lat="43.4758898" lon="10.925713"><ele>331.4</ele><time>2026-04-18T09:27:32.42Z</time></trkpt><trkpt lat="43.4757917" lon="10.9257245"><ele>329.79999999999995</ele><time>2026-04-18T09:27:33.419Z</time></trkpt><trkpt lat="43.4756865" lon="10.9257457"><ele>328.2</ele><time>2026-04-18T09:27:34.411Z</time></trkpt><trkpt lat="43.4755965" lon="10.9257747"><ele>326.6</ele><time>2026-04-18T09:27:35.414Z</time></trkpt><trkpt lat="43.4755158" lon="10.9257962"><ele>325.0</ele><time>2026-04-18T09:27:36.403Z</time></trkpt><trkpt lat="43.4754407" lon="10.9258123"><ele>324.1428571428571</ele><time>2026-04-18T09:27:37.461Z</time></trkpt><trkpt lat="43.4753686" lon="10.9258332"><ele>323.28571428571433</ele><time>2026-04-18T09:27:38.408Z</time></trkpt><trkpt lat="43.4753041" lon="10.9258529"><ele>322.42857142857144</ele><time>2026-04-18T09:27:39.427Z</time></trkpt><trkpt lat="43.4752398" lon="10.9258766"><ele>321.57142857142856</ele><time>2026-04-18T09:27:40.423Z</time></trkpt><trkpt lat="43.4751769" lon="10.9258957"><ele>320.71428571428567</ele><time>2026-04-18T09:27:41.422Z</time></trkpt><trkpt lat="43.475112" lon="10.9259171"><ele>319.8571428571429</ele><time>2026-04-18T09:27:42.419Z</time></trkpt><trkpt lat="43.4750354" lon="10.9259372"><ele>319.0</ele><time>2026-04-18T09:27:43.421Z</time></trkpt><trkpt lat="43.4749587" lon="10.9259612"><ele>315.8333333333333</ele><time>2026-04-18T09:27:44.443Z</time></trkpt><trkpt lat="43.4748727" lon="10.9259807"><ele>312.66666666666663</ele><time>2026-04-18T09:27:45.422Z</time></trkpt><trkpt lat="43.4747916" lon="10.9259954"><ele>309.5</ele><time>2026-04-18T09:27:46.411Z</time></trkpt><trkpt lat="43.4747133" lon="10.9260042"><ele>306.3333333333333</ele><time>2026-04-18T09:27:47.418Z</time></trkpt><trkpt lat="43.474646" lon="10.9260119"><ele>303.1666666666667</ele><time>2026-04-18T09:27:48.42Z</time></trkpt><trkpt lat="43.4745392" lon="10.9260081"><ele>300.0</ele><time>2026-04-18T09:27:50.407Z</time></trkpt><trkpt lat="43.4744531" lon="10.925996"><ele>301.1666666666667</ele><time>2026-04-18T09:27:52.424Z</time></trkpt><trkpt lat="43.4743838" lon="10.9259572"><ele>302.3333333333333</ele><time>2026-04-18T09:27:54.406Z</time></trkpt><trkpt lat="43.4743235" lon="10.9259233"><ele>303.5</ele><time>2026-04-18T09:27:57.407Z</time></trkpt><trkpt lat="43.4742486" lon="10.9258844"><ele>304.66666666666663</ele><time>2026-04-18T09:28:14.43Z</time></trkpt><trkpt lat="43.4741514" lon="10.9258037"><ele>305.8333333333333</ele><time>2026-04-18T09:28:16.406Z</time></trkpt><trkpt lat="43.4740864" lon="10.9257347"><ele>307.0</ele><time>2026-04-18T09:28:17.451Z</time></trkpt><trkpt lat="43.4740026" lon="10.9256315"><ele>307.0</ele><time>2026-04-18T09:28:18.407Z</time></trkpt><trkpt lat="43.4739033" lon="10.9255121"><ele>307.0</ele><time>2026-04-18T09:28:19.412Z</time></trkpt><trkpt lat="43.4738171" lon="10.9254136"><ele>307.0</ele><time>2026-04-18T09:28:20.401Z</time></trkpt><trkpt lat="43.4737411" lon="10.9253128"><ele>307.0</ele><time>2026-04-18T09:28:21.406Z</time></trkpt><trkpt lat="43.4736727" lon="10.9252054"><ele>305.4</ele><time>2026-04-18T09:28:22.418Z</time></trkpt><trkpt lat="43.4736123" lon="10.925092"><ele>303.79999999999995</ele><time>2026-04-18T09:28:23.421Z</time></trkpt><trkpt lat="43.4735651" lon="10.9249747"><ele>302.2</ele><time>2026-04-18T09:28:24.411Z</time></trkpt><trkpt lat="43.473523" lon="10.9248593"><ele>300.59999999999997</ele><time>2026-04-18T09:28:25.414Z</time></trkpt><trkpt lat="43.4734771" lon="10.9247552"><ele>299.0</ele><time>2026-04-18T09:28:26.412Z</time></trkpt><trkpt lat="43.4734363" lon="10.9246692"><ele>299.0</ele><time>2026-04-18T09:28:27.402Z</time></trkpt><trkpt lat="43.4734001" lon="10.9245979"><ele>299.0</ele><time>2026-04-18T09:28:28.414Z</time></trkpt><trkpt lat="43.4733635" lon="10.9245265"><ele>299.0</ele><time>2026-04-18T09:28:29.406Z</time></trkpt><trkpt lat="43.4733241" lon="10.9244541"><ele>299.0</ele><time>2026-04-18T09:28:30.412Z</time></trkpt><trkpt lat="43.4732267" lon="10.924337"><ele>299.0</ele><time>2026-04-18T09:28:32.426Z</time></trkpt><trkpt lat="43.473166" lon="10.9242908"><ele>299.0</ele><time>2026-04-18T09:28:33.419Z</time></trkpt><trkpt lat="43.473095" lon="10.9242253"><ele>300.33333333333337</ele><time>2026-04-18T09:28:34.414Z</time></trkpt><trkpt lat="43.4730268" lon="10.9241654"><ele>301.6666666666667</ele><time>2026-04-18T09:28:35.428Z</time></trkpt><trkpt lat="43.4729556" lon="10.9241083"><ele>303.0</ele><time>2026-04-18T09:28:36.417Z</time></trkpt><trkpt lat="43.4728904" lon="10.9240567"><ele>304.3333333333333</ele><time>2026-04-18T09:28:37.409Z</time></trkpt><trkpt lat="43.4728296" lon="10.9240019"><ele>305.66666666666663</ele><time>2026-04-18T09:28:38.428Z</time></trkpt><trkpt lat="43.472762" lon="10.9239508"><ele>307.0</ele><time>2026-04-18T09:28:39.418Z</time></trkpt><trkpt lat="43.4726883" lon="10.9238982"><ele>303.4</ele><time>2026-04-18T09:28:40.425Z</time></trkpt><trkpt lat="43.4726195" lon="10.9238417"><ele>299.79999999999995</ele><time>2026-04-18T09:28:41.414Z</time></trkpt><trkpt lat="43.4725551" lon="10.9237877"><ele>296.2</ele><time>2026-04-18T09:28:42.396Z</time></trkpt><trkpt lat="43.4724491" lon="10.9237025"><ele>292.59999999999997</ele><time>2026-04-18T09:28:44.41Z</time></trkpt><trkpt lat="43.4723465" lon="10.9236176"><ele>289.0</ele><time>2026-04-18T09:28:46.412Z</time></trkpt><trkpt lat="43.4722409" lon="10.9235263"><ele>289.0</ele><time>2026-04-18T09:28:48.426Z</time></trkpt><trkpt lat="43.4721716" lon="10.9234242"><ele>289.0</ele><time>2026-04-18T09:28:50.424Z</time></trkpt><trkpt lat="43.4721279" lon="10.9232935"><ele>289.0</ele><time>2026-04-18T09:28:52.418Z</time></trkpt><trkpt lat="43.4721202" lon="10.9231469"><ele>289.0</ele><time>2026-04-18T09:28:54.423Z</time></trkpt><trkpt lat="43.4721367" lon="10.923055"><ele>289.0</ele><time>2026-04-18T09:28:55.413Z</time></trkpt><trkpt lat="43.4721658" lon="10.9229579"><ele>289.66666666666663</ele><time>2026-04-18T09:28:56.423Z</time></trkpt><trkpt lat="43.4722022" lon="10.9228622"><ele>290.3333333333333</ele><time>2026-04-18T09:28:57.412Z</time></trkpt><trkpt lat="43.4722584" lon="10.9227749"><ele>291.0</ele><time>2026-04-18T09:28:58.4Z</time></trkpt><trkpt lat="43.4723173" lon="10.9226939"><ele>291.6666666666667</ele><time>2026-04-18T09:28:59.425Z</time></trkpt><trkpt lat="43.4723778" lon="10.9226112"><ele>292.33333333333337</ele><time>2026-04-18T09:29:00.412Z</time></trkpt><trkpt lat="43.4724419" lon="10.9225357"><ele>293.0</ele><time>2026-04-18T09:29:01.413Z</time></trkpt><trkpt lat="43.4725164" lon="10.9224607"><ele>291.1666666666667</ele><time>2026-04-18T09:29:02.41Z</time></trkpt><trkpt lat="43.4725944" lon="10.9223874"><ele>289.33333333333337</ele><time>2026-04-18T09:29:03.406Z</time></trkpt><trkpt lat="43.472668" lon="10.9223134"><ele>287.5</ele><time>2026-04-18T09:29:04.411Z</time></trkpt><trkpt lat="43.4727307" lon="10.9222359"><ele>285.6666666666667</ele><time>2026-04-18T09:29:05.406Z</time></trkpt><trkpt lat="43.4727864" lon="10.9221562"><ele>283.8333333333333</ele><time>2026-04-18T09:29:06.415Z</time></trkpt><trkpt lat="43.4728369" lon="10.9220901"><ele>282.0</ele><time>2026-04-18T09:29:07.406Z</time></trkpt><trkpt lat="43.4728916" lon="10.9220217"><ele>281.6666666666667</ele><time>2026-04-18T09:29:08.403Z</time></trkpt><trkpt lat="43.4729421" lon="10.9219397"><ele>281.3333333333333</ele><time>2026-04-18T09:29:09.41Z</time></trkpt><trkpt lat="43.4729941" lon="10.9218699"><ele>281.0</ele><time>2026-04-18T09:29:10.421Z</time></trkpt><trkpt lat="43.4730428" lon="10.9217865"><ele>280.66666666666663</ele><time>2026-04-18T09:29:11.412Z</time></trkpt><trkpt lat="43.4730957" lon="10.9217038"><ele>280.3333333333333</ele><time>2026-04-18T09:29:12.404Z</time></trkpt><trkpt lat="43.4731406" lon="10.9216234"><ele>280.0</ele><time>2026-04-18T09:29:13.42Z</time></trkpt><trkpt lat="43.4731836" lon="10.9215415"><ele>280.0</ele><time>2026-04-18T09:29:14.427Z</time></trkpt><trkpt lat="43.4732233" lon="10.921464"><ele>280.0</ele><time>2026-04-18T09:29:15.43Z</time></trkpt><trkpt lat="43.4732658" lon="10.9213825"><ele>280.0</ele><time>2026-04-18T09:29:16.41Z</time></trkpt><trkpt lat="43.4733033" lon="10.9213024"><ele>280.0</ele><time>2026-04-18T09:29:17.41Z</time></trkpt><trkpt lat="43.4733347" lon="10.9212125"><ele>280.0</ele><time>2026-04-18T09:29:18.437Z</time></trkpt><trkpt lat="43.4733612" lon="10.9211067"><ele>280.0</ele><time>2026-04-18T09:29:19.407Z</time></trkpt><trkpt lat="43.4733831" lon="10.9209924"><ele>278.3333333333333</ele><time>2026-04-18T09:29:20.42Z</time></trkpt><trkpt lat="43.4733969" lon="10.920879"><ele>276.66666666666663</ele><time>2026-04-18T09:29:21.419Z</time></trkpt><trkpt lat="43.4734075" lon="10.9207759"><ele>275.0</ele><time>2026-04-18T09:29:22.425Z</time></trkpt><trkpt lat="43.4734189" lon="10.9206666"><ele>273.3333333333333</ele><time>2026-04-18T09:29:23.416Z</time></trkpt><trkpt lat="43.4734274" lon="10.9205542"><ele>271.6666666666667</ele><time>2026-04-18T09:29:24.418Z</time></trkpt><trkpt lat="43.4734313" lon="10.9204511"><ele>270.0</ele><time>2026-04-18T09:29:25.433Z</time></trkpt><trkpt lat="43.47343" lon="10.9203592"><ele>270.0</ele><time>2026-04-18T09:29:26.425Z</time></trkpt><trkpt lat="43.4734145" lon="10.9202645"><ele>270.0</ele><time>2026-04-18T09:29:27.413Z</time></trkpt><trkpt lat="43.473386" lon="10.9201771"><ele>270.0</ele><time>2026-04-18T09:29:28.406Z</time></trkpt><trkpt lat="43.4733459" lon="10.9200844"><ele>270.0</ele><time>2026-04-18T09:29:29.408Z</time></trkpt><trkpt lat="43.4733048" lon="10.9199905"><ele>270.0</ele><time>2026-04-18T09:29:30.411Z</time></trkpt><trkpt lat="43.4732528" lon="10.9199208"><ele>270.0</ele><time>2026-04-18T09:29:31.417Z</time></trkpt><trkpt lat="43.4731951" lon="10.9198668"><ele>270.0</ele><time>2026-04-18T09:29:32.418Z</time></trkpt><trkpt lat="43.4731416" lon="10.9198189"><ele>268.6</ele><time>2026-04-18T09:29:33.422Z</time></trkpt><trkpt lat="43.473053" lon="10.9197064"><ele>267.2</ele><time>2026-04-18T09:29:35.421Z</time></trkpt><trkpt lat="43.4730105" lon="10.9196316"><ele>265.8</ele><time>2026-04-18T09:29:36.416Z</time></trkpt><trkpt lat="43.4729788" lon="10.919555"><ele>264.4</ele><time>2026-04-18T09:29:37.421Z</time></trkpt><trkpt lat="43.472937" lon="10.919381"><ele>263.0</ele><time>2026-04-18T09:29:39.41Z</time></trkpt><trkpt lat="43.4729216" lon="10.9192852"><ele>261.7142857142857</ele><time>2026-04-18T09:29:40.41Z</time></trkpt><trkpt lat="43.4729152" lon="10.9191846"><ele>260.4285714285714</ele><time>2026-04-18T09:29:41.423Z</time></trkpt><trkpt lat="43.4729178" lon="10.9190875"><ele>259.1428571428571</ele><time>2026-04-18T09:29:42.424Z</time></trkpt><trkpt lat="43.4729064" lon="10.9189888"><ele>257.85714285714283</ele><time>2026-04-18T09:29:43.425Z</time></trkpt><trkpt lat="43.472888" lon="10.9188836"><ele>256.57142857142856</ele><time>2026-04-18T09:29:44.414Z</time></trkpt><trkpt lat="43.4728613" lon="10.9187788"><ele>255.28571428571428</ele><time>2026-04-18T09:29:45.415Z</time></trkpt><trkpt lat="43.4728325" lon="10.9186881"><ele>254.0</ele><time>2026-04-18T09:29:46.427Z</time></trkpt><trkpt lat="43.4727792" lon="10.9185334"><ele>254.00000000000003</ele><time>2026-04-18T09:29:48.413Z</time></trkpt><trkpt lat="43.4727394" lon="10.9184505"><ele>254.0</ele><time>2026-04-18T09:29:49.427Z</time></trkpt><trkpt lat="43.472695" lon="10.9183656"><ele>254.0</ele><time>2026-04-18T09:29:50.423Z</time></trkpt><trkpt lat="43.4726494" lon="10.9182747"><ele>254.0</ele><time>2026-04-18T09:29:51.413Z</time></trkpt><trkpt lat="43.472598" lon="10.9181796"><ele>254.00000000000003</ele><time>2026-04-18T09:29:52.41Z</time></trkpt><trkpt lat="43.4725495" lon="10.9180847"><ele>254.0</ele><time>2026-04-18T09:29:53.412Z</time></trkpt><trkpt lat="43.4725041" lon="10.9179918"><ele>253.00000000000003</ele><time>2026-04-18T09:29:54.423Z</time></trkpt><trkpt lat="43.472461" lon="10.9178914"><ele>252.0</ele><time>2026-04-18T09:29:55.425Z</time></trkpt><trkpt lat="43.4724165" lon="10.9177968"><ele>251.0</ele><time>2026-04-18T09:29:56.427Z</time></trkpt><trkpt lat="43.472372" lon="10.917709"><ele>250.0</ele><time>2026-04-18T09:29:57.428Z</time></trkpt><trkpt lat="43.4723261" lon="10.9176206"><ele>249.00000000000003</ele><time>2026-04-18T09:29:58.422Z</time></trkpt><trkpt lat="43.4722759" lon="10.9175397"><ele>248.0</ele><time>2026-04-18T09:29:59.417Z</time></trkpt><trkpt lat="43.4722284" lon="10.91747"><ele>247.50000000000003</ele><time>2026-04-18T09:30:00.413Z</time></trkpt><trkpt lat="43.4721748" lon="10.9174003"><ele>247.0</ele><time>2026-04-18T09:30:01.42Z</time></trkpt><trkpt lat="43.4721169" lon="10.9173415"><ele>246.5</ele><time>2026-04-18T09:30:02.413Z</time></trkpt><trkpt lat="43.4720485" lon="10.9172875"><ele>246.0</ele><time>2026-04-18T09:30:03.418Z</time></trkpt><trkpt lat="43.4719829" lon="10.9172407"><ele>245.50000000000003</ele><time>2026-04-18T09:30:04.41Z</time></trkpt><trkpt lat="43.4719099" lon="10.9172013"><ele>245.0</ele><time>2026-04-18T09:30:05.416Z</time></trkpt><trkpt lat="43.4718353" lon="10.9171728"><ele>244.16666666666669</ele><time>2026-04-18T09:30:06.411Z</time></trkpt><trkpt lat="43.4717591" lon="10.9171601"><ele>243.33333333333334</ele><time>2026-04-18T09:30:07.433Z</time></trkpt><trkpt lat="43.4716822" lon="10.9171596"><ele>242.5</ele><time>2026-04-18T09:30:08.426Z</time></trkpt><trkpt lat="43.4716045" lon="10.9171795"><ele>241.66666666666669</ele><time>2026-04-18T09:30:09.409Z</time></trkpt><trkpt lat="43.4715312" lon="10.9172199"><ele>240.83333333333334</ele><time>2026-04-18T09:30:10.417Z</time></trkpt><trkpt lat="43.4714548" lon="10.9172611"><ele>240.0</ele><time>2026-04-18T09:30:11.406Z</time></trkpt><trkpt lat="43.471389" lon="10.9173199"><ele>240.0</ele><time>2026-04-18T09:30:12.41Z</time></trkpt><trkpt lat="43.4713227" lon="10.9173804"><ele>240.0</ele><time>2026-04-18T09:30:13.419Z</time></trkpt><trkpt lat="43.4712623" lon="10.9174474"><ele>240.0</ele><time>2026-04-18T09:30:14.423Z</time></trkpt><trkpt lat="43.4711978" lon="10.9175088"><ele>240.0</ele><time>2026-04-18T09:30:15.413Z</time></trkpt><trkpt lat="43.4711373" lon="10.9175694"><ele>240.0</ele><time>2026-04-18T09:30:16.413Z</time></trkpt><trkpt lat="43.4710751" lon="10.9176364"><ele>240.0</ele><time>2026-04-18T09:30:17.41Z</time></trkpt><trkpt lat="43.4710093" lon="10.9177069"><ele>239.66666666666666</ele><time>2026-04-18T09:30:18.425Z</time></trkpt><trkpt lat="43.4709435" lon="10.9177754"><ele>239.33333333333331</ele><time>2026-04-18T09:30:19.415Z</time></trkpt><trkpt lat="43.4708775" lon="10.917844"><ele>239.0</ele><time>2026-04-18T09:30:20.406Z</time></trkpt><trkpt lat="43.4708175" lon="10.9179118"><ele>238.66666666666666</ele><time>2026-04-18T09:30:21.426Z</time></trkpt><trkpt lat="43.4707445" lon="10.9179989"><ele>238.33333333333331</ele><time>2026-04-18T09:30:22.408Z</time></trkpt><trkpt lat="43.4706808" lon="10.918063"><ele>238.0</ele><time>2026-04-18T09:30:23.412Z</time></trkpt><trkpt lat="43.4706138" lon="10.9181366"><ele>237.99999999999997</ele><time>2026-04-18T09:30:24.411Z</time></trkpt><trkpt lat="43.470543" lon="10.9182101"><ele>238.0</ele><time>2026-04-18T09:30:25.421Z</time></trkpt><trkpt lat="43.4704791" lon="10.9182871"><ele>238.0</ele><time>2026-04-18T09:30:26.423Z</time></trkpt><trkpt lat="43.4704108" lon="10.9183568"><ele>238.0</ele><time>2026-04-18T09:30:27.422Z</time></trkpt><trkpt lat="43.4703504" lon="10.9184207"><ele>237.99999999999997</ele><time>2026-04-18T09:30:28.42Z</time></trkpt><trkpt lat="43.4702662" lon="10.9185117"><ele>238.0</ele><time>2026-04-18T09:30:30.43Z</time></trkpt><trkpt lat="43.470164" lon="10.918528"><ele>236.99999999999997</ele><time>2026-04-18T09:30:32.429Z</time></trkpt><trkpt lat="43.4700478" lon="10.9184822"><ele>236.0</ele><time>2026-04-18T09:30:34.413Z</time></trkpt><trkpt lat="43.4699804" lon="10.9184347"><ele>235.0</ele><time>2026-04-18T09:30:35.412Z</time></trkpt><trkpt lat="43.4699317" lon="10.9183658"><ele>234.0</ele><time>2026-04-18T09:30:36.409Z</time></trkpt><trkpt lat="43.4699153" lon="10.9182636"><ele>232.99999999999997</ele><time>2026-04-18T09:30:37.431Z</time></trkpt><trkpt lat="43.469916" lon="10.918147"><ele>232.0</ele><time>2026-04-18T09:30:38.419Z</time></trkpt><trkpt lat="43.4699275" lon="10.9180239"><ele>230.99999999999997</ele><time>2026-04-18T09:30:39.423Z</time></trkpt><trkpt lat="43.4699443" lon="10.9179069"><ele>230.0</ele><time>2026-04-18T09:30:40.425Z</time></trkpt><trkpt lat="43.4699598" lon="10.917794"><ele>229.0</ele><time>2026-04-18T09:30:41.414Z</time></trkpt><trkpt lat="43.4699862" lon="10.917673"><ele>228.0</ele><time>2026-04-18T09:30:42.423Z</time></trkpt><trkpt lat="43.4699922" lon="10.9175656"><ele>226.99999999999997</ele><time>2026-04-18T09:30:43.414Z</time></trkpt><trkpt lat="43.4699914" lon="10.9174606"><ele>226.0</ele><time>2026-04-18T09:30:44.41Z</time></trkpt><trkpt lat="43.4699687" lon="10.9173662"><ele>224.99999999999997</ele><time>2026-04-18T09:30:45.417Z</time></trkpt><trkpt lat="43.469923" lon="10.9172949"><ele>224.0</ele><time>2026-04-18T09:30:46.415Z</time></trkpt><trkpt lat="43.4698601" lon="10.9172488"><ele>223.0</ele><time>2026-04-18T09:30:47.421Z</time></trkpt><trkpt lat="43.4697708" lon="10.9172218"><ele>222.0</ele><time>2026-04-18T09:30:48.421Z</time></trkpt><trkpt lat="43.4696718" lon="10.9172059"><ele>220.99999999999997</ele><time>2026-04-18T09:30:49.408Z</time></trkpt><trkpt lat="43.4695677" lon="10.91721"><ele>220.0</ele><time>2026-04-18T09:30:50.414Z</time></trkpt><trkpt lat="43.4694731" lon="10.9172161"><ele>218.33333333333331</ele><time>2026-04-18T09:30:51.413Z</time></trkpt><trkpt lat="43.4693817" lon="10.9172143"><ele>216.66666666666666</ele><time>2026-04-18T09:30:52.421Z</time></trkpt><trkpt lat="43.4692992" lon="10.9172129"><ele>215.0</ele><time>2026-04-18T09:30:53.415Z</time></trkpt><trkpt lat="43.4692124" lon="10.9172161"><ele>213.33333333333331</ele><time>2026-04-18T09:30:54.419Z</time></trkpt><trkpt lat="43.469124" lon="10.917218"><ele>211.66666666666666</ele><time>2026-04-18T09:30:55.419Z</time></trkpt><trkpt lat="43.4690387" lon="10.9172222"><ele>210.0</ele><time>2026-04-18T09:30:56.429Z</time></trkpt><trkpt lat="43.4689516" lon="10.9172235"><ele>210.0</ele><time>2026-04-18T09:30:57.416Z</time></trkpt><trkpt lat="43.4688616" lon="10.9172178"><ele>210.0</ele><time>2026-04-18T09:30:58.407Z</time></trkpt><trkpt lat="43.4687718" lon="10.9172097"><ele>210.0</ele><time>2026-04-18T09:30:59.41Z</time></trkpt><trkpt lat="43.4686812" lon="10.9172027"><ele>210.0</ele><time>2026-04-18T09:31:00.427Z</time></trkpt><trkpt lat="43.4685879" lon="10.917199"><ele>210.0</ele><time>2026-04-18T09:31:01.415Z</time></trkpt><trkpt lat="43.4684966" lon="10.9171933"><ele>208.83333333333334</ele><time>2026-04-18T09:31:02.426Z</time></trkpt><trkpt lat="43.4684114" lon="10.9171773"><ele>207.66666666666669</ele><time>2026-04-18T09:31:03.409Z</time></trkpt><trkpt lat="43.4683239" lon="10.9171506"><ele>206.5</ele><time>2026-04-18T09:31:04.413Z</time></trkpt><trkpt lat="43.468243" lon="10.9171157"><ele>205.33333333333334</ele><time>2026-04-18T09:31:05.414Z</time></trkpt><trkpt lat="43.4681589" lon="10.9170738"><ele>204.16666666666669</ele><time>2026-04-18T09:31:06.426Z</time></trkpt><trkpt lat="43.468082" lon="10.9170198"><ele>203.0</ele><time>2026-04-18T09:31:07.407Z</time></trkpt><trkpt lat="43.4680019" lon="10.9169717"><ele>202.50000000000003</ele><time>2026-04-18T09:31:08.42Z</time></trkpt><trkpt lat="43.4679251" lon="10.9169121"><ele>202.0</ele><time>2026-04-18T09:31:09.428Z</time></trkpt><trkpt lat="43.4678577" lon="10.916839"><ele>201.5</ele><time>2026-04-18T09:31:10.415Z</time></trkpt><trkpt lat="43.4677924" lon="10.9167524"><ele>201.0</ele><time>2026-04-18T09:31:11.42Z</time></trkpt><trkpt lat="43.4677477" lon="10.91665"><ele>200.50000000000003</ele><time>2026-04-18T09:31:12.409Z</time></trkpt><trkpt lat="43.4677186" lon="10.9165344"><ele>200.0</ele><time>2026-04-18T09:31:13.426Z</time></trkpt><trkpt lat="43.4676942" lon="10.9164138"><ele>199.2</ele><time>2026-04-18T09:31:14.418Z</time></trkpt><trkpt lat="43.4676849" lon="10.9162876"><ele>198.4</ele><time>2026-04-18T09:31:15.417Z</time></trkpt><trkpt lat="43.4676964" lon="10.9161582"><ele>197.60000000000002</ele><time>2026-04-18T09:31:16.409Z</time></trkpt><trkpt lat="43.4677233" lon="10.916033"><ele>196.8</ele><time>2026-04-18T09:31:17.408Z</time></trkpt><trkpt lat="43.467757" lon="10.915907"><ele>196.0</ele><time>2026-04-18T09:31:18.426Z</time></trkpt><trkpt lat="43.4677851" lon="10.9157757"><ele>194.8</ele><time>2026-04-18T09:31:19.408Z</time></trkpt><trkpt lat="43.4678117" lon="10.9156365"><ele>193.60000000000002</ele><time>2026-04-18T09:31:20.408Z</time></trkpt><trkpt lat="43.4678369" lon="10.915487"><ele>192.4</ele><time>2026-04-18T09:31:21.416Z</time></trkpt><trkpt lat="43.4678539" lon="10.9153413"><ele>191.2</ele><time>2026-04-18T09:31:22.426Z</time></trkpt><trkpt lat="43.4678605" lon="10.9151978"><ele>190.0</ele><time>2026-04-18T09:31:23.431Z</time></trkpt><trkpt lat="43.4678568" lon="10.915048"><ele>189.4</ele><time>2026-04-18T09:31:24.403Z</time></trkpt><trkpt lat="43.4678515" lon="10.9148803"><ele>188.8</ele><time>2026-04-18T09:31:25.431Z</time></trkpt><trkpt lat="43.4678278" lon="10.9147308"><ele>188.2</ele><time>2026-04-18T09:31:26.418Z</time></trkpt><trkpt lat="43.467812" lon="10.9145811"><ele>187.6</ele><time>2026-04-18T09:31:27.411Z</time></trkpt><trkpt lat="43.4677933" lon="10.9144376"><ele>187.0</ele><time>2026-04-18T09:31:28.421Z</time></trkpt><trkpt lat="43.4677802" lon="10.914293"><ele>186.8</ele><time>2026-04-18T09:31:29.427Z</time></trkpt><trkpt lat="43.4677735" lon="10.9141608"><ele>186.6</ele><time>2026-04-18T09:31:30.41Z</time></trkpt><trkpt lat="43.4677628" lon="10.9140211"><ele>186.4</ele><time>2026-04-18T09:31:31.415Z</time></trkpt><trkpt lat="43.4677488" lon="10.913891"><ele>186.20000000000002</ele><time>2026-04-18T09:31:32.42Z</time></trkpt><trkpt lat="43.4677373" lon="10.9137524"><ele>186.0</ele><time>2026-04-18T09:31:33.417Z</time></trkpt><trkpt lat="43.4677246" lon="10.9136221"><ele>186.0</ele><time>2026-04-18T09:31:34.43Z</time></trkpt><trkpt lat="43.4677135" lon="10.9135089"><ele>186.0</ele><time>2026-04-18T09:31:35.414Z</time></trkpt><trkpt lat="43.4676928" lon="10.9134141"><ele>186.0</ele><time>2026-04-18T09:31:36.402Z</time></trkpt><trkpt lat="43.4676731" lon="10.9133228"><ele>186.0</ele><time>2026-04-18T09:31:37.42Z</time></trkpt><trkpt lat="43.467651" lon="10.913235"><ele>186.0</ele><time>2026-04-18T09:31:38.415Z</time></trkpt><trkpt lat="43.4675869" lon="10.9130935"><ele>186.0</ele><time>2026-04-18T09:31:40.422Z</time></trkpt><trkpt lat="43.4675321" lon="10.9130353"><ele>185.66666666666666</ele><time>2026-04-18T09:31:41.415Z</time></trkpt><trkpt lat="43.4674661" lon="10.9130083"><ele>185.33333333333334</ele><time>2026-04-18T09:31:42.414Z</time></trkpt><trkpt lat="43.4673857" lon="10.9130156"><ele>185.0</ele><time>2026-04-18T09:31:43.424Z</time></trkpt><trkpt lat="43.4673112" lon="10.9130235"><ele>184.66666666666669</ele><time>2026-04-18T09:31:44.428Z</time></trkpt><trkpt lat="43.4672347" lon="10.913049"><ele>184.33333333333334</ele><time>2026-04-18T09:31:45.411Z</time></trkpt><trkpt lat="43.4671561" lon="10.9130843"><ele>184.0</ele><time>2026-04-18T09:31:46.404Z</time></trkpt><trkpt lat="43.4670749" lon="10.9131157"><ele>184.66666666666669</ele><time>2026-04-18T09:31:47.404Z</time></trkpt><trkpt lat="43.4669989" lon="10.9131396"><ele>185.33333333333334</ele><time>2026-04-18T09:31:48.405Z</time></trkpt><trkpt lat="43.4669213" lon="10.9131686"><ele>186.0</ele><time>2026-04-18T09:31:49.423Z</time></trkpt><trkpt lat="43.4668393" lon="10.9131853"><ele>186.66666666666666</ele><time>2026-04-18T09:31:50.427Z</time></trkpt><trkpt lat="43.4667513" lon="10.9131889"><ele>187.33333333333331</ele><time>2026-04-18T09:31:51.43Z</time></trkpt><trkpt lat="43.4666577" lon="10.9131754"><ele>188.0</ele><time>2026-04-18T09:31:52.423Z</time></trkpt><trkpt lat="43.466562" lon="10.913153"><ele>188.0</ele><time>2026-04-18T09:31:53.402Z</time></trkpt><trkpt lat="43.4664646" lon="10.913133"><ele>188.0</ele><time>2026-04-18T09:31:54.429Z</time></trkpt><trkpt lat="43.4663576" lon="10.9131205"><ele>188.0</ele><time>2026-04-18T09:31:55.415Z</time></trkpt><trkpt lat="43.4662559" lon="10.913097"><ele>188.0</ele><time>2026-04-18T09:31:56.422Z</time></trkpt><trkpt lat="43.466151" lon="10.9130801"><ele>188.0</ele><time>2026-04-18T09:31:57.419Z</time></trkpt><trkpt lat="43.4660472" lon="10.9130567"><ele>188.66666666666666</ele><time>2026-04-18T09:31:58.426Z</time></trkpt><trkpt lat="43.4659464" lon="10.9130342"><ele>189.33333333333331</ele><time>2026-04-18T09:31:59.419Z</time></trkpt><trkpt lat="43.4658533" lon="10.9130213"><ele>190.0</ele><time>2026-04-18T09:32:00.412Z</time></trkpt><trkpt lat="43.4657707" lon="10.9130139"><ele>190.66666666666666</ele><time>2026-04-18T09:32:01.412Z</time></trkpt><trkpt lat="43.4657022" lon="10.9130083"><ele>191.33333333333334</ele><time>2026-04-18T09:32:02.409Z</time></trkpt><trkpt lat="43.465635" lon="10.9130032"><ele>192.0</ele><time>2026-04-18T09:32:03.423Z</time></trkpt><trkpt lat="43.4655703" lon="10.9129998"><ele>192.0</ele><time>2026-04-18T09:32:04.412Z</time></trkpt><trkpt lat="43.4655057" lon="10.9130023"><ele>192.0</ele><time>2026-04-18T09:32:05.404Z</time></trkpt><trkpt lat="43.4654328" lon="10.9130218"><ele>192.0</ele><time>2026-04-18T09:32:06.421Z</time></trkpt><trkpt lat="43.4653423" lon="10.9130705"><ele>192.0</ele><time>2026-04-18T09:32:07.415Z</time></trkpt><trkpt lat="43.4652501" lon="10.9131664"><ele>192.0</ele><time>2026-04-18T09:32:08.412Z</time></trkpt><trkpt lat="43.4651684" lon="10.9132517"><ele>192.8</ele><time>2026-04-18T09:32:09.413Z</time></trkpt><trkpt lat="43.4650836" lon="10.913336"><ele>193.6</ele><time>2026-04-18T09:32:10.432Z</time></trkpt><trkpt lat="43.4649951" lon="10.913431"><ele>194.4</ele><time>2026-04-18T09:32:11.405Z</time></trkpt><trkpt lat="43.4649141" lon="10.9135248"><ele>195.20000000000002</ele><time>2026-04-18T09:32:12.421Z</time></trkpt><trkpt lat="43.4648338" lon="10.9136195"><ele>196.0</ele><time>2026-04-18T09:32:13.414Z</time></trkpt><trkpt lat="43.464752" lon="10.9137176"><ele>196.0</ele><time>2026-04-18T09:32:14.419Z</time></trkpt><trkpt lat="43.4646657" lon="10.9138136"><ele>196.0</ele><time>2026-04-18T09:32:15.42Z</time></trkpt><trkpt lat="43.4645793" lon="10.9138943"><ele>196.0</ele><time>2026-04-18T09:32:16.428Z</time></trkpt><trkpt lat="43.4644858" lon="10.9139491"><ele>196.0</ele><time>2026-04-18T09:32:17.422Z</time></trkpt><trkpt lat="43.4643877" lon="10.9139728"><ele>196.0</ele><time>2026-04-18T09:32:18.423Z</time></trkpt><trkpt lat="43.4642897" lon="10.9139528"><ele>195.0</ele><time>2026-04-18T09:32:19.415Z</time></trkpt><trkpt lat="43.4641949" lon="10.9139253"><ele>194.0</ele><time>2026-04-18T09:32:20.413Z</time></trkpt><trkpt lat="43.4641113" lon="10.9138787"><ele>193.0</ele><time>2026-04-18T09:32:21.418Z</time></trkpt><trkpt lat="43.464029" lon="10.9138258"><ele>192.0</ele><time>2026-04-18T09:32:22.418Z</time></trkpt><trkpt lat="43.4639445" lon="10.9137865"><ele>191.0</ele><time>2026-04-18T09:32:23.429Z</time></trkpt><trkpt lat="43.4638492" lon="10.9138144"><ele>193.4</ele><time>2026-04-18T09:32:24.418Z</time></trkpt><trkpt lat="43.463766" lon="10.913849"><ele>195.8</ele><time>2026-04-18T09:32:25.421Z</time></trkpt><trkpt lat="43.4636839" lon="10.9139201"><ele>198.20000000000002</ele><time>2026-04-18T09:32:26.429Z</time></trkpt><trkpt lat="43.4636246" lon="10.9140139"><ele>200.60000000000002</ele><time>2026-04-18T09:32:27.425Z</time></trkpt><trkpt lat="43.4635689" lon="10.9141262"><ele>203.0</ele><time>2026-04-18T09:32:28.421Z</time></trkpt><trkpt lat="43.4635182" lon="10.9142324"><ele>202.00000000000003</ele><time>2026-04-18T09:32:29.416Z</time></trkpt><trkpt lat="43.4634768" lon="10.914342"><ele>201.0</ele><time>2026-04-18T09:32:30.42Z</time></trkpt><trkpt lat="43.4634319" lon="10.9144362"><ele>200.0</ele><time>2026-04-18T09:32:31.427Z</time></trkpt><trkpt lat="43.4633898" lon="10.914522"><ele>199.0</ele><time>2026-04-18T09:32:32.404Z</time></trkpt><trkpt lat="43.4633426" lon="10.9146068"><ele>198.00000000000003</ele><time>2026-04-18T09:32:33.406Z</time></trkpt><trkpt lat="43.463296" lon="10.9146939"><ele>197.0</ele><time>2026-04-18T09:32:34.414Z</time></trkpt><trkpt lat="43.46325" lon="10.9147849"><ele>197.00000000000003</ele><time>2026-04-18T09:32:35.433Z</time></trkpt><trkpt lat="43.4632025" lon="10.9148721"><ele>197.0</ele><time>2026-04-18T09:32:36.409Z</time></trkpt><trkpt lat="43.4631565" lon="10.9149632"><ele>197.0</ele><time>2026-04-18T09:32:37.436Z</time></trkpt><trkpt lat="43.4631015" lon="10.915055"><ele>197.0</ele><time>2026-04-18T09:32:38.408Z</time></trkpt><trkpt lat="43.4630419" lon="10.915142"><ele>197.00000000000003</ele><time>2026-04-18T09:32:39.398Z</time></trkpt><trkpt lat="43.4629781" lon="10.915221"><ele>197.0</ele><time>2026-04-18T09:32:40.41Z</time></trkpt><trkpt lat="43.4629084" lon="10.9152913"><ele>198.39999999999998</ele><time>2026-04-18T09:32:41.424Z</time></trkpt><trkpt lat="43.4628307" lon="10.9153529"><ele>199.79999999999998</ele><time>2026-04-18T09:32:42.421Z</time></trkpt><trkpt lat="43.4627424" lon="10.915402"><ele>201.2</ele><time>2026-04-18T09:32:43.428Z</time></trkpt><trkpt lat="43.4626575" lon="10.9154508"><ele>202.6</ele><time>2026-04-18T09:32:44.411Z</time></trkpt><trkpt lat="43.4625582" lon="10.915498"><ele>204.0</ele><time>2026-04-18T09:32:45.423Z</time></trkpt><trkpt lat="43.4624574" lon="10.9155453"><ele>204.0</ele><time>2026-04-18T09:32:46.429Z</time></trkpt><trkpt lat="43.4623444" lon="10.9155911"><ele>204.0</ele><time>2026-04-18T09:32:47.433Z</time></trkpt><trkpt lat="43.4622377" lon="10.9156187"><ele>204.0</ele><time>2026-04-18T09:32:48.417Z</time></trkpt><trkpt lat="43.4621368" lon="10.9156342"><ele>204.0</ele><time>2026-04-18T09:32:49.428Z</time></trkpt><trkpt lat="43.462032" lon="10.9156491"><ele>204.0</ele><time>2026-04-18T09:32:50.421Z</time></trkpt><trkpt lat="43.4619243" lon="10.9156639"><ele>206.75</ele><time>2026-04-18T09:32:51.425Z</time></trkpt><trkpt lat="43.4618155" lon="10.9156878"><ele>209.5</ele><time>2026-04-18T09:32:52.422Z</time></trkpt><trkpt lat="43.4616992" lon="10.915714"><ele>212.25</ele><time>2026-04-18T09:32:53.429Z</time></trkpt><trkpt lat="43.4615785" lon="10.9157505"><ele>215.0</ele><time>2026-04-18T09:32:54.418Z</time></trkpt><trkpt lat="43.4614588" lon="10.9157818"><ele>215.0</ele><time>2026-04-18T09:32:55.422Z</time></trkpt><trkpt lat="43.4613511" lon="10.9158078"><ele>215.0</ele><time>2026-04-18T09:32:56.428Z</time></trkpt><trkpt lat="43.4612583" lon="10.9158263"><ele>215.0</ele><time>2026-04-18T09:32:57.454Z</time></trkpt><trkpt lat="43.4611764" lon="10.9158418"><ele>215.0</ele><time>2026-04-18T09:32:58.417Z</time></trkpt><trkpt lat="43.4610919" lon="10.9158382"><ele>215.0</ele><time>2026-04-18T09:32:59.415Z</time></trkpt><trkpt lat="43.4610089" lon="10.915813"><ele>216.00000000000003</ele><time>2026-04-18T09:33:00.423Z</time></trkpt><trkpt lat="43.460929" lon="10.9157719"><ele>217.0</ele><time>2026-04-18T09:33:01.423Z</time></trkpt><trkpt lat="43.4608632" lon="10.9157163"><ele>218.0</ele><time>2026-04-18T09:33:02.444Z</time></trkpt><trkpt lat="43.4607547" lon="10.9156287"><ele>219.0</ele><time>2026-04-18T09:33:04.401Z</time></trkpt><trkpt lat="43.4606909" lon="10.9155971"><ele>220.00000000000003</ele><time>2026-04-18T09:33:05.415Z</time></trkpt><trkpt lat="43.4606169" lon="10.9155918"><ele>221.0</ele><time>2026-04-18T09:33:06.422Z</time></trkpt><trkpt lat="43.4605477" lon="10.9156211"><ele>221.00000000000003</ele><time>2026-04-18T09:33:07.433Z</time></trkpt><trkpt lat="43.460487" lon="10.9156793"><ele>221.0</ele><time>2026-04-18T09:33:08.41Z</time></trkpt><trkpt lat="43.4604285" lon="10.9157392"><ele>221.0</ele><time>2026-04-18T09:33:09.449Z</time></trkpt><trkpt lat="43.4603611" lon="10.9158082"><ele>221.0</ele><time>2026-04-18T09:33:10.417Z</time></trkpt><trkpt lat="43.4602918" lon="10.9158512"><ele>221.00000000000003</ele><time>2026-04-18T09:33:11.405Z</time></trkpt><trkpt lat="43.4602189" lon="10.9158698"><ele>221.0</ele><time>2026-04-18T09:33:12.41Z</time></trkpt><trkpt lat="43.4601448" lon="10.9158636"><ele>222.00000000000003</ele><time>2026-04-18T09:33:13.4Z</time></trkpt><trkpt lat="43.4600705" lon="10.9158594"><ele>223.0</ele><time>2026-04-18T09:33:14.411Z</time></trkpt><trkpt lat="43.4600038" lon="10.9158527"><ele>224.0</ele><time>2026-04-18T09:33:15.416Z</time></trkpt><trkpt lat="43.4599275" lon="10.9158251"><ele>225.0</ele><time>2026-04-18T09:33:16.411Z</time></trkpt><trkpt lat="43.4598587" lon="10.9157744"><ele>226.00000000000003</ele><time>2026-04-18T09:33:17.413Z</time></trkpt><trkpt lat="43.4598005" lon="10.915707"><ele>227.0</ele><time>2026-04-18T09:33:18.409Z</time></trkpt><trkpt lat="43.45974" lon="10.9156373"><ele>227.0</ele><time>2026-04-18T09:33:19.426Z</time></trkpt><trkpt lat="43.4596876" lon="10.9155637"><ele>227.00000000000003</ele><time>2026-04-18T09:33:20.418Z</time></trkpt><trkpt lat="43.4596388" lon="10.9154896"><ele>227.0</ele><time>2026-04-18T09:33:21.42Z</time></trkpt><trkpt lat="43.4595899" lon="10.9154088"><ele>227.0</ele><time>2026-04-18T09:33:22.415Z</time></trkpt><trkpt lat="43.459546" lon="10.9153329"><ele>227.00000000000003</ele><time>2026-04-18T09:33:23.418Z</time></trkpt><trkpt lat="43.4595005" lon="10.9152707"><ele>227.0</ele><time>2026-04-18T09:33:24.419Z</time></trkpt><trkpt lat="43.4594421" lon="10.9151957"><ele>227.0</ele><time>2026-04-18T09:33:26.418Z</time></trkpt><trkpt lat="43.4593493" lon="10.9151731"><ele>227.6</ele><time>2026-04-18T09:36:52.41Z</time></trkpt><trkpt lat="43.4592607" lon="10.9151753"><ele>228.2</ele><time>2026-04-18T09:36:54.424Z</time></trkpt><trkpt lat="43.4591895" lon="10.9152"><ele>228.8</ele><time>2026-04-18T09:36:56.426Z</time></trkpt><trkpt lat="43.459106" lon="10.915257"><ele>229.4</ele><time>2026-04-18T09:36:58.418Z</time></trkpt><trkpt lat="43.4590196" lon="10.9153114"><ele>230.0</ele><time>2026-04-18T09:37:00.418Z</time></trkpt><trkpt lat="43.4589203" lon="10.9153171"><ele>230.0</ele><time>2026-04-18T09:37:02.417Z</time></trkpt><trkpt lat="43.4588234" lon="10.9152828"><ele>230.0</ele><time>2026-04-18T09:37:04.423Z</time></trkpt><trkpt lat="43.4587356" lon="10.9152058"><ele>230.0</ele><time>2026-04-18T09:37:06.404Z</time></trkpt><trkpt lat="43.4586543" lon="10.9150959"><ele>230.0</ele><time>2026-04-18T09:37:08.41Z</time></trkpt><trkpt lat="43.4585924" lon="10.9149642"><ele>230.0</ele><time>2026-04-18T09:37:10.422Z</time></trkpt><trkpt lat="43.4585595" lon="10.914803"><ele>230.71428571428567</ele><time>2026-04-18T09:37:12.426Z</time></trkpt><trkpt lat="43.4585554" lon="10.9147116"><ele>231.42857142857142</ele><time>2026-04-18T09:37:13.415Z</time></trkpt><trkpt lat="43.4585533" lon="10.9146174"><ele>232.1428571428571</ele><time>2026-04-18T09:37:14.425Z</time></trkpt><trkpt lat="43.4585471" lon="10.9145237"><ele>232.85714285714283</ele><time>2026-04-18T09:37:15.421Z</time></trkpt><trkpt lat="43.4585443" lon="10.9144249"><ele>233.57142857142856</ele><time>2026-04-18T09:37:16.432Z</time></trkpt><trkpt lat="43.4585424" lon="10.9143285"><ele>234.28571428571428</ele><time>2026-04-18T09:37:17.403Z</time></trkpt><trkpt lat="43.4585418" lon="10.9142299"><ele>235.0</ele><time>2026-04-18T09:37:18.41Z</time></trkpt><trkpt lat="43.45854" lon="10.9141273"><ele>236.14285714285714</ele><time>2026-04-18T09:37:19.412Z</time></trkpt><trkpt lat="43.4585406" lon="10.914034"><ele>237.28571428571428</ele><time>2026-04-18T09:37:20.409Z</time></trkpt><trkpt lat="43.4585427" lon="10.9139416"><ele>238.42857142857142</ele><time>2026-04-18T09:37:21.413Z</time></trkpt><trkpt lat="43.4585443" lon="10.9138465"><ele>239.57142857142856</ele><time>2026-04-18T09:37:22.408Z</time></trkpt><trkpt lat="43.4585441" lon="10.9137462"><ele>240.71428571428572</ele><time>2026-04-18T09:37:23.408Z</time></trkpt><trkpt lat="43.4585472" lon="10.9136435"><ele>241.85714285714283</ele><time>2026-04-18T09:37:24.421Z</time></trkpt><trkpt lat="43.4585514" lon="10.913531"><ele>243.0</ele><time>2026-04-18T09:37:25.424Z</time></trkpt><trkpt lat="43.4585478" lon="10.9134208"><ele>244.16666666666666</ele><time>2026-04-18T09:37:26.42Z</time></trkpt><trkpt lat="43.4585432" lon="10.9133115"><ele>245.33333333333331</ele><time>2026-04-18T09:37:27.412Z</time></trkpt><trkpt lat="43.4585265" lon="10.913205"><ele>246.5</ele><time>2026-04-18T09:37:28.418Z</time></trkpt><trkpt lat="43.4585035" lon="10.9130956"><ele>247.66666666666666</ele><time>2026-04-18T09:37:29.404Z</time></trkpt><trkpt lat="43.4584564" lon="10.9130102"><ele>248.83333333333331</ele><time>2026-04-18T09:37:30.403Z</time></trkpt><trkpt lat="43.4584046" lon="10.9129335"><ele>250.0</ele><time>2026-04-18T09:37:31.415Z</time></trkpt><trkpt lat="43.4583415" lon="10.9128678"><ele>249.99999999999997</ele><time>2026-04-18T09:37:32.414Z</time></trkpt><trkpt lat="43.4582777" lon="10.9128097"><ele>250.0</ele><time>2026-04-18T09:37:33.407Z</time></trkpt><trkpt lat="43.4582146" lon="10.9127594"><ele>250.0</ele><time>2026-04-18T09:37:34.418Z</time></trkpt><trkpt lat="43.4581435" lon="10.9127076"><ele>250.0</ele><time>2026-04-18T09:37:35.423Z</time></trkpt><trkpt lat="43.4580706" lon="10.9126598"><ele>249.99999999999997</ele><time>2026-04-18T09:37:36.413Z</time></trkpt><trkpt lat="43.457994" lon="10.91261"><ele>250.0</ele><time>2026-04-18T09:37:37.421Z</time></trkpt><trkpt lat="43.4579144" lon="10.9125546"><ele>251.8</ele><time>2026-04-18T09:37:38.423Z</time></trkpt><trkpt lat="43.4578315" lon="10.9124981"><ele>253.6</ele><time>2026-04-18T09:37:39.422Z</time></trkpt><trkpt lat="43.4577455" lon="10.9124422"><ele>255.39999999999998</ele><time>2026-04-18T09:37:40.414Z</time></trkpt><trkpt lat="43.4576595" lon="10.9123805"><ele>257.2</ele><time>2026-04-18T09:37:41.421Z</time></trkpt><trkpt lat="43.4575673" lon="10.912316"><ele>259.0</ele><time>2026-04-18T09:37:42.416Z</time></trkpt><trkpt lat="43.4574731" lon="10.9122544"><ele>259.0</ele><time>2026-04-18T09:37:43.411Z</time></trkpt><trkpt lat="43.4573706" lon="10.9121875"><ele>259.0</ele><time>2026-04-18T09:37:44.406Z</time></trkpt><trkpt lat="43.4572671" lon="10.9121138"><ele>259.0</ele><time>2026-04-18T09:37:45.409Z</time></trkpt><trkpt lat="43.457164" lon="10.9120431"><ele>259.0</ele><time>2026-04-18T09:37:46.437Z</time></trkpt><trkpt lat="43.4570633" lon="10.9119692"><ele>259.8</ele><time>2026-04-18T09:37:47.409Z</time></trkpt><trkpt lat="43.4569643" lon="10.9118986"><ele>260.59999999999997</ele><time>2026-04-18T09:37:48.412Z</time></trkpt><trkpt lat="43.4568714" lon="10.9118278"><ele>261.4</ele><time>2026-04-18T09:37:49.402Z</time></trkpt><trkpt lat="43.4567794" lon="10.9117602"><ele>262.2</ele><time>2026-04-18T09:37:50.424Z</time></trkpt><trkpt lat="43.4566905" lon="10.9116962"><ele>263.0</ele><time>2026-04-18T09:37:51.426Z</time></trkpt><trkpt lat="43.4566097" lon="10.911641"><ele>263.1428571428571</ele><time>2026-04-18T09:37:52.409Z</time></trkpt><trkpt lat="43.4565369" lon="10.9115896"><ele>263.2857142857143</ele><time>2026-04-18T09:37:53.411Z</time></trkpt><trkpt lat="43.4564736" lon="10.911547"><ele>263.42857142857144</ele><time>2026-04-18T09:37:54.416Z</time></trkpt><trkpt lat="43.456411" lon="10.9115293"><ele>263.57142857142856</ele><time>2026-04-18T09:37:55.41Z</time></trkpt><trkpt lat="43.4563414" lon="10.91153"><ele>263.7142857142857</ele><time>2026-04-18T09:37:56.407Z</time></trkpt><trkpt lat="43.456273" lon="10.9115451"><ele>263.85714285714283</ele><time>2026-04-18T09:37:57.424Z</time></trkpt><trkpt lat="43.4562048" lon="10.9115835"><ele>264.0</ele><time>2026-04-18T09:37:58.414Z</time></trkpt><trkpt lat="43.4561349" lon="10.9116307"><ele>265.3333333333333</ele><time>2026-04-18T09:37:59.4Z</time></trkpt><trkpt lat="43.4560648" lon="10.9116703"><ele>266.6666666666667</ele><time>2026-04-18T09:38:00.419Z</time></trkpt><trkpt lat="43.4559839" lon="10.9117097"><ele>268.0</ele><time>2026-04-18T09:38:01.403Z</time></trkpt><trkpt lat="43.4559037" lon="10.9117492"><ele>269.33333333333337</ele><time>2026-04-18T09:38:02.406Z</time></trkpt><trkpt lat="43.4558271" lon="10.9117822"><ele>270.6666666666667</ele><time>2026-04-18T09:38:03.427Z</time></trkpt><trkpt lat="43.4557623" lon="10.9118106"><ele>272.0</ele><time>2026-04-18T09:38:04.418Z</time></trkpt><trkpt lat="43.4557003" lon="10.911836"><ele>271.99999999999994</ele><time>2026-04-18T09:38:05.422Z</time></trkpt><trkpt lat="43.4556386" lon="10.9118566"><ele>272.0</ele><time>2026-04-18T09:38:06.438Z</time></trkpt><trkpt lat="43.4555752" lon="10.9118764"><ele>272.0</ele><time>2026-04-18T09:38:07.429Z</time></trkpt><trkpt lat="43.4555087" lon="10.9118975"><ele>272.0</ele><time>2026-04-18T09:38:08.425Z</time></trkpt><trkpt lat="43.4554406" lon="10.9119112"><ele>272.0</ele><time>2026-04-18T09:38:09.416Z</time></trkpt><trkpt lat="43.4553717" lon="10.9119208"><ele>271.99999999999994</ele><time>2026-04-18T09:38:10.419Z</time></trkpt><trkpt lat="43.4552999" lon="10.9119388"><ele>272.0</ele><time>2026-04-18T09:38:11.418Z</time></trkpt><trkpt lat="43.4552215" lon="10.9119526"><ele>273.4285714285714</ele><time>2026-04-18T09:38:12.423Z</time></trkpt><trkpt lat="43.4551428" lon="10.911969"><ele>274.85714285714283</ele><time>2026-04-18T09:38:13.422Z</time></trkpt><trkpt lat="43.4550691" lon="10.9119807"><ele>276.2857142857143</ele><time>2026-04-18T09:38:14.421Z</time></trkpt><trkpt lat="43.4549947" lon="10.9119987"><ele>277.71428571428567</ele><time>2026-04-18T09:38:15.425Z</time></trkpt><trkpt lat="43.4549337" lon="10.9120221"><ele>279.1428571428571</ele><time>2026-04-18T09:38:16.426Z</time></trkpt><trkpt lat="43.4548757" lon="10.9120576"><ele>280.57142857142856</ele><time>2026-04-18T09:38:17.424Z</time></trkpt><trkpt lat="43.4548142" lon="10.9121023"><ele>282.0</ele><time>2026-04-18T09:38:18.426Z</time></trkpt><trkpt lat="43.4547482" lon="10.9121399"><ele>282.0</ele><time>2026-04-18T09:38:19.412Z</time></trkpt><trkpt lat="43.4546775" lon="10.9121848"><ele>282.0</ele><time>2026-04-18T09:38:20.422Z</time></trkpt><trkpt lat="43.4546101" lon="10.912227"><ele>282.0</ele><time>2026-04-18T09:38:21.409Z</time></trkpt><trkpt lat="43.4545322" lon="10.9122509"><ele>282.0</ele><time>2026-04-18T09:38:22.427Z</time></trkpt><trkpt lat="43.4544628" lon="10.9122661"><ele>282.0</ele><time>2026-04-18T09:38:23.429Z</time></trkpt><trkpt lat="43.4543849" lon="10.9122718"><ele>282.0</ele><time>2026-04-18T09:38:24.412Z</time></trkpt><trkpt lat="43.4543027" lon="10.9122778"><ele>283.6666666666667</ele><time>2026-04-18T09:38:25.428Z</time></trkpt><trkpt lat="43.4542092" lon="10.9122738"><ele>285.3333333333333</ele><time>2026-04-18T09:38:26.407Z</time></trkpt><trkpt lat="43.4541249" lon="10.9122588"><ele>287.0</ele><time>2026-04-18T09:38:27.423Z</time></trkpt><trkpt lat="43.4540462" lon="10.9122344"><ele>288.66666666666663</ele><time>2026-04-18T09:38:28.427Z</time></trkpt><trkpt lat="43.4539688" lon="10.9122041"><ele>290.3333333333333</ele><time>2026-04-18T09:38:29.425Z</time></trkpt><trkpt lat="43.4538938" lon="10.9121674"><ele>292.0</ele><time>2026-04-18T09:38:30.439Z</time></trkpt><trkpt lat="43.4538072" lon="10.9121272"><ele>292.4</ele><time>2026-04-18T09:38:31.423Z</time></trkpt><trkpt lat="43.4537135" lon="10.9120992"><ele>292.79999999999995</ele><time>2026-04-18T09:38:32.416Z</time></trkpt><trkpt lat="43.4536183" lon="10.9121003"><ele>293.2</ele><time>2026-04-18T09:38:33.424Z</time></trkpt><trkpt lat="43.4535184" lon="10.9121194"><ele>293.59999999999997</ele><time>2026-04-18T09:38:34.427Z</time></trkpt><trkpt lat="43.4534149" lon="10.9121399"><ele>294.0</ele><time>2026-04-18T09:38:35.423Z</time></trkpt><trkpt lat="43.4533066" lon="10.9121723"><ele>294.0</ele><time>2026-04-18T09:38:36.418Z</time></trkpt><trkpt lat="43.4532058" lon="10.9122132"><ele>294.0</ele><time>2026-04-18T09:38:37.419Z</time></trkpt><trkpt lat="43.4531051" lon="10.9122453"><ele>294.0</ele><time>2026-04-18T09:38:38.418Z</time></trkpt><trkpt lat="43.4530015" lon="10.9122738"><ele>294.0</ele><time>2026-04-18T09:38:39.413Z</time></trkpt><trkpt lat="43.4529036" lon="10.9122912"><ele>294.0</ele><time>2026-04-18T09:38:40.436Z</time></trkpt><trkpt lat="43.452812" lon="10.912303"><ele>293.59999999999997</ele><time>2026-04-18T09:38:41.416Z</time></trkpt><trkpt lat="43.4527198" lon="10.9123176"><ele>293.2</ele><time>2026-04-18T09:38:42.417Z</time></trkpt><trkpt lat="43.4526299" lon="10.9123063"><ele>292.79999999999995</ele><time>2026-04-18T09:38:43.42Z</time></trkpt><trkpt lat="43.4525448" lon="10.9122699"><ele>292.4</ele><time>2026-04-18T09:38:44.418Z</time></trkpt><trkpt lat="43.4524651" lon="10.9122124"><ele>292.0</ele><time>2026-04-18T09:38:45.411Z</time></trkpt><trkpt lat="43.4523833" lon="10.9121603"><ele>292.0</ele><time>2026-04-18T09:38:46.415Z</time></trkpt><trkpt lat="43.4522917" lon="10.9121201"><ele>292.0</ele><time>2026-04-18T09:38:47.419Z</time></trkpt><trkpt lat="43.4521963" lon="10.9120893"><ele>292.0</ele><time>2026-04-18T09:38:48.424Z</time></trkpt><trkpt lat="43.4520998" lon="10.9120732"><ele>292.0</ele><time>2026-04-18T09:38:49.422Z</time></trkpt><trkpt lat="43.4520028" lon="10.912066"><ele>292.0</ele><time>2026-04-18T09:38:50.42Z</time></trkpt><trkpt lat="43.4519007" lon="10.9120631"><ele>291.0</ele><time>2026-04-18T09:38:51.421Z</time></trkpt><trkpt lat="43.4517961" lon="10.9120597"><ele>290.0</ele><time>2026-04-18T09:38:52.409Z</time></trkpt><trkpt lat="43.4516915" lon="10.912058"><ele>289.0</ele><time>2026-04-18T09:38:53.456Z</time></trkpt><trkpt lat="43.4515938" lon="10.9120587"><ele>288.0</ele><time>2026-04-18T09:38:54.419Z</time></trkpt><trkpt lat="43.4515016" lon="10.9120414"><ele>287.0</ele><time>2026-04-18T09:38:55.423Z</time></trkpt><trkpt lat="43.4514217" lon="10.9120138"><ele>287.0</ele><time>2026-04-18T09:38:56.409Z</time></trkpt><trkpt lat="43.4513471" lon="10.9119881"><ele>287.0</ele><time>2026-04-18T09:38:57.432Z</time></trkpt><trkpt lat="43.4512752" lon="10.9119646"><ele>287.0</ele><time>2026-04-18T09:38:58.4Z</time></trkpt><trkpt lat="43.4512004" lon="10.911923"><ele>287.0</ele><time>2026-04-18T09:38:59.414Z</time></trkpt><trkpt lat="43.4511297" lon="10.9119037"><ele>287.0</ele><time>2026-04-18T09:39:00.414Z</time></trkpt><trkpt lat="43.451054" lon="10.9118979"><ele>287.0</ele><time>2026-04-18T09:39:01.425Z</time></trkpt><trkpt lat="43.4509787" lon="10.911921"><ele>286.2</ele><time>2026-04-18T09:39:02.407Z</time></trkpt><trkpt lat="43.45091" lon="10.9119498"><ele>285.4</ele><time>2026-04-18T09:39:03.414Z</time></trkpt><trkpt lat="43.4508" lon="10.9119632"><ele>284.6</ele><time>2026-04-18T09:39:05.418Z</time></trkpt><trkpt lat="43.450709" lon="10.9118925"><ele>283.8</ele><time>2026-04-18T09:39:07.41Z</time></trkpt><trkpt lat="43.4506378" lon="10.9117527"><ele>283.0</ele><time>2026-04-18T09:39:09.422Z</time></trkpt><trkpt lat="43.450589" lon="10.9116771"><ele>282.5</ele><time>2026-04-18T09:39:10.423Z</time></trkpt><trkpt lat="43.4505233" lon="10.9116122"><ele>282.0</ele><time>2026-04-18T09:39:11.423Z</time></trkpt><trkpt lat="43.4504501" lon="10.9115517"><ele>281.5</ele><time>2026-04-18T09:39:12.416Z</time></trkpt><trkpt lat="43.45037" lon="10.9114985"><ele>281.0</ele><time>2026-04-18T09:39:13.428Z</time></trkpt><trkpt lat="43.4502885" lon="10.9114408"><ele>280.5</ele><time>2026-04-18T09:39:14.419Z</time></trkpt><trkpt lat="43.4502072" lon="10.9113936"><ele>280.0</ele><time>2026-04-18T09:39:15.424Z</time></trkpt><trkpt lat="43.4501297" lon="10.9113482"><ele>279.6</ele><time>2026-04-18T09:39:16.423Z</time></trkpt><trkpt lat="43.4500411" lon="10.9113046"><ele>279.2</ele><time>2026-04-18T09:39:17.432Z</time></trkpt><trkpt lat="43.4499585" lon="10.9112563"><ele>278.8</ele><time>2026-04-18T09:39:18.414Z</time></trkpt><trkpt lat="43.449869" lon="10.9112027"><ele>278.4</ele><time>2026-04-18T09:39:19.41Z</time></trkpt><trkpt lat="43.4497818" lon="10.9111506"><ele>278.0</ele><time>2026-04-18T09:39:20.42Z</time></trkpt><trkpt lat="43.4496937" lon="10.9111048"><ele>277.0</ele><time>2026-04-18T09:39:21.417Z</time></trkpt><trkpt lat="43.4496024" lon="10.9110586"><ele>276.0</ele><time>2026-04-18T09:39:22.413Z</time></trkpt><trkpt lat="43.4495147" lon="10.9110106"><ele>275.0</ele><time>2026-04-18T09:39:23.421Z</time></trkpt><trkpt lat="43.4494251" lon="10.910957"><ele>274.0</ele><time>2026-04-18T09:39:24.396Z</time></trkpt><trkpt lat="43.44933" lon="10.9109105"><ele>273.0</ele><time>2026-04-18T09:39:25.411Z</time></trkpt><trkpt lat="43.4492292" lon="10.9108747"><ele>273.0</ele><time>2026-04-18T09:39:26.422Z</time></trkpt><trkpt lat="43.4491308" lon="10.9108355"><ele>273.0</ele><time>2026-04-18T09:39:27.42Z</time></trkpt><trkpt lat="43.4490354" lon="10.9107979"><ele>273.0</ele><time>2026-04-18T09:39:28.428Z</time></trkpt><trkpt lat="43.4489388" lon="10.9107732"><ele>273.0</ele><time>2026-04-18T09:39:29.415Z</time></trkpt><trkpt lat="43.4488439" lon="10.9107331"><ele>273.0</ele><time>2026-04-18T09:39:30.42Z</time></trkpt><trkpt lat="43.4487495" lon="10.9106913"><ele>272.8</ele><time>2026-04-18T09:39:31.426Z</time></trkpt><trkpt lat="43.448662" lon="10.9106308"><ele>272.6</ele><time>2026-04-18T09:39:32.407Z</time></trkpt><trkpt lat="43.4485801" lon="10.9105619"><ele>272.4</ele><time>2026-04-18T09:39:33.426Z</time></trkpt><trkpt lat="43.4485014" lon="10.9104933"><ele>272.2</ele><time>2026-04-18T09:39:34.418Z</time></trkpt><trkpt lat="43.4484226" lon="10.9104164"><ele>272.0</ele><time>2026-04-18T09:39:35.419Z</time></trkpt><trkpt lat="43.4483497" lon="10.9103432"><ele>272.0</ele><time>2026-04-18T09:39:36.412Z</time></trkpt><trkpt lat="43.4482653" lon="10.9102841"><ele>272.0</ele><time>2026-04-18T09:39:37.419Z</time></trkpt><trkpt lat="43.4481813" lon="10.9102226"><ele>272.0</ele><time>2026-04-18T09:39:38.428Z</time></trkpt><trkpt lat="43.4480921" lon="10.9101686"><ele>272.0</ele><time>2026-04-18T09:39:39.411Z</time></trkpt><trkpt lat="43.4479956" lon="10.9101119"><ele>272.0</ele><time>2026-04-18T09:39:40.41Z</time></trkpt><trkpt lat="43.4478913" lon="10.9100574"><ele>271.0</ele><time>2026-04-18T09:39:41.424Z</time></trkpt><trkpt lat="43.4477862" lon="10.9099979"><ele>270.0</ele><time>2026-04-18T09:39:42.418Z</time></trkpt><trkpt lat="43.4476814" lon="10.909945"><ele>269.0</ele><time>2026-04-18T09:39:43.418Z</time></trkpt><trkpt lat="43.4475811" lon="10.9098965"><ele>268.0</ele><time>2026-04-18T09:39:44.408Z</time></trkpt><trkpt lat="43.4474875" lon="10.9098354"><ele>267.0</ele><time>2026-04-18T09:39:45.426Z</time></trkpt><trkpt lat="43.4473942" lon="10.909778"><ele>267.0</ele><time>2026-04-18T09:39:46.422Z</time></trkpt><trkpt lat="43.4473036" lon="10.909712"><ele>267.0</ele><time>2026-04-18T09:39:47.419Z</time></trkpt><trkpt lat="43.4472119" lon="10.9096506"><ele>267.0</ele><time>2026-04-18T09:39:48.425Z</time></trkpt><trkpt lat="43.4471172" lon="10.9095976"><ele>267.0</ele><time>2026-04-18T09:39:49.426Z</time></trkpt><trkpt lat="43.4470138" lon="10.9095584"><ele>267.0</ele><time>2026-04-18T09:39:50.41Z</time></trkpt><trkpt lat="43.4469156" lon="10.9095223"><ele>266.0</ele><time>2026-04-18T09:39:51.411Z</time></trkpt><trkpt lat="43.4468231" lon="10.9094936"><ele>265.0</ele><time>2026-04-18T09:39:52.424Z</time></trkpt><trkpt lat="43.4467414" lon="10.9094654"><ele>264.0</ele><time>2026-04-18T09:39:53.41Z</time></trkpt><trkpt lat="43.4466716" lon="10.9094386"><ele>263.0</ele><time>2026-04-18T09:39:54.409Z</time></trkpt><trkpt lat="43.4466038" lon="10.9093995"><ele>262.0</ele><time>2026-04-18T09:39:55.428Z</time></trkpt><trkpt lat="43.4465333" lon="10.9093494"><ele>261.0</ele><time>2026-04-18T09:39:56.41Z</time></trkpt><trkpt lat="43.4464657" lon="10.9092835"><ele>260.40000000000003</ele><time>2026-04-18T09:39:57.443Z</time></trkpt><trkpt lat="43.446404" lon="10.9091871"><ele>259.8</ele><time>2026-04-18T09:39:58.41Z</time></trkpt><trkpt lat="43.4463523" lon="10.9090584"><ele>259.20000000000005</ele><time>2026-04-18T09:39:59.418Z</time></trkpt><trkpt lat="43.4463005" lon="10.9089277"><ele>258.6</ele><time>2026-04-18T09:40:00.416Z</time></trkpt><trkpt lat="43.4462508" lon="10.908799"><ele>258.0</ele><time>2026-04-18T09:40:01.404Z</time></trkpt><trkpt lat="43.4462046" lon="10.9086789"><ele>257.8</ele><time>2026-04-18T09:40:02.404Z</time></trkpt><trkpt lat="43.4461706" lon="10.9085545"><ele>257.6</ele><time>2026-04-18T09:40:03.405Z</time></trkpt><trkpt lat="43.4461353" lon="10.9084323"><ele>257.4</ele><time>2026-04-18T09:40:04.393Z</time></trkpt><trkpt lat="43.4461103" lon="10.9083131"><ele>257.2</ele><time>2026-04-18T09:40:05.398Z</time></trkpt><trkpt lat="43.4460811" lon="10.9081934"><ele>257.0</ele><time>2026-04-18T09:40:06.405Z</time></trkpt><trkpt lat="43.446041" lon="10.9080829"><ele>257.0</ele><time>2026-04-18T09:40:07.406Z</time></trkpt><trkpt lat="43.4459959" lon="10.9079599"><ele>257.0</ele><time>2026-04-18T09:40:08.39Z</time></trkpt><trkpt lat="43.4459508" lon="10.907834"><ele>257.0</ele><time>2026-04-18T09:40:09.403Z</time></trkpt><trkpt lat="43.4458912" lon="10.9077071"><ele>257.0</ele><time>2026-04-18T09:40:10.409Z</time></trkpt><trkpt lat="43.4458286" lon="10.9075963"><ele>257.0</ele><time>2026-04-18T09:40:11.408Z</time></trkpt><trkpt lat="43.4457678" lon="10.9074963"><ele>256.6</ele><time>2026-04-18T09:40:12.403Z</time></trkpt><trkpt lat="43.4457059" lon="10.9073963"><ele>256.2</ele><time>2026-04-18T09:40:13.412Z</time></trkpt><trkpt lat="43.4456413" lon="10.9072929"><ele>255.8</ele><time>2026-04-18T09:40:14.417Z</time></trkpt><trkpt lat="43.445573" lon="10.9071842"><ele>255.4</ele><time>2026-04-18T09:40:15.419Z</time></trkpt><trkpt lat="43.4455067" lon="10.9070756"><ele>255.0</ele><time>2026-04-18T09:40:16.412Z</time></trkpt><trkpt lat="43.4454406" lon="10.9069564"><ele>254.4</ele><time>2026-04-18T09:40:17.413Z</time></trkpt><trkpt lat="43.4453723" lon="10.9068325"><ele>253.8</ele><time>2026-04-18T09:40:18.4Z</time></trkpt><trkpt lat="43.4453018" lon="10.9067072"><ele>253.2</ele><time>2026-04-18T09:40:19.411Z</time></trkpt><trkpt lat="43.4452363" lon="10.9065833"><ele>252.6</ele><time>2026-04-18T09:40:20.413Z</time></trkpt><trkpt lat="43.4451665" lon="10.9064786"><ele>252.0</ele><time>2026-04-18T09:40:21.418Z</time></trkpt><trkpt lat="43.4451059" lon="10.9063968"><ele>252.0</ele><time>2026-04-18T09:40:22.414Z</time></trkpt><trkpt lat="43.4450439" lon="10.906323"><ele>252.0</ele><time>2026-04-18T09:40:23.41Z</time></trkpt><trkpt lat="43.4449905" lon="10.9062442"><ele>252.0</ele><time>2026-04-18T09:40:24.413Z</time></trkpt><trkpt lat="43.4449376" lon="10.9061738"><ele>252.0</ele><time>2026-04-18T09:40:25.412Z</time></trkpt><trkpt lat="43.4448901" lon="10.9061127"><ele>252.0</ele><time>2026-04-18T09:40:26.415Z</time></trkpt><trkpt lat="43.4448132" lon="10.9060095"><ele>252.0</ele><time>2026-04-18T09:40:28.422Z</time></trkpt><trkpt lat="43.4447362" lon="10.905901"><ele>251.39999999999998</ele><time>2026-04-18T09:40:30.414Z</time></trkpt><trkpt lat="43.4446564" lon="10.9057959"><ele>250.79999999999998</ele><time>2026-04-18T09:40:32.421Z</time></trkpt><trkpt lat="43.4445802" lon="10.905676"><ele>250.2</ele><time>2026-04-18T09:40:34.418Z</time></trkpt><trkpt lat="43.4445407" lon="10.905594"><ele>249.6</ele><time>2026-04-18T09:40:35.405Z</time></trkpt><trkpt lat="43.4445038" lon="10.9054982"><ele>249.0</ele><time>2026-04-18T09:40:36.414Z</time></trkpt><trkpt lat="43.444464" lon="10.9054053"><ele>248.83333333333334</ele><time>2026-04-18T09:40:37.427Z</time></trkpt><trkpt lat="43.4444204" lon="10.905307"><ele>248.66666666666669</ele><time>2026-04-18T09:40:38.418Z</time></trkpt><trkpt lat="43.4443766" lon="10.9052155"><ele>248.5</ele><time>2026-04-18T09:40:39.414Z</time></trkpt><trkpt lat="43.4443251" lon="10.9051244"><ele>248.33333333333334</ele><time>2026-04-18T09:40:40.426Z</time></trkpt><trkpt lat="43.4442728" lon="10.9050281"><ele>248.16666666666669</ele><time>2026-04-18T09:40:41.405Z</time></trkpt><trkpt lat="43.4442215" lon="10.9049477"><ele>248.0</ele><time>2026-04-18T09:40:42.411Z</time></trkpt><trkpt lat="43.4441656" lon="10.9048826"><ele>248.50000000000003</ele><time>2026-04-18T09:40:43.41Z</time></trkpt><trkpt lat="43.4441022" lon="10.9048188"><ele>249.0</ele><time>2026-04-18T09:40:44.423Z</time></trkpt><trkpt lat="43.4440416" lon="10.9047542"><ele>249.5</ele><time>2026-04-18T09:40:45.424Z</time></trkpt><trkpt lat="43.4439787" lon="10.9046891"><ele>250.0</ele><time>2026-04-18T09:40:46.419Z</time></trkpt><trkpt lat="43.4439096" lon="10.9046281"><ele>250.50000000000003</ele><time>2026-04-18T09:40:47.398Z</time></trkpt><trkpt lat="43.4438417" lon="10.9045663"><ele>251.0</ele><time>2026-04-18T09:40:48.423Z</time></trkpt><trkpt lat="43.4437654" lon="10.9045005"><ele>250.00000000000003</ele><time>2026-04-18T09:40:49.409Z</time></trkpt><trkpt lat="43.4436861" lon="10.9044314"><ele>249.0</ele><time>2026-04-18T09:40:50.412Z</time></trkpt><trkpt lat="43.4436111" lon="10.9043615"><ele>248.0</ele><time>2026-04-18T09:40:51.415Z</time></trkpt><trkpt lat="43.443537" lon="10.9042924"><ele>247.0</ele><time>2026-04-18T09:40:52.409Z</time></trkpt><trkpt lat="43.4434628" lon="10.9042256"><ele>246.00000000000003</ele><time>2026-04-18T09:40:53.429Z</time></trkpt><trkpt lat="43.4433929" lon="10.9041564"><ele>245.0</ele><time>2026-04-18T09:40:54.438Z</time></trkpt><trkpt lat="43.4433254" lon="10.9040988"><ele>245.00000000000003</ele><time>2026-04-18T09:40:55.418Z</time></trkpt><trkpt lat="43.4432535" lon="10.9040355"><ele>245.0</ele><time>2026-04-18T09:40:56.418Z</time></trkpt><trkpt lat="43.4431795" lon="10.9039731"><ele>245.0</ele><time>2026-04-18T09:40:57.415Z</time></trkpt><trkpt lat="43.4431007" lon="10.9039139"><ele>245.0</ele><time>2026-04-18T09:40:58.422Z</time></trkpt><trkpt lat="43.4430238" lon="10.9038511"><ele>245.00000000000003</ele><time>2026-04-18T09:40:59.43Z</time></trkpt><trkpt lat="43.4429479" lon="10.9037895"><ele>245.0</ele><time>2026-04-18T09:41:00.407Z</time></trkpt><trkpt lat="43.4428689" lon="10.9037255"><ele>245.16666666666669</ele><time>2026-04-18T09:41:01.413Z</time></trkpt><trkpt lat="43.4427914" lon="10.9036643"><ele>245.33333333333334</ele><time>2026-04-18T09:41:02.409Z</time></trkpt><trkpt lat="43.4427151" lon="10.9035966"><ele>245.5</ele><time>2026-04-18T09:41:03.425Z</time></trkpt><trkpt lat="43.4426432" lon="10.9035265"><ele>245.66666666666669</ele><time>2026-04-18T09:41:04.425Z</time></trkpt><trkpt lat="43.4425665" lon="10.9034612"><ele>245.83333333333334</ele><time>2026-04-18T09:41:05.414Z</time></trkpt><trkpt lat="43.4424904" lon="10.9033938"><ele>246.0</ele><time>2026-04-18T09:41:06.414Z</time></trkpt><trkpt lat="43.4424131" lon="10.903321"><ele>246.0</ele><time>2026-04-18T09:41:07.42Z</time></trkpt><trkpt lat="43.4423333" lon="10.9032407"><ele>246.00000000000003</ele><time>2026-04-18T09:41:08.417Z</time></trkpt><trkpt lat="43.4422537" lon="10.9031653"><ele>246.00000000000003</ele><time>2026-04-18T09:41:09.429Z</time></trkpt><trkpt lat="43.4421694" lon="10.9030869"><ele>246.0</ele><time>2026-04-18T09:41:10.411Z</time></trkpt><trkpt lat="43.4420826" lon="10.9030139"><ele>246.0</ele><time>2026-04-18T09:41:11.41Z</time></trkpt><trkpt lat="43.4419923" lon="10.9029461"><ele>245.60000000000002</ele><time>2026-04-18T09:41:12.42Z</time></trkpt><trkpt lat="43.4419026" lon="10.9028797"><ele>245.20000000000002</ele><time>2026-04-18T09:41:13.419Z</time></trkpt><trkpt lat="43.4418056" lon="10.9028134"><ele>244.79999999999998</ele><time>2026-04-18T09:41:14.418Z</time></trkpt><trkpt lat="43.4417111" lon="10.9027709"><ele>244.39999999999998</ele><time>2026-04-18T09:41:15.418Z</time></trkpt><trkpt lat="43.4416114" lon="10.9027334"><ele>244.0</ele><time>2026-04-18T09:41:16.417Z</time></trkpt><trkpt lat="43.4415079" lon="10.9027072"><ele>244.0</ele><time>2026-04-18T09:41:17.413Z</time></trkpt><trkpt lat="43.4414" lon="10.9026801"><ele>243.99999999999997</ele><time>2026-04-18T09:41:18.416Z</time></trkpt><trkpt lat="43.4412936" lon="10.902672"><ele>243.99999999999997</ele><time>2026-04-18T09:41:19.436Z</time></trkpt><trkpt lat="43.441191" lon="10.9026754"><ele>244.0</ele><time>2026-04-18T09:41:20.43Z</time></trkpt><trkpt lat="43.4410824" lon="10.9026654"><ele>244.0</ele><time>2026-04-18T09:41:21.408Z</time></trkpt><trkpt lat="43.4409776" lon="10.9026566"><ele>243.6</ele><time>2026-04-18T09:41:22.414Z</time></trkpt><trkpt lat="43.4408718" lon="10.9026343"><ele>243.2</ele><time>2026-04-18T09:41:23.415Z</time></trkpt><trkpt lat="43.440772" lon="10.9025998"><ele>242.79999999999998</ele><time>2026-04-18T09:41:24.412Z</time></trkpt><trkpt lat="43.4406716" lon="10.9025566"><ele>242.39999999999998</ele><time>2026-04-18T09:41:25.427Z</time></trkpt><trkpt lat="43.440577" lon="10.9025084"><ele>242.0</ele><time>2026-04-18T09:41:26.416Z</time></trkpt><trkpt lat="43.4404774" lon="10.9024489"><ele>244.39999999999998</ele><time>2026-04-18T09:41:27.418Z</time></trkpt><trkpt lat="43.4403797" lon="10.9023772"><ele>246.79999999999998</ele><time>2026-04-18T09:41:28.42Z</time></trkpt><trkpt lat="43.4402885" lon="10.9023014"><ele>249.2</ele><time>2026-04-18T09:41:29.416Z</time></trkpt><trkpt lat="43.4402047" lon="10.9022206"><ele>251.6</ele><time>2026-04-18T09:41:30.424Z</time></trkpt><trkpt lat="43.440139" lon="10.9021148"><ele>254.0</ele><time>2026-04-18T09:41:31.426Z</time></trkpt><trkpt lat="43.4400742" lon="10.9020074"><ele>254.0</ele><time>2026-04-18T09:41:32.418Z</time></trkpt><trkpt lat="43.4400176" lon="10.9018934"><ele>253.99999999999997</ele><time>2026-04-18T09:41:33.416Z</time></trkpt><trkpt lat="43.4399595" lon="10.9017838"><ele>253.99999999999997</ele><time>2026-04-18T09:41:34.407Z</time></trkpt><trkpt lat="43.4398977" lon="10.9016651"><ele>254.0</ele><time>2026-04-18T09:41:35.411Z</time></trkpt><trkpt lat="43.4398392" lon="10.9015598"><ele>254.0</ele><time>2026-04-18T09:41:36.411Z</time></trkpt><trkpt lat="43.439779" lon="10.9014488"><ele>253.2</ele><time>2026-04-18T09:41:37.411Z</time></trkpt><trkpt lat="43.4397256" lon="10.9013314"><ele>252.39999999999998</ele><time>2026-04-18T09:41:38.415Z</time></trkpt><trkpt lat="43.4396819" lon="10.9012191"><ele>251.6</ele><time>2026-04-18T09:41:39.414Z</time></trkpt><trkpt lat="43.4396545" lon="10.9010929"><ele>250.8</ele><time>2026-04-18T09:41:40.413Z</time></trkpt><trkpt lat="43.4396444" lon="10.9009601"><ele>250.0</ele><time>2026-04-18T09:41:41.416Z</time></trkpt><trkpt lat="43.4396414" lon="10.9008273"><ele>249.49999999999997</ele><time>2026-04-18T09:41:42.414Z</time></trkpt><trkpt lat="43.4396394" lon="10.900694"><ele>249.0</ele><time>2026-04-18T09:41:43.413Z</time></trkpt><trkpt lat="43.4396431" lon="10.9005721"><ele>248.5</ele><time>2026-04-18T09:41:44.409Z</time></trkpt><trkpt lat="43.439644" lon="10.9004517"><ele>248.0</ele><time>2026-04-18T09:41:45.415Z</time></trkpt><trkpt lat="43.4396607" lon="10.900342"><ele>247.49999999999997</ele><time>2026-04-18T09:41:46.427Z</time></trkpt><trkpt lat="43.4396714" lon="10.9002441"><ele>247.0</ele><time>2026-04-18T09:41:47.412Z</time></trkpt><trkpt lat="43.4396785" lon="10.9000707"><ele>246.99999999999997</ele><time>2026-04-18T09:41:49.414Z</time></trkpt><trkpt lat="43.4396773" lon="10.8999698"><ele>247.0</ele><time>2026-04-18T09:41:50.415Z</time></trkpt><trkpt lat="43.4396706" lon="10.8998558"><ele>247.0</ele><time>2026-04-18T09:41:51.415Z</time></trkpt><trkpt lat="43.4396523" lon="10.8997489"><ele>247.0</ele><time>2026-04-18T09:41:52.41Z</time></trkpt><trkpt lat="43.4396274" lon="10.8996572"><ele>246.99999999999997</ele><time>2026-04-18T09:41:53.404Z</time></trkpt><trkpt lat="43.4395967" lon="10.8995758"><ele>247.0</ele><time>2026-04-18T09:41:54.426Z</time></trkpt><trkpt lat="43.4395369" lon="10.8994688"><ele>247.8</ele><time>2026-04-18T09:41:56.41Z</time></trkpt><trkpt lat="43.4394625" lon="10.8993855"><ele>248.6</ele><time>2026-04-18T09:41:59.407Z</time></trkpt><trkpt lat="43.4393778" lon="10.8993241"><ele>249.40000000000003</ele><time>2026-04-18T09:42:01.419Z</time></trkpt><trkpt lat="43.4392878" lon="10.8992297"><ele>250.20000000000002</ele><time>2026-04-18T09:42:03.411Z</time></trkpt><trkpt lat="43.4392159" lon="10.8991226"><ele>251.0</ele><time>2026-04-18T09:42:05.428Z</time></trkpt><trkpt lat="43.4391188" lon="10.8990157"><ele>251.00000000000003</ele><time>2026-04-18T09:42:07.432Z</time></trkpt><trkpt lat="43.4390637" lon="10.8989477"><ele>251.0</ele><time>2026-04-18T09:42:08.411Z</time></trkpt><trkpt lat="43.4390086" lon="10.8988884"><ele>251.0</ele><time>2026-04-18T09:42:09.409Z</time></trkpt><trkpt lat="43.4389539" lon="10.8988198"><ele>251.0</ele><time>2026-04-18T09:42:10.421Z</time></trkpt><trkpt lat="43.4388951" lon="10.898749"><ele>251.00000000000003</ele><time>2026-04-18T09:42:11.424Z</time></trkpt><trkpt lat="43.4388461" lon="10.8986677"><ele>251.0</ele><time>2026-04-18T09:42:12.417Z</time></trkpt><trkpt lat="43.4388004" lon="10.8985719"><ele>250.66666666666669</ele><time>2026-04-18T09:42:13.428Z</time></trkpt><trkpt lat="43.4387669" lon="10.8984711"><ele>250.33333333333334</ele><time>2026-04-18T09:42:14.417Z</time></trkpt><trkpt lat="43.4387478" lon="10.8983767"><ele>250.0</ele><time>2026-04-18T09:42:15.422Z</time></trkpt><trkpt lat="43.438732" lon="10.8982895"><ele>249.66666666666669</ele><time>2026-04-18T09:42:16.414Z</time></trkpt><trkpt lat="43.4386859" lon="10.8981275"><ele>249.33333333333334</ele><time>2026-04-18T09:42:18.425Z</time></trkpt><trkpt lat="43.4386617" lon="10.8980431"><ele>249.0</ele><time>2026-04-18T09:42:19.41Z</time></trkpt><trkpt lat="43.4386329" lon="10.8979627"><ele>248.66666666666666</ele><time>2026-04-18T09:42:20.415Z</time></trkpt><trkpt lat="43.4385971" lon="10.8978913"><ele>248.33333333333331</ele><time>2026-04-18T09:42:21.411Z</time></trkpt><trkpt lat="43.4385094" lon="10.8977635"><ele>248.0</ele><time>2026-04-18T09:42:23.404Z</time></trkpt><trkpt lat="43.4384701" lon="10.8976863"><ele>247.66666666666666</ele><time>2026-04-18T09:42:24.427Z</time></trkpt><trkpt lat="43.4384395" lon="10.8976036"><ele>247.33333333333331</ele><time>2026-04-18T09:42:25.424Z</time></trkpt><trkpt lat="43.438407" lon="10.8974502"><ele>247.0</ele><time>2026-04-18T09:42:27.419Z</time></trkpt><trkpt lat="43.4383865" lon="10.8973573"><ele>245.39999999999998</ele><time>2026-04-18T09:42:28.42Z</time></trkpt><trkpt lat="43.4383801" lon="10.89726"><ele>243.79999999999998</ele><time>2026-04-18T09:42:29.428Z</time></trkpt><trkpt lat="43.4383716" lon="10.8971712"><ele>242.2</ele><time>2026-04-18T09:42:30.417Z</time></trkpt><trkpt lat="43.438354" lon="10.8970077"><ele>240.6</ele><time>2026-04-18T09:42:32.422Z</time></trkpt><trkpt lat="43.4383232" lon="10.8968434"><ele>239.0</ele><time>2026-04-18T09:42:34.406Z</time></trkpt><trkpt lat="43.4382824" lon="10.8966872"><ele>237.83333333333334</ele><time>2026-04-18T09:42:36.426Z</time></trkpt><trkpt lat="43.4382541" lon="10.8966035"><ele>236.66666666666669</ele><time>2026-04-18T09:42:37.426Z</time></trkpt><trkpt lat="43.4382295" lon="10.8965157"><ele>235.5</ele><time>2026-04-18T09:42:38.421Z</time></trkpt><trkpt lat="43.438208" lon="10.8964287"><ele>234.33333333333331</ele><time>2026-04-18T09:42:39.425Z</time></trkpt><trkpt lat="43.4381932" lon="10.8963377"><ele>233.16666666666666</ele><time>2026-04-18T09:42:40.423Z</time></trkpt><trkpt lat="43.4381883" lon="10.8961875"><ele>232.0</ele><time>2026-04-18T09:42:42.404Z</time></trkpt><trkpt lat="43.4382076" lon="10.896071"><ele>231.99999999999997</ele><time>2026-04-18T09:42:44.417Z</time></trkpt><trkpt lat="43.4382178" lon="10.8959569"><ele>232.0</ele><time>2026-04-18T09:42:46.425Z</time></trkpt><trkpt lat="43.4382053" lon="10.8958437"><ele>232.0</ele><time>2026-04-18T09:42:48.423Z</time></trkpt><trkpt lat="43.4381715" lon="10.8957592"><ele>232.0</ele><time>2026-04-18T09:42:50.436Z</time></trkpt><trkpt lat="43.438111" lon="10.8956882"><ele>231.99999999999997</ele><time>2026-04-18T09:42:52.428Z</time></trkpt><trkpt lat="43.4380515" lon="10.8956059"><ele>232.0</ele><time>2026-04-18T09:42:54.415Z</time></trkpt><trkpt lat="43.4379923" lon="10.8955496"><ele>231.5714285714286</ele><time>2026-04-18T09:42:57.413Z</time></trkpt><trkpt lat="43.4379301" lon="10.8954995"><ele>231.14285714285717</ele><time>2026-04-18T09:43:00.421Z</time></trkpt><trkpt lat="43.4378888" lon="10.8954338"><ele>230.71428571428572</ele><time>2026-04-18T09:43:03.408Z</time></trkpt><trkpt lat="43.4378544" lon="10.8953556"><ele>230.2857142857143</ele><time>2026-04-18T09:43:17.416Z</time></trkpt><trkpt lat="43.4378024" lon="10.8952831"><ele>229.8571428571429</ele><time>2026-04-18T09:43:50.403Z</time></trkpt><trkpt lat="43.4377782" lon="10.89519"><ele>229.42857142857142</ele><time>2026-04-18T09:43:56.404Z</time></trkpt><trkpt lat="43.4377614" lon="10.8951062"><ele>229.0</ele><time>2026-04-18T09:44:00.418Z</time></trkpt><trkpt lat="43.4377446" lon="10.8949736"><ele>228.66666666666666</ele><time>2026-04-18T09:44:07.403Z</time></trkpt><trkpt lat="43.43771" lon="10.8948806"><ele>228.33333333333331</ele><time>2026-04-18T09:44:09.406Z</time></trkpt><trkpt lat="43.4376427" lon="10.8948246"><ele>228.0</ele><time>2026-04-18T09:44:11.406Z</time></trkpt><trkpt lat="43.43761" lon="10.8947473"><ele>227.66666666666669</ele><time>2026-04-18T09:44:14.409Z</time></trkpt><trkpt lat="43.437579" lon="10.8946522"><ele>227.33333333333334</ele><time>2026-04-18T09:44:19.402Z</time></trkpt><trkpt lat="43.4375786" lon="10.8945478"><ele>227.0</ele><time>2026-04-18T09:44:33.406Z</time></trkpt><trkpt lat="43.4375247" lon="10.8944578"><ele>227.0</ele><time>2026-04-18T09:44:36.403Z</time></trkpt><trkpt lat="43.4374681" lon="10.8944105"><ele>227.0</ele><time>2026-04-18T09:45:33.925Z</time></trkpt><trkpt lat="43.4374086" lon="10.8943439"><ele>227.0</ele><time>2026-04-18T09:45:41.061Z</time></trkpt><trkpt lat="43.411517" lon="10.8802381"><ele>227.0</ele><time>2026-04-18T09:45:42.651Z</time></trkpt><trkpt lat="43.4114508" lon="10.8802233"><ele>227.0</ele><time>2026-04-18T09:45:52.842Z</time></trkpt><trkpt lat="43.4374641" lon="10.8944102"><ele>218.0</ele><time>2026-04-18T09:46:02.582Z</time></trkpt><trkpt lat="43.4364172" lon="10.8939202"><ele>218.0</ele><time>2026-04-18T09:46:53.388Z</time></trkpt><trkpt lat="43.4363823" lon="10.8938465"><ele>218.0</ele><time>2026-04-18T09:46:57.409Z</time></trkpt><trkpt lat="43.4363092" lon="10.8938249"><ele>218.0</ele><time>2026-04-18T09:47:03.44Z</time></trkpt><trkpt lat="43.4362419" lon="10.8937945"><ele>218.0</ele><time>2026-04-18T09:47:08.399Z</time></trkpt><trkpt lat="43.4361781" lon="10.8937419"><ele>218.0</ele><time>2026-04-18T09:47:13.405Z</time></trkpt><trkpt lat="43.436112" lon="10.8937067"><ele>218.0</ele><time>2026-04-18T09:47:18.41Z</time></trkpt><trkpt lat="43.4360491" lon="10.8936673"><ele>218.0</ele><time>2026-04-18T09:47:23.21Z</time></trkpt><trkpt lat="43.4359968" lon="10.8936091"><ele>218.0</ele><time>2026-04-18T09:47:28.233Z</time></trkpt><trkpt lat="43.4359406" lon="10.8935342"><ele>218.0</ele><time>2026-04-18T09:47:33.448Z</time></trkpt><trkpt lat="43.4358794" lon="10.8934674"><ele>218.0</ele><time>2026-04-18T09:47:38.711Z</time></trkpt><trkpt lat="43.4358271" lon="10.8934109"><ele>218.0</ele><time>2026-04-18T09:47:43.611Z</time></trkpt><trkpt lat="43.435883" lon="10.8934702"><ele>218.0</ele><time>2026-04-18T09:47:44.613Z</time></trkpt><trkpt lat="43.4347637" lon="10.8916149"><ele>217.33333333333334</ele><time>2026-04-18T09:48:31.409Z</time></trkpt><trkpt lat="43.4346474" lon="10.8915521"><ele>216.66666666666669</ele><time>2026-04-18T09:48:33.406Z</time></trkpt><trkpt lat="43.4345843" lon="10.8915593"><ele>216.0</ele><time>2026-04-18T09:48:34.405Z</time></trkpt><trkpt lat="43.4345244" lon="10.8916095"><ele>215.33333333333331</ele><time>2026-04-18T09:48:35.437Z</time></trkpt><trkpt lat="43.4344792" lon="10.8917087"><ele>214.66666666666666</ele><time>2026-04-18T09:48:36.434Z</time></trkpt><trkpt lat="43.434442" lon="10.8918332"><ele>214.0</ele><time>2026-04-18T09:48:37.411Z</time></trkpt><trkpt lat="43.4344119" lon="10.8919565"><ele>211.16666666666666</ele><time>2026-04-18T09:48:38.415Z</time></trkpt><trkpt lat="43.4344036" lon="10.8920712"><ele>208.33333333333331</ele><time>2026-04-18T09:48:39.423Z</time></trkpt><trkpt lat="43.4344155" lon="10.89218"><ele>205.5</ele><time>2026-04-18T09:48:40.455Z</time></trkpt><trkpt lat="43.4344422" lon="10.8922877"><ele>202.66666666666669</ele><time>2026-04-18T09:48:41.435Z</time></trkpt><trkpt lat="43.4344798" lon="10.8923865"><ele>199.83333333333334</ele><time>2026-04-18T09:48:42.405Z</time></trkpt><trkpt lat="43.4345195" lon="10.8924897"><ele>197.0</ele><time>2026-04-18T09:48:43.435Z</time></trkpt><trkpt lat="43.4345602" lon="10.8925907"><ele>195.83333333333334</ele><time>2026-04-18T09:48:44.438Z</time></trkpt><trkpt lat="43.4346068" lon="10.8926849"><ele>194.66666666666669</ele><time>2026-04-18T09:48:45.436Z</time></trkpt><trkpt lat="43.4346487" lon="10.8927775"><ele>193.5</ele><time>2026-04-18T09:48:46.43Z</time></trkpt><trkpt lat="43.4346823" lon="10.8928778"><ele>192.33333333333334</ele><time>2026-04-18T09:48:47.451Z</time></trkpt><trkpt lat="43.4346986" lon="10.8929869"><ele>191.16666666666669</ele><time>2026-04-18T09:48:48.392Z</time></trkpt><trkpt lat="43.4347004" lon="10.8931005"><ele>190.0</ele><time>2026-04-18T09:48:49.4Z</time></trkpt><trkpt lat="43.4346982" lon="10.8932074"><ele>190.83333333333334</ele><time>2026-04-18T09:48:50.396Z</time></trkpt><trkpt lat="43.434693" lon="10.893311"><ele>191.66666666666669</ele><time>2026-04-18T09:48:51.393Z</time></trkpt><trkpt lat="43.4346979" lon="10.8934154"><ele>192.5</ele><time>2026-04-18T09:48:52.405Z</time></trkpt><trkpt lat="43.4347013" lon="10.8935144"><ele>193.33333333333334</ele><time>2026-04-18T09:48:53.394Z</time></trkpt><trkpt lat="43.434715" lon="10.8936214"><ele>194.16666666666666</ele><time>2026-04-18T09:48:54.409Z</time></trkpt><trkpt lat="43.4347356" lon="10.8937252"><ele>195.0</ele><time>2026-04-18T09:48:55.403Z</time></trkpt><trkpt lat="43.4347441" lon="10.8938229"><ele>195.0</ele><time>2026-04-18T09:48:56.412Z</time></trkpt><trkpt lat="43.4347036" lon="10.8939335"><ele>195.0</ele><time>2026-04-18T09:48:58.405Z</time></trkpt><trkpt lat="43.4346102" lon="10.8939375"><ele>195.0</ele><time>2026-04-18T09:49:00.422Z</time></trkpt><trkpt lat="43.4345184" lon="10.8938576"><ele>195.0</ele><time>2026-04-18T09:49:02.408Z</time></trkpt><trkpt lat="43.4344426" lon="10.8937457"><ele>195.0</ele><time>2026-04-18T09:49:04.407Z</time></trkpt><trkpt lat="43.4343544" lon="10.8935956"><ele>193.75</ele><time>2026-04-18T09:49:06.42Z</time></trkpt><trkpt lat="43.4342213" lon="10.8934519"><ele>192.5</ele><time>2026-04-18T09:49:08.412Z</time></trkpt><trkpt lat="43.4341436" lon="10.8933927"><ele>191.25</ele><time>2026-04-18T09:49:09.415Z</time></trkpt><trkpt lat="43.4340575" lon="10.8933348"><ele>190.0</ele><time>2026-04-18T09:49:10.405Z</time></trkpt><trkpt lat="43.433963" lon="10.8932718"><ele>190.0</ele><time>2026-04-18T09:49:11.411Z</time></trkpt><trkpt lat="43.4338674" lon="10.8932168"><ele>190.0</ele><time>2026-04-18T09:49:12.412Z</time></trkpt><trkpt lat="43.4337752" lon="10.8931553"><ele>190.0</ele><time>2026-04-18T09:49:13.409Z</time></trkpt><trkpt lat="43.4336814" lon="10.8930838"><ele>190.0</ele><time>2026-04-18T09:49:14.423Z</time></trkpt><trkpt lat="43.4335934" lon="10.8930041"><ele>190.0</ele><time>2026-04-18T09:49:15.408Z</time></trkpt><trkpt lat="43.4335108" lon="10.8929121"><ele>178.0</ele><time>2026-04-18T09:49:16.416Z</time></trkpt><trkpt lat="43.4334323" lon="10.8928219"><ele>178.0</ele><time>2026-04-18T09:49:17.413Z</time></trkpt><trkpt lat="43.4333602" lon="10.892742"><ele>178.0</ele><time>2026-04-18T09:49:18.41Z</time></trkpt><trkpt lat="43.4332932" lon="10.8926797"><ele>178.0</ele><time>2026-04-18T09:49:19.403Z</time></trkpt><trkpt lat="43.4332279" lon="10.8926465"><ele>178.0</ele><time>2026-04-18T09:49:20.405Z</time></trkpt></trkseg><trkseg><trkpt lat="43.4173211" lon="10.9735855"><ele>486.0</ele><time>2026-04-18T10:10:12.41Z</time></trkpt><trkpt lat="43.4172352" lon="10.9734099"><ele>486.0</ele><time>2026-04-18T10:10:14.405Z</time></trkpt><trkpt lat="43.4171954" lon="10.9733323"><ele>486.0</ele><time>2026-04-18T10:10:15.409Z</time></trkpt><trkpt lat="43.4171547" lon="10.9732371"><ele>486.0</ele><time>2026-04-18T10:10:16.418Z</time></trkpt><trkpt lat="43.4171191" lon="10.9731467"><ele>486.0</ele><time>2026-04-18T10:10:17.409Z</time></trkpt><trkpt lat="43.4170841" lon="10.973047"><ele>482.66666666666663</ele><time>2026-04-18T10:10:18.4Z</time></trkpt><trkpt lat="43.4170454" lon="10.9729329"><ele>479.3333333333333</ele><time>2026-04-18T10:10:19.414Z</time></trkpt><trkpt lat="43.4169671" lon="10.9726318"><ele>476.0</ele><time>2026-04-18T10:10:21.405Z</time></trkpt><trkpt lat="43.4169219" lon="10.9724696"><ele>475.8</ele><time>2026-04-18T10:10:22.413Z</time></trkpt><trkpt lat="43.4168826" lon="10.9723093"><ele>475.6</ele><time>2026-04-18T10:10:23.408Z</time></trkpt><trkpt lat="43.416846" lon="10.9721658"><ele>475.4</ele><time>2026-04-18T10:10:24.418Z</time></trkpt><trkpt lat="43.4168082" lon="10.9720235"><ele>475.2</ele><time>2026-04-18T10:10:25.396Z</time></trkpt><trkpt lat="43.4167698" lon="10.9718942"><ele>475.0</ele><time>2026-04-18T10:10:26.405Z</time></trkpt><trkpt lat="43.4167276" lon="10.9717727"><ele>475.6</ele><time>2026-04-18T10:10:27.398Z</time></trkpt><trkpt lat="43.4166848" lon="10.9716601"><ele>476.2</ele><time>2026-04-18T10:10:28.402Z</time></trkpt><trkpt lat="43.4166433" lon="10.9715476"><ele>476.79999999999995</ele><time>2026-04-18T10:10:29.409Z</time></trkpt><trkpt lat="43.4165963" lon="10.9714227"><ele>477.4</ele><time>2026-04-18T10:10:30.413Z</time></trkpt><trkpt lat="43.4165428" lon="10.9713024"><ele>478.0</ele><time>2026-04-18T10:10:31.414Z</time></trkpt><trkpt lat="43.4164903" lon="10.9711872"><ele>478.0</ele><time>2026-04-18T10:10:32.407Z</time></trkpt><trkpt lat="43.4164333" lon="10.9710726"><ele>477.99999999999994</ele><time>2026-04-18T10:10:33.412Z</time></trkpt><trkpt lat="43.4163749" lon="10.970958"><ele>477.99999999999994</ele><time>2026-04-18T10:10:34.406Z</time></trkpt><trkpt lat="43.4163151" lon="10.9708437"><ele>478.0</ele><time>2026-04-18T10:10:35.423Z</time></trkpt><trkpt lat="43.4162478" lon="10.9707331"><ele>478.0</ele><time>2026-04-18T10:10:36.412Z</time></trkpt><trkpt lat="43.4161848" lon="10.9706149"><ele>478.79999999999995</ele><time>2026-04-18T10:10:37.394Z</time></trkpt><trkpt lat="43.4161192" lon="10.9704943"><ele>479.59999999999997</ele><time>2026-04-18T10:10:38.403Z</time></trkpt><trkpt lat="43.4160472" lon="10.9703723"><ele>480.40000000000003</ele><time>2026-04-18T10:10:39.407Z</time></trkpt><trkpt lat="43.4159824" lon="10.9702558"><ele>481.20000000000005</ele><time>2026-04-18T10:10:40.4Z</time></trkpt><trkpt lat="43.4159173" lon="10.970141"><ele>482.0</ele><time>2026-04-18T10:10:41.418Z</time></trkpt><trkpt lat="43.4158458" lon="10.9700328"><ele>481.5</ele><time>2026-04-18T10:10:42.409Z</time></trkpt><trkpt lat="43.4157811" lon="10.9699075"><ele>481.0</ele><time>2026-04-18T10:10:43.394Z</time></trkpt><trkpt lat="43.4157149" lon="10.9697743"><ele>480.5</ele><time>2026-04-18T10:10:44.412Z</time></trkpt><trkpt lat="43.4156467" lon="10.9696472"><ele>480.0</ele><time>2026-04-18T10:10:45.409Z</time></trkpt><trkpt lat="43.415582" lon="10.9695171"><ele>480.0</ele><time>2026-04-18T10:10:46.403Z</time></trkpt><trkpt lat="43.4155357" lon="10.969393"><ele>480.0</ele><time>2026-04-18T10:10:47.419Z</time></trkpt><trkpt lat="43.4155086" lon="10.9692511"><ele>480.0</ele><time>2026-04-18T10:10:48.401Z</time></trkpt><trkpt lat="43.4154886" lon="10.9691057"><ele>480.0</ele><time>2026-04-18T10:10:49.403Z</time></trkpt><trkpt lat="43.4154851" lon="10.9689579"><ele>480.0</ele><time>2026-04-18T10:10:50.401Z</time></trkpt><trkpt lat="43.4154789" lon="10.968798"><ele>480.25</ele><time>2026-04-18T10:10:51.403Z</time></trkpt><trkpt lat="43.4154808" lon="10.9686221"><ele>480.5</ele><time>2026-04-18T10:10:52.4Z</time></trkpt><trkpt lat="43.4154795" lon="10.96845"><ele>480.75</ele><time>2026-04-18T10:10:53.406Z</time></trkpt><trkpt lat="43.4154867" lon="10.9682737"><ele>481.0</ele><time>2026-04-18T10:10:54.409Z</time></trkpt><trkpt lat="43.4155" lon="10.9681123"><ele>481.6</ele><time>2026-04-18T10:10:55.409Z</time></trkpt><trkpt lat="43.4155126" lon="10.9679602"><ele>482.20000000000005</ele><time>2026-04-18T10:10:56.406Z</time></trkpt><trkpt lat="43.4155235" lon="10.9678195"><ele>482.79999999999995</ele><time>2026-04-18T10:10:57.406Z</time></trkpt><trkpt lat="43.4155337" lon="10.9676785"><ele>483.4</ele><time>2026-04-18T10:10:58.408Z</time></trkpt><trkpt lat="43.415545" lon="10.9675322"><ele>484.0</ele><time>2026-04-18T10:10:59.414Z</time></trkpt><trkpt lat="43.4155552" lon="10.967379"><ele>484.0</ele><time>2026-04-18T10:11:00.404Z</time></trkpt><trkpt lat="43.4155613" lon="10.967224"><ele>484.0</ele><time>2026-04-18T10:11:01.412Z</time></trkpt><trkpt lat="43.4155744" lon="10.9670767"><ele>484.0</ele><time>2026-04-18T10:11:02.404Z</time></trkpt><trkpt lat="43.4155886" lon="10.966929"><ele>484.0</ele><time>2026-04-18T10:11:03.412Z</time></trkpt><trkpt lat="43.4156065" lon="10.9667831"><ele>484.0</ele><time>2026-04-18T10:11:04.408Z</time></trkpt><trkpt lat="43.4156206" lon="10.9666433"><ele>485.4</ele><time>2026-04-18T10:11:05.406Z</time></trkpt><trkpt lat="43.4156375" lon="10.9664953"><ele>486.79999999999995</ele><time>2026-04-18T10:11:06.416Z</time></trkpt><trkpt lat="43.4156473" lon="10.9663569"><ele>488.20000000000005</ele><time>2026-04-18T10:11:07.413Z</time></trkpt><trkpt lat="43.4156519" lon="10.9662343"><ele>489.6</ele><time>2026-04-18T10:11:08.413Z</time></trkpt><trkpt lat="43.415652" lon="10.9661081"><ele>491.0</ele><time>2026-04-18T10:11:09.406Z</time></trkpt><trkpt lat="43.4156395" lon="10.9659889"><ele>491.0</ele><time>2026-04-18T10:11:10.406Z</time></trkpt><trkpt lat="43.4156225" lon="10.9658658"><ele>491.0</ele><time>2026-04-18T10:11:11.421Z</time></trkpt><trkpt lat="43.415604" lon="10.9657413"><ele>491.0</ele><time>2026-04-18T10:11:12.422Z</time></trkpt><trkpt lat="43.4155996" lon="10.965613"><ele>491.0</ele><time>2026-04-18T10:11:13.412Z</time></trkpt><trkpt lat="43.4156045" lon="10.9654717"><ele>491.0</ele><time>2026-04-18T10:11:14.409Z</time></trkpt><trkpt lat="43.4156164" lon="10.9653317"><ele>491.4285714285714</ele><time>2026-04-18T10:11:15.406Z</time></trkpt><trkpt lat="43.4156287" lon="10.9652153"><ele>491.8571428571428</ele><time>2026-04-18T10:11:16.421Z</time></trkpt><trkpt lat="43.4156474" lon="10.9651203"><ele>492.2857142857143</ele><time>2026-04-18T10:11:17.409Z</time></trkpt><trkpt lat="43.4156652" lon="10.9650275"><ele>492.71428571428567</ele><time>2026-04-18T10:11:18.407Z</time></trkpt><trkpt lat="43.415688" lon="10.9649325"><ele>493.1428571428571</ele><time>2026-04-18T10:11:19.422Z</time></trkpt><trkpt lat="43.4157078" lon="10.9648415"><ele>493.57142857142856</ele><time>2026-04-18T10:11:20.411Z</time></trkpt><trkpt lat="43.4157231" lon="10.9647556"><ele>494.0</ele><time>2026-04-18T10:11:21.408Z</time></trkpt><trkpt lat="43.4156972" lon="10.9645969"><ele>493.66666666666663</ele><time>2026-04-18T10:11:23.411Z</time></trkpt><trkpt lat="43.4156643" lon="10.9645053"><ele>493.3333333333333</ele><time>2026-04-18T10:11:24.402Z</time></trkpt><trkpt lat="43.4156109" lon="10.9644027"><ele>493.0</ele><time>2026-04-18T10:11:25.42Z</time></trkpt><trkpt lat="43.4155538" lon="10.9643015"><ele>492.66666666666663</ele><time>2026-04-18T10:11:26.407Z</time></trkpt><trkpt lat="43.415495" lon="10.9642127"><ele>492.3333333333333</ele><time>2026-04-18T10:11:27.414Z</time></trkpt><trkpt lat="43.4154305" lon="10.9641317"><ele>492.0</ele><time>2026-04-18T10:11:28.42Z</time></trkpt><trkpt lat="43.415366" lon="10.9640633"><ele>492.0</ele><time>2026-04-18T10:11:29.415Z</time></trkpt><trkpt lat="43.4153091" lon="10.9640075"><ele>492.00000000000006</ele><time>2026-04-18T10:11:30.407Z</time></trkpt><trkpt lat="43.4151971" lon="10.9639502"><ele>492.00000000000006</ele><time>2026-04-18T10:11:32.41Z</time></trkpt><trkpt lat="43.4150936" lon="10.963883"><ele>492.0</ele><time>2026-04-18T10:11:34.404Z</time></trkpt><trkpt lat="43.4150238" lon="10.9637912"><ele>492.0</ele><time>2026-04-18T10:11:36.403Z</time></trkpt><trkpt lat="43.4149196" lon="10.963687"><ele>492.0</ele><time>2026-04-18T10:11:38.407Z</time></trkpt><trkpt lat="43.4148493" lon="10.9636473"><ele>492.0</ele><time>2026-04-18T10:11:39.426Z</time></trkpt><trkpt lat="43.4147673" lon="10.9636086"><ele>492.0</ele><time>2026-04-18T10:11:40.407Z</time></trkpt><trkpt lat="43.4146921" lon="10.9635794"><ele>492.0</ele><time>2026-04-18T10:11:41.41Z</time></trkpt><trkpt lat="43.4146165" lon="10.9635459"><ele>492.0</ele><time>2026-04-18T10:11:42.413Z</time></trkpt><trkpt lat="43.414546" lon="10.9635237"><ele>492.0</ele><time>2026-04-18T10:11:43.404Z</time></trkpt><trkpt lat="43.4144815" lon="10.9634977"><ele>489.6</ele><time>2026-04-18T10:11:44.401Z</time></trkpt><trkpt lat="43.4143618" lon="10.9634555"><ele>487.20000000000005</ele><time>2026-04-18T10:11:46.401Z</time></trkpt><trkpt lat="43.4142476" lon="10.9634181"><ele>484.8</ele><time>2026-04-18T10:11:48.413Z</time></trkpt><trkpt lat="43.4141629" lon="10.9633645"><ele>482.4</ele><time>2026-04-18T10:11:50.407Z</time></trkpt><trkpt lat="43.4140845" lon="10.9632773"><ele>480.0</ele><time>2026-04-18T10:11:52.414Z</time></trkpt><trkpt lat="43.4140321" lon="10.9631297"><ele>480.0</ele><time>2026-04-18T10:11:54.422Z</time></trkpt><trkpt lat="43.4139941" lon="10.9629925"><ele>480.0</ele><time>2026-04-18T10:11:56.404Z</time></trkpt><trkpt lat="43.4139538" lon="10.9628895"><ele>480.0</ele><time>2026-04-18T10:11:58.403Z</time></trkpt><trkpt lat="43.4138646" lon="10.9628325"><ele>480.0</ele><time>2026-04-18T10:12:00.403Z</time></trkpt><trkpt lat="43.4137583" lon="10.9628633"><ele>480.0</ele><time>2026-04-18T10:12:02.398Z</time></trkpt><trkpt lat="43.4136473" lon="10.9629719"><ele>478.0</ele><time>2026-04-18T10:12:04.391Z</time></trkpt><trkpt lat="43.4135819" lon="10.9630336"><ele>476.0</ele><time>2026-04-18T10:12:05.397Z</time></trkpt><trkpt lat="43.4135123" lon="10.9630891"><ele>474.0</ele><time>2026-04-18T10:12:06.4Z</time></trkpt><trkpt lat="43.4134388" lon="10.9631267"><ele>472.0</ele><time>2026-04-18T10:12:07.41Z</time></trkpt><trkpt lat="43.4133579" lon="10.9631592"><ele>470.0</ele><time>2026-04-18T10:12:08.413Z</time></trkpt><trkpt lat="43.4132789" lon="10.9631706"><ele>468.0</ele><time>2026-04-18T10:12:09.401Z</time></trkpt><trkpt lat="43.4132035" lon="10.9631729"><ele>468.0</ele><time>2026-04-18T10:12:10.393Z</time></trkpt><trkpt lat="43.413127" lon="10.9631535"><ele>468.0</ele><time>2026-04-18T10:12:11.395Z</time></trkpt><trkpt lat="43.4130583" lon="10.9631146"><ele>468.0</ele><time>2026-04-18T10:12:12.401Z</time></trkpt><trkpt lat="43.4129896" lon="10.9630247"><ele>468.0</ele><time>2026-04-18T10:12:13.408Z</time></trkpt><trkpt lat="43.4129266" lon="10.9629145"><ele>468.0</ele><time>2026-04-18T10:12:14.401Z</time></trkpt><trkpt lat="43.4128702" lon="10.9628253"><ele>468.0</ele><time>2026-04-18T10:12:15.403Z</time></trkpt><trkpt lat="43.4128198" lon="10.962753"><ele>464.79999999999995</ele><time>2026-04-18T10:12:16.402Z</time></trkpt><trkpt lat="43.412735" lon="10.9626368"><ele>461.59999999999997</ele><time>2026-04-18T10:12:18.402Z</time></trkpt><trkpt lat="43.4126845" lon="10.9625111"><ele>458.40000000000003</ele><time>2026-04-18T10:12:20.408Z</time></trkpt><trkpt lat="43.4126659" lon="10.962398"><ele>455.20000000000005</ele><time>2026-04-18T10:12:22.418Z</time></trkpt><trkpt lat="43.4126736" lon="10.9622558"><ele>452.0</ele><time>2026-04-18T10:12:24.401Z</time></trkpt><trkpt lat="43.4127127" lon="10.9620907"><ele>451.6</ele><time>2026-04-18T10:12:26.42Z</time></trkpt><trkpt lat="43.4127291" lon="10.9619931"><ele>451.20000000000005</ele><time>2026-04-18T10:12:27.405Z</time></trkpt><trkpt lat="43.4127514" lon="10.9618712"><ele>450.8</ele><time>2026-04-18T10:12:28.393Z</time></trkpt><trkpt lat="43.4127747" lon="10.9617507"><ele>450.4</ele><time>2026-04-18T10:12:29.404Z</time></trkpt><trkpt lat="43.4127958" lon="10.9616121"><ele>450.0</ele><time>2026-04-18T10:12:30.405Z</time></trkpt><trkpt lat="43.4128139" lon="10.9614767"><ele>449.1666666666667</ele><time>2026-04-18T10:12:31.404Z</time></trkpt><trkpt lat="43.4128363" lon="10.9613392"><ele>448.33333333333337</ele><time>2026-04-18T10:12:32.409Z</time></trkpt><trkpt lat="43.412827" lon="10.9612123"><ele>447.5</ele><time>2026-04-18T10:12:33.405Z</time></trkpt><trkpt lat="43.412812" lon="10.9611133"><ele>446.6666666666667</ele><time>2026-04-18T10:12:34.405Z</time></trkpt><trkpt lat="43.4127949" lon="10.9610151"><ele>445.83333333333337</ele><time>2026-04-18T10:12:35.408Z</time></trkpt><trkpt lat="43.4127765" lon="10.9609179"><ele>445.0</ele><time>2026-04-18T10:12:36.415Z</time></trkpt><trkpt lat="43.4127593" lon="10.9608223"><ele>441.75</ele><time>2026-04-18T10:12:37.391Z</time></trkpt><trkpt lat="43.4127324" lon="10.960657"><ele>438.5</ele><time>2026-04-18T10:12:39.399Z</time></trkpt><trkpt lat="43.4127198" lon="10.9604898"><ele>435.25</ele><time>2026-04-18T10:12:41.397Z</time></trkpt><trkpt lat="43.4127215" lon="10.9603229"><ele>432.0</ele><time>2026-04-18T10:12:43.413Z</time></trkpt><trkpt lat="43.4127441" lon="10.9601698"><ele>430.0</ele><time>2026-04-18T10:12:45.428Z</time></trkpt><trkpt lat="43.4127991" lon="10.9600297"><ele>428.00000000000006</ele><time>2026-04-18T10:12:47.425Z</time></trkpt><trkpt lat="43.4128405" lon="10.9599052"><ele>426.0</ele><time>2026-04-18T10:12:49.418Z</time></trkpt><trkpt lat="43.4128771" lon="10.9597613"><ele>424.0</ele><time>2026-04-18T10:12:51.419Z</time></trkpt><trkpt lat="43.4129164" lon="10.9596537"><ele>422.0</ele><time>2026-04-18T10:12:53.411Z</time></trkpt><trkpt lat="43.4129354" lon="10.959549"><ele>422.0</ele><time>2026-04-18T10:12:55.405Z</time></trkpt><trkpt lat="43.4129521" lon="10.959451"><ele>422.0</ele><time>2026-04-18T10:12:57.405Z</time></trkpt><trkpt lat="43.4129758" lon="10.9593569"><ele>422.0</ele><time>2026-04-18T10:12:59.409Z</time></trkpt><trkpt lat="43.4129974" lon="10.9592586"><ele>422.0</ele><time>2026-04-18T10:13:01.413Z</time></trkpt><trkpt lat="43.4130023" lon="10.9591651"><ele>422.0</ele><time>2026-04-18T10:13:02.395Z</time></trkpt><trkpt lat="43.412984" lon="10.9590666"><ele>422.0</ele><time>2026-04-18T10:13:03.402Z</time></trkpt><trkpt lat="43.4129595" lon="10.9589635"><ele>422.0</ele><time>2026-04-18T10:13:04.417Z</time></trkpt><trkpt lat="43.412942" lon="10.9588713"><ele>420.3333333333333</ele><time>2026-04-18T10:13:05.412Z</time></trkpt><trkpt lat="43.4129162" lon="10.9587664"><ele>418.66666666666663</ele><time>2026-04-18T10:13:06.409Z</time></trkpt><trkpt lat="43.4128935" lon="10.9586641"><ele>417.0</ele><time>2026-04-18T10:13:07.417Z</time></trkpt><trkpt lat="43.4128679" lon="10.9585521"><ele>415.33333333333337</ele><time>2026-04-18T10:13:08.41Z</time></trkpt><trkpt lat="43.4128404" lon="10.9584333"><ele>413.6666666666667</ele><time>2026-04-18T10:13:09.4Z</time></trkpt><trkpt lat="43.4128065" lon="10.9583059"><ele>412.0</ele><time>2026-04-18T10:13:10.411Z</time></trkpt><trkpt lat="43.4127777" lon="10.9581813"><ele>410.40000000000003</ele><time>2026-04-18T10:13:11.417Z</time></trkpt><trkpt lat="43.4127475" lon="10.9580498"><ele>408.8</ele><time>2026-04-18T10:13:12.411Z</time></trkpt><trkpt lat="43.4127094" lon="10.9579033"><ele>407.2</ele><time>2026-04-18T10:13:13.408Z</time></trkpt><trkpt lat="43.4126678" lon="10.9577616"><ele>405.6</ele><time>2026-04-18T10:13:14.402Z</time></trkpt><trkpt lat="43.41263" lon="10.9576239"><ele>404.0</ele><time>2026-04-18T10:13:15.42Z</time></trkpt><trkpt lat="43.41259" lon="10.9574927"><ele>402.3333333333333</ele><time>2026-04-18T10:13:16.393Z</time></trkpt><trkpt lat="43.4125558" lon="10.9573706"><ele>400.66666666666663</ele><time>2026-04-18T10:13:17.413Z</time></trkpt><trkpt lat="43.4125216" lon="10.9572499"><ele>399.0</ele><time>2026-04-18T10:13:18.424Z</time></trkpt><trkpt lat="43.4124891" lon="10.9571376"><ele>397.33333333333337</ele><time>2026-04-18T10:13:19.413Z</time></trkpt><trkpt lat="43.4124621" lon="10.9570392"><ele>395.6666666666667</ele><time>2026-04-18T10:13:20.404Z</time></trkpt><trkpt lat="43.4124375" lon="10.956946"><ele>394.0</ele><time>2026-04-18T10:13:21.418Z</time></trkpt><trkpt lat="43.4124131" lon="10.9568607"><ele>394.0</ele><time>2026-04-18T10:13:22.406Z</time></trkpt><trkpt lat="43.412388" lon="10.9567722"><ele>394.0</ele><time>2026-04-18T10:13:23.425Z</time></trkpt><trkpt lat="43.4123653" lon="10.956687"><ele>394.0</ele><time>2026-04-18T10:13:24.41Z</time></trkpt><trkpt lat="43.412368" lon="10.956527"><ele>394.0</ele><time>2026-04-18T10:13:26.406Z</time></trkpt><trkpt lat="43.4123979" lon="10.956345"><ele>394.0</ele><time>2026-04-18T10:13:28.401Z</time></trkpt><trkpt lat="43.4124124" lon="10.9562552"><ele>393.1666666666667</ele><time>2026-04-18T10:13:29.415Z</time></trkpt><trkpt lat="43.4124137" lon="10.9561509"><ele>392.33333333333337</ele><time>2026-04-18T10:13:30.399Z</time></trkpt><trkpt lat="43.412399" lon="10.9560491"><ele>391.5</ele><time>2026-04-18T10:13:31.415Z</time></trkpt><trkpt lat="43.4123732" lon="10.9559571"><ele>390.66666666666663</ele><time>2026-04-18T10:13:32.417Z</time></trkpt><trkpt lat="43.4123333" lon="10.9558826"><ele>389.8333333333333</ele><time>2026-04-18T10:13:33.405Z</time></trkpt><trkpt lat="43.412279" lon="10.9558245"><ele>389.0</ele><time>2026-04-18T10:13:34.407Z</time></trkpt><trkpt lat="43.4121841" lon="10.955723"><ele>388.99999999999994</ele><time>2026-04-18T10:13:36.402Z</time></trkpt><trkpt lat="43.4121085" lon="10.9556588"><ele>389.0</ele><time>2026-04-18T10:13:38.401Z</time></trkpt><trkpt lat="43.412076" lon="10.9555835"><ele>389.0</ele><time>2026-04-18T10:13:40.404Z</time></trkpt><trkpt lat="43.4120717" lon="10.9554906"><ele>389.0</ele><time>2026-04-18T10:13:42.378Z</time></trkpt><trkpt lat="43.4120835" lon="10.9553847"><ele>388.99999999999994</ele><time>2026-04-18T10:13:44.4Z</time></trkpt><trkpt lat="43.4120897" lon="10.9552517"><ele>389.0</ele><time>2026-04-18T10:13:46.394Z</time></trkpt><trkpt lat="43.4120867" lon="10.955093"><ele>391.25</ele><time>2026-04-18T10:13:48.398Z</time></trkpt><trkpt lat="43.4120543" lon="10.9549358"><ele>393.5</ele><time>2026-04-18T10:13:50.396Z</time></trkpt><trkpt lat="43.4119925" lon="10.954791"><ele>395.75</ele><time>2026-04-18T10:13:52.391Z</time></trkpt><trkpt lat="43.4119487" lon="10.9546337"><ele>398.0</ele><time>2026-04-18T10:13:54.4Z</time></trkpt><trkpt lat="43.4119421" lon="10.9544774"><ele>397.99999999999994</ele><time>2026-04-18T10:13:56.393Z</time></trkpt><trkpt lat="43.4119357" lon="10.9543771"><ele>398.0</ele><time>2026-04-18T10:13:57.408Z</time></trkpt><trkpt lat="43.4119239" lon="10.9542472"><ele>398.0</ele><time>2026-04-18T10:13:58.393Z</time></trkpt><trkpt lat="43.4119181" lon="10.9541136"><ele>398.0</ele><time>2026-04-18T10:13:59.416Z</time></trkpt><trkpt lat="43.4119136" lon="10.9539793"><ele>397.99999999999994</ele><time>2026-04-18T10:14:00.416Z</time></trkpt><trkpt lat="43.4119105" lon="10.9538625"><ele>398.0</ele><time>2026-04-18T10:14:01.416Z</time></trkpt><trkpt lat="43.4119065" lon="10.9537538"><ele>398.3333333333333</ele><time>2026-04-18T10:14:02.395Z</time></trkpt><trkpt lat="43.4118991" lon="10.9536504"><ele>398.66666666666663</ele><time>2026-04-18T10:14:03.417Z</time></trkpt><trkpt lat="43.4118929" lon="10.9535438"><ele>399.0</ele><time>2026-04-18T10:14:04.431Z</time></trkpt><trkpt lat="43.4118802" lon="10.9534367"><ele>399.33333333333337</ele><time>2026-04-18T10:14:05.416Z</time></trkpt><trkpt lat="43.4118672" lon="10.9533259"><ele>399.6666666666667</ele><time>2026-04-18T10:14:06.421Z</time></trkpt><trkpt lat="43.4118603" lon="10.9532111"><ele>400.0</ele><time>2026-04-18T10:14:07.404Z</time></trkpt><trkpt lat="43.4118535" lon="10.9530887"><ele>401.00000000000006</ele><time>2026-04-18T10:14:08.399Z</time></trkpt><trkpt lat="43.4118485" lon="10.9529667"><ele>402.0</ele><time>2026-04-18T10:14:09.426Z</time></trkpt><trkpt lat="43.411834" lon="10.9528379"><ele>403.0</ele><time>2026-04-18T10:14:10.411Z</time></trkpt><trkpt lat="43.4118264" lon="10.9527145"><ele>404.0</ele><time>2026-04-18T10:14:11.42Z</time></trkpt><trkpt lat="43.4118205" lon="10.9525953"><ele>405.00000000000006</ele><time>2026-04-18T10:14:12.412Z</time></trkpt><trkpt lat="43.4118099" lon="10.9524788"><ele>406.0</ele><time>2026-04-18T10:14:13.411Z</time></trkpt><trkpt lat="43.4118039" lon="10.9523599"><ele>407.00000000000006</ele><time>2026-04-18T10:14:14.4Z</time></trkpt><trkpt lat="43.4117935" lon="10.9522395"><ele>408.0</ele><time>2026-04-18T10:14:15.401Z</time></trkpt><trkpt lat="43.4117869" lon="10.9521255"><ele>409.0</ele><time>2026-04-18T10:14:16.421Z</time></trkpt><trkpt lat="43.4117835" lon="10.9520192"><ele>410.0</ele><time>2026-04-18T10:14:17.418Z</time></trkpt><trkpt lat="43.4117706" lon="10.9519079"><ele>411.00000000000006</ele><time>2026-04-18T10:14:18.416Z</time></trkpt><trkpt lat="43.4117594" lon="10.9517954"><ele>412.0</ele><time>2026-04-18T10:14:19.425Z</time></trkpt><trkpt lat="43.4117479" lon="10.9516819"><ele>412.6666666666667</ele><time>2026-04-18T10:14:20.419Z</time></trkpt><trkpt lat="43.4117348" lon="10.9515602"><ele>413.33333333333337</ele><time>2026-04-18T10:14:21.418Z</time></trkpt><trkpt lat="43.4117244" lon="10.9514406"><ele>414.0</ele><time>2026-04-18T10:14:22.409Z</time></trkpt><trkpt lat="43.4117136" lon="10.9513101"><ele>414.66666666666663</ele><time>2026-04-18T10:14:23.416Z</time></trkpt><trkpt lat="43.4117045" lon="10.9511914"><ele>415.3333333333333</ele><time>2026-04-18T10:14:24.428Z</time></trkpt><trkpt lat="43.4116979" lon="10.9510753"><ele>416.0</ele><time>2026-04-18T10:14:25.426Z</time></trkpt><trkpt lat="43.4116938" lon="10.9509584"><ele>416.8</ele><time>2026-04-18T10:14:26.405Z</time></trkpt><trkpt lat="43.4116881" lon="10.9508407"><ele>417.6</ele><time>2026-04-18T10:14:27.404Z</time></trkpt><trkpt lat="43.4116829" lon="10.9507148"><ele>418.4</ele><time>2026-04-18T10:14:28.401Z</time></trkpt><trkpt lat="43.411666" lon="10.9505708"><ele>419.2</ele><time>2026-04-18T10:14:29.425Z</time></trkpt><trkpt lat="43.4116516" lon="10.9504218"><ele>420.0</ele><time>2026-04-18T10:14:30.425Z</time></trkpt><trkpt lat="43.41163" lon="10.9502827"><ele>420.0</ele><time>2026-04-18T10:14:31.42Z</time></trkpt><trkpt lat="43.4116102" lon="10.9501512"><ele>420.0</ele><time>2026-04-18T10:14:32.424Z</time></trkpt><trkpt lat="43.4115884" lon="10.9500236"><ele>420.0</ele><time>2026-04-18T10:14:33.417Z</time></trkpt><trkpt lat="43.4115711" lon="10.9499031"><ele>420.0</ele><time>2026-04-18T10:14:34.406Z</time></trkpt><trkpt lat="43.4115502" lon="10.94979"><ele>420.0</ele><time>2026-04-18T10:14:35.424Z</time></trkpt><trkpt lat="43.4115296" lon="10.9496897"><ele>420.0</ele><time>2026-04-18T10:14:36.42Z</time></trkpt><trkpt lat="43.4115073" lon="10.9495914"><ele>420.0</ele><time>2026-04-18T10:14:37.408Z</time></trkpt><trkpt lat="43.4114777" lon="10.9494837"><ele>420.0</ele><time>2026-04-18T10:14:38.417Z</time></trkpt><trkpt lat="43.4114399" lon="10.9493772"><ele>420.0</ele><time>2026-04-18T10:14:39.41Z</time></trkpt><trkpt lat="43.4113951" lon="10.9492806"><ele>420.0</ele><time>2026-04-18T10:14:40.408Z</time></trkpt><trkpt lat="43.4113507" lon="10.9491929"><ele>420.0</ele><time>2026-04-18T10:14:41.418Z</time></trkpt><trkpt lat="43.4113007" lon="10.9491157"><ele>420.0</ele><time>2026-04-18T10:14:42.407Z</time></trkpt><trkpt lat="43.4112476" lon="10.9490515"><ele>420.0</ele><time>2026-04-18T10:14:43.422Z</time></trkpt><trkpt lat="43.4111888" lon="10.9490138"><ele>420.0</ele><time>2026-04-18T10:14:44.407Z</time></trkpt><trkpt lat="43.4110916" lon="10.9489378"><ele>420.0</ele><time>2026-04-18T10:14:46.402Z</time></trkpt><trkpt lat="43.4110443" lon="10.948872"><ele>420.0</ele><time>2026-04-18T10:14:47.412Z</time></trkpt><trkpt lat="43.4110104" lon="10.9487916"><ele>420.0</ele><time>2026-04-18T10:14:48.407Z</time></trkpt><trkpt lat="43.4109956" lon="10.94869"><ele>420.0</ele><time>2026-04-18T10:14:49.4Z</time></trkpt><trkpt lat="43.4109854" lon="10.9485893"><ele>420.0</ele><time>2026-04-18T10:14:50.411Z</time></trkpt><trkpt lat="43.410977" lon="10.9484879"><ele>420.0</ele><time>2026-04-18T10:14:51.413Z</time></trkpt><trkpt lat="43.4109664" lon="10.9483739"><ele>420.0</ele><time>2026-04-18T10:14:52.4Z</time></trkpt><trkpt lat="43.4109557" lon="10.9482662"><ele>420.0</ele><time>2026-04-18T10:14:53.409Z</time></trkpt><trkpt lat="43.410944" lon="10.9481529"><ele>420.0</ele><time>2026-04-18T10:14:54.413Z</time></trkpt><trkpt lat="43.4109306" lon="10.9480436"><ele>420.0</ele><time>2026-04-18T10:14:55.403Z</time></trkpt><trkpt lat="43.4109189" lon="10.9479207"><ele>419.7142857142857</ele><time>2026-04-18T10:14:56.415Z</time></trkpt><trkpt lat="43.4109093" lon="10.947816"><ele>419.42857142857144</ele><time>2026-04-18T10:14:57.424Z</time></trkpt><trkpt lat="43.4109179" lon="10.9477162"><ele>419.1428571428571</ele><time>2026-04-18T10:14:58.425Z</time></trkpt><trkpt lat="43.4109275" lon="10.947626"><ele>418.8571428571429</ele><time>2026-04-18T10:14:59.401Z</time></trkpt><trkpt lat="43.4109388" lon="10.9475379"><ele>418.57142857142856</ele><time>2026-04-18T10:15:00.41Z</time></trkpt><trkpt lat="43.4109492" lon="10.9474453"><ele>418.2857142857143</ele><time>2026-04-18T10:15:01.41Z</time></trkpt><trkpt lat="43.4109667" lon="10.9473618"><ele>418.0</ele><time>2026-04-18T10:15:02.413Z</time></trkpt><trkpt lat="43.4109862" lon="10.9472695"><ele>418.57142857142856</ele><time>2026-04-18T10:15:03.406Z</time></trkpt><trkpt lat="43.4109992" lon="10.9471678"><ele>419.1428571428571</ele><time>2026-04-18T10:15:04.404Z</time></trkpt><trkpt lat="43.4109966" lon="10.9470585"><ele>419.7142857142857</ele><time>2026-04-18T10:15:05.411Z</time></trkpt><trkpt lat="43.4110042" lon="10.9469616"><ele>420.2857142857143</ele><time>2026-04-18T10:15:06.409Z</time></trkpt><trkpt lat="43.4110154" lon="10.9468638"><ele>420.8571428571429</ele><time>2026-04-18T10:15:07.413Z</time></trkpt><trkpt lat="43.4110225" lon="10.9467708"><ele>421.42857142857144</ele><time>2026-04-18T10:15:08.422Z</time></trkpt><trkpt lat="43.4110272" lon="10.9466832"><ele>422.0</ele><time>2026-04-18T10:15:09.42Z</time></trkpt><trkpt lat="43.4110318" lon="10.9465902"><ele>422.66666666666663</ele><time>2026-04-18T10:15:10.419Z</time></trkpt><trkpt lat="43.4110362" lon="10.9464949"><ele>423.3333333333333</ele><time>2026-04-18T10:15:11.411Z</time></trkpt><trkpt lat="43.4110422" lon="10.9463889"><ele>424.0</ele><time>2026-04-18T10:15:12.417Z</time></trkpt><trkpt lat="43.411051" lon="10.9462884"><ele>424.66666666666663</ele><time>2026-04-18T10:15:13.416Z</time></trkpt><trkpt lat="43.4110538" lon="10.9461874"><ele>425.3333333333333</ele><time>2026-04-18T10:15:14.425Z</time></trkpt><trkpt lat="43.4110573" lon="10.9460815"><ele>426.0</ele><time>2026-04-18T10:15:15.427Z</time></trkpt><trkpt lat="43.4110582" lon="10.9459718"><ele>426.1666666666667</ele><time>2026-04-18T10:15:16.408Z</time></trkpt><trkpt lat="43.4110629" lon="10.9458676"><ele>426.33333333333337</ele><time>2026-04-18T10:15:17.438Z</time></trkpt><trkpt lat="43.4110634" lon="10.9457626"><ele>426.5</ele><time>2026-04-18T10:15:18.412Z</time></trkpt><trkpt lat="43.4110583" lon="10.9456682"><ele>426.6666666666667</ele><time>2026-04-18T10:15:19.403Z</time></trkpt><trkpt lat="43.4110535" lon="10.9455682"><ele>426.83333333333337</ele><time>2026-04-18T10:15:20.415Z</time></trkpt><trkpt lat="43.4110358" lon="10.945462"><ele>427.0</ele><time>2026-04-18T10:15:21.416Z</time></trkpt><trkpt lat="43.4110244" lon="10.9453551"><ele>427.00000000000006</ele><time>2026-04-18T10:15:22.397Z</time></trkpt><trkpt lat="43.4110104" lon="10.9452427"><ele>427.0</ele><time>2026-04-18T10:15:23.409Z</time></trkpt><trkpt lat="43.4109987" lon="10.9451443"><ele>427.0</ele><time>2026-04-18T10:15:24.422Z</time></trkpt><trkpt lat="43.4109884" lon="10.9450474"><ele>427.0</ele><time>2026-04-18T10:15:25.421Z</time></trkpt><trkpt lat="43.4109828" lon="10.9449543"><ele>427.00000000000006</ele><time>2026-04-18T10:15:26.4Z</time></trkpt><trkpt lat="43.4109694" lon="10.9448485"><ele>427.0</ele><time>2026-04-18T10:15:27.405Z</time></trkpt><trkpt lat="43.4109544" lon="10.9447422"><ele>426.83333333333337</ele><time>2026-04-18T10:15:28.411Z</time></trkpt><trkpt lat="43.4109417" lon="10.9446251"><ele>426.6666666666667</ele><time>2026-04-18T10:15:29.435Z</time></trkpt><trkpt lat="43.410936" lon="10.9445069"><ele>426.5</ele><time>2026-04-18T10:15:30.409Z</time></trkpt><trkpt lat="43.4109417" lon="10.9443978"><ele>426.33333333333337</ele><time>2026-04-18T10:15:31.422Z</time></trkpt><trkpt lat="43.4109426" lon="10.9442951"><ele>426.1666666666667</ele><time>2026-04-18T10:15:32.417Z</time></trkpt><trkpt lat="43.4109401" lon="10.9441824"><ele>426.0</ele><time>2026-04-18T10:15:33.413Z</time></trkpt><trkpt lat="43.4109332" lon="10.9440656"><ele>425.57142857142856</ele><time>2026-04-18T10:15:34.415Z</time></trkpt><trkpt lat="43.4109295" lon="10.9439631"><ele>425.1428571428571</ele><time>2026-04-18T10:15:35.419Z</time></trkpt><trkpt lat="43.4109262" lon="10.9438536"><ele>424.71428571428567</ele><time>2026-04-18T10:15:36.412Z</time></trkpt><trkpt lat="43.4109249" lon="10.9437564"><ele>424.2857142857143</ele><time>2026-04-18T10:15:37.425Z</time></trkpt><trkpt lat="43.4109165" lon="10.9436644"><ele>423.8571428571429</ele><time>2026-04-18T10:15:38.418Z</time></trkpt><trkpt lat="43.410908" lon="10.9435671"><ele>423.4285714285714</ele><time>2026-04-18T10:15:39.412Z</time></trkpt><trkpt lat="43.4109009" lon="10.9434799"><ele>423.0</ele><time>2026-04-18T10:15:40.409Z</time></trkpt><trkpt lat="43.4109026" lon="10.943388"><ele>423.0</ele><time>2026-04-18T10:15:41.412Z</time></trkpt><trkpt lat="43.4109007" lon="10.9432911"><ele>423.0</ele><time>2026-04-18T10:15:42.416Z</time></trkpt><trkpt lat="43.4108942" lon="10.9431991"><ele>423.0</ele><time>2026-04-18T10:15:43.421Z</time></trkpt><trkpt lat="43.410874" lon="10.9430907"><ele>423.0</ele><time>2026-04-18T10:15:44.414Z</time></trkpt><trkpt lat="43.4108528" lon="10.9429611"><ele>423.0</ele><time>2026-04-18T10:15:45.393Z</time></trkpt><trkpt lat="43.41083" lon="10.9427863"><ele>423.0</ele><time>2026-04-18T10:15:46.398Z</time></trkpt><trkpt lat="43.4107915" lon="10.9426386"><ele>422.0</ele><time>2026-04-18T10:15:47.417Z</time></trkpt><trkpt lat="43.41075" lon="10.9425062"><ele>421.0</ele><time>2026-04-18T10:15:48.414Z</time></trkpt><trkpt lat="43.4106916" lon="10.9423759"><ele>420.0</ele><time>2026-04-18T10:15:49.405Z</time></trkpt><trkpt lat="43.4106364" lon="10.9422495"><ele>419.0</ele><time>2026-04-18T10:15:50.406Z</time></trkpt><trkpt lat="43.4105886" lon="10.9421215"><ele>418.0</ele><time>2026-04-18T10:15:51.406Z</time></trkpt><trkpt lat="43.4105458" lon="10.9420008"><ele>418.0</ele><time>2026-04-18T10:15:52.411Z</time></trkpt><trkpt lat="43.4105035" lon="10.9418717"><ele>418.0</ele><time>2026-04-18T10:15:53.397Z</time></trkpt><trkpt lat="43.410468" lon="10.9417313"><ele>418.0</ele><time>2026-04-18T10:15:54.403Z</time></trkpt><trkpt lat="43.4104312" lon="10.9415791"><ele>418.0</ele><time>2026-04-18T10:15:55.407Z</time></trkpt><trkpt lat="43.4103962" lon="10.9414227"><ele>418.0</ele><time>2026-04-18T10:15:56.4Z</time></trkpt><trkpt lat="43.410358" lon="10.9412895"><ele>415.4</ele><time>2026-04-18T10:15:57.399Z</time></trkpt><trkpt lat="43.410327" lon="10.9411784"><ele>412.79999999999995</ele><time>2026-04-18T10:15:58.404Z</time></trkpt><trkpt lat="43.4103015" lon="10.9410763"><ele>410.2</ele><time>2026-04-18T10:15:59.412Z</time></trkpt><trkpt lat="43.4102733" lon="10.9409141"><ele>407.6</ele><time>2026-04-18T10:16:01.424Z</time></trkpt><trkpt lat="43.4102959" lon="10.9407758"><ele>405.0</ele><time>2026-04-18T10:16:03.405Z</time></trkpt><trkpt lat="43.4103834" lon="10.9406728"><ele>404.6666666666667</ele><time>2026-04-18T10:16:05.4Z</time></trkpt><trkpt lat="43.410439" lon="10.9406229"><ele>404.33333333333337</ele><time>2026-04-18T10:16:06.4Z</time></trkpt><trkpt lat="43.4105042" lon="10.9405937"><ele>404.0</ele><time>2026-04-18T10:16:07.421Z</time></trkpt><trkpt lat="43.4105698" lon="10.940584"><ele>403.6666666666667</ele><time>2026-04-18T10:16:08.428Z</time></trkpt><trkpt lat="43.4106606" lon="10.9405083"><ele>403.33333333333337</ele><time>2026-04-18T10:16:10.407Z</time></trkpt><trkpt lat="43.4106866" lon="10.9403328"><ele>403.0</ele><time>2026-04-18T10:16:12.416Z</time></trkpt><trkpt lat="43.4106811" lon="10.9402386"><ele>403.0</ele><time>2026-04-18T10:16:13.404Z</time></trkpt><trkpt lat="43.410664" lon="10.940129"><ele>403.0</ele><time>2026-04-18T10:16:14.417Z</time></trkpt><trkpt lat="43.4106525" lon="10.9400008"><ele>403.0</ele><time>2026-04-18T10:16:15.412Z</time></trkpt><trkpt lat="43.4106411" lon="10.9398604"><ele>403.0</ele><time>2026-04-18T10:16:16.393Z</time></trkpt><trkpt lat="43.4106383" lon="10.9397168"><ele>403.0</ele><time>2026-04-18T10:16:17.405Z</time></trkpt><trkpt lat="43.410634" lon="10.9395834"><ele>402.00000000000006</ele><time>2026-04-18T10:16:18.407Z</time></trkpt><trkpt lat="43.4106353" lon="10.9394644"><ele>401.0</ele><time>2026-04-18T10:16:19.422Z</time></trkpt><trkpt lat="43.4106334" lon="10.9393632"><ele>400.0</ele><time>2026-04-18T10:16:20.41Z</time></trkpt><trkpt lat="43.4106342" lon="10.9392764"><ele>399.0</ele><time>2026-04-18T10:16:21.416Z</time></trkpt><trkpt lat="43.4106458" lon="10.9391896"><ele>398.00000000000006</ele><time>2026-04-18T10:16:22.413Z</time></trkpt><trkpt lat="43.4106574" lon="10.9390989"><ele>397.0</ele><time>2026-04-18T10:16:23.405Z</time></trkpt><trkpt lat="43.4106721" lon="10.9389304"><ele>396.2857142857143</ele><time>2026-04-18T10:16:25.413Z</time></trkpt><trkpt lat="43.4106652" lon="10.9388397"><ele>395.57142857142856</ele><time>2026-04-18T10:16:26.405Z</time></trkpt><trkpt lat="43.4106513" lon="10.9387406"><ele>394.8571428571429</ele><time>2026-04-18T10:16:27.408Z</time></trkpt><trkpt lat="43.4106235" lon="10.9386498"><ele>394.1428571428571</ele><time>2026-04-18T10:16:28.404Z</time></trkpt><trkpt lat="43.4105933" lon="10.9385638"><ele>393.42857142857144</ele><time>2026-04-18T10:16:29.407Z</time></trkpt><trkpt lat="43.4105612" lon="10.9384775"><ele>392.7142857142857</ele><time>2026-04-18T10:16:30.41Z</time></trkpt><trkpt lat="43.4105301" lon="10.9383865"><ele>392.0</ele><time>2026-04-18T10:16:31.407Z</time></trkpt><trkpt lat="43.4104972" lon="10.9382959"><ele>391.16666666666663</ele><time>2026-04-18T10:16:32.415Z</time></trkpt><trkpt lat="43.4104584" lon="10.9382077"><ele>390.3333333333333</ele><time>2026-04-18T10:16:33.417Z</time></trkpt><trkpt lat="43.4104158" lon="10.938139"><ele>389.5</ele><time>2026-04-18T10:16:34.41Z</time></trkpt><trkpt lat="43.4103628" lon="10.938087"><ele>388.66666666666663</ele><time>2026-04-18T10:16:35.422Z</time></trkpt><trkpt lat="43.4102518" lon="10.9380491"><ele>387.8333333333333</ele><time>2026-04-18T10:16:37.415Z</time></trkpt><trkpt lat="43.4101513" lon="10.9380132"><ele>387.0</ele><time>2026-04-18T10:16:39.414Z</time></trkpt><trkpt lat="43.4100493" lon="10.9379663"><ele>387.0</ele><time>2026-04-18T10:16:41.42Z</time></trkpt><trkpt lat="43.4099834" lon="10.9379277"><ele>387.0</ele><time>2026-04-18T10:16:42.411Z</time></trkpt><trkpt lat="43.4099225" lon="10.9378832"><ele>387.0</ele><time>2026-04-18T10:16:43.417Z</time></trkpt><trkpt lat="43.4098719" lon="10.9378293"><ele>387.0</ele><time>2026-04-18T10:16:44.403Z</time></trkpt><trkpt lat="43.4098325" lon="10.9377602"><ele>387.0</ele><time>2026-04-18T10:16:45.418Z</time></trkpt><trkpt lat="43.4098302" lon="10.9375836"><ele>387.0</ele><time>2026-04-18T10:16:47.408Z</time></trkpt><trkpt lat="43.4098287" lon="10.9374914"><ele>386.3333333333333</ele><time>2026-04-18T10:16:48.415Z</time></trkpt><trkpt lat="43.4098265" lon="10.9373916"><ele>385.6666666666667</ele><time>2026-04-18T10:16:49.411Z</time></trkpt><trkpt lat="43.4098248" lon="10.9372771"><ele>385.0</ele><time>2026-04-18T10:16:50.415Z</time></trkpt><trkpt lat="43.4098164" lon="10.9371688"><ele>384.33333333333337</ele><time>2026-04-18T10:16:51.417Z</time></trkpt><trkpt lat="43.409812" lon="10.9370578"><ele>383.6666666666667</ele><time>2026-04-18T10:16:52.404Z</time></trkpt><trkpt lat="43.4098129" lon="10.9369532"><ele>383.0</ele><time>2026-04-18T10:16:53.399Z</time></trkpt><trkpt lat="43.4098173" lon="10.9368632"><ele>383.0</ele><time>2026-04-18T10:16:54.407Z</time></trkpt><trkpt lat="43.4098327" lon="10.9367781"><ele>383.0</ele><time>2026-04-18T10:16:55.419Z</time></trkpt><trkpt lat="43.4098712" lon="10.9366287"><ele>383.0</ele><time>2026-04-18T10:16:57.417Z</time></trkpt><trkpt lat="43.4098767" lon="10.9365017"><ele>383.0</ele><time>2026-04-18T10:16:59.414Z</time></trkpt><trkpt lat="43.4098059" lon="10.9363596"><ele>383.0</ele><time>2026-04-18T10:17:01.411Z</time></trkpt><trkpt lat="43.4097549" lon="10.9362939"><ele>381.83333333333337</ele><time>2026-04-18T10:17:02.401Z</time></trkpt><trkpt lat="43.4096945" lon="10.9362264"><ele>380.6666666666667</ele><time>2026-04-18T10:17:03.41Z</time></trkpt><trkpt lat="43.4096355" lon="10.9361655"><ele>379.5</ele><time>2026-04-18T10:17:04.413Z</time></trkpt><trkpt lat="43.4095755" lon="10.9360994"><ele>378.3333333333333</ele><time>2026-04-18T10:17:05.405Z</time></trkpt><trkpt lat="43.4095096" lon="10.9360332"><ele>377.16666666666663</ele><time>2026-04-18T10:17:06.4Z</time></trkpt><trkpt lat="43.4094373" lon="10.9359639"><ele>376.0</ele><time>2026-04-18T10:17:07.403Z</time></trkpt><trkpt lat="43.409371" lon="10.9358917"><ele>375.66666666666663</ele><time>2026-04-18T10:17:08.392Z</time></trkpt><trkpt lat="43.4093125" lon="10.935821"><ele>375.3333333333333</ele><time>2026-04-18T10:17:09.402Z</time></trkpt><trkpt lat="43.4092504" lon="10.9357463"><ele>375.0</ele><time>2026-04-18T10:17:10.402Z</time></trkpt><trkpt lat="43.409187" lon="10.9356748"><ele>374.6666666666667</ele><time>2026-04-18T10:17:11.418Z</time></trkpt><trkpt lat="43.4091176" lon="10.9355964"><ele>374.33333333333337</ele><time>2026-04-18T10:17:12.412Z</time></trkpt><trkpt lat="43.4090521" lon="10.9355156"><ele>374.0</ele><time>2026-04-18T10:17:13.413Z</time></trkpt><trkpt lat="43.4089877" lon="10.9354584"><ele>374.0</ele><time>2026-04-18T10:17:14.402Z</time></trkpt><trkpt lat="43.4089305" lon="10.9354018"><ele>374.0</ele><time>2026-04-18T10:17:15.41Z</time></trkpt><trkpt lat="43.4088795" lon="10.9353309"><ele>374.0</ele><time>2026-04-18T10:17:16.408Z</time></trkpt><trkpt lat="43.4088352" lon="10.935249"><ele>374.0</ele><time>2026-04-18T10:17:17.406Z</time></trkpt><trkpt lat="43.4087984" lon="10.9351583"><ele>374.0</ele><time>2026-04-18T10:17:18.4Z</time></trkpt><trkpt lat="43.4087645" lon="10.9350558"><ele>374.0</ele><time>2026-04-18T10:17:19.41Z</time></trkpt><trkpt lat="43.4087328" lon="10.934956"><ele>372.83333333333337</ele><time>2026-04-18T10:17:20.402Z</time></trkpt><trkpt lat="43.4087137" lon="10.9348438"><ele>371.6666666666667</ele><time>2026-04-18T10:17:21.408Z</time></trkpt><trkpt lat="43.4086945" lon="10.9347405"><ele>370.5</ele><time>2026-04-18T10:17:22.399Z</time></trkpt><trkpt lat="43.4086796" lon="10.9346353"><ele>369.3333333333333</ele><time>2026-04-18T10:17:23.413Z</time></trkpt><trkpt lat="43.4086685" lon="10.9345299"><ele>368.16666666666663</ele><time>2026-04-18T10:17:24.407Z</time></trkpt><trkpt lat="43.4086639" lon="10.9344207"><ele>367.0</ele><time>2026-04-18T10:17:25.403Z</time></trkpt><trkpt lat="43.4086542" lon="10.9343033"><ele>367.0</ele><time>2026-04-18T10:17:26.403Z</time></trkpt><trkpt lat="43.4086488" lon="10.9341758"><ele>367.0</ele><time>2026-04-18T10:17:27.418Z</time></trkpt><trkpt lat="43.4086328" lon="10.9340386"><ele>367.0</ele><time>2026-04-18T10:17:28.404Z</time></trkpt><trkpt lat="43.4086092" lon="10.9338918"><ele>367.0</ele><time>2026-04-18T10:17:29.409Z</time></trkpt><trkpt lat="43.4085883" lon="10.9337489"><ele>367.0</ele><time>2026-04-18T10:17:30.407Z</time></trkpt><trkpt lat="43.4085689" lon="10.9336183"><ele>367.0</ele><time>2026-04-18T10:17:31.411Z</time></trkpt><trkpt lat="43.4085502" lon="10.9334848"><ele>367.0</ele><time>2026-04-18T10:17:32.416Z</time></trkpt><trkpt lat="43.4085274" lon="10.9333597"><ele>367.0</ele><time>2026-04-18T10:17:33.402Z</time></trkpt><trkpt lat="43.4085059" lon="10.9332267"><ele>367.0</ele><time>2026-04-18T10:17:34.413Z</time></trkpt><trkpt lat="43.4084768" lon="10.9331067"><ele>367.0</ele><time>2026-04-18T10:17:35.41Z</time></trkpt><trkpt lat="43.4084414" lon="10.932987"><ele>367.0</ele><time>2026-04-18T10:17:36.41Z</time></trkpt><trkpt lat="43.4083998" lon="10.9328782"><ele>367.0</ele><time>2026-04-18T10:17:37.412Z</time></trkpt><trkpt lat="43.4083581" lon="10.9327834"><ele>367.0</ele><time>2026-04-18T10:17:38.418Z</time></trkpt><trkpt lat="43.408318" lon="10.9326818"><ele>367.0</ele><time>2026-04-18T10:17:39.417Z</time></trkpt><trkpt lat="43.4082768" lon="10.9325795"><ele>367.0</ele><time>2026-04-18T10:17:40.402Z</time></trkpt><trkpt lat="43.4082372" lon="10.9324819"><ele>367.0</ele><time>2026-04-18T10:17:41.408Z</time></trkpt><trkpt lat="43.408198" lon="10.9323943"><ele>366.7142857142857</ele><time>2026-04-18T10:17:42.411Z</time></trkpt><trkpt lat="43.4081609" lon="10.932313"><ele>366.42857142857144</ele><time>2026-04-18T10:17:43.403Z</time></trkpt><trkpt lat="43.4081241" lon="10.9322308"><ele>366.14285714285717</ele><time>2026-04-18T10:17:44.423Z</time></trkpt><trkpt lat="43.4080918" lon="10.9321503"><ele>365.8571428571429</ele><time>2026-04-18T10:17:45.406Z</time></trkpt><trkpt lat="43.4080637" lon="10.9320506"><ele>365.57142857142856</ele><time>2026-04-18T10:17:46.4Z</time></trkpt><trkpt lat="43.4080412" lon="10.9319479"><ele>365.28571428571433</ele><time>2026-04-18T10:17:47.407Z</time></trkpt><trkpt lat="43.4080175" lon="10.9318427"><ele>365.0</ele><time>2026-04-18T10:17:48.412Z</time></trkpt><trkpt lat="43.4079796" lon="10.9317426"><ele>365.1666666666667</ele><time>2026-04-18T10:17:49.413Z</time></trkpt><trkpt lat="43.4079415" lon="10.9316441"><ele>365.33333333333337</ele><time>2026-04-18T10:17:50.406Z</time></trkpt><trkpt lat="43.4078955" lon="10.9315306"><ele>365.5</ele><time>2026-04-18T10:17:51.406Z</time></trkpt><trkpt lat="43.4078468" lon="10.931416"><ele>365.6666666666667</ele><time>2026-04-18T10:17:52.405Z</time></trkpt><trkpt lat="43.4078124" lon="10.9313329"><ele>365.8333333333333</ele><time>2026-04-18T10:17:53.394Z</time></trkpt><trkpt lat="43.407774" lon="10.9312578"><ele>366.0</ele><time>2026-04-18T10:17:54.413Z</time></trkpt><trkpt lat="43.4077021" lon="10.931142"><ele>366.0</ele><time>2026-04-18T10:17:56.411Z</time></trkpt><trkpt lat="43.4076414" lon="10.9310284"><ele>366.0</ele><time>2026-04-18T10:17:58.417Z</time></trkpt><trkpt lat="43.4076002" lon="10.9309579"><ele>366.0</ele><time>2026-04-18T10:17:59.41Z</time></trkpt><trkpt lat="43.4075572" lon="10.9308826"><ele>366.0</ele><time>2026-04-18T10:18:00.413Z</time></trkpt><trkpt lat="43.4075149" lon="10.9307989"><ele>366.0</ele><time>2026-04-18T10:18:01.408Z</time></trkpt><trkpt lat="43.4074705" lon="10.9307086"><ele>366.0</ele><time>2026-04-18T10:18:02.424Z</time></trkpt><trkpt lat="43.4074296" lon="10.9306221"><ele>366.7142857142857</ele><time>2026-04-18T10:18:03.402Z</time></trkpt><trkpt lat="43.4073939" lon="10.9305327"><ele>367.42857142857144</ele><time>2026-04-18T10:18:04.395Z</time></trkpt><trkpt lat="43.4073708" lon="10.9304404"><ele>368.1428571428571</ele><time>2026-04-18T10:18:05.405Z</time></trkpt><trkpt lat="43.4073714" lon="10.9303519"><ele>368.8571428571429</ele><time>2026-04-18T10:18:06.406Z</time></trkpt><trkpt lat="43.407383" lon="10.9302546"><ele>369.57142857142856</ele><time>2026-04-18T10:18:07.408Z</time></trkpt><trkpt lat="43.4073943" lon="10.930155"><ele>370.2857142857143</ele><time>2026-04-18T10:18:08.403Z</time></trkpt><trkpt lat="43.4074093" lon="10.930049"><ele>371.0</ele><time>2026-04-18T10:18:09.419Z</time></trkpt><trkpt lat="43.4074218" lon="10.9299286"><ele>371.0</ele><time>2026-04-18T10:18:10.403Z</time></trkpt><trkpt lat="43.4074223" lon="10.9298028"><ele>371.0</ele><time>2026-04-18T10:18:11.409Z</time></trkpt><trkpt lat="43.4074099" lon="10.9296596"><ele>371.0</ele><time>2026-04-18T10:18:12.409Z</time></trkpt><trkpt lat="43.4074029" lon="10.9295329"><ele>371.0</ele><time>2026-04-18T10:18:13.408Z</time></trkpt><trkpt lat="43.4073975" lon="10.9294116"><ele>371.0</ele><time>2026-04-18T10:18:14.405Z</time></trkpt><trkpt lat="43.4073937" lon="10.9292796"><ele>370.6</ele><time>2026-04-18T10:18:15.41Z</time></trkpt><trkpt lat="43.4073897" lon="10.9291389"><ele>370.20000000000005</ele><time>2026-04-18T10:18:16.406Z</time></trkpt><trkpt lat="43.4073832" lon="10.9289901"><ele>369.79999999999995</ele><time>2026-04-18T10:18:17.416Z</time></trkpt><trkpt lat="43.4073693" lon="10.9288408"><ele>369.4</ele><time>2026-04-18T10:18:18.397Z</time></trkpt><trkpt lat="43.4073473" lon="10.928692"><ele>369.0</ele><time>2026-04-18T10:18:19.408Z</time></trkpt><trkpt lat="43.4073081" lon="10.9285377"><ele>369.0</ele><time>2026-04-18T10:18:20.404Z</time></trkpt><trkpt lat="43.4072406" lon="10.9284046"><ele>369.0</ele><time>2026-04-18T10:18:21.413Z</time></trkpt><trkpt lat="43.4071691" lon="10.928292"><ele>369.0</ele><time>2026-04-18T10:18:22.415Z</time></trkpt><trkpt lat="43.4070788" lon="10.9281975"><ele>369.0</ele><time>2026-04-18T10:18:23.408Z</time></trkpt><trkpt lat="43.4070052" lon="10.9281051"><ele>369.0</ele><time>2026-04-18T10:18:24.408Z</time></trkpt><trkpt lat="43.4069325" lon="10.9280135"><ele>368.5</ele><time>2026-04-18T10:18:25.407Z</time></trkpt><trkpt lat="43.4068616" lon="10.9279157"><ele>368.0</ele><time>2026-04-18T10:18:26.404Z</time></trkpt><trkpt lat="43.4067883" lon="10.9278245"><ele>367.5</ele><time>2026-04-18T10:18:27.419Z</time></trkpt><trkpt lat="43.4067287" lon="10.9277486"><ele>367.0</ele><time>2026-04-18T10:18:28.414Z</time></trkpt><trkpt lat="43.4066835" lon="10.9276769"><ele>366.5</ele><time>2026-04-18T10:18:29.417Z</time></trkpt><trkpt lat="43.4066539" lon="10.927596"><ele>366.0</ele><time>2026-04-18T10:18:30.414Z</time></trkpt><trkpt lat="43.4066061" lon="10.9274219"><ele>368.0</ele><time>2026-04-18T10:18:32.406Z</time></trkpt><trkpt lat="43.4065871" lon="10.9273076"><ele>370.0</ele><time>2026-04-18T10:18:33.41Z</time></trkpt><trkpt lat="43.4065578" lon="10.9271916"><ele>372.0</ele><time>2026-04-18T10:18:34.408Z</time></trkpt><trkpt lat="43.4065168" lon="10.9270669"><ele>374.0</ele><time>2026-04-18T10:18:35.416Z</time></trkpt><trkpt lat="43.4064719" lon="10.9269486"><ele>376.0</ele><time>2026-04-18T10:18:36.41Z</time></trkpt><trkpt lat="43.4064332" lon="10.9268334"><ele>376.4</ele><time>2026-04-18T10:18:37.413Z</time></trkpt><trkpt lat="43.4063728" lon="10.9267232"><ele>376.8</ele><time>2026-04-18T10:18:38.406Z</time></trkpt><trkpt lat="43.406308" lon="10.9266309"><ele>377.2</ele><time>2026-04-18T10:18:39.407Z</time></trkpt><trkpt lat="43.4062413" lon="10.9265436"><ele>377.59999999999997</ele><time>2026-04-18T10:18:40.414Z</time></trkpt><trkpt lat="43.4061721" lon="10.92647"><ele>378.0</ele><time>2026-04-18T10:18:41.417Z</time></trkpt><trkpt lat="43.4061122" lon="10.9264004"><ele>378.0</ele><time>2026-04-18T10:18:42.41Z</time></trkpt><trkpt lat="43.4060505" lon="10.9263224"><ele>378.0</ele><time>2026-04-18T10:18:43.401Z</time></trkpt><trkpt lat="43.4059877" lon="10.9262442"><ele>378.0</ele><time>2026-04-18T10:18:44.405Z</time></trkpt><trkpt lat="43.4059318" lon="10.9261713"><ele>378.0</ele><time>2026-04-18T10:18:45.42Z</time></trkpt><trkpt lat="43.4058703" lon="10.9260951"><ele>378.0</ele><time>2026-04-18T10:18:46.399Z</time></trkpt><trkpt lat="43.4058014" lon="10.9260134"><ele>378.0</ele><time>2026-04-18T10:18:47.405Z</time></trkpt><trkpt lat="43.40573" lon="10.9259168"><ele>378.4</ele><time>2026-04-18T10:18:48.39Z</time></trkpt><trkpt lat="43.4056571" lon="10.9258196"><ele>378.79999999999995</ele><time>2026-04-18T10:18:49.423Z</time></trkpt><trkpt lat="43.4055826" lon="10.9257171"><ele>379.2</ele><time>2026-04-18T10:18:50.393Z</time></trkpt><trkpt lat="43.4055084" lon="10.9256102"><ele>379.6</ele><time>2026-04-18T10:18:51.422Z</time></trkpt><trkpt lat="43.405432" lon="10.9254959"><ele>380.0</ele><time>2026-04-18T10:18:52.416Z</time></trkpt><trkpt lat="43.4053452" lon="10.9253893"><ele>379.75</ele><time>2026-04-18T10:18:53.423Z</time></trkpt><trkpt lat="43.405244" lon="10.9252764"><ele>379.5</ele><time>2026-04-18T10:18:54.408Z</time></trkpt><trkpt lat="43.4051376" lon="10.9251676"><ele>379.25</ele><time>2026-04-18T10:18:55.414Z</time></trkpt><trkpt lat="43.405025" lon="10.9250657"><ele>379.0</ele><time>2026-04-18T10:18:56.415Z</time></trkpt><trkpt lat="43.4049159" lon="10.9249736"><ele>379.0</ele><time>2026-04-18T10:18:57.411Z</time></trkpt><trkpt lat="43.4048116" lon="10.9248822"><ele>379.0</ele><time>2026-04-18T10:18:58.418Z</time></trkpt><trkpt lat="43.4047074" lon="10.9247872"><ele>379.0</ele><time>2026-04-18T10:18:59.423Z</time></trkpt><trkpt lat="43.4045973" lon="10.9246845"><ele>379.0</ele><time>2026-04-18T10:19:00.416Z</time></trkpt><trkpt lat="43.4044909" lon="10.9245725"><ele>379.25</ele><time>2026-04-18T10:19:01.418Z</time></trkpt><trkpt lat="43.404376" lon="10.9244521"><ele>379.5</ele><time>2026-04-18T10:19:02.408Z</time></trkpt><trkpt lat="43.4042538" lon="10.9243309"><ele>379.75</ele><time>2026-04-18T10:19:03.411Z</time></trkpt><trkpt lat="43.4041346" lon="10.9242082"><ele>380.0</ele><time>2026-04-18T10:19:04.406Z</time></trkpt><trkpt lat="43.4040226" lon="10.9240768"><ele>380.0</ele><time>2026-04-18T10:19:05.415Z</time></trkpt><trkpt lat="43.4039296" lon="10.9239601"><ele>380.0</ele><time>2026-04-18T10:19:06.414Z</time></trkpt><trkpt lat="43.4038399" lon="10.9238441"><ele>380.0</ele><time>2026-04-18T10:19:07.417Z</time></trkpt><trkpt lat="43.4037565" lon="10.9237206"><ele>380.0</ele><time>2026-04-18T10:19:08.42Z</time></trkpt><trkpt lat="43.403681" lon="10.9235931"><ele>380.25</ele><time>2026-04-18T10:19:09.416Z</time></trkpt><trkpt lat="43.4036097" lon="10.9234533"><ele>380.5</ele><time>2026-04-18T10:19:10.404Z</time></trkpt><trkpt lat="43.4035568" lon="10.9232996"><ele>380.75</ele><time>2026-04-18T10:19:11.402Z</time></trkpt><trkpt lat="43.4035199" lon="10.923148"><ele>381.0</ele><time>2026-04-18T10:19:12.408Z</time></trkpt><trkpt lat="43.403489" lon="10.9230101"><ele>381.0</ele><time>2026-04-18T10:19:13.394Z</time></trkpt><trkpt lat="43.4034576" lon="10.9228768"><ele>381.0</ele><time>2026-04-18T10:19:14.393Z</time></trkpt><trkpt lat="43.403416" lon="10.9227463"><ele>381.0</ele><time>2026-04-18T10:19:15.419Z</time></trkpt><trkpt lat="43.4033741" lon="10.9226135"><ele>381.0</ele><time>2026-04-18T10:19:16.401Z</time></trkpt><trkpt lat="43.4033324" lon="10.9224755"><ele>381.0</ele><time>2026-04-18T10:19:17.41Z</time></trkpt><trkpt lat="43.4032801" lon="10.922333"><ele>379.75</ele><time>2026-04-18T10:19:18.402Z</time></trkpt><trkpt lat="43.4032376" lon="10.922185"><ele>378.5</ele><time>2026-04-18T10:19:19.402Z</time></trkpt><trkpt lat="43.4031985" lon="10.9220337"><ele>377.25</ele><time>2026-04-18T10:19:20.408Z</time></trkpt><trkpt lat="43.4031664" lon="10.921886"><ele>376.0</ele><time>2026-04-18T10:19:21.42Z</time></trkpt><trkpt lat="43.4031346" lon="10.9217325"><ele>375.20000000000005</ele><time>2026-04-18T10:19:22.41Z</time></trkpt><trkpt lat="43.4031019" lon="10.9215819"><ele>374.40000000000003</ele><time>2026-04-18T10:19:23.408Z</time></trkpt><trkpt lat="43.4030731" lon="10.9214399"><ele>373.6</ele><time>2026-04-18T10:19:24.404Z</time></trkpt><trkpt lat="43.4030599" lon="10.9213001"><ele>372.8</ele><time>2026-04-18T10:19:25.425Z</time></trkpt><trkpt lat="43.4030577" lon="10.9211677"><ele>372.0</ele><time>2026-04-18T10:19:26.413Z</time></trkpt><trkpt lat="43.4030819" lon="10.9210448"><ele>372.0</ele><time>2026-04-18T10:19:27.412Z</time></trkpt><trkpt lat="43.4031153" lon="10.9209093"><ele>372.0</ele><time>2026-04-18T10:19:28.406Z</time></trkpt><trkpt lat="43.4031522" lon="10.9207851"><ele>372.0</ele><time>2026-04-18T10:19:29.422Z</time></trkpt><trkpt lat="43.4031888" lon="10.9206663"><ele>372.0</ele><time>2026-04-18T10:19:30.404Z</time></trkpt><trkpt lat="43.4032282" lon="10.9205546"><ele>372.0</ele><time>2026-04-18T10:19:31.421Z</time></trkpt><trkpt lat="43.403259" lon="10.9204735"><ele>371.20000000000005</ele><time>2026-04-18T10:19:32.406Z</time></trkpt><trkpt lat="43.4033082" lon="10.9203284"><ele>370.4</ele><time>2026-04-18T10:19:34.405Z</time></trkpt><trkpt lat="43.4033559" lon="10.9202036"><ele>369.6</ele><time>2026-04-18T10:19:36.408Z</time></trkpt><trkpt lat="43.4034147" lon="10.9200699"><ele>368.79999999999995</ele><time>2026-04-18T10:19:38.41Z</time></trkpt><trkpt lat="43.4034597" lon="10.9199714"><ele>368.0</ele><time>2026-04-18T10:19:40.414Z</time></trkpt><trkpt lat="43.403493" lon="10.9198886"><ele>367.59999999999997</ele><time>2026-04-18T10:19:43.411Z</time></trkpt><trkpt lat="43.403541" lon="10.9197939"><ele>367.2</ele><time>2026-04-18T10:19:55.414Z</time></trkpt><trkpt lat="43.4035809" lon="10.9196917"><ele>366.8</ele><time>2026-04-18T10:20:06.407Z</time></trkpt><trkpt lat="43.4036193" lon="10.9195736"><ele>366.4</ele><time>2026-04-18T10:20:08.401Z</time></trkpt><trkpt lat="43.4036487" lon="10.9194272"><ele>366.0</ele><time>2026-04-18T10:20:10.403Z</time></trkpt><trkpt lat="43.4036769" lon="10.9193115"><ele>365.20000000000005</ele><time>2026-04-18T10:20:12.408Z</time></trkpt><trkpt lat="43.4036971" lon="10.9192239"><ele>364.40000000000003</ele><time>2026-04-18T10:20:14.406Z</time></trkpt><trkpt lat="43.4037167" lon="10.9191272"><ele>363.6</ele><time>2026-04-18T10:20:16.404Z</time></trkpt><trkpt lat="43.4037373" lon="10.9189883"><ele>362.8</ele><time>2026-04-18T10:20:18.405Z</time></trkpt><trkpt lat="43.4037586" lon="10.9188405"><ele>362.0</ele><time>2026-04-18T10:20:20.4Z</time></trkpt><trkpt lat="43.4037724" lon="10.9186788"><ele>362.0</ele><time>2026-04-18T10:20:22.41Z</time></trkpt><trkpt lat="43.40378" lon="10.9185106"><ele>362.0</ele><time>2026-04-18T10:20:24.417Z</time></trkpt><trkpt lat="43.4037736" lon="10.9184219"><ele>362.0</ele><time>2026-04-18T10:20:25.411Z</time></trkpt><trkpt lat="43.4037574" lon="10.9183296"><ele>362.0</ele><time>2026-04-18T10:20:26.416Z</time></trkpt><trkpt lat="43.4037345" lon="10.9182331"><ele>362.0</ele><time>2026-04-18T10:20:27.409Z</time></trkpt><trkpt lat="43.4036988" lon="10.9181417"><ele>362.0</ele><time>2026-04-18T10:20:28.409Z</time></trkpt><trkpt lat="43.4036542" lon="10.918056"><ele>361.0</ele><time>2026-04-18T10:20:29.417Z</time></trkpt><trkpt lat="43.4036095" lon="10.9179719"><ele>360.0</ele><time>2026-04-18T10:20:30.412Z</time></trkpt><trkpt lat="43.4035646" lon="10.9178847"><ele>359.0</ele><time>2026-04-18T10:20:31.409Z</time></trkpt><trkpt lat="43.40352" lon="10.9177948"><ele>358.0</ele><time>2026-04-18T10:20:32.402Z</time></trkpt><trkpt lat="43.4034749" lon="10.9176997"><ele>357.0</ele><time>2026-04-18T10:20:33.421Z</time></trkpt><trkpt lat="43.4034363" lon="10.9176044"><ele>356.0</ele><time>2026-04-18T10:20:34.409Z</time></trkpt><trkpt lat="43.4034106" lon="10.9175001"><ele>354.83333333333337</ele><time>2026-04-18T10:20:35.4Z</time></trkpt><trkpt lat="43.4033922" lon="10.9173853"><ele>353.6666666666667</ele><time>2026-04-18T10:20:36.409Z</time></trkpt><trkpt lat="43.4033752" lon="10.9172716"><ele>352.5</ele><time>2026-04-18T10:20:37.424Z</time></trkpt><trkpt lat="43.4033602" lon="10.917155"><ele>351.3333333333333</ele><time>2026-04-18T10:20:38.406Z</time></trkpt><trkpt lat="43.4033403" lon="10.917041"><ele>350.16666666666663</ele><time>2026-04-18T10:20:39.41Z</time></trkpt><trkpt lat="43.4033133" lon="10.9169354"><ele>349.0</ele><time>2026-04-18T10:20:40.406Z</time></trkpt><trkpt lat="43.4032788" lon="10.9168383"><ele>349.0</ele><time>2026-04-18T10:20:41.416Z</time></trkpt><trkpt lat="43.4032389" lon="10.9167581"><ele>349.0</ele><time>2026-04-18T10:20:42.407Z</time></trkpt><trkpt lat="43.4031959" lon="10.9166849"><ele>349.0</ele><time>2026-04-18T10:20:43.411Z</time></trkpt><trkpt lat="43.4031508" lon="10.9166178"><ele>349.0</ele><time>2026-04-18T10:20:44.404Z</time></trkpt><trkpt lat="43.4030553" lon="10.9165118"><ele>349.0</ele><time>2026-04-18T10:20:46.401Z</time></trkpt><trkpt lat="43.4029654" lon="10.9163997"><ele>349.0</ele><time>2026-04-18T10:20:48.412Z</time></trkpt><trkpt lat="43.4028701" lon="10.9163008"><ele>348.79999999999995</ele><time>2026-04-18T10:20:50.401Z</time></trkpt><trkpt lat="43.4027735" lon="10.9162003"><ele>348.59999999999997</ele><time>2026-04-18T10:20:52.399Z</time></trkpt><trkpt lat="43.4027224" lon="10.9161496"><ele>348.4</ele><time>2026-04-18T10:20:53.419Z</time></trkpt><trkpt lat="43.4026268" lon="10.9160419"><ele>348.2</ele><time>2026-04-18T10:20:55.428Z</time></trkpt><trkpt lat="43.4025243" lon="10.9159466"><ele>348.0</ele><time>2026-04-18T10:20:57.404Z</time></trkpt><trkpt lat="43.4024675" lon="10.9159009"><ele>346.0</ele><time>2026-04-18T10:20:58.408Z</time></trkpt><trkpt lat="43.4024098" lon="10.9158541"><ele>344.0</ele><time>2026-04-18T10:20:59.404Z</time></trkpt><trkpt lat="43.4023056" lon="10.9157619"><ele>342.0</ele><time>2026-04-18T10:21:01.419Z</time></trkpt><trkpt lat="43.4022328" lon="10.9156973"><ele>340.0</ele><time>2026-04-18T10:21:03.413Z</time></trkpt><trkpt lat="43.4021843" lon="10.9155985"><ele>338.0</ele><time>2026-04-18T10:21:06.396Z</time></trkpt><trkpt lat="43.4022256" lon="10.9154932"><ele>338.0</ele><time>2026-04-18T10:21:09.408Z</time></trkpt><trkpt lat="43.4023138" lon="10.9154572"><ele>338.0</ele><time>2026-04-18T10:21:11.406Z</time></trkpt><trkpt lat="43.4024229" lon="10.9154386"><ele>338.0</ele><time>2026-04-18T10:21:13.4Z</time></trkpt><trkpt lat="43.4025384" lon="10.9153861"><ele>338.0</ele><time>2026-04-18T10:21:15.421Z</time></trkpt><trkpt lat="43.4026351" lon="10.9153265"><ele>338.0</ele><time>2026-04-18T10:21:17.407Z</time></trkpt><trkpt lat="43.4026916" lon="10.9152695"><ele>338.0</ele><time>2026-04-18T10:21:19.409Z</time></trkpt><trkpt lat="43.4026761" lon="10.915164"><ele>338.0</ele><time>2026-04-18T10:21:33.404Z</time></trkpt><trkpt lat="43.4026729" lon="10.9152581"><ele>338.0</ele><time>2026-04-18T10:21:36.395Z</time></trkpt><trkpt lat="43.4027128" lon="10.9151895"><ele>338.0</ele><time>2026-04-18T10:21:51.404Z</time></trkpt><trkpt lat="43.4027503" lon="10.9151182"><ele>338.0</ele><time>2026-04-18T10:22:01.401Z</time></trkpt><trkpt lat="43.4027765" lon="10.9150191"><ele>338.0</ele><time>2026-04-18T10:22:06.4Z</time></trkpt><trkpt lat="43.4028013" lon="10.9149208"><ele>338.0</ele><time>2026-04-18T10:22:11.392Z</time></trkpt><trkpt lat="43.4028155" lon="10.9148312"><ele>336.57142857142856</ele><time>2026-04-18T10:22:15.406Z</time></trkpt><trkpt lat="43.4028262" lon="10.914741"><ele>335.1428571428571</ele><time>2026-04-18T10:22:19.408Z</time></trkpt><trkpt lat="43.4028508" lon="10.9146454"><ele>333.71428571428567</ele><time>2026-04-18T10:22:23.413Z</time></trkpt><trkpt lat="43.4028703" lon="10.9145492"><ele>332.2857142857143</ele><time>2026-04-18T10:22:27.396Z</time></trkpt><trkpt lat="43.4028843" lon="10.9144616"><ele>330.85714285714283</ele><time>2026-04-18T10:22:31.413Z</time></trkpt><trkpt lat="43.402911" lon="10.9143666"><ele>329.4285714285714</ele><time>2026-04-18T10:22:35.416Z</time></trkpt><trkpt lat="43.4029292" lon="10.9142705"><ele>328.0</ele><time>2026-04-18T10:22:39.431Z</time></trkpt><trkpt lat="43.4029463" lon="10.9141741"><ele>327.1428571428571</ele><time>2026-04-18T10:22:43.4Z</time></trkpt><trkpt lat="43.4029611" lon="10.9140725"><ele>326.2857142857143</ele><time>2026-04-18T10:22:47.456Z</time></trkpt><trkpt lat="43.4029846" lon="10.9139859"><ele>325.42857142857144</ele><time>2026-04-18T10:22:51.406Z</time></trkpt><trkpt lat="43.4029947" lon="10.9138936"><ele>324.57142857142856</ele><time>2026-04-18T10:22:55.408Z</time></trkpt><trkpt lat="43.4029992" lon="10.9137885"><ele>323.7142857142857</ele><time>2026-04-18T10:22:59.409Z</time></trkpt><trkpt lat="43.4030006" lon="10.9136912"><ele>322.85714285714283</ele><time>2026-04-18T10:23:03.411Z</time></trkpt><trkpt lat="43.4030013" lon="10.9136006"><ele>322.0</ele><time>2026-04-18T10:23:07.424Z</time></trkpt><trkpt lat="43.4030115" lon="10.913515"><ele>322.0</ele><time>2026-04-18T10:23:11.4Z</time></trkpt><trkpt lat="43.4030237" lon="10.9134208"><ele>322.0</ele><time>2026-04-18T10:23:15.405Z</time></trkpt><trkpt lat="43.4030343" lon="10.9133202"><ele>322.0</ele><time>2026-04-18T10:23:19.398Z</time></trkpt><trkpt lat="43.4030308" lon="10.913222"><ele>322.0</ele><time>2026-04-18T10:23:23.397Z</time></trkpt><trkpt lat="43.4030194" lon="10.9131136"><ele>322.0</ele><time>2026-04-18T10:23:28.405Z</time></trkpt><trkpt lat="43.4030036" lon="10.9130164"><ele>322.0</ele><time>2026-04-18T10:23:32.418Z</time></trkpt><trkpt lat="43.4029442" lon="10.9129595"><ele>322.0</ele><time>2026-04-18T10:23:41.387Z</time></trkpt><trkpt lat="43.4029278" lon="10.9128567"><ele>322.14285714285717</ele><time>2026-04-18T10:23:45.423Z</time></trkpt><trkpt lat="43.4029475" lon="10.9127632"><ele>322.2857142857143</ele><time>2026-04-18T10:23:48.243Z</time></trkpt><trkpt lat="43.4029647" lon="10.9126476"><ele>322.42857142857144</ele><time>2026-04-18T10:23:50.423Z</time></trkpt><trkpt lat="43.4029621" lon="10.9125584"><ele>322.57142857142856</ele><time>2026-04-18T10:23:53.457Z</time></trkpt><trkpt lat="43.4029512" lon="10.9124683"><ele>322.7142857142857</ele><time>2026-04-18T10:23:57.445Z</time></trkpt><trkpt lat="43.4029373" lon="10.9123686"><ele>322.8571428571429</ele><time>2026-04-18T10:24:01.436Z</time></trkpt><trkpt lat="43.4029293" lon="10.9122599"><ele>323.0</ele><time>2026-04-18T10:24:06.432Z</time></trkpt><trkpt lat="43.4029129" lon="10.9121716"><ele>323.0</ele><time>2026-04-18T10:24:10.427Z</time></trkpt><trkpt lat="43.4028923" lon="10.9120679"><ele>323.0</ele><time>2026-04-18T10:24:15.504Z</time></trkpt><trkpt lat="43.402908" lon="10.9119795"><ele>323.0</ele><time>2026-04-18T10:24:24.4Z</time></trkpt><trkpt lat="43.4028895" lon="10.9117536"><ele>323.0</ele><time>2026-04-18T10:24:28.421Z</time></trkpt><trkpt lat="43.402872" lon="10.9116627"><ele>323.0</ele><time>2026-04-18T10:24:31.406Z</time></trkpt><trkpt lat="43.4028632" lon="10.911574"><ele>323.0</ele><time>2026-04-18T10:24:39.435Z</time></trkpt><trkpt lat="43.402852" lon="10.9114827"><ele>323.8571428571429</ele><time>2026-04-18T10:27:57.447Z</time></trkpt><trkpt lat="43.4028271" lon="10.9113956"><ele>324.7142857142857</ele><time>2026-04-18T10:28:02.399Z</time></trkpt><trkpt lat="43.4028334" lon="10.9113023"><ele>325.57142857142856</ele><time>2026-04-18T10:28:09.391Z</time></trkpt><trkpt lat="43.4028148" lon="10.9111992"><ele>326.42857142857144</ele><time>2026-04-18T10:28:15.378Z</time></trkpt><trkpt lat="43.4027991" lon="10.9111143"><ele>327.2857142857143</ele><time>2026-04-18T10:28:20.34Z</time></trkpt><trkpt lat="43.4027989" lon="10.9110212"><ele>328.14285714285717</ele><time>2026-04-18T10:28:25.414Z</time></trkpt><trkpt lat="43.40278" lon="10.9109319"><ele>329.0</ele><time>2026-04-18T10:28:30.426Z</time></trkpt><trkpt lat="43.4027613" lon="10.9108378"><ele>330.0</ele><time>2026-04-18T10:28:34.425Z</time></trkpt><trkpt lat="43.4027414" lon="10.9107332"><ele>331.0</ele><time>2026-04-18T10:28:37.423Z</time></trkpt><trkpt lat="43.4027277" lon="10.9106409"><ele>332.0</ele><time>2026-04-18T10:28:42.391Z</time></trkpt><trkpt lat="43.4027035" lon="10.910535"><ele>333.0</ele><time>2026-04-18T10:28:54.405Z</time></trkpt><trkpt lat="43.4026631" lon="10.9104634"><ele>334.0</ele><time>2026-04-18T10:28:57.442Z</time></trkpt><trkpt lat="43.4026132" lon="10.9103704"><ele>335.0</ele><time>2026-04-18T10:29:00.417Z</time></trkpt><trkpt lat="43.402569" lon="10.9102878"><ele>335.0</ele><time>2026-04-18T10:29:02.447Z</time></trkpt><trkpt lat="43.4025215" lon="10.9102006"><ele>335.0</ele><time>2026-04-18T10:29:04.402Z</time></trkpt><trkpt lat="43.402504" lon="10.9100955"><ele>335.0</ele><time>2026-04-18T10:29:06.427Z</time></trkpt><trkpt lat="43.4024932" lon="10.9099907"><ele>335.0</ele><time>2026-04-18T10:29:08.454Z</time></trkpt><trkpt lat="43.4024331" lon="10.9098587"><ele>335.0</ele><time>2026-04-18T10:29:10.441Z</time></trkpt><trkpt lat="43.4024032" lon="10.9097774"><ele>335.0</ele><time>2026-04-18T10:29:11.436Z</time></trkpt><trkpt lat="43.4023713" lon="10.9096963"><ele>336.1428571428571</ele><time>2026-04-18T10:29:12.439Z</time></trkpt><trkpt lat="43.4023389" lon="10.9096123"><ele>337.2857142857143</ele><time>2026-04-18T10:29:13.4Z</time></trkpt><trkpt lat="43.402304" lon="10.9095302"><ele>338.42857142857144</ele><time>2026-04-18T10:29:14.409Z</time></trkpt><trkpt lat="43.4022704" lon="10.9094453"><ele>339.57142857142856</ele><time>2026-04-18T10:29:15.433Z</time></trkpt><trkpt lat="43.4022372" lon="10.9093584"><ele>340.7142857142857</ele><time>2026-04-18T10:29:16.414Z</time></trkpt><trkpt lat="43.4022058" lon="10.909265"><ele>341.85714285714283</ele><time>2026-04-18T10:29:17.433Z</time></trkpt><trkpt lat="43.4021665" lon="10.9091687"><ele>343.0</ele><time>2026-04-18T10:29:18.435Z</time></trkpt><trkpt lat="43.4021279" lon="10.9090743"><ele>343.5</ele><time>2026-04-18T10:29:19.426Z</time></trkpt><trkpt lat="43.402093" lon="10.9089707"><ele>344.0</ele><time>2026-04-18T10:29:20.439Z</time></trkpt><trkpt lat="43.4020592" lon="10.9088661"><ele>344.5</ele><time>2026-04-18T10:29:21.424Z</time></trkpt><trkpt lat="43.4020242" lon="10.908765"><ele>345.0</ele><time>2026-04-18T10:29:22.395Z</time></trkpt><trkpt lat="43.4019928" lon="10.9086637"><ele>345.5</ele><time>2026-04-18T10:29:23.401Z</time></trkpt><trkpt lat="43.4019548" lon="10.9085779"><ele>346.0</ele><time>2026-04-18T10:29:24.432Z</time></trkpt><trkpt lat="43.4018676" lon="10.9084851"><ele>346.0</ele><time>2026-04-18T10:29:26.437Z</time></trkpt><trkpt lat="43.4017438" lon="10.9084572"><ele>346.0</ele><time>2026-04-18T10:29:28.451Z</time></trkpt><trkpt lat="43.4016791" lon="10.9084615"><ele>346.0</ele><time>2026-04-18T10:29:29.42Z</time></trkpt><trkpt lat="43.4015535" lon="10.9084916"><ele>346.0</ele><time>2026-04-18T10:29:31.43Z</time></trkpt><trkpt lat="43.4014822" lon="10.9084899"><ele>346.0</ele><time>2026-04-18T10:29:32.429Z</time></trkpt><trkpt lat="43.4014019" lon="10.9084961"><ele>346.0</ele><time>2026-04-18T10:29:33.425Z</time></trkpt><trkpt lat="43.4013231" lon="10.9085016"><ele>346.0</ele><time>2026-04-18T10:29:34.416Z</time></trkpt><trkpt lat="43.4012424" lon="10.9085079"><ele>346.0</ele><time>2026-04-18T10:29:35.433Z</time></trkpt><trkpt lat="43.4011634" lon="10.9085146"><ele>346.0</ele><time>2026-04-18T10:29:36.406Z</time></trkpt><trkpt lat="43.4010893" lon="10.9085318"><ele>346.0</ele><time>2026-04-18T10:29:37.399Z</time></trkpt><trkpt lat="43.4010121" lon="10.908554"><ele>346.0</ele><time>2026-04-18T10:29:38.409Z</time></trkpt><trkpt lat="43.4009384" lon="10.908571"><ele>346.0</ele><time>2026-04-18T10:29:39.407Z</time></trkpt><trkpt lat="43.4008623" lon="10.9085742"><ele>346.0</ele><time>2026-04-18T10:29:40.41Z</time></trkpt><trkpt lat="43.400787" lon="10.9085681"><ele>346.0</ele><time>2026-04-18T10:29:41.417Z</time></trkpt><trkpt lat="43.4007069" lon="10.908561"><ele>346.0</ele><time>2026-04-18T10:29:42.407Z</time></trkpt><trkpt lat="43.4006287" lon="10.9085621"><ele>346.0</ele><time>2026-04-18T10:29:43.419Z</time></trkpt><trkpt lat="43.4005476" lon="10.9085592"><ele>346.0</ele><time>2026-04-18T10:29:44.43Z</time></trkpt><trkpt lat="43.4004711" lon="10.9085531"><ele>346.4</ele><time>2026-04-18T10:29:45.428Z</time></trkpt><trkpt lat="43.4004014" lon="10.9085509"><ele>346.8</ele><time>2026-04-18T10:29:46.433Z</time></trkpt><trkpt lat="43.4002961" lon="10.9084572"><ele>347.2</ele><time>2026-04-18T10:29:48.411Z</time></trkpt><trkpt lat="43.4002473" lon="10.9082993"><ele>347.59999999999997</ele><time>2026-04-18T10:29:50.405Z</time></trkpt><trkpt lat="43.4002014" lon="10.9081486"><ele>348.0</ele><time>2026-04-18T10:29:52.415Z</time></trkpt><trkpt lat="43.400129" lon="10.9080167"><ele>348.42857142857144</ele><time>2026-04-18T10:29:54.404Z</time></trkpt><trkpt lat="43.4001006" lon="10.9079219"><ele>348.8571428571429</ele><time>2026-04-18T10:29:55.402Z</time></trkpt><trkpt lat="43.4000856" lon="10.9078256"><ele>349.28571428571433</ele><time>2026-04-18T10:29:56.399Z</time></trkpt><trkpt lat="43.4000935" lon="10.9077307"><ele>349.7142857142857</ele><time>2026-04-18T10:29:57.407Z</time></trkpt><trkpt lat="43.4000969" lon="10.9076349"><ele>350.14285714285717</ele><time>2026-04-18T10:29:58.408Z</time></trkpt><trkpt lat="43.400106" lon="10.9075384"><ele>350.5714285714286</ele><time>2026-04-18T10:29:59.407Z</time></trkpt><trkpt lat="43.4001171" lon="10.9074449"><ele>351.0</ele><time>2026-04-18T10:30:00.406Z</time></trkpt><trkpt lat="43.4001364" lon="10.9073475"><ele>349.8333333333333</ele><time>2026-04-18T10:30:01.401Z</time></trkpt><trkpt lat="43.4001573" lon="10.9072318"><ele>348.6666666666667</ele><time>2026-04-18T10:30:02.401Z</time></trkpt><trkpt lat="43.4001868" lon="10.9071229"><ele>347.5</ele><time>2026-04-18T10:30:03.424Z</time></trkpt><trkpt lat="43.4002178" lon="10.907001"><ele>346.33333333333337</ele><time>2026-04-18T10:30:04.426Z</time></trkpt><trkpt lat="43.400238" lon="10.9068865"><ele>345.1666666666667</ele><time>2026-04-18T10:30:05.402Z</time></trkpt><trkpt lat="43.4002627" lon="10.9067734"><ele>344.0</ele><time>2026-04-18T10:30:06.398Z</time></trkpt><trkpt lat="43.3999097" lon="10.9053883"><ele>343.25</ele><time>2026-04-18T10:30:18.611Z</time></trkpt><trkpt lat="43.3998906" lon="10.9051832"><ele>342.5</ele><time>2026-04-18T10:30:20.385Z</time></trkpt><trkpt lat="43.3998531" lon="10.905045"><ele>341.75</ele><time>2026-04-18T10:30:22.395Z</time></trkpt><trkpt lat="43.3998204" lon="10.9049186"><ele>341.0</ele><time>2026-04-18T10:30:24.411Z</time></trkpt><trkpt lat="43.3997065" lon="10.9049181"><ele>341.0</ele><time>2026-04-18T10:30:26.386Z</time></trkpt><trkpt lat="43.3996416" lon="10.9050292"><ele>341.0</ele><time>2026-04-18T10:30:28.389Z</time></trkpt><trkpt lat="43.3996016" lon="10.9052095"><ele>341.0</ele><time>2026-04-18T10:30:30.395Z</time></trkpt><trkpt lat="43.3996191" lon="10.9053158"><ele>341.0</ele><time>2026-04-18T10:30:31.39Z</time></trkpt><trkpt lat="43.3996485" lon="10.9054084"><ele>341.0</ele><time>2026-04-18T10:30:32.398Z</time></trkpt><trkpt lat="43.3996839" lon="10.9054923"><ele>341.0</ele><time>2026-04-18T10:30:33.393Z</time></trkpt><trkpt lat="43.3996981" lon="10.9056276"><ele>341.0</ele><time>2026-04-18T10:30:35.392Z</time></trkpt><trkpt lat="43.3996481" lon="10.9056898"><ele>341.0</ele><time>2026-04-18T10:30:37.401Z</time></trkpt><trkpt lat="43.3995666" lon="10.9056356"><ele>341.0</ele><time>2026-04-18T10:30:39.402Z</time></trkpt><trkpt lat="43.3994766" lon="10.9055166"><ele>341.0</ele><time>2026-04-18T10:30:41.391Z</time></trkpt><trkpt lat="43.3994409" lon="10.905415"><ele>336.83333333333337</ele><time>2026-04-18T10:30:42.39Z</time></trkpt><trkpt lat="43.3994055" lon="10.9053081"><ele>332.6666666666667</ele><time>2026-04-18T10:30:43.39Z</time></trkpt><trkpt lat="43.3993794" lon="10.9051878"><ele>328.5</ele><time>2026-04-18T10:30:44.406Z</time></trkpt><trkpt lat="43.3993491" lon="10.9050748"><ele>324.3333333333333</ele><time>2026-04-18T10:30:45.399Z</time></trkpt><trkpt lat="43.3993204" lon="10.9049737"><ele>320.16666666666663</ele><time>2026-04-18T10:30:46.391Z</time></trkpt><trkpt lat="43.3992958" lon="10.9048771"><ele>316.0</ele><time>2026-04-18T10:30:47.385Z</time></trkpt><trkpt lat="43.399282" lon="10.9047858"><ele>264.0</ele><time>2026-04-18T10:30:48.404Z</time></trkpt><trkpt lat="43.3970208" lon="10.9053135"><ele>264.0</ele><time>2026-04-18T10:32:11.411Z</time></trkpt></trkseg><trkseg><trkpt lat="43.3932179" lon="10.8938927"><ele>348.0</ele><time>2026-04-18T10:37:27.384Z</time></trkpt><trkpt lat="43.3933197" lon="10.8938322"><ele>348.0</ele><time>2026-04-18T10:37:28.387Z</time></trkpt><trkpt lat="43.3934296" lon="10.8937544"><ele>348.0</ele><time>2026-04-18T10:37:29.387Z</time></trkpt><trkpt lat="43.3935302" lon="10.893661"><ele>348.0</ele><time>2026-04-18T10:37:30.392Z</time></trkpt><trkpt lat="43.3936205" lon="10.8935499"><ele>346.25</ele><time>2026-04-18T10:37:31.396Z</time></trkpt><trkpt lat="43.3936979" lon="10.8934141"><ele>344.5</ele><time>2026-04-18T10:37:32.41Z</time></trkpt><trkpt lat="43.3937603" lon="10.8932587"><ele>342.75</ele><time>2026-04-18T10:37:33.411Z</time></trkpt><trkpt lat="43.3938217" lon="10.8931082"><ele>341.0</ele><time>2026-04-18T10:37:34.395Z</time></trkpt><trkpt lat="43.3938838" lon="10.8929588"><ele>341.0</ele><time>2026-04-18T10:37:35.404Z</time></trkpt><trkpt lat="43.3939288" lon="10.8928168"><ele>341.0</ele><time>2026-04-18T10:37:36.399Z</time></trkpt><trkpt lat="43.393952" lon="10.8926731"><ele>341.0</ele><time>2026-04-18T10:37:37.406Z</time></trkpt><trkpt lat="43.3939554" lon="10.8925211"><ele>341.0</ele><time>2026-04-18T10:37:38.405Z</time></trkpt><trkpt lat="43.3939341" lon="10.8923822"><ele>341.0</ele><time>2026-04-18T10:37:39.4Z</time></trkpt><trkpt lat="43.3938611" lon="10.8922509"><ele>340.5</ele><time>2026-04-18T10:37:40.409Z</time></trkpt><trkpt lat="43.3937712" lon="10.892124"><ele>340.0</ele><time>2026-04-18T10:37:41.404Z</time></trkpt><trkpt lat="43.3936761" lon="10.8920102"><ele>339.5</ele><time>2026-04-18T10:37:42.408Z</time></trkpt><trkpt lat="43.3935861" lon="10.8918937"><ele>339.0</ele><time>2026-04-18T10:37:43.403Z</time></trkpt><trkpt lat="43.3934983" lon="10.8917754"><ele>342.5</ele><time>2026-04-18T10:37:44.404Z</time></trkpt><trkpt lat="43.3934191" lon="10.8916426"><ele>346.0</ele><time>2026-04-18T10:37:45.407Z</time></trkpt><trkpt lat="43.3933501" lon="10.891496"><ele>349.5</ele><time>2026-04-18T10:37:46.398Z</time></trkpt><trkpt lat="43.3932876" lon="10.8913433"><ele>353.0</ele><time>2026-04-18T10:37:47.412Z</time></trkpt><trkpt lat="43.3932307" lon="10.8912002"><ele>353.0</ele><time>2026-04-18T10:37:48.403Z</time></trkpt><trkpt lat="43.3931701" lon="10.891069"><ele>353.0</ele><time>2026-04-18T10:37:49.419Z</time></trkpt><trkpt lat="43.3931169" lon="10.8909364"><ele>353.0</ele><time>2026-04-18T10:37:50.406Z</time></trkpt><trkpt lat="43.3930809" lon="10.8908057"><ele>353.0</ele><time>2026-04-18T10:37:51.417Z</time></trkpt><trkpt lat="43.393081" lon="10.8906676"><ele>353.0</ele><time>2026-04-18T10:37:52.414Z</time></trkpt><trkpt lat="43.3931139" lon="10.8905271"><ele>356.0</ele><time>2026-04-18T10:37:53.403Z</time></trkpt><trkpt lat="43.3931654" lon="10.890405"><ele>359.0</ele><time>2026-04-18T10:37:54.41Z</time></trkpt><trkpt lat="43.3932287" lon="10.8902755"><ele>362.0</ele><time>2026-04-18T10:37:55.419Z</time></trkpt><trkpt lat="43.3932809" lon="10.8901319"><ele>365.0</ele><time>2026-04-18T10:37:56.42Z</time></trkpt><trkpt lat="43.3933375" lon="10.8899884"><ele>365.0</ele><time>2026-04-18T10:37:57.399Z</time></trkpt><trkpt lat="43.3933947" lon="10.8898443"><ele>365.0</ele><time>2026-04-18T10:37:58.399Z</time></trkpt><trkpt lat="43.3934585" lon="10.8897019"><ele>365.0</ele><time>2026-04-18T10:37:59.399Z</time></trkpt><trkpt lat="43.3935261" lon="10.8895664"><ele>365.0</ele><time>2026-04-18T10:38:00.396Z</time></trkpt><trkpt lat="43.3935953" lon="10.8894321"><ele>365.0</ele><time>2026-04-18T10:38:01.397Z</time></trkpt><trkpt lat="43.3936779" lon="10.8893054"><ele>365.0</ele><time>2026-04-18T10:38:02.413Z</time></trkpt><trkpt lat="43.3937789" lon="10.8891916"><ele>365.0</ele><time>2026-04-18T10:38:03.397Z</time></trkpt><trkpt lat="43.3938873" lon="10.8891053"><ele>365.0</ele><time>2026-04-18T10:38:04.396Z</time></trkpt><trkpt lat="43.3939965" lon="10.8890283"><ele>367.75</ele><time>2026-04-18T10:38:05.398Z</time></trkpt><trkpt lat="43.3941071" lon="10.8889544"><ele>370.5</ele><time>2026-04-18T10:38:06.41Z</time></trkpt><trkpt lat="43.3942177" lon="10.8888789"><ele>373.25</ele><time>2026-04-18T10:38:07.383Z</time></trkpt><trkpt lat="43.3943275" lon="10.8887991"><ele>376.0</ele><time>2026-04-18T10:38:08.395Z</time></trkpt><trkpt lat="43.3944213" lon="10.888698"><ele>376.0</ele><time>2026-04-18T10:38:09.397Z</time></trkpt><trkpt lat="43.3944931" lon="10.8885812"><ele>376.0</ele><time>2026-04-18T10:38:10.395Z</time></trkpt><trkpt lat="43.3945482" lon="10.8884567"><ele>376.0</ele><time>2026-04-18T10:38:11.396Z</time></trkpt><trkpt lat="43.3945776" lon="10.8883338"><ele>376.0</ele><time>2026-04-18T10:38:12.392Z</time></trkpt><trkpt lat="43.3946153" lon="10.8882335"><ele>376.0</ele><time>2026-04-18T10:38:13.402Z</time></trkpt><trkpt lat="43.3946635" lon="10.8881537"><ele>376.8333333333333</ele><time>2026-04-18T10:38:14.405Z</time></trkpt><trkpt lat="43.3947241" lon="10.8880941"><ele>377.66666666666663</ele><time>2026-04-18T10:38:15.403Z</time></trkpt><trkpt lat="43.3947984" lon="10.888076"><ele>378.5</ele><time>2026-04-18T10:38:16.408Z</time></trkpt><trkpt lat="43.3948645" lon="10.8881197"><ele>379.3333333333333</ele><time>2026-04-18T10:38:17.397Z</time></trkpt><trkpt lat="43.3949106" lon="10.8882075"><ele>380.1666666666667</ele><time>2026-04-18T10:38:18.395Z</time></trkpt><trkpt lat="43.3949284" lon="10.8883311"><ele>381.0</ele><time>2026-04-18T10:38:19.396Z</time></trkpt><trkpt lat="43.3949259" lon="10.8884544"><ele>381.6</ele><time>2026-04-18T10:38:20.398Z</time></trkpt><trkpt lat="43.3949151" lon="10.8885866"><ele>382.20000000000005</ele><time>2026-04-18T10:38:21.381Z</time></trkpt><trkpt lat="43.3948921" lon="10.8887285"><ele>382.79999999999995</ele><time>2026-04-18T10:38:22.395Z</time></trkpt><trkpt lat="43.3948579" lon="10.8888644"><ele>383.4</ele><time>2026-04-18T10:38:23.399Z</time></trkpt><trkpt lat="43.394841" lon="10.8890148"><ele>384.0</ele><time>2026-04-18T10:38:24.392Z</time></trkpt><trkpt lat="43.3948564" lon="10.8891554"><ele>384.79999999999995</ele><time>2026-04-18T10:38:25.403Z</time></trkpt><trkpt lat="43.3948958" lon="10.8892762"><ele>385.59999999999997</ele><time>2026-04-18T10:38:26.413Z</time></trkpt><trkpt lat="43.3949562" lon="10.8893664"><ele>386.4</ele><time>2026-04-18T10:38:27.396Z</time></trkpt><trkpt lat="43.3950388" lon="10.8894125"><ele>387.2</ele><time>2026-04-18T10:38:28.41Z</time></trkpt><trkpt lat="43.3951327" lon="10.8894007"><ele>388.0</ele><time>2026-04-18T10:38:29.389Z</time></trkpt><trkpt lat="43.3952164" lon="10.8893327"><ele>387.0</ele><time>2026-04-18T10:38:30.402Z</time></trkpt><trkpt lat="43.3952753" lon="10.8892068"><ele>386.0</ele><time>2026-04-18T10:38:31.393Z</time></trkpt><trkpt lat="43.3953323" lon="10.8890559"><ele>385.0</ele><time>2026-04-18T10:38:32.391Z</time></trkpt><trkpt lat="43.3953881" lon="10.8889138"><ele>384.0</ele><time>2026-04-18T10:38:33.389Z</time></trkpt><trkpt lat="43.395446" lon="10.8887758"><ele>382.25</ele><time>2026-04-18T10:38:34.401Z</time></trkpt><trkpt lat="43.3955071" lon="10.8886355"><ele>380.5</ele><time>2026-04-18T10:38:35.395Z</time></trkpt><trkpt lat="43.3955731" lon="10.8884908"><ele>378.75</ele><time>2026-04-18T10:38:36.401Z</time></trkpt><trkpt lat="43.3956412" lon="10.8883395"><ele>377.0</ele><time>2026-04-18T10:38:37.394Z</time></trkpt><trkpt lat="43.3957059" lon="10.8882014"><ele>379.8</ele><time>2026-04-18T10:38:38.395Z</time></trkpt><trkpt lat="43.3957859" lon="10.8880832"><ele>382.6</ele><time>2026-04-18T10:38:39.393Z</time></trkpt><trkpt lat="43.3958843" lon="10.8879964"><ele>385.40000000000003</ele><time>2026-04-18T10:38:40.405Z</time></trkpt><trkpt lat="43.3959831" lon="10.8879152"><ele>388.20000000000005</ele><time>2026-04-18T10:38:41.393Z</time></trkpt><trkpt lat="43.39605" lon="10.8878245"><ele>391.0</ele><time>2026-04-18T10:38:42.398Z</time></trkpt><trkpt lat="43.3960854" lon="10.8877146"><ele>392.5</ele><time>2026-04-18T10:38:43.396Z</time></trkpt><trkpt lat="43.3961024" lon="10.8875733"><ele>394.0</ele><time>2026-04-18T10:38:44.404Z</time></trkpt><trkpt lat="43.3960872" lon="10.8874074"><ele>395.5</ele><time>2026-04-18T10:38:45.4Z</time></trkpt><trkpt lat="43.3960662" lon="10.8872466"><ele>397.0</ele><time>2026-04-18T10:38:46.41Z</time></trkpt><trkpt lat="43.3960378" lon="10.8870775"><ele>397.0</ele><time>2026-04-18T10:38:47.413Z</time></trkpt><trkpt lat="43.3960226" lon="10.8868972"><ele>397.0</ele><time>2026-04-18T10:38:48.397Z</time></trkpt><trkpt lat="43.3960189" lon="10.8867264"><ele>397.0</ele><time>2026-04-18T10:38:49.395Z</time></trkpt><trkpt lat="43.3960266" lon="10.8865453"><ele>397.0</ele><time>2026-04-18T10:38:50.399Z</time></trkpt><trkpt lat="43.3960644" lon="10.8863846"><ele>397.75</ele><time>2026-04-18T10:38:51.393Z</time></trkpt><trkpt lat="43.3961271" lon="10.8862324"><ele>398.5</ele><time>2026-04-18T10:38:52.391Z</time></trkpt><trkpt lat="43.3962103" lon="10.8860786"><ele>399.25</ele><time>2026-04-18T10:38:53.394Z</time></trkpt><trkpt lat="43.3962973" lon="10.8859291"><ele>400.0</ele><time>2026-04-18T10:38:54.403Z</time></trkpt><trkpt lat="43.3964001" lon="10.8857759"><ele>403.0</ele><time>2026-04-18T10:38:55.394Z</time></trkpt><trkpt lat="43.396506" lon="10.8856126"><ele>406.0</ele><time>2026-04-18T10:38:56.393Z</time></trkpt><trkpt lat="43.3966095" lon="10.885446"><ele>409.0</ele><time>2026-04-18T10:38:57.385Z</time></trkpt><trkpt lat="43.3967115" lon="10.8852834"><ele>409.0</ele><time>2026-04-18T10:38:58.396Z</time></trkpt><trkpt lat="43.3968119" lon="10.8851222"><ele>409.0</ele><time>2026-04-18T10:38:59.396Z</time></trkpt><trkpt lat="43.396915" lon="10.8849583"><ele>409.0</ele><time>2026-04-18T10:39:00.406Z</time></trkpt><trkpt lat="43.3970164" lon="10.8847944"><ele>409.0</ele><time>2026-04-18T10:39:01.398Z</time></trkpt><trkpt lat="43.3971193" lon="10.8846229"><ele>409.0</ele><time>2026-04-18T10:39:02.4Z</time></trkpt><trkpt lat="43.3972098" lon="10.884454"><ele>409.0</ele><time>2026-04-18T10:39:03.399Z</time></trkpt><trkpt lat="43.3972829" lon="10.8843"><ele>409.0</ele><time>2026-04-18T10:39:04.398Z</time></trkpt><trkpt lat="43.3973384" lon="10.8841362"><ele>409.0</ele><time>2026-04-18T10:39:05.41Z</time></trkpt><trkpt lat="43.3973431" lon="10.8839699"><ele>409.0</ele><time>2026-04-18T10:39:06.395Z</time></trkpt><trkpt lat="43.397331" lon="10.8838041"><ele>409.0</ele><time>2026-04-18T10:39:07.4Z</time></trkpt><trkpt lat="43.397304" lon="10.8836557"><ele>409.0</ele><time>2026-04-18T10:39:08.406Z</time></trkpt><trkpt lat="43.3972839" lon="10.883488"><ele>410.75</ele><time>2026-04-18T10:39:09.389Z</time></trkpt><trkpt lat="43.3972685" lon="10.8833052"><ele>412.5</ele><time>2026-04-18T10:39:10.401Z</time></trkpt><trkpt lat="43.3972634" lon="10.8830926"><ele>414.25</ele><time>2026-04-18T10:39:11.396Z</time></trkpt><trkpt lat="43.3972611" lon="10.8828844"><ele>416.0</ele><time>2026-04-18T10:39:12.399Z</time></trkpt><trkpt lat="43.3972681" lon="10.8826679"><ele>418.3333333333333</ele><time>2026-04-18T10:39:13.411Z</time></trkpt><trkpt lat="43.3972665" lon="10.8824628"><ele>420.66666666666663</ele><time>2026-04-18T10:39:14.407Z</time></trkpt><trkpt lat="43.3972589" lon="10.8822441"><ele>423.0</ele><time>2026-04-18T10:39:15.394Z</time></trkpt><trkpt lat="43.397233" lon="10.8820236"><ele>423.0</ele><time>2026-04-18T10:39:16.414Z</time></trkpt><trkpt lat="43.3971865" lon="10.881809"><ele>423.0</ele><time>2026-04-18T10:39:17.394Z</time></trkpt><trkpt lat="43.3971404" lon="10.8816102"><ele>423.0</ele><time>2026-04-18T10:39:18.395Z</time></trkpt><trkpt lat="43.3970875" lon="10.8813985"><ele>423.33333333333337</ele><time>2026-04-18T10:39:19.402Z</time></trkpt><trkpt lat="43.397041" lon="10.8811935"><ele>423.6666666666667</ele><time>2026-04-18T10:39:20.393Z</time></trkpt><trkpt lat="43.3969989" lon="10.8810002"><ele>424.0</ele><time>2026-04-18T10:39:21.404Z</time></trkpt><trkpt lat="43.3969614" lon="10.880793"><ele>424.0</ele><time>2026-04-18T10:39:22.413Z</time></trkpt><trkpt lat="43.3969326" lon="10.8805835"><ele>424.0</ele><time>2026-04-18T10:39:23.4Z</time></trkpt><trkpt lat="43.3969114" lon="10.8803756"><ele>424.0</ele><time>2026-04-18T10:39:24.41Z</time></trkpt><trkpt lat="43.3968971" lon="10.8801826"><ele>424.0</ele><time>2026-04-18T10:39:25.402Z</time></trkpt><trkpt lat="43.3968819" lon="10.8800008"><ele>426.25</ele><time>2026-04-18T10:39:26.409Z</time></trkpt><trkpt lat="43.3968591" lon="10.8798194"><ele>428.5</ele><time>2026-04-18T10:39:27.401Z</time></trkpt><trkpt lat="43.3968292" lon="10.8796351"><ele>430.75</ele><time>2026-04-18T10:39:28.393Z</time></trkpt><trkpt lat="43.3968055" lon="10.8794517"><ele>433.0</ele><time>2026-04-18T10:39:29.399Z</time></trkpt><trkpt lat="43.3967855" lon="10.879262"><ele>434.75</ele><time>2026-04-18T10:39:30.404Z</time></trkpt><trkpt lat="43.3967784" lon="10.8790668"><ele>436.5</ele><time>2026-04-18T10:39:31.395Z</time></trkpt><trkpt lat="43.3967794" lon="10.8788697"><ele>438.25</ele><time>2026-04-18T10:39:32.385Z</time></trkpt><trkpt lat="43.3967916" lon="10.8786775"><ele>440.0</ele><time>2026-04-18T10:39:33.393Z</time></trkpt><trkpt lat="43.396837" lon="10.8785191"><ele>439.75</ele><time>2026-04-18T10:39:34.394Z</time></trkpt><trkpt lat="43.3969114" lon="10.8783668"><ele>439.5</ele><time>2026-04-18T10:39:35.392Z</time></trkpt><trkpt lat="43.396986" lon="10.8782134"><ele>439.25</ele><time>2026-04-18T10:39:36.392Z</time></trkpt><trkpt lat="43.3970358" lon="10.8780541"><ele>439.0</ele><time>2026-04-18T10:39:37.389Z</time></trkpt><trkpt lat="43.3970732" lon="10.8778847"><ele>439.0</ele><time>2026-04-18T10:39:38.392Z</time></trkpt><trkpt lat="43.3971043" lon="10.8776954"><ele>439.0</ele><time>2026-04-18T10:39:39.393Z</time></trkpt><trkpt lat="43.397127" lon="10.877489"><ele>439.0</ele><time>2026-04-18T10:39:40.403Z</time></trkpt><trkpt lat="43.397145" lon="10.8772859"><ele>439.0</ele><time>2026-04-18T10:39:41.394Z</time></trkpt><trkpt lat="43.3971605" lon="10.8771116"><ele>445.5</ele><time>2026-04-18T10:39:42.388Z</time></trkpt><trkpt lat="43.3971761" lon="10.8769468"><ele>452.0</ele><time>2026-04-18T10:39:43.396Z</time></trkpt><trkpt lat="43.3972015" lon="10.8767795"><ele>458.5</ele><time>2026-04-18T10:39:44.394Z</time></trkpt><trkpt lat="43.3972299" lon="10.8766049"><ele>465.0</ele><time>2026-04-18T10:39:45.398Z</time></trkpt><trkpt lat="43.3972671" lon="10.8764369"><ele>465.5</ele><time>2026-04-18T10:39:46.403Z</time></trkpt><trkpt lat="43.3973008" lon="10.8762683"><ele>466.0</ele><time>2026-04-18T10:39:47.398Z</time></trkpt><trkpt lat="43.3973415" lon="10.8760961"><ele>466.5</ele><time>2026-04-18T10:39:48.391Z</time></trkpt><trkpt lat="43.3974017" lon="10.8759324"><ele>467.0</ele><time>2026-04-18T10:39:49.402Z</time></trkpt><trkpt lat="43.3974771" lon="10.8757671"><ele>467.0</ele><time>2026-04-18T10:39:50.399Z</time></trkpt><trkpt lat="43.3975418" lon="10.8755939"><ele>467.0</ele><time>2026-04-18T10:39:51.397Z</time></trkpt><trkpt lat="43.3976074" lon="10.87542"><ele>467.0</ele><time>2026-04-18T10:39:52.395Z</time></trkpt><trkpt lat="43.3976599" lon="10.8752491"><ele>467.0</ele><time>2026-04-18T10:39:53.389Z</time></trkpt><trkpt lat="43.3977089" lon="10.8750971"><ele>466.25</ele><time>2026-04-18T10:39:54.404Z</time></trkpt><trkpt lat="43.3977589" lon="10.8749477"><ele>465.5</ele><time>2026-04-18T10:39:55.381Z</time></trkpt><trkpt lat="43.3978138" lon="10.8747982"><ele>464.75</ele><time>2026-04-18T10:39:56.396Z</time></trkpt><trkpt lat="43.3978741" lon="10.8746437"><ele>464.0</ele><time>2026-04-18T10:39:57.403Z</time></trkpt><trkpt lat="43.3979453" lon="10.8745119"><ele>468.25</ele><time>2026-04-18T10:39:58.398Z</time></trkpt><trkpt lat="43.3980226" lon="10.8743884"><ele>472.5</ele><time>2026-04-18T10:39:59.405Z</time></trkpt><trkpt lat="43.3981148" lon="10.8742581"><ele>476.75</ele><time>2026-04-18T10:40:00.394Z</time></trkpt><trkpt lat="43.3982024" lon="10.87414"><ele>481.0</ele><time>2026-04-18T10:40:01.398Z</time></trkpt><trkpt lat="43.3982906" lon="10.8740173"><ele>481.0</ele><time>2026-04-18T10:40:02.399Z</time></trkpt><trkpt lat="43.3983717" lon="10.873903"><ele>481.0</ele><time>2026-04-18T10:40:03.394Z</time></trkpt><trkpt lat="43.3984411" lon="10.8737965"><ele>481.0</ele><time>2026-04-18T10:40:04.399Z</time></trkpt><trkpt lat="43.3984977" lon="10.8736887"><ele>481.0</ele><time>2026-04-18T10:40:05.391Z</time></trkpt><trkpt lat="43.3985494" lon="10.8735691"><ele>481.0</ele><time>2026-04-18T10:40:06.397Z</time></trkpt><trkpt lat="43.3986027" lon="10.87345"><ele>480.25</ele><time>2026-04-18T10:40:07.387Z</time></trkpt><trkpt lat="43.3986612" lon="10.8733131"><ele>479.5</ele><time>2026-04-18T10:40:08.395Z</time></trkpt><trkpt lat="43.3987248" lon="10.8731659"><ele>478.75</ele><time>2026-04-18T10:40:09.39Z</time></trkpt><trkpt lat="43.3987939" lon="10.8730254"><ele>478.0</ele><time>2026-04-18T10:40:10.391Z</time></trkpt><trkpt lat="43.3988651" lon="10.8728876"><ele>480.4</ele><time>2026-04-18T10:40:11.412Z</time></trkpt><trkpt lat="43.398934" lon="10.8727613"><ele>482.79999999999995</ele><time>2026-04-18T10:40:12.41Z</time></trkpt><trkpt lat="43.3990028" lon="10.8726481"><ele>485.2</ele><time>2026-04-18T10:40:13.401Z</time></trkpt><trkpt lat="43.399061" lon="10.8725358"><ele>487.6</ele><time>2026-04-18T10:40:14.406Z</time></trkpt><trkpt lat="43.3991221" lon="10.8724297"><ele>490.0</ele><time>2026-04-18T10:40:15.393Z</time></trkpt><trkpt lat="43.3991904" lon="10.8723299"><ele>490.0</ele><time>2026-04-18T10:40:16.397Z</time></trkpt><trkpt lat="43.3992616" lon="10.8722313"><ele>490.0</ele><time>2026-04-18T10:40:17.397Z</time></trkpt><trkpt lat="43.399337" lon="10.8721332"><ele>490.0</ele><time>2026-04-18T10:40:18.391Z</time></trkpt><trkpt lat="43.3994054" lon="10.8720363"><ele>490.0</ele><time>2026-04-18T10:40:19.401Z</time></trkpt><trkpt lat="43.3994786" lon="10.8719345"><ele>490.0</ele><time>2026-04-18T10:40:20.395Z</time></trkpt><trkpt lat="43.3995496" lon="10.8718428"><ele>490.4</ele><time>2026-04-18T10:40:21.393Z</time></trkpt><trkpt lat="43.3996126" lon="10.871744"><ele>490.8</ele><time>2026-04-18T10:40:22.398Z</time></trkpt><trkpt lat="43.3996655" lon="10.8716341"><ele>491.20000000000005</ele><time>2026-04-18T10:40:23.394Z</time></trkpt><trkpt lat="43.3997129" lon="10.8715291"><ele>491.6</ele><time>2026-04-18T10:40:24.404Z</time></trkpt><trkpt lat="43.3997528" lon="10.8714119"><ele>492.0</ele><time>2026-04-18T10:40:25.388Z</time></trkpt><trkpt lat="43.3997872" lon="10.8713023"><ele>493.0</ele><time>2026-04-18T10:40:26.397Z</time></trkpt><trkpt lat="43.3998146" lon="10.8711847"><ele>494.00000000000006</ele><time>2026-04-18T10:40:27.395Z</time></trkpt><trkpt lat="43.3998334" lon="10.8710621"><ele>495.00000000000006</ele><time>2026-04-18T10:40:28.392Z</time></trkpt><trkpt lat="43.3998412" lon="10.8709268"><ele>496.0</ele><time>2026-04-18T10:40:29.395Z</time></trkpt><trkpt lat="43.3998438" lon="10.8707675"><ele>497.0</ele><time>2026-04-18T10:40:30.398Z</time></trkpt><trkpt lat="43.3998405" lon="10.8706207"><ele>497.0</ele><time>2026-04-18T10:40:31.39Z</time></trkpt><trkpt lat="43.3998234" lon="10.8704693"><ele>497.00000000000006</ele><time>2026-04-18T10:40:32.391Z</time></trkpt><trkpt lat="43.3998029" lon="10.8703155"><ele>497.00000000000006</ele><time>2026-04-18T10:40:33.394Z</time></trkpt><trkpt lat="43.3997779" lon="10.8701762"><ele>497.0</ele><time>2026-04-18T10:40:34.399Z</time></trkpt><trkpt lat="43.3997522" lon="10.8700404"><ele>497.0</ele><time>2026-04-18T10:40:35.4Z</time></trkpt><trkpt lat="43.399728" lon="10.8699022"><ele>497.49999999999994</ele><time>2026-04-18T10:40:36.393Z</time></trkpt><trkpt lat="43.3997081" lon="10.8697682"><ele>498.0</ele><time>2026-04-18T10:40:37.387Z</time></trkpt><trkpt lat="43.3996906" lon="10.869636"><ele>498.5</ele><time>2026-04-18T10:40:38.4Z</time></trkpt><trkpt lat="43.3996791" lon="10.8695161"><ele>499.0</ele><time>2026-04-18T10:40:39.396Z</time></trkpt><trkpt lat="43.3996691" lon="10.8694164"><ele>499.49999999999994</ele><time>2026-04-18T10:40:40.403Z</time></trkpt><trkpt lat="43.3996587" lon="10.8693307"><ele>500.0</ele><time>2026-04-18T10:40:41.382Z</time></trkpt><trkpt lat="43.3996431" lon="10.869178"><ele>500.16666666666663</ele><time>2026-04-18T10:40:43.409Z</time></trkpt><trkpt lat="43.3996576" lon="10.8690322"><ele>500.3333333333333</ele><time>2026-04-18T10:40:45.396Z</time></trkpt><trkpt lat="43.3996784" lon="10.8689004"><ele>500.5</ele><time>2026-04-18T10:40:47.39Z</time></trkpt><trkpt lat="43.3996841" lon="10.8688069"><ele>500.66666666666663</ele><time>2026-04-18T10:40:49.389Z</time></trkpt><trkpt lat="43.3996921" lon="10.86872"><ele>500.8333333333333</ele><time>2026-04-18T10:40:56.395Z</time></trkpt><trkpt lat="43.3996432" lon="10.8686387"><ele>501.0</ele><time>2026-04-18T10:42:17.412Z</time></trkpt><trkpt lat="43.3995829" lon="10.8686103"><ele>501.0</ele><time>2026-04-18T10:42:23.394Z</time></trkpt><trkpt lat="43.3995217" lon="10.8685387"><ele>501.0</ele><time>2026-04-18T10:44:47.401Z</time></trkpt><trkpt lat="43.3994469" lon="10.8684835"><ele>501.0</ele><time>2026-04-18T10:44:50.413Z</time></trkpt><trkpt lat="43.3994057" lon="10.8683834"><ele>501.0</ele><time>2026-04-18T10:44:52.416Z</time></trkpt><trkpt lat="43.399371" lon="10.8682282"><ele>501.0</ele><time>2026-04-18T10:44:54.423Z</time></trkpt><trkpt lat="43.3993509" lon="10.8681317"><ele>501.0</ele><time>2026-04-18T10:44:55.411Z</time></trkpt><trkpt lat="43.3993258" lon="10.8680184"><ele>501.0</ele><time>2026-04-18T10:44:56.414Z</time></trkpt><trkpt lat="43.3993051" lon="10.8679161"><ele>501.0</ele><time>2026-04-18T10:44:57.407Z</time></trkpt><trkpt lat="43.399281" lon="10.8677957"><ele>501.0</ele><time>2026-04-18T10:44:58.408Z</time></trkpt><trkpt lat="43.3992603" lon="10.8676593"><ele>501.0</ele><time>2026-04-18T10:44:59.404Z</time></trkpt><trkpt lat="43.3992456" lon="10.8675188"><ele>501.0</ele><time>2026-04-18T10:45:00.395Z</time></trkpt><trkpt lat="43.3992412" lon="10.8673592"><ele>502.5</ele><time>2026-04-18T10:45:01.414Z</time></trkpt><trkpt lat="43.3992397" lon="10.8672072"><ele>504.0</ele><time>2026-04-18T10:45:02.407Z</time></trkpt><trkpt lat="43.3992422" lon="10.8670546"><ele>505.5</ele><time>2026-04-18T10:45:03.41Z</time></trkpt><trkpt lat="43.399248" lon="10.8668972"><ele>507.0</ele><time>2026-04-18T10:45:04.394Z</time></trkpt><trkpt lat="43.3992538" lon="10.8667357"><ele>508.75</ele><time>2026-04-18T10:45:05.417Z</time></trkpt><trkpt lat="43.3992603" lon="10.8665646"><ele>510.5</ele><time>2026-04-18T10:45:06.406Z</time></trkpt><trkpt lat="43.3992599" lon="10.8663991"><ele>512.25</ele><time>2026-04-18T10:45:07.402Z</time></trkpt><trkpt lat="43.3992618" lon="10.8662447"><ele>514.0</ele><time>2026-04-18T10:45:08.398Z</time></trkpt><trkpt lat="43.3992691" lon="10.8661031"><ele>514.0</ele><time>2026-04-18T10:45:09.408Z</time></trkpt><trkpt lat="43.3992778" lon="10.8659765"><ele>514.0</ele><time>2026-04-18T10:45:10.391Z</time></trkpt><trkpt lat="43.3992863" lon="10.8658438"><ele>514.0</ele><time>2026-04-18T10:45:11.406Z</time></trkpt><trkpt lat="43.3992875" lon="10.8657192"><ele>514.0</ele><time>2026-04-18T10:45:12.4Z</time></trkpt><trkpt lat="43.3992811" lon="10.8656036"><ele>514.0</ele><time>2026-04-18T10:45:13.403Z</time></trkpt><trkpt lat="43.3992599" lon="10.8654959"><ele>514.0</ele><time>2026-04-18T10:45:14.4Z</time></trkpt><trkpt lat="43.3992287" lon="10.8653936"><ele>514.5</ele><time>2026-04-18T10:45:15.407Z</time></trkpt><trkpt lat="43.399206" lon="10.8652829"><ele>515.0</ele><time>2026-04-18T10:45:16.405Z</time></trkpt><trkpt lat="43.3992013" lon="10.8651639"><ele>515.5</ele><time>2026-04-18T10:45:17.415Z</time></trkpt><trkpt lat="43.3992087" lon="10.8650256"><ele>516.0</ele><time>2026-04-18T10:45:18.39Z</time></trkpt><trkpt lat="43.3992191" lon="10.8649019"><ele>516.5</ele><time>2026-04-18T10:45:19.411Z</time></trkpt><trkpt lat="43.3992303" lon="10.8647826"><ele>517.0</ele><time>2026-04-18T10:45:20.402Z</time></trkpt><trkpt lat="43.3992385" lon="10.8646586"><ele>517.0</ele><time>2026-04-18T10:45:21.4Z</time></trkpt><trkpt lat="43.3992479" lon="10.8645328"><ele>517.0</ele><time>2026-04-18T10:45:22.394Z</time></trkpt><trkpt lat="43.3992615" lon="10.8643877"><ele>517.0</ele><time>2026-04-18T10:45:23.405Z</time></trkpt><trkpt lat="43.3992733" lon="10.8642429"><ele>517.0</ele><time>2026-04-18T10:45:24.39Z</time></trkpt><trkpt lat="43.3992847" lon="10.8641069"><ele>517.0</ele><time>2026-04-18T10:45:25.401Z</time></trkpt><trkpt lat="43.3992967" lon="10.8639686"><ele>516.6</ele><time>2026-04-18T10:45:26.402Z</time></trkpt><trkpt lat="43.3993022" lon="10.8638393"><ele>516.2</ele><time>2026-04-18T10:45:27.4Z</time></trkpt><trkpt lat="43.3993084" lon="10.8636943"><ele>515.8</ele><time>2026-04-18T10:45:28.413Z</time></trkpt><trkpt lat="43.3993179" lon="10.8635517"><ele>515.4</ele><time>2026-04-18T10:45:29.407Z</time></trkpt><trkpt lat="43.3993283" lon="10.8634025"><ele>515.0</ele><time>2026-04-18T10:45:30.409Z</time></trkpt><trkpt lat="43.399337" lon="10.8632538"><ele>514.0</ele><time>2026-04-18T10:45:31.4Z</time></trkpt><trkpt lat="43.3993437" lon="10.8631042"><ele>513.0</ele><time>2026-04-18T10:45:32.425Z</time></trkpt><trkpt lat="43.3993541" lon="10.8629478"><ele>512.0</ele><time>2026-04-18T10:45:33.407Z</time></trkpt><trkpt lat="43.3993662" lon="10.8627986"><ele>511.0</ele><time>2026-04-18T10:45:34.412Z</time></trkpt><trkpt lat="43.3993774" lon="10.8626389"><ele>510.0</ele><time>2026-04-18T10:45:35.393Z</time></trkpt><trkpt lat="43.3993919" lon="10.8624847"><ele>508.25</ele><time>2026-04-18T10:45:36.397Z</time></trkpt><trkpt lat="43.3994005" lon="10.8623237"><ele>506.5</ele><time>2026-04-18T10:45:37.399Z</time></trkpt><trkpt lat="43.3994074" lon="10.8621583"><ele>504.75</ele><time>2026-04-18T10:45:38.384Z</time></trkpt><trkpt lat="43.3994152" lon="10.8619874"><ele>503.0</ele><time>2026-04-18T10:45:39.398Z</time></trkpt><trkpt lat="43.3994265" lon="10.8618106"><ele>501.0</ele><time>2026-04-18T10:45:40.397Z</time></trkpt><trkpt lat="43.3994426" lon="10.8616391"><ele>499.0</ele><time>2026-04-18T10:45:41.393Z</time></trkpt><trkpt lat="43.3994615" lon="10.861463"><ele>497.0</ele><time>2026-04-18T10:45:42.395Z</time></trkpt><trkpt lat="43.3994742" lon="10.8612932"><ele>495.0</ele><time>2026-04-18T10:45:43.396Z</time></trkpt><trkpt lat="43.3994791" lon="10.8611273"><ele>495.0</ele><time>2026-04-18T10:45:44.4Z</time></trkpt><trkpt lat="43.3994862" lon="10.8609673"><ele>495.0</ele><time>2026-04-18T10:45:45.39Z</time></trkpt><trkpt lat="43.3994882" lon="10.8608137"><ele>495.0</ele><time>2026-04-18T10:45:46.393Z</time></trkpt><trkpt lat="43.399492" lon="10.8606684"><ele>495.0</ele><time>2026-04-18T10:45:47.386Z</time></trkpt><trkpt lat="43.3995017" lon="10.8605317"><ele>495.0</ele><time>2026-04-18T10:45:48.404Z</time></trkpt><trkpt lat="43.3995162" lon="10.8604033"><ele>494.0</ele><time>2026-04-18T10:45:49.39Z</time></trkpt><trkpt lat="43.399529" lon="10.8602682"><ele>493.0</ele><time>2026-04-18T10:45:50.405Z</time></trkpt><trkpt lat="43.3995439" lon="10.8601371"><ele>492.0</ele><time>2026-04-18T10:45:51.404Z</time></trkpt><trkpt lat="43.3995457" lon="10.8600105"><ele>491.0</ele><time>2026-04-18T10:45:52.391Z</time></trkpt><trkpt lat="43.3995559" lon="10.8598972"><ele>490.0</ele><time>2026-04-18T10:45:53.391Z</time></trkpt><trkpt lat="43.3995708" lon="10.8597837"><ele>489.33333333333337</ele><time>2026-04-18T10:45:54.392Z</time></trkpt><trkpt lat="43.3995787" lon="10.8596658"><ele>488.6666666666667</ele><time>2026-04-18T10:45:55.4Z</time></trkpt><trkpt lat="43.3995847" lon="10.8595573"><ele>488.0</ele><time>2026-04-18T10:45:56.386Z</time></trkpt><trkpt lat="43.3996051" lon="10.8594483"><ele>487.33333333333337</ele><time>2026-04-18T10:45:57.416Z</time></trkpt><trkpt lat="43.3996469" lon="10.8593503"><ele>486.6666666666667</ele><time>2026-04-18T10:45:58.403Z</time></trkpt><trkpt lat="43.3997016" lon="10.8592564"><ele>486.0</ele><time>2026-04-18T10:45:59.39Z</time></trkpt><trkpt lat="43.3997645" lon="10.859175"><ele>488.6</ele><time>2026-04-18T10:46:00.399Z</time></trkpt><trkpt lat="43.3998329" lon="10.8590919"><ele>491.20000000000005</ele><time>2026-04-18T10:46:01.396Z</time></trkpt><trkpt lat="43.3999037" lon="10.8589953"><ele>493.79999999999995</ele><time>2026-04-18T10:46:02.395Z</time></trkpt><trkpt lat="43.3999741" lon="10.8588949"><ele>496.4</ele><time>2026-04-18T10:46:03.392Z</time></trkpt><trkpt lat="43.4000461" lon="10.8588027"><ele>499.0</ele><time>2026-04-18T10:46:04.4Z</time></trkpt><trkpt lat="43.4001201" lon="10.8587076"><ele>499.0</ele><time>2026-04-18T10:46:05.389Z</time></trkpt><trkpt lat="43.4001953" lon="10.8586141"><ele>499.0</ele><time>2026-04-18T10:46:06.41Z</time></trkpt><trkpt lat="43.4002608" lon="10.8585195"><ele>499.0</ele><time>2026-04-18T10:46:07.414Z</time></trkpt><trkpt lat="43.4003206" lon="10.8584119"><ele>499.0</ele><time>2026-04-18T10:46:08.394Z</time></trkpt><trkpt lat="43.4003822" lon="10.8583163"><ele>499.0</ele><time>2026-04-18T10:46:09.402Z</time></trkpt><trkpt lat="43.4004368" lon="10.8582451"><ele>501.00000000000006</ele><time>2026-04-18T10:46:10.399Z</time></trkpt><trkpt lat="43.4004883" lon="10.8581869"><ele>503.0</ele><time>2026-04-18T10:46:15.392Z</time></trkpt><trkpt lat="43.4005334" lon="10.8581241"><ele>505.0</ele><time>2026-04-18T10:46:17.399Z</time></trkpt><trkpt lat="43.4005295" lon="10.8580016"><ele>507.0</ele><time>2026-04-18T10:46:20.402Z</time></trkpt><trkpt lat="43.4004139" lon="10.8579796"><ele>509.00000000000006</ele><time>2026-04-18T10:46:22.391Z</time></trkpt><trkpt lat="43.4003466" lon="10.8579978"><ele>511.0</ele><time>2026-04-18T10:46:23.404Z</time></trkpt><trkpt lat="43.4002744" lon="10.8580295"><ele>506.83333333333337</ele><time>2026-04-18T10:46:24.401Z</time></trkpt><trkpt lat="43.4001956" lon="10.858066"><ele>502.6666666666667</ele><time>2026-04-18T10:46:25.397Z</time></trkpt><trkpt lat="43.4001269" lon="10.8581107"><ele>498.5</ele><time>2026-04-18T10:46:26.393Z</time></trkpt><trkpt lat="43.4000452" lon="10.8581472"><ele>494.33333333333337</ele><time>2026-04-18T10:46:27.403Z</time></trkpt><trkpt lat="43.3999561" lon="10.8581822"><ele>490.1666666666667</ele><time>2026-04-18T10:46:28.394Z</time></trkpt><trkpt lat="43.3998556" lon="10.8581986"><ele>486.0</ele><time>2026-04-18T10:46:29.41Z</time></trkpt><trkpt lat="43.3997638" lon="10.8582262"><ele>486.0</ele><time>2026-04-18T10:46:30.41Z</time></trkpt><trkpt lat="43.3996706" lon="10.8582521"><ele>486.0</ele><time>2026-04-18T10:46:31.392Z</time></trkpt><trkpt lat="43.3995683" lon="10.8582848"><ele>486.0</ele><time>2026-04-18T10:46:32.404Z</time></trkpt><trkpt lat="43.399467" lon="10.8583263"><ele>486.0</ele><time>2026-04-18T10:46:33.401Z</time></trkpt><trkpt lat="43.3993664" lon="10.8583735"><ele>486.0</ele><time>2026-04-18T10:46:34.4Z</time></trkpt><trkpt lat="43.3992804" lon="10.8584391"><ele>484.8</ele><time>2026-04-18T10:46:35.411Z</time></trkpt><trkpt lat="43.3991979" lon="10.858501"><ele>483.6</ele><time>2026-04-18T10:46:36.402Z</time></trkpt><trkpt lat="43.3991234" lon="10.8585887"><ele>482.4</ele><time>2026-04-18T10:46:37.417Z</time></trkpt><trkpt lat="43.3990519" lon="10.8587093"><ele>481.2</ele><time>2026-04-18T10:46:38.406Z</time></trkpt><trkpt lat="43.3989872" lon="10.8588278"><ele>480.0</ele><time>2026-04-18T10:46:39.405Z</time></trkpt><trkpt lat="43.398931" lon="10.8589374"><ele>480.0</ele><time>2026-04-18T10:46:40.417Z</time></trkpt><trkpt lat="43.3988896" lon="10.8590386"><ele>480.0</ele><time>2026-04-18T10:46:41.41Z</time></trkpt><trkpt lat="43.3988629" lon="10.8591301"><ele>480.0</ele><time>2026-04-18T10:46:42.412Z</time></trkpt><trkpt lat="43.3988299" lon="10.8592381"><ele>480.0</ele><time>2026-04-18T10:46:44.416Z</time></trkpt><trkpt lat="43.3987802" lon="10.8593034"><ele>480.0</ele><time>2026-04-18T10:46:53.406Z</time></trkpt><trkpt lat="43.3987224" lon="10.8593601"><ele>480.0</ele><time>2026-04-18T10:46:55.402Z</time></trkpt><trkpt lat="43.3986596" lon="10.8594947"><ele>477.3333333333333</ele><time>2026-04-18T10:46:57.402Z</time></trkpt><trkpt lat="43.3986177" lon="10.8596575"><ele>474.66666666666663</ele><time>2026-04-18T10:46:59.403Z</time></trkpt><trkpt lat="43.3986244" lon="10.8597657"><ele>472.0</ele><time>2026-04-18T10:47:00.407Z</time></trkpt><trkpt lat="43.3986356" lon="10.8598708"><ele>469.3333333333333</ele><time>2026-04-18T10:47:01.404Z</time></trkpt><trkpt lat="43.3986467" lon="10.859979"><ele>466.66666666666663</ele><time>2026-04-18T10:47:02.417Z</time></trkpt><trkpt lat="43.3986652" lon="10.860085"><ele>464.0</ele><time>2026-04-18T10:47:03.406Z</time></trkpt><trkpt lat="43.3986884" lon="10.860196"><ele>464.0</ele><time>2026-04-18T10:47:04.411Z</time></trkpt><trkpt lat="43.3987059" lon="10.8603102"><ele>464.0</ele><time>2026-04-18T10:47:05.397Z</time></trkpt><trkpt lat="43.3987198" lon="10.8604362"><ele>464.0</ele><time>2026-04-18T10:47:06.402Z</time></trkpt><trkpt lat="43.3987243" lon="10.8605682"><ele>464.0</ele><time>2026-04-18T10:47:07.391Z</time></trkpt><trkpt lat="43.3987195" lon="10.8607008"><ele>464.0</ele><time>2026-04-18T10:47:08.4Z</time></trkpt><trkpt lat="43.3987089" lon="10.8608215"><ele>463.99999999999994</ele><time>2026-04-18T10:47:09.399Z</time></trkpt><trkpt lat="43.398695" lon="10.86093"><ele>464.0</ele><time>2026-04-18T10:47:10.4Z</time></trkpt><trkpt lat="43.3986757" lon="10.8610271"><ele>464.0</ele><time>2026-04-18T10:47:11.395Z</time></trkpt><trkpt lat="43.3986455" lon="10.8611163"><ele>464.0</ele><time>2026-04-18T10:47:12.401Z</time></trkpt><trkpt lat="43.3986062" lon="10.8612032"><ele>463.99999999999994</ele><time>2026-04-18T10:47:13.393Z</time></trkpt><trkpt lat="43.3985441" lon="10.8612843"><ele>464.0</ele><time>2026-04-18T10:47:14.403Z</time></trkpt><trkpt lat="43.3984778" lon="10.8613598"><ele>465.0</ele><time>2026-04-18T10:47:15.398Z</time></trkpt><trkpt lat="43.3984108" lon="10.8614487"><ele>466.0</ele><time>2026-04-18T10:47:16.397Z</time></trkpt><trkpt lat="43.3983404" lon="10.8615521"><ele>467.0</ele><time>2026-04-18T10:47:17.389Z</time></trkpt><trkpt lat="43.3982678" lon="10.8616691"><ele>468.0</ele><time>2026-04-18T10:47:18.396Z</time></trkpt><trkpt lat="43.3982017" lon="10.8617925"><ele>469.0</ele><time>2026-04-18T10:47:19.391Z</time></trkpt><trkpt lat="43.3981432" lon="10.861906"><ele>470.2</ele><time>2026-04-18T10:47:20.4Z</time></trkpt><trkpt lat="43.3980812" lon="10.8620118"><ele>471.4</ele><time>2026-04-18T10:47:21.396Z</time></trkpt><trkpt lat="43.3980162" lon="10.8621103"><ele>472.6</ele><time>2026-04-18T10:47:22.396Z</time></trkpt><trkpt lat="43.3979479" lon="10.8621952"><ele>473.8</ele><time>2026-04-18T10:47:23.389Z</time></trkpt><trkpt lat="43.3978742" lon="10.8622636"><ele>475.0</ele><time>2026-04-18T10:47:24.39Z</time></trkpt><trkpt lat="43.3977911" lon="10.8623081"><ele>472.4</ele><time>2026-04-18T10:47:25.392Z</time></trkpt><trkpt lat="43.3976972" lon="10.8623362"><ele>469.8</ele><time>2026-04-18T10:47:26.399Z</time></trkpt><trkpt lat="43.3976045" lon="10.8623768"><ele>467.20000000000005</ele><time>2026-04-18T10:47:27.402Z</time></trkpt><trkpt lat="43.3975242" lon="10.8624112"><ele>464.6</ele><time>2026-04-18T10:47:28.395Z</time></trkpt><trkpt lat="43.3974425" lon="10.8624381"><ele>462.0</ele><time>2026-04-18T10:47:29.398Z</time></trkpt><trkpt lat="43.3973522" lon="10.8624549"><ele>462.0</ele><time>2026-04-18T10:47:30.393Z</time></trkpt><trkpt lat="43.397254" lon="10.8624659"><ele>462.0</ele><time>2026-04-18T10:47:31.4Z</time></trkpt><trkpt lat="43.3971595" lon="10.8624651"><ele>462.0</ele><time>2026-04-18T10:47:32.404Z</time></trkpt><trkpt lat="43.397072" lon="10.8624498"><ele>462.0</ele><time>2026-04-18T10:47:33.391Z</time></trkpt><trkpt lat="43.3969987" lon="10.8624238"><ele>462.0</ele><time>2026-04-18T10:47:34.391Z</time></trkpt><trkpt lat="43.3969316" lon="10.862391"><ele>462.0</ele><time>2026-04-18T10:47:35.387Z</time></trkpt><trkpt lat="43.3968701" lon="10.8623629"><ele>461.6</ele><time>2026-04-18T10:47:36.4Z</time></trkpt><trkpt lat="43.3967525" lon="10.8623572"><ele>461.20000000000005</ele><time>2026-04-18T10:47:38.4Z</time></trkpt><trkpt lat="43.3966244" lon="10.8623909"><ele>460.8</ele><time>2026-04-18T10:47:40.402Z</time></trkpt><trkpt lat="43.3965482" lon="10.8624161"><ele>460.4</ele><time>2026-04-18T10:47:41.4Z</time></trkpt><trkpt lat="43.3964647" lon="10.8624449"><ele>460.0</ele><time>2026-04-18T10:47:42.407Z</time></trkpt><trkpt lat="43.3963746" lon="10.8624703"><ele>457.8</ele><time>2026-04-18T10:47:43.418Z</time></trkpt><trkpt lat="43.3962767" lon="10.8625132"><ele>455.6</ele><time>2026-04-18T10:47:44.403Z</time></trkpt><trkpt lat="43.396172" lon="10.8625615"><ele>453.4</ele><time>2026-04-18T10:47:45.391Z</time></trkpt><trkpt lat="43.3960788" lon="10.8626015"><ele>451.2</ele><time>2026-04-18T10:47:46.396Z</time></trkpt><trkpt lat="43.3959954" lon="10.8626358"><ele>449.0</ele><time>2026-04-18T10:47:47.39Z</time></trkpt><trkpt lat="43.3959219" lon="10.86267"><ele>448.99999999999994</ele><time>2026-04-18T10:47:48.391Z</time></trkpt><trkpt lat="43.3958515" lon="10.8626917"><ele>449.0</ele><time>2026-04-18T10:47:49.407Z</time></trkpt><trkpt lat="43.3957761" lon="10.8626961"><ele>449.0</ele><time>2026-04-18T10:47:50.401Z</time></trkpt><trkpt lat="43.3956977" lon="10.8626705"><ele>449.0</ele><time>2026-04-18T10:47:51.403Z</time></trkpt><trkpt lat="43.3956089" lon="10.8626371"><ele>448.99999999999994</ele><time>2026-04-18T10:47:52.398Z</time></trkpt><trkpt lat="43.3955052" lon="10.8626141"><ele>449.0</ele><time>2026-04-18T10:47:53.397Z</time></trkpt><trkpt lat="43.3954032" lon="10.8625948"><ele>447.8333333333333</ele><time>2026-04-18T10:47:54.414Z</time></trkpt><trkpt lat="43.3953102" lon="10.8625599"><ele>446.66666666666663</ele><time>2026-04-18T10:47:55.4Z</time></trkpt><trkpt lat="43.3952234" lon="10.8625256"><ele>445.5</ele><time>2026-04-18T10:47:56.404Z</time></trkpt><trkpt lat="43.3951437" lon="10.8625013"><ele>444.33333333333337</ele><time>2026-04-18T10:47:57.391Z</time></trkpt><trkpt lat="43.395074" lon="10.8624764"><ele>443.1666666666667</ele><time>2026-04-18T10:47:58.408Z</time></trkpt><trkpt lat="43.3950014" lon="10.862471"><ele>442.0</ele><time>2026-04-18T10:47:59.412Z</time></trkpt><trkpt lat="43.394923" lon="10.8624991"><ele>442.0</ele><time>2026-04-18T10:48:00.417Z</time></trkpt><trkpt lat="43.3948388" lon="10.8625419"><ele>442.00000000000006</ele><time>2026-04-18T10:48:01.401Z</time></trkpt><trkpt lat="43.3947545" lon="10.8625913"><ele>442.00000000000006</ele><time>2026-04-18T10:48:02.39Z</time></trkpt><trkpt lat="43.3946683" lon="10.8626622"><ele>442.0</ele><time>2026-04-18T10:48:03.4Z</time></trkpt><trkpt lat="43.3945803" lon="10.8627256"><ele>442.0</ele><time>2026-04-18T10:48:04.403Z</time></trkpt><trkpt lat="43.3944956" lon="10.8627839"><ele>439.40000000000003</ele><time>2026-04-18T10:48:05.401Z</time></trkpt><trkpt lat="43.3944084" lon="10.8628471"><ele>436.80000000000007</ele><time>2026-04-18T10:48:06.404Z</time></trkpt><trkpt lat="43.3943213" lon="10.8629126"><ele>434.2</ele><time>2026-04-18T10:48:07.408Z</time></trkpt><trkpt lat="43.3942311" lon="10.8629727"><ele>431.6</ele><time>2026-04-18T10:48:08.406Z</time></trkpt><trkpt lat="43.3941428" lon="10.8630299"><ele>429.0</ele><time>2026-04-18T10:48:09.404Z</time></trkpt><trkpt lat="43.3940627" lon="10.8630837"><ele>429.0</ele><time>2026-04-18T10:48:10.402Z</time></trkpt><trkpt lat="43.3939827" lon="10.8631196"><ele>429.0</ele><time>2026-04-18T10:48:11.408Z</time></trkpt><trkpt lat="43.3939082" lon="10.863136"><ele>429.0</ele><time>2026-04-18T10:48:12.408Z</time></trkpt><trkpt lat="43.39383" lon="10.8631441"><ele>429.0</ele><time>2026-04-18T10:48:13.411Z</time></trkpt><trkpt lat="43.3937183" lon="10.8631161"><ele>429.0</ele><time>2026-04-18T10:48:15.403Z</time></trkpt><trkpt lat="43.3936571" lon="10.8630017"><ele>426.3333333333333</ele><time>2026-04-18T10:48:17.401Z</time></trkpt><trkpt lat="43.3936616" lon="10.8629063"><ele>423.66666666666663</ele><time>2026-04-18T10:48:18.406Z</time></trkpt><trkpt lat="43.3936562" lon="10.8627963"><ele>421.0</ele><time>2026-04-18T10:48:19.402Z</time></trkpt><trkpt lat="43.3936497" lon="10.862669"><ele>418.3333333333333</ele><time>2026-04-18T10:48:20.403Z</time></trkpt><trkpt lat="43.3936345" lon="10.8625407"><ele>415.66666666666663</ele><time>2026-04-18T10:48:21.409Z</time></trkpt><trkpt lat="43.3936109" lon="10.8624067"><ele>413.0</ele><time>2026-04-18T10:48:22.394Z</time></trkpt><trkpt lat="43.3935828" lon="10.8622615"><ele>412.25</ele><time>2026-04-18T10:48:23.404Z</time></trkpt><trkpt lat="43.3935555" lon="10.8621224"><ele>411.5</ele><time>2026-04-18T10:48:24.405Z</time></trkpt><trkpt lat="43.3935172" lon="10.8619734"><ele>410.75</ele><time>2026-04-18T10:48:25.411Z</time></trkpt><trkpt lat="43.3934738" lon="10.8618182"><ele>410.0</ele><time>2026-04-18T10:48:26.404Z</time></trkpt><trkpt lat="43.3934218" lon="10.8616732"><ele>410.0</ele><time>2026-04-18T10:48:27.402Z</time></trkpt><trkpt lat="43.393365" lon="10.8615361"><ele>410.0</ele><time>2026-04-18T10:48:28.408Z</time></trkpt><trkpt lat="43.3933117" lon="10.8613895"><ele>410.0</ele><time>2026-04-18T10:48:29.412Z</time></trkpt><trkpt lat="43.3932641" lon="10.8612454"><ele>410.0</ele><time>2026-04-18T10:48:30.396Z</time></trkpt><trkpt lat="43.3932247" lon="10.8611076"><ele>410.0</ele><time>2026-04-18T10:48:31.41Z</time></trkpt><trkpt lat="43.393191" lon="10.8609799"><ele>410.0</ele><time>2026-04-18T10:48:32.407Z</time></trkpt><trkpt lat="43.3931647" lon="10.8608698"><ele>410.0</ele><time>2026-04-18T10:48:33.419Z</time></trkpt><trkpt lat="43.3931421" lon="10.8607852"><ele>410.0</ele><time>2026-04-18T10:48:34.415Z</time></trkpt><trkpt lat="43.39305" lon="10.8607131"><ele>410.0</ele><time>2026-04-18T10:48:36.41Z</time></trkpt><trkpt lat="43.3929539" lon="10.8607646"><ele>406.16666666666663</ele><time>2026-04-18T10:48:38.408Z</time></trkpt><trkpt lat="43.3929202" lon="10.8608482"><ele>402.3333333333333</ele><time>2026-04-18T10:48:39.413Z</time></trkpt><trkpt lat="43.3929022" lon="10.8609671"><ele>398.5</ele><time>2026-04-18T10:48:40.413Z</time></trkpt><trkpt lat="43.3928962" lon="10.8610802"><ele>394.66666666666663</ele><time>2026-04-18T10:48:41.402Z</time></trkpt><trkpt lat="43.3928911" lon="10.8611961"><ele>390.8333333333333</ele><time>2026-04-18T10:48:42.395Z</time></trkpt><trkpt lat="43.3928914" lon="10.8613131"><ele>387.0</ele><time>2026-04-18T10:48:43.395Z</time></trkpt><trkpt lat="43.3928894" lon="10.861438"><ele>387.0</ele><time>2026-04-18T10:48:44.423Z</time></trkpt><trkpt lat="43.3928751" lon="10.8615589"><ele>387.0</ele><time>2026-04-18T10:48:45.406Z</time></trkpt><trkpt lat="43.3928266" lon="10.8616699"><ele>387.0</ele><time>2026-04-18T10:48:46.413Z</time></trkpt><trkpt lat="43.3927549" lon="10.8617595"><ele>387.0</ele><time>2026-04-18T10:48:47.392Z</time></trkpt><trkpt lat="43.3926697" lon="10.8618383"><ele>387.0</ele><time>2026-04-18T10:48:48.403Z</time></trkpt><trkpt lat="43.3925744" lon="10.861894"><ele>387.5</ele><time>2026-04-18T10:48:49.402Z</time></trkpt><trkpt lat="43.3924897" lon="10.8619408"><ele>388.0</ele><time>2026-04-18T10:48:50.4Z</time></trkpt><trkpt lat="43.3924129" lon="10.8619724"><ele>388.5</ele><time>2026-04-18T10:48:51.395Z</time></trkpt><trkpt lat="43.3923522" lon="10.8620061"><ele>389.0</ele><time>2026-04-18T10:48:52.402Z</time></trkpt><trkpt lat="43.3922784" lon="10.8621015"><ele>389.5</ele><time>2026-04-18T10:48:54.409Z</time></trkpt><trkpt lat="43.3922475" lon="10.8621966"><ele>390.0</ele><time>2026-04-18T10:48:56.389Z</time></trkpt><trkpt lat="43.392219" lon="10.8623196"><ele>390.0</ele><time>2026-04-18T10:48:58.4Z</time></trkpt><trkpt lat="43.3921992" lon="10.8624498"><ele>390.0</ele><time>2026-04-18T10:49:00.398Z</time></trkpt><trkpt lat="43.3921942" lon="10.8625516"><ele>390.0</ele><time>2026-04-18T10:49:02.401Z</time></trkpt><trkpt lat="43.3922053" lon="10.8626804"><ele>390.0</ele><time>2026-04-18T10:49:05.401Z</time></trkpt><trkpt lat="43.3922189" lon="10.8627717"><ele>390.0</ele><time>2026-04-18T10:49:07.394Z</time></trkpt><trkpt lat="43.3922103" lon="10.8628764"><ele>390.0</ele><time>2026-04-18T10:49:10.391Z</time></trkpt><trkpt lat="43.3922125" lon="10.8627834"><ele>390.0</ele><time>2026-04-18T10:49:26.392Z</time></trkpt><trkpt lat="43.3922202" lon="10.8626852"><ele>390.0</ele><time>2026-04-18T10:49:42.401Z</time></trkpt><trkpt lat="43.3922081" lon="10.8625492"><ele>390.0</ele><time>2026-04-18T10:49:45.404Z</time></trkpt><trkpt lat="43.3922183" lon="10.8624363"><ele>390.0</ele><time>2026-04-18T10:49:47.403Z</time></trkpt><trkpt lat="43.3922494" lon="10.8623062"><ele>390.0</ele><time>2026-04-18T10:49:49.395Z</time></trkpt><trkpt lat="43.3922728" lon="10.8622126"><ele>390.0</ele><time>2026-04-18T10:49:50.389Z</time></trkpt><trkpt lat="43.3923091" lon="10.8621149"><ele>390.0</ele><time>2026-04-18T10:49:51.386Z</time></trkpt><trkpt lat="43.3923488" lon="10.8620306"><ele>390.0</ele><time>2026-04-18T10:49:52.4Z</time></trkpt><trkpt lat="43.3923976" lon="10.8619615"><ele>390.0</ele><time>2026-04-18T10:49:53.392Z</time></trkpt><trkpt lat="43.3924573" lon="10.8619099"><ele>390.0</ele><time>2026-04-18T10:49:54.397Z</time></trkpt><trkpt lat="43.3925541" lon="10.8618598"><ele>390.0</ele><time>2026-04-18T10:49:56.396Z</time></trkpt><trkpt lat="43.3925475" lon="10.8617358"><ele>390.0</ele><time>2026-04-18T10:49:59.405Z</time></trkpt><trkpt lat="43.3925077" lon="10.8616347"><ele>389.25</ele><time>2026-04-18T10:50:00.396Z</time></trkpt><trkpt lat="43.3924273" lon="10.8614961"><ele>388.5</ele><time>2026-04-18T10:50:01.401Z</time></trkpt><trkpt lat="43.3923394" lon="10.8613133"><ele>387.75</ele><time>2026-04-18T10:50:02.401Z</time></trkpt><trkpt lat="43.3922843" lon="10.861167"><ele>387.0</ele><time>2026-04-18T10:50:03.407Z</time></trkpt><trkpt lat="43.3922387" lon="10.861024"><ele>386.6</ele><time>2026-04-18T10:50:04.409Z</time></trkpt><trkpt lat="43.3921791" lon="10.8609166"><ele>386.20000000000005</ele><time>2026-04-18T10:50:05.413Z</time></trkpt><trkpt lat="43.3920944" lon="10.8608216"><ele>385.8</ele><time>2026-04-18T10:50:06.409Z</time></trkpt><trkpt lat="43.3920019" lon="10.8607546"><ele>385.4</ele><time>2026-04-18T10:50:07.401Z</time></trkpt><trkpt lat="43.3919155" lon="10.8607121"><ele>385.0</ele><time>2026-04-18T10:50:08.4Z</time></trkpt><trkpt lat="43.3918234" lon="10.8606698"><ele>381.83333333333337</ele><time>2026-04-18T10:50:09.405Z</time></trkpt><trkpt lat="43.3917356" lon="10.8606217"><ele>378.6666666666667</ele><time>2026-04-18T10:50:10.41Z</time></trkpt><trkpt lat="43.3916447" lon="10.8605722"><ele>375.5</ele><time>2026-04-18T10:50:11.413Z</time></trkpt><trkpt lat="43.3915574" lon="10.8605295"><ele>372.33333333333337</ele><time>2026-04-18T10:50:12.421Z</time></trkpt><trkpt lat="43.3914776" lon="10.8604901"><ele>369.1666666666667</ele><time>2026-04-18T10:50:13.409Z</time></trkpt><trkpt lat="43.3914088" lon="10.8604428"><ele>366.0</ele><time>2026-04-18T10:50:14.402Z</time></trkpt><trkpt lat="43.3913502" lon="10.860369"><ele>363.20000000000005</ele><time>2026-04-18T10:50:15.408Z</time></trkpt><trkpt lat="43.3913091" lon="10.8602702"><ele>360.40000000000003</ele><time>2026-04-18T10:50:16.399Z</time></trkpt><trkpt lat="43.3912758" lon="10.8601601"><ele>357.6</ele><time>2026-04-18T10:50:17.403Z</time></trkpt><trkpt lat="43.3912507" lon="10.8600441"><ele>354.8</ele><time>2026-04-18T10:50:18.405Z</time></trkpt><trkpt lat="43.391219" lon="10.8599206"><ele>352.0</ele><time>2026-04-18T10:50:19.4Z</time></trkpt><trkpt lat="43.3911867" lon="10.8597929"><ele>351.40000000000003</ele><time>2026-04-18T10:50:20.406Z</time></trkpt><trkpt lat="43.3911527" lon="10.8596629"><ele>350.8</ele><time>2026-04-18T10:50:21.402Z</time></trkpt><trkpt lat="43.3911172" lon="10.8595232"><ele>350.2</ele><time>2026-04-18T10:50:22.399Z</time></trkpt><trkpt lat="43.3910821" lon="10.8593715"><ele>349.6</ele><time>2026-04-18T10:50:23.398Z</time></trkpt><trkpt lat="43.3910449" lon="10.8592235"><ele>349.0</ele><time>2026-04-18T10:50:24.397Z</time></trkpt><trkpt lat="43.3910145" lon="10.8590759"><ele>348.25</ele><time>2026-04-18T10:50:25.396Z</time></trkpt><trkpt lat="43.3909895" lon="10.8589249"><ele>347.5</ele><time>2026-04-18T10:50:26.41Z</time></trkpt><trkpt lat="43.3909726" lon="10.8587629"><ele>346.75</ele><time>2026-04-18T10:50:27.405Z</time></trkpt><trkpt lat="43.3909585" lon="10.8585964"><ele>346.0</ele><time>2026-04-18T10:50:28.413Z</time></trkpt><trkpt lat="43.3909462" lon="10.8584371"><ele>344.6</ele><time>2026-04-18T10:50:29.404Z</time></trkpt><trkpt lat="43.39093" lon="10.8582825"><ele>343.20000000000005</ele><time>2026-04-18T10:50:30.4Z</time></trkpt><trkpt lat="43.3909167" lon="10.8581455"><ele>341.79999999999995</ele><time>2026-04-18T10:50:31.401Z</time></trkpt><trkpt lat="43.3909013" lon="10.8580196"><ele>340.4</ele><time>2026-04-18T10:50:32.408Z</time></trkpt><trkpt lat="43.3908665" lon="10.8579162"><ele>339.0</ele><time>2026-04-18T10:50:33.396Z</time></trkpt><trkpt lat="43.3908077" lon="10.8578378"><ele>339.0</ele><time>2026-04-18T10:50:34.407Z</time></trkpt><trkpt lat="43.3907315" lon="10.8577551"><ele>339.0</ele><time>2026-04-18T10:50:35.401Z</time></trkpt><trkpt lat="43.3906364" lon="10.8576954"><ele>339.0</ele><time>2026-04-18T10:50:36.396Z</time></trkpt><trkpt lat="43.3905307" lon="10.857625"><ele>339.0</ele><time>2026-04-18T10:50:37.4Z</time></trkpt><trkpt lat="43.3904209" lon="10.8575362"><ele>339.0</ele><time>2026-04-18T10:50:38.4Z</time></trkpt><trkpt lat="43.3903024" lon="10.857442"><ele>336.0</ele><time>2026-04-18T10:50:39.414Z</time></trkpt><trkpt lat="43.3901895" lon="10.857344"><ele>333.0</ele><time>2026-04-18T10:50:40.396Z</time></trkpt><trkpt lat="43.3900754" lon="10.857259"><ele>330.0</ele><time>2026-04-18T10:50:41.404Z</time></trkpt><trkpt lat="43.3899787" lon="10.857186"><ele>327.0</ele><time>2026-04-18T10:50:42.399Z</time></trkpt><trkpt lat="43.3898952" lon="10.8571223"><ele>327.0</ele><time>2026-04-18T10:50:43.4Z</time></trkpt><trkpt lat="43.3898181" lon="10.8570621"><ele>327.0</ele><time>2026-04-18T10:50:44.401Z</time></trkpt><trkpt lat="43.3897507" lon="10.8569874"><ele>327.0</ele><time>2026-04-18T10:50:45.403Z</time></trkpt><trkpt lat="43.3896927" lon="10.8568757"><ele>327.0</ele><time>2026-04-18T10:50:46.395Z</time></trkpt><trkpt lat="43.3896325" lon="10.8567707"><ele>327.0</ele><time>2026-04-18T10:50:47.403Z</time></trkpt><trkpt lat="43.38956" lon="10.856682"><ele>325.40000000000003</ele><time>2026-04-18T10:50:48.396Z</time></trkpt><trkpt lat="43.3894706" lon="10.8566148"><ele>323.8</ele><time>2026-04-18T10:50:49.401Z</time></trkpt><trkpt lat="43.3893811" lon="10.8565453"><ele>322.2</ele><time>2026-04-18T10:50:50.391Z</time></trkpt><trkpt lat="43.3892943" lon="10.8564744"><ele>320.6</ele><time>2026-04-18T10:50:51.397Z</time></trkpt><trkpt lat="43.3892148" lon="10.8564135"><ele>319.0</ele><time>2026-04-18T10:50:52.398Z</time></trkpt><trkpt lat="43.3891379" lon="10.8563494"><ele>319.0</ele><time>2026-04-18T10:50:53.409Z</time></trkpt><trkpt lat="43.3890634" lon="10.8562874"><ele>319.0</ele><time>2026-04-18T10:50:54.416Z</time></trkpt><trkpt lat="43.3889901" lon="10.8562202"><ele>319.0</ele><time>2026-04-18T10:50:55.407Z</time></trkpt><trkpt lat="43.3889164" lon="10.8561569"><ele>319.0</ele><time>2026-04-18T10:50:56.403Z</time></trkpt><trkpt lat="43.3888589" lon="10.8560998"><ele>319.0</ele><time>2026-04-18T10:50:57.402Z</time></trkpt><trkpt lat="43.3887972" lon="10.8560493"><ele>319.0</ele><time>2026-04-18T10:50:58.407Z</time></trkpt><trkpt lat="43.3887463" lon="10.8559824"><ele>317.5</ele><time>2026-04-18T10:50:59.429Z</time></trkpt><trkpt lat="43.3886929" lon="10.8559041"><ele>316.0</ele><time>2026-04-18T10:51:00.408Z</time></trkpt><trkpt lat="43.3886493" lon="10.8558154"><ele>314.5</ele><time>2026-04-18T10:51:01.404Z</time></trkpt><trkpt lat="43.3886043" lon="10.8557135"><ele>313.0</ele><time>2026-04-18T10:51:02.415Z</time></trkpt><trkpt lat="43.3885625" lon="10.8556088"><ele>311.5</ele><time>2026-04-18T10:51:03.406Z</time></trkpt><trkpt lat="43.3885165" lon="10.8554992"><ele>310.0</ele><time>2026-04-18T10:51:04.407Z</time></trkpt><trkpt lat="43.3884673" lon="10.8553808"><ele>310.0</ele><time>2026-04-18T10:51:05.408Z</time></trkpt><trkpt lat="43.3884112" lon="10.8552555"><ele>310.0</ele><time>2026-04-18T10:51:06.419Z</time></trkpt><trkpt lat="43.3883566" lon="10.8551277"><ele>310.0</ele><time>2026-04-18T10:51:07.411Z</time></trkpt><trkpt lat="43.3883004" lon="10.855"><ele>310.0</ele><time>2026-04-18T10:51:08.408Z</time></trkpt><trkpt lat="43.3882492" lon="10.8548805"><ele>310.0</ele><time>2026-04-18T10:51:09.408Z</time></trkpt><trkpt lat="43.3882032" lon="10.854777"><ele>309.5</ele><time>2026-04-18T10:51:10.394Z</time></trkpt><trkpt lat="43.3881647" lon="10.8546795"><ele>309.0</ele><time>2026-04-18T10:51:11.414Z</time></trkpt><trkpt lat="43.3881249" lon="10.8545963"><ele>308.5</ele><time>2026-04-18T10:51:12.408Z</time></trkpt><trkpt lat="43.3880733" lon="10.8545131"><ele>308.0</ele><time>2026-04-18T10:51:13.407Z</time></trkpt><trkpt lat="43.3880029" lon="10.8544274"><ele>307.5</ele><time>2026-04-18T10:51:14.399Z</time></trkpt><trkpt lat="43.3879247" lon="10.8543328"><ele>307.0</ele><time>2026-04-18T10:51:15.416Z</time></trkpt><trkpt lat="43.3878346" lon="10.8542349"><ele>304.2</ele><time>2026-04-18T10:51:16.4Z</time></trkpt><trkpt lat="43.3877424" lon="10.8541419"><ele>301.4</ele><time>2026-04-18T10:51:17.412Z</time></trkpt><trkpt lat="43.387648" lon="10.8540535"><ele>298.6</ele><time>2026-04-18T10:51:18.409Z</time></trkpt><trkpt lat="43.3875654" lon="10.8539682"><ele>295.8</ele><time>2026-04-18T10:51:19.418Z</time></trkpt><trkpt lat="43.3875018" lon="10.8538971"><ele>293.0</ele><time>2026-04-18T10:51:20.4Z</time></trkpt><trkpt lat="43.3874486" lon="10.8538293"><ele>293.0</ele><time>2026-04-18T10:51:21.415Z</time></trkpt><trkpt lat="43.3873963" lon="10.8537629"><ele>293.0</ele><time>2026-04-18T10:51:22.404Z</time></trkpt><trkpt lat="43.3873451" lon="10.853701"><ele>293.0</ele><time>2026-04-18T10:51:23.413Z</time></trkpt><trkpt lat="43.3872772" lon="10.853653"><ele>293.0</ele><time>2026-04-18T10:51:24.411Z</time></trkpt><trkpt lat="43.3871994" lon="10.8536325"><ele>293.0</ele><time>2026-04-18T10:51:25.404Z</time></trkpt><trkpt lat="43.3871093" lon="10.8536377"><ele>293.0</ele><time>2026-04-18T10:51:26.416Z</time></trkpt><trkpt lat="43.3870138" lon="10.853667"><ele>291.5</ele><time>2026-04-18T10:51:27.408Z</time></trkpt><trkpt lat="43.3869177" lon="10.8536996"><ele>290.0</ele><time>2026-04-18T10:51:28.403Z</time></trkpt><trkpt lat="43.3868295" lon="10.8537357"><ele>288.5</ele><time>2026-04-18T10:51:29.416Z</time></trkpt><trkpt lat="43.3867486" lon="10.853776"><ele>287.0</ele><time>2026-04-18T10:51:30.405Z</time></trkpt><trkpt lat="43.3866884" lon="10.8538343"><ele>285.5</ele><time>2026-04-18T10:51:31.404Z</time></trkpt><trkpt lat="43.3866488" lon="10.8539155"><ele>284.0</ele><time>2026-04-18T10:51:32.412Z</time></trkpt><trkpt lat="43.3866341" lon="10.8540966"><ele>284.0</ele><time>2026-04-18T10:51:34.417Z</time></trkpt><trkpt lat="43.3866368" lon="10.8542097"><ele>284.0</ele><time>2026-04-18T10:51:35.432Z</time></trkpt><trkpt lat="43.3866298" lon="10.8543302"><ele>284.0</ele><time>2026-04-18T10:51:36.416Z</time></trkpt><trkpt lat="43.3866311" lon="10.8544407"><ele>284.0</ele><time>2026-04-18T10:51:37.419Z</time></trkpt><trkpt lat="43.3866255" lon="10.8545332"><ele>284.0</ele><time>2026-04-18T10:51:38.408Z</time></trkpt><trkpt lat="43.3866112" lon="10.8546388"><ele>284.0</ele><time>2026-04-18T10:51:40.402Z</time></trkpt><trkpt lat="43.386522" lon="10.854714"><ele>283.59999999999997</ele><time>2026-04-18T10:51:43.4Z</time></trkpt><trkpt lat="43.3863878" lon="10.8547313"><ele>283.2</ele><time>2026-04-18T10:51:45.407Z</time></trkpt><trkpt lat="43.3863084" lon="10.8547345"><ele>282.79999999999995</ele><time>2026-04-18T10:51:46.403Z</time></trkpt><trkpt lat="43.3862206" lon="10.8547486"><ele>282.4</ele><time>2026-04-18T10:51:47.4Z</time></trkpt><trkpt lat="43.3861357" lon="10.8547667"><ele>282.0</ele><time>2026-04-18T10:51:48.404Z</time></trkpt><trkpt lat="43.3860703" lon="10.8548106"><ele>280.0</ele><time>2026-04-18T10:51:49.402Z</time></trkpt><trkpt lat="43.3860219" lon="10.854875"><ele>278.0</ele><time>2026-04-18T10:51:50.405Z</time></trkpt><trkpt lat="43.385988" lon="10.8549486"><ele>276.0</ele><time>2026-04-18T10:51:51.403Z</time></trkpt><trkpt lat="43.3859461" lon="10.8550235"><ele>274.0</ele><time>2026-04-18T10:51:52.406Z</time></trkpt><trkpt lat="43.3858889" lon="10.8550715"><ele>272.0</ele><time>2026-04-18T10:51:53.408Z</time></trkpt><trkpt lat="43.3858218" lon="10.8550946"><ele>270.0</ele><time>2026-04-18T10:51:54.407Z</time></trkpt><trkpt lat="43.3857516" lon="10.8550964"><ele>268.0</ele><time>2026-04-18T10:51:55.41Z</time></trkpt><trkpt lat="43.3856859" lon="10.8550757"><ele>268.0</ele><time>2026-04-18T10:51:56.402Z</time></trkpt><trkpt lat="43.3856217" lon="10.8550325"><ele>268.0</ele><time>2026-04-18T10:51:57.404Z</time></trkpt><trkpt lat="43.3855481" lon="10.8549848"><ele>268.0</ele><time>2026-04-18T10:51:58.405Z</time></trkpt><trkpt lat="43.3854691" lon="10.8549337"><ele>268.0</ele><time>2026-04-18T10:51:59.397Z</time></trkpt><trkpt lat="43.3853862" lon="10.8548814"><ele>268.0</ele><time>2026-04-18T10:52:00.404Z</time></trkpt><trkpt lat="43.3852954" lon="10.8548343"><ele>268.0</ele><time>2026-04-18T10:52:01.395Z</time></trkpt><trkpt lat="43.3852032" lon="10.8547954"><ele>266.0</ele><time>2026-04-18T10:52:02.402Z</time></trkpt><trkpt lat="43.3851145" lon="10.8547558"><ele>264.0</ele><time>2026-04-18T10:52:03.391Z</time></trkpt><trkpt lat="43.3850233" lon="10.8547177"><ele>262.0</ele><time>2026-04-18T10:52:04.401Z</time></trkpt><trkpt lat="43.3849371" lon="10.8546828"><ele>260.0</ele><time>2026-04-18T10:52:05.4Z</time></trkpt><trkpt lat="43.3848646" lon="10.8546334"><ele>258.0</ele><time>2026-04-18T10:52:06.399Z</time></trkpt><trkpt lat="43.3847996" lon="10.8545793"><ele>256.0</ele><time>2026-04-18T10:52:07.404Z</time></trkpt><trkpt lat="43.3847434" lon="10.8545316"><ele>254.33333333333331</ele><time>2026-04-18T10:52:08.404Z</time></trkpt><trkpt lat="43.3846472" lon="10.8544827"><ele>252.66666666666666</ele><time>2026-04-18T10:52:10.391Z</time></trkpt><trkpt lat="43.3845538" lon="10.8544491"><ele>251.0</ele><time>2026-04-18T10:52:12.414Z</time></trkpt><trkpt lat="43.3844756" lon="10.8544463"><ele>249.33333333333331</ele><time>2026-04-18T10:52:14.407Z</time></trkpt><trkpt lat="43.384409" lon="10.8544424"><ele>247.66666666666666</ele><time>2026-04-18T10:52:16.399Z</time></trkpt><trkpt lat="43.3843328" lon="10.8544488"><ele>246.0</ele><time>2026-04-18T10:52:19.391Z</time></trkpt><trkpt lat="43.3842688" lon="10.8544545"><ele>246.0</ele><time>2026-04-18T10:52:23.424Z</time></trkpt><trkpt lat="43.3841945" lon="10.8544804"><ele>246.0</ele><time>2026-04-18T10:52:52.418Z</time></trkpt><trkpt lat="43.384129" lon="10.8545193"><ele>246.0</ele><time>2026-04-18T10:52:55.42Z</time></trkpt><trkpt lat="43.3840687" lon="10.8545666"><ele>246.0</ele><time>2026-04-18T10:52:57.416Z</time></trkpt><trkpt lat="43.3839935" lon="10.8546223"><ele>246.0</ele><time>2026-04-18T10:52:59.408Z</time></trkpt><trkpt lat="43.3839206" lon="10.8546095"><ele>246.0</ele><time>2026-04-18T10:53:02.4Z</time></trkpt><trkpt lat="43.3838713" lon="10.8545263"><ele>245.00000000000003</ele><time>2026-04-18T10:53:05.402Z</time></trkpt><trkpt lat="43.3838338" lon="10.8544284"><ele>244.0</ele><time>2026-04-18T10:53:08.398Z</time></trkpt><trkpt lat="43.3837908" lon="10.8543188"><ele>243.00000000000003</ele><time>2026-04-18T10:53:11.417Z</time></trkpt><trkpt lat="43.3837378" lon="10.8542629"><ele>242.00000000000003</ele><time>2026-04-18T10:53:39.415Z</time></trkpt><trkpt lat="43.3837591" lon="10.8541715"><ele>241.0</ele><time>2026-04-18T10:53:49.403Z</time></trkpt><trkpt lat="43.3837081" lon="10.8542402"><ele>240.00000000000003</ele><time>2026-04-18T10:54:16.403Z</time></trkpt><trkpt lat="43.3837596" lon="10.8543064"><ele>239.00000000000003</ele><time>2026-04-18T10:54:33.399Z</time></trkpt><trkpt lat="43.3837943" lon="10.8543819"><ele>239.00000000000003</ele><time>2026-04-18T10:54:35.396Z</time></trkpt><trkpt lat="43.3838398" lon="10.8544837"><ele>239.0</ele><time>2026-04-18T10:54:38.406Z</time></trkpt><trkpt lat="43.3838703" lon="10.8545697"><ele>239.0</ele><time>2026-04-18T10:54:41.399Z</time></trkpt><trkpt lat="43.3838563" lon="10.8546623"><ele>239.0</ele><time>2026-04-18T10:54:45.4Z</time></trkpt><trkpt lat="43.3837796" lon="10.8547395"><ele>239.00000000000003</ele><time>2026-04-18T10:54:48.399Z</time></trkpt><trkpt lat="43.383667" lon="10.8547812"><ele>239.0</ele><time>2026-04-18T10:54:50.409Z</time></trkpt><trkpt lat="43.383561" lon="10.8547996"><ele>239.0</ele><time>2026-04-18T10:54:52.413Z</time></trkpt><trkpt lat="43.3834701" lon="10.85478"><ele>238.99999999999997</ele><time>2026-04-18T10:54:54.422Z</time></trkpt><trkpt lat="43.3833691" lon="10.8547986"><ele>238.99999999999997</ele><time>2026-04-18T10:54:56.414Z</time></trkpt><trkpt lat="43.383273" lon="10.854841"><ele>239.0</ele><time>2026-04-18T10:54:58.391Z</time></trkpt><trkpt lat="43.3831785" lon="10.8549047"><ele>239.0</ele><time>2026-04-18T10:55:00.402Z</time></trkpt><trkpt lat="43.3830751" lon="10.8549903"><ele>239.00000000000003</ele><time>2026-04-18T10:55:02.405Z</time></trkpt><trkpt lat="43.3830178" lon="10.8550393"><ele>239.0</ele><time>2026-04-18T10:55:03.396Z</time></trkpt><trkpt lat="43.3829565" lon="10.8550643"><ele>239.00000000000003</ele><time>2026-04-18T10:55:04.413Z</time></trkpt><trkpt lat="43.3828926" lon="10.855086"><ele>239.00000000000003</ele><time>2026-04-18T10:55:05.413Z</time></trkpt><trkpt lat="43.3828261" lon="10.8551023"><ele>239.0</ele><time>2026-04-18T10:55:06.399Z</time></trkpt><trkpt lat="43.3827495" lon="10.8550957"><ele>239.00000000000003</ele><time>2026-04-18T10:55:07.409Z</time></trkpt><trkpt lat="43.3826806" lon="10.8550724"><ele>239.00000000000003</ele><time>2026-04-18T10:55:08.407Z</time></trkpt><trkpt lat="43.3826059" lon="10.8550322"><ele>237.66666666666669</ele><time>2026-04-18T10:55:09.4Z</time></trkpt><trkpt lat="43.3825296" lon="10.8549926"><ele>236.33333333333334</ele><time>2026-04-18T10:55:10.405Z</time></trkpt><trkpt lat="43.3824547" lon="10.8549495"><ele>235.0</ele><time>2026-04-18T10:55:11.413Z</time></trkpt><trkpt lat="43.3823788" lon="10.8549037"><ele>233.66666666666669</ele><time>2026-04-18T10:55:12.412Z</time></trkpt><trkpt lat="43.3822973" lon="10.8548581"><ele>232.33333333333334</ele><time>2026-04-18T10:55:13.411Z</time></trkpt><trkpt lat="43.3822119" lon="10.8548087"><ele>231.0</ele><time>2026-04-18T10:55:14.408Z</time></trkpt><trkpt lat="43.3821279" lon="10.8547631"><ele>230.33333333333334</ele><time>2026-04-18T10:55:15.432Z</time></trkpt><trkpt lat="43.3820456" lon="10.8547201"><ele>229.66666666666669</ele><time>2026-04-18T10:55:16.4Z</time></trkpt><trkpt lat="43.3819655" lon="10.8546745"><ele>229.0</ele><time>2026-04-18T10:55:17.401Z</time></trkpt><trkpt lat="43.3818918" lon="10.8546367"><ele>228.33333333333334</ele><time>2026-04-18T10:55:18.398Z</time></trkpt><trkpt lat="43.381823" lon="10.8545975"><ele>227.66666666666669</ele><time>2026-04-18T10:55:19.409Z</time></trkpt><trkpt lat="43.3817617" lon="10.8545479"><ele>227.0</ele><time>2026-04-18T10:55:20.404Z</time></trkpt><trkpt lat="43.3816978" lon="10.8544818"><ele>227.00000000000003</ele><time>2026-04-18T10:55:21.408Z</time></trkpt><trkpt lat="43.3816495" lon="10.8544021"><ele>227.0</ele><time>2026-04-18T10:55:22.405Z</time></trkpt><trkpt lat="43.3816134" lon="10.8543002"><ele>227.0</ele><time>2026-04-18T10:55:23.4Z</time></trkpt><trkpt lat="43.381569" lon="10.8541918"><ele>227.0</ele><time>2026-04-18T10:55:24.4Z</time></trkpt><trkpt lat="43.3815257" lon="10.8540914"><ele>227.00000000000003</ele><time>2026-04-18T10:55:25.415Z</time></trkpt><trkpt lat="43.3814664" lon="10.8539925"><ele>227.0</ele><time>2026-04-18T10:55:26.403Z</time></trkpt><trkpt lat="43.3813924" lon="10.8539068"><ele>226.2</ele><time>2026-04-18T10:55:27.407Z</time></trkpt><trkpt lat="43.3813166" lon="10.8538235"><ele>225.39999999999998</ele><time>2026-04-18T10:55:28.395Z</time></trkpt><trkpt lat="43.381237" lon="10.8537422"><ele>224.60000000000002</ele><time>2026-04-18T10:55:29.397Z</time></trkpt><trkpt lat="43.3811517" lon="10.8536617"><ele>223.8</ele><time>2026-04-18T10:55:30.404Z</time></trkpt><trkpt lat="43.3810729" lon="10.8535882"><ele>223.0</ele><time>2026-04-18T10:55:31.406Z</time></trkpt><trkpt lat="43.3810196" lon="10.8535295"><ele>223.0</ele><time>2026-04-18T10:55:32.412Z</time></trkpt><trkpt lat="43.3810833" lon="10.8535616"><ele>223.0</ele><time>2026-04-18T10:55:37.399Z</time></trkpt><trkpt lat="43.3811401" lon="10.8536076"><ele>223.0</ele><time>2026-04-18T10:55:42.406Z</time></trkpt><trkpt lat="43.3811004" lon="10.853536"><ele>223.0</ele><time>2026-04-18T10:55:57.418Z</time></trkpt><trkpt lat="43.3811152" lon="10.853451"><ele>223.0</ele><time>2026-04-18T10:55:59.413Z</time></trkpt><trkpt lat="43.3811282" lon="10.8533502"><ele>223.0</ele><time>2026-04-18T10:56:01.415Z</time></trkpt><trkpt lat="43.3811202" lon="10.8532032"><ele>223.0</ele><time>2026-04-18T10:56:03.409Z</time></trkpt><trkpt lat="43.3811103" lon="10.8531146"><ele>221.8</ele><time>2026-04-18T10:56:04.407Z</time></trkpt><trkpt lat="43.3810822" lon="10.8529631"><ele>220.60000000000002</ele><time>2026-04-18T10:56:06.418Z</time></trkpt><trkpt lat="43.3810378" lon="10.8528241"><ele>219.39999999999998</ele><time>2026-04-18T10:56:08.395Z</time></trkpt><trkpt lat="43.3809919" lon="10.8527018"><ele>218.2</ele><time>2026-04-18T10:56:10.408Z</time></trkpt><trkpt lat="43.3809533" lon="10.8526069"><ele>217.0</ele><time>2026-04-18T10:56:12.414Z</time></trkpt><trkpt lat="43.380909" lon="10.8525066"><ele>216.2</ele><time>2026-04-18T10:56:14.411Z</time></trkpt><trkpt lat="43.3808588" lon="10.8523754"><ele>215.39999999999998</ele><time>2026-04-18T10:56:16.417Z</time></trkpt><trkpt lat="43.3808068" lon="10.8522647"><ele>214.60000000000002</ele><time>2026-04-18T10:56:18.405Z</time></trkpt><trkpt lat="43.3807565" lon="10.8521467"><ele>213.8</ele><time>2026-04-18T10:56:20.407Z</time></trkpt><trkpt lat="43.3806853" lon="10.8520111"><ele>213.0</ele><time>2026-04-18T10:56:22.418Z</time></trkpt><trkpt lat="43.3806475" lon="10.8519397"><ele>213.0</ele><time>2026-04-18T10:56:23.398Z</time></trkpt><trkpt lat="43.3805805" lon="10.8517992"><ele>213.0</ele><time>2026-04-18T10:56:25.408Z</time></trkpt><trkpt lat="43.3805445" lon="10.8517236"><ele>213.0</ele><time>2026-04-18T10:56:26.412Z</time></trkpt><trkpt lat="43.3805086" lon="10.8516438"><ele>213.0</ele><time>2026-04-18T10:56:27.401Z</time></trkpt><trkpt lat="43.3804734" lon="10.8515649"><ele>213.0</ele><time>2026-04-18T10:56:28.42Z</time></trkpt><trkpt lat="43.3804294" lon="10.851417"><ele>213.0</ele><time>2026-04-18T10:56:30.394Z</time></trkpt><trkpt lat="43.380407" lon="10.851313"><ele>211.99999999999997</ele><time>2026-04-18T10:56:32.413Z</time></trkpt><trkpt lat="43.380384" lon="10.851223"><ele>211.0</ele><time>2026-04-18T10:56:35.402Z</time></trkpt><trkpt lat="43.3803799" lon="10.8511281"><ele>210.0</ele><time>2026-04-18T10:56:49.396Z</time></trkpt><trkpt lat="43.3803539" lon="10.851043"><ele>209.0</ele><time>2026-04-18T10:56:55.404Z</time></trkpt><trkpt lat="43.38033" lon="10.8509465"><ele>208.0</ele><time>2026-04-18T10:56:58.398Z</time></trkpt><trkpt lat="43.3802932" lon="10.850858"><ele>206.99999999999997</ele><time>2026-04-18T10:57:01.395Z</time></trkpt><trkpt lat="43.3802973" lon="10.8507466"><ele>206.0</ele><time>2026-04-18T10:57:05.393Z</time></trkpt><trkpt lat="43.3803" lon="10.8506502"><ele>205.33333333333334</ele><time>2026-04-18T10:57:08.404Z</time></trkpt><trkpt lat="43.3802925" lon="10.8505471"><ele>204.66666666666669</ele><time>2026-04-18T10:57:11.383Z</time></trkpt><trkpt lat="43.3802734" lon="10.8504498"><ele>204.0</ele><time>2026-04-18T10:57:14.405Z</time></trkpt><trkpt lat="43.3802294" lon="10.8503834"><ele>203.33333333333331</ele><time>2026-04-18T10:57:17.393Z</time></trkpt><trkpt lat="43.3801752" lon="10.8502888"><ele>202.66666666666666</ele><time>2026-04-18T10:57:22.385Z</time></trkpt><trkpt lat="43.3801349" lon="10.8502084"><ele>202.0</ele><time>2026-04-18T10:57:25.394Z</time></trkpt><trkpt lat="43.380091" lon="10.8501195"><ele>200.66666666666666</ele><time>2026-04-18T10:57:28.401Z</time></trkpt><trkpt lat="43.3800544" lon="10.8500077"><ele>199.33333333333331</ele><time>2026-04-18T10:57:31.392Z</time></trkpt><trkpt lat="43.3800362" lon="10.8499156"><ele>198.0</ele><time>2026-04-18T10:57:33.389Z</time></trkpt><trkpt lat="43.3800261" lon="10.849821"><ele>196.66666666666669</ele><time>2026-04-18T10:57:35.394Z</time></trkpt><trkpt lat="43.3800131" lon="10.849732"><ele>195.33333333333334</ele><time>2026-04-18T10:57:37.385Z</time></trkpt><trkpt lat="43.3799982" lon="10.8496312"><ele>194.0</ele><time>2026-04-18T10:57:39.385Z</time></trkpt><trkpt lat="43.3799734" lon="10.8495034"><ele>194.00000000000003</ele><time>2026-04-18T10:57:41.394Z</time></trkpt><trkpt lat="43.3799397" lon="10.8493828"><ele>194.0</ele><time>2026-04-18T10:57:43.395Z</time></trkpt><trkpt lat="43.3799136" lon="10.8492877"><ele>194.0</ele><time>2026-04-18T10:57:45.407Z</time></trkpt><trkpt lat="43.37987" lon="10.8492002"><ele>194.0</ele><time>2026-04-18T10:57:47.39Z</time></trkpt><trkpt lat="43.3798305" lon="10.8491096"><ele>194.00000000000003</ele><time>2026-04-18T10:57:49.398Z</time></trkpt><trkpt lat="43.3797726" lon="10.8490203"><ele>194.0</ele><time>2026-04-18T10:57:51.396Z</time></trkpt><trkpt lat="43.3797034" lon="10.8489141"><ele>190.6</ele><time>2026-04-18T10:57:53.395Z</time></trkpt><trkpt lat="43.3796447" lon="10.8488147"><ele>187.2</ele><time>2026-04-18T10:57:55.403Z</time></trkpt><trkpt lat="43.3795732" lon="10.8487242"><ele>183.79999999999998</ele><time>2026-04-18T10:57:57.389Z</time></trkpt><trkpt lat="43.3794811" lon="10.8486362"><ele>180.39999999999998</ele><time>2026-04-18T10:57:59.394Z</time></trkpt><trkpt lat="43.3793932" lon="10.8485671"><ele>177.0</ele><time>2026-04-18T10:58:01.408Z</time></trkpt><trkpt lat="43.3793039" lon="10.8484844"><ele>177.6</ele><time>2026-04-18T10:58:03.421Z</time></trkpt><trkpt lat="43.3792167" lon="10.8484034"><ele>178.2</ele><time>2026-04-18T10:58:05.439Z</time></trkpt><trkpt lat="43.3791489" lon="10.8483185"><ele>178.8</ele><time>2026-04-18T10:58:07.415Z</time></trkpt><trkpt lat="43.3791013" lon="10.8482052"><ele>179.4</ele><time>2026-04-18T10:58:09.423Z</time></trkpt><trkpt lat="43.3790657" lon="10.8480732"><ele>180.0</ele><time>2026-04-18T10:58:11.413Z</time></trkpt><trkpt lat="43.3790472" lon="10.8479199"><ele>180.0</ele><time>2026-04-18T10:58:13.399Z</time></trkpt><trkpt lat="43.3790379" lon="10.847832"><ele>180.0</ele><time>2026-04-18T10:58:14.421Z</time></trkpt><trkpt lat="43.3790255" lon="10.8477468"><ele>180.0</ele><time>2026-04-18T10:58:15.403Z</time></trkpt><trkpt lat="43.3788105" lon="10.8466965"><ele>179.16666666666666</ele><time>2026-04-18T10:58:29.382Z</time></trkpt><trkpt lat="43.3787649" lon="10.846558"><ele>178.33333333333334</ele><time>2026-04-18T10:58:31.391Z</time></trkpt><trkpt lat="43.378721" lon="10.846484"><ele>177.5</ele><time>2026-04-18T10:58:32.385Z</time></trkpt><trkpt lat="43.3786655" lon="10.8463553"><ele>176.66666666666669</ele><time>2026-04-18T10:58:34.384Z</time></trkpt><trkpt lat="43.3786262" lon="10.8462775"><ele>175.83333333333334</ele><time>2026-04-18T10:58:35.38Z</time></trkpt><trkpt lat="43.3785942" lon="10.8462009"><ele>175.0</ele><time>2026-04-18T10:58:36.385Z</time></trkpt><trkpt lat="43.3785653" lon="10.8461162"><ele>175.0</ele><time>2026-04-18T10:58:37.386Z</time></trkpt><trkpt lat="43.3785358" lon="10.8460251"><ele>175.0</ele><time>2026-04-18T10:58:38.396Z</time></trkpt><trkpt lat="43.3785067" lon="10.8459343"><ele>175.0</ele><time>2026-04-18T10:58:39.393Z</time></trkpt><trkpt lat="43.3784789" lon="10.8458565"><ele>175.0</ele><time>2026-04-18T10:58:40.394Z</time></trkpt><trkpt lat="43.3784456" lon="10.8457727"><ele>175.0</ele><time>2026-04-18T10:58:41.387Z</time></trkpt><trkpt lat="43.378416" lon="10.8456896"><ele>175.0</ele><time>2026-04-18T10:58:42.397Z</time></trkpt><trkpt lat="43.3783891" lon="10.8456044"><ele>175.0</ele><time>2026-04-18T10:58:43.405Z</time></trkpt><trkpt lat="43.3783604" lon="10.8455179"><ele>175.42857142857142</ele><time>2026-04-18T10:58:44.402Z</time></trkpt><trkpt lat="43.3783353" lon="10.8454365"><ele>175.85714285714286</ele><time>2026-04-18T10:58:45.387Z</time></trkpt><trkpt lat="43.3783086" lon="10.8453515"><ele>176.28571428571428</ele><time>2026-04-18T10:58:46.393Z</time></trkpt><trkpt lat="43.3782838" lon="10.8452506"><ele>176.71428571428572</ele><time>2026-04-18T10:58:47.393Z</time></trkpt><trkpt lat="43.3782494" lon="10.8451534"><ele>177.14285714285714</ele><time>2026-04-18T10:58:48.394Z</time></trkpt><trkpt lat="43.3782097" lon="10.8450672"><ele>177.57142857142856</ele><time>2026-04-18T10:58:49.395Z</time></trkpt><trkpt lat="43.3781658" lon="10.8449902"><ele>178.0</ele><time>2026-04-18T10:58:50.409Z</time></trkpt><trkpt lat="43.3781229" lon="10.8449105"><ele>178.14285714285714</ele><time>2026-04-18T10:58:51.397Z</time></trkpt><trkpt lat="43.3780771" lon="10.8448439"><ele>178.28571428571428</ele><time>2026-04-18T10:58:52.393Z</time></trkpt><trkpt lat="43.3780324" lon="10.844777"><ele>178.42857142857144</ele><time>2026-04-18T10:58:53.394Z</time></trkpt><trkpt lat="43.3779808" lon="10.8447048"><ele>178.57142857142856</ele><time>2026-04-18T10:58:54.395Z</time></trkpt><trkpt lat="43.3779328" lon="10.8446254"><ele>178.71428571428572</ele><time>2026-04-18T10:58:55.381Z</time></trkpt><trkpt lat="43.3778882" lon="10.8445402"><ele>178.85714285714286</ele><time>2026-04-18T10:58:56.39Z</time></trkpt><trkpt lat="43.3778393" lon="10.8444529"><ele>179.0</ele><time>2026-04-18T10:58:57.386Z</time></trkpt><trkpt lat="43.3777965" lon="10.8443692"><ele>178.66666666666666</ele><time>2026-04-18T10:58:58.398Z</time></trkpt><trkpt lat="43.3777564" lon="10.8442858"><ele>178.33333333333331</ele><time>2026-04-18T10:58:59.391Z</time></trkpt><trkpt lat="43.3777269" lon="10.8442066"><ele>178.0</ele><time>2026-04-18T10:59:00.395Z</time></trkpt><trkpt lat="43.377698" lon="10.844056"><ele>177.66666666666666</ele><time>2026-04-18T10:59:02.392Z</time></trkpt><trkpt lat="43.3776807" lon="10.8439209"><ele>177.33333333333334</ele><time>2026-04-18T10:59:04.395Z</time></trkpt><trkpt lat="43.3776737" lon="10.843804"><ele>177.0</ele><time>2026-04-18T10:59:06.409Z</time></trkpt><trkpt lat="43.3776583" lon="10.8437001"><ele>177.0</ele><time>2026-04-18T10:59:08.399Z</time></trkpt><trkpt lat="43.3776408" lon="10.8435946"><ele>177.0</ele><time>2026-04-18T10:59:10.394Z</time></trkpt><trkpt lat="43.3776236" lon="10.8434926"><ele>177.0</ele><time>2026-04-18T10:59:12.398Z</time></trkpt><trkpt lat="43.3775998" lon="10.8433977"><ele>177.0</ele><time>2026-04-18T10:59:14.392Z</time></trkpt><trkpt lat="43.3775779" lon="10.8433139"><ele>177.0</ele><time>2026-04-18T10:59:16.403Z</time></trkpt><trkpt lat="43.3775518" lon="10.8431892"><ele>177.0</ele><time>2026-04-18T10:59:19.383Z</time></trkpt><trkpt lat="43.3775291" lon="10.8430924"><ele>177.0</ele><time>2026-04-18T10:59:21.389Z</time></trkpt><trkpt lat="43.3774979" lon="10.8429967"><ele>177.0</ele><time>2026-04-18T10:59:23.385Z</time></trkpt><trkpt lat="43.3774663" lon="10.842891"><ele>177.0</ele><time>2026-04-18T10:59:25.39Z</time></trkpt><trkpt lat="43.3774159" lon="10.8427752"><ele>177.0</ele><time>2026-04-18T10:59:27.389Z</time></trkpt><trkpt lat="43.3773564" lon="10.8426666"><ele>177.0</ele><time>2026-04-18T10:59:29.408Z</time></trkpt><trkpt lat="43.3772969" lon="10.8425564"><ele>175.39999999999998</ele><time>2026-04-18T10:59:31.391Z</time></trkpt><trkpt lat="43.3772496" lon="10.8424806"><ele>173.79999999999998</ele><time>2026-04-18T10:59:33.386Z</time></trkpt><trkpt lat="43.3771962" lon="10.8423901"><ele>172.2</ele><time>2026-04-18T10:59:35.392Z</time></trkpt><trkpt lat="43.3771219" lon="10.842291"><ele>170.6</ele><time>2026-04-18T10:59:37.385Z</time></trkpt><trkpt lat="43.3770583" lon="10.84219"><ele>169.0</ele><time>2026-04-18T10:59:39.407Z</time></trkpt><trkpt lat="43.3769821" lon="10.8420855"><ele>169.0</ele><time>2026-04-18T10:59:41.397Z</time></trkpt><trkpt lat="43.3769018" lon="10.8419822"><ele>169.0</ele><time>2026-04-18T10:59:43.391Z</time></trkpt><trkpt lat="43.3768289" lon="10.8419008"><ele>169.0</ele><time>2026-04-18T10:59:45.385Z</time></trkpt><trkpt lat="43.3767592" lon="10.8418279"><ele>169.0</ele><time>2026-04-18T10:59:47.384Z</time></trkpt><trkpt lat="43.3767038" lon="10.8417425"><ele>169.0</ele><time>2026-04-18T10:59:49.378Z</time></trkpt><trkpt lat="43.3766634" lon="10.8416319"><ele>168.0</ele><time>2026-04-18T10:59:51.388Z</time></trkpt><trkpt lat="43.3766231" lon="10.8415064"><ele>167.0</ele><time>2026-04-18T10:59:53.39Z</time></trkpt><trkpt lat="43.3765831" lon="10.8414035"><ele>166.0</ele><time>2026-04-18T10:59:55.387Z</time></trkpt><trkpt lat="43.3765316" lon="10.8412909"><ele>165.0</ele><time>2026-04-18T10:59:57.384Z</time></trkpt><trkpt lat="43.3764577" lon="10.8411805"><ele>164.0</ele><time>2026-04-18T10:59:59.385Z</time></trkpt><trkpt lat="43.3764083" lon="10.841112"><ele>164.0</ele><time>2026-04-18T11:00:00.393Z</time></trkpt><trkpt lat="43.3763599" lon="10.8410509"><ele>164.0</ele><time>2026-04-18T11:00:01.385Z</time></trkpt><trkpt lat="43.3763061" lon="10.8409838"><ele>164.0</ele><time>2026-04-18T11:00:02.387Z</time></trkpt><trkpt lat="43.3762563" lon="10.8409209"><ele>164.0</ele><time>2026-04-18T11:00:03.388Z</time></trkpt><trkpt lat="43.3762122" lon="10.8408518"><ele>164.0</ele><time>2026-04-18T11:00:04.399Z</time></trkpt><trkpt lat="43.3761234" lon="10.840732"><ele>164.0</ele><time>2026-04-18T11:00:06.386Z</time></trkpt><trkpt lat="43.3760311" lon="10.8406238"><ele>163.33333333333331</ele><time>2026-04-18T11:00:08.397Z</time></trkpt><trkpt lat="43.3759807" lon="10.8405642"><ele>162.66666666666666</ele><time>2026-04-18T11:00:09.382Z</time></trkpt><trkpt lat="43.3759312" lon="10.8405058"><ele>162.0</ele><time>2026-04-18T11:00:10.384Z</time></trkpt><trkpt lat="43.375853" lon="10.8404027"><ele>161.33333333333334</ele><time>2026-04-18T11:00:12.388Z</time></trkpt><trkpt lat="43.3757911" lon="10.8403088"><ele>160.66666666666669</ele><time>2026-04-18T11:00:14.389Z</time></trkpt><trkpt lat="43.3757172" lon="10.840191"><ele>160.0</ele><time>2026-04-18T11:00:16.386Z</time></trkpt><trkpt lat="43.3756491" lon="10.8401024"><ele>159.0</ele><time>2026-04-18T11:00:18.387Z</time></trkpt><trkpt lat="43.3755857" lon="10.8400223"><ele>158.0</ele><time>2026-04-18T11:00:22.399Z</time></trkpt><trkpt lat="43.3755546" lon="10.8394553"><ele>158.0</ele><time>2026-04-18T11:02:09.62Z</time></trkpt><trkpt lat="43.3755367" lon="10.8393259"><ele>158.0</ele><time>2026-04-18T11:02:11.377Z</time></trkpt><trkpt lat="43.3755343" lon="10.8391753"><ele>158.0</ele><time>2026-04-18T11:02:13.374Z</time></trkpt><trkpt lat="43.3755378" lon="10.8390453"><ele>158.0</ele><time>2026-04-18T11:02:15.411Z</time></trkpt><trkpt lat="43.3755513" lon="10.838927"><ele>158.0</ele><time>2026-04-18T11:02:17.416Z</time></trkpt><trkpt lat="43.3755427" lon="10.8388227"><ele>157.33333333333331</ele><time>2026-04-18T11:02:19.41Z</time></trkpt><trkpt lat="43.3755298" lon="10.8386993"><ele>156.66666666666666</ele><time>2026-04-18T11:02:21.398Z</time></trkpt><trkpt lat="43.3755456" lon="10.8385618"><ele>156.0</ele><time>2026-04-18T11:02:23.401Z</time></trkpt><trkpt lat="43.375588" lon="10.8384439"><ele>155.33333333333334</ele><time>2026-04-18T11:02:25.39Z</time></trkpt><trkpt lat="43.3756157" lon="10.8383568"><ele>154.66666666666669</ele><time>2026-04-18T11:02:27.402Z</time></trkpt><trkpt lat="43.3756489" lon="10.8382704"><ele>154.0</ele><time>2026-04-18T11:02:29.401Z</time></trkpt><trkpt lat="43.3757035" lon="10.8381731"><ele>153.8</ele><time>2026-04-18T11:02:31.388Z</time></trkpt><trkpt lat="43.3757741" lon="10.8380809"><ele>153.60000000000002</ele><time>2026-04-18T11:02:33.405Z</time></trkpt><trkpt lat="43.3758657" lon="10.8380597"><ele>153.4</ele><time>2026-04-18T11:02:35.403Z</time></trkpt><trkpt lat="43.3759513" lon="10.838057"><ele>153.20000000000002</ele><time>2026-04-18T11:02:37.408Z</time></trkpt><trkpt lat="43.376054" lon="10.8380647"><ele>153.0</ele><time>2026-04-18T11:02:39.418Z</time></trkpt><trkpt lat="43.376169" lon="10.8381075"><ele>153.0</ele><time>2026-04-18T11:02:41.406Z</time></trkpt><trkpt lat="43.3762337" lon="10.8381211"><ele>153.0</ele><time>2026-04-18T11:02:42.408Z</time></trkpt><trkpt lat="43.3762975" lon="10.8381331"><ele>153.0</ele><time>2026-04-18T11:02:43.398Z</time></trkpt><trkpt lat="43.3764054" lon="10.8381331"><ele>153.0</ele><time>2026-04-18T11:02:45.392Z</time></trkpt><trkpt lat="43.3764964" lon="10.8381204"><ele>153.0</ele><time>2026-04-18T11:02:47.402Z</time></trkpt><trkpt lat="43.3765665" lon="10.8380997"><ele>153.0</ele><time>2026-04-18T11:02:49.403Z</time></trkpt><trkpt lat="43.3766295" lon="10.8380801"><ele>150.66666666666666</ele><time>2026-04-18T11:02:52.403Z</time></trkpt><trkpt lat="43.3767107" lon="10.8380882"><ele>148.33333333333334</ele><time>2026-04-18T11:02:55.394Z</time></trkpt><trkpt lat="43.3767798" lon="10.8380955"><ele>146.0</ele><time>2026-04-18T11:03:00.407Z</time></trkpt><trkpt lat="43.3768459" lon="10.8381046"><ele>143.66666666666669</ele><time>2026-04-18T11:03:03.39Z</time></trkpt><trkpt lat="43.3769235" lon="10.8381133"><ele>141.33333333333334</ele><time>2026-04-18T11:03:06.397Z</time></trkpt><trkpt lat="43.3769982" lon="10.8381157"><ele>139.0</ele><time>2026-04-18T11:03:08.407Z</time></trkpt><trkpt lat="43.3771096" lon="10.8381207"><ele>136.8</ele><time>2026-04-18T11:03:10.4Z</time></trkpt><trkpt lat="43.3772277" lon="10.838114"><ele>134.60000000000002</ele><time>2026-04-18T11:03:12.386Z</time></trkpt><trkpt lat="43.377327" lon="10.8380943"><ele>132.4</ele><time>2026-04-18T11:03:14.392Z</time></trkpt><trkpt lat="43.3774115" lon="10.8380197"><ele>130.20000000000002</ele><time>2026-04-18T11:03:16.391Z</time></trkpt><trkpt lat="43.3774674" lon="10.8379256"><ele>128.0</ele><time>2026-04-18T11:03:18.393Z</time></trkpt><trkpt lat="43.3774965" lon="10.837842"><ele>127.99999999999999</ele><time>2026-04-18T11:03:21.386Z</time></trkpt><trkpt lat="43.377533" lon="10.8377307"><ele>128.0</ele><time>2026-04-18T11:03:24.393Z</time></trkpt><trkpt lat="43.3775581" lon="10.8376063"><ele>128.0</ele><time>2026-04-18T11:03:26.405Z</time></trkpt><trkpt lat="43.3775907" lon="10.8374877"><ele>128.0</ele><time>2026-04-18T11:03:28.404Z</time></trkpt><trkpt lat="43.3776681" lon="10.8374223"><ele>127.99999999999999</ele><time>2026-04-18T11:03:30.404Z</time></trkpt><trkpt lat="43.3777494" lon="10.8374415"><ele>128.0</ele><time>2026-04-18T11:03:32.406Z</time></trkpt><trkpt lat="43.377831" lon="10.8374028"><ele>128.0</ele><time>2026-04-18T11:03:34.385Z</time></trkpt><trkpt lat="43.3779217" lon="10.8373368"><ele>128.0</ele><time>2026-04-18T11:03:36.41Z</time></trkpt><trkpt lat="43.3780262" lon="10.8372948"><ele>128.0</ele><time>2026-04-18T11:03:38.417Z</time></trkpt><trkpt lat="43.3781286" lon="10.8372618"><ele>128.0</ele><time>2026-04-18T11:03:40.42Z</time></trkpt><trkpt lat="43.3782245" lon="10.8372428"><ele>128.0</ele><time>2026-04-18T11:03:42.429Z</time></trkpt><trkpt lat="43.3782789" lon="10.8371777"><ele>127.4</ele><time>2026-04-18T11:03:44.413Z</time></trkpt><trkpt lat="43.3782899" lon="10.8370209"><ele>126.80000000000001</ele><time>2026-04-18T11:03:46.405Z</time></trkpt><trkpt lat="43.3782935" lon="10.8369078"><ele>126.2</ele><time>2026-04-18T11:03:47.405Z</time></trkpt><trkpt lat="43.3782904" lon="10.8367955"><ele>125.6</ele><time>2026-04-18T11:03:48.389Z</time></trkpt><trkpt lat="43.3782844" lon="10.8366785"><ele>125.0</ele><time>2026-04-18T11:03:49.404Z</time></trkpt><trkpt lat="43.3782809" lon="10.8365555"><ele>124.99999999999999</ele><time>2026-04-18T11:03:50.404Z</time></trkpt><trkpt lat="43.3782774" lon="10.8364421"><ele>125.0</ele><time>2026-04-18T11:03:51.398Z</time></trkpt><trkpt lat="43.378276" lon="10.8363275"><ele>125.0</ele><time>2026-04-18T11:03:52.423Z</time></trkpt><trkpt lat="43.3782776" lon="10.8362253"><ele>125.0</ele><time>2026-04-18T11:03:53.393Z</time></trkpt><trkpt lat="43.3782711" lon="10.8361236"><ele>124.99999999999999</ele><time>2026-04-18T11:03:54.391Z</time></trkpt><trkpt lat="43.3782579" lon="10.8360204"><ele>125.0</ele><time>2026-04-18T11:03:55.398Z</time></trkpt><trkpt lat="43.378238" lon="10.8359205"><ele>125.16666666666666</ele><time>2026-04-18T11:03:56.401Z</time></trkpt><trkpt lat="43.3782232" lon="10.8358113"><ele>125.33333333333333</ele><time>2026-04-18T11:03:57.396Z</time></trkpt><trkpt lat="43.37821" lon="10.8357"><ele>125.5</ele><time>2026-04-18T11:03:58.387Z</time></trkpt><trkpt lat="43.3781906" lon="10.8355884"><ele>125.66666666666666</ele><time>2026-04-18T11:03:59.402Z</time></trkpt><trkpt lat="43.3781703" lon="10.8354774"><ele>125.83333333333333</ele><time>2026-04-18T11:04:00.404Z</time></trkpt><trkpt lat="43.3781464" lon="10.8353636"><ele>126.0</ele><time>2026-04-18T11:04:01.407Z</time></trkpt><trkpt lat="43.3781182" lon="10.8352466"><ele>126.4</ele><time>2026-04-18T11:04:02.412Z</time></trkpt><trkpt lat="43.3780933" lon="10.8351362"><ele>126.8</ele><time>2026-04-18T11:04:03.399Z</time></trkpt><trkpt lat="43.3780632" lon="10.8350268"><ele>127.20000000000002</ele><time>2026-04-18T11:04:04.39Z</time></trkpt><trkpt lat="43.3780279" lon="10.8349069"><ele>127.60000000000001</ele><time>2026-04-18T11:04:05.398Z</time></trkpt><trkpt lat="43.377986" lon="10.8347793"><ele>128.0</ele><time>2026-04-18T11:04:06.391Z</time></trkpt><trkpt lat="43.3779348" lon="10.8346388"><ele>126.80000000000001</ele><time>2026-04-18T11:04:07.402Z</time></trkpt><trkpt lat="43.3778814" lon="10.8345038"><ele>125.60000000000001</ele><time>2026-04-18T11:04:08.397Z</time></trkpt><trkpt lat="43.377824" lon="10.834377"><ele>124.39999999999999</ele><time>2026-04-18T11:04:09.391Z</time></trkpt><trkpt lat="43.3777655" lon="10.8342732"><ele>123.19999999999999</ele><time>2026-04-18T11:04:10.395Z</time></trkpt><trkpt lat="43.3777095" lon="10.8341688"><ele>122.0</ele><time>2026-04-18T11:04:11.394Z</time></trkpt><trkpt lat="43.3776484" lon="10.8340667"><ele>122.0</ele><time>2026-04-18T11:04:12.403Z</time></trkpt><trkpt lat="43.3775773" lon="10.8339595"><ele>121.99999999999999</ele><time>2026-04-18T11:04:13.392Z</time></trkpt><trkpt lat="43.3775083" lon="10.8338592"><ele>121.99999999999999</ele><time>2026-04-18T11:04:14.406Z</time></trkpt><trkpt lat="43.3774447" lon="10.8337609"><ele>122.0</ele><time>2026-04-18T11:04:15.4Z</time></trkpt><trkpt lat="43.3773688" lon="10.8336498"><ele>122.0</ele><time>2026-04-18T11:04:16.401Z</time></trkpt><trkpt lat="43.3772967" lon="10.8335389"><ele>122.8</ele><time>2026-04-18T11:04:17.401Z</time></trkpt><trkpt lat="43.3772278" lon="10.8334311"><ele>123.6</ele><time>2026-04-18T11:04:18.403Z</time></trkpt><trkpt lat="43.3771543" lon="10.8333386"><ele>124.39999999999999</ele><time>2026-04-18T11:04:19.393Z</time></trkpt><trkpt lat="43.3770829" lon="10.8332455"><ele>125.19999999999999</ele><time>2026-04-18T11:04:20.4Z</time></trkpt><trkpt lat="43.3770113" lon="10.8331655"><ele>126.0</ele><time>2026-04-18T11:04:21.395Z</time></trkpt><trkpt lat="43.3769396" lon="10.8330896"><ele>124.0</ele><time>2026-04-18T11:04:22.389Z</time></trkpt><trkpt lat="43.3768603" lon="10.8330164"><ele>122.0</ele><time>2026-04-18T11:04:23.409Z</time></trkpt><trkpt lat="43.3767684" lon="10.8329302"><ele>120.0</ele><time>2026-04-18T11:04:24.408Z</time></trkpt><trkpt lat="43.3766785" lon="10.8328523"><ele>118.0</ele><time>2026-04-18T11:04:25.39Z</time></trkpt><trkpt lat="43.3765889" lon="10.8327889"><ele>116.0</ele><time>2026-04-18T11:04:26.411Z</time></trkpt><trkpt lat="43.3764995" lon="10.8327237"><ele>116.0</ele><time>2026-04-18T11:04:27.408Z</time></trkpt><trkpt lat="43.3764132" lon="10.8326598"><ele>116.0</ele><time>2026-04-18T11:04:28.404Z</time></trkpt><trkpt lat="43.3763257" lon="10.8325956"><ele>116.0</ele><time>2026-04-18T11:04:29.41Z</time></trkpt><trkpt lat="43.3762398" lon="10.8325282"><ele>116.0</ele><time>2026-04-18T11:04:30.388Z</time></trkpt><trkpt lat="43.3761494" lon="10.8324631"><ele>116.0</ele><time>2026-04-18T11:04:31.392Z</time></trkpt><trkpt lat="43.3760641" lon="10.8323971"><ele>116.19999999999999</ele><time>2026-04-18T11:04:32.413Z</time></trkpt><trkpt lat="43.3759751" lon="10.8323294"><ele>116.39999999999999</ele><time>2026-04-18T11:04:33.395Z</time></trkpt><trkpt lat="43.3758895" lon="10.8322712"><ele>116.6</ele><time>2026-04-18T11:04:34.406Z</time></trkpt><trkpt lat="43.3757969" lon="10.8322159"><ele>116.8</ele><time>2026-04-18T11:04:35.389Z</time></trkpt><trkpt lat="43.3757189" lon="10.832158"><ele>117.0</ele><time>2026-04-18T11:04:36.401Z</time></trkpt><trkpt lat="43.3756338" lon="10.8321065"><ele>117.0</ele><time>2026-04-18T11:04:37.39Z</time></trkpt><trkpt lat="43.3755528" lon="10.8320719"><ele>117.0</ele><time>2026-04-18T11:04:38.401Z</time></trkpt><trkpt lat="43.3754765" lon="10.832035"><ele>117.0</ele><time>2026-04-18T11:04:39.391Z</time></trkpt><trkpt lat="43.3753996" lon="10.8320086"><ele>117.0</ele><time>2026-04-18T11:04:40.401Z</time></trkpt><trkpt lat="43.3753164" lon="10.8319857"><ele>117.0</ele><time>2026-04-18T11:04:41.402Z</time></trkpt><trkpt lat="43.3752331" lon="10.8319589"><ele>117.0</ele><time>2026-04-18T11:04:42.394Z</time></trkpt><trkpt lat="43.3751468" lon="10.8319325"><ele>116.0</ele><time>2026-04-18T11:04:43.406Z</time></trkpt><trkpt lat="43.3750542" lon="10.8319031"><ele>114.99999999999999</ele><time>2026-04-18T11:04:44.395Z</time></trkpt><trkpt lat="43.3749642" lon="10.8318775"><ele>113.99999999999999</ele><time>2026-04-18T11:04:45.4Z</time></trkpt><trkpt lat="43.3748761" lon="10.8318551"><ele>113.0</ele><time>2026-04-18T11:04:46.409Z</time></trkpt><trkpt lat="43.3747803" lon="10.8318403"><ele>112.0</ele><time>2026-04-18T11:04:47.396Z</time></trkpt><trkpt lat="43.3746851" lon="10.8318302"><ele>111.6</ele><time>2026-04-18T11:04:48.406Z</time></trkpt><trkpt lat="43.3745878" lon="10.8318336"><ele>111.19999999999999</ele><time>2026-04-18T11:04:49.395Z</time></trkpt><trkpt lat="43.3744885" lon="10.8318386"><ele>110.8</ele><time>2026-04-18T11:04:50.408Z</time></trkpt><trkpt lat="43.3743926" lon="10.8318535"><ele>110.4</ele><time>2026-04-18T11:04:51.402Z</time></trkpt><trkpt lat="43.3742949" lon="10.8318678"><ele>110.0</ele><time>2026-04-18T11:04:52.393Z</time></trkpt><trkpt lat="43.3741973" lon="10.8318797"><ele>109.99999999999999</ele><time>2026-04-18T11:04:53.403Z</time></trkpt><trkpt lat="43.3741057" lon="10.8319006"><ele>110.0</ele><time>2026-04-18T11:04:54.406Z</time></trkpt><trkpt lat="43.3740169" lon="10.8319242"><ele>110.0</ele><time>2026-04-18T11:04:55.405Z</time></trkpt><trkpt lat="43.3739323" lon="10.8319463"><ele>110.0</ele><time>2026-04-18T11:04:56.406Z</time></trkpt><trkpt lat="43.3738452" lon="10.8319652"><ele>109.99999999999999</ele><time>2026-04-18T11:04:57.395Z</time></trkpt><trkpt lat="43.3737608" lon="10.8319883"><ele>110.0</ele><time>2026-04-18T11:04:58.408Z</time></trkpt><trkpt lat="43.3736742" lon="10.8320171"><ele>109.8</ele><time>2026-04-18T11:04:59.401Z</time></trkpt><trkpt lat="43.3735873" lon="10.8320463"><ele>109.6</ele><time>2026-04-18T11:05:00.397Z</time></trkpt><trkpt lat="43.3734955" lon="10.8320777"><ele>109.4</ele><time>2026-04-18T11:05:01.405Z</time></trkpt><trkpt lat="43.3734073" lon="10.8321041"><ele>109.2</ele><time>2026-04-18T11:05:02.399Z</time></trkpt><trkpt lat="43.3733186" lon="10.8321315"><ele>109.0</ele><time>2026-04-18T11:05:03.409Z</time></trkpt><trkpt lat="43.373235" lon="10.832159"><ele>109.0</ele><time>2026-04-18T11:05:04.406Z</time></trkpt><trkpt lat="43.3731448" lon="10.8321909"><ele>109.0</ele><time>2026-04-18T11:05:05.397Z</time></trkpt><trkpt lat="43.3730518" lon="10.8322252"><ele>109.0</ele><time>2026-04-18T11:05:06.399Z</time></trkpt><trkpt lat="43.3729604" lon="10.8322486"><ele>109.0</ele><time>2026-04-18T11:05:07.404Z</time></trkpt><trkpt lat="43.3728685" lon="10.8322733"><ele>109.0</ele><time>2026-04-18T11:05:08.392Z</time></trkpt><trkpt lat="43.3727799" lon="10.8322928"><ele>109.00000000000001</ele><time>2026-04-18T11:05:09.402Z</time></trkpt><trkpt lat="43.3726921" lon="10.8323139"><ele>109.0</ele><time>2026-04-18T11:05:10.395Z</time></trkpt><trkpt lat="43.3726053" lon="10.8323393"><ele>109.0</ele><time>2026-04-18T11:05:11.4Z</time></trkpt><trkpt lat="43.3725277" lon="10.8323622"><ele>109.0</ele><time>2026-04-18T11:05:12.398Z</time></trkpt><trkpt lat="43.3724506" lon="10.8323908"><ele>109.00000000000001</ele><time>2026-04-18T11:05:13.38Z</time></trkpt><trkpt lat="43.3723719" lon="10.8324166"><ele>109.0</ele><time>2026-04-18T11:05:14.389Z</time></trkpt><trkpt lat="43.3722978" lon="10.8324414"><ele>109.00000000000001</ele><time>2026-04-18T11:05:15.405Z</time></trkpt><trkpt lat="43.3722203" lon="10.8324564"><ele>109.0</ele><time>2026-04-18T11:05:16.402Z</time></trkpt><trkpt lat="43.3721451" lon="10.832463"><ele>109.0</ele><time>2026-04-18T11:05:17.415Z</time></trkpt><trkpt lat="43.3720715" lon="10.8324637"><ele>109.0</ele><time>2026-04-18T11:05:18.4Z</time></trkpt><trkpt lat="43.3719931" lon="10.8324531"><ele>109.00000000000001</ele><time>2026-04-18T11:05:19.402Z</time></trkpt><trkpt lat="43.3719129" lon="10.8324395"><ele>109.0</ele><time>2026-04-18T11:05:20.391Z</time></trkpt><trkpt lat="43.3718236" lon="10.8324292"><ele>108.50000000000001</ele><time>2026-04-18T11:05:21.407Z</time></trkpt><trkpt lat="43.3717391" lon="10.8324162"><ele>108.0</ele><time>2026-04-18T11:05:22.398Z</time></trkpt><trkpt lat="43.371659" lon="10.8323956"><ele>107.5</ele><time>2026-04-18T11:05:23.401Z</time></trkpt><trkpt lat="43.3715805" lon="10.8323749"><ele>107.0</ele><time>2026-04-18T11:05:24.406Z</time></trkpt><trkpt lat="43.3715041" lon="10.8323464"><ele>106.50000000000001</ele><time>2026-04-18T11:05:25.395Z</time></trkpt><trkpt lat="43.3714267" lon="10.832316"><ele>106.0</ele><time>2026-04-18T11:05:26.399Z</time></trkpt><trkpt lat="43.3713487" lon="10.8322797"><ele>105.00000000000001</ele><time>2026-04-18T11:05:27.397Z</time></trkpt><trkpt lat="43.3712741" lon="10.8322453"><ele>104.0</ele><time>2026-04-18T11:05:28.39Z</time></trkpt><trkpt lat="43.3712027" lon="10.8321936"><ele>103.0</ele><time>2026-04-18T11:05:29.412Z</time></trkpt><trkpt lat="43.3711308" lon="10.832148"><ele>102.0</ele><time>2026-04-18T11:05:30.396Z</time></trkpt><trkpt lat="43.3710607" lon="10.8320917"><ele>101.00000000000001</ele><time>2026-04-18T11:05:31.413Z</time></trkpt><trkpt lat="43.3709946" lon="10.8320294"><ele>100.0</ele><time>2026-04-18T11:05:32.41Z</time></trkpt><trkpt lat="43.3709293" lon="10.831959"><ele>100.0</ele><time>2026-04-18T11:05:33.398Z</time></trkpt><trkpt lat="43.3708607" lon="10.8318856"><ele>100.0</ele><time>2026-04-18T11:05:34.41Z</time></trkpt><trkpt lat="43.3707902" lon="10.8317986"><ele>100.0</ele><time>2026-04-18T11:05:35.395Z</time></trkpt><trkpt lat="43.370727" lon="10.8317085"><ele>100.0</ele><time>2026-04-18T11:05:36.397Z</time></trkpt><trkpt lat="43.3706671" lon="10.8316209"><ele>100.0</ele><time>2026-04-18T11:05:37.394Z</time></trkpt><trkpt lat="43.37061" lon="10.8315251"><ele>99.66666666666667</ele><time>2026-04-18T11:05:38.407Z</time></trkpt><trkpt lat="43.3705548" lon="10.8314403"><ele>99.33333333333334</ele><time>2026-04-18T11:05:39.415Z</time></trkpt><trkpt lat="43.3705104" lon="10.831344"><ele>99.0</ele><time>2026-04-18T11:05:40.411Z</time></trkpt><trkpt lat="43.370465" lon="10.8312424"><ele>98.66666666666666</ele><time>2026-04-18T11:05:41.399Z</time></trkpt><trkpt lat="43.3704218" lon="10.8311429"><ele>98.33333333333333</ele><time>2026-04-18T11:05:42.408Z</time></trkpt><trkpt lat="43.3703786" lon="10.8310441"><ele>98.0</ele><time>2026-04-18T11:05:43.394Z</time></trkpt><trkpt lat="43.3703378" lon="10.8309468"><ele>97.99999999999999</ele><time>2026-04-18T11:05:44.4Z</time></trkpt><trkpt lat="43.3702914" lon="10.8308464"><ele>98.0</ele><time>2026-04-18T11:05:45.394Z</time></trkpt><trkpt lat="43.3702437" lon="10.8307469"><ele>98.0</ele><time>2026-04-18T11:05:46.398Z</time></trkpt><trkpt lat="43.3701942" lon="10.8306515"><ele>98.0</ele><time>2026-04-18T11:05:47.4Z</time></trkpt><trkpt lat="43.3701462" lon="10.8305587"><ele>97.99999999999999</ele><time>2026-04-18T11:05:48.399Z</time></trkpt><trkpt lat="43.3700974" lon="10.8304628"><ele>98.0</ele><time>2026-04-18T11:05:49.409Z</time></trkpt><trkpt lat="43.3700486" lon="10.8303608"><ele>97.99999999999999</ele><time>2026-04-18T11:05:50.39Z</time></trkpt><trkpt lat="43.3700086" lon="10.8302603"><ele>98.0</ele><time>2026-04-18T11:05:51.402Z</time></trkpt><trkpt lat="43.369966" lon="10.8301576"><ele>98.0</ele><time>2026-04-18T11:05:52.401Z</time></trkpt><trkpt lat="43.3699262" lon="10.8300429"><ele>98.0</ele><time>2026-04-18T11:05:53.404Z</time></trkpt><trkpt lat="43.3698943" lon="10.8299208"><ele>97.99999999999999</ele><time>2026-04-18T11:05:54.411Z</time></trkpt><trkpt lat="43.3698605" lon="10.829807"><ele>98.0</ele><time>2026-04-18T11:05:55.406Z</time></trkpt><trkpt lat="43.3698286" lon="10.8296949"><ele>98.66666666666666</ele><time>2026-04-18T11:05:56.399Z</time></trkpt><trkpt lat="43.369801" lon="10.8295977"><ele>99.33333333333333</ele><time>2026-04-18T11:05:57.395Z</time></trkpt><trkpt lat="43.3697741" lon="10.8295122"><ele>100.0</ele><time>2026-04-18T11:05:58.408Z</time></trkpt><trkpt lat="43.3697306" lon="10.829365"><ele>100.66666666666666</ele><time>2026-04-18T11:06:00.411Z</time></trkpt><trkpt lat="43.3697107" lon="10.8292792"><ele>101.33333333333333</ele><time>2026-04-18T11:06:01.41Z</time></trkpt><trkpt lat="43.3696854" lon="10.8291809"><ele>102.0</ele><time>2026-04-18T11:06:02.405Z</time></trkpt><trkpt lat="43.3696571" lon="10.829076"><ele>100.66666666666667</ele><time>2026-04-18T11:06:03.403Z</time></trkpt><trkpt lat="43.3696298" lon="10.8289691"><ele>99.33333333333333</ele><time>2026-04-18T11:06:04.4Z</time></trkpt><trkpt lat="43.3696042" lon="10.8288682"><ele>98.0</ele><time>2026-04-18T11:06:05.399Z</time></trkpt><trkpt lat="43.3695774" lon="10.8287722"><ele>96.66666666666666</ele><time>2026-04-18T11:06:06.412Z</time></trkpt><trkpt lat="43.3695526" lon="10.8286685"><ele>95.33333333333333</ele><time>2026-04-18T11:06:07.403Z</time></trkpt><trkpt lat="43.3695286" lon="10.8285554"><ele>94.0</ele><time>2026-04-18T11:06:08.396Z</time></trkpt><trkpt lat="43.3694994" lon="10.8284344"><ele>94.0</ele><time>2026-04-18T11:06:09.402Z</time></trkpt><trkpt lat="43.3694667" lon="10.8283122"><ele>94.0</ele><time>2026-04-18T11:06:10.396Z</time></trkpt><trkpt lat="43.3694405" lon="10.8281889"><ele>94.0</ele><time>2026-04-18T11:06:11.396Z</time></trkpt><trkpt lat="43.3694163" lon="10.8280687"><ele>94.0</ele><time>2026-04-18T11:06:12.4Z</time></trkpt><trkpt lat="43.369398" lon="10.8279511"><ele>94.0</ele><time>2026-04-18T11:06:13.397Z</time></trkpt><trkpt lat="43.3693809" lon="10.8278384"><ele>94.0</ele><time>2026-04-18T11:06:14.402Z</time></trkpt><trkpt lat="43.3693704" lon="10.8277118"><ele>94.0</ele><time>2026-04-18T11:06:15.389Z</time></trkpt><trkpt lat="43.3693718" lon="10.8275762"><ele>94.0</ele><time>2026-04-18T11:06:16.398Z</time></trkpt><trkpt lat="43.3693799" lon="10.8274331"><ele>94.0</ele><time>2026-04-18T11:06:17.4Z</time></trkpt><trkpt lat="43.3693912" lon="10.827285"><ele>94.0</ele><time>2026-04-18T11:06:18.402Z</time></trkpt><trkpt lat="43.3694006" lon="10.8271149"><ele>94.2</ele><time>2026-04-18T11:06:19.403Z</time></trkpt><trkpt lat="43.3694076" lon="10.8269393"><ele>94.4</ele><time>2026-04-18T11:06:20.405Z</time></trkpt><trkpt lat="43.3694166" lon="10.8267968"><ele>94.6</ele><time>2026-04-18T11:06:21.392Z</time></trkpt><trkpt lat="43.369433" lon="10.8266752"><ele>94.8</ele><time>2026-04-18T11:06:22.399Z</time></trkpt><trkpt lat="43.369457" lon="10.8265721"><ele>95.0</ele><time>2026-04-18T11:06:23.403Z</time></trkpt><trkpt lat="43.3694902" lon="10.826462"><ele>94.25</ele><time>2026-04-18T11:06:24.399Z</time></trkpt><trkpt lat="43.3695341" lon="10.8263435"><ele>93.5</ele><time>2026-04-18T11:06:25.403Z</time></trkpt><trkpt lat="43.3695853" lon="10.8262043"><ele>92.75</ele><time>2026-04-18T11:06:26.396Z</time></trkpt><trkpt lat="43.3696343" lon="10.8260604"><ele>92.0</ele><time>2026-04-18T11:06:27.389Z</time></trkpt><trkpt lat="43.36968" lon="10.8258998"><ele>94.0</ele><time>2026-04-18T11:06:28.393Z</time></trkpt><trkpt lat="43.3697212" lon="10.8257466"><ele>96.0</ele><time>2026-04-18T11:06:29.387Z</time></trkpt><trkpt lat="43.3697583" lon="10.8255881"><ele>98.0</ele><time>2026-04-18T11:06:30.387Z</time></trkpt><trkpt lat="43.3697855" lon="10.8254445"><ele>100.0</ele><time>2026-04-18T11:06:31.394Z</time></trkpt><trkpt lat="43.3698019" lon="10.8253025"><ele>100.00000000000001</ele><time>2026-04-18T11:06:32.398Z</time></trkpt><trkpt lat="43.3698149" lon="10.8252109"><ele>100.0</ele><time>2026-04-18T11:06:33.405Z</time></trkpt><trkpt lat="43.3698275" lon="10.8250636"><ele>100.0</ele><time>2026-04-18T11:06:35.398Z</time></trkpt><trkpt lat="43.3698221" lon="10.8249602"><ele>100.0</ele><time>2026-04-18T11:06:36.4Z</time></trkpt><trkpt lat="43.3698243" lon="10.8248349"><ele>100.00000000000001</ele><time>2026-04-18T11:06:37.396Z</time></trkpt><trkpt lat="43.3698262" lon="10.8247026"><ele>100.0</ele><time>2026-04-18T11:06:38.403Z</time></trkpt><trkpt lat="43.3698236" lon="10.8245696"><ele>98.0</ele><time>2026-04-18T11:06:39.394Z</time></trkpt><trkpt lat="43.3698101" lon="10.8244268"><ele>96.0</ele><time>2026-04-18T11:06:40.402Z</time></trkpt><trkpt lat="43.3697881" lon="10.8242845"><ele>94.0</ele><time>2026-04-18T11:06:41.397Z</time></trkpt><trkpt lat="43.3697609" lon="10.8241374"><ele>92.0</ele><time>2026-04-18T11:06:42.412Z</time></trkpt><trkpt lat="43.3697298" lon="10.8239946"><ele>90.0</ele><time>2026-04-18T11:06:43.389Z</time></trkpt><trkpt lat="43.3696814" lon="10.8238577"><ele>88.75</ele><time>2026-04-18T11:06:44.389Z</time></trkpt><trkpt lat="43.3696313" lon="10.8237156"><ele>87.5</ele><time>2026-04-18T11:06:45.389Z</time></trkpt><trkpt lat="43.3695638" lon="10.8235595"><ele>86.25</ele><time>2026-04-18T11:06:46.391Z</time></trkpt><trkpt lat="43.3694912" lon="10.823399"><ele>85.0</ele><time>2026-04-18T11:06:47.391Z</time></trkpt><trkpt lat="43.3694135" lon="10.8232599"><ele>85.0</ele><time>2026-04-18T11:06:48.412Z</time></trkpt><trkpt lat="43.3693446" lon="10.8231547"><ele>85.0</ele><time>2026-04-18T11:06:49.399Z</time></trkpt><trkpt lat="43.3692901" lon="10.8230772"><ele>85.0</ele><time>2026-04-18T11:06:50.396Z</time></trkpt><trkpt lat="43.3692332" lon="10.8229994"><ele>85.0</ele><time>2026-04-18T11:06:51.402Z</time></trkpt><trkpt lat="43.3691595" lon="10.8229098"><ele>85.0</ele><time>2026-04-18T11:06:52.381Z</time></trkpt><trkpt lat="43.3690722" lon="10.822812"><ele>85.0</ele><time>2026-04-18T11:06:53.394Z</time></trkpt><trkpt lat="43.3689764" lon="10.8227115"><ele>85.0</ele><time>2026-04-18T11:06:54.392Z</time></trkpt><trkpt lat="43.3688726" lon="10.8226098"><ele>85.0</ele><time>2026-04-18T11:06:55.404Z</time></trkpt><trkpt lat="43.3687789" lon="10.8225127"><ele>85.0</ele><time>2026-04-18T11:06:56.405Z</time></trkpt><trkpt lat="43.3686844" lon="10.8224356"><ele>84.83333333333333</ele><time>2026-04-18T11:06:57.388Z</time></trkpt><trkpt lat="43.3686017" lon="10.8223869"><ele>84.66666666666666</ele><time>2026-04-18T11:06:58.401Z</time></trkpt><trkpt lat="43.3685333" lon="10.8223273"><ele>84.5</ele><time>2026-04-18T11:06:59.401Z</time></trkpt><trkpt lat="43.3684782" lon="10.82226"><ele>84.33333333333333</ele><time>2026-04-18T11:07:00.391Z</time></trkpt><trkpt lat="43.3684191" lon="10.8222063"><ele>84.16666666666667</ele><time>2026-04-18T11:07:01.406Z</time></trkpt><trkpt lat="43.3683523" lon="10.8221492"><ele>84.0</ele><time>2026-04-18T11:07:02.4Z</time></trkpt><trkpt lat="43.3682968" lon="10.8220945"><ele>84.0</ele><time>2026-04-18T11:07:03.4Z</time></trkpt><trkpt lat="43.3682511" lon="10.8220349"><ele>84.0</ele><time>2026-04-18T11:07:04.393Z</time></trkpt><trkpt lat="43.3681559" lon="10.8219425"><ele>84.0</ele><time>2026-04-18T11:07:06.409Z</time></trkpt><trkpt lat="43.3680502" lon="10.821849"><ele>84.0</ele><time>2026-04-18T11:07:08.392Z</time></trkpt><trkpt lat="43.3679463" lon="10.8217479"><ele>84.0</ele><time>2026-04-18T11:07:10.401Z</time></trkpt><trkpt lat="43.3678803" lon="10.8216899"><ele>84.16666666666667</ele><time>2026-04-18T11:07:11.389Z</time></trkpt><trkpt lat="43.3678045" lon="10.8216302"><ele>84.33333333333333</ele><time>2026-04-18T11:07:12.402Z</time></trkpt><trkpt lat="43.3677281" lon="10.8215745"><ele>84.5</ele><time>2026-04-18T11:07:13.398Z</time></trkpt><trkpt lat="43.3676611" lon="10.8215258"><ele>84.66666666666666</ele><time>2026-04-18T11:07:14.391Z</time></trkpt><trkpt lat="43.367593" lon="10.8214755"><ele>84.83333333333333</ele><time>2026-04-18T11:07:15.401Z</time></trkpt><trkpt lat="43.3675278" lon="10.8214286"><ele>85.0</ele><time>2026-04-18T11:07:16.408Z</time></trkpt><trkpt lat="43.3674617" lon="10.8213724"><ele>85.0</ele><time>2026-04-18T11:07:17.39Z</time></trkpt><trkpt lat="43.3673992" lon="10.8213172"><ele>85.0</ele><time>2026-04-18T11:07:18.395Z</time></trkpt><trkpt lat="43.3673421" lon="10.8212589"><ele>85.0</ele><time>2026-04-18T11:07:19.399Z</time></trkpt><trkpt lat="43.3672807" lon="10.8212"><ele>85.0</ele><time>2026-04-18T11:07:20.404Z</time></trkpt><trkpt lat="43.3672225" lon="10.8211408"><ele>85.0</ele><time>2026-04-18T11:07:21.399Z</time></trkpt><trkpt lat="43.3671593" lon="10.8210923"><ele>85.0</ele><time>2026-04-18T11:07:22.395Z</time></trkpt><trkpt lat="43.3670948" lon="10.8210439"><ele>85.0</ele><time>2026-04-18T11:07:23.404Z</time></trkpt><trkpt lat="43.3670243" lon="10.8209885"><ele>84.28571428571429</ele><time>2026-04-18T11:07:24.399Z</time></trkpt><trkpt lat="43.3669595" lon="10.8209364"><ele>83.57142857142857</ele><time>2026-04-18T11:07:25.4Z</time></trkpt><trkpt lat="43.3668967" lon="10.8208778"><ele>82.85714285714286</ele><time>2026-04-18T11:07:26.409Z</time></trkpt><trkpt lat="43.366834" lon="10.8208191"><ele>82.14285714285714</ele><time>2026-04-18T11:07:27.403Z</time></trkpt><trkpt lat="43.3667745" lon="10.8207534"><ele>81.42857142857143</ele><time>2026-04-18T11:07:28.392Z</time></trkpt><trkpt lat="43.3667214" lon="10.820697"><ele>80.71428571428571</ele><time>2026-04-18T11:07:29.399Z</time></trkpt><trkpt lat="43.3666679" lon="10.8206412"><ele>80.0</ele><time>2026-04-18T11:07:30.404Z</time></trkpt><trkpt lat="43.3665761" lon="10.8205494"><ele>80.0</ele><time>2026-04-18T11:07:32.392Z</time></trkpt><trkpt lat="43.3665038" lon="10.820473"><ele>80.0</ele><time>2026-04-18T11:07:34.399Z</time></trkpt><trkpt lat="43.3664313" lon="10.8203907"><ele>80.0</ele><time>2026-04-18T11:07:36.4Z</time></trkpt><trkpt lat="43.3663456" lon="10.8202869"><ele>80.0</ele><time>2026-04-18T11:07:38.404Z</time></trkpt><trkpt lat="43.3662995" lon="10.8202211"><ele>80.0</ele><time>2026-04-18T11:07:39.403Z</time></trkpt><trkpt lat="43.3662497" lon="10.8201507"><ele>80.0</ele><time>2026-04-18T11:07:40.401Z</time></trkpt><trkpt lat="43.3661981" lon="10.8200709"><ele>79.83333333333334</ele><time>2026-04-18T11:07:41.404Z</time></trkpt><trkpt lat="43.3661427" lon="10.8199898"><ele>79.66666666666667</ele><time>2026-04-18T11:07:42.394Z</time></trkpt><trkpt lat="43.3660877" lon="10.8199106"><ele>79.5</ele><time>2026-04-18T11:07:43.394Z</time></trkpt><trkpt lat="43.3660248" lon="10.8198318"><ele>79.33333333333333</ele><time>2026-04-18T11:07:44.418Z</time></trkpt><trkpt lat="43.3659635" lon="10.8197469"><ele>79.16666666666666</ele><time>2026-04-18T11:07:45.397Z</time></trkpt><trkpt lat="43.3659007" lon="10.819664"><ele>79.0</ele><time>2026-04-18T11:07:46.397Z</time></trkpt><trkpt lat="43.3658432" lon="10.8195758"><ele>79.0</ele><time>2026-04-18T11:07:47.392Z</time></trkpt><trkpt lat="43.3657785" lon="10.8194867"><ele>79.0</ele><time>2026-04-18T11:07:48.399Z</time></trkpt><trkpt lat="43.3657171" lon="10.8193914"><ele>79.0</ele><time>2026-04-18T11:07:49.403Z</time></trkpt><trkpt lat="43.3656478" lon="10.8192869"><ele>79.0</ele><time>2026-04-18T11:07:50.405Z</time></trkpt><trkpt lat="43.3655816" lon="10.8191638"><ele>79.0</ele><time>2026-04-18T11:07:51.4Z</time></trkpt><trkpt lat="43.3655" lon="10.8190346"><ele>79.0</ele><time>2026-04-18T11:07:52.395Z</time></trkpt><trkpt lat="43.3654243" lon="10.8189343"><ele>79.0</ele><time>2026-04-18T11:07:53.402Z</time></trkpt><trkpt lat="43.3653543" lon="10.8188429"><ele>79.0</ele><time>2026-04-18T11:07:54.396Z</time></trkpt><trkpt lat="43.3652891" lon="10.8187526"><ele>79.0</ele><time>2026-04-18T11:07:55.383Z</time></trkpt><trkpt lat="43.3652276" lon="10.818659"><ele>79.0</ele><time>2026-04-18T11:07:56.399Z</time></trkpt><trkpt lat="43.365167" lon="10.8185655"><ele>78.5</ele><time>2026-04-18T11:07:57.389Z</time></trkpt><trkpt lat="43.3651076" lon="10.8184739"><ele>78.0</ele><time>2026-04-18T11:07:58.391Z</time></trkpt><trkpt lat="43.365051" lon="10.8183874"><ele>77.5</ele><time>2026-04-18T11:07:59.397Z</time></trkpt><trkpt lat="43.3649881" lon="10.8182978"><ele>77.0</ele><time>2026-04-18T11:08:00.394Z</time></trkpt><trkpt lat="43.3649271" lon="10.8182085"><ele>76.5</ele><time>2026-04-18T11:08:01.403Z</time></trkpt><trkpt lat="43.364871" lon="10.818122"><ele>76.0</ele><time>2026-04-18T11:08:02.405Z</time></trkpt><trkpt lat="43.364814" lon="10.8180399"><ele>76.0</ele><time>2026-04-18T11:08:03.402Z</time></trkpt><trkpt lat="43.3647558" lon="10.817962"><ele>76.0</ele><time>2026-04-18T11:08:04.399Z</time></trkpt><trkpt lat="43.3646954" lon="10.8178812"><ele>76.0</ele><time>2026-04-18T11:08:05.394Z</time></trkpt><trkpt lat="43.3646341" lon="10.8177914"><ele>76.0</ele><time>2026-04-18T11:08:06.393Z</time></trkpt><trkpt lat="43.3645684" lon="10.8177073"><ele>76.0</ele><time>2026-04-18T11:08:07.398Z</time></trkpt><trkpt lat="43.3645021" lon="10.8176137"><ele>76.0</ele><time>2026-04-18T11:08:08.393Z</time></trkpt><trkpt lat="43.3644383" lon="10.8175022"><ele>76.0</ele><time>2026-04-18T11:08:09.397Z</time></trkpt><trkpt lat="43.3643649" lon="10.8173847"><ele>76.0</ele><time>2026-04-18T11:08:10.41Z</time></trkpt><trkpt lat="43.3642983" lon="10.8172795"><ele>76.0</ele><time>2026-04-18T11:08:11.401Z</time></trkpt><trkpt lat="43.3642317" lon="10.8171752"><ele>76.0</ele><time>2026-04-18T11:08:12.408Z</time></trkpt><trkpt lat="43.3641647" lon="10.8170833"><ele>76.0</ele><time>2026-04-18T11:08:13.403Z</time></trkpt><trkpt lat="43.3641028" lon="10.8169962"><ele>76.0</ele><time>2026-04-18T11:08:14.426Z</time></trkpt><trkpt lat="43.3640485" lon="10.8169212"><ele>76.0</ele><time>2026-04-18T11:08:15.416Z</time></trkpt><trkpt lat="43.3640029" lon="10.8168556"><ele>76.0</ele><time>2026-04-18T11:08:16.409Z</time></trkpt><trkpt lat="43.3639659" lon="10.8167201"><ele>76.0</ele><time>2026-04-18T11:08:18.407Z</time></trkpt><trkpt lat="43.3640182" lon="10.8165839"><ele>76.0</ele><time>2026-04-18T11:08:20.404Z</time></trkpt><trkpt lat="43.364071" lon="10.8165129"><ele>76.0</ele><time>2026-04-18T11:08:21.404Z</time></trkpt><trkpt lat="43.3641344" lon="10.816438"><ele>75.83333333333333</ele><time>2026-04-18T11:08:22.396Z</time></trkpt><trkpt lat="43.3642042" lon="10.8163552"><ele>75.66666666666666</ele><time>2026-04-18T11:08:23.409Z</time></trkpt><trkpt lat="43.364271" lon="10.816269"><ele>75.5</ele><time>2026-04-18T11:08:24.399Z</time></trkpt><trkpt lat="43.3643337" lon="10.8161828"><ele>75.33333333333333</ele><time>2026-04-18T11:08:25.4Z</time></trkpt><trkpt lat="43.3643951" lon="10.8160982"><ele>75.16666666666667</ele><time>2026-04-18T11:08:26.407Z</time></trkpt><trkpt lat="43.3644506" lon="10.8160222"><ele>75.0</ele><time>2026-04-18T11:08:27.408Z</time></trkpt><trkpt lat="43.3645026" lon="10.8159525"><ele>75.0</ele><time>2026-04-18T11:08:28.391Z</time></trkpt><trkpt lat="43.3645568" lon="10.8158811"><ele>75.0</ele><time>2026-04-18T11:08:29.4Z</time></trkpt><trkpt lat="43.3646037" lon="10.8158153"><ele>75.0</ele><time>2026-04-18T11:08:30.408Z</time></trkpt><trkpt lat="43.3646606" lon="10.8157461"><ele>75.0</ele><time>2026-04-18T11:08:31.399Z</time></trkpt><trkpt lat="43.3647381" lon="10.8156808"><ele>75.0</ele><time>2026-04-18T11:08:32.41Z</time></trkpt><trkpt lat="43.3648317" lon="10.8156063"><ele>75.0</ele><time>2026-04-18T11:08:33.406Z</time></trkpt><trkpt lat="43.3649204" lon="10.8155315"><ele>75.4</ele><time>2026-04-18T11:08:34.404Z</time></trkpt><trkpt lat="43.3650042" lon="10.8154501"><ele>75.8</ele><time>2026-04-18T11:08:35.41Z</time></trkpt><trkpt lat="43.3650898" lon="10.815375"><ele>76.2</ele><time>2026-04-18T11:08:36.406Z</time></trkpt><trkpt lat="43.3651691" lon="10.8153235"><ele>76.6</ele><time>2026-04-18T11:08:37.407Z</time></trkpt><trkpt lat="43.365254" lon="10.815293"><ele>77.0</ele><time>2026-04-18T11:08:38.405Z</time></trkpt><trkpt lat="43.3653449" lon="10.8152686"><ele>77.0</ele><time>2026-04-18T11:08:39.411Z</time></trkpt><trkpt lat="43.3654537" lon="10.8152405"><ele>77.0</ele><time>2026-04-18T11:08:40.406Z</time></trkpt><trkpt lat="43.3655623" lon="10.8152176"><ele>77.0</ele><time>2026-04-18T11:08:41.409Z</time></trkpt><trkpt lat="43.365675" lon="10.8151884"><ele>77.0</ele><time>2026-04-18T11:08:42.399Z</time></trkpt><trkpt lat="43.3657876" lon="10.8151627"><ele>77.0</ele><time>2026-04-18T11:08:43.392Z</time></trkpt><trkpt lat="43.3659025" lon="10.8151417"><ele>78.2</ele><time>2026-04-18T11:08:44.419Z</time></trkpt><trkpt lat="43.3660208" lon="10.8151328"><ele>79.4</ele><time>2026-04-18T11:08:45.403Z</time></trkpt><trkpt lat="43.3661356" lon="10.8151229"><ele>80.60000000000001</ele><time>2026-04-18T11:08:46.398Z</time></trkpt><trkpt lat="43.3662413" lon="10.8151216"><ele>81.80000000000001</ele><time>2026-04-18T11:08:47.4Z</time></trkpt><trkpt lat="43.3663402" lon="10.8151275"><ele>83.0</ele><time>2026-04-18T11:08:48.403Z</time></trkpt><trkpt lat="43.366421" lon="10.8151489"><ele>84.80000000000001</ele><time>2026-04-18T11:08:49.398Z</time></trkpt><trkpt lat="43.3665299" lon="10.8151678"><ele>86.6</ele><time>2026-04-18T11:08:51.382Z</time></trkpt><trkpt lat="43.3666055" lon="10.8151583"><ele>88.4</ele><time>2026-04-18T11:08:53.39Z</time></trkpt><trkpt lat="43.3666231" lon="10.8150596"><ele>90.19999999999999</ele><time>2026-04-18T11:09:01.409Z</time></trkpt><trkpt lat="43.3665294" lon="10.8149876"><ele>92.0</ele><time>2026-04-18T11:09:03.396Z</time></trkpt><trkpt lat="43.366408" lon="10.8149384"><ele>90.19999999999999</ele><time>2026-04-18T11:09:05.397Z</time></trkpt><trkpt lat="43.3663337" lon="10.8148948"><ele>88.4</ele><time>2026-04-18T11:09:06.402Z</time></trkpt><trkpt lat="43.3662485" lon="10.8148487"><ele>86.6</ele><time>2026-04-18T11:09:07.414Z</time></trkpt><trkpt lat="43.3661523" lon="10.8148035"><ele>84.80000000000001</ele><time>2026-04-18T11:09:08.414Z</time></trkpt><trkpt lat="43.3660491" lon="10.814747"><ele>83.0</ele><time>2026-04-18T11:09:09.406Z</time></trkpt><trkpt lat="43.3659409" lon="10.8146807"><ele>83.0</ele><time>2026-04-18T11:09:10.392Z</time></trkpt><trkpt lat="43.36583" lon="10.8145976"><ele>83.0</ele><time>2026-04-18T11:09:11.418Z</time></trkpt><trkpt lat="43.3657254" lon="10.8145023"><ele>83.0</ele><time>2026-04-18T11:09:12.394Z</time></trkpt><trkpt lat="43.3656208" lon="10.8144072"><ele>83.0</ele><time>2026-04-18T11:09:13.397Z</time></trkpt><trkpt lat="43.3655117" lon="10.8143015"><ele>82.0</ele><time>2026-04-18T11:09:14.4Z</time></trkpt><trkpt lat="43.3654029" lon="10.8141962"><ele>81.0</ele><time>2026-04-18T11:09:15.4Z</time></trkpt><trkpt lat="43.3652977" lon="10.8140936"><ele>80.0</ele><time>2026-04-18T11:09:16.403Z</time></trkpt><trkpt lat="43.3651963" lon="10.8139956"><ele>79.0</ele><time>2026-04-18T11:09:17.394Z</time></trkpt><trkpt lat="43.3650911" lon="10.8138939"><ele>79.0</ele><time>2026-04-18T11:09:18.4Z</time></trkpt><trkpt lat="43.364995" lon="10.8138078"><ele>79.0</ele><time>2026-04-18T11:09:19.403Z</time></trkpt><trkpt lat="43.3649068" lon="10.8137222"><ele>79.0</ele><time>2026-04-18T11:09:20.385Z</time></trkpt><trkpt lat="43.3648255" lon="10.8136477"><ele>79.0</ele><time>2026-04-18T11:09:21.4Z</time></trkpt><trkpt lat="43.3647484" lon="10.8135816"><ele>79.0</ele><time>2026-04-18T11:09:22.399Z</time></trkpt><trkpt lat="43.3646753" lon="10.8135263"><ele>78.85714285714286</ele><time>2026-04-18T11:09:23.392Z</time></trkpt><trkpt lat="43.364614" lon="10.8134722"><ele>78.71428571428572</ele><time>2026-04-18T11:09:24.399Z</time></trkpt><trkpt lat="43.364558" lon="10.8134169"><ele>78.57142857142858</ele><time>2026-04-18T11:09:25.395Z</time></trkpt><trkpt lat="43.3645009" lon="10.8133606"><ele>78.42857142857143</ele><time>2026-04-18T11:09:26.397Z</time></trkpt><trkpt lat="43.3644412" lon="10.8133073"><ele>78.28571428571428</ele><time>2026-04-18T11:09:27.389Z</time></trkpt><trkpt lat="43.3643813" lon="10.8132523"><ele>78.14285714285715</ele><time>2026-04-18T11:09:28.395Z</time></trkpt><trkpt lat="43.3643188" lon="10.813194"><ele>78.0</ele><time>2026-04-18T11:09:29.392Z</time></trkpt><trkpt lat="43.3642456" lon="10.8131298"><ele>78.0</ele><time>2026-04-18T11:09:30.402Z</time></trkpt><trkpt lat="43.3641692" lon="10.8130517"><ele>78.0</ele><time>2026-04-18T11:09:31.397Z</time></trkpt><trkpt lat="43.3640948" lon="10.8129781"><ele>78.0</ele><time>2026-04-18T11:09:32.395Z</time></trkpt><trkpt lat="43.3640268" lon="10.8129109"><ele>78.0</ele><time>2026-04-18T11:09:33.41Z</time></trkpt><trkpt lat="43.3639759" lon="10.8128582"><ele>78.0</ele><time>2026-04-18T11:09:34.405Z</time></trkpt><trkpt lat="43.363933" lon="10.8127934"><ele>78.0</ele><time>2026-04-18T11:09:36.4Z</time></trkpt><trkpt lat="43.3638864" lon="10.8127258"><ele>78.2</ele><time>2026-04-18T11:09:44.412Z</time></trkpt><trkpt lat="43.3638123" lon="10.8126488"><ele>78.4</ele><time>2026-04-18T11:09:46.398Z</time></trkpt><trkpt lat="43.3636979" lon="10.8126169"><ele>78.60000000000001</ele><time>2026-04-18T11:09:48.401Z</time></trkpt><trkpt lat="43.3636189" lon="10.8126239"><ele>78.8</ele><time>2026-04-18T11:09:49.407Z</time></trkpt><trkpt lat="43.3635381" lon="10.8126216"><ele>79.0</ele><time>2026-04-18T11:09:50.401Z</time></trkpt><trkpt lat="43.3634555" lon="10.8126245"><ele>79.0</ele><time>2026-04-18T11:09:51.392Z</time></trkpt><trkpt lat="43.3633694" lon="10.8126246"><ele>79.0</ele><time>2026-04-18T11:09:52.412Z</time></trkpt><trkpt lat="43.3632663" lon="10.8126331"><ele>79.0</ele><time>2026-04-18T11:09:53.407Z</time></trkpt><trkpt lat="43.3631678" lon="10.8126299"><ele>79.0</ele><time>2026-04-18T11:09:54.414Z</time></trkpt><trkpt lat="43.3630665" lon="10.8126261"><ele>79.0</ele><time>2026-04-18T11:09:55.4Z</time></trkpt><trkpt lat="43.3629629" lon="10.8126214"><ele>79.0</ele><time>2026-04-18T11:09:56.388Z</time></trkpt><trkpt lat="43.3628559" lon="10.8126128"><ele>79.0</ele><time>2026-04-18T11:09:57.399Z</time></trkpt><trkpt lat="43.3627567" lon="10.8126168"><ele>79.0</ele><time>2026-04-18T11:09:58.408Z</time></trkpt><trkpt lat="43.3626585" lon="10.8126175"><ele>79.0</ele><time>2026-04-18T11:09:59.399Z</time></trkpt><trkpt lat="43.362558" lon="10.8126233"><ele>79.0</ele><time>2026-04-18T11:10:00.397Z</time></trkpt><trkpt lat="43.362461" lon="10.8126212"><ele>79.0</ele><time>2026-04-18T11:10:01.417Z</time></trkpt><trkpt lat="43.3623642" lon="10.8126175"><ele>79.0</ele><time>2026-04-18T11:10:02.405Z</time></trkpt><trkpt lat="43.3622688" lon="10.8126102"><ele>79.0</ele><time>2026-04-18T11:10:03.397Z</time></trkpt><trkpt lat="43.3621612" lon="10.8125939"><ele>79.0</ele><time>2026-04-18T11:10:04.399Z</time></trkpt><trkpt lat="43.3620545" lon="10.8125766"><ele>79.0</ele><time>2026-04-18T11:10:05.396Z</time></trkpt><trkpt lat="43.3619465" lon="10.8125534"><ele>78.4</ele><time>2026-04-18T11:10:06.404Z</time></trkpt><trkpt lat="43.3618446" lon="10.8125287"><ele>77.80000000000001</ele><time>2026-04-18T11:10:07.4Z</time></trkpt><trkpt lat="43.3617434" lon="10.8124906"><ele>77.19999999999999</ele><time>2026-04-18T11:10:08.4Z</time></trkpt><trkpt lat="43.3616446" lon="10.8124454"><ele>76.6</ele><time>2026-04-18T11:10:09.388Z</time></trkpt><trkpt lat="43.3615475" lon="10.8123867"><ele>76.0</ele><time>2026-04-18T11:10:10.403Z</time></trkpt><trkpt lat="43.3614573" lon="10.8123165"><ele>76.0</ele><time>2026-04-18T11:10:11.394Z</time></trkpt><trkpt lat="43.3613737" lon="10.8122336"><ele>76.0</ele><time>2026-04-18T11:10:12.411Z</time></trkpt><trkpt lat="43.361293" lon="10.8121394"><ele>76.0</ele><time>2026-04-18T11:10:13.392Z</time></trkpt><trkpt lat="43.3612088" lon="10.8120384"><ele>76.0</ele><time>2026-04-18T11:10:14.405Z</time></trkpt><trkpt lat="43.3611283" lon="10.8119104"><ele>76.0</ele><time>2026-04-18T11:10:15.394Z</time></trkpt><trkpt lat="43.3610534" lon="10.8117801"><ele>75.75</ele><time>2026-04-18T11:10:16.401Z</time></trkpt><trkpt lat="43.3609741" lon="10.8116439"><ele>75.5</ele><time>2026-04-18T11:10:17.399Z</time></trkpt><trkpt lat="43.3609024" lon="10.8115069"><ele>75.25</ele><time>2026-04-18T11:10:18.398Z</time></trkpt><trkpt lat="43.3608266" lon="10.8113647"><ele>75.0</ele><time>2026-04-18T11:10:19.394Z</time></trkpt><trkpt lat="43.36075" lon="10.8112277"><ele>75.0</ele><time>2026-04-18T11:10:20.394Z</time></trkpt><trkpt lat="43.3606795" lon="10.8110889"><ele>75.0</ele><time>2026-04-18T11:10:21.395Z</time></trkpt><trkpt lat="43.3606123" lon="10.8109489"><ele>75.0</ele><time>2026-04-18T11:10:22.395Z</time></trkpt><trkpt lat="43.3605583" lon="10.8107832"><ele>75.0</ele><time>2026-04-18T11:10:23.389Z</time></trkpt><trkpt lat="43.3605129" lon="10.8106137"><ele>74.25</ele><time>2026-04-18T11:10:24.395Z</time></trkpt><trkpt lat="43.3604654" lon="10.8104396"><ele>73.5</ele><time>2026-04-18T11:10:25.393Z</time></trkpt><trkpt lat="43.3604153" lon="10.8102727"><ele>72.75</ele><time>2026-04-18T11:10:26.397Z</time></trkpt><trkpt lat="43.3603607" lon="10.81011"><ele>72.0</ele><time>2026-04-18T11:10:27.396Z</time></trkpt><trkpt lat="43.3603097" lon="10.8099361"><ele>72.0</ele><time>2026-04-18T11:10:28.4Z</time></trkpt><trkpt lat="43.3602578" lon="10.8097598"><ele>72.0</ele><time>2026-04-18T11:10:29.395Z</time></trkpt><trkpt lat="43.3602016" lon="10.8095851"><ele>72.0</ele><time>2026-04-18T11:10:30.397Z</time></trkpt><trkpt lat="43.3601469" lon="10.8094091"><ele>72.0</ele><time>2026-04-18T11:10:31.404Z</time></trkpt><trkpt lat="43.3600879" lon="10.8092306"><ele>72.5</ele><time>2026-04-18T11:10:32.394Z</time></trkpt><trkpt lat="43.3600291" lon="10.8090545"><ele>73.0</ele><time>2026-04-18T11:10:33.394Z</time></trkpt><trkpt lat="43.35997" lon="10.8088695"><ele>73.5</ele><time>2026-04-18T11:10:34.392Z</time></trkpt><trkpt lat="43.3599149" lon="10.8086764"><ele>74.0</ele><time>2026-04-18T11:10:35.392Z</time></trkpt><trkpt lat="43.359855" lon="10.8084806"><ele>75.33333333333334</ele><time>2026-04-18T11:10:36.396Z</time></trkpt><trkpt lat="43.3597906" lon="10.8082848"><ele>76.66666666666667</ele><time>2026-04-18T11:10:37.398Z</time></trkpt><trkpt lat="43.3597322" lon="10.8080921"><ele>78.0</ele><time>2026-04-18T11:10:38.405Z</time></trkpt><trkpt lat="43.3596817" lon="10.8079075"><ele>76.0</ele><time>2026-04-18T11:10:39.396Z</time></trkpt><trkpt lat="43.3596326" lon="10.8077223"><ele>74.0</ele><time>2026-04-18T11:10:40.391Z</time></trkpt><trkpt lat="43.3595805" lon="10.8075441"><ele>72.0</ele><time>2026-04-18T11:10:41.384Z</time></trkpt><trkpt lat="43.359529" lon="10.8073644"><ele>70.0</ele><time>2026-04-18T11:10:42.391Z</time></trkpt><trkpt lat="43.3594784" lon="10.8071881"><ele>70.0</ele><time>2026-04-18T11:10:43.392Z</time></trkpt><trkpt lat="43.3594207" lon="10.8070131"><ele>70.0</ele><time>2026-04-18T11:10:44.413Z</time></trkpt><trkpt lat="43.3593751" lon="10.8068471"><ele>70.0</ele><time>2026-04-18T11:10:45.383Z</time></trkpt><trkpt lat="43.3593265" lon="10.8066821"><ele>70.0</ele><time>2026-04-18T11:10:46.381Z</time></trkpt><trkpt lat="43.3592808" lon="10.8065228"><ele>69.75</ele><time>2026-04-18T11:10:47.394Z</time></trkpt><trkpt lat="43.3592477" lon="10.8063709"><ele>69.5</ele><time>2026-04-18T11:10:48.396Z</time></trkpt><trkpt lat="43.3592387" lon="10.8062176"><ele>69.25</ele><time>2026-04-18T11:10:49.391Z</time></trkpt><trkpt lat="43.3592471" lon="10.8060538"><ele>69.0</ele><time>2026-04-18T11:10:50.392Z</time></trkpt><trkpt lat="43.3592666" lon="10.8058791"><ele>69.0</ele><time>2026-04-18T11:10:51.392Z</time></trkpt><trkpt lat="43.3592873" lon="10.8057075"><ele>69.0</ele><time>2026-04-18T11:10:52.398Z</time></trkpt><trkpt lat="43.3593111" lon="10.8055297"><ele>69.0</ele><time>2026-04-18T11:10:53.384Z</time></trkpt><trkpt lat="43.359336" lon="10.8053403"><ele>69.0</ele><time>2026-04-18T11:10:54.397Z</time></trkpt><trkpt lat="43.3593649" lon="10.8051473"><ele>68.5</ele><time>2026-04-18T11:10:55.394Z</time></trkpt><trkpt lat="43.359393" lon="10.8049448"><ele>68.0</ele><time>2026-04-18T11:10:56.39Z</time></trkpt><trkpt lat="43.3594156" lon="10.8047437"><ele>67.5</ele><time>2026-04-18T11:10:57.394Z</time></trkpt><trkpt lat="43.3594382" lon="10.8045394"><ele>67.0</ele><time>2026-04-18T11:10:58.402Z</time></trkpt><trkpt lat="43.3594603" lon="10.8043397"><ele>66.5</ele><time>2026-04-18T11:10:59.4Z</time></trkpt><trkpt lat="43.359481" lon="10.8041441"><ele>66.0</ele><time>2026-04-18T11:11:00.4Z</time></trkpt><trkpt lat="43.3594901" lon="10.8039476"><ele>65.5</ele><time>2026-04-18T11:11:01.383Z</time></trkpt><trkpt lat="43.3594754" lon="10.8037295"><ele>65.0</ele><time>2026-04-18T11:11:02.389Z</time></trkpt><trkpt lat="43.3594467" lon="10.8035358"><ele>65.25</ele><time>2026-04-18T11:11:03.395Z</time></trkpt><trkpt lat="43.3594228" lon="10.8033531"><ele>65.5</ele><time>2026-04-18T11:11:04.398Z</time></trkpt><trkpt lat="43.3593925" lon="10.8031772"><ele>65.75</ele><time>2026-04-18T11:11:05.399Z</time></trkpt><trkpt lat="43.3593528" lon="10.8030069"><ele>66.0</ele><time>2026-04-18T11:11:06.398Z</time></trkpt><trkpt lat="43.3592989" lon="10.8028336"><ele>66.0</ele><time>2026-04-18T11:11:07.401Z</time></trkpt><trkpt lat="43.3592251" lon="10.802666"><ele>66.0</ele><time>2026-04-18T11:11:08.396Z</time></trkpt><trkpt lat="43.359134" lon="10.8024987"><ele>66.0</ele><time>2026-04-18T11:11:09.404Z</time></trkpt><trkpt lat="43.3590403" lon="10.8023351"><ele>66.0</ele><time>2026-04-18T11:11:10.401Z</time></trkpt><trkpt lat="43.3589501" lon="10.8021808"><ele>65.66666666666667</ele><time>2026-04-18T11:11:11.405Z</time></trkpt><trkpt lat="43.3588504" lon="10.802027"><ele>65.33333333333334</ele><time>2026-04-18T11:11:12.41Z</time></trkpt><trkpt lat="43.3587512" lon="10.8018735"><ele>65.0</ele><time>2026-04-18T11:11:13.413Z</time></trkpt><trkpt lat="43.3586516" lon="10.8017175"><ele>65.5</ele><time>2026-04-18T11:11:14.396Z</time></trkpt><trkpt lat="43.3585577" lon="10.801563"><ele>66.0</ele><time>2026-04-18T11:11:15.394Z</time></trkpt><trkpt lat="43.3584668" lon="10.8014062"><ele>66.5</ele><time>2026-04-18T11:11:16.4Z</time></trkpt><trkpt lat="43.3583799" lon="10.8012422"><ele>67.0</ele><time>2026-04-18T11:11:17.392Z</time></trkpt><trkpt lat="43.3582953" lon="10.8010788"><ele>68.25</ele><time>2026-04-18T11:11:18.415Z</time></trkpt><trkpt lat="43.3582243" lon="10.8009118"><ele>69.5</ele><time>2026-04-18T11:11:19.4Z</time></trkpt><trkpt lat="43.3581672" lon="10.8007286"><ele>70.75</ele><time>2026-04-18T11:11:20.399Z</time></trkpt><trkpt lat="43.3581059" lon="10.8005432"><ele>72.0</ele><time>2026-04-18T11:11:21.401Z</time></trkpt><trkpt lat="43.3580423" lon="10.8003654"><ele>70.25</ele><time>2026-04-18T11:11:22.399Z</time></trkpt><trkpt lat="43.3579811" lon="10.8001862"><ele>68.5</ele><time>2026-04-18T11:11:23.397Z</time></trkpt><trkpt lat="43.3579222" lon="10.8000075"><ele>66.75</ele><time>2026-04-18T11:11:24.405Z</time></trkpt><trkpt lat="43.3578587" lon="10.7998297"><ele>65.0</ele><time>2026-04-18T11:11:25.405Z</time></trkpt><trkpt lat="43.3577952" lon="10.7996397"><ele>65.0</ele><time>2026-04-18T11:11:26.396Z</time></trkpt><trkpt lat="43.3577229" lon="10.7994592"><ele>65.0</ele><time>2026-04-18T11:11:27.402Z</time></trkpt><trkpt lat="43.3576431" lon="10.7992776"><ele>65.0</ele><time>2026-04-18T11:11:28.398Z</time></trkpt><trkpt lat="43.3575482" lon="10.7991042"><ele>65.66666666666667</ele><time>2026-04-18T11:11:29.398Z</time></trkpt><trkpt lat="43.3574412" lon="10.7989317"><ele>66.33333333333333</ele><time>2026-04-18T11:11:30.4Z</time></trkpt><trkpt lat="43.3573335" lon="10.7987628"><ele>67.0</ele><time>2026-04-18T11:11:31.393Z</time></trkpt><trkpt lat="43.3572261" lon="10.7985965"><ele>66.33333333333333</ele><time>2026-04-18T11:11:32.414Z</time></trkpt><trkpt lat="43.3571189" lon="10.7984295"><ele>65.66666666666667</ele><time>2026-04-18T11:11:33.386Z</time></trkpt><trkpt lat="43.357018" lon="10.7982564"><ele>65.0</ele><time>2026-04-18T11:11:34.397Z</time></trkpt><trkpt lat="43.356923" lon="10.7980777"><ele>65.0</ele><time>2026-04-18T11:11:35.393Z</time></trkpt><trkpt lat="43.3568361" lon="10.7978876"><ele>65.0</ele><time>2026-04-18T11:11:36.393Z</time></trkpt><trkpt lat="43.3567549" lon="10.7977047"><ele>65.0</ele><time>2026-04-18T11:11:37.42Z</time></trkpt><trkpt lat="43.3566884" lon="10.7975144"><ele>66.66666666666667</ele><time>2026-04-18T11:11:38.397Z</time></trkpt><trkpt lat="43.3566268" lon="10.7973246"><ele>68.33333333333333</ele><time>2026-04-18T11:11:39.405Z</time></trkpt><trkpt lat="43.3565683" lon="10.797124"><ele>70.0</ele><time>2026-04-18T11:11:40.396Z</time></trkpt><trkpt lat="43.3565115" lon="10.7969135"><ele>71.33333333333333</ele><time>2026-04-18T11:11:41.397Z</time></trkpt><trkpt lat="43.3564649" lon="10.796701"><ele>72.66666666666667</ele><time>2026-04-18T11:11:42.4Z</time></trkpt><trkpt lat="43.3564291" lon="10.7964766"><ele>74.0</ele><time>2026-04-18T11:11:43.399Z</time></trkpt><trkpt lat="43.3563989" lon="10.7962467"><ele>74.0</ele><time>2026-04-18T11:11:44.411Z</time></trkpt><trkpt lat="43.3563753" lon="10.7960138"><ele>74.0</ele><time>2026-04-18T11:11:45.4Z</time></trkpt><trkpt lat="43.3563655" lon="10.7957654"><ele>74.0</ele><time>2026-04-18T11:11:46.403Z</time></trkpt><trkpt lat="43.3563587" lon="10.7955264"><ele>70.33333333333334</ele><time>2026-04-18T11:11:47.393Z</time></trkpt><trkpt lat="43.3563644" lon="10.7952703"><ele>66.66666666666667</ele><time>2026-04-18T11:11:48.401Z</time></trkpt><trkpt lat="43.3563855" lon="10.7950162"><ele>63.0</ele><time>2026-04-18T11:11:49.389Z</time></trkpt><trkpt lat="43.3564055" lon="10.7947499"><ele>63.0</ele><time>2026-04-18T11:11:50.406Z</time></trkpt><trkpt lat="43.3564428" lon="10.7944806"><ele>63.0</ele><time>2026-04-18T11:11:51.407Z</time></trkpt><trkpt lat="43.3564928" lon="10.7942161"><ele>63.0</ele><time>2026-04-18T11:11:52.401Z</time></trkpt><trkpt lat="43.3565474" lon="10.7939518"><ele>62.33333333333333</ele><time>2026-04-18T11:11:53.4Z</time></trkpt><trkpt lat="43.3566015" lon="10.7937014"><ele>61.666666666666664</ele><time>2026-04-18T11:11:54.407Z</time></trkpt><trkpt lat="43.3566533" lon="10.7934438"><ele>61.0</ele><time>2026-04-18T11:11:55.398Z</time></trkpt><trkpt lat="43.3567101" lon="10.7931863"><ele>60.666666666666664</ele><time>2026-04-18T11:11:56.393Z</time></trkpt><trkpt lat="43.3567647" lon="10.7929278"><ele>60.33333333333333</ele><time>2026-04-18T11:11:57.409Z</time></trkpt><trkpt lat="43.3568171" lon="10.7926729"><ele>60.0</ele><time>2026-04-18T11:11:58.395Z</time></trkpt><trkpt lat="43.356872" lon="10.792422"><ele>60.0</ele><time>2026-04-18T11:11:59.408Z</time></trkpt><trkpt lat="43.3569299" lon="10.7921722"><ele>60.0</ele><time>2026-04-18T11:12:00.408Z</time></trkpt><trkpt lat="43.3569805" lon="10.7919137"><ele>60.0</ele><time>2026-04-18T11:12:01.413Z</time></trkpt><trkpt lat="43.3570287" lon="10.7916541"><ele>60.0</ele><time>2026-04-18T11:12:02.419Z</time></trkpt><trkpt lat="43.3570768" lon="10.791394"><ele>60.0</ele><time>2026-04-18T11:12:03.406Z</time></trkpt><trkpt lat="43.3571227" lon="10.7911281"><ele>60.0</ele><time>2026-04-18T11:12:04.401Z</time></trkpt><trkpt lat="43.3571627" lon="10.7908532"><ele>59.66666666666667</ele><time>2026-04-18T11:12:05.4Z</time></trkpt><trkpt lat="43.3572022" lon="10.7905832"><ele>59.333333333333336</ele><time>2026-04-18T11:12:06.391Z</time></trkpt><trkpt lat="43.3572339" lon="10.7903088"><ele>59.0</ele><time>2026-04-18T11:12:07.394Z</time></trkpt><trkpt lat="43.3572556" lon="10.7900327"><ele>60.333333333333336</ele><time>2026-04-18T11:12:08.391Z</time></trkpt><trkpt lat="43.357272" lon="10.7897523"><ele>61.66666666666667</ele><time>2026-04-18T11:12:09.402Z</time></trkpt><trkpt lat="43.3572843" lon="10.7894656"><ele>63.0</ele><time>2026-04-18T11:12:10.409Z</time></trkpt><trkpt lat="43.3572924" lon="10.7891764"><ele>64.0</ele><time>2026-04-18T11:12:11.394Z</time></trkpt><trkpt lat="43.3572957" lon="10.7888776"><ele>65.0</ele><time>2026-04-18T11:12:12.392Z</time></trkpt><trkpt lat="43.357295" lon="10.7885855"><ele>66.0</ele><time>2026-04-18T11:12:13.4Z</time></trkpt><trkpt lat="43.3572908" lon="10.788288"><ele>66.0</ele><time>2026-04-18T11:12:14.4Z</time></trkpt><trkpt lat="43.3572725" lon="10.7879942"><ele>66.0</ele><time>2026-04-18T11:12:15.403Z</time></trkpt><trkpt lat="43.3572535" lon="10.7877076"><ele>66.0</ele><time>2026-04-18T11:12:16.404Z</time></trkpt><trkpt lat="43.3572255" lon="10.7874359"><ele>64.0</ele><time>2026-04-18T11:12:17.4Z</time></trkpt><trkpt lat="43.3571965" lon="10.787152"><ele>62.0</ele><time>2026-04-18T11:12:18.413Z</time></trkpt><trkpt lat="43.357167" lon="10.7868716"><ele>60.0</ele><time>2026-04-18T11:12:19.401Z</time></trkpt><trkpt lat="43.3571313" lon="10.7865925"><ele>60.0</ele><time>2026-04-18T11:12:20.401Z</time></trkpt><trkpt lat="43.3570906" lon="10.7863135"><ele>60.0</ele><time>2026-04-18T11:12:21.398Z</time></trkpt><trkpt lat="43.3570551" lon="10.7860432"><ele>60.0</ele><time>2026-04-18T11:12:22.405Z</time></trkpt><trkpt lat="43.357021" lon="10.7857714"><ele>60.0</ele><time>2026-04-18T11:12:23.409Z</time></trkpt><trkpt lat="43.3569835" lon="10.7855021"><ele>60.0</ele><time>2026-04-18T11:12:24.404Z</time></trkpt><trkpt lat="43.3569437" lon="10.7852339"><ele>60.0</ele><time>2026-04-18T11:12:25.399Z</time></trkpt><trkpt lat="43.3569002" lon="10.7849611"><ele>60.0</ele><time>2026-04-18T11:12:26.396Z</time></trkpt><trkpt lat="43.3568571" lon="10.784693"><ele>60.0</ele><time>2026-04-18T11:12:27.402Z</time></trkpt><trkpt lat="43.3568142" lon="10.7844238"><ele>60.0</ele><time>2026-04-18T11:12:28.402Z</time></trkpt><trkpt lat="43.3567693" lon="10.7841513"><ele>60.0</ele><time>2026-04-18T11:12:29.39Z</time></trkpt><trkpt lat="43.3567273" lon="10.7838808"><ele>60.0</ele><time>2026-04-18T11:12:30.403Z</time></trkpt><trkpt lat="43.3566829" lon="10.7836047"><ele>60.0</ele><time>2026-04-18T11:12:31.412Z</time></trkpt><trkpt lat="43.3566426" lon="10.7833267"><ele>59.66666666666667</ele><time>2026-04-18T11:12:32.399Z</time></trkpt><trkpt lat="43.3565984" lon="10.7830494"><ele>59.333333333333336</ele><time>2026-04-18T11:12:33.409Z</time></trkpt><trkpt lat="43.3565644" lon="10.7827859"><ele>59.0</ele><time>2026-04-18T11:12:34.399Z</time></trkpt><trkpt lat="43.356536" lon="10.7825072"><ele>59.0</ele><time>2026-04-18T11:12:35.41Z</time></trkpt><trkpt lat="43.3565162" lon="10.7822315"><ele>59.0</ele><time>2026-04-18T11:12:36.396Z</time></trkpt><trkpt lat="43.3565058" lon="10.7819556"><ele>59.0</ele><time>2026-04-18T11:12:37.403Z</time></trkpt><trkpt lat="43.3564977" lon="10.7816768"><ele>59.0</ele><time>2026-04-18T11:12:38.408Z</time></trkpt><trkpt lat="43.3564923" lon="10.7813927"><ele>59.0</ele><time>2026-04-18T11:12:39.402Z</time></trkpt><trkpt lat="43.3564868" lon="10.7811054"><ele>59.0</ele><time>2026-04-18T11:12:40.401Z</time></trkpt><trkpt lat="43.3564812" lon="10.7808261"><ele>59.333333333333336</ele><time>2026-04-18T11:12:41.395Z</time></trkpt><trkpt lat="43.3564758" lon="10.7805428"><ele>59.66666666666667</ele><time>2026-04-18T11:12:42.395Z</time></trkpt><trkpt lat="43.3564672" lon="10.7802595"><ele>60.0</ele><time>2026-04-18T11:12:43.409Z</time></trkpt><trkpt lat="43.35646" lon="10.7799889"><ele>60.0</ele><time>2026-04-18T11:12:44.409Z</time></trkpt><trkpt lat="43.3564501" lon="10.779716"><ele>60.0</ele><time>2026-04-18T11:12:45.399Z</time></trkpt><trkpt lat="43.3564406" lon="10.7794539"><ele>60.0</ele><time>2026-04-18T11:12:46.398Z</time></trkpt><trkpt lat="43.3564227" lon="10.7791854"><ele>59.33333333333333</ele><time>2026-04-18T11:12:47.402Z</time></trkpt><trkpt lat="43.3563872" lon="10.7789122"><ele>58.666666666666664</ele><time>2026-04-18T11:12:48.396Z</time></trkpt><trkpt lat="43.3563427" lon="10.7786356"><ele>58.0</ele><time>2026-04-18T11:12:49.405Z</time></trkpt><trkpt lat="43.356291" lon="10.7783735"><ele>58.0</ele><time>2026-04-18T11:12:50.4Z</time></trkpt><trkpt lat="43.3562245" lon="10.7781186"><ele>58.0</ele><time>2026-04-18T11:12:51.412Z</time></trkpt><trkpt lat="43.3561514" lon="10.7778774"><ele>58.0</ele><time>2026-04-18T11:12:52.42Z</time></trkpt><trkpt lat="43.3560433" lon="10.777645"><ele>59.33333333333333</ele><time>2026-04-18T11:12:53.397Z</time></trkpt><trkpt lat="43.3559288" lon="10.7774257"><ele>60.66666666666667</ele><time>2026-04-18T11:12:54.387Z</time></trkpt><trkpt lat="43.3558002" lon="10.7772255"><ele>62.0</ele><time>2026-04-18T11:12:55.407Z</time></trkpt><trkpt lat="43.3556615" lon="10.7770344"><ele>61.0</ele><time>2026-04-18T11:12:56.412Z</time></trkpt><trkpt lat="43.3555155" lon="10.7768669"><ele>60.0</ele><time>2026-04-18T11:12:57.4Z</time></trkpt><trkpt lat="43.3553569" lon="10.7767206"><ele>59.0</ele><time>2026-04-18T11:12:58.403Z</time></trkpt><trkpt lat="43.3551932" lon="10.7765928"><ele>59.0</ele><time>2026-04-18T11:12:59.396Z</time></trkpt><trkpt lat="43.3550158" lon="10.7764802"><ele>59.0</ele><time>2026-04-18T11:13:00.399Z</time></trkpt><trkpt lat="43.354847" lon="10.7763772"><ele>59.0</ele><time>2026-04-18T11:13:01.397Z</time></trkpt><trkpt lat="43.3546837" lon="10.7762753"><ele>59.333333333333336</ele><time>2026-04-18T11:13:02.407Z</time></trkpt><trkpt lat="43.354534" lon="10.7761831"><ele>59.66666666666667</ele><time>2026-04-18T11:13:03.414Z</time></trkpt><trkpt lat="43.3543905" lon="10.7760942"><ele>60.0</ele><time>2026-04-18T11:13:04.387Z</time></trkpt><trkpt lat="43.3542475" lon="10.7760049"><ele>60.0</ele><time>2026-04-18T11:13:05.401Z</time></trkpt><trkpt lat="43.3541013" lon="10.7759253"><ele>60.0</ele><time>2026-04-18T11:13:06.396Z</time></trkpt><trkpt lat="43.3539541" lon="10.7758291"><ele>60.0</ele><time>2026-04-18T11:13:07.391Z</time></trkpt><trkpt lat="43.3538076" lon="10.7756959"><ele>59.0</ele><time>2026-04-18T11:13:08.4Z</time></trkpt><trkpt lat="43.353671" lon="10.7755403"><ele>58.0</ele><time>2026-04-18T11:13:09.401Z</time></trkpt><trkpt lat="43.3535471" lon="10.7753627"><ele>57.0</ele><time>2026-04-18T11:13:10.4Z</time></trkpt><trkpt lat="43.3534308" lon="10.7751677"><ele>57.0</ele><time>2026-04-18T11:13:11.398Z</time></trkpt><trkpt lat="43.3533109" lon="10.7749719"><ele>57.0</ele><time>2026-04-18T11:13:12.399Z</time></trkpt><trkpt lat="43.3531916" lon="10.7747738"><ele>57.0</ele><time>2026-04-18T11:13:13.391Z</time></trkpt><trkpt lat="43.3530742" lon="10.7745812"><ele>57.0</ele><time>2026-04-18T11:13:14.395Z</time></trkpt><trkpt lat="43.3529603" lon="10.7743833"><ele>57.0</ele><time>2026-04-18T11:13:15.39Z</time></trkpt><trkpt lat="43.3528452" lon="10.7741878"><ele>57.0</ele><time>2026-04-18T11:13:16.386Z</time></trkpt><trkpt lat="43.3527249" lon="10.7739864"><ele>57.0</ele><time>2026-04-18T11:13:17.395Z</time></trkpt><trkpt lat="43.3526052" lon="10.7737864"><ele>57.0</ele><time>2026-04-18T11:13:18.394Z</time></trkpt><trkpt lat="43.352486" lon="10.7735799"><ele>57.0</ele><time>2026-04-18T11:13:19.397Z</time></trkpt><trkpt lat="43.3523708" lon="10.7733787"><ele>57.0</ele><time>2026-04-18T11:13:20.396Z</time></trkpt><trkpt lat="43.3522564" lon="10.7731725"><ele>57.0</ele><time>2026-04-18T11:13:21.402Z</time></trkpt><trkpt lat="43.3521456" lon="10.7729721"><ele>57.0</ele><time>2026-04-18T11:13:22.403Z</time></trkpt><trkpt lat="43.35203" lon="10.7727748"><ele>56.33333333333333</ele><time>2026-04-18T11:13:23.397Z</time></trkpt><trkpt lat="43.3519133" lon="10.7725716"><ele>55.666666666666664</ele><time>2026-04-18T11:13:24.39Z</time></trkpt><trkpt lat="43.3518013" lon="10.7723774"><ele>55.0</ele><time>2026-04-18T11:13:25.386Z</time></trkpt><trkpt lat="43.3516779" lon="10.7721718"><ele>55.0</ele><time>2026-04-18T11:13:26.404Z</time></trkpt><trkpt lat="43.3515613" lon="10.7719686"><ele>55.0</ele><time>2026-04-18T11:13:27.407Z</time></trkpt><trkpt lat="43.3514439" lon="10.7717715"><ele>55.0</ele><time>2026-04-18T11:13:28.413Z</time></trkpt><trkpt lat="43.351328" lon="10.7715704"><ele>54.666666666666664</ele><time>2026-04-18T11:13:29.41Z</time></trkpt><trkpt lat="43.3512125" lon="10.7713737"><ele>54.33333333333333</ele><time>2026-04-18T11:13:30.407Z</time></trkpt><trkpt lat="43.3510967" lon="10.7711694"><ele>54.0</ele><time>2026-04-18T11:13:31.413Z</time></trkpt><trkpt lat="43.3509784" lon="10.770967"><ele>55.0</ele><time>2026-04-18T11:13:32.412Z</time></trkpt><trkpt lat="43.350868" lon="10.7707669"><ele>56.0</ele><time>2026-04-18T11:13:33.404Z</time></trkpt><trkpt lat="43.3507588" lon="10.7705649"><ele>57.0</ele><time>2026-04-18T11:13:34.405Z</time></trkpt><trkpt lat="43.3506483" lon="10.7703621"><ele>56.66666666666667</ele><time>2026-04-18T11:13:35.409Z</time></trkpt><trkpt lat="43.3505409" lon="10.7701529"><ele>56.333333333333336</ele><time>2026-04-18T11:13:36.393Z</time></trkpt><trkpt lat="43.3504325" lon="10.7699399"><ele>56.0</ele><time>2026-04-18T11:13:37.397Z</time></trkpt><trkpt lat="43.3503248" lon="10.7697255"><ele>56.0</ele><time>2026-04-18T11:13:38.407Z</time></trkpt><trkpt lat="43.3502205" lon="10.7695092"><ele>56.0</ele><time>2026-04-18T11:13:39.399Z</time></trkpt><trkpt lat="43.3501127" lon="10.769293"><ele>56.0</ele><time>2026-04-18T11:13:40.411Z</time></trkpt><trkpt lat="43.3500028" lon="10.76908"><ele>56.0</ele><time>2026-04-18T11:13:41.4Z</time></trkpt><trkpt lat="43.3498945" lon="10.7688648"><ele>56.0</ele><time>2026-04-18T11:13:42.402Z</time></trkpt><trkpt lat="43.3497942" lon="10.7686481"><ele>56.0</ele><time>2026-04-18T11:13:43.399Z</time></trkpt><trkpt lat="43.3497" lon="10.7684305"><ele>55.66666666666667</ele><time>2026-04-18T11:13:44.4Z</time></trkpt><trkpt lat="43.3496207" lon="10.7682059"><ele>55.33333333333333</ele><time>2026-04-18T11:13:45.394Z</time></trkpt><trkpt lat="43.3495572" lon="10.7679681"><ele>55.0</ele><time>2026-04-18T11:13:46.395Z</time></trkpt><trkpt lat="43.3495206" lon="10.767721"><ele>55.0</ele><time>2026-04-18T11:13:47.394Z</time></trkpt><trkpt lat="43.3494942" lon="10.7674869"><ele>55.0</ele><time>2026-04-18T11:13:48.403Z</time></trkpt><trkpt lat="43.3494806" lon="10.7672709"><ele>55.0</ele><time>2026-04-18T11:13:49.4Z</time></trkpt><trkpt lat="43.3494722" lon="10.7670578"><ele>55.25</ele><time>2026-04-18T11:13:50.399Z</time></trkpt><trkpt lat="43.3494727" lon="10.766858"><ele>55.5</ele><time>2026-04-18T11:13:51.4Z</time></trkpt><trkpt lat="43.3494824" lon="10.7666716"><ele>55.75</ele><time>2026-04-18T11:13:52.398Z</time></trkpt><trkpt lat="43.3494883" lon="10.7665041"><ele>56.0</ele><time>2026-04-18T11:13:53.401Z</time></trkpt><trkpt lat="43.3494821" lon="10.7663396"><ele>56.0</ele><time>2026-04-18T11:13:54.391Z</time></trkpt><trkpt lat="43.3494488" lon="10.7661803"><ele>56.0</ele><time>2026-04-18T11:13:55.4Z</time></trkpt><trkpt lat="43.3493655" lon="10.766036"><ele>56.0</ele><time>2026-04-18T11:13:56.407Z</time></trkpt><trkpt lat="43.3492511" lon="10.7659093"><ele>56.0</ele><time>2026-04-18T11:13:57.399Z</time></trkpt><trkpt lat="43.3491483" lon="10.7657647"><ele>56.0</ele><time>2026-04-18T11:13:58.396Z</time></trkpt><trkpt lat="43.3490522" lon="10.7656131"><ele>56.0</ele><time>2026-04-18T11:13:59.405Z</time></trkpt><trkpt lat="43.3489561" lon="10.7654588"><ele>56.0</ele><time>2026-04-18T11:14:00.399Z</time></trkpt><trkpt lat="43.3488577" lon="10.7652985"><ele>56.0</ele><time>2026-04-18T11:14:01.391Z</time></trkpt><trkpt lat="43.3487616" lon="10.7651166"><ele>57.333333333333336</ele><time>2026-04-18T11:14:02.404Z</time></trkpt><trkpt lat="43.3486714" lon="10.764925"><ele>58.66666666666667</ele><time>2026-04-18T11:14:03.395Z</time></trkpt><trkpt lat="43.3485815" lon="10.7647107"><ele>60.0</ele><time>2026-04-18T11:14:04.397Z</time></trkpt><trkpt lat="43.3484976" lon="10.7644913"><ele>61.66666666666667</ele><time>2026-04-18T11:14:05.4Z</time></trkpt><trkpt lat="43.3484128" lon="10.7642446"><ele>63.333333333333336</ele><time>2026-04-18T11:14:06.393Z</time></trkpt><trkpt lat="43.3483274" lon="10.7639962"><ele>65.0</ele><time>2026-04-18T11:14:07.399Z</time></trkpt><trkpt lat="43.3482579" lon="10.7637307"><ele>65.66666666666667</ele><time>2026-04-18T11:14:08.39Z</time></trkpt><trkpt lat="43.3481727" lon="10.7634778"><ele>66.33333333333333</ele><time>2026-04-18T11:14:09.395Z</time></trkpt><trkpt lat="43.3480884" lon="10.7632081"><ele>67.0</ele><time>2026-04-18T11:14:10.399Z</time></trkpt><trkpt lat="43.3480061" lon="10.7629374"><ele>64.0</ele><time>2026-04-18T11:14:11.397Z</time></trkpt><trkpt lat="43.347923" lon="10.762657"><ele>61.0</ele><time>2026-04-18T11:14:12.398Z</time></trkpt><trkpt lat="43.3478518" lon="10.7623757"><ele>58.0</ele><time>2026-04-18T11:14:13.404Z</time></trkpt><trkpt lat="43.3477936" lon="10.7620922"><ele>58.33333333333333</ele><time>2026-04-18T11:14:14.399Z</time></trkpt><trkpt lat="43.3477463" lon="10.7618056"><ele>58.66666666666667</ele><time>2026-04-18T11:14:15.403Z</time></trkpt><trkpt lat="43.3476993" lon="10.7615113"><ele>59.0</ele><time>2026-04-18T11:14:16.396Z</time></trkpt><trkpt lat="43.3476613" lon="10.7612092"><ele>58.66666666666667</ele><time>2026-04-18T11:14:17.396Z</time></trkpt><trkpt lat="43.3476339" lon="10.7609146"><ele>58.33333333333333</ele><time>2026-04-18T11:14:18.397Z</time></trkpt><trkpt lat="43.3476044" lon="10.7606237"><ele>58.0</ele><time>2026-04-18T11:14:19.395Z</time></trkpt><trkpt lat="43.3475724" lon="10.7603417"><ele>57.33333333333333</ele><time>2026-04-18T11:14:20.398Z</time></trkpt><trkpt lat="43.3475264" lon="10.760057"><ele>56.66666666666667</ele><time>2026-04-18T11:14:21.4Z</time></trkpt><trkpt lat="43.3474686" lon="10.7597908"><ele>56.0</ele><time>2026-04-18T11:14:22.394Z</time></trkpt><trkpt lat="43.3473898" lon="10.7595369"><ele>56.333333333333336</ele><time>2026-04-18T11:14:23.411Z</time></trkpt><trkpt lat="43.3472911" lon="10.7592931"><ele>56.66666666666667</ele><time>2026-04-18T11:14:24.4Z</time></trkpt><trkpt lat="43.347177" lon="10.7590603"><ele>57.0</ele><time>2026-04-18T11:14:25.401Z</time></trkpt><trkpt lat="43.3470623" lon="10.7588326"><ele>57.0</ele><time>2026-04-18T11:14:26.398Z</time></trkpt><trkpt lat="43.3469491" lon="10.7586204"><ele>57.0</ele><time>2026-04-18T11:14:27.394Z</time></trkpt><trkpt lat="43.3468371" lon="10.7584192"><ele>57.0</ele><time>2026-04-18T11:14:28.397Z</time></trkpt><trkpt lat="43.3467331" lon="10.7582221"><ele>58.33333333333333</ele><time>2026-04-18T11:14:29.399Z</time></trkpt><trkpt lat="43.3466255" lon="10.7580369"><ele>59.666666666666664</ele><time>2026-04-18T11:14:30.397Z</time></trkpt><trkpt lat="43.3465335" lon="10.757852"><ele>61.0</ele><time>2026-04-18T11:14:31.399Z</time></trkpt><trkpt lat="43.3464322" lon="10.7576706"><ele>59.666666666666664</ele><time>2026-04-18T11:14:32.411Z</time></trkpt><trkpt lat="43.3463339" lon="10.7574902"><ele>58.33333333333333</ele><time>2026-04-18T11:14:33.407Z</time></trkpt><trkpt lat="43.3462316" lon="10.7573051"><ele>57.0</ele><time>2026-04-18T11:14:34.411Z</time></trkpt><trkpt lat="43.3461302" lon="10.7571222"><ele>57.0</ele><time>2026-04-18T11:14:35.405Z</time></trkpt><trkpt lat="43.3460183" lon="10.7569468"><ele>57.0</ele><time>2026-04-18T11:14:36.398Z</time></trkpt><trkpt lat="43.3458877" lon="10.7567832"><ele>57.0</ele><time>2026-04-18T11:14:37.411Z</time></trkpt><trkpt lat="43.3457682" lon="10.7566233"><ele>57.0</ele><time>2026-04-18T11:14:38.409Z</time></trkpt><trkpt lat="43.3456555" lon="10.7564712"><ele>57.0</ele><time>2026-04-18T11:14:39.389Z</time></trkpt><trkpt lat="43.345551" lon="10.7563341"><ele>57.0</ele><time>2026-04-18T11:14:40.401Z</time></trkpt><trkpt lat="43.3454534" lon="10.7562071"><ele>57.0</ele><time>2026-04-18T11:14:41.399Z</time></trkpt><trkpt lat="43.3453668" lon="10.7560994"><ele>56.833333333333336</ele><time>2026-04-18T11:14:42.396Z</time></trkpt><trkpt lat="43.3452979" lon="10.7560135"><ele>56.66666666666667</ele><time>2026-04-18T11:14:43.398Z</time></trkpt><trkpt lat="43.3452515" lon="10.7559476"><ele>56.5</ele><time>2026-04-18T11:14:44.4Z</time></trkpt><trkpt lat="43.3452233" lon="10.7558255"><ele>56.333333333333336</ele><time>2026-04-18T11:14:46.398Z</time></trkpt><trkpt lat="43.3452714" lon="10.7556847"><ele>56.16666666666667</ele><time>2026-04-18T11:14:48.402Z</time></trkpt><trkpt lat="43.3453096" lon="10.7555975"><ele>56.0</ele><time>2026-04-18T11:14:49.388Z</time></trkpt><trkpt lat="43.3453363" lon="10.7555182"><ele>56.0</ele><time>2026-04-18T11:14:50.389Z</time></trkpt><trkpt lat="43.3453227" lon="10.7553479"><ele>55.99999999999999</ele><time>2026-04-18T11:14:52.395Z</time></trkpt><trkpt lat="43.3452757" lon="10.7552621"><ele>55.99999999999999</ele><time>2026-04-18T11:14:53.398Z</time></trkpt><trkpt lat="43.3451969" lon="10.7551982"><ele>56.0</ele><time>2026-04-18T11:14:54.398Z</time></trkpt><trkpt lat="43.345118" lon="10.7551446"><ele>56.0</ele><time>2026-04-18T11:14:55.392Z</time></trkpt><trkpt lat="43.3450341" lon="10.7550743"><ele>56.0</ele><time>2026-04-18T11:14:56.399Z</time></trkpt><trkpt lat="43.3449693" lon="10.7549646"><ele>56.0</ele><time>2026-04-18T11:14:57.411Z</time></trkpt><trkpt lat="43.3449222" lon="10.7548345"><ele>56.0</ele><time>2026-04-18T11:14:58.407Z</time></trkpt><trkpt lat="43.3448904" lon="10.7546729"><ele>56.0</ele><time>2026-04-18T11:14:59.396Z</time></trkpt><trkpt lat="43.3448575" lon="10.754504"><ele>56.25</ele><time>2026-04-18T11:15:00.395Z</time></trkpt><trkpt lat="43.3448204" lon="10.7543365"><ele>56.5</ele><time>2026-04-18T11:15:01.389Z</time></trkpt><trkpt lat="43.3447802" lon="10.7541763"><ele>56.75</ele><time>2026-04-18T11:15:02.393Z</time></trkpt><trkpt lat="43.3447301" lon="10.7540356"><ele>57.0</ele><time>2026-04-18T11:15:03.393Z</time></trkpt><trkpt lat="43.3446781" lon="10.7538893"><ele>57.0</ele><time>2026-04-18T11:15:04.399Z</time></trkpt><trkpt lat="43.3446302" lon="10.75377"><ele>57.0</ele><time>2026-04-18T11:15:05.399Z</time></trkpt><trkpt lat="43.3445926" lon="10.7536656"><ele>57.0</ele><time>2026-04-18T11:15:06.402Z</time></trkpt><trkpt lat="43.3445658" lon="10.7535805"><ele>57.0</ele><time>2026-04-18T11:15:07.393Z</time></trkpt><trkpt lat="43.3445636" lon="10.7534934"><ele>57.0</ele><time>2026-04-18T11:15:13.397Z</time></trkpt><trkpt lat="43.3446211" lon="10.7534574"><ele>57.0</ele><time>2026-04-18T11:15:19.387Z</time></trkpt><trkpt lat="43.3445757" lon="10.7533782"><ele>57.0</ele><time>2026-04-18T11:15:24.389Z</time></trkpt><trkpt lat="43.3445403" lon="10.7533041"><ele>56.99999999999999</ele><time>2026-04-18T11:15:26.399Z</time></trkpt><trkpt lat="43.3444953" lon="10.7532306"><ele>57.0</ele><time>2026-04-18T11:15:28.405Z</time></trkpt><trkpt lat="43.3444488" lon="10.7531662"><ele>57.0</ele><time>2026-04-18T11:15:31.399Z</time></trkpt><trkpt lat="43.3443983" lon="10.7530749"><ele>56.99999999999999</ele><time>2026-04-18T11:15:35.395Z</time></trkpt><trkpt lat="43.3443529" lon="10.7529984"><ele>57.0</ele><time>2026-04-18T11:15:44.396Z</time></trkpt><trkpt lat="43.344315" lon="10.7529139"><ele>57.0</ele><time>2026-04-18T11:15:48.401Z</time></trkpt><trkpt lat="43.3441663" lon="10.7528855"><ele>57.0</ele><time>2026-04-18T11:16:20.936Z</time></trkpt><trkpt lat="43.3446538" lon="10.7534787"><ele>57.0</ele><time>2026-04-18T11:17:09.717Z</time></trkpt><trkpt lat="43.3443872" lon="10.7530079"><ele>57.0</ele><time>2026-04-18T11:17:28.103Z</time></trkpt><trkpt lat="43.3444403" lon="10.7530628"><ele>57.0</ele><time>2026-04-18T11:17:36.007Z</time></trkpt><trkpt lat="43.344476" lon="10.7531408"><ele>56.99999999999999</ele><time>2026-04-18T11:17:40.391Z</time></trkpt><trkpt lat="43.3445188" lon="10.7532192"><ele>57.0</ele><time>2026-04-18T11:17:45.531Z</time></trkpt><trkpt lat="43.3445655" lon="10.7533105"><ele>57.0</ele><time>2026-04-18T11:17:49.648Z</time></trkpt><trkpt lat="43.3446064" lon="10.7533976"><ele>56.99999999999999</ele><time>2026-04-18T11:17:53.872Z</time></trkpt><trkpt lat="43.3446483" lon="10.7534749"><ele>57.0</ele><time>2026-04-18T11:17:57.952Z</time></trkpt><trkpt lat="43.3446907" lon="10.7535467"><ele>57.0</ele><time>2026-04-18T11:18:02.161Z</time></trkpt><trkpt lat="43.3447302" lon="10.753622"><ele>57.0</ele><time>2026-04-18T11:18:06.322Z</time></trkpt><trkpt lat="43.3446812" lon="10.7535064"><ele>57.0</ele><time>2026-04-18T11:25:13.355Z</time></trkpt><trkpt lat="43.3446112" lon="10.753467"><ele>57.0</ele><time>2026-04-18T11:25:43.731Z</time></trkpt><trkpt lat="43.3446785" lon="10.7535269"><ele>57.0</ele><time>2026-04-18T11:30:08.401Z</time></trkpt><trkpt lat="43.3446232" lon="10.7536124"><ele>55.0</ele><time>2026-04-18T11:35:52.359Z</time></trkpt><trkpt lat="43.3446802" lon="10.753552"><ele>55.0</ele><time>2026-04-18T11:36:37.377Z</time></trkpt></trkseg><trkseg><trkpt lat="43.344628" lon="10.753587"><ele>54.99999999999999</ele><time>2026-04-18T12:18:23.277Z</time></trkpt><trkpt lat="43.3446613" lon="10.7534868"><ele>55.0</ele><time>2026-04-18T12:30:00.459Z</time></trkpt><trkpt lat="43.3446453" lon="10.7535706"><ele>55.0</ele><time>2026-04-18T12:38:36.233Z</time></trkpt><trkpt lat="43.3446675" lon="10.7534728"><ele>55.0</ele><time>2026-04-18T12:39:57.057Z</time></trkpt><trkpt lat="43.3446948" lon="10.7533753"><ele>54.99999999999999</ele><time>2026-04-18T12:40:04.419Z</time></trkpt><trkpt lat="43.3446101" lon="10.7533953"><ele>55.0</ele><time>2026-04-18T12:40:25.224Z</time></trkpt><trkpt lat="43.344259" lon="10.7528635"><ele>55.33333333333333</ele><time>2026-04-18T12:44:45.194Z</time></trkpt><trkpt lat="43.3441958" lon="10.752888"><ele>55.666666666666664</ele><time>2026-04-18T12:45:04.205Z</time></trkpt><trkpt lat="43.3442574" lon="10.7529468"><ele>56.0</ele><time>2026-04-18T12:45:54.213Z</time></trkpt><trkpt lat="43.3443138" lon="10.7530322"><ele>56.33333333333333</ele><time>2026-04-18T12:45:58.215Z</time></trkpt><trkpt lat="43.3443487" lon="10.7531308"><ele>56.666666666666664</ele><time>2026-04-18T12:46:01.217Z</time></trkpt><trkpt lat="43.3443804" lon="10.7532126"><ele>57.0</ele><time>2026-04-18T12:46:03.206Z</time></trkpt><trkpt lat="43.3444278" lon="10.7533083"><ele>57.0</ele><time>2026-04-18T12:46:06.214Z</time></trkpt><trkpt lat="43.3444648" lon="10.7533953"><ele>57.0</ele><time>2026-04-18T12:46:09.211Z</time></trkpt><trkpt lat="43.3444488" lon="10.7534973"><ele>57.0</ele><time>2026-04-18T12:46:13.206Z</time></trkpt><trkpt lat="43.3443684" lon="10.7535307"><ele>57.0</ele><time>2026-04-18T12:46:16.206Z</time></trkpt><trkpt lat="43.3443261" lon="10.7534653"><ele>57.0</ele><time>2026-04-18T12:46:17.206Z</time></trkpt><trkpt lat="43.3442687" lon="10.7533788"><ele>57.0</ele><time>2026-04-18T12:46:18.21Z</time></trkpt><trkpt lat="43.344211" lon="10.7532819"><ele>57.0</ele><time>2026-04-18T12:46:19.199Z</time></trkpt><trkpt lat="43.3441519" lon="10.7531719"><ele>57.0</ele><time>2026-04-18T12:46:20.219Z</time></trkpt><trkpt lat="43.3440844" lon="10.7530659"><ele>57.0</ele><time>2026-04-18T12:46:21.221Z</time></trkpt><trkpt lat="43.3440066" lon="10.7529473"><ele>57.0</ele><time>2026-04-18T12:46:22.212Z</time></trkpt><trkpt lat="43.3439213" lon="10.7528171"><ele>57.0</ele><time>2026-04-18T12:46:23.221Z</time></trkpt><trkpt lat="43.3438393" lon="10.7526801"><ele>56.75</ele><time>2026-04-18T12:46:24.214Z</time></trkpt><trkpt lat="43.3437499" lon="10.7525407"><ele>56.5</ele><time>2026-04-18T12:46:25.216Z</time></trkpt><trkpt lat="43.3436642" lon="10.7524038"><ele>56.25</ele><time>2026-04-18T12:46:26.218Z</time></trkpt><trkpt lat="43.3435787" lon="10.7522724"><ele>56.0</ele><time>2026-04-18T12:46:27.21Z</time></trkpt><trkpt lat="43.3434886" lon="10.7521388"><ele>56.0</ele><time>2026-04-18T12:46:28.196Z</time></trkpt><trkpt lat="43.3433935" lon="10.7519962"><ele>56.0</ele><time>2026-04-18T12:46:29.212Z</time></trkpt><trkpt lat="43.3432941" lon="10.7518508"><ele>56.0</ele><time>2026-04-18T12:46:30.21Z</time></trkpt><trkpt lat="43.3431939" lon="10.751698"><ele>56.0</ele><time>2026-04-18T12:46:31.208Z</time></trkpt><trkpt lat="43.343094" lon="10.7515425"><ele>56.0</ele><time>2026-04-18T12:46:32.211Z</time></trkpt><trkpt lat="43.3429927" lon="10.751386"><ele>56.0</ele><time>2026-04-18T12:46:33.207Z</time></trkpt><trkpt lat="43.342893" lon="10.7512386"><ele>56.0</ele><time>2026-04-18T12:46:34.204Z</time></trkpt><trkpt lat="43.3427901" lon="10.7510921"><ele>56.0</ele><time>2026-04-18T12:46:35.203Z</time></trkpt><trkpt lat="43.3426833" lon="10.7509483"><ele>56.0</ele><time>2026-04-18T12:46:36.208Z</time></trkpt><trkpt lat="43.3425754" lon="10.7508002"><ele>56.0</ele><time>2026-04-18T12:46:37.206Z</time></trkpt><trkpt lat="43.3424724" lon="10.750652"><ele>56.0</ele><time>2026-04-18T12:46:38.219Z</time></trkpt><trkpt lat="43.3423687" lon="10.7505053"><ele>56.0</ele><time>2026-04-18T12:46:39.212Z</time></trkpt><trkpt lat="43.342268" lon="10.7503556"><ele>56.0</ele><time>2026-04-18T12:46:40.22Z</time></trkpt><trkpt lat="43.3421691" lon="10.7502053"><ele>56.0</ele><time>2026-04-18T12:46:41.208Z</time></trkpt><trkpt lat="43.3420659" lon="10.7500515"><ele>56.0</ele><time>2026-04-18T12:46:42.209Z</time></trkpt><trkpt lat="43.3419647" lon="10.7499078"><ele>55.75</ele><time>2026-04-18T12:46:43.209Z</time></trkpt><trkpt lat="43.3418643" lon="10.7497642"><ele>55.5</ele><time>2026-04-18T12:46:44.219Z</time></trkpt><trkpt lat="43.3417645" lon="10.7496183"><ele>55.25</ele><time>2026-04-18T12:46:45.199Z</time></trkpt><trkpt lat="43.3416674" lon="10.7494732"><ele>55.0</ele><time>2026-04-18T12:46:46.215Z</time></trkpt><trkpt lat="43.3415667" lon="10.7493255"><ele>54.75</ele><time>2026-04-18T12:46:47.208Z</time></trkpt><trkpt lat="43.34147" lon="10.7491949"><ele>54.5</ele><time>2026-04-18T12:46:48.209Z</time></trkpt><trkpt lat="43.3413633" lon="10.7490766"><ele>54.25</ele><time>2026-04-18T12:46:49.212Z</time></trkpt><trkpt lat="43.3412578" lon="10.7489727"><ele>54.0</ele><time>2026-04-18T12:46:50.223Z</time></trkpt><trkpt lat="43.3411471" lon="10.7488811"><ele>54.0</ele><time>2026-04-18T12:46:51.216Z</time></trkpt><trkpt lat="43.3410386" lon="10.748795"><ele>54.0</ele><time>2026-04-18T12:46:52.211Z</time></trkpt><trkpt lat="43.3409305" lon="10.7487109"><ele>54.0</ele><time>2026-04-18T12:46:53.22Z</time></trkpt><trkpt lat="43.3408117" lon="10.748633"><ele>54.0</ele><time>2026-04-18T12:46:54.203Z</time></trkpt><trkpt lat="43.3406951" lon="10.7485566"><ele>54.25</ele><time>2026-04-18T12:46:55.213Z</time></trkpt><trkpt lat="43.3405733" lon="10.7484765"><ele>54.5</ele><time>2026-04-18T12:46:56.206Z</time></trkpt><trkpt lat="43.3404517" lon="10.7484093"><ele>54.75</ele><time>2026-04-18T12:46:57.202Z</time></trkpt><trkpt lat="43.3403332" lon="10.7483419"><ele>55.0</ele><time>2026-04-18T12:46:58.21Z</time></trkpt><trkpt lat="43.3402193" lon="10.7482821"><ele>55.0</ele><time>2026-04-18T12:46:59.202Z</time></trkpt><trkpt lat="43.3401158" lon="10.7482261"><ele>55.0</ele><time>2026-04-18T12:47:00.205Z</time></trkpt><trkpt lat="43.3400109" lon="10.7481747"><ele>55.0</ele><time>2026-04-18T12:47:01.202Z</time></trkpt><trkpt lat="43.3398998" lon="10.7481299"><ele>55.0</ele><time>2026-04-18T12:47:02.203Z</time></trkpt><trkpt lat="43.3397802" lon="10.7480829"><ele>55.0</ele><time>2026-04-18T12:47:03.205Z</time></trkpt><trkpt lat="43.3396602" lon="10.748031"><ele>55.0</ele><time>2026-04-18T12:47:04.207Z</time></trkpt><trkpt lat="43.3395398" lon="10.7479843"><ele>55.0</ele><time>2026-04-18T12:47:05.199Z</time></trkpt><trkpt lat="43.3394149" lon="10.7479434"><ele>55.0</ele><time>2026-04-18T12:47:06.211Z</time></trkpt><trkpt lat="43.3392869" lon="10.7478924"><ele>55.0</ele><time>2026-04-18T12:47:07.204Z</time></trkpt><trkpt lat="43.3391573" lon="10.7478454"><ele>55.0</ele><time>2026-04-18T12:47:08.206Z</time></trkpt><trkpt lat="43.3390273" lon="10.7478145"><ele>55.0</ele><time>2026-04-18T12:47:09.201Z</time></trkpt><trkpt lat="43.3389026" lon="10.7477846"><ele>55.0</ele><time>2026-04-18T12:47:10.2Z</time></trkpt><trkpt lat="43.338781" lon="10.7477714"><ele>54.25</ele><time>2026-04-18T12:47:11.194Z</time></trkpt><trkpt lat="43.3386598" lon="10.7477714"><ele>53.5</ele><time>2026-04-18T12:47:12.197Z</time></trkpt><trkpt lat="43.3385403" lon="10.7477738"><ele>52.75</ele><time>2026-04-18T12:47:13.199Z</time></trkpt><trkpt lat="43.3384248" lon="10.7477806"><ele>52.0</ele><time>2026-04-18T12:47:14.205Z</time></trkpt><trkpt lat="43.338304" lon="10.747777"><ele>52.0</ele><time>2026-04-18T12:47:15.194Z</time></trkpt><trkpt lat="43.3381817" lon="10.7477715"><ele>52.0</ele><time>2026-04-18T12:47:16.201Z</time></trkpt><trkpt lat="43.3380593" lon="10.7477676"><ele>52.0</ele><time>2026-04-18T12:47:17.2Z</time></trkpt><trkpt lat="43.3379331" lon="10.7477623"><ele>52.0</ele><time>2026-04-18T12:47:18.194Z</time></trkpt><trkpt lat="43.3378105" lon="10.7477531"><ele>52.25</ele><time>2026-04-18T12:47:19.213Z</time></trkpt><trkpt lat="43.3376857" lon="10.7477369"><ele>52.5</ele><time>2026-04-18T12:47:20.21Z</time></trkpt><trkpt lat="43.3375649" lon="10.7477073"><ele>52.75</ele><time>2026-04-18T12:47:21.203Z</time></trkpt><trkpt lat="43.3374557" lon="10.7476674"><ele>53.0</ele><time>2026-04-18T12:47:22.204Z</time></trkpt><trkpt lat="43.3373467" lon="10.7476112"><ele>53.75</ele><time>2026-04-18T12:47:23.2Z</time></trkpt><trkpt lat="43.3372404" lon="10.7475435"><ele>54.5</ele><time>2026-04-18T12:47:24.207Z</time></trkpt><trkpt lat="43.337141" lon="10.7474619"><ele>55.25</ele><time>2026-04-18T12:47:25.203Z</time></trkpt><trkpt lat="43.3370623" lon="10.7473545"><ele>56.0</ele><time>2026-04-18T12:47:26.209Z</time></trkpt><trkpt lat="43.3369808" lon="10.7472256"><ele>56.0</ele><time>2026-04-18T12:47:27.194Z</time></trkpt><trkpt lat="43.336893" lon="10.747101"><ele>56.0</ele><time>2026-04-18T12:47:28.207Z</time></trkpt><trkpt lat="43.336808" lon="10.7469915"><ele>56.0</ele><time>2026-04-18T12:47:29.205Z</time></trkpt><trkpt lat="43.336721" lon="10.7468736"><ele>56.0</ele><time>2026-04-18T12:47:30.212Z</time></trkpt><trkpt lat="43.3366287" lon="10.7467478"><ele>55.5</ele><time>2026-04-18T12:47:31.2Z</time></trkpt><trkpt lat="43.3365368" lon="10.7466113"><ele>55.0</ele><time>2026-04-18T12:47:32.204Z</time></trkpt><trkpt lat="43.3364506" lon="10.7464775"><ele>54.5</ele><time>2026-04-18T12:47:33.206Z</time></trkpt><trkpt lat="43.3363721" lon="10.7463468"><ele>54.0</ele><time>2026-04-18T12:47:34.202Z</time></trkpt><trkpt lat="43.3363058" lon="10.7462096"><ele>54.0</ele><time>2026-04-18T12:47:35.193Z</time></trkpt><trkpt lat="43.3362527" lon="10.7460564"><ele>54.0</ele><time>2026-04-18T12:47:36.202Z</time></trkpt><trkpt lat="43.3362058" lon="10.7459002"><ele>54.0</ele><time>2026-04-18T12:47:37.194Z</time></trkpt><trkpt lat="43.3361594" lon="10.7457439"><ele>54.0</ele><time>2026-04-18T12:47:38.197Z</time></trkpt><trkpt lat="43.3361172" lon="10.7455847"><ele>54.25</ele><time>2026-04-18T12:47:39.196Z</time></trkpt><trkpt lat="43.3360773" lon="10.7454285"><ele>54.5</ele><time>2026-04-18T12:47:40.194Z</time></trkpt><trkpt lat="43.3360361" lon="10.7452675"><ele>54.75</ele><time>2026-04-18T12:47:41.196Z</time></trkpt><trkpt lat="43.3359976" lon="10.7451028"><ele>55.0</ele><time>2026-04-18T12:47:42.209Z</time></trkpt><trkpt lat="43.3359502" lon="10.7449471"><ele>55.75</ele><time>2026-04-18T12:47:43.199Z</time></trkpt><trkpt lat="43.3359043" lon="10.7447944"><ele>56.5</ele><time>2026-04-18T12:47:44.206Z</time></trkpt><trkpt lat="43.3358623" lon="10.7446407"><ele>57.25</ele><time>2026-04-18T12:47:45.202Z</time></trkpt><trkpt lat="43.3358256" lon="10.7444853"><ele>58.0</ele><time>2026-04-18T12:47:46.206Z</time></trkpt><trkpt lat="43.3357828" lon="10.7443296"><ele>59.5</ele><time>2026-04-18T12:47:47.201Z</time></trkpt><trkpt lat="43.3357204" lon="10.744155"><ele>61.0</ele><time>2026-04-18T12:47:48.196Z</time></trkpt><trkpt lat="43.3356614" lon="10.7439798"><ele>62.5</ele><time>2026-04-18T12:47:49.193Z</time></trkpt><trkpt lat="43.335608" lon="10.743817"><ele>64.0</ele><time>2026-04-18T12:47:50.194Z</time></trkpt><trkpt lat="43.3355635" lon="10.7436544"><ele>62.0</ele><time>2026-04-18T12:47:51.206Z</time></trkpt><trkpt lat="43.3355168" lon="10.7434988"><ele>60.00000000000001</ele><time>2026-04-18T12:47:52.202Z</time></trkpt><trkpt lat="43.3354758" lon="10.743347"><ele>58.00000000000001</ele><time>2026-04-18T12:47:53.194Z</time></trkpt><trkpt lat="43.3354535" lon="10.7432067"><ele>56.0</ele><time>2026-04-18T12:47:54.2Z</time></trkpt><trkpt lat="43.3354527" lon="10.743067"><ele>54.0</ele><time>2026-04-18T12:47:55.196Z</time></trkpt><trkpt lat="43.335457" lon="10.7429397"><ele>54.0</ele><time>2026-04-18T12:47:56.206Z</time></trkpt><trkpt lat="43.3354777" lon="10.7428385"><ele>54.0</ele><time>2026-04-18T12:47:57.206Z</time></trkpt><trkpt lat="43.3354931" lon="10.7427488"><ele>54.0</ele><time>2026-04-18T12:47:58.22Z</time></trkpt><trkpt lat="43.3355009" lon="10.7426603"><ele>54.0</ele><time>2026-04-18T12:47:59.208Z</time></trkpt><trkpt lat="43.3354411" lon="10.7425164"><ele>54.0</ele><time>2026-04-18T12:48:01.21Z</time></trkpt><trkpt lat="43.3353857" lon="10.7424528"><ele>54.0</ele><time>2026-04-18T12:48:02.214Z</time></trkpt><trkpt lat="43.3353263" lon="10.7423856"><ele>54.0</ele><time>2026-04-18T12:48:03.22Z</time></trkpt><trkpt lat="43.3352568" lon="10.7422772"><ele>54.00000000000001</ele><time>2026-04-18T12:48:05.203Z</time></trkpt><trkpt lat="43.3352108" lon="10.7422081"><ele>54.00000000000001</ele><time>2026-04-18T12:48:10.205Z</time></trkpt><trkpt lat="43.3351448" lon="10.7421273"><ele>54.0</ele><time>2026-04-18T12:48:14.212Z</time></trkpt><trkpt lat="43.3350749" lon="10.7420084"><ele>54.0</ele><time>2026-04-18T12:48:16.212Z</time></trkpt><trkpt lat="43.335026" lon="10.741916"><ele>53.6</ele><time>2026-04-18T12:48:17.191Z</time></trkpt><trkpt lat="43.3349805" lon="10.7418182"><ele>53.2</ele><time>2026-04-18T12:48:18.21Z</time></trkpt><trkpt lat="43.3349312" lon="10.7417143"><ele>52.800000000000004</ele><time>2026-04-18T12:48:19.2Z</time></trkpt><trkpt lat="43.3348654" lon="10.7416006"><ele>52.400000000000006</ele><time>2026-04-18T12:48:20.209Z</time></trkpt><trkpt lat="43.334794" lon="10.7414885"><ele>52.0</ele><time>2026-04-18T12:48:21.209Z</time></trkpt><trkpt lat="43.3347182" lon="10.7413494"><ele>52.0</ele><time>2026-04-18T12:48:22.217Z</time></trkpt><trkpt lat="43.3346342" lon="10.7412032"><ele>52.0</ele><time>2026-04-18T12:48:23.196Z</time></trkpt><trkpt lat="43.3345455" lon="10.7410706"><ele>52.0</ele><time>2026-04-18T12:48:24.205Z</time></trkpt><trkpt lat="43.3344656" lon="10.7409468"><ele>52.0</ele><time>2026-04-18T12:48:25.199Z</time></trkpt><trkpt lat="43.3343939" lon="10.7408256"><ele>51.8</ele><time>2026-04-18T12:48:26.206Z</time></trkpt><trkpt lat="43.3343163" lon="10.7407073"><ele>51.6</ele><time>2026-04-18T12:48:27.217Z</time></trkpt><trkpt lat="43.3342479" lon="10.7405947"><ele>51.4</ele><time>2026-04-18T12:48:28.202Z</time></trkpt><trkpt lat="43.3341731" lon="10.7404851"><ele>51.199999999999996</ele><time>2026-04-18T12:48:29.208Z</time></trkpt><trkpt lat="43.334106" lon="10.7403744"><ele>51.0</ele><time>2026-04-18T12:48:30.202Z</time></trkpt><trkpt lat="43.3340452" lon="10.740265"><ele>51.199999999999996</ele><time>2026-04-18T12:48:31.206Z</time></trkpt><trkpt lat="43.3339834" lon="10.7401574"><ele>51.4</ele><time>2026-04-18T12:48:32.214Z</time></trkpt><trkpt lat="43.3339194" lon="10.7400494"><ele>51.6</ele><time>2026-04-18T12:48:33.209Z</time></trkpt><trkpt lat="43.3338495" lon="10.7399412"><ele>51.8</ele><time>2026-04-18T12:48:34.209Z</time></trkpt><trkpt lat="43.3337871" lon="10.7398252"><ele>52.0</ele><time>2026-04-18T12:48:35.208Z</time></trkpt><trkpt lat="43.3337146" lon="10.7397078"><ele>52.0</ele><time>2026-04-18T12:48:36.213Z</time></trkpt><trkpt lat="43.3336417" lon="10.7395912"><ele>52.0</ele><time>2026-04-18T12:48:37.201Z</time></trkpt><trkpt lat="43.3335764" lon="10.7394832"><ele>52.0</ele><time>2026-04-18T12:48:38.215Z</time></trkpt><trkpt lat="43.3335132" lon="10.7393854"><ele>52.0</ele><time>2026-04-18T12:48:39.204Z</time></trkpt><trkpt lat="43.3334555" lon="10.7392855"><ele>52.0</ele><time>2026-04-18T12:48:40.211Z</time></trkpt><trkpt lat="43.3333977" lon="10.7391821"><ele>52.0</ele><time>2026-04-18T12:48:41.201Z</time></trkpt><trkpt lat="43.3333402" lon="10.7390842"><ele>52.0</ele><time>2026-04-18T12:48:42.204Z</time></trkpt><trkpt lat="43.3332758" lon="10.738984"><ele>52.0</ele><time>2026-04-18T12:48:43.207Z</time></trkpt><trkpt lat="43.333197" lon="10.7388759"><ele>52.0</ele><time>2026-04-18T12:48:44.203Z</time></trkpt><trkpt lat="43.3331105" lon="10.7387867"><ele>52.0</ele><time>2026-04-18T12:48:45.212Z</time></trkpt><trkpt lat="43.3330218" lon="10.7387092"><ele>52.25</ele><time>2026-04-18T12:48:46.204Z</time></trkpt><trkpt lat="43.3329268" lon="10.7386498"><ele>52.5</ele><time>2026-04-18T12:48:47.212Z</time></trkpt><trkpt lat="43.3328223" lon="10.7385953"><ele>52.75</ele><time>2026-04-18T12:48:48.212Z</time></trkpt><trkpt lat="43.3327147" lon="10.7385396"><ele>53.0</ele><time>2026-04-18T12:48:49.216Z</time></trkpt><trkpt lat="43.3325997" lon="10.7384598"><ele>53.25</ele><time>2026-04-18T12:48:50.211Z</time></trkpt><trkpt lat="43.3324818" lon="10.7383942"><ele>53.5</ele><time>2026-04-18T12:48:51.203Z</time></trkpt><trkpt lat="43.3323607" lon="10.7383254"><ele>53.75</ele><time>2026-04-18T12:48:52.219Z</time></trkpt><trkpt lat="43.3322376" lon="10.7382592"><ele>54.0</ele><time>2026-04-18T12:48:53.208Z</time></trkpt><trkpt lat="43.3321148" lon="10.738194"><ele>53.5</ele><time>2026-04-18T12:48:54.21Z</time></trkpt><trkpt lat="43.3319982" lon="10.7381297"><ele>53.0</ele><time>2026-04-18T12:48:55.202Z</time></trkpt><trkpt lat="43.331886" lon="10.7380608"><ele>52.5</ele><time>2026-04-18T12:48:56.204Z</time></trkpt><trkpt lat="43.3317751" lon="10.7379941"><ele>52.0</ele><time>2026-04-18T12:48:57.194Z</time></trkpt><trkpt lat="43.3316674" lon="10.737928"><ele>52.0</ele><time>2026-04-18T12:48:58.201Z</time></trkpt><trkpt lat="43.3315592" lon="10.737865"><ele>52.0</ele><time>2026-04-18T12:48:59.203Z</time></trkpt><trkpt lat="43.3314565" lon="10.7378056"><ele>52.0</ele><time>2026-04-18T12:49:00.204Z</time></trkpt><trkpt lat="43.3313564" lon="10.7377405"><ele>52.0</ele><time>2026-04-18T12:49:01.206Z</time></trkpt><trkpt lat="43.3312628" lon="10.7376662"><ele>52.0</ele><time>2026-04-18T12:49:02.207Z</time></trkpt><trkpt lat="43.3311797" lon="10.7375893"><ele>54.0</ele><time>2026-04-18T12:49:03.205Z</time></trkpt><trkpt lat="43.3311011" lon="10.7375097"><ele>56.0</ele><time>2026-04-18T12:49:04.21Z</time></trkpt><trkpt lat="43.3310312" lon="10.7374138"><ele>58.0</ele><time>2026-04-18T12:49:05.211Z</time></trkpt><trkpt lat="43.3309688" lon="10.7373102"><ele>60.0</ele><time>2026-04-18T12:49:06.206Z</time></trkpt><trkpt lat="43.3309185" lon="10.7371932"><ele>62.0</ele><time>2026-04-18T12:49:07.192Z</time></trkpt><trkpt lat="43.3308788" lon="10.7370688"><ele>62.0</ele><time>2026-04-18T12:49:08.201Z</time></trkpt><trkpt lat="43.3308434" lon="10.7369184"><ele>62.0</ele><time>2026-04-18T12:49:09.204Z</time></trkpt><trkpt lat="43.3308002" lon="10.7367702"><ele>62.0</ele><time>2026-04-18T12:49:10.205Z</time></trkpt><trkpt lat="43.3307609" lon="10.7366259"><ele>62.0</ele><time>2026-04-18T12:49:11.214Z</time></trkpt><trkpt lat="43.3307312" lon="10.7364945"><ele>62.0</ele><time>2026-04-18T12:49:12.211Z</time></trkpt><trkpt lat="43.3307071" lon="10.7363836"><ele>62.400000000000006</ele><time>2026-04-18T12:49:13.196Z</time></trkpt><trkpt lat="43.3306766" lon="10.7362971"><ele>62.800000000000004</ele><time>2026-04-18T12:49:14.194Z</time></trkpt><trkpt lat="43.330624" lon="10.7361782"><ele>63.2</ele><time>2026-04-18T12:49:16.2Z</time></trkpt><trkpt lat="43.3305354" lon="10.7361318"><ele>63.6</ele><time>2026-04-18T12:49:18.206Z</time></trkpt><trkpt lat="43.3304193" lon="10.7361674"><ele>64.0</ele><time>2026-04-18T12:49:20.209Z</time></trkpt><trkpt lat="43.3303402" lon="10.7361952"><ele>65.33333333333333</ele><time>2026-04-18T12:49:21.206Z</time></trkpt><trkpt lat="43.3302668" lon="10.7362266"><ele>66.66666666666666</ele><time>2026-04-18T12:49:22.198Z</time></trkpt><trkpt lat="43.3301953" lon="10.7362564"><ele>68.0</ele><time>2026-04-18T12:49:23.197Z</time></trkpt><trkpt lat="43.3301262" lon="10.7362908"><ele>69.33333333333333</ele><time>2026-04-18T12:49:24.209Z</time></trkpt><trkpt lat="43.3300453" lon="10.7363364"><ele>70.66666666666667</ele><time>2026-04-18T12:49:25.209Z</time></trkpt><trkpt lat="43.3299541" lon="10.7363934"><ele>72.0</ele><time>2026-04-18T12:49:26.211Z</time></trkpt><trkpt lat="43.3298628" lon="10.7364518"><ele>72.0</ele><time>2026-04-18T12:49:27.198Z</time></trkpt><trkpt lat="43.3297605" lon="10.7365001"><ele>72.0</ele><time>2026-04-18T12:49:28.202Z</time></trkpt><trkpt lat="43.3296623" lon="10.7365532"><ele>72.0</ele><time>2026-04-18T12:49:29.198Z</time></trkpt><trkpt lat="43.3295395" lon="10.7366636"><ele>72.0</ele><time>2026-04-18T12:49:30.211Z</time></trkpt><trkpt lat="43.3294162" lon="10.7367338"><ele>72.25</ele><time>2026-04-18T12:49:31.197Z</time></trkpt><trkpt lat="43.3293095" lon="10.7368036"><ele>72.5</ele><time>2026-04-18T12:49:32.201Z</time></trkpt><trkpt lat="43.3292052" lon="10.7368617"><ele>72.75</ele><time>2026-04-18T12:49:33.191Z</time></trkpt><trkpt lat="43.3290934" lon="10.7369223"><ele>73.0</ele><time>2026-04-18T12:49:34.199Z</time></trkpt><trkpt lat="43.3289762" lon="10.7369718"><ele>73.75</ele><time>2026-04-18T12:49:35.209Z</time></trkpt><trkpt lat="43.3288563" lon="10.7370233"><ele>74.5</ele><time>2026-04-18T12:49:36.203Z</time></trkpt><trkpt lat="43.3287417" lon="10.7370793"><ele>75.25</ele><time>2026-04-18T12:49:37.207Z</time></trkpt><trkpt lat="43.3286222" lon="10.7371367"><ele>76.0</ele><time>2026-04-18T12:49:38.203Z</time></trkpt><trkpt lat="43.3285064" lon="10.737201"><ele>76.0</ele><time>2026-04-18T12:49:39.203Z</time></trkpt><trkpt lat="43.3283974" lon="10.7372669"><ele>76.0</ele><time>2026-04-18T12:49:40.206Z</time></trkpt><trkpt lat="43.3282821" lon="10.7373309"><ele>76.0</ele><time>2026-04-18T12:49:41.207Z</time></trkpt><trkpt lat="43.3281602" lon="10.7373988"><ele>76.0</ele><time>2026-04-18T12:49:42.194Z</time></trkpt><trkpt lat="43.3280477" lon="10.7374666"><ele>76.5</ele><time>2026-04-18T12:49:43.195Z</time></trkpt><trkpt lat="43.3279411" lon="10.7375284"><ele>77.0</ele><time>2026-04-18T12:49:44.206Z</time></trkpt><trkpt lat="43.3278368" lon="10.7375887"><ele>77.5</ele><time>2026-04-18T12:49:45.197Z</time></trkpt><trkpt lat="43.3277329" lon="10.7376475"><ele>78.0</ele><time>2026-04-18T12:49:46.208Z</time></trkpt><trkpt lat="43.3276283" lon="10.7377067"><ele>78.0</ele><time>2026-04-18T12:49:47.194Z</time></trkpt><trkpt lat="43.3275325" lon="10.7377815"><ele>78.0</ele><time>2026-04-18T12:49:48.213Z</time></trkpt><trkpt lat="43.327443" lon="10.737859"><ele>78.0</ele><time>2026-04-18T12:49:49.195Z</time></trkpt><trkpt lat="43.3273579" lon="10.7379366"><ele>78.0</ele><time>2026-04-18T12:49:50.198Z</time></trkpt><trkpt lat="43.3272822" lon="10.7380277"><ele>78.0</ele><time>2026-04-18T12:49:51.199Z</time></trkpt><trkpt lat="43.3271933" lon="10.7380999"><ele>78.0</ele><time>2026-04-18T12:49:52.208Z</time></trkpt><trkpt lat="43.3271065" lon="10.7381763"><ele>78.0</ele><time>2026-04-18T12:49:53.209Z</time></trkpt><trkpt lat="43.3270148" lon="10.7382382"><ele>78.0</ele><time>2026-04-18T12:49:54.216Z</time></trkpt><trkpt lat="43.3269194" lon="10.7383023"><ele>78.0</ele><time>2026-04-18T12:49:55.207Z</time></trkpt><trkpt lat="43.3268283" lon="10.738361"><ele>78.0</ele><time>2026-04-18T12:49:56.213Z</time></trkpt><trkpt lat="43.3267465" lon="10.7384311"><ele>78.0</ele><time>2026-04-18T12:49:57.199Z</time></trkpt><trkpt lat="43.3266644" lon="10.7385158"><ele>78.0</ele><time>2026-04-18T12:49:58.211Z</time></trkpt><trkpt lat="43.3265972" lon="10.7386004"><ele>78.0</ele><time>2026-04-18T12:49:59.197Z</time></trkpt><trkpt lat="43.3265299" lon="10.7386915"><ele>78.0</ele><time>2026-04-18T12:50:00.207Z</time></trkpt><trkpt lat="43.3264651" lon="10.7387866"><ele>78.0</ele><time>2026-04-18T12:50:01.205Z</time></trkpt><trkpt lat="43.3264133" lon="10.7388851"><ele>78.2</ele><time>2026-04-18T12:50:02.198Z</time></trkpt><trkpt lat="43.3263815" lon="10.7389991"><ele>78.4</ele><time>2026-04-18T12:50:03.203Z</time></trkpt><trkpt lat="43.326372" lon="10.7391313"><ele>78.60000000000001</ele><time>2026-04-18T12:50:04.204Z</time></trkpt><trkpt lat="43.3263751" lon="10.7392715"><ele>78.8</ele><time>2026-04-18T12:50:05.204Z</time></trkpt><trkpt lat="43.3263856" lon="10.7394149"><ele>79.0</ele><time>2026-04-18T12:50:06.197Z</time></trkpt><trkpt lat="43.3263907" lon="10.7395445"><ele>77.33333333333333</ele><time>2026-04-18T12:50:07.207Z</time></trkpt><trkpt lat="43.3263903" lon="10.7396803"><ele>75.66666666666666</ele><time>2026-04-18T12:50:08.203Z</time></trkpt><trkpt lat="43.3263887" lon="10.7397919"><ele>74.0</ele><time>2026-04-18T12:50:09.192Z</time></trkpt><trkpt lat="43.3263763" lon="10.7398953"><ele>72.33333333333333</ele><time>2026-04-18T12:50:10.209Z</time></trkpt><trkpt lat="43.3263377" lon="10.7399754"><ele>70.66666666666667</ele><time>2026-04-18T12:50:11.194Z</time></trkpt><trkpt lat="43.3262868" lon="10.7400366"><ele>69.0</ele><time>2026-04-18T12:50:12.204Z</time></trkpt><trkpt lat="43.3262222" lon="10.74009"><ele>69.0</ele><time>2026-04-18T12:50:13.188Z</time></trkpt><trkpt lat="43.3261387" lon="10.7401337"><ele>69.0</ele><time>2026-04-18T12:50:14.195Z</time></trkpt><trkpt lat="43.3260499" lon="10.7401776"><ele>69.0</ele><time>2026-04-18T12:50:15.191Z</time></trkpt><trkpt lat="43.3259453" lon="10.7402323"><ele>69.0</ele><time>2026-04-18T12:50:16.199Z</time></trkpt><trkpt lat="43.3258125" lon="10.7403067"><ele>69.0</ele><time>2026-04-18T12:50:17.198Z</time></trkpt><trkpt lat="43.3256794" lon="10.7403958"><ele>68.0</ele><time>2026-04-18T12:50:18.201Z</time></trkpt><trkpt lat="43.3255547" lon="10.7404834"><ele>67.0</ele><time>2026-04-18T12:50:19.206Z</time></trkpt><trkpt lat="43.3254234" lon="10.7405552"><ele>66.0</ele><time>2026-04-18T12:50:20.204Z</time></trkpt><trkpt lat="43.3252894" lon="10.740623"><ele>65.0</ele><time>2026-04-18T12:50:21.201Z</time></trkpt><trkpt lat="43.3251644" lon="10.740705"><ele>65.0</ele><time>2026-04-18T12:50:22.209Z</time></trkpt><trkpt lat="43.3250453" lon="10.7408037"><ele>65.0</ele><time>2026-04-18T12:50:23.209Z</time></trkpt><trkpt lat="43.3249399" lon="10.7409132"><ele>65.0</ele><time>2026-04-18T12:50:24.203Z</time></trkpt><trkpt lat="43.3248378" lon="10.7410502"><ele>65.0</ele><time>2026-04-18T12:50:25.188Z</time></trkpt><trkpt lat="43.324734" lon="10.7411844"><ele>64.25</ele><time>2026-04-18T12:50:26.207Z</time></trkpt><trkpt lat="43.3246315" lon="10.7413227"><ele>63.5</ele><time>2026-04-18T12:50:27.195Z</time></trkpt><trkpt lat="43.3245324" lon="10.7414623"><ele>62.75</ele><time>2026-04-18T12:50:28.209Z</time></trkpt><trkpt lat="43.3244343" lon="10.7416047"><ele>62.0</ele><time>2026-04-18T12:50:29.202Z</time></trkpt><trkpt lat="43.3243387" lon="10.7417433"><ele>60.75</ele><time>2026-04-18T12:50:30.204Z</time></trkpt><trkpt lat="43.3242387" lon="10.7418858"><ele>59.5</ele><time>2026-04-18T12:50:31.192Z</time></trkpt><trkpt lat="43.324139" lon="10.7420283"><ele>58.25</ele><time>2026-04-18T12:50:32.209Z</time></trkpt><trkpt lat="43.3240459" lon="10.74218"><ele>57.0</ele><time>2026-04-18T12:50:33.207Z</time></trkpt><trkpt lat="43.323956" lon="10.7423287"><ele>57.25</ele><time>2026-04-18T12:50:34.213Z</time></trkpt><trkpt lat="43.3238648" lon="10.742482"><ele>57.5</ele><time>2026-04-18T12:50:35.204Z</time></trkpt><trkpt lat="43.3237735" lon="10.7426382"><ele>57.75</ele><time>2026-04-18T12:50:36.206Z</time></trkpt><trkpt lat="43.3236761" lon="10.7427865"><ele>58.0</ele><time>2026-04-18T12:50:37.201Z</time></trkpt><trkpt lat="43.3235884" lon="10.7429292"><ele>58.0</ele><time>2026-04-18T12:50:38.201Z</time></trkpt><trkpt lat="43.3234956" lon="10.7430829"><ele>58.0</ele><time>2026-04-18T12:50:39.198Z</time></trkpt><trkpt lat="43.3234007" lon="10.7432454"><ele>58.0</ele><time>2026-04-18T12:50:40.211Z</time></trkpt><trkpt lat="43.3233045" lon="10.7434176"><ele>57.0</ele><time>2026-04-18T12:50:41.197Z</time></trkpt><trkpt lat="43.3232087" lon="10.7435788"><ele>56.0</ele><time>2026-04-18T12:50:42.208Z</time></trkpt><trkpt lat="43.3231122" lon="10.7437379"><ele>55.0</ele><time>2026-04-18T12:50:43.204Z</time></trkpt><trkpt lat="43.3230118" lon="10.7438993"><ele>58.0</ele><time>2026-04-18T12:50:44.199Z</time></trkpt><trkpt lat="43.3229147" lon="10.7440641"><ele>61.0</ele><time>2026-04-18T12:50:45.209Z</time></trkpt><trkpt lat="43.3228175" lon="10.7442244"><ele>64.0</ele><time>2026-04-18T12:50:46.201Z</time></trkpt><trkpt lat="43.322721" lon="10.7443783"><ele>62.25</ele><time>2026-04-18T12:50:47.207Z</time></trkpt><trkpt lat="43.3226292" lon="10.7445336"><ele>60.5</ele><time>2026-04-18T12:50:48.211Z</time></trkpt><trkpt lat="43.3225369" lon="10.7446914"><ele>58.75</ele><time>2026-04-18T12:50:49.204Z</time></trkpt><trkpt lat="43.3224466" lon="10.7448505"><ele>57.0</ele><time>2026-04-18T12:50:50.214Z</time></trkpt><trkpt lat="43.3223557" lon="10.7450041"><ele>57.0</ele><time>2026-04-18T12:50:51.208Z</time></trkpt><trkpt lat="43.3222678" lon="10.7451395"><ele>57.0</ele><time>2026-04-18T12:50:52.213Z</time></trkpt><trkpt lat="43.3221783" lon="10.7452871"><ele>57.0</ele><time>2026-04-18T12:50:53.195Z</time></trkpt><trkpt lat="43.322088" lon="10.7454379"><ele>57.0</ele><time>2026-04-18T12:50:54.21Z</time></trkpt><trkpt lat="43.3220004" lon="10.7455975"><ele>56.75</ele><time>2026-04-18T12:50:55.201Z</time></trkpt><trkpt lat="43.3219185" lon="10.7457562"><ele>56.5</ele><time>2026-04-18T12:50:56.2Z</time></trkpt><trkpt lat="43.3218376" lon="10.7459306"><ele>56.25</ele><time>2026-04-18T12:50:57.214Z</time></trkpt><trkpt lat="43.3217631" lon="10.7461129"><ele>56.0</ele><time>2026-04-18T12:50:58.199Z</time></trkpt><trkpt lat="43.3216899" lon="10.7463091"><ele>56.0</ele><time>2026-04-18T12:50:59.206Z</time></trkpt><trkpt lat="43.3216218" lon="10.7465175"><ele>56.0</ele><time>2026-04-18T12:51:00.202Z</time></trkpt><trkpt lat="43.3215407" lon="10.746724"><ele>56.0</ele><time>2026-04-18T12:51:01.203Z</time></trkpt><trkpt lat="43.3214583" lon="10.7469335"><ele>59.66666666666667</ele><time>2026-04-18T12:51:02.212Z</time></trkpt><trkpt lat="43.3213747" lon="10.7471405"><ele>63.33333333333333</ele><time>2026-04-18T12:51:03.199Z</time></trkpt><trkpt lat="43.3212949" lon="10.7473571"><ele>67.0</ele><time>2026-04-18T12:51:04.208Z</time></trkpt><trkpt lat="43.3212082" lon="10.7475676"><ele>65.0</ele><time>2026-04-18T12:51:05.201Z</time></trkpt><trkpt lat="43.3211229" lon="10.7477836"><ele>63.0</ele><time>2026-04-18T12:51:06.212Z</time></trkpt><trkpt lat="43.3210389" lon="10.748002"><ele>61.0</ele><time>2026-04-18T12:51:07.192Z</time></trkpt><trkpt lat="43.3209523" lon="10.7482175"><ele>61.0</ele><time>2026-04-18T12:51:08.219Z</time></trkpt><trkpt lat="43.3208668" lon="10.7484344"><ele>61.0</ele><time>2026-04-18T12:51:09.204Z</time></trkpt><trkpt lat="43.3207779" lon="10.7486562"><ele>61.0</ele><time>2026-04-18T12:51:10.202Z</time></trkpt><trkpt lat="43.3206922" lon="10.748873"><ele>61.33333333333333</ele><time>2026-04-18T12:51:11.201Z</time></trkpt><trkpt lat="43.3206059" lon="10.7490914"><ele>61.66666666666667</ele><time>2026-04-18T12:51:12.196Z</time></trkpt><trkpt lat="43.320521" lon="10.7493033"><ele>62.0</ele><time>2026-04-18T12:51:13.202Z</time></trkpt><trkpt lat="43.320433" lon="10.7495228"><ele>62.0</ele><time>2026-04-18T12:51:14.194Z</time></trkpt><trkpt lat="43.3203394" lon="10.749728"><ele>62.0</ele><time>2026-04-18T12:51:15.211Z</time></trkpt><trkpt lat="43.3202539" lon="10.7499307"><ele>62.0</ele><time>2026-04-18T12:51:16.206Z</time></trkpt><trkpt lat="43.3201646" lon="10.7501132"><ele>60.66666666666667</ele><time>2026-04-18T12:51:17.216Z</time></trkpt><trkpt lat="43.3200576" lon="10.7502758"><ele>59.33333333333333</ele><time>2026-04-18T12:51:18.208Z</time></trkpt><trkpt lat="43.3199403" lon="10.7504195"><ele>58.0</ele><time>2026-04-18T12:51:19.19Z</time></trkpt><trkpt lat="43.3198147" lon="10.7505505"><ele>60.33333333333333</ele><time>2026-04-18T12:51:20.196Z</time></trkpt><trkpt lat="43.3196885" lon="10.7506798"><ele>62.66666666666667</ele><time>2026-04-18T12:51:21.209Z</time></trkpt><trkpt lat="43.3195554" lon="10.7508168"><ele>65.0</ele><time>2026-04-18T12:51:22.222Z</time></trkpt><trkpt lat="43.3194253" lon="10.7509471"><ele>64.0</ele><time>2026-04-18T12:51:23.2Z</time></trkpt><trkpt lat="43.3192993" lon="10.7510783"><ele>63.0</ele><time>2026-04-18T12:51:24.212Z</time></trkpt><trkpt lat="43.3191836" lon="10.7512167"><ele>62.0</ele><time>2026-04-18T12:51:25.208Z</time></trkpt><trkpt lat="43.3190728" lon="10.7513613"><ele>62.0</ele><time>2026-04-18T12:51:26.211Z</time></trkpt><trkpt lat="43.318961" lon="10.7515187"><ele>62.0</ele><time>2026-04-18T12:51:27.203Z</time></trkpt><trkpt lat="43.3188607" lon="10.7516983"><ele>62.0</ele><time>2026-04-18T12:51:28.206Z</time></trkpt><trkpt lat="43.3187745" lon="10.7518897"><ele>65.0</ele><time>2026-04-18T12:51:29.213Z</time></trkpt><trkpt lat="43.3186902" lon="10.7520834"><ele>68.0</ele><time>2026-04-18T12:51:30.198Z</time></trkpt><trkpt lat="43.3186216" lon="10.7522904"><ele>71.0</ele><time>2026-04-18T12:51:31.217Z</time></trkpt><trkpt lat="43.3185512" lon="10.7524981"><ele>70.66666666666667</ele><time>2026-04-18T12:51:32.199Z</time></trkpt><trkpt lat="43.3184746" lon="10.7527146"><ele>70.33333333333333</ele><time>2026-04-18T12:51:33.209Z</time></trkpt><trkpt lat="43.3183946" lon="10.7529423"><ele>70.0</ele><time>2026-04-18T12:51:34.209Z</time></trkpt><trkpt lat="43.318316" lon="10.7531804"><ele>70.0</ele><time>2026-04-18T12:51:35.193Z</time></trkpt><trkpt lat="43.318233" lon="10.7534116"><ele>70.0</ele><time>2026-04-18T12:51:36.211Z</time></trkpt><trkpt lat="43.3181462" lon="10.7536469"><ele>70.0</ele><time>2026-04-18T12:51:37.195Z</time></trkpt><trkpt lat="43.3180519" lon="10.7538767"><ele>69.0</ele><time>2026-04-18T12:51:38.203Z</time></trkpt><trkpt lat="43.3179625" lon="10.7540966"><ele>68.0</ele><time>2026-04-18T12:51:39.199Z</time></trkpt><trkpt lat="43.317876" lon="10.7543264"><ele>67.0</ele><time>2026-04-18T12:51:40.209Z</time></trkpt><trkpt lat="43.3177921" lon="10.7545518"><ele>67.0</ele><time>2026-04-18T12:51:41.204Z</time></trkpt><trkpt lat="43.317711" lon="10.7547641"><ele>67.0</ele><time>2026-04-18T12:51:42.194Z</time></trkpt><trkpt lat="43.3176471" lon="10.7549845"><ele>67.0</ele><time>2026-04-18T12:51:43.198Z</time></trkpt><trkpt lat="43.3175921" lon="10.7552027"><ele>66.66666666666666</ele><time>2026-04-18T12:51:44.206Z</time></trkpt><trkpt lat="43.31754" lon="10.7554291"><ele>66.33333333333333</ele><time>2026-04-18T12:51:45.201Z</time></trkpt><trkpt lat="43.3174805" lon="10.7556335"><ele>66.0</ele><time>2026-04-18T12:51:46.204Z</time></trkpt><trkpt lat="43.3174205" lon="10.7558408"><ele>65.66666666666667</ele><time>2026-04-18T12:51:47.2Z</time></trkpt><trkpt lat="43.317354" lon="10.7560473"><ele>65.33333333333334</ele><time>2026-04-18T12:51:48.21Z</time></trkpt><trkpt lat="43.3172929" lon="10.756253"><ele>65.0</ele><time>2026-04-18T12:51:49.201Z</time></trkpt><trkpt lat="43.3172214" lon="10.7564596"><ele>69.66666666666667</ele><time>2026-04-18T12:51:50.203Z</time></trkpt><trkpt lat="43.3171422" lon="10.7566574"><ele>74.33333333333333</ele><time>2026-04-18T12:51:51.197Z</time></trkpt><trkpt lat="43.3170637" lon="10.7568589"><ele>79.0</ele><time>2026-04-18T12:51:52.217Z</time></trkpt><trkpt lat="43.3169868" lon="10.7570617"><ele>79.75</ele><time>2026-04-18T12:51:53.205Z</time></trkpt><trkpt lat="43.3169255" lon="10.7572524"><ele>80.5</ele><time>2026-04-18T12:51:54.208Z</time></trkpt><trkpt lat="43.3168691" lon="10.7574437"><ele>81.25</ele><time>2026-04-18T12:51:55.199Z</time></trkpt><trkpt lat="43.3168275" lon="10.7576281"><ele>82.0</ele><time>2026-04-18T12:51:56.204Z</time></trkpt><trkpt lat="43.3167998" lon="10.757804"><ele>80.66666666666666</ele><time>2026-04-18T12:51:57.202Z</time></trkpt><trkpt lat="43.3167832" lon="10.7579483"><ele>79.33333333333333</ele><time>2026-04-18T12:51:58.21Z</time></trkpt><trkpt lat="43.3167538" lon="10.7580686"><ele>78.0</ele><time>2026-04-18T12:51:59.204Z</time></trkpt><trkpt lat="43.3167263" lon="10.7581793"><ele>76.66666666666667</ele><time>2026-04-18T12:52:00.209Z</time></trkpt><trkpt lat="43.3167088" lon="10.7582685"><ele>75.33333333333334</ele><time>2026-04-18T12:52:01.197Z</time></trkpt><trkpt lat="43.3166924" lon="10.7583629"><ele>74.0</ele><time>2026-04-18T12:52:03.204Z</time></trkpt><trkpt lat="43.3167596" lon="10.7583658"><ele>74.0</ele><time>2026-04-18T12:52:13.201Z</time></trkpt><trkpt lat="43.3167441" lon="10.7585119"><ele>74.0</ele><time>2026-04-18T12:52:24.216Z</time></trkpt><trkpt lat="43.3167404" lon="10.758602"><ele>74.0</ele><time>2026-04-18T12:52:25.211Z</time></trkpt><trkpt lat="43.3167218" lon="10.758706"><ele>74.0</ele><time>2026-04-18T12:52:26.204Z</time></trkpt><trkpt lat="43.3167025" lon="10.7588208"><ele>74.0</ele><time>2026-04-18T12:52:27.219Z</time></trkpt><trkpt lat="43.3166719" lon="10.7589437"><ele>74.0</ele><time>2026-04-18T12:52:28.21Z</time></trkpt><trkpt lat="43.3166471" lon="10.7590712"><ele>72.8</ele><time>2026-04-18T12:52:29.207Z</time></trkpt><trkpt lat="43.3166129" lon="10.7592102"><ele>71.60000000000001</ele><time>2026-04-18T12:52:30.195Z</time></trkpt><trkpt lat="43.3165821" lon="10.7593509"><ele>70.4</ele><time>2026-04-18T12:52:31.191Z</time></trkpt><trkpt lat="43.3165534" lon="10.7594928"><ele>69.2</ele><time>2026-04-18T12:52:32.207Z</time></trkpt><trkpt lat="43.3165342" lon="10.7596409"><ele>68.0</ele><time>2026-04-18T12:52:33.21Z</time></trkpt><trkpt lat="43.3165116" lon="10.7597871"><ele>67.5</ele><time>2026-04-18T12:52:34.201Z</time></trkpt><trkpt lat="43.3164751" lon="10.7599364"><ele>67.0</ele><time>2026-04-18T12:52:35.197Z</time></trkpt><trkpt lat="43.3164466" lon="10.7600965"><ele>66.5</ele><time>2026-04-18T12:52:36.214Z</time></trkpt><trkpt lat="43.316413" lon="10.7602746"><ele>66.0</ele><time>2026-04-18T12:52:37.201Z</time></trkpt><trkpt lat="43.3163807" lon="10.7604502"><ele>67.75</ele><time>2026-04-18T12:52:38.198Z</time></trkpt><trkpt lat="43.3163493" lon="10.7606136"><ele>69.5</ele><time>2026-04-18T12:52:39.206Z</time></trkpt><trkpt lat="43.3163116" lon="10.76076"><ele>71.25</ele><time>2026-04-18T12:52:40.204Z</time></trkpt><trkpt lat="43.3162482" lon="10.7608906"><ele>73.0</ele><time>2026-04-18T12:52:41.19Z</time></trkpt><trkpt lat="43.3161723" lon="10.7609831"><ele>72.0</ele><time>2026-04-18T12:52:42.197Z</time></trkpt><trkpt lat="43.3160948" lon="10.7610337"><ele>71.0</ele><time>2026-04-18T12:52:43.196Z</time></trkpt><trkpt lat="43.3160164" lon="10.7610759"><ele>70.0</ele><time>2026-04-18T12:52:44.192Z</time></trkpt><trkpt lat="43.3159267" lon="10.7611091"><ele>69.0</ele><time>2026-04-18T12:52:45.187Z</time></trkpt><trkpt lat="43.3158174" lon="10.7611368"><ele>68.0</ele><time>2026-04-18T12:52:46.204Z</time></trkpt><trkpt lat="43.3156914" lon="10.7611596"><ele>67.75</ele><time>2026-04-18T12:52:47.197Z</time></trkpt><trkpt lat="43.3155584" lon="10.7612094"><ele>67.5</ele><time>2026-04-18T12:52:48.21Z</time></trkpt><trkpt lat="43.315439" lon="10.7612955"><ele>67.25</ele><time>2026-04-18T12:52:49.203Z</time></trkpt><trkpt lat="43.3153279" lon="10.7613968"><ele>67.0</ele><time>2026-04-18T12:52:50.196Z</time></trkpt><trkpt lat="43.3152249" lon="10.7615069"><ele>67.0</ele><time>2026-04-18T12:52:51.203Z</time></trkpt><trkpt lat="43.3151272" lon="10.7616381"><ele>67.0</ele><time>2026-04-18T12:52:52.202Z</time></trkpt><trkpt lat="43.3150332" lon="10.7617583"><ele>67.0</ele><time>2026-04-18T12:52:53.203Z</time></trkpt><trkpt lat="43.3149473" lon="10.7618799"><ele>67.0</ele><time>2026-04-18T12:52:54.195Z</time></trkpt><trkpt lat="43.3148563" lon="10.7619943"><ele>66.75</ele><time>2026-04-18T12:52:55.208Z</time></trkpt><trkpt lat="43.3147617" lon="10.7621106"><ele>66.5</ele><time>2026-04-18T12:52:56.212Z</time></trkpt><trkpt lat="43.3146547" lon="10.7622106"><ele>66.25</ele><time>2026-04-18T12:52:57.215Z</time></trkpt><trkpt lat="43.3145504" lon="10.7623001"><ele>66.0</ele><time>2026-04-18T12:52:58.212Z</time></trkpt><trkpt lat="43.3144498" lon="10.7623707"><ele>66.75</ele><time>2026-04-18T12:52:59.207Z</time></trkpt><trkpt lat="43.3143481" lon="10.7624471"><ele>67.5</ele><time>2026-04-18T12:53:00.206Z</time></trkpt><trkpt lat="43.3142489" lon="10.762556"><ele>68.25</ele><time>2026-04-18T12:53:01.208Z</time></trkpt><trkpt lat="43.314156" lon="10.7626815"><ele>69.0</ele><time>2026-04-18T12:53:02.212Z</time></trkpt><trkpt lat="43.3140653" lon="10.7628191"><ele>69.0</ele><time>2026-04-18T12:53:03.198Z</time></trkpt><trkpt lat="43.3139774" lon="10.7629673"><ele>69.0</ele><time>2026-04-18T12:53:04.206Z</time></trkpt><trkpt lat="43.3138917" lon="10.7631258"><ele>69.0</ele><time>2026-04-18T12:53:05.206Z</time></trkpt><trkpt lat="43.3138048" lon="10.763273"><ele>69.0</ele><time>2026-04-18T12:53:06.217Z</time></trkpt><trkpt lat="43.3137098" lon="10.7634049"><ele>70.5</ele><time>2026-04-18T12:53:07.224Z</time></trkpt><trkpt lat="43.3136239" lon="10.7635432"><ele>72.0</ele><time>2026-04-18T12:53:08.219Z</time></trkpt><trkpt lat="43.3135459" lon="10.7636798"><ele>73.5</ele><time>2026-04-18T12:53:09.216Z</time></trkpt><trkpt lat="43.3134652" lon="10.7637952"><ele>75.0</ele><time>2026-04-18T12:53:10.215Z</time></trkpt><trkpt lat="43.3133762" lon="10.7638975"><ele>75.0</ele><time>2026-04-18T12:53:11.21Z</time></trkpt><trkpt lat="43.3132895" lon="10.7639806"><ele>75.0</ele><time>2026-04-18T12:53:12.213Z</time></trkpt><trkpt lat="43.313191" lon="10.76405"><ele>75.0</ele><time>2026-04-18T12:53:13.203Z</time></trkpt><trkpt lat="43.3130922" lon="10.7641093"><ele>75.0</ele><time>2026-04-18T12:53:14.206Z</time></trkpt><trkpt lat="43.3129943" lon="10.764167"><ele>75.0</ele><time>2026-04-18T12:53:15.201Z</time></trkpt><trkpt lat="43.3128994" lon="10.7642197"><ele>77.4</ele><time>2026-04-18T12:53:16.208Z</time></trkpt><trkpt lat="43.3128073" lon="10.7642799"><ele>79.8</ele><time>2026-04-18T12:53:17.199Z</time></trkpt><trkpt lat="43.3127174" lon="10.7643473"><ele>82.19999999999999</ele><time>2026-04-18T12:53:18.2Z</time></trkpt><trkpt lat="43.3126299" lon="10.7644203"><ele>84.6</ele><time>2026-04-18T12:53:19.2Z</time></trkpt><trkpt lat="43.3125454" lon="10.7644978"><ele>87.0</ele><time>2026-04-18T12:53:20.214Z</time></trkpt><trkpt lat="43.3124599" lon="10.7645708"><ele>87.0</ele><time>2026-04-18T12:53:21.197Z</time></trkpt><trkpt lat="43.312371" lon="10.7646505"><ele>87.0</ele><time>2026-04-18T12:53:22.211Z</time></trkpt><trkpt lat="43.3122832" lon="10.7647274"><ele>87.0</ele><time>2026-04-18T12:53:23.205Z</time></trkpt><trkpt lat="43.3121976" lon="10.7648088"><ele>87.0</ele><time>2026-04-18T12:53:24.21Z</time></trkpt><trkpt lat="43.3121225" lon="10.7648916"><ele>87.0</ele><time>2026-04-18T12:53:25.202Z</time></trkpt><trkpt lat="43.3120536" lon="10.7649829"><ele>89.8</ele><time>2026-04-18T12:53:26.21Z</time></trkpt><trkpt lat="43.3119831" lon="10.7650775"><ele>92.6</ele><time>2026-04-18T12:53:27.201Z</time></trkpt><trkpt lat="43.3119174" lon="10.7651911"><ele>95.39999999999999</ele><time>2026-04-18T12:53:28.201Z</time></trkpt><trkpt lat="43.3118578" lon="10.7653132"><ele>98.19999999999999</ele><time>2026-04-18T12:53:29.203Z</time></trkpt><trkpt lat="43.3117991" lon="10.7654379"><ele>101.0</ele><time>2026-04-18T12:53:30.216Z</time></trkpt><trkpt lat="43.3117464" lon="10.7655699"><ele>101.6</ele><time>2026-04-18T12:53:31.203Z</time></trkpt><trkpt lat="43.3116927" lon="10.7657107"><ele>102.19999999999999</ele><time>2026-04-18T12:53:32.203Z</time></trkpt><trkpt lat="43.3116446" lon="10.7658387"><ele>102.80000000000001</ele><time>2026-04-18T12:53:33.21Z</time></trkpt><trkpt lat="43.3115883" lon="10.7659561"><ele>103.4</ele><time>2026-04-18T12:53:34.222Z</time></trkpt><trkpt lat="43.3115207" lon="10.7660546"><ele>104.0</ele><time>2026-04-18T12:53:35.209Z</time></trkpt><trkpt lat="43.3114197" lon="10.7661163"><ele>106.6</ele><time>2026-04-18T12:53:36.214Z</time></trkpt><trkpt lat="43.3113244" lon="10.7661401"><ele>109.2</ele><time>2026-04-18T12:53:37.208Z</time></trkpt><trkpt lat="43.3112314" lon="10.766127"><ele>111.79999999999998</ele><time>2026-04-18T12:53:38.224Z</time></trkpt><trkpt lat="43.3111479" lon="10.7661003"><ele>114.39999999999999</ele><time>2026-04-18T12:53:39.202Z</time></trkpt><trkpt lat="43.3110595" lon="10.7660751"><ele>117.0</ele><time>2026-04-18T12:53:40.214Z</time></trkpt><trkpt lat="43.3109705" lon="10.7660479"><ele>116.19999999999999</ele><time>2026-04-18T12:53:41.205Z</time></trkpt><trkpt lat="43.310878" lon="10.7660265"><ele>115.39999999999999</ele><time>2026-04-18T12:53:42.2Z</time></trkpt><trkpt lat="43.3107782" lon="10.7659961"><ele>114.60000000000001</ele><time>2026-04-18T12:53:43.21Z</time></trkpt><trkpt lat="43.3106734" lon="10.7659576"><ele>113.80000000000001</ele><time>2026-04-18T12:53:44.214Z</time></trkpt><trkpt lat="43.3105685" lon="10.7659139"><ele>113.0</ele><time>2026-04-18T12:53:45.193Z</time></trkpt><trkpt lat="43.310463" lon="10.7658578"><ele>116.25</ele><time>2026-04-18T12:53:46.211Z</time></trkpt><trkpt lat="43.3103608" lon="10.7657712"><ele>119.5</ele><time>2026-04-18T12:53:47.215Z</time></trkpt><trkpt lat="43.3102509" lon="10.765671"><ele>122.75</ele><time>2026-04-18T12:53:48.203Z</time></trkpt><trkpt lat="43.3101522" lon="10.7655642"><ele>126.0</ele><time>2026-04-18T12:53:49.2Z</time></trkpt><trkpt lat="43.3100551" lon="10.7654312"><ele>126.0</ele><time>2026-04-18T12:53:50.227Z</time></trkpt><trkpt lat="43.3099733" lon="10.7652926"><ele>126.0</ele><time>2026-04-18T12:53:51.205Z</time></trkpt><trkpt lat="43.3099005" lon="10.7651387"><ele>126.0</ele><time>2026-04-18T12:53:52.22Z</time></trkpt><trkpt lat="43.309852" lon="10.7649685"><ele>126.0</ele><time>2026-04-18T12:53:53.215Z</time></trkpt><trkpt lat="43.3098129" lon="10.7648058"><ele>126.19999999999999</ele><time>2026-04-18T12:53:54.211Z</time></trkpt><trkpt lat="43.3097801" lon="10.7646461"><ele>126.39999999999999</ele><time>2026-04-18T12:53:55.203Z</time></trkpt><trkpt lat="43.3097469" lon="10.7644859"><ele>126.6</ele><time>2026-04-18T12:53:56.194Z</time></trkpt><trkpt lat="43.3097242" lon="10.7643453"><ele>126.8</ele><time>2026-04-18T12:53:57.212Z</time></trkpt><trkpt lat="43.3096981" lon="10.7642274"><ele>127.0</ele><time>2026-04-18T12:53:58.224Z</time></trkpt><trkpt lat="43.3096641" lon="10.7641398"><ele>128.6</ele><time>2026-04-18T12:53:59.204Z</time></trkpt><trkpt lat="43.3095561" lon="10.764083"><ele>130.2</ele><time>2026-04-18T12:54:01.21Z</time></trkpt><trkpt lat="43.3094511" lon="10.7641361"><ele>131.8</ele><time>2026-04-18T12:54:03.211Z</time></trkpt><trkpt lat="43.3093966" lon="10.7642084"><ele>133.4</ele><time>2026-04-18T12:54:04.205Z</time></trkpt><trkpt lat="43.3093314" lon="10.7642915"><ele>135.0</ele><time>2026-04-18T12:54:05.204Z</time></trkpt><trkpt lat="43.3092658" lon="10.7643867"><ele>136.4</ele><time>2026-04-18T12:54:06.207Z</time></trkpt><trkpt lat="43.3091686" lon="10.7644851"><ele>137.8</ele><time>2026-04-18T12:54:07.192Z</time></trkpt><trkpt lat="43.3090774" lon="10.7645733"><ele>139.2</ele><time>2026-04-18T12:54:08.208Z</time></trkpt><trkpt lat="43.3089851" lon="10.7646558"><ele>140.6</ele><time>2026-04-18T12:54:09.207Z</time></trkpt><trkpt lat="43.3088891" lon="10.7647182"><ele>142.0</ele><time>2026-04-18T12:54:10.202Z</time></trkpt><trkpt lat="43.3087854" lon="10.7647796"><ele>142.0</ele><time>2026-04-18T12:54:11.201Z</time></trkpt><trkpt lat="43.3086807" lon="10.764859"><ele>142.0</ele><time>2026-04-18T12:54:12.195Z</time></trkpt><trkpt lat="43.3085977" lon="10.7649429"><ele>142.0</ele><time>2026-04-18T12:54:13.201Z</time></trkpt><trkpt lat="43.3085103" lon="10.765022"><ele>142.0</ele><time>2026-04-18T12:54:14.195Z</time></trkpt><trkpt lat="43.3084022" lon="10.765092"><ele>142.0</ele><time>2026-04-18T12:54:15.202Z</time></trkpt><trkpt lat="43.3082924" lon="10.7651683"><ele>142.6</ele><time>2026-04-18T12:54:16.203Z</time></trkpt><trkpt lat="43.308188" lon="10.765245"><ele>143.2</ele><time>2026-04-18T12:54:17.196Z</time></trkpt><trkpt lat="43.3080855" lon="10.7653143"><ele>143.8</ele><time>2026-04-18T12:54:18.206Z</time></trkpt><trkpt lat="43.3079857" lon="10.7653936"><ele>144.4</ele><time>2026-04-18T12:54:19.207Z</time></trkpt><trkpt lat="43.3079012" lon="10.7654658"><ele>145.0</ele><time>2026-04-18T12:54:20.202Z</time></trkpt><trkpt lat="43.3078271" lon="10.7655288"><ele>145.0</ele><time>2026-04-18T12:54:21.194Z</time></trkpt><trkpt lat="43.3077466" lon="10.765592"><ele>145.0</ele><time>2026-04-18T12:54:22.208Z</time></trkpt><trkpt lat="43.3076751" lon="10.7656482"><ele>145.0</ele><time>2026-04-18T12:54:23.19Z</time></trkpt><trkpt lat="43.3076039" lon="10.7657179"><ele>145.0</ele><time>2026-04-18T12:54:24.206Z</time></trkpt><trkpt lat="43.3075349" lon="10.7657972"><ele>145.0</ele><time>2026-04-18T12:54:25.208Z</time></trkpt><trkpt lat="43.3074654" lon="10.7658909"><ele>145.0</ele><time>2026-04-18T12:54:26.208Z</time></trkpt><trkpt lat="43.3073946" lon="10.7659993"><ele>145.0</ele><time>2026-04-18T12:54:27.206Z</time></trkpt><trkpt lat="43.3073229" lon="10.7661096"><ele>145.0</ele><time>2026-04-18T12:54:28.206Z</time></trkpt><trkpt lat="43.307247" lon="10.7662377"><ele>145.0</ele><time>2026-04-18T12:54:29.21Z</time></trkpt><trkpt lat="43.3071838" lon="10.7663696"><ele>145.0</ele><time>2026-04-18T12:54:30.21Z</time></trkpt><trkpt lat="43.3071146" lon="10.7664967"><ele>144.2</ele><time>2026-04-18T12:54:31.203Z</time></trkpt><trkpt lat="43.3070588" lon="10.766616"><ele>143.4</ele><time>2026-04-18T12:54:32.202Z</time></trkpt><trkpt lat="43.3069993" lon="10.7667239"><ele>142.6</ele><time>2026-04-18T12:54:33.202Z</time></trkpt><trkpt lat="43.3069218" lon="10.7668102"><ele>141.8</ele><time>2026-04-18T12:54:34.198Z</time></trkpt><trkpt lat="43.3068282" lon="10.7668821"><ele>141.0</ele><time>2026-04-18T12:54:35.202Z</time></trkpt><trkpt lat="43.3067292" lon="10.7669382"><ele>140.8</ele><time>2026-04-18T12:54:36.216Z</time></trkpt><trkpt lat="43.3066272" lon="10.7669815"><ele>140.6</ele><time>2026-04-18T12:54:37.201Z</time></trkpt><trkpt lat="43.3065217" lon="10.7670232"><ele>140.4</ele><time>2026-04-18T12:54:38.215Z</time></trkpt><trkpt lat="43.3064153" lon="10.7670612"><ele>140.2</ele><time>2026-04-18T12:54:39.211Z</time></trkpt><trkpt lat="43.3063022" lon="10.767116"><ele>140.0</ele><time>2026-04-18T12:54:40.208Z</time></trkpt><trkpt lat="43.3061856" lon="10.7671985"><ele>140.66666666666666</ele><time>2026-04-18T12:54:41.21Z</time></trkpt><trkpt lat="43.3060848" lon="10.7672654"><ele>141.33333333333331</ele><time>2026-04-18T12:54:42.204Z</time></trkpt><trkpt lat="43.3059973" lon="10.7673229"><ele>142.0</ele><time>2026-04-18T12:54:43.195Z</time></trkpt><trkpt lat="43.3059342" lon="10.7673476"><ele>142.66666666666666</ele><time>2026-04-18T12:54:44.208Z</time></trkpt><trkpt lat="43.3058663" lon="10.7673724"><ele>143.33333333333334</ele><time>2026-04-18T12:54:45.205Z</time></trkpt><trkpt lat="43.305792" lon="10.7673839"><ele>144.0</ele><time>2026-04-18T12:54:46.208Z</time></trkpt><trkpt lat="43.3057266" lon="10.7673907"><ele>144.0</ele><time>2026-04-18T12:54:47.213Z</time></trkpt><trkpt lat="43.30565" lon="10.7673973"><ele>144.0</ele><time>2026-04-18T12:54:48.204Z</time></trkpt><trkpt lat="43.305572" lon="10.767401"><ele>144.0</ele><time>2026-04-18T12:54:49.209Z</time></trkpt><trkpt lat="43.3054959" lon="10.767393"><ele>144.0</ele><time>2026-04-18T12:54:50.213Z</time></trkpt><trkpt lat="43.3054183" lon="10.7673908"><ele>144.0</ele><time>2026-04-18T12:54:51.199Z</time></trkpt><trkpt lat="43.3053403" lon="10.7673911"><ele>144.0</ele><time>2026-04-18T12:54:52.211Z</time></trkpt><trkpt lat="43.3052572" lon="10.7673952"><ele>144.66666666666666</ele><time>2026-04-18T12:54:53.204Z</time></trkpt><trkpt lat="43.3051697" lon="10.7673969"><ele>145.33333333333334</ele><time>2026-04-18T12:54:54.225Z</time></trkpt><trkpt lat="43.3050847" lon="10.7674011"><ele>146.0</ele><time>2026-04-18T12:54:55.213Z</time></trkpt><trkpt lat="43.3049999" lon="10.7673966"><ele>146.66666666666669</ele><time>2026-04-18T12:54:56.213Z</time></trkpt><trkpt lat="43.3049201" lon="10.76739"><ele>147.33333333333334</ele><time>2026-04-18T12:54:57.21Z</time></trkpt><trkpt lat="43.3048454" lon="10.767376"><ele>148.0</ele><time>2026-04-18T12:54:58.215Z</time></trkpt><trkpt lat="43.3047693" lon="10.7673647"><ele>148.5</ele><time>2026-04-18T12:54:59.206Z</time></trkpt><trkpt lat="43.304699" lon="10.7673465"><ele>149.0</ele><time>2026-04-18T12:55:00.219Z</time></trkpt><trkpt lat="43.3046179" lon="10.7673141"><ele>149.5</ele><time>2026-04-18T12:55:01.215Z</time></trkpt><trkpt lat="43.3045375" lon="10.7672783"><ele>150.0</ele><time>2026-04-18T12:55:02.213Z</time></trkpt><trkpt lat="43.3044597" lon="10.7672414"><ele>150.5</ele><time>2026-04-18T12:55:03.205Z</time></trkpt><trkpt lat="43.3043688" lon="10.7671984"><ele>151.0</ele><time>2026-04-18T12:55:04.212Z</time></trkpt><trkpt lat="43.3042734" lon="10.7671571"><ele>151.0</ele><time>2026-04-18T12:55:05.21Z</time></trkpt><trkpt lat="43.3041759" lon="10.7671215"><ele>151.0</ele><time>2026-04-18T12:55:06.219Z</time></trkpt><trkpt lat="43.3040755" lon="10.7670908"><ele>151.0</ele><time>2026-04-18T12:55:07.203Z</time></trkpt><trkpt lat="43.3039741" lon="10.7670715"><ele>151.0</ele><time>2026-04-18T12:55:08.207Z</time></trkpt><trkpt lat="43.3038669" lon="10.7670572"><ele>151.0</ele><time>2026-04-18T12:55:09.201Z</time></trkpt><trkpt lat="43.3037448" lon="10.7670568"><ele>151.75</ele><time>2026-04-18T12:55:10.202Z</time></trkpt><trkpt lat="43.3036212" lon="10.767073"><ele>152.5</ele><time>2026-04-18T12:55:11.212Z</time></trkpt><trkpt lat="43.3034979" lon="10.7671015"><ele>153.25</ele><time>2026-04-18T12:55:12.211Z</time></trkpt><trkpt lat="43.3033732" lon="10.7671397"><ele>154.0</ele><time>2026-04-18T12:55:13.202Z</time></trkpt><trkpt lat="43.3032503" lon="10.7671937"><ele>154.0</ele><time>2026-04-18T12:55:14.203Z</time></trkpt><trkpt lat="43.3031276" lon="10.7672451"><ele>154.0</ele><time>2026-04-18T12:55:15.207Z</time></trkpt><trkpt lat="43.3029975" lon="10.7672959"><ele>154.0</ele><time>2026-04-18T12:55:16.201Z</time></trkpt><trkpt lat="43.3028641" lon="10.7673391"><ele>154.0</ele><time>2026-04-18T12:55:17.199Z</time></trkpt><trkpt lat="43.3027427" lon="10.7673907"><ele>154.25</ele><time>2026-04-18T12:55:18.207Z</time></trkpt><trkpt lat="43.3026134" lon="10.7674385"><ele>154.5</ele><time>2026-04-18T12:55:19.19Z</time></trkpt><trkpt lat="43.3024827" lon="10.7674812"><ele>154.75</ele><time>2026-04-18T12:55:20.217Z</time></trkpt><trkpt lat="43.3023591" lon="10.7675287"><ele>155.0</ele><time>2026-04-18T12:55:21.2Z</time></trkpt><trkpt lat="43.3022316" lon="10.7675701"><ele>155.25</ele><time>2026-04-18T12:55:22.194Z</time></trkpt><trkpt lat="43.3020998" lon="10.7676118"><ele>155.5</ele><time>2026-04-18T12:55:23.201Z</time></trkpt><trkpt lat="43.3019719" lon="10.7676518"><ele>155.75</ele><time>2026-04-18T12:55:24.212Z</time></trkpt><trkpt lat="43.3018384" lon="10.7676921"><ele>156.0</ele><time>2026-04-18T12:55:25.213Z</time></trkpt><trkpt lat="43.3017058" lon="10.7677454"><ele>156.25</ele><time>2026-04-18T12:55:26.207Z</time></trkpt><trkpt lat="43.3015742" lon="10.767801"><ele>156.5</ele><time>2026-04-18T12:55:27.207Z</time></trkpt><trkpt lat="43.3014468" lon="10.7678529"><ele>156.75</ele><time>2026-04-18T12:55:28.218Z</time></trkpt><trkpt lat="43.3013245" lon="10.7679071"><ele>157.0</ele><time>2026-04-18T12:55:29.204Z</time></trkpt><trkpt lat="43.3012033" lon="10.7679561"><ele>157.0</ele><time>2026-04-18T12:55:30.21Z</time></trkpt><trkpt lat="43.3010852" lon="10.7680116"><ele>157.0</ele><time>2026-04-18T12:55:31.2Z</time></trkpt><trkpt lat="43.3009684" lon="10.7680635"><ele>157.0</ele><time>2026-04-18T12:55:32.203Z</time></trkpt><trkpt lat="43.300854" lon="10.7681093"><ele>157.0</ele><time>2026-04-18T12:55:33.202Z</time></trkpt><trkpt lat="43.3007369" lon="10.7681481"><ele>157.0</ele><time>2026-04-18T12:55:34.202Z</time></trkpt><trkpt lat="43.3006262" lon="10.7681864"><ele>157.0</ele><time>2026-04-18T12:55:35.205Z</time></trkpt><trkpt lat="43.3005094" lon="10.7682099"><ele>157.0</ele><time>2026-04-18T12:55:36.209Z</time></trkpt><trkpt lat="43.3003982" lon="10.7682175"><ele>157.0</ele><time>2026-04-18T12:55:37.217Z</time></trkpt><trkpt lat="43.3002888" lon="10.7682291"><ele>158.39999999999998</ele><time>2026-04-18T12:55:38.206Z</time></trkpt><trkpt lat="43.3001813" lon="10.7682392"><ele>159.79999999999998</ele><time>2026-04-18T12:55:39.202Z</time></trkpt><trkpt lat="43.3000774" lon="10.7682415"><ele>161.2</ele><time>2026-04-18T12:55:40.213Z</time></trkpt><trkpt lat="43.2999763" lon="10.7682457"><ele>162.6</ele><time>2026-04-18T12:55:41.21Z</time></trkpt><trkpt lat="43.2998783" lon="10.7682428"><ele>164.0</ele><time>2026-04-18T12:55:42.202Z</time></trkpt><trkpt lat="43.2997889" lon="10.7682355"><ele>165.0</ele><time>2026-04-18T12:55:43.207Z</time></trkpt><trkpt lat="43.2997051" lon="10.7682199"><ele>166.0</ele><time>2026-04-18T12:55:44.2Z</time></trkpt><trkpt lat="43.2996216" lon="10.7681914"><ele>167.0</ele><time>2026-04-18T12:55:45.193Z</time></trkpt><trkpt lat="43.2995366" lon="10.7681585"><ele>168.0</ele><time>2026-04-18T12:55:46.201Z</time></trkpt><trkpt lat="43.2994483" lon="10.7681257"><ele>169.0</ele><time>2026-04-18T12:55:47.196Z</time></trkpt><trkpt lat="43.2993555" lon="10.7680891"><ele>170.0</ele><time>2026-04-18T12:55:48.212Z</time></trkpt><trkpt lat="43.2992626" lon="10.7680546"><ele>170.0</ele><time>2026-04-18T12:55:49.198Z</time></trkpt><trkpt lat="43.2991678" lon="10.768021"><ele>170.0</ele><time>2026-04-18T12:55:50.218Z</time></trkpt><trkpt lat="43.2990742" lon="10.7679939"><ele>170.0</ele><time>2026-04-18T12:55:51.202Z</time></trkpt><trkpt lat="43.2989756" lon="10.767965"><ele>170.0</ele><time>2026-04-18T12:55:52.21Z</time></trkpt><trkpt lat="43.298874" lon="10.7679275"><ele>170.0</ele><time>2026-04-18T12:55:53.21Z</time></trkpt><trkpt lat="43.2987742" lon="10.7678891"><ele>172.0</ele><time>2026-04-18T12:55:54.203Z</time></trkpt><trkpt lat="43.2986738" lon="10.7678407"><ele>174.0</ele><time>2026-04-18T12:55:55.203Z</time></trkpt><trkpt lat="43.2985649" lon="10.7677998"><ele>176.0</ele><time>2026-04-18T12:55:56.206Z</time></trkpt><trkpt lat="43.2984559" lon="10.7677578"><ele>178.0</ele><time>2026-04-18T12:55:57.203Z</time></trkpt><trkpt lat="43.2983504" lon="10.7677122"><ele>180.0</ele><time>2026-04-18T12:55:58.207Z</time></trkpt><trkpt lat="43.2982516" lon="10.7676742"><ele>180.6</ele><time>2026-04-18T12:55:59.199Z</time></trkpt><trkpt lat="43.2981473" lon="10.7676517"><ele>181.2</ele><time>2026-04-18T12:56:00.208Z</time></trkpt><trkpt lat="43.2980503" lon="10.7676399"><ele>181.8</ele><time>2026-04-18T12:56:01.203Z</time></trkpt><trkpt lat="43.297957" lon="10.7676396"><ele>182.4</ele><time>2026-04-18T12:56:02.219Z</time></trkpt><trkpt lat="43.2978648" lon="10.767648"><ele>183.0</ele><time>2026-04-18T12:56:03.211Z</time></trkpt><trkpt lat="43.2977746" lon="10.7676761"><ele>184.0</ele><time>2026-04-18T12:56:04.212Z</time></trkpt><trkpt lat="43.2976833" lon="10.7677071"><ele>185.0</ele><time>2026-04-18T12:56:05.204Z</time></trkpt><trkpt lat="43.2975966" lon="10.7677468"><ele>186.0</ele><time>2026-04-18T12:56:06.212Z</time></trkpt><trkpt lat="43.2975146" lon="10.7677952"><ele>187.0</ele><time>2026-04-18T12:56:07.192Z</time></trkpt><trkpt lat="43.2974301" lon="10.7678524"><ele>188.0</ele><time>2026-04-18T12:56:08.208Z</time></trkpt><trkpt lat="43.2973512" lon="10.7679217"><ele>188.0</ele><time>2026-04-18T12:56:09.19Z</time></trkpt><trkpt lat="43.2972818" lon="10.7679856"><ele>188.0</ele><time>2026-04-18T12:56:10.2Z</time></trkpt><trkpt lat="43.2972111" lon="10.7680667"><ele>188.0</ele><time>2026-04-18T12:56:11.211Z</time></trkpt><trkpt lat="43.2971357" lon="10.768143"><ele>188.0</ele><time>2026-04-18T12:56:12.21Z</time></trkpt><trkpt lat="43.2970572" lon="10.7681992"><ele>188.0</ele><time>2026-04-18T12:56:13.199Z</time></trkpt><trkpt lat="43.2969693" lon="10.768256"><ele>190.4</ele><time>2026-04-18T12:56:14.21Z</time></trkpt><trkpt lat="43.2968751" lon="10.7683064"><ele>192.8</ele><time>2026-04-18T12:56:15.201Z</time></trkpt><trkpt lat="43.2967801" lon="10.7683586"><ele>195.2</ele><time>2026-04-18T12:56:16.202Z</time></trkpt><trkpt lat="43.2966756" lon="10.7683995"><ele>197.6</ele><time>2026-04-18T12:56:17.214Z</time></trkpt><trkpt lat="43.296572" lon="10.7684282"><ele>200.0</ele><time>2026-04-18T12:56:18.205Z</time></trkpt><trkpt lat="43.2964674" lon="10.768434"><ele>200.8</ele><time>2026-04-18T12:56:19.194Z</time></trkpt><trkpt lat="43.2963584" lon="10.7684285"><ele>201.6</ele><time>2026-04-18T12:56:20.2Z</time></trkpt><trkpt lat="43.2962599" lon="10.7684121"><ele>202.39999999999998</ele><time>2026-04-18T12:56:21.214Z</time></trkpt><trkpt lat="43.2961591" lon="10.7683912"><ele>203.2</ele><time>2026-04-18T12:56:22.194Z</time></trkpt><trkpt lat="43.2960659" lon="10.7683768"><ele>204.0</ele><time>2026-04-18T12:56:23.209Z</time></trkpt><trkpt lat="43.2959663" lon="10.7683646"><ele>204.0</ele><time>2026-04-18T12:56:24.199Z</time></trkpt><trkpt lat="43.2958669" lon="10.7683536"><ele>204.0</ele><time>2026-04-18T12:56:25.198Z</time></trkpt><trkpt lat="43.2957799" lon="10.7683544"><ele>204.0</ele><time>2026-04-18T12:56:26.2Z</time></trkpt><trkpt lat="43.2956936" lon="10.7683543"><ele>204.0</ele><time>2026-04-18T12:56:27.189Z</time></trkpt><trkpt lat="43.2956047" lon="10.7683721"><ele>204.0</ele><time>2026-04-18T12:56:28.201Z</time></trkpt><trkpt lat="43.2954986" lon="10.768374"><ele>205.0</ele><time>2026-04-18T12:56:29.206Z</time></trkpt><trkpt lat="43.2953907" lon="10.7683921"><ele>206.0</ele><time>2026-04-18T12:56:30.205Z</time></trkpt><trkpt lat="43.2952831" lon="10.7684137"><ele>207.0</ele><time>2026-04-18T12:56:31.202Z</time></trkpt><trkpt lat="43.2951763" lon="10.7684354"><ele>208.0</ele><time>2026-04-18T12:56:32.208Z</time></trkpt><trkpt lat="43.2950607" lon="10.7684581"><ele>209.0</ele><time>2026-04-18T12:56:33.201Z</time></trkpt><trkpt lat="43.2949486" lon="10.7684744"><ele>209.0</ele><time>2026-04-18T12:56:34.204Z</time></trkpt><trkpt lat="43.2948427" lon="10.7684701"><ele>209.0</ele><time>2026-04-18T12:56:35.204Z</time></trkpt><trkpt lat="43.2947356" lon="10.7684548"><ele>209.0</ele><time>2026-04-18T12:56:36.207Z</time></trkpt><trkpt lat="43.2946308" lon="10.7684299"><ele>209.0</ele><time>2026-04-18T12:56:37.202Z</time></trkpt><trkpt lat="43.2945311" lon="10.7683976"><ele>209.0</ele><time>2026-04-18T12:56:38.207Z</time></trkpt><trkpt lat="43.2944258" lon="10.76838"><ele>209.79999999999998</ele><time>2026-04-18T12:56:39.206Z</time></trkpt><trkpt lat="43.2943259" lon="10.768384"><ele>210.6</ele><time>2026-04-18T12:56:40.204Z</time></trkpt><trkpt lat="43.2942213" lon="10.7684016"><ele>211.4</ele><time>2026-04-18T12:56:41.198Z</time></trkpt><trkpt lat="43.2941069" lon="10.7684225"><ele>212.2</ele><time>2026-04-18T12:56:42.21Z</time></trkpt><trkpt lat="43.2939936" lon="10.7684486"><ele>213.0</ele><time>2026-04-18T12:56:43.201Z</time></trkpt><trkpt lat="43.2938732" lon="10.7684778"><ele>213.0</ele><time>2026-04-18T12:56:44.201Z</time></trkpt><trkpt lat="43.2937513" lon="10.7685086"><ele>213.0</ele><time>2026-04-18T12:56:45.191Z</time></trkpt><trkpt lat="43.2936178" lon="10.7685348"><ele>213.0</ele><time>2026-04-18T12:56:46.213Z</time></trkpt><trkpt lat="43.2934943" lon="10.7685564"><ele>213.0</ele><time>2026-04-18T12:56:47.194Z</time></trkpt><trkpt lat="43.293384" lon="10.7685725"><ele>211.8</ele><time>2026-04-18T12:56:48.209Z</time></trkpt><trkpt lat="43.2932775" lon="10.7685731"><ele>210.60000000000002</ele><time>2026-04-18T12:56:49.201Z</time></trkpt><trkpt lat="43.2931851" lon="10.7685513"><ele>209.39999999999998</ele><time>2026-04-18T12:56:50.198Z</time></trkpt><trkpt lat="43.2930755" lon="10.7685426"><ele>208.2</ele><time>2026-04-18T12:56:51.202Z</time></trkpt><trkpt lat="43.2929607" lon="10.7685229"><ele>207.0</ele><time>2026-04-18T12:56:52.193Z</time></trkpt><trkpt lat="43.2928426" lon="10.7684921"><ele>207.0</ele><time>2026-04-18T12:56:53.2Z</time></trkpt><trkpt lat="43.2927184" lon="10.7684566"><ele>207.0</ele><time>2026-04-18T12:56:54.2Z</time></trkpt><trkpt lat="43.2925933" lon="10.7684111"><ele>207.0</ele><time>2026-04-18T12:56:55.203Z</time></trkpt><trkpt lat="43.2924727" lon="10.76836"><ele>207.0</ele><time>2026-04-18T12:56:56.211Z</time></trkpt><trkpt lat="43.2923524" lon="10.7683026"><ele>207.0</ele><time>2026-04-18T12:56:57.204Z</time></trkpt><trkpt lat="43.2922319" lon="10.7682437"><ele>207.0</ele><time>2026-04-18T12:56:58.21Z</time></trkpt><trkpt lat="43.2921103" lon="10.7681949"><ele>207.0</ele><time>2026-04-18T12:56:59.202Z</time></trkpt><trkpt lat="43.2919822" lon="10.7681562"><ele>207.0</ele><time>2026-04-18T12:57:00.204Z</time></trkpt><trkpt lat="43.2918582" lon="10.7681198"><ele>207.0</ele><time>2026-04-18T12:57:01.205Z</time></trkpt><trkpt lat="43.2917339" lon="10.7680874"><ele>207.0</ele><time>2026-04-18T12:57:02.219Z</time></trkpt><trkpt lat="43.2916014" lon="10.7680712"><ele>207.0</ele><time>2026-04-18T12:57:03.205Z</time></trkpt><trkpt lat="43.2914746" lon="10.7680686"><ele>207.0</ele><time>2026-04-18T12:57:04.213Z</time></trkpt><trkpt lat="43.29134" lon="10.7680628"><ele>208.0</ele><time>2026-04-18T12:57:05.199Z</time></trkpt><trkpt lat="43.2912013" lon="10.7680568"><ele>209.0</ele><time>2026-04-18T12:57:06.2Z</time></trkpt><trkpt lat="43.2910731" lon="10.7680526"><ele>210.0</ele><time>2026-04-18T12:57:07.198Z</time></trkpt><trkpt lat="43.2909396" lon="10.7680529"><ele>211.0</ele><time>2026-04-18T12:57:08.205Z</time></trkpt><trkpt lat="43.2908131" lon="10.7680512"><ele>211.0</ele><time>2026-04-18T12:57:09.199Z</time></trkpt><trkpt lat="43.2906937" lon="10.7680562"><ele>211.0</ele><time>2026-04-18T12:57:10.213Z</time></trkpt><trkpt lat="43.2905742" lon="10.7680526"><ele>211.0</ele><time>2026-04-18T12:57:11.195Z</time></trkpt><trkpt lat="43.2904586" lon="10.7680502"><ele>211.0</ele><time>2026-04-18T12:57:12.202Z</time></trkpt><trkpt lat="43.290338" lon="10.7680448"><ele>213.5</ele><time>2026-04-18T12:57:13.203Z</time></trkpt><trkpt lat="43.2902212" lon="10.7680433"><ele>216.0</ele><time>2026-04-18T12:57:14.205Z</time></trkpt><trkpt lat="43.2900955" lon="10.7680349"><ele>218.5</ele><time>2026-04-18T12:57:15.19Z</time></trkpt><trkpt lat="43.2899731" lon="10.7680217"><ele>221.0</ele><time>2026-04-18T12:57:16.208Z</time></trkpt><trkpt lat="43.2898516" lon="10.7680011"><ele>223.5</ele><time>2026-04-18T12:57:17.208Z</time></trkpt><trkpt lat="43.2897282" lon="10.7679886"><ele>226.0</ele><time>2026-04-18T12:57:18.204Z</time></trkpt><trkpt lat="43.2896065" lon="10.7679798"><ele>228.5</ele><time>2026-04-18T12:57:19.196Z</time></trkpt><trkpt lat="43.2894793" lon="10.7679816"><ele>231.0</ele><time>2026-04-18T12:57:20.214Z</time></trkpt><trkpt lat="43.2893505" lon="10.7679867"><ele>231.0</ele><time>2026-04-18T12:57:21.207Z</time></trkpt><trkpt lat="43.2892298" lon="10.7679899"><ele>231.0</ele><time>2026-04-18T12:57:22.202Z</time></trkpt><trkpt lat="43.2891088" lon="10.7680014"><ele>231.0</ele><time>2026-04-18T12:57:23.195Z</time></trkpt><trkpt lat="43.2889881" lon="10.7680027"><ele>231.0</ele><time>2026-04-18T12:57:24.201Z</time></trkpt><trkpt lat="43.2888714" lon="10.7680065"><ele>232.5</ele><time>2026-04-18T12:57:25.189Z</time></trkpt><trkpt lat="43.2887558" lon="10.7679961"><ele>234.0</ele><time>2026-04-18T12:57:26.21Z</time></trkpt><trkpt lat="43.2886455" lon="10.7679457"><ele>235.5</ele><time>2026-04-18T12:57:27.192Z</time></trkpt><trkpt lat="43.2885409" lon="10.7678685"><ele>237.0</ele><time>2026-04-18T12:57:28.208Z</time></trkpt><trkpt lat="43.2884611" lon="10.7677568"><ele>239.8</ele><time>2026-04-18T12:57:29.198Z</time></trkpt><trkpt lat="43.2883878" lon="10.7676428"><ele>242.6</ele><time>2026-04-18T12:57:30.199Z</time></trkpt><trkpt lat="43.2883157" lon="10.7675432"><ele>245.40000000000003</ele><time>2026-04-18T12:57:31.196Z</time></trkpt><trkpt lat="43.2882526" lon="10.7674386"><ele>248.20000000000002</ele><time>2026-04-18T12:57:32.207Z</time></trkpt><trkpt lat="43.2882098" lon="10.7673088"><ele>251.0</ele><time>2026-04-18T12:57:33.201Z</time></trkpt><trkpt lat="43.2881671" lon="10.7671791"><ele>251.0</ele><time>2026-04-18T12:57:34.196Z</time></trkpt><trkpt lat="43.2881451" lon="10.7670248"><ele>251.00000000000003</ele><time>2026-04-18T12:57:35.206Z</time></trkpt><trkpt lat="43.2881132" lon="10.766872"><ele>251.00000000000003</ele><time>2026-04-18T12:57:36.209Z</time></trkpt><trkpt lat="43.2880806" lon="10.7667246"><ele>251.0</ele><time>2026-04-18T12:57:37.197Z</time></trkpt><trkpt lat="43.2880319" lon="10.7666004"><ele>251.0</ele><time>2026-04-18T12:57:38.197Z</time></trkpt><trkpt lat="43.2879612" lon="10.7664825"><ele>254.5</ele><time>2026-04-18T12:57:39.206Z</time></trkpt><trkpt lat="43.2878739" lon="10.7663732"><ele>258.0</ele><time>2026-04-18T12:57:40.21Z</time></trkpt><trkpt lat="43.2877834" lon="10.7662788"><ele>261.5</ele><time>2026-04-18T12:57:41.214Z</time></trkpt><trkpt lat="43.287683" lon="10.7661944"><ele>265.0</ele><time>2026-04-18T12:57:42.202Z</time></trkpt><trkpt lat="43.2875876" lon="10.7661221"><ele>265.0</ele><time>2026-04-18T12:57:43.193Z</time></trkpt><trkpt lat="43.2874714" lon="10.7660515"><ele>265.0</ele><time>2026-04-18T12:57:44.2Z</time></trkpt><trkpt lat="43.2873642" lon="10.7659683"><ele>265.0</ele><time>2026-04-18T12:57:45.201Z</time></trkpt><trkpt lat="43.2872491" lon="10.7658756"><ele>265.0</ele><time>2026-04-18T12:57:46.206Z</time></trkpt><trkpt lat="43.2871479" lon="10.7658102"><ele>268.5</ele><time>2026-04-18T12:57:47.218Z</time></trkpt><trkpt lat="43.287028" lon="10.7657785"><ele>272.0</ele><time>2026-04-18T12:57:48.222Z</time></trkpt><trkpt lat="43.2869222" lon="10.7657551"><ele>275.5</ele><time>2026-04-18T12:57:49.204Z</time></trkpt><trkpt lat="43.2868055" lon="10.7657268"><ele>279.0</ele><time>2026-04-18T12:57:50.206Z</time></trkpt><trkpt lat="43.2866877" lon="10.7656968"><ele>279.0</ele><time>2026-04-18T12:57:51.228Z</time></trkpt><trkpt lat="43.2865622" lon="10.7656682"><ele>279.0</ele><time>2026-04-18T12:57:52.207Z</time></trkpt><trkpt lat="43.2864358" lon="10.76564"><ele>279.0</ele><time>2026-04-18T12:57:53.206Z</time></trkpt><trkpt lat="43.2863172" lon="10.7656216"><ele>279.0</ele><time>2026-04-18T12:57:54.212Z</time></trkpt><trkpt lat="43.2862026" lon="10.7656069"><ele>279.75</ele><time>2026-04-18T12:57:55.209Z</time></trkpt><trkpt lat="43.2860925" lon="10.7655993"><ele>280.5</ele><time>2026-04-18T12:57:56.218Z</time></trkpt><trkpt lat="43.2859746" lon="10.7655937"><ele>281.25</ele><time>2026-04-18T12:57:57.21Z</time></trkpt><trkpt lat="43.2858482" lon="10.7655868"><ele>282.0</ele><time>2026-04-18T12:57:58.214Z</time></trkpt><trkpt lat="43.2857349" lon="10.7655564"><ele>282.0</ele><time>2026-04-18T12:57:59.215Z</time></trkpt><trkpt lat="43.2856041" lon="10.7655331"><ele>282.0</ele><time>2026-04-18T12:58:00.214Z</time></trkpt><trkpt lat="43.285471" lon="10.7654965"><ele>282.0</ele><time>2026-04-18T12:58:01.22Z</time></trkpt><trkpt lat="43.2853392" lon="10.7654613"><ele>282.0</ele><time>2026-04-18T12:58:02.215Z</time></trkpt><trkpt lat="43.2852093" lon="10.7654293"><ele>282.25</ele><time>2026-04-18T12:58:03.203Z</time></trkpt><trkpt lat="43.2850809" lon="10.7653973"><ele>282.5</ele><time>2026-04-18T12:58:04.205Z</time></trkpt><trkpt lat="43.2849549" lon="10.765368"><ele>282.75</ele><time>2026-04-18T12:58:05.201Z</time></trkpt><trkpt lat="43.2848311" lon="10.7653266"><ele>283.0</ele><time>2026-04-18T12:58:06.219Z</time></trkpt><trkpt lat="43.2847128" lon="10.7652931"><ele>285.5</ele><time>2026-04-18T12:58:07.224Z</time></trkpt><trkpt lat="43.2845998" lon="10.7652527"><ele>288.0</ele><time>2026-04-18T12:58:08.215Z</time></trkpt><trkpt lat="43.2844908" lon="10.765211"><ele>290.5</ele><time>2026-04-18T12:58:09.207Z</time></trkpt><trkpt lat="43.2843775" lon="10.765169"><ele>293.0</ele><time>2026-04-18T12:58:10.223Z</time></trkpt><trkpt lat="43.2842719" lon="10.7651248"><ele>295.4</ele><time>2026-04-18T12:58:11.198Z</time></trkpt><trkpt lat="43.284166" lon="10.7650916"><ele>297.8</ele><time>2026-04-18T12:58:12.219Z</time></trkpt><trkpt lat="43.2840621" lon="10.7650736"><ele>300.2</ele><time>2026-04-18T12:58:13.215Z</time></trkpt><trkpt lat="43.2839519" lon="10.7650682"><ele>302.6</ele><time>2026-04-18T12:58:14.218Z</time></trkpt><trkpt lat="43.2838489" lon="10.7650647"><ele>305.0</ele><time>2026-04-18T12:58:15.21Z</time></trkpt><trkpt lat="43.28375" lon="10.7650665"><ele>305.5</ele><time>2026-04-18T12:58:16.216Z</time></trkpt><trkpt lat="43.2836594" lon="10.765069"><ele>306.0</ele><time>2026-04-18T12:58:17.209Z</time></trkpt><trkpt lat="43.2835698" lon="10.7650658"><ele>306.5</ele><time>2026-04-18T12:58:18.216Z</time></trkpt><trkpt lat="43.2834851" lon="10.7650646"><ele>307.0</ele><time>2026-04-18T12:58:19.205Z</time></trkpt><trkpt lat="43.2834081" lon="10.7650961"><ele>307.5</ele><time>2026-04-18T12:58:20.199Z</time></trkpt><trkpt lat="43.2833423" lon="10.7651463"><ele>308.0</ele><time>2026-04-18T12:58:21.212Z</time></trkpt><trkpt lat="43.2832944" lon="10.7652186"><ele>308.0</ele><time>2026-04-18T12:58:22.209Z</time></trkpt><trkpt lat="43.2832613" lon="10.7653104"><ele>308.0</ele><time>2026-04-18T12:58:23.201Z</time></trkpt><trkpt lat="43.2832506" lon="10.765413"><ele>308.0</ele><time>2026-04-18T12:58:24.219Z</time></trkpt><trkpt lat="43.2832507" lon="10.765533"><ele>308.0</ele><time>2026-04-18T12:58:25.195Z</time></trkpt><trkpt lat="43.2832575" lon="10.765664"><ele>308.0</ele><time>2026-04-18T12:58:26.212Z</time></trkpt><trkpt lat="43.2832671" lon="10.7657891"><ele>308.0</ele><time>2026-04-18T12:58:27.206Z</time></trkpt><trkpt lat="43.2832764" lon="10.7659266"><ele>309.8</ele><time>2026-04-18T12:58:28.203Z</time></trkpt><trkpt lat="43.2832973" lon="10.7660722"><ele>311.6</ele><time>2026-04-18T12:58:29.209Z</time></trkpt><trkpt lat="43.283325" lon="10.7662136"><ele>313.4</ele><time>2026-04-18T12:58:30.205Z</time></trkpt><trkpt lat="43.2833659" lon="10.7663516"><ele>315.2</ele><time>2026-04-18T12:58:31.197Z</time></trkpt><trkpt lat="43.2834151" lon="10.7664806"><ele>317.0</ele><time>2026-04-18T12:58:32.204Z</time></trkpt><trkpt lat="43.2834699" lon="10.7666112"><ele>317.0</ele><time>2026-04-18T12:58:33.186Z</time></trkpt><trkpt lat="43.2835176" lon="10.7667393"><ele>317.0</ele><time>2026-04-18T12:58:34.207Z</time></trkpt><trkpt lat="43.2835475" lon="10.7668678"><ele>317.0</ele><time>2026-04-18T12:58:35.189Z</time></trkpt><trkpt lat="43.2835568" lon="10.7670076"><ele>317.0</ele><time>2026-04-18T12:58:36.205Z</time></trkpt><trkpt lat="43.2835453" lon="10.7671655"><ele>317.0</ele><time>2026-04-18T12:58:37.202Z</time></trkpt><trkpt lat="43.2835324" lon="10.7673129"><ele>317.0</ele><time>2026-04-18T12:58:38.204Z</time></trkpt><trkpt lat="43.2835126" lon="10.7674753"><ele>317.0</ele><time>2026-04-18T12:58:39.219Z</time></trkpt><trkpt lat="43.2834997" lon="10.7676499"><ele>317.0</ele><time>2026-04-18T12:58:40.208Z</time></trkpt><trkpt lat="43.2834781" lon="10.767828"><ele>317.0</ele><time>2026-04-18T12:58:41.202Z</time></trkpt><trkpt lat="43.2834512" lon="10.7679909"><ele>316.0</ele><time>2026-04-18T12:58:42.203Z</time></trkpt><trkpt lat="43.2834081" lon="10.7681389"><ele>315.0</ele><time>2026-04-18T12:58:43.206Z</time></trkpt><trkpt lat="43.2833297" lon="10.7682712"><ele>314.0</ele><time>2026-04-18T12:58:44.201Z</time></trkpt><trkpt lat="43.2832346" lon="10.7683831"><ele>313.0</ele><time>2026-04-18T12:58:45.205Z</time></trkpt><trkpt lat="43.2831291" lon="10.7684778"><ele>313.8</ele><time>2026-04-18T12:58:46.19Z</time></trkpt><trkpt lat="43.2830197" lon="10.7685443"><ele>314.6</ele><time>2026-04-18T12:58:47.196Z</time></trkpt><trkpt lat="43.2829081" lon="10.7685832"><ele>315.4</ele><time>2026-04-18T12:58:48.206Z</time></trkpt><trkpt lat="43.2827994" lon="10.7686011"><ele>316.2</ele><time>2026-04-18T12:58:49.207Z</time></trkpt><trkpt lat="43.2827024" lon="10.7686202"><ele>317.0</ele><time>2026-04-18T12:58:50.21Z</time></trkpt><trkpt lat="43.282597" lon="10.7686474"><ele>317.0</ele><time>2026-04-18T12:58:51.196Z</time></trkpt><trkpt lat="43.2824838" lon="10.7686917"><ele>317.0</ele><time>2026-04-18T12:58:52.219Z</time></trkpt><trkpt lat="43.2823881" lon="10.7687406"><ele>317.0</ele><time>2026-04-18T12:58:53.198Z</time></trkpt><trkpt lat="43.2823034" lon="10.7688071"><ele>317.0</ele><time>2026-04-18T12:58:54.202Z</time></trkpt><trkpt lat="43.2822203" lon="10.7688928"><ele>317.0</ele><time>2026-04-18T12:58:55.199Z</time></trkpt><trkpt lat="43.2821434" lon="10.7689905"><ele>317.8</ele><time>2026-04-18T12:58:56.209Z</time></trkpt><trkpt lat="43.2820652" lon="10.7690911"><ele>318.6</ele><time>2026-04-18T12:58:57.205Z</time></trkpt><trkpt lat="43.2819824" lon="10.7692023"><ele>319.40000000000003</ele><time>2026-04-18T12:58:58.203Z</time></trkpt><trkpt lat="43.281894" lon="10.7692999"><ele>320.2</ele><time>2026-04-18T12:58:59.202Z</time></trkpt><trkpt lat="43.2818033" lon="10.7693773"><ele>321.0</ele><time>2026-04-18T12:59:00.2Z</time></trkpt><trkpt lat="43.2817101" lon="10.7694462"><ele>321.0</ele><time>2026-04-18T12:59:01.204Z</time></trkpt><trkpt lat="43.2816071" lon="10.7694951"><ele>321.0</ele><time>2026-04-18T12:59:02.203Z</time></trkpt><trkpt lat="43.2815044" lon="10.7695175"><ele>321.0</ele><time>2026-04-18T12:59:03.202Z</time></trkpt><trkpt lat="43.2813851" lon="10.7695347"><ele>321.0</ele><time>2026-04-18T12:59:04.205Z</time></trkpt><trkpt lat="43.281269" lon="10.7695585"><ele>324.20000000000005</ele><time>2026-04-18T12:59:05.208Z</time></trkpt><trkpt lat="43.2811606" lon="10.769591"><ele>327.40000000000003</ele><time>2026-04-18T12:59:06.223Z</time></trkpt><trkpt lat="43.2810537" lon="10.7696455"><ele>330.6</ele><time>2026-04-18T12:59:07.199Z</time></trkpt><trkpt lat="43.2809532" lon="10.7697181"><ele>333.8</ele><time>2026-04-18T12:59:08.206Z</time></trkpt><trkpt lat="43.2808711" lon="10.769806"><ele>337.0</ele><time>2026-04-18T12:59:09.205Z</time></trkpt><trkpt lat="43.2808137" lon="10.7699122"><ele>337.0</ele><time>2026-04-18T12:59:10.211Z</time></trkpt><trkpt lat="43.2807685" lon="10.7700336"><ele>337.0</ele><time>2026-04-18T12:59:11.206Z</time></trkpt><trkpt lat="43.2807311" lon="10.7701588"><ele>337.0</ele><time>2026-04-18T12:59:12.202Z</time></trkpt><trkpt lat="43.2807055" lon="10.7702902"><ele>337.0</ele><time>2026-04-18T12:59:13.211Z</time></trkpt><trkpt lat="43.280696" lon="10.7704297"><ele>337.0</ele><time>2026-04-18T12:59:14.207Z</time></trkpt><trkpt lat="43.2807056" lon="10.7705862"><ele>336.25</ele><time>2026-04-18T12:59:15.196Z</time></trkpt><trkpt lat="43.2807208" lon="10.7707445"><ele>335.5</ele><time>2026-04-18T12:59:16.205Z</time></trkpt><trkpt lat="43.2807331" lon="10.7709128"><ele>334.75</ele><time>2026-04-18T12:59:17.204Z</time></trkpt><trkpt lat="43.2807352" lon="10.7710846"><ele>334.0</ele><time>2026-04-18T12:59:18.205Z</time></trkpt><trkpt lat="43.2807319" lon="10.7712405"><ele>334.0</ele><time>2026-04-18T12:59:19.198Z</time></trkpt><trkpt lat="43.2807278" lon="10.7713925"><ele>334.0</ele><time>2026-04-18T12:59:20.207Z</time></trkpt><trkpt lat="43.2807391" lon="10.7715509"><ele>334.0</ele><time>2026-04-18T12:59:21.199Z</time></trkpt><trkpt lat="43.2807574" lon="10.7717023"><ele>334.0</ele><time>2026-04-18T12:59:22.209Z</time></trkpt><trkpt lat="43.2808127" lon="10.7718322"><ele>334.0</ele><time>2026-04-18T12:59:23.208Z</time></trkpt><trkpt lat="43.2808836" lon="10.7719476"><ele>337.75</ele><time>2026-04-18T12:59:24.202Z</time></trkpt><trkpt lat="43.2809774" lon="10.7720326"><ele>341.5</ele><time>2026-04-18T12:59:25.208Z</time></trkpt><trkpt lat="43.2810742" lon="10.7721268"><ele>345.25</ele><time>2026-04-18T12:59:26.208Z</time></trkpt><trkpt lat="43.2811708" lon="10.7722272"><ele>349.0</ele><time>2026-04-18T12:59:27.207Z</time></trkpt><trkpt lat="43.2812523" lon="10.772337"><ele>349.0</ele><time>2026-04-18T12:59:28.208Z</time></trkpt><trkpt lat="43.2813231" lon="10.772447"><ele>349.0</ele><time>2026-04-18T12:59:29.201Z</time></trkpt><trkpt lat="43.2813702" lon="10.7725528"><ele>349.0</ele><time>2026-04-18T12:59:30.203Z</time></trkpt><trkpt lat="43.2814174" lon="10.772658"><ele>349.0</ele><time>2026-04-18T12:59:31.212Z</time></trkpt><trkpt lat="43.2814504" lon="10.7727734"><ele>349.0</ele><time>2026-04-18T12:59:32.211Z</time></trkpt><trkpt lat="43.2814726" lon="10.7728858"><ele>346.79999999999995</ele><time>2026-04-18T12:59:33.211Z</time></trkpt><trkpt lat="43.2814722" lon="10.7730003"><ele>344.59999999999997</ele><time>2026-04-18T12:59:34.205Z</time></trkpt><trkpt lat="43.2814555" lon="10.7731157"><ele>342.4</ele><time>2026-04-18T12:59:35.212Z</time></trkpt><trkpt lat="43.2814345" lon="10.7732391"><ele>340.2</ele><time>2026-04-18T12:59:36.205Z</time></trkpt><trkpt lat="43.2814099" lon="10.7733689"><ele>338.0</ele><time>2026-04-18T12:59:37.198Z</time></trkpt><trkpt lat="43.2814182" lon="10.7735012"><ele>339.2</ele><time>2026-04-18T12:59:38.196Z</time></trkpt><trkpt lat="43.2814558" lon="10.7736286"><ele>340.4</ele><time>2026-04-18T12:59:39.204Z</time></trkpt><trkpt lat="43.2815006" lon="10.7737432"><ele>341.59999999999997</ele><time>2026-04-18T12:59:40.201Z</time></trkpt><trkpt lat="43.2815293" lon="10.7738631"><ele>342.79999999999995</ele><time>2026-04-18T12:59:41.2Z</time></trkpt><trkpt lat="43.281548" lon="10.7739815"><ele>344.0</ele><time>2026-04-18T12:59:42.197Z</time></trkpt><trkpt lat="43.2815321" lon="10.774109"><ele>344.0</ele><time>2026-04-18T12:59:43.191Z</time></trkpt><trkpt lat="43.2815085" lon="10.7742384"><ele>344.0</ele><time>2026-04-18T12:59:44.205Z</time></trkpt><trkpt lat="43.2814749" lon="10.7743635"><ele>344.0</ele><time>2026-04-18T12:59:45.202Z</time></trkpt><trkpt lat="43.2814412" lon="10.7744928"><ele>344.0</ele><time>2026-04-18T12:59:46.203Z</time></trkpt><trkpt lat="43.2814036" lon="10.7746306"><ele>344.0</ele><time>2026-04-18T12:59:47.202Z</time></trkpt><trkpt lat="43.2813685" lon="10.7747603"><ele>349.2</ele><time>2026-04-18T12:59:48.207Z</time></trkpt><trkpt lat="43.2813382" lon="10.7748842"><ele>354.4</ele><time>2026-04-18T12:59:49.202Z</time></trkpt><trkpt lat="43.2813152" lon="10.7750028"><ele>359.6</ele><time>2026-04-18T12:59:50.197Z</time></trkpt><trkpt lat="43.2812816" lon="10.7751224"><ele>364.8</ele><time>2026-04-18T12:59:51.207Z</time></trkpt><trkpt lat="43.281246" lon="10.7752568"><ele>370.0</ele><time>2026-04-18T12:59:52.195Z</time></trkpt><trkpt lat="43.281216" lon="10.7753936"><ele>370.0</ele><time>2026-04-18T12:59:53.211Z</time></trkpt><trkpt lat="43.2811825" lon="10.7755141"><ele>370.0</ele><time>2026-04-18T12:59:54.19Z</time></trkpt><trkpt lat="43.2811478" lon="10.7756446"><ele>370.0</ele><time>2026-04-18T12:59:55.199Z</time></trkpt><trkpt lat="43.2811181" lon="10.775772"><ele>370.0</ele><time>2026-04-18T12:59:56.199Z</time></trkpt><trkpt lat="43.2811033" lon="10.7759078"><ele>370.0</ele><time>2026-04-18T12:59:57.19Z</time></trkpt><trkpt lat="43.2810929" lon="10.7760465"><ele>371.0</ele><time>2026-04-18T12:59:58.207Z</time></trkpt><trkpt lat="43.2810844" lon="10.776181"><ele>372.0</ele><time>2026-04-18T12:59:59.197Z</time></trkpt><trkpt lat="43.2810739" lon="10.776319"><ele>373.0</ele><time>2026-04-18T13:00:00.203Z</time></trkpt><trkpt lat="43.2810458" lon="10.7764617"><ele>374.0</ele><time>2026-04-18T13:00:01.186Z</time></trkpt><trkpt lat="43.2810209" lon="10.7766106"><ele>375.0</ele><time>2026-04-18T13:00:02.204Z</time></trkpt><trkpt lat="43.2809984" lon="10.7767588"><ele>377.25</ele><time>2026-04-18T13:00:03.209Z</time></trkpt><trkpt lat="43.2809702" lon="10.77691"><ele>379.5</ele><time>2026-04-18T13:00:04.197Z</time></trkpt><trkpt lat="43.2809548" lon="10.7770556"><ele>381.75</ele><time>2026-04-18T13:00:05.2Z</time></trkpt><trkpt lat="43.2809494" lon="10.7772123"><ele>384.0</ele><time>2026-04-18T13:00:06.197Z</time></trkpt><trkpt lat="43.2809507" lon="10.7773715"><ele>384.0</ele><time>2026-04-18T13:00:07.191Z</time></trkpt><trkpt lat="43.2809545" lon="10.7775244"><ele>384.0</ele><time>2026-04-18T13:00:08.193Z</time></trkpt><trkpt lat="43.280961" lon="10.7776738"><ele>384.0</ele><time>2026-04-18T13:00:09.207Z</time></trkpt><trkpt lat="43.2809908" lon="10.7778223"><ele>384.0</ele><time>2026-04-18T13:00:10.201Z</time></trkpt><trkpt lat="43.2810193" lon="10.7779621"><ele>384.0</ele><time>2026-04-18T13:00:11.197Z</time></trkpt><trkpt lat="43.2810414" lon="10.7781078"><ele>386.25</ele><time>2026-04-18T13:00:12.208Z</time></trkpt><trkpt lat="43.2810646" lon="10.7782682"><ele>388.5</ele><time>2026-04-18T13:00:13.196Z</time></trkpt><trkpt lat="43.2810912" lon="10.7784258"><ele>390.75</ele><time>2026-04-18T13:00:14.208Z</time></trkpt><trkpt lat="43.2811151" lon="10.7785802"><ele>393.0</ele><time>2026-04-18T13:00:15.202Z</time></trkpt><trkpt lat="43.2811346" lon="10.7787308"><ele>392.59999999999997</ele><time>2026-04-18T13:00:16.206Z</time></trkpt><trkpt lat="43.281152" lon="10.7788845"><ele>392.2</ele><time>2026-04-18T13:00:17.207Z</time></trkpt><trkpt lat="43.2811525" lon="10.7790265"><ele>391.8</ele><time>2026-04-18T13:00:18.201Z</time></trkpt><trkpt lat="43.281156" lon="10.7791821"><ele>391.4</ele><time>2026-04-18T13:00:19.193Z</time></trkpt><trkpt lat="43.2811649" lon="10.7793362"><ele>391.0</ele><time>2026-04-18T13:00:20.213Z</time></trkpt><trkpt lat="43.2811858" lon="10.7794919"><ele>391.0</ele><time>2026-04-18T13:00:21.197Z</time></trkpt><trkpt lat="43.281197" lon="10.7796271"><ele>391.0</ele><time>2026-04-18T13:00:22.194Z</time></trkpt><trkpt lat="43.2812205" lon="10.7797752"><ele>391.0</ele><time>2026-04-18T13:00:23.203Z</time></trkpt><trkpt lat="43.281247" lon="10.7799136"><ele>391.0</ele><time>2026-04-18T13:00:24.205Z</time></trkpt><trkpt lat="43.2812805" lon="10.780038"><ele>391.0</ele><time>2026-04-18T13:00:25.193Z</time></trkpt><trkpt lat="43.2813191" lon="10.780153"><ele>391.6666666666667</ele><time>2026-04-18T13:00:26.197Z</time></trkpt><trkpt lat="43.2813677" lon="10.7802512"><ele>392.33333333333337</ele><time>2026-04-18T13:00:27.188Z</time></trkpt><trkpt lat="43.2814177" lon="10.7803297"><ele>393.0</ele><time>2026-04-18T13:00:28.203Z</time></trkpt><trkpt lat="43.2814805" lon="10.7804017"><ele>393.66666666666663</ele><time>2026-04-18T13:00:29.19Z</time></trkpt><trkpt lat="43.2815392" lon="10.780453"><ele>394.3333333333333</ele><time>2026-04-18T13:00:30.215Z</time></trkpt><trkpt lat="43.2815899" lon="10.7805149"><ele>395.0</ele><time>2026-04-18T13:00:31.201Z</time></trkpt><trkpt lat="43.2816478" lon="10.7806652"><ele>394.99999999999994</ele><time>2026-04-18T13:00:33.206Z</time></trkpt><trkpt lat="43.2816896" lon="10.7807676"><ele>395.0</ele><time>2026-04-18T13:00:34.206Z</time></trkpt><trkpt lat="43.2817249" lon="10.7808737"><ele>395.0</ele><time>2026-04-18T13:00:35.199Z</time></trkpt><trkpt lat="43.2817597" lon="10.7809628"><ele>395.0</ele><time>2026-04-18T13:00:36.215Z</time></trkpt><trkpt lat="43.2818052" lon="10.7810464"><ele>394.99999999999994</ele><time>2026-04-18T13:00:38.212Z</time></trkpt><trkpt lat="43.2818717" lon="10.7811037"><ele>395.0</ele><time>2026-04-18T13:00:41.213Z</time></trkpt><trkpt lat="43.2819197" lon="10.7811815"><ele>394.66666666666663</ele><time>2026-04-18T13:00:44.204Z</time></trkpt><trkpt lat="43.2819682" lon="10.7812719"><ele>394.3333333333333</ele><time>2026-04-18T13:00:48.214Z</time></trkpt><trkpt lat="43.2820313" lon="10.7813277"><ele>394.0</ele><time>2026-04-18T13:00:52.205Z</time></trkpt><trkpt lat="43.282087" lon="10.78139"><ele>393.66666666666663</ele><time>2026-04-18T13:00:55.195Z</time></trkpt><trkpt lat="43.2821601" lon="10.7814055"><ele>393.3333333333333</ele><time>2026-04-18T13:00:58.212Z</time></trkpt><trkpt lat="43.2822324" lon="10.7813545"><ele>393.0</ele><time>2026-04-18T13:01:02.207Z</time></trkpt><trkpt lat="43.2822968" lon="10.7812512"><ele>393.8333333333333</ele><time>2026-04-18T13:01:05.211Z</time></trkpt><trkpt lat="43.2823334" lon="10.7811677"><ele>394.66666666666663</ele><time>2026-04-18T13:01:08.203Z</time></trkpt><trkpt lat="43.2823701" lon="10.781077"><ele>395.5</ele><time>2026-04-18T13:01:12.198Z</time></trkpt><trkpt lat="43.2824032" lon="10.7809921"><ele>396.3333333333333</ele><time>2026-04-18T13:01:15.2Z</time></trkpt><trkpt lat="43.2824645" lon="10.7809221"><ele>397.16666666666663</ele><time>2026-04-18T13:01:17.195Z</time></trkpt><trkpt lat="43.2825326" lon="10.7808646"><ele>398.0</ele><time>2026-04-18T13:01:19.207Z</time></trkpt><trkpt lat="43.2826464" lon="10.7808379"><ele>396.0</ele><time>2026-04-18T13:01:21.197Z</time></trkpt><trkpt lat="43.2827397" lon="10.7808276"><ele>394.0</ele><time>2026-04-18T13:01:23.196Z</time></trkpt><trkpt lat="43.2828351" lon="10.7808195"><ele>392.0</ele><time>2026-04-18T13:01:25.202Z</time></trkpt><trkpt lat="43.2829635" lon="10.780803"><ele>390.0</ele><time>2026-04-18T13:01:27.196Z</time></trkpt><trkpt lat="43.2830459" lon="10.7808044"><ele>388.0</ele><time>2026-04-18T13:01:28.204Z</time></trkpt><trkpt lat="43.2831664" lon="10.780799"><ele>386.00000000000006</ele><time>2026-04-18T13:01:29.196Z</time></trkpt><trkpt lat="43.2832747" lon="10.7807899"><ele>384.0</ele><time>2026-04-18T13:01:30.214Z</time></trkpt><trkpt lat="43.2833743" lon="10.7807812"><ele>382.0</ele><time>2026-04-18T13:01:31.206Z</time></trkpt><trkpt lat="43.2834591" lon="10.780772"><ele>380.0</ele><time>2026-04-18T13:01:32.195Z</time></trkpt><trkpt lat="43.2835319" lon="10.7807648"><ele>378.0</ele><time>2026-04-18T13:01:33.204Z</time></trkpt><trkpt lat="43.2836008" lon="10.7807697"><ele>376.0</ele><time>2026-04-18T13:01:34.202Z</time></trkpt><trkpt lat="43.2836655" lon="10.7807899"><ele>376.0</ele><time>2026-04-18T13:01:35.202Z</time></trkpt><trkpt lat="43.2837903" lon="10.7808526"><ele>376.0</ele><time>2026-04-18T13:01:37.195Z</time></trkpt><trkpt lat="43.2838653" lon="10.7808696"><ele>376.0</ele><time>2026-04-18T13:01:38.223Z</time></trkpt><trkpt lat="43.2839395" lon="10.7808683"><ele>376.0</ele><time>2026-04-18T13:01:39.202Z</time></trkpt><trkpt lat="43.2840158" lon="10.7808572"><ele>376.0</ele><time>2026-04-18T13:01:40.204Z</time></trkpt><trkpt lat="43.284107" lon="10.7808256"><ele>374.5</ele><time>2026-04-18T13:01:41.198Z</time></trkpt><trkpt lat="43.2841763" lon="10.78077"><ele>373.0</ele><time>2026-04-18T13:01:42.207Z</time></trkpt><trkpt lat="43.2842394" lon="10.7806978"><ele>371.5</ele><time>2026-04-18T13:01:43.203Z</time></trkpt><trkpt lat="43.2843006" lon="10.7806258"><ele>370.0</ele><time>2026-04-18T13:01:44.206Z</time></trkpt><trkpt lat="43.284375" lon="10.7805624"><ele>368.5</ele><time>2026-04-18T13:01:45.199Z</time></trkpt><trkpt lat="43.2844448" lon="10.7805257"><ele>367.0</ele><time>2026-04-18T13:01:46.21Z</time></trkpt><trkpt lat="43.2845157" lon="10.7805044"><ele>367.0</ele><time>2026-04-18T13:01:47.213Z</time></trkpt><trkpt lat="43.2846256" lon="10.7805364"><ele>367.0</ele><time>2026-04-18T13:01:49.194Z</time></trkpt><trkpt lat="43.2847131" lon="10.7806514"><ele>367.0</ele><time>2026-04-18T13:01:51.201Z</time></trkpt><trkpt lat="43.2847662" lon="10.7807326"><ele>367.0</ele><time>2026-04-18T13:01:52.211Z</time></trkpt><trkpt lat="43.284805" lon="10.7808231"><ele>367.0</ele><time>2026-04-18T13:01:53.202Z</time></trkpt><trkpt lat="43.284841" lon="10.7809122"><ele>367.16666666666663</ele><time>2026-04-18T13:01:54.207Z</time></trkpt><trkpt lat="43.2848708" lon="10.7810196"><ele>367.3333333333333</ele><time>2026-04-18T13:01:55.197Z</time></trkpt><trkpt lat="43.284903" lon="10.7811092"><ele>367.5</ele><time>2026-04-18T13:01:56.201Z</time></trkpt><trkpt lat="43.2849385" lon="10.7811963"><ele>367.6666666666667</ele><time>2026-04-18T13:01:57.202Z</time></trkpt><trkpt lat="43.2849706" lon="10.7812826"><ele>367.83333333333337</ele><time>2026-04-18T13:01:58.2Z</time></trkpt><trkpt lat="43.2850057" lon="10.7814133"><ele>368.0</ele><time>2026-04-18T13:02:00.189Z</time></trkpt><trkpt lat="43.285069" lon="10.7814209"><ele>368.0</ele><time>2026-04-18T13:02:03.187Z</time></trkpt><trkpt lat="43.2851689" lon="10.7813599"><ele>368.0</ele><time>2026-04-18T13:02:05.194Z</time></trkpt><trkpt lat="43.2852494" lon="10.7812545"><ele>368.0</ele><time>2026-04-18T13:02:07.207Z</time></trkpt><trkpt lat="43.2853035" lon="10.7812009"><ele>368.0</ele><time>2026-04-18T13:02:08.195Z</time></trkpt><trkpt lat="43.2853689" lon="10.7811437"><ele>368.0</ele><time>2026-04-18T13:02:09.201Z</time></trkpt><trkpt lat="43.285475" lon="10.7810524"><ele>366.0</ele><time>2026-04-18T13:02:11.204Z</time></trkpt><trkpt lat="43.2855408" lon="10.7809968"><ele>364.0</ele><time>2026-04-18T13:02:12.194Z</time></trkpt><trkpt lat="43.2856071" lon="10.7809451"><ele>362.0</ele><time>2026-04-18T13:02:13.201Z</time></trkpt><trkpt lat="43.2856779" lon="10.7808986"><ele>360.0</ele><time>2026-04-18T13:02:14.196Z</time></trkpt><trkpt lat="43.2857492" lon="10.7808511"><ele>358.0</ele><time>2026-04-18T13:02:15.19Z</time></trkpt><trkpt lat="43.2858333" lon="10.7808075"><ele>356.0</ele><time>2026-04-18T13:02:16.197Z</time></trkpt><trkpt lat="43.2859147" lon="10.7807656"><ele>356.0</ele><time>2026-04-18T13:02:17.198Z</time></trkpt><trkpt lat="43.2859941" lon="10.7807202"><ele>356.0</ele><time>2026-04-18T13:02:18.2Z</time></trkpt><trkpt lat="43.2860735" lon="10.7806779"><ele>356.0</ele><time>2026-04-18T13:02:19.19Z</time></trkpt><trkpt lat="43.2861463" lon="10.780646"><ele>356.0</ele><time>2026-04-18T13:02:20.196Z</time></trkpt><trkpt lat="43.2862212" lon="10.7805982"><ele>356.0</ele><time>2026-04-18T13:02:21.194Z</time></trkpt><trkpt lat="43.2862976" lon="10.7805427"><ele>356.0</ele><time>2026-04-18T13:02:22.204Z</time></trkpt><trkpt lat="43.2863548" lon="10.7804716"><ele>356.0</ele><time>2026-04-18T13:02:23.19Z</time></trkpt><trkpt lat="43.2864088" lon="10.7803813"><ele>356.0</ele><time>2026-04-18T13:02:24.198Z</time></trkpt><trkpt lat="43.2864594" lon="10.7802747"><ele>356.0</ele><time>2026-04-18T13:02:25.203Z</time></trkpt><trkpt lat="43.2865118" lon="10.7801597"><ele>356.0</ele><time>2026-04-18T13:02:26.193Z</time></trkpt><trkpt lat="43.2865574" lon="10.7800349"><ele>356.0</ele><time>2026-04-18T13:02:27.194Z</time></trkpt><trkpt lat="43.2866071" lon="10.7799195"><ele>352.6</ele><time>2026-04-18T13:02:28.191Z</time></trkpt><trkpt lat="43.2866537" lon="10.7798052"><ele>349.20000000000005</ele><time>2026-04-18T13:02:29.198Z</time></trkpt><trkpt lat="43.2867037" lon="10.7796966"><ele>345.79999999999995</ele><time>2026-04-18T13:02:30.206Z</time></trkpt><trkpt lat="43.2867487" lon="10.7795899"><ele>342.4</ele><time>2026-04-18T13:02:31.196Z</time></trkpt><trkpt lat="43.2868056" lon="10.7794799"><ele>339.0</ele><time>2026-04-18T13:02:32.193Z</time></trkpt><trkpt lat="43.2868608" lon="10.7793706"><ele>337.3333333333333</ele><time>2026-04-18T13:02:33.206Z</time></trkpt><trkpt lat="43.2869037" lon="10.7792568"><ele>335.6666666666667</ele><time>2026-04-18T13:02:34.21Z</time></trkpt><trkpt lat="43.2869513" lon="10.7791496"><ele>334.0</ele><time>2026-04-18T13:02:35.192Z</time></trkpt><trkpt lat="43.2869923" lon="10.7790439"><ele>332.33333333333337</ele><time>2026-04-18T13:02:36.215Z</time></trkpt><trkpt lat="43.2870372" lon="10.7789479"><ele>330.6666666666667</ele><time>2026-04-18T13:02:37.207Z</time></trkpt><trkpt lat="43.287076" lon="10.778847"><ele>329.0</ele><time>2026-04-18T13:02:38.2Z</time></trkpt><trkpt lat="43.2871003" lon="10.7787526"><ele>329.0</ele><time>2026-04-18T13:02:39.202Z</time></trkpt><trkpt lat="43.2871285" lon="10.7786594"><ele>329.0</ele><time>2026-04-18T13:02:40.2Z</time></trkpt><trkpt lat="43.2871572" lon="10.7785545"><ele>329.0</ele><time>2026-04-18T13:02:41.199Z</time></trkpt><trkpt lat="43.2871805" lon="10.7784453"><ele>329.0</ele><time>2026-04-18T13:02:42.212Z</time></trkpt><trkpt lat="43.2871865" lon="10.7783357"><ele>329.0</ele><time>2026-04-18T13:02:43.198Z</time></trkpt><trkpt lat="43.287201" lon="10.7782203"><ele>329.0</ele><time>2026-04-18T13:02:44.205Z</time></trkpt><trkpt lat="43.2872139" lon="10.7781123"><ele>326.8</ele><time>2026-04-18T13:02:45.206Z</time></trkpt><trkpt lat="43.2872342" lon="10.7779476"><ele>324.59999999999997</ele><time>2026-04-18T13:02:47.194Z</time></trkpt><trkpt lat="43.2872647" lon="10.7778119"><ele>322.4</ele><time>2026-04-18T13:02:49.196Z</time></trkpt><trkpt lat="43.2872896" lon="10.777677"><ele>320.2</ele><time>2026-04-18T13:02:51.206Z</time></trkpt><trkpt lat="43.287329" lon="10.7775774"><ele>318.0</ele><time>2026-04-18T13:02:53.197Z</time></trkpt><trkpt lat="43.2874054" lon="10.777498"><ele>317.4</ele><time>2026-04-18T13:02:55.2Z</time></trkpt><trkpt lat="43.2874968" lon="10.7774596"><ele>316.8</ele><time>2026-04-18T13:02:57.206Z</time></trkpt><trkpt lat="43.2875948" lon="10.777506"><ele>316.2</ele><time>2026-04-18T13:02:59.214Z</time></trkpt><trkpt lat="43.2877009" lon="10.7775932"><ele>315.6</ele><time>2026-04-18T13:03:01.2Z</time></trkpt><trkpt lat="43.2877906" lon="10.7776953"><ele>315.0</ele><time>2026-04-18T13:03:03.201Z</time></trkpt><trkpt lat="43.2878415" lon="10.7777481"><ele>315.0</ele><time>2026-04-18T13:03:04.193Z</time></trkpt><trkpt lat="43.2878947" lon="10.7778007"><ele>315.0</ele><time>2026-04-18T13:03:05.201Z</time></trkpt><trkpt lat="43.287984" lon="10.7778797"><ele>315.0</ele><time>2026-04-18T13:03:07.198Z</time></trkpt><trkpt lat="43.2880466" lon="10.7779108"><ele>315.0</ele><time>2026-04-18T13:03:09.193Z</time></trkpt><trkpt lat="43.2881238" lon="10.7779208"><ele>315.0</ele><time>2026-04-18T13:03:12.208Z</time></trkpt><trkpt lat="43.2882155" lon="10.7779377"><ele>315.0</ele><time>2026-04-18T13:03:15.209Z</time></trkpt><trkpt lat="43.2882996" lon="10.7779638"><ele>313.3333333333333</ele><time>2026-04-18T13:03:18.197Z</time></trkpt><trkpt lat="43.2883948" lon="10.7780178"><ele>311.6666666666667</ele><time>2026-04-18T13:03:20.212Z</time></trkpt><trkpt lat="43.2885085" lon="10.7780837"><ele>310.0</ele><time>2026-04-18T13:03:22.188Z</time></trkpt><trkpt lat="43.2885754" lon="10.7781116"><ele>308.33333333333337</ele><time>2026-04-18T13:03:23.197Z</time></trkpt><trkpt lat="43.2886444" lon="10.7781441"><ele>306.6666666666667</ele><time>2026-04-18T13:03:24.189Z</time></trkpt><trkpt lat="43.2887207" lon="10.7781735"><ele>305.0</ele><time>2026-04-18T13:03:25.205Z</time></trkpt><trkpt lat="43.2887976" lon="10.778204"><ele>305.0</ele><time>2026-04-18T13:03:26.184Z</time></trkpt><trkpt lat="43.2888807" lon="10.778236"><ele>305.0</ele><time>2026-04-18T13:03:27.192Z</time></trkpt><trkpt lat="43.2889505" lon="10.7782726"><ele>305.0</ele><time>2026-04-18T13:03:28.197Z</time></trkpt><trkpt lat="43.2890099" lon="10.7783177"><ele>305.0</ele><time>2026-04-18T13:03:29.198Z</time></trkpt><trkpt lat="43.2890705" lon="10.778392"><ele>305.0</ele><time>2026-04-18T13:03:30.202Z</time></trkpt><trkpt lat="43.289128" lon="10.7784728"><ele>305.0</ele><time>2026-04-18T13:03:31.198Z</time></trkpt><trkpt lat="43.2891962" lon="10.7785694"><ele>306.4</ele><time>2026-04-18T13:03:32.2Z</time></trkpt><trkpt lat="43.2892557" lon="10.7786431"><ele>307.8</ele><time>2026-04-18T13:03:33.199Z</time></trkpt><trkpt lat="43.2893115" lon="10.7787057"><ele>309.2</ele><time>2026-04-18T13:03:34.197Z</time></trkpt><trkpt lat="43.2894244" lon="10.77875"><ele>310.6</ele><time>2026-04-18T13:03:36.194Z</time></trkpt><trkpt lat="43.2895604" lon="10.7787485"><ele>312.0</ele><time>2026-04-18T13:03:38.192Z</time></trkpt><trkpt lat="43.2896523" lon="10.7787572"><ele>312.0</ele><time>2026-04-18T13:03:39.203Z</time></trkpt><trkpt lat="43.2897422" lon="10.7787759"><ele>312.0</ele><time>2026-04-18T13:03:40.201Z</time></trkpt><trkpt lat="43.2898352" lon="10.7787965"><ele>312.0</ele><time>2026-04-18T13:03:41.197Z</time></trkpt><trkpt lat="43.2899254" lon="10.7788199"><ele>312.0</ele><time>2026-04-18T13:03:42.202Z</time></trkpt><trkpt lat="43.2900102" lon="10.778865"><ele>312.0</ele><time>2026-04-18T13:03:43.187Z</time></trkpt><trkpt lat="43.2900877" lon="10.7789458"><ele>311.2</ele><time>2026-04-18T13:03:44.2Z</time></trkpt><trkpt lat="43.2901649" lon="10.7790282"><ele>310.4</ele><time>2026-04-18T13:03:45.196Z</time></trkpt><trkpt lat="43.2902451" lon="10.7791202"><ele>309.6</ele><time>2026-04-18T13:03:46.203Z</time></trkpt><trkpt lat="43.2903028" lon="10.7792183"><ele>308.8</ele><time>2026-04-18T13:03:47.205Z</time></trkpt><trkpt lat="43.2903691" lon="10.7793106"><ele>308.0</ele><time>2026-04-18T13:03:48.197Z</time></trkpt><trkpt lat="43.2904334" lon="10.7794051"><ele>307.83333333333337</ele><time>2026-04-18T13:03:49.208Z</time></trkpt><trkpt lat="43.2904924" lon="10.7794938"><ele>307.6666666666667</ele><time>2026-04-18T13:03:50.202Z</time></trkpt><trkpt lat="43.2905617" lon="10.7795798"><ele>307.5</ele><time>2026-04-18T13:03:51.205Z</time></trkpt><trkpt lat="43.2906278" lon="10.7796648"><ele>307.3333333333333</ele><time>2026-04-18T13:03:52.206Z</time></trkpt><trkpt lat="43.2906797" lon="10.779762"><ele>307.16666666666663</ele><time>2026-04-18T13:03:53.213Z</time></trkpt><trkpt lat="43.2907278" lon="10.7798434"><ele>307.0</ele><time>2026-04-18T13:03:54.2Z</time></trkpt><trkpt lat="43.2907687" lon="10.7799199"><ele>307.0</ele><time>2026-04-18T13:03:55.19Z</time></trkpt><trkpt lat="43.2908199" lon="10.7799922"><ele>307.0</ele><time>2026-04-18T13:03:56.204Z</time></trkpt><trkpt lat="43.2908824" lon="10.7800377"><ele>307.0</ele><time>2026-04-18T13:03:57.201Z</time></trkpt><trkpt lat="43.2909922" lon="10.7801023"><ele>307.0</ele><time>2026-04-18T13:03:59.194Z</time></trkpt><trkpt lat="43.291098" lon="10.7801751"><ele>307.0</ele><time>2026-04-18T13:04:01.203Z</time></trkpt><trkpt lat="43.2911933" lon="10.7802553"><ele>304.4</ele><time>2026-04-18T13:04:03.212Z</time></trkpt><trkpt lat="43.2912868" lon="10.7802832"><ele>301.79999999999995</ele><time>2026-04-18T13:04:05.202Z</time></trkpt><trkpt lat="43.2913966" lon="10.7802637"><ele>299.2</ele><time>2026-04-18T13:04:07.215Z</time></trkpt><trkpt lat="43.2914594" lon="10.7802441"><ele>296.59999999999997</ele><time>2026-04-18T13:04:08.203Z</time></trkpt><trkpt lat="43.2915651" lon="10.780208"><ele>294.0</ele><time>2026-04-18T13:04:10.215Z</time></trkpt><trkpt lat="43.2916668" lon="10.7802812"><ele>294.0</ele><time>2026-04-18T13:04:12.201Z</time></trkpt><trkpt lat="43.2917087" lon="10.7803512"><ele>294.0</ele><time>2026-04-18T13:04:13.198Z</time></trkpt><trkpt lat="43.2917608" lon="10.7804191"><ele>294.0</ele><time>2026-04-18T13:04:14.204Z</time></trkpt><trkpt lat="43.291804" lon="10.7805013"><ele>294.0</ele><time>2026-04-18T13:04:15.201Z</time></trkpt><trkpt lat="43.2918378" lon="10.7806231"><ele>294.0</ele><time>2026-04-18T13:04:16.205Z</time></trkpt><trkpt lat="43.2918794" lon="10.7807517"><ele>294.0</ele><time>2026-04-18T13:04:17.192Z</time></trkpt><trkpt lat="43.2919115" lon="10.7808791"><ele>294.0</ele><time>2026-04-18T13:04:18.193Z</time></trkpt><trkpt lat="43.2919324" lon="10.7810079"><ele>294.0</ele><time>2026-04-18T13:04:19.198Z</time></trkpt><trkpt lat="43.2919499" lon="10.7811367"><ele>294.0</ele><time>2026-04-18T13:04:20.202Z</time></trkpt><trkpt lat="43.29196" lon="10.7812529"><ele>294.0</ele><time>2026-04-18T13:04:21.205Z</time></trkpt><trkpt lat="43.2919622" lon="10.7813675"><ele>294.0</ele><time>2026-04-18T13:04:22.203Z</time></trkpt><trkpt lat="43.291959" lon="10.7814714"><ele>294.0</ele><time>2026-04-18T13:04:23.205Z</time></trkpt><trkpt lat="43.2919683" lon="10.7815762"><ele>294.6666666666667</ele><time>2026-04-18T13:04:24.198Z</time></trkpt><trkpt lat="43.2919768" lon="10.7816756"><ele>295.3333333333333</ele><time>2026-04-18T13:04:25.204Z</time></trkpt><trkpt lat="43.2920059" lon="10.7817725"><ele>296.0</ele><time>2026-04-18T13:04:26.195Z</time></trkpt><trkpt lat="43.2920343" lon="10.7818638"><ele>296.66666666666663</ele><time>2026-04-18T13:04:27.194Z</time></trkpt><trkpt lat="43.2920672" lon="10.7819759"><ele>297.3333333333333</ele><time>2026-04-18T13:04:28.206Z</time></trkpt><trkpt lat="43.2920936" lon="10.7820936"><ele>298.0</ele><time>2026-04-18T13:04:29.192Z</time></trkpt><trkpt lat="43.2920886" lon="10.7821963"><ele>298.5</ele><time>2026-04-18T13:04:30.197Z</time></trkpt><trkpt lat="43.2920705" lon="10.7823127"><ele>299.0</ele><time>2026-04-18T13:04:31.197Z</time></trkpt><trkpt lat="43.2920396" lon="10.7824353"><ele>299.5</ele><time>2026-04-18T13:04:32.196Z</time></trkpt><trkpt lat="43.292004" lon="10.78256"><ele>300.0</ele><time>2026-04-18T13:04:33.204Z</time></trkpt><trkpt lat="43.2919709" lon="10.7826723"><ele>300.5</ele><time>2026-04-18T13:04:34.216Z</time></trkpt><trkpt lat="43.2919276" lon="10.7827635"><ele>301.0</ele><time>2026-04-18T13:04:35.21Z</time></trkpt><trkpt lat="43.291881" lon="10.7828496"><ele>300.85714285714283</ele><time>2026-04-18T13:04:36.198Z</time></trkpt><trkpt lat="43.291834" lon="10.7829349"><ele>300.7142857142857</ele><time>2026-04-18T13:04:37.195Z</time></trkpt><trkpt lat="43.2918032" lon="10.7830219"><ele>300.57142857142856</ele><time>2026-04-18T13:04:38.214Z</time></trkpt><trkpt lat="43.2917934" lon="10.7831075"><ele>300.42857142857144</ele><time>2026-04-18T13:04:39.201Z</time></trkpt><trkpt lat="43.2918015" lon="10.783199"><ele>300.2857142857143</ele><time>2026-04-18T13:04:40.21Z</time></trkpt><trkpt lat="43.2918043" lon="10.7833054"><ele>300.1428571428571</ele><time>2026-04-18T13:04:41.191Z</time></trkpt><trkpt lat="43.2918197" lon="10.7834308"><ele>300.0</ele><time>2026-04-18T13:04:42.198Z</time></trkpt><trkpt lat="43.2918332" lon="10.7835585"><ele>300.0</ele><time>2026-04-18T13:04:43.195Z</time></trkpt><trkpt lat="43.2918538" lon="10.7836819"><ele>300.0</ele><time>2026-04-18T13:04:44.201Z</time></trkpt><trkpt lat="43.2918722" lon="10.7837816"><ele>300.0</ele><time>2026-04-18T13:04:45.206Z</time></trkpt><trkpt lat="43.2918797" lon="10.7838679"><ele>300.0</ele><time>2026-04-18T13:04:46.216Z</time></trkpt><trkpt lat="43.2918411" lon="10.7840118"><ele>300.0</ele><time>2026-04-18T13:04:48.204Z</time></trkpt><trkpt lat="43.2917871" lon="10.7841255"><ele>300.0</ele><time>2026-04-18T13:04:50.196Z</time></trkpt><trkpt lat="43.2917603" lon="10.7842529"><ele>300.0</ele><time>2026-04-18T13:04:52.209Z</time></trkpt><trkpt lat="43.2917875" lon="10.784336"><ele>300.0</ele><time>2026-04-18T13:04:53.207Z</time></trkpt><trkpt lat="43.2918523" lon="10.7844459"><ele>300.0</ele><time>2026-04-18T13:04:54.206Z</time></trkpt><trkpt lat="43.2919569" lon="10.7845368"><ele>300.0</ele><time>2026-04-18T13:04:55.195Z</time></trkpt><trkpt lat="43.2920354" lon="10.7845992"><ele>300.0</ele><time>2026-04-18T13:04:56.205Z</time></trkpt><trkpt lat="43.2921236" lon="10.784664"><ele>297.8</ele><time>2026-04-18T13:04:57.197Z</time></trkpt><trkpt lat="43.2922225" lon="10.7847174"><ele>295.6</ele><time>2026-04-18T13:04:58.207Z</time></trkpt><trkpt lat="43.2923107" lon="10.784758"><ele>293.4</ele><time>2026-04-18T13:04:59.203Z</time></trkpt><trkpt lat="43.2924029" lon="10.7847935"><ele>291.2</ele><time>2026-04-18T13:05:00.222Z</time></trkpt><trkpt lat="43.2924873" lon="10.7848063"><ele>289.0</ele><time>2026-04-18T13:05:01.214Z</time></trkpt><trkpt lat="43.2925682" lon="10.7848306"><ele>287.66666666666663</ele><time>2026-04-18T13:05:02.211Z</time></trkpt><trkpt lat="43.2926464" lon="10.7848434"><ele>286.3333333333333</ele><time>2026-04-18T13:05:03.2Z</time></trkpt><trkpt lat="43.2927181" lon="10.7848587"><ele>285.0</ele><time>2026-04-18T13:05:04.249Z</time></trkpt><trkpt lat="43.2928106" lon="10.7848824"><ele>283.6666666666667</ele><time>2026-04-18T13:05:06.205Z</time></trkpt><trkpt lat="43.2928897" lon="10.7849355"><ele>282.33333333333337</ele><time>2026-04-18T13:05:08.208Z</time></trkpt><trkpt lat="43.2929717" lon="10.7850091"><ele>281.0</ele><time>2026-04-18T13:05:10.238Z</time></trkpt><trkpt lat="43.2930084" lon="10.7851008"><ele>280.1666666666667</ele><time>2026-04-18T13:05:12.209Z</time></trkpt><trkpt lat="43.2930228" lon="10.7852021"><ele>279.33333333333337</ele><time>2026-04-18T13:05:15.215Z</time></trkpt><trkpt lat="43.2930325" lon="10.7853173"><ele>278.5</ele><time>2026-04-18T13:05:29.194Z</time></trkpt><trkpt lat="43.2930459" lon="10.785422"><ele>277.6666666666667</ele><time>2026-04-18T13:05:31.199Z</time></trkpt><trkpt lat="43.2930588" lon="10.7855369"><ele>276.8333333333333</ele><time>2026-04-18T13:05:33.204Z</time></trkpt><trkpt lat="43.2930672" lon="10.7856575"><ele>276.0</ele><time>2026-04-18T13:05:35.206Z</time></trkpt><trkpt lat="43.2930739" lon="10.7857768"><ele>276.0</ele><time>2026-04-18T13:05:37.203Z</time></trkpt><trkpt lat="43.2930716" lon="10.7858817"><ele>276.0</ele><time>2026-04-18T13:05:39.202Z</time></trkpt><trkpt lat="43.2930778" lon="10.7859738"><ele>276.0</ele><time>2026-04-18T13:05:41.201Z</time></trkpt><trkpt lat="43.2930954" lon="10.7860756"><ele>276.0</ele><time>2026-04-18T13:05:43.2Z</time></trkpt><trkpt lat="43.2931305" lon="10.7861881"><ele>276.0</ele><time>2026-04-18T13:05:45.202Z</time></trkpt><trkpt lat="43.2931925" lon="10.7862998"><ele>276.0</ele><time>2026-04-18T13:05:47.198Z</time></trkpt><trkpt lat="43.2932381" lon="10.786364"><ele>272.8333333333333</ele><time>2026-04-18T13:05:48.199Z</time></trkpt><trkpt lat="43.2932861" lon="10.7864358"><ele>269.6666666666667</ele><time>2026-04-18T13:05:49.204Z</time></trkpt><trkpt lat="43.2933297" lon="10.786517"><ele>266.5</ele><time>2026-04-18T13:05:50.2Z</time></trkpt><trkpt lat="43.2933775" lon="10.7865947"><ele>263.33333333333337</ele><time>2026-04-18T13:05:51.199Z</time></trkpt><trkpt lat="43.2934291" lon="10.7866699"><ele>260.1666666666667</ele><time>2026-04-18T13:05:52.211Z</time></trkpt><trkpt lat="43.2934995" lon="10.7867291"><ele>257.0</ele><time>2026-04-18T13:05:53.207Z</time></trkpt><trkpt lat="43.293568" lon="10.7867889"><ele>256.0</ele><time>2026-04-18T13:05:54.197Z</time></trkpt><trkpt lat="43.2936326" lon="10.7868454"><ele>255.0</ele><time>2026-04-18T13:05:55.194Z</time></trkpt><trkpt lat="43.2936928" lon="10.786907"><ele>254.0</ele><time>2026-04-18T13:05:56.215Z</time></trkpt><trkpt lat="43.2937921" lon="10.7869857"><ele>253.0</ele><time>2026-04-18T13:05:58.21Z</time></trkpt><trkpt lat="43.293887" lon="10.787061"><ele>252.0</ele><time>2026-04-18T13:06:00.211Z</time></trkpt><trkpt lat="43.2939874" lon="10.7871418"><ele>252.0</ele><time>2026-04-18T13:06:02.209Z</time></trkpt><trkpt lat="43.294061" lon="10.7872147"><ele>252.0</ele><time>2026-04-18T13:06:04.195Z</time></trkpt><trkpt lat="43.2940892" lon="10.7872921"><ele>252.0</ele><time>2026-04-18T13:06:06.222Z</time></trkpt><trkpt lat="43.2940667" lon="10.7873733"><ele>252.0</ele><time>2026-04-18T13:06:08.197Z</time></trkpt><trkpt lat="43.2940018" lon="10.787428"><ele>252.0</ele><time>2026-04-18T13:06:10.209Z</time></trkpt><trkpt lat="43.293912" lon="10.7875035"><ele>252.0</ele><time>2026-04-18T13:06:12.198Z</time></trkpt><trkpt lat="43.2938173" lon="10.787599"><ele>252.0</ele><time>2026-04-18T13:06:14.204Z</time></trkpt><trkpt lat="43.2937633" lon="10.7876559"><ele>252.0</ele><time>2026-04-18T13:06:15.199Z</time></trkpt><trkpt lat="43.2937028" lon="10.7877224"><ele>252.0</ele><time>2026-04-18T13:06:16.201Z</time></trkpt><trkpt lat="43.2936476" lon="10.7877861"><ele>252.0</ele><time>2026-04-18T13:06:17.199Z</time></trkpt><trkpt lat="43.2935937" lon="10.7878675"><ele>252.0</ele><time>2026-04-18T13:06:18.202Z</time></trkpt><trkpt lat="43.2935368" lon="10.7879504"><ele>252.0</ele><time>2026-04-18T13:06:19.188Z</time></trkpt><trkpt lat="43.2934877" lon="10.78804"><ele>251.5</ele><time>2026-04-18T13:06:20.207Z</time></trkpt><trkpt lat="43.2934451" lon="10.7881228"><ele>251.0</ele><time>2026-04-18T13:06:21.191Z</time></trkpt><trkpt lat="43.2934005" lon="10.7882581"><ele>250.5</ele><time>2026-04-18T13:06:23.204Z</time></trkpt><trkpt lat="43.293362" lon="10.7883606"><ele>250.0</ele><time>2026-04-18T13:06:25.202Z</time></trkpt><trkpt lat="43.2933262" lon="10.7884543"><ele>249.5</ele><time>2026-04-18T13:06:27.216Z</time></trkpt><trkpt lat="43.2932803" lon="10.7885491"><ele>249.0</ele><time>2026-04-18T13:06:29.201Z</time></trkpt><trkpt lat="43.2932306" lon="10.7886437"><ele>248.39999999999998</ele><time>2026-04-18T13:06:31.199Z</time></trkpt><trkpt lat="43.2931873" lon="10.7887464"><ele>247.79999999999998</ele><time>2026-04-18T13:06:33.197Z</time></trkpt><trkpt lat="43.293147" lon="10.7888622"><ele>247.20000000000002</ele><time>2026-04-18T13:06:35.195Z</time></trkpt><trkpt lat="43.2931008" lon="10.789018"><ele>246.60000000000002</ele><time>2026-04-18T13:06:37.207Z</time></trkpt><trkpt lat="43.2930769" lon="10.7891112"><ele>246.0</ele><time>2026-04-18T13:06:38.199Z</time></trkpt><trkpt lat="43.2930502" lon="10.789208"><ele>248.83333333333334</ele><time>2026-04-18T13:06:39.201Z</time></trkpt><trkpt lat="43.2930181" lon="10.7893029"><ele>251.66666666666669</ele><time>2026-04-18T13:06:40.21Z</time></trkpt><trkpt lat="43.2929947" lon="10.7894132"><ele>254.5</ele><time>2026-04-18T13:06:41.196Z</time></trkpt><trkpt lat="43.292969" lon="10.7895207"><ele>257.33333333333337</ele><time>2026-04-18T13:06:42.196Z</time></trkpt><trkpt lat="43.2929382" lon="10.7896194"><ele>260.1666666666667</ele><time>2026-04-18T13:06:43.185Z</time></trkpt><trkpt lat="43.2929006" lon="10.7897052"><ele>263.0</ele><time>2026-04-18T13:06:44.203Z</time></trkpt><trkpt lat="43.292848" lon="10.7897789"><ele>263.0</ele><time>2026-04-18T13:06:45.201Z</time></trkpt><trkpt lat="43.2927803" lon="10.7898298"><ele>263.0</ele><time>2026-04-18T13:06:46.2Z</time></trkpt><trkpt lat="43.2927208" lon="10.7898741"><ele>263.0</ele><time>2026-04-18T13:06:47.195Z</time></trkpt><trkpt lat="43.2926626" lon="10.7899142"><ele>263.0</ele><time>2026-04-18T13:06:48.204Z</time></trkpt><trkpt lat="43.2926067" lon="10.789956"><ele>263.0</ele><time>2026-04-18T13:06:49.205Z</time></trkpt><trkpt lat="43.2925561" lon="10.7900094"><ele>263.0</ele><time>2026-04-18T13:06:50.203Z</time></trkpt><trkpt lat="43.2924687" lon="10.7901172"><ele>261.25</ele><time>2026-04-18T13:06:52.2Z</time></trkpt><trkpt lat="43.2923871" lon="10.790226"><ele>259.5</ele><time>2026-04-18T13:06:54.197Z</time></trkpt><trkpt lat="43.2922835" lon="10.7903255"><ele>257.75</ele><time>2026-04-18T13:06:56.191Z</time></trkpt><trkpt lat="43.2921891" lon="10.7903961"><ele>256.0</ele><time>2026-04-18T13:06:58.203Z</time></trkpt><trkpt lat="43.2921203" lon="10.7905125"><ele>259.66666666666663</ele><time>2026-04-18T13:07:00.208Z</time></trkpt><trkpt lat="43.2921115" lon="10.7906792"><ele>263.3333333333333</ele><time>2026-04-18T13:07:02.204Z</time></trkpt><trkpt lat="43.2921235" lon="10.7907766"><ele>267.0</ele><time>2026-04-18T13:07:03.195Z</time></trkpt><trkpt lat="43.2921432" lon="10.79088"><ele>270.6666666666667</ele><time>2026-04-18T13:07:04.189Z</time></trkpt><trkpt lat="43.292163" lon="10.7909756"><ele>274.33333333333337</ele><time>2026-04-18T13:07:05.203Z</time></trkpt><trkpt lat="43.2921805" lon="10.7910709"><ele>278.0</ele><time>2026-04-18T13:07:06.193Z</time></trkpt><trkpt lat="43.2921951" lon="10.7911662"><ele>278.0</ele><time>2026-04-18T13:07:07.208Z</time></trkpt><trkpt lat="43.2922176" lon="10.7913226"><ele>278.0</ele><time>2026-04-18T13:07:09.193Z</time></trkpt><trkpt lat="43.2922253" lon="10.7914153"><ele>278.0</ele><time>2026-04-18T13:07:10.202Z</time></trkpt><trkpt lat="43.2922226" lon="10.7915098"><ele>278.0</ele><time>2026-04-18T13:07:11.199Z</time></trkpt><trkpt lat="43.2922148" lon="10.7915992"><ele>278.0</ele><time>2026-04-18T13:07:12.194Z</time></trkpt><trkpt lat="43.2921523" lon="10.7917637"><ele>275.42857142857144</ele><time>2026-04-18T13:07:14.193Z</time></trkpt><trkpt lat="43.2921106" lon="10.7918542"><ele>272.8571428571429</ele><time>2026-04-18T13:07:15.192Z</time></trkpt><trkpt lat="43.2920709" lon="10.7919528"><ele>270.28571428571433</ele><time>2026-04-18T13:07:16.201Z</time></trkpt><trkpt lat="43.2920421" lon="10.7920487"><ele>267.7142857142857</ele><time>2026-04-18T13:07:17.196Z</time></trkpt><trkpt lat="43.2920189" lon="10.7921381"><ele>265.14285714285717</ele><time>2026-04-18T13:07:18.207Z</time></trkpt><trkpt lat="43.2919963" lon="10.7922298"><ele>262.5714285714286</ele><time>2026-04-18T13:07:19.192Z</time></trkpt><trkpt lat="43.2919793" lon="10.7923172"><ele>260.0</ele><time>2026-04-18T13:07:20.21Z</time></trkpt><trkpt lat="43.2919462" lon="10.7924716"><ele>260.00000000000006</ele><time>2026-04-18T13:07:22.194Z</time></trkpt><trkpt lat="43.2919411" lon="10.7925897"><ele>260.0</ele><time>2026-04-18T13:07:24.206Z</time></trkpt><trkpt lat="43.2919713" lon="10.7927078"><ele>260.0</ele><time>2026-04-18T13:07:27.194Z</time></trkpt><trkpt lat="43.292005" lon="10.7927906"><ele>260.0</ele><time>2026-04-18T13:07:29.201Z</time></trkpt><trkpt lat="43.2920415" lon="10.7928639"><ele>260.0</ele><time>2026-04-18T13:07:35.205Z</time></trkpt><trkpt lat="43.2920763" lon="10.7929453"><ele>260.00000000000006</ele><time>2026-04-18T13:08:11.195Z</time></trkpt><trkpt lat="43.2921271" lon="10.7930098"><ele>260.0</ele><time>2026-04-18T13:08:15.201Z</time></trkpt><trkpt lat="43.29219" lon="10.7931223"><ele>257.4</ele><time>2026-04-18T13:08:18.206Z</time></trkpt><trkpt lat="43.292239" lon="10.7932041"><ele>254.8</ele><time>2026-04-18T13:08:19.209Z</time></trkpt><trkpt lat="43.2922812" lon="10.7933195"><ele>252.2</ele><time>2026-04-18T13:08:20.21Z</time></trkpt><trkpt lat="43.2923303" lon="10.7934331"><ele>249.6</ele><time>2026-04-18T13:08:21.199Z</time></trkpt><trkpt lat="43.2923718" lon="10.7935419"><ele>247.0</ele><time>2026-04-18T13:08:22.203Z</time></trkpt><trkpt lat="43.2924179" lon="10.7936538"><ele>246.16666666666666</ele><time>2026-04-18T13:08:23.196Z</time></trkpt><trkpt lat="43.2924729" lon="10.79374"><ele>245.33333333333331</ele><time>2026-04-18T13:08:24.21Z</time></trkpt><trkpt lat="43.2925286" lon="10.7937987"><ele>244.5</ele><time>2026-04-18T13:08:25.2Z</time></trkpt><trkpt lat="43.2925852" lon="10.7938472"><ele>243.66666666666669</ele><time>2026-04-18T13:08:26.208Z</time></trkpt><trkpt lat="43.2926702" lon="10.7939626"><ele>242.83333333333334</ele><time>2026-04-18T13:08:28.205Z</time></trkpt><trkpt lat="43.2926643" lon="10.7941125"><ele>242.0</ele><time>2026-04-18T13:08:30.205Z</time></trkpt><trkpt lat="43.2925743" lon="10.7941745"><ele>242.0</ele><time>2026-04-18T13:08:32.192Z</time></trkpt><trkpt lat="43.2924533" lon="10.7941405"><ele>242.0</ele><time>2026-04-18T13:08:34.209Z</time></trkpt><trkpt lat="43.2923814" lon="10.7940986"><ele>242.0</ele><time>2026-04-18T13:08:35.194Z</time></trkpt><trkpt lat="43.2923054" lon="10.7940569"><ele>242.0</ele><time>2026-04-18T13:08:36.206Z</time></trkpt><trkpt lat="43.2922212" lon="10.7940303"><ele>242.0</ele><time>2026-04-18T13:08:37.209Z</time></trkpt><trkpt lat="43.2921378" lon="10.7939858"><ele>240.6</ele><time>2026-04-18T13:08:38.198Z</time></trkpt><trkpt lat="43.2920593" lon="10.793936"><ele>239.2</ele><time>2026-04-18T13:08:39.196Z</time></trkpt><trkpt lat="43.2919742" lon="10.7938749"><ele>237.8</ele><time>2026-04-18T13:08:40.211Z</time></trkpt><trkpt lat="43.2918938" lon="10.7938122"><ele>236.4</ele><time>2026-04-18T13:08:41.202Z</time></trkpt><trkpt lat="43.291811" lon="10.7937551"><ele>235.0</ele><time>2026-04-18T13:08:42.203Z</time></trkpt><trkpt lat="43.2917263" lon="10.7937174"><ele>234.99999999999997</ele><time>2026-04-18T13:08:43.201Z</time></trkpt><trkpt lat="43.2916449" lon="10.7937075"><ele>235.0</ele><time>2026-04-18T13:08:44.194Z</time></trkpt><trkpt lat="43.291531" lon="10.7937029"><ele>235.0</ele><time>2026-04-18T13:08:46.206Z</time></trkpt><trkpt lat="43.2914594" lon="10.7937559"><ele>235.0</ele><time>2026-04-18T13:08:48.203Z</time></trkpt><trkpt lat="43.2914559" lon="10.793866"><ele>234.99999999999997</ele><time>2026-04-18T13:08:50.195Z</time></trkpt><trkpt lat="43.2914972" lon="10.793937"><ele>235.0</ele><time>2026-04-18T13:08:51.197Z</time></trkpt><trkpt lat="43.2915584" lon="10.7939994"><ele>235.0</ele><time>2026-04-18T13:08:52.197Z</time></trkpt><trkpt lat="43.2916227" lon="10.7940768"><ele>235.0</ele><time>2026-04-18T13:08:53.193Z</time></trkpt><trkpt lat="43.2916833" lon="10.7941697"><ele>235.0</ele><time>2026-04-18T13:08:54.211Z</time></trkpt><trkpt lat="43.291731" lon="10.7942928"><ele>235.0</ele><time>2026-04-18T13:08:55.194Z</time></trkpt><trkpt lat="43.2917717" lon="10.7944224"><ele>235.0</ele><time>2026-04-18T13:08:56.203Z</time></trkpt><trkpt lat="43.2918327" lon="10.7945519"><ele>231.5</ele><time>2026-04-18T13:08:57.195Z</time></trkpt><trkpt lat="43.2919024" lon="10.7946684"><ele>228.0</ele><time>2026-04-18T13:08:58.205Z</time></trkpt><trkpt lat="43.2919817" lon="10.794776"><ele>224.5</ele><time>2026-04-18T13:08:59.194Z</time></trkpt><trkpt lat="43.2920815" lon="10.7948747"><ele>221.0</ele><time>2026-04-18T13:09:00.206Z</time></trkpt><trkpt lat="43.2921937" lon="10.7949637"><ele>222.0</ele><time>2026-04-18T13:09:01.199Z</time></trkpt><trkpt lat="43.2922956" lon="10.7950445"><ele>223.0</ele><time>2026-04-18T13:09:02.214Z</time></trkpt><trkpt lat="43.2924056" lon="10.7951101"><ele>224.0</ele><time>2026-04-18T13:09:03.199Z</time></trkpt><trkpt lat="43.2925073" lon="10.7951767"><ele>225.0</ele><time>2026-04-18T13:09:04.212Z</time></trkpt><trkpt lat="43.2926" lon="10.7952454"><ele>222.0</ele><time>2026-04-18T13:09:05.209Z</time></trkpt><trkpt lat="43.2926819" lon="10.7953367"><ele>219.0</ele><time>2026-04-18T13:09:06.218Z</time></trkpt><trkpt lat="43.2927526" lon="10.7954503"><ele>216.0</ele><time>2026-04-18T13:09:07.198Z</time></trkpt><trkpt lat="43.292816" lon="10.7955888"><ele>213.0</ele><time>2026-04-18T13:09:08.212Z</time></trkpt><trkpt lat="43.2928829" lon="10.795713"><ele>210.0</ele><time>2026-04-18T13:09:09.206Z</time></trkpt><trkpt lat="43.2929485" lon="10.7958395"><ele>210.0</ele><time>2026-04-18T13:09:10.211Z</time></trkpt><trkpt lat="43.2930178" lon="10.7959479"><ele>210.0</ele><time>2026-04-18T13:09:11.225Z</time></trkpt><trkpt lat="43.2930974" lon="10.7960018"><ele>210.0</ele><time>2026-04-18T13:09:12.22Z</time></trkpt><trkpt lat="43.2931711" lon="10.7960261"><ele>210.0</ele><time>2026-04-18T13:09:13.211Z</time></trkpt><trkpt lat="43.2932503" lon="10.7960246"><ele>210.0</ele><time>2026-04-18T13:09:14.205Z</time></trkpt><trkpt lat="43.293338" lon="10.7959893"><ele>210.0</ele><time>2026-04-18T13:09:15.202Z</time></trkpt><trkpt lat="43.2934281" lon="10.7959246"><ele>210.33333333333334</ele><time>2026-04-18T13:09:16.204Z</time></trkpt><trkpt lat="43.2935113" lon="10.795855"><ele>210.66666666666669</ele><time>2026-04-18T13:09:17.204Z</time></trkpt><trkpt lat="43.2935836" lon="10.7957897"><ele>211.0</ele><time>2026-04-18T13:09:18.201Z</time></trkpt><trkpt lat="43.2936592" lon="10.7957491"><ele>211.33333333333334</ele><time>2026-04-18T13:09:19.205Z</time></trkpt><trkpt lat="43.293735" lon="10.7957599"><ele>211.66666666666669</ele><time>2026-04-18T13:09:20.21Z</time></trkpt><trkpt lat="43.29381" lon="10.7958407"><ele>212.0</ele><time>2026-04-18T13:09:21.193Z</time></trkpt><trkpt lat="43.2938717" lon="10.7959445"><ele>209.6</ele><time>2026-04-18T13:09:22.217Z</time></trkpt><trkpt lat="43.2939204" lon="10.7960543"><ele>207.2</ele><time>2026-04-18T13:09:23.207Z</time></trkpt><trkpt lat="43.2939781" lon="10.7961752"><ele>204.8</ele><time>2026-04-18T13:09:24.217Z</time></trkpt><trkpt lat="43.2940476" lon="10.7963085"><ele>202.4</ele><time>2026-04-18T13:09:25.211Z</time></trkpt><trkpt lat="43.2941168" lon="10.7964166"><ele>200.0</ele><time>2026-04-18T13:09:26.213Z</time></trkpt><trkpt lat="43.2942044" lon="10.7965154"><ele>200.0</ele><time>2026-04-18T13:09:27.194Z</time></trkpt><trkpt lat="43.2942953" lon="10.7965955"><ele>200.0</ele><time>2026-04-18T13:09:28.213Z</time></trkpt><trkpt lat="43.2943927" lon="10.7966586"><ele>200.0</ele><time>2026-04-18T13:09:29.204Z</time></trkpt><trkpt lat="43.2944897" lon="10.7966889"><ele>200.0</ele><time>2026-04-18T13:09:30.199Z</time></trkpt><trkpt lat="43.2946041" lon="10.7966971"><ele>200.0</ele><time>2026-04-18T13:09:31.191Z</time></trkpt><trkpt lat="43.2947145" lon="10.796689"><ele>198.6</ele><time>2026-04-18T13:09:32.2Z</time></trkpt><trkpt lat="43.2948372" lon="10.7966944"><ele>197.2</ele><time>2026-04-18T13:09:33.229Z</time></trkpt><trkpt lat="43.2949491" lon="10.7967187"><ele>195.8</ele><time>2026-04-18T13:09:34.209Z</time></trkpt><trkpt lat="43.295035" lon="10.7967649"><ele>194.4</ele><time>2026-04-18T13:09:35.206Z</time></trkpt><trkpt lat="43.2951206" lon="10.7967747"><ele>193.0</ele><time>2026-04-18T13:09:36.227Z</time></trkpt><trkpt lat="43.2952074" lon="10.7967443"><ele>193.0</ele><time>2026-04-18T13:09:37.205Z</time></trkpt><trkpt lat="43.2952832" lon="10.7966939"><ele>193.0</ele><time>2026-04-18T13:09:38.206Z</time></trkpt><trkpt lat="43.2953581" lon="10.7966023"><ele>193.0</ele><time>2026-04-18T13:09:39.196Z</time></trkpt><trkpt lat="43.2954296" lon="10.7964962"><ele>193.0</ele><time>2026-04-18T13:09:40.193Z</time></trkpt><trkpt lat="43.2954906" lon="10.7963743"><ele>193.0</ele><time>2026-04-18T13:09:41.198Z</time></trkpt><trkpt lat="43.2955366" lon="10.7962461"><ele>192.99999999999997</ele><time>2026-04-18T13:09:42.198Z</time></trkpt><trkpt lat="43.2955683" lon="10.796144"><ele>193.0</ele><time>2026-04-18T13:09:43.197Z</time></trkpt><trkpt lat="43.2956153" lon="10.7960464"><ele>193.0</ele><time>2026-04-18T13:09:44.199Z</time></trkpt><trkpt lat="43.2956935" lon="10.7960019"><ele>193.0</ele><time>2026-04-18T13:09:45.193Z</time></trkpt><trkpt lat="43.2957697" lon="10.7959847"><ele>192.99999999999997</ele><time>2026-04-18T13:09:46.191Z</time></trkpt><trkpt lat="43.2958528" lon="10.7959961"><ele>193.0</ele><time>2026-04-18T13:09:47.206Z</time></trkpt><trkpt lat="43.295935" lon="10.7960021"><ele>191.4</ele><time>2026-04-18T13:09:48.207Z</time></trkpt><trkpt lat="43.2960213" lon="10.7959904"><ele>189.8</ele><time>2026-04-18T13:09:49.195Z</time></trkpt><trkpt lat="43.2961088" lon="10.7959554"><ele>188.2</ele><time>2026-04-18T13:09:50.21Z</time></trkpt><trkpt lat="43.2962072" lon="10.7959149"><ele>186.6</ele><time>2026-04-18T13:09:51.208Z</time></trkpt><trkpt lat="43.2963175" lon="10.7958795"><ele>185.0</ele><time>2026-04-18T13:09:52.213Z</time></trkpt><trkpt lat="43.2964358" lon="10.795858"><ele>182.83333333333331</ele><time>2026-04-18T13:09:53.204Z</time></trkpt><trkpt lat="43.2965453" lon="10.7958353"><ele>180.66666666666666</ele><time>2026-04-18T13:09:54.202Z</time></trkpt><trkpt lat="43.2966442" lon="10.79581"><ele>178.5</ele><time>2026-04-18T13:09:55.203Z</time></trkpt><trkpt lat="43.2967261" lon="10.7957631"><ele>176.33333333333334</ele><time>2026-04-18T13:09:56.208Z</time></trkpt><trkpt lat="43.296796" lon="10.7957143"><ele>174.16666666666669</ele><time>2026-04-18T13:09:57.189Z</time></trkpt><trkpt lat="43.2968461" lon="10.7956479"><ele>172.0</ele><time>2026-04-18T13:09:58.193Z</time></trkpt><trkpt lat="43.2968813" lon="10.7955562"><ele>172.0</ele><time>2026-04-18T13:09:59.204Z</time></trkpt><trkpt lat="43.2969355" lon="10.7954673"><ele>172.0</ele><time>2026-04-18T13:10:00.21Z</time></trkpt><trkpt lat="43.29701" lon="10.7954042"><ele>172.0</ele><time>2026-04-18T13:10:01.198Z</time></trkpt><trkpt lat="43.2971048" lon="10.7953747"><ele>172.0</ele><time>2026-04-18T13:10:02.22Z</time></trkpt><trkpt lat="43.297199" lon="10.7953704"><ele>172.0</ele><time>2026-04-18T13:10:03.199Z</time></trkpt><trkpt lat="43.2973084" lon="10.7953719"><ele>169.0</ele><time>2026-04-18T13:10:04.206Z</time></trkpt><trkpt lat="43.2974143" lon="10.7953652"><ele>166.0</ele><time>2026-04-18T13:10:05.205Z</time></trkpt><trkpt lat="43.297522" lon="10.7953626"><ele>163.0</ele><time>2026-04-18T13:10:06.203Z</time></trkpt><trkpt lat="43.2976365" lon="10.7953482"><ele>160.0</ele><time>2026-04-18T13:10:07.198Z</time></trkpt><trkpt lat="43.2977587" lon="10.7953346"><ele>160.0</ele><time>2026-04-18T13:10:08.208Z</time></trkpt><trkpt lat="43.2978666" lon="10.7953144"><ele>160.0</ele><time>2026-04-18T13:10:09.207Z</time></trkpt><trkpt lat="43.2979728" lon="10.7953093"><ele>160.0</ele><time>2026-04-18T13:10:10.197Z</time></trkpt><trkpt lat="43.2980737" lon="10.7953369"><ele>160.0</ele><time>2026-04-18T13:10:11.206Z</time></trkpt><trkpt lat="43.2981652" lon="10.7954059"><ele>160.0</ele><time>2026-04-18T13:10:12.196Z</time></trkpt><trkpt lat="43.2982385" lon="10.7954966"><ele>160.4</ele><time>2026-04-18T13:10:13.208Z</time></trkpt><trkpt lat="43.2982981" lon="10.7956009"><ele>160.8</ele><time>2026-04-18T13:10:14.218Z</time></trkpt><trkpt lat="43.2983568" lon="10.7957163"><ele>161.2</ele><time>2026-04-18T13:10:15.195Z</time></trkpt><trkpt lat="43.2983983" lon="10.7958407"><ele>161.6</ele><time>2026-04-18T13:10:16.212Z</time></trkpt><trkpt lat="43.298416" lon="10.7959693"><ele>162.0</ele><time>2026-04-18T13:10:17.188Z</time></trkpt><trkpt lat="43.298417" lon="10.7960987"><ele>160.79999999999998</ele><time>2026-04-18T13:10:18.22Z</time></trkpt><trkpt lat="43.2984125" lon="10.7962446"><ele>159.6</ele><time>2026-04-18T13:10:19.197Z</time></trkpt><trkpt lat="43.2984077" lon="10.7963979"><ele>158.39999999999998</ele><time>2026-04-18T13:10:20.214Z</time></trkpt><trkpt lat="43.2984056" lon="10.7965525"><ele>157.2</ele><time>2026-04-18T13:10:21.21Z</time></trkpt><trkpt lat="43.2984069" lon="10.7966965"><ele>156.0</ele><time>2026-04-18T13:10:22.194Z</time></trkpt><trkpt lat="43.2984071" lon="10.7968288"><ele>154.0</ele><time>2026-04-18T13:10:23.196Z</time></trkpt><trkpt lat="43.2984274" lon="10.796951"><ele>152.0</ele><time>2026-04-18T13:10:24.211Z</time></trkpt><trkpt lat="43.2984749" lon="10.7970673"><ele>150.0</ele><time>2026-04-18T13:10:25.202Z</time></trkpt><trkpt lat="43.2985346" lon="10.7971849"><ele>148.0</ele><time>2026-04-18T13:10:26.209Z</time></trkpt><trkpt lat="43.2986061" lon="10.7973009"><ele>146.0</ele><time>2026-04-18T13:10:27.214Z</time></trkpt><trkpt lat="43.2986878" lon="10.797414"><ele>146.0</ele><time>2026-04-18T13:10:28.198Z</time></trkpt><trkpt lat="43.2987671" lon="10.7975378"><ele>146.0</ele><time>2026-04-18T13:10:29.195Z</time></trkpt><trkpt lat="43.2988359" lon="10.797657"><ele>146.0</ele><time>2026-04-18T13:10:30.206Z</time></trkpt><trkpt lat="43.298885" lon="10.797791"><ele>146.0</ele><time>2026-04-18T13:10:31.21Z</time></trkpt><trkpt lat="43.298912" lon="10.7979361"><ele>146.0</ele><time>2026-04-18T13:10:32.199Z</time></trkpt><trkpt lat="43.2989291" lon="10.7980614"><ele>146.0</ele><time>2026-04-18T13:10:33.194Z</time></trkpt><trkpt lat="43.2989497" lon="10.7981833"><ele>146.0</ele><time>2026-04-18T13:10:34.206Z</time></trkpt><trkpt lat="43.2989844" lon="10.7982847"><ele>146.0</ele><time>2026-04-18T13:10:35.21Z</time></trkpt><trkpt lat="43.2990315" lon="10.798383"><ele>146.0</ele><time>2026-04-18T13:10:36.213Z</time></trkpt><trkpt lat="43.2990883" lon="10.798495"><ele>146.0</ele><time>2026-04-18T13:10:37.2Z</time></trkpt><trkpt lat="43.2991496" lon="10.7986095"><ele>146.0</ele><time>2026-04-18T13:10:38.197Z</time></trkpt><trkpt lat="43.2992154" lon="10.7987329"><ele>146.0</ele><time>2026-04-18T13:10:39.205Z</time></trkpt><trkpt lat="43.2992804" lon="10.7988591"><ele>146.0</ele><time>2026-04-18T13:10:40.198Z</time></trkpt><trkpt lat="43.2993452" lon="10.7989995"><ele>146.0</ele><time>2026-04-18T13:10:41.204Z</time></trkpt><trkpt lat="43.2993932" lon="10.7991446"><ele>146.0</ele><time>2026-04-18T13:10:42.201Z</time></trkpt><trkpt lat="43.29943" lon="10.7992925"><ele>146.0</ele><time>2026-04-18T13:10:43.192Z</time></trkpt><trkpt lat="43.2994382" lon="10.7994471"><ele>146.0</ele><time>2026-04-18T13:10:44.197Z</time></trkpt><trkpt lat="43.2994398" lon="10.7996066"><ele>146.0</ele><time>2026-04-18T13:10:45.203Z</time></trkpt><trkpt lat="43.2994392" lon="10.7997533"><ele>146.0</ele><time>2026-04-18T13:10:46.21Z</time></trkpt><trkpt lat="43.2994428" lon="10.7998954"><ele>144.8</ele><time>2026-04-18T13:10:47.199Z</time></trkpt><trkpt lat="43.2994552" lon="10.8000335"><ele>143.6</ele><time>2026-04-18T13:10:48.198Z</time></trkpt><trkpt lat="43.2994554" lon="10.8001687"><ele>142.4</ele><time>2026-04-18T13:10:49.203Z</time></trkpt><trkpt lat="43.2994471" lon="10.8002995"><ele>141.2</ele><time>2026-04-18T13:10:50.21Z</time></trkpt><trkpt lat="43.2993996" lon="10.8004085"><ele>140.0</ele><time>2026-04-18T13:10:51.197Z</time></trkpt><trkpt lat="43.2993572" lon="10.8004963"><ele>139.66666666666666</ele><time>2026-04-18T13:10:52.21Z</time></trkpt><trkpt lat="43.2993187" lon="10.8005818"><ele>139.33333333333331</ele><time>2026-04-18T13:10:53.201Z</time></trkpt><trkpt lat="43.2992966" lon="10.8006807"><ele>139.0</ele><time>2026-04-18T13:10:54.199Z</time></trkpt><trkpt lat="43.2992998" lon="10.8007886"><ele>138.66666666666666</ele><time>2026-04-18T13:10:55.212Z</time></trkpt><trkpt lat="43.2993301" lon="10.8008758"><ele>138.33333333333334</ele><time>2026-04-18T13:10:56.21Z</time></trkpt><trkpt lat="43.2993747" lon="10.8009638"><ele>138.0</ele><time>2026-04-18T13:10:57.208Z</time></trkpt><trkpt lat="43.2994266" lon="10.8010369"><ele>137.66666666666666</ele><time>2026-04-18T13:10:58.208Z</time></trkpt><trkpt lat="43.2994977" lon="10.8010971"><ele>137.33333333333334</ele><time>2026-04-18T13:11:00.211Z</time></trkpt><trkpt lat="43.2995536" lon="10.80115"><ele>137.0</ele><time>2026-04-18T13:11:11.207Z</time></trkpt><trkpt lat="43.2996391" lon="10.8012108"><ele>136.66666666666669</ele><time>2026-04-18T13:11:16.196Z</time></trkpt><trkpt lat="43.2997146" lon="10.8012508"><ele>136.33333333333334</ele><time>2026-04-18T13:11:18.208Z</time></trkpt><trkpt lat="43.2997778" lon="10.8012671"><ele>136.0</ele><time>2026-04-18T13:11:20.208Z</time></trkpt><trkpt lat="43.2998553" lon="10.8012953"><ele>137.6</ele><time>2026-04-18T13:11:30.209Z</time></trkpt><trkpt lat="43.2999522" lon="10.8013193"><ele>139.2</ele><time>2026-04-18T13:11:32.217Z</time></trkpt><trkpt lat="43.3000605" lon="10.8013518"><ele>140.8</ele><time>2026-04-18T13:11:34.218Z</time></trkpt><trkpt lat="43.300138" lon="10.8013699"><ele>142.4</ele><time>2026-04-18T13:11:35.211Z</time></trkpt><trkpt lat="43.300225" lon="10.8013733"><ele>144.0</ele><time>2026-04-18T13:11:36.207Z</time></trkpt><trkpt lat="43.3003194" lon="10.8013668"><ele>144.0</ele><time>2026-04-18T13:11:37.213Z</time></trkpt><trkpt lat="43.3004131" lon="10.8013523"><ele>144.0</ele><time>2026-04-18T13:11:38.215Z</time></trkpt><trkpt lat="43.3005154" lon="10.8013505"><ele>144.0</ele><time>2026-04-18T13:11:39.201Z</time></trkpt><trkpt lat="43.3006241" lon="10.801355"><ele>144.0</ele><time>2026-04-18T13:11:40.212Z</time></trkpt><trkpt lat="43.3007257" lon="10.8014009"><ele>144.0</ele><time>2026-04-18T13:11:41.222Z</time></trkpt><trkpt lat="43.3008363" lon="10.8014833"><ele>143.75</ele><time>2026-04-18T13:11:42.193Z</time></trkpt><trkpt lat="43.300933" lon="10.8015897"><ele>143.5</ele><time>2026-04-18T13:11:43.2Z</time></trkpt><trkpt lat="43.3010366" lon="10.8017014"><ele>143.25</ele><time>2026-04-18T13:11:44.208Z</time></trkpt><trkpt lat="43.3011381" lon="10.8018135"><ele>143.0</ele><time>2026-04-18T13:11:45.207Z</time></trkpt><trkpt lat="43.3012441" lon="10.801922"><ele>142.5</ele><time>2026-04-18T13:11:46.217Z</time></trkpt><trkpt lat="43.3013503" lon="10.8020228"><ele>142.0</ele><time>2026-04-18T13:11:47.198Z</time></trkpt><trkpt lat="43.3014564" lon="10.802125"><ele>141.5</ele><time>2026-04-18T13:11:48.208Z</time></trkpt><trkpt lat="43.301567" lon="10.802224"><ele>141.0</ele><time>2026-04-18T13:11:49.207Z</time></trkpt><trkpt lat="43.3016763" lon="10.8023278"><ele>140.75</ele><time>2026-04-18T13:11:50.208Z</time></trkpt><trkpt lat="43.3017877" lon="10.8024194"><ele>140.5</ele><time>2026-04-18T13:11:51.208Z</time></trkpt><trkpt lat="43.3018963" lon="10.8025085"><ele>140.25</ele><time>2026-04-18T13:11:52.197Z</time></trkpt><trkpt lat="43.3020039" lon="10.8025904"><ele>140.0</ele><time>2026-04-18T13:11:53.209Z</time></trkpt><trkpt lat="43.3021004" lon="10.8026688"><ele>138.8</ele><time>2026-04-18T13:11:54.212Z</time></trkpt><trkpt lat="43.3021845" lon="10.8027505"><ele>137.6</ele><time>2026-04-18T13:11:55.2Z</time></trkpt><trkpt lat="43.3022643" lon="10.8028189"><ele>136.4</ele><time>2026-04-18T13:11:56.211Z</time></trkpt><trkpt lat="43.3023453" lon="10.8028768"><ele>135.2</ele><time>2026-04-18T13:11:57.204Z</time></trkpt><trkpt lat="43.3024334" lon="10.802925"><ele>134.0</ele><time>2026-04-18T13:11:58.207Z</time></trkpt><trkpt lat="43.3025165" lon="10.8029587"><ele>134.0</ele><time>2026-04-18T13:11:59.198Z</time></trkpt><trkpt lat="43.3026082" lon="10.8029693"><ele>134.0</ele><time>2026-04-18T13:12:00.224Z</time></trkpt><trkpt lat="43.3026962" lon="10.8029653"><ele>134.0</ele><time>2026-04-18T13:12:01.206Z</time></trkpt><trkpt lat="43.3027783" lon="10.8029383"><ele>134.0</ele><time>2026-04-18T13:12:02.203Z</time></trkpt><trkpt lat="43.3028576" lon="10.8029008"><ele>134.0</ele><time>2026-04-18T13:12:03.205Z</time></trkpt><trkpt lat="43.3029374" lon="10.8028298"><ele>134.0</ele><time>2026-04-18T13:12:04.208Z</time></trkpt><trkpt lat="43.3030156" lon="10.802764"><ele>133.6</ele><time>2026-04-18T13:12:05.211Z</time></trkpt><trkpt lat="43.3030962" lon="10.8027111"><ele>133.2</ele><time>2026-04-18T13:12:06.225Z</time></trkpt><trkpt lat="43.3031808" lon="10.8026706"><ele>132.79999999999998</ele><time>2026-04-18T13:12:07.207Z</time></trkpt><trkpt lat="43.303277" lon="10.8026532"><ele>132.4</ele><time>2026-04-18T13:12:08.207Z</time></trkpt><trkpt lat="43.3033712" lon="10.8026636"><ele>132.0</ele><time>2026-04-18T13:12:09.21Z</time></trkpt><trkpt lat="43.3034634" lon="10.8027065"><ele>131.6</ele><time>2026-04-18T13:12:10.213Z</time></trkpt><trkpt lat="43.303553" lon="10.8027864"><ele>131.2</ele><time>2026-04-18T13:12:11.212Z</time></trkpt><trkpt lat="43.3036201" lon="10.8028908"><ele>130.8</ele><time>2026-04-18T13:12:12.197Z</time></trkpt><trkpt lat="43.3036709" lon="10.8030333"><ele>130.4</ele><time>2026-04-18T13:12:13.203Z</time></trkpt><trkpt lat="43.3036964" lon="10.8031635"><ele>130.0</ele><time>2026-04-18T13:12:14.202Z</time></trkpt><trkpt lat="43.3037213" lon="10.8033222"><ele>130.0</ele><time>2026-04-18T13:12:15.2Z</time></trkpt><trkpt lat="43.3037481" lon="10.8034892"><ele>130.0</ele><time>2026-04-18T13:12:16.201Z</time></trkpt><trkpt lat="43.3037798" lon="10.8036636"><ele>130.0</ele><time>2026-04-18T13:12:17.21Z</time></trkpt><trkpt lat="43.3038153" lon="10.803846"><ele>130.0</ele><time>2026-04-18T13:12:18.207Z</time></trkpt><trkpt lat="43.3038497" lon="10.8040326"><ele>128.25</ele><time>2026-04-18T13:12:19.204Z</time></trkpt><trkpt lat="43.3038879" lon="10.8042154"><ele>126.5</ele><time>2026-04-18T13:12:20.214Z</time></trkpt><trkpt lat="43.3039233" lon="10.8043926"><ele>124.75</ele><time>2026-04-18T13:12:21.211Z</time></trkpt><trkpt lat="43.3039514" lon="10.8045703"><ele>123.0</ele><time>2026-04-18T13:12:22.198Z</time></trkpt><trkpt lat="43.3039882" lon="10.8047471"><ele>118.0</ele><time>2026-04-18T13:12:23.203Z</time></trkpt><trkpt lat="43.3040234" lon="10.8049188"><ele>113.0</ele><time>2026-04-18T13:12:24.204Z</time></trkpt><trkpt lat="43.3040511" lon="10.8050923"><ele>108.0</ele><time>2026-04-18T13:12:25.204Z</time></trkpt><trkpt lat="43.3040751" lon="10.8052563"><ele>103.0</ele><time>2026-04-18T13:12:26.2Z</time></trkpt><trkpt lat="43.3040921" lon="10.8054054"><ele>102.4</ele><time>2026-04-18T13:12:27.216Z</time></trkpt><trkpt lat="43.3041019" lon="10.8055456"><ele>101.80000000000001</ele><time>2026-04-18T13:12:28.221Z</time></trkpt><trkpt lat="43.3040995" lon="10.8056881"><ele>101.2</ele><time>2026-04-18T13:12:29.21Z</time></trkpt><trkpt lat="43.3040809" lon="10.8058397"><ele>100.6</ele><time>2026-04-18T13:12:30.207Z</time></trkpt><trkpt lat="43.3040456" lon="10.8059809"><ele>100.0</ele><time>2026-04-18T13:12:31.216Z</time></trkpt><trkpt lat="43.3039887" lon="10.8061244"><ele>100.0</ele><time>2026-04-18T13:12:32.201Z</time></trkpt><trkpt lat="43.3039169" lon="10.8062553"><ele>100.0</ele><time>2026-04-18T13:12:33.202Z</time></trkpt><trkpt lat="43.3038196" lon="10.8063808"><ele>100.0</ele><time>2026-04-18T13:12:34.208Z</time></trkpt><trkpt lat="43.3037118" lon="10.8065038"><ele>100.0</ele><time>2026-04-18T13:12:35.204Z</time></trkpt><trkpt lat="43.3036153" lon="10.8066352"><ele>100.0</ele><time>2026-04-18T13:12:36.212Z</time></trkpt><trkpt lat="43.3035188" lon="10.8067788"><ele>100.0</ele><time>2026-04-18T13:12:37.206Z</time></trkpt><trkpt lat="43.3034223" lon="10.8069128"><ele>100.0</ele><time>2026-04-18T13:12:38.215Z</time></trkpt><trkpt lat="43.3033246" lon="10.8070508"><ele>100.0</ele><time>2026-04-18T13:12:39.209Z</time></trkpt><trkpt lat="43.3032273" lon="10.8071846"><ele>99.75</ele><time>2026-04-18T13:12:40.212Z</time></trkpt><trkpt lat="43.3031354" lon="10.8073145"><ele>99.5</ele><time>2026-04-18T13:12:41.214Z</time></trkpt><trkpt lat="43.3030516" lon="10.8074236"><ele>99.25</ele><time>2026-04-18T13:12:42.212Z</time></trkpt><trkpt lat="43.3029712" lon="10.8075319"><ele>99.0</ele><time>2026-04-18T13:12:43.195Z</time></trkpt><trkpt lat="43.3028947" lon="10.8076512"><ele>99.6</ele><time>2026-04-18T13:12:44.202Z</time></trkpt><trkpt lat="43.30283" lon="10.8077642"><ele>100.2</ele><time>2026-04-18T13:12:45.206Z</time></trkpt><trkpt lat="43.3027734" lon="10.8078703"><ele>100.8</ele><time>2026-04-18T13:12:46.192Z</time></trkpt><trkpt lat="43.3027238" lon="10.8079768"><ele>101.39999999999999</ele><time>2026-04-18T13:12:47.214Z</time></trkpt><trkpt lat="43.3026805" lon="10.8080926"><ele>102.0</ele><time>2026-04-18T13:12:48.212Z</time></trkpt><trkpt lat="43.3026374" lon="10.808227"><ele>102.0</ele><time>2026-04-18T13:12:49.201Z</time></trkpt><trkpt lat="43.3025924" lon="10.8083644"><ele>102.0</ele><time>2026-04-18T13:12:50.217Z</time></trkpt><trkpt lat="43.3025516" lon="10.8085127"><ele>102.0</ele><time>2026-04-18T13:12:51.198Z</time></trkpt><trkpt lat="43.3025069" lon="10.8086534"><ele>102.0</ele><time>2026-04-18T13:12:52.217Z</time></trkpt><trkpt lat="43.3024675" lon="10.8087709"><ele>102.0</ele><time>2026-04-18T13:12:53.21Z</time></trkpt><trkpt lat="43.3024322" lon="10.8088598"><ele>102.0</ele><time>2026-04-18T13:12:54.208Z</time></trkpt><trkpt lat="43.3023792" lon="10.8089928"><ele>102.0</ele><time>2026-04-18T13:12:56.213Z</time></trkpt><trkpt lat="43.3023317" lon="10.8091127"><ele>102.0</ele><time>2026-04-18T13:12:58.21Z</time></trkpt><trkpt lat="43.3022632" lon="10.8092264"><ele>102.0</ele><time>2026-04-18T13:13:00.21Z</time></trkpt><trkpt lat="43.3021551" lon="10.809231"><ele>102.0</ele><time>2026-04-18T13:13:02.211Z</time></trkpt><trkpt lat="43.3020601" lon="10.8091324"><ele>103.39999999999999</ele><time>2026-04-18T13:13:04.212Z</time></trkpt><trkpt lat="43.3020223" lon="10.8090589"><ele>104.8</ele><time>2026-04-18T13:13:05.198Z</time></trkpt><trkpt lat="43.3019379" lon="10.8089322"><ele>106.2</ele><time>2026-04-18T13:13:07.202Z</time></trkpt><trkpt lat="43.3018754" lon="10.8088575"><ele>107.6</ele><time>2026-04-18T13:13:08.208Z</time></trkpt><trkpt lat="43.3017941" lon="10.8087654"><ele>109.0</ele><time>2026-04-18T13:13:09.199Z</time></trkpt><trkpt lat="43.3017026" lon="10.8086702"><ele>109.0</ele><time>2026-04-18T13:13:10.21Z</time></trkpt><trkpt lat="43.3016172" lon="10.8085847"><ele>109.0</ele><time>2026-04-18T13:13:11.203Z</time></trkpt><trkpt lat="43.301539" lon="10.8084994"><ele>109.0</ele><time>2026-04-18T13:13:12.203Z</time></trkpt><trkpt lat="43.3014674" lon="10.8084171"><ele>109.0</ele><time>2026-04-18T13:13:13.206Z</time></trkpt><trkpt lat="43.3014037" lon="10.8083455"><ele>109.0</ele><time>2026-04-18T13:13:14.208Z</time></trkpt><trkpt lat="43.3013383" lon="10.8082871"><ele>109.80000000000001</ele><time>2026-04-18T13:13:15.204Z</time></trkpt><trkpt lat="43.3012222" lon="10.8082649"><ele>110.60000000000001</ele><time>2026-04-18T13:13:17.213Z</time></trkpt><trkpt lat="43.3011622" lon="10.8083564"><ele>111.4</ele><time>2026-04-18T13:13:19.207Z</time></trkpt><trkpt lat="43.3011947" lon="10.8084831"><ele>112.2</ele><time>2026-04-18T13:13:21.19Z</time></trkpt><trkpt lat="43.3012456" lon="10.8086469"><ele>113.0</ele><time>2026-04-18T13:13:23.195Z</time></trkpt><trkpt lat="43.3012658" lon="10.8087563"><ele>114.60000000000001</ele><time>2026-04-18T13:13:24.204Z</time></trkpt><trkpt lat="43.3012621" lon="10.8088686"><ele>116.20000000000002</ele><time>2026-04-18T13:13:25.209Z</time></trkpt><trkpt lat="43.301226" lon="10.80898"><ele>117.8</ele><time>2026-04-18T13:13:26.207Z</time></trkpt><trkpt lat="43.3011673" lon="10.8090705"><ele>119.4</ele><time>2026-04-18T13:13:27.201Z</time></trkpt><trkpt lat="43.30109" lon="10.8091426"><ele>121.0</ele><time>2026-04-18T13:13:28.199Z</time></trkpt><trkpt lat="43.3010054" lon="10.8092189"><ele>121.0</ele><time>2026-04-18T13:13:29.203Z</time></trkpt><trkpt lat="43.3009195" lon="10.8092901"><ele>121.0</ele><time>2026-04-18T13:13:30.197Z</time></trkpt><trkpt lat="43.3008451" lon="10.8093654"><ele>121.0</ele><time>2026-04-18T13:13:31.2Z</time></trkpt><trkpt lat="43.3007775" lon="10.8094403"><ele>121.0</ele><time>2026-04-18T13:13:32.21Z</time></trkpt><trkpt lat="43.3007081" lon="10.8095165"><ele>121.0</ele><time>2026-04-18T13:13:33.2Z</time></trkpt><trkpt lat="43.3006473" lon="10.8096061"><ele>120.33333333333334</ele><time>2026-04-18T13:13:34.201Z</time></trkpt><trkpt lat="43.3005899" lon="10.809694"><ele>119.66666666666667</ele><time>2026-04-18T13:13:35.194Z</time></trkpt><trkpt lat="43.3005362" lon="10.8097883"><ele>119.0</ele><time>2026-04-18T13:13:36.206Z</time></trkpt><trkpt lat="43.3004985" lon="10.8099019"><ele>118.33333333333334</ele><time>2026-04-18T13:13:37.199Z</time></trkpt><trkpt lat="43.3004755" lon="10.8100198"><ele>117.66666666666667</ele><time>2026-04-18T13:13:38.203Z</time></trkpt><trkpt lat="43.3004576" lon="10.8101276"><ele>117.0</ele><time>2026-04-18T13:13:39.203Z</time></trkpt><trkpt lat="43.3004546" lon="10.810228"><ele>120.0</ele><time>2026-04-18T13:13:40.209Z</time></trkpt><trkpt lat="43.3004486" lon="10.8103448"><ele>123.0</ele><time>2026-04-18T13:13:41.204Z</time></trkpt><trkpt lat="43.3004506" lon="10.8104662"><ele>126.0</ele><time>2026-04-18T13:13:42.196Z</time></trkpt><trkpt lat="43.3004452" lon="10.810577"><ele>129.0</ele><time>2026-04-18T13:13:43.196Z</time></trkpt><trkpt lat="43.3004231" lon="10.8106785"><ele>132.0</ele><time>2026-04-18T13:13:44.202Z</time></trkpt><trkpt lat="43.3003327" lon="10.810776"><ele>135.0</ele><time>2026-04-18T13:13:46.19Z</time></trkpt><trkpt lat="43.30023" lon="10.8107695"><ele>135.0</ele><time>2026-04-18T13:13:48.2Z</time></trkpt><trkpt lat="43.3001578" lon="10.8106589"><ele>135.0</ele><time>2026-04-18T13:13:50.197Z</time></trkpt><trkpt lat="43.3001222" lon="10.8105809"><ele>135.0</ele><time>2026-04-18T13:13:51.203Z</time></trkpt><trkpt lat="43.3000802" lon="10.8104805"><ele>135.0</ele><time>2026-04-18T13:13:52.197Z</time></trkpt><trkpt lat="43.300041" lon="10.8103653"><ele>135.0</ele><time>2026-04-18T13:13:53.207Z</time></trkpt><trkpt lat="43.3000024" lon="10.8102517"><ele>135.0</ele><time>2026-04-18T13:13:54.198Z</time></trkpt><trkpt lat="43.2999538" lon="10.8101548"><ele>134.6</ele><time>2026-04-18T13:13:55.208Z</time></trkpt><trkpt lat="43.2998956" lon="10.8100544"><ele>134.2</ele><time>2026-04-18T13:13:56.202Z</time></trkpt><trkpt lat="43.2998434" lon="10.8099537"><ele>133.8</ele><time>2026-04-18T13:13:57.198Z</time></trkpt><trkpt lat="43.299802" lon="10.8098296"><ele>133.4</ele><time>2026-04-18T13:13:58.196Z</time></trkpt><trkpt lat="43.2997701" lon="10.8097068"><ele>133.0</ele><time>2026-04-18T13:13:59.208Z</time></trkpt><trkpt lat="43.2997343" lon="10.8096007"><ele>133.5</ele><time>2026-04-18T13:14:00.212Z</time></trkpt><trkpt lat="43.2997001" lon="10.8095113"><ele>134.0</ele><time>2026-04-18T13:14:01.207Z</time></trkpt><trkpt lat="43.299651" lon="10.8094319"><ele>134.5</ele><time>2026-04-18T13:14:02.196Z</time></trkpt><trkpt lat="43.2995936" lon="10.8093659"><ele>135.0</ele><time>2026-04-18T13:14:03.196Z</time></trkpt><trkpt lat="43.2995123" lon="10.8093343"><ele>135.5</ele><time>2026-04-18T13:14:04.201Z</time></trkpt><trkpt lat="43.2994206" lon="10.8093245"><ele>136.0</ele><time>2026-04-18T13:14:05.194Z</time></trkpt><trkpt lat="43.2993289" lon="10.8093405"><ele>137.2</ele><time>2026-04-18T13:14:06.205Z</time></trkpt><trkpt lat="43.2992331" lon="10.8093724"><ele>138.39999999999998</ele><time>2026-04-18T13:14:07.195Z</time></trkpt><trkpt lat="43.2991403" lon="10.8094072"><ele>139.6</ele><time>2026-04-18T13:14:08.203Z</time></trkpt><trkpt lat="43.2990438" lon="10.8094405"><ele>140.79999999999998</ele><time>2026-04-18T13:14:09.21Z</time></trkpt><trkpt lat="43.2989414" lon="10.8094743"><ele>142.0</ele><time>2026-04-18T13:14:10.2Z</time></trkpt><trkpt lat="43.2988356" lon="10.8095117"><ele>142.25</ele><time>2026-04-18T13:14:11.194Z</time></trkpt><trkpt lat="43.2987239" lon="10.8095548"><ele>142.5</ele><time>2026-04-18T13:14:12.206Z</time></trkpt><trkpt lat="43.2986047" lon="10.8095985"><ele>142.75</ele><time>2026-04-18T13:14:13.195Z</time></trkpt><trkpt lat="43.2984831" lon="10.8096466"><ele>143.0</ele><time>2026-04-18T13:14:14.208Z</time></trkpt><trkpt lat="43.2983571" lon="10.8096975"><ele>143.0</ele><time>2026-04-18T13:14:15.2Z</time></trkpt><trkpt lat="43.2982402" lon="10.8097504"><ele>143.0</ele><time>2026-04-18T13:14:16.202Z</time></trkpt><trkpt lat="43.2981177" lon="10.8098111"><ele>143.0</ele><time>2026-04-18T13:14:17.209Z</time></trkpt><trkpt lat="43.2979916" lon="10.8098769"><ele>143.0</ele><time>2026-04-18T13:14:18.212Z</time></trkpt><trkpt lat="43.2978535" lon="10.8099466"><ele>142.75</ele><time>2026-04-18T13:14:19.199Z</time></trkpt><trkpt lat="43.2977198" lon="10.8100211"><ele>142.5</ele><time>2026-04-18T13:14:20.214Z</time></trkpt><trkpt lat="43.297587" lon="10.8100922"><ele>142.25</ele><time>2026-04-18T13:14:21.207Z</time></trkpt><trkpt lat="43.29745" lon="10.8101655"><ele>142.0</ele><time>2026-04-18T13:14:22.199Z</time></trkpt><trkpt lat="43.2973119" lon="10.8102334"><ele>143.75</ele><time>2026-04-18T13:14:23.205Z</time></trkpt><trkpt lat="43.2971783" lon="10.8103049"><ele>145.5</ele><time>2026-04-18T13:14:24.199Z</time></trkpt><trkpt lat="43.2970439" lon="10.81037"><ele>147.25</ele><time>2026-04-18T13:14:25.191Z</time></trkpt><trkpt lat="43.2969182" lon="10.8104344"><ele>149.0</ele><time>2026-04-18T13:14:26.204Z</time></trkpt><trkpt lat="43.2967938" lon="10.8105025"><ele>149.0</ele><time>2026-04-18T13:14:27.197Z</time></trkpt><trkpt lat="43.2966655" lon="10.8105765"><ele>149.0</ele><time>2026-04-18T13:14:28.2Z</time></trkpt><trkpt lat="43.2965352" lon="10.8106474"><ele>149.0</ele><time>2026-04-18T13:14:29.203Z</time></trkpt><trkpt lat="43.2964094" lon="10.8107183"><ele>149.0</ele><time>2026-04-18T13:14:30.212Z</time></trkpt><trkpt lat="43.2962877" lon="10.8107853"><ele>149.0</ele><time>2026-04-18T13:14:31.2Z</time></trkpt><trkpt lat="43.2961675" lon="10.8108506"><ele>149.0</ele><time>2026-04-18T13:14:32.195Z</time></trkpt><trkpt lat="43.29604" lon="10.8109194"><ele>149.0</ele><time>2026-04-18T13:14:33.195Z</time></trkpt><trkpt lat="43.295907" lon="10.8109786"><ele>149.0</ele><time>2026-04-18T13:14:34.216Z</time></trkpt><trkpt lat="43.2957659" lon="10.8110083"><ele>149.25</ele><time>2026-04-18T13:14:35.193Z</time></trkpt><trkpt lat="43.2956287" lon="10.811021"><ele>149.5</ele><time>2026-04-18T13:14:36.212Z</time></trkpt><trkpt lat="43.295498" lon="10.8110142"><ele>149.75</ele><time>2026-04-18T13:14:37.207Z</time></trkpt><trkpt lat="43.2953647" lon="10.810993"><ele>150.0</ele><time>2026-04-18T13:14:38.197Z</time></trkpt><trkpt lat="43.2952223" lon="10.8109758"><ele>150.25</ele><time>2026-04-18T13:14:39.199Z</time></trkpt><trkpt lat="43.2950888" lon="10.8109601"><ele>150.5</ele><time>2026-04-18T13:14:40.194Z</time></trkpt><trkpt lat="43.2949553" lon="10.810949"><ele>150.75</ele><time>2026-04-18T13:14:41.214Z</time></trkpt><trkpt lat="43.2948165" lon="10.8109337"><ele>151.0</ele><time>2026-04-18T13:14:42.213Z</time></trkpt><trkpt lat="43.2946803" lon="10.8109163"><ele>151.0</ele><time>2026-04-18T13:14:43.197Z</time></trkpt><trkpt lat="43.2945447" lon="10.8109008"><ele>151.0</ele><time>2026-04-18T13:14:44.203Z</time></trkpt><trkpt lat="43.2944165" lon="10.8108889"><ele>151.0</ele><time>2026-04-18T13:14:45.192Z</time></trkpt><trkpt lat="43.2942934" lon="10.8108972"><ele>151.0</ele><time>2026-04-18T13:14:46.202Z</time></trkpt><trkpt lat="43.294178" lon="10.8109309"><ele>150.4</ele><time>2026-04-18T13:14:47.202Z</time></trkpt><trkpt lat="43.2940707" lon="10.8110049"><ele>149.8</ele><time>2026-04-18T13:14:48.191Z</time></trkpt><trkpt lat="43.2939834" lon="10.8110957"><ele>149.20000000000002</ele><time>2026-04-18T13:14:49.2Z</time></trkpt><trkpt lat="43.2939036" lon="10.8111936"><ele>148.6</ele><time>2026-04-18T13:14:50.198Z</time></trkpt><trkpt lat="43.2938249" lon="10.8112782"><ele>148.0</ele><time>2026-04-18T13:14:51.205Z</time></trkpt><trkpt lat="43.2937362" lon="10.8113223"><ele>150.20000000000002</ele><time>2026-04-18T13:14:52.2Z</time></trkpt><trkpt lat="43.293638" lon="10.8113242"><ele>152.4</ele><time>2026-04-18T13:14:53.206Z</time></trkpt><trkpt lat="43.2935447" lon="10.8112749"><ele>154.60000000000002</ele><time>2026-04-18T13:14:54.195Z</time></trkpt><trkpt lat="43.2934647" lon="10.8112106"><ele>156.8</ele><time>2026-04-18T13:14:55.203Z</time></trkpt><trkpt lat="43.2933876" lon="10.8111525"><ele>159.0</ele><time>2026-04-18T13:14:56.207Z</time></trkpt><trkpt lat="43.2933226" lon="10.8110944"><ele>159.0</ele><time>2026-04-18T13:14:57.194Z</time></trkpt><trkpt lat="43.2932492" lon="10.8110629"><ele>159.0</ele><time>2026-04-18T13:14:58.2Z</time></trkpt><trkpt lat="43.2931779" lon="10.8110286"><ele>159.0</ele><time>2026-04-18T13:14:59.201Z</time></trkpt><trkpt lat="43.293097" lon="10.8109891"><ele>159.0</ele><time>2026-04-18T13:15:00.204Z</time></trkpt><trkpt lat="43.293023" lon="10.8109623"><ele>159.0</ele><time>2026-04-18T13:15:01.208Z</time></trkpt><trkpt lat="43.2929535" lon="10.8109434"><ele>159.0</ele><time>2026-04-18T13:15:02.212Z</time></trkpt><trkpt lat="43.2928884" lon="10.8109144"><ele>160.83333333333334</ele><time>2026-04-18T13:15:03.197Z</time></trkpt><trkpt lat="43.2928189" lon="10.8108896"><ele>162.66666666666666</ele><time>2026-04-18T13:15:04.202Z</time></trkpt><trkpt lat="43.2927451" lon="10.8108684"><ele>164.5</ele><time>2026-04-18T13:15:05.219Z</time></trkpt><trkpt lat="43.2926717" lon="10.8108366"><ele>166.33333333333331</ele><time>2026-04-18T13:15:06.211Z</time></trkpt><trkpt lat="43.2925971" lon="10.8108074"><ele>168.16666666666666</ele><time>2026-04-18T13:15:07.209Z</time></trkpt><trkpt lat="43.2925152" lon="10.8107878"><ele>170.0</ele><time>2026-04-18T13:15:08.227Z</time></trkpt><trkpt lat="43.2924292" lon="10.8107801"><ele>170.0</ele><time>2026-04-18T13:15:09.201Z</time></trkpt><trkpt lat="43.2923405" lon="10.810772"><ele>170.0</ele><time>2026-04-18T13:15:10.221Z</time></trkpt><trkpt lat="43.2922483" lon="10.8107588"><ele>170.0</ele><time>2026-04-18T13:15:11.21Z</time></trkpt><trkpt lat="43.2921551" lon="10.8107574"><ele>170.0</ele><time>2026-04-18T13:15:12.213Z</time></trkpt><trkpt lat="43.2920612" lon="10.8107651"><ele>170.0</ele><time>2026-04-18T13:15:13.203Z</time></trkpt><trkpt lat="43.2919675" lon="10.810774"><ele>171.66666666666666</ele><time>2026-04-18T13:15:14.215Z</time></trkpt><trkpt lat="43.2918788" lon="10.8107684"><ele>173.33333333333331</ele><time>2026-04-18T13:15:15.214Z</time></trkpt><trkpt lat="43.2917998" lon="10.810748"><ele>175.0</ele><time>2026-04-18T13:15:16.208Z</time></trkpt><trkpt lat="43.2917283" lon="10.8107006"><ele>176.66666666666666</ele><time>2026-04-18T13:15:17.204Z</time></trkpt><trkpt lat="43.2916567" lon="10.8106428"><ele>178.33333333333334</ele><time>2026-04-18T13:15:18.2Z</time></trkpt><trkpt lat="43.2915963" lon="10.8105724"><ele>180.0</ele><time>2026-04-18T13:15:19.215Z</time></trkpt><trkpt lat="43.2915385" lon="10.8104943"><ele>180.0</ele><time>2026-04-18T13:15:20.195Z</time></trkpt><trkpt lat="43.2914847" lon="10.8103962"><ele>180.0</ele><time>2026-04-18T13:15:21.205Z</time></trkpt><trkpt lat="43.2914372" lon="10.8102959"><ele>180.0</ele><time>2026-04-18T13:15:22.201Z</time></trkpt><trkpt lat="43.29139" lon="10.8101968"><ele>180.0</ele><time>2026-04-18T13:15:23.209Z</time></trkpt><trkpt lat="43.2913409" lon="10.8100972"><ele>180.0</ele><time>2026-04-18T13:15:24.221Z</time></trkpt><trkpt lat="43.2912923" lon="10.810015"><ele>180.0</ele><time>2026-04-18T13:15:25.195Z</time></trkpt><trkpt lat="43.2912352" lon="10.8099322"><ele>181.66666666666666</ele><time>2026-04-18T13:15:26.213Z</time></trkpt><trkpt lat="43.2911805" lon="10.8098506"><ele>183.33333333333334</ele><time>2026-04-18T13:15:27.212Z</time></trkpt><trkpt lat="43.2911388" lon="10.8097674"><ele>185.0</ele><time>2026-04-18T13:15:28.212Z</time></trkpt><trkpt lat="43.2911025" lon="10.8096668"><ele>186.66666666666669</ele><time>2026-04-18T13:15:29.208Z</time></trkpt><trkpt lat="43.2910824" lon="10.8095598"><ele>188.33333333333334</ele><time>2026-04-18T13:15:30.202Z</time></trkpt><trkpt lat="43.2910775" lon="10.8094649"><ele>190.0</ele><time>2026-04-18T13:15:31.194Z</time></trkpt><trkpt lat="43.2910726" lon="10.8093713"><ele>190.14285714285714</ele><time>2026-04-18T13:15:32.201Z</time></trkpt><trkpt lat="43.2910657" lon="10.8092737"><ele>190.28571428571428</ele><time>2026-04-18T13:15:33.207Z</time></trkpt><trkpt lat="43.2910643" lon="10.8091684"><ele>190.42857142857144</ele><time>2026-04-18T13:15:34.215Z</time></trkpt><trkpt lat="43.2910737" lon="10.8090605"><ele>190.57142857142856</ele><time>2026-04-18T13:15:35.202Z</time></trkpt><trkpt lat="43.2910951" lon="10.8089521"><ele>190.7142857142857</ele><time>2026-04-18T13:15:36.214Z</time></trkpt><trkpt lat="43.2911137" lon="10.8088559"><ele>190.85714285714286</ele><time>2026-04-18T13:15:37.214Z</time></trkpt><trkpt lat="43.2911362" lon="10.8087734"><ele>191.0</ele><time>2026-04-18T13:15:38.209Z</time></trkpt><trkpt lat="43.2911643" lon="10.8086877"><ele>191.0</ele><time>2026-04-18T13:15:39.215Z</time></trkpt><trkpt lat="43.2912042" lon="10.8086006"><ele>191.0</ele><time>2026-04-18T13:15:40.214Z</time></trkpt><trkpt lat="43.2912504" lon="10.8085248"><ele>191.0</ele><time>2026-04-18T13:15:41.217Z</time></trkpt><trkpt lat="43.2913097" lon="10.8084582"><ele>191.0</ele><time>2026-04-18T13:15:42.202Z</time></trkpt><trkpt lat="43.2913499" lon="10.8083836"><ele>191.0</ele><time>2026-04-18T13:15:43.202Z</time></trkpt><trkpt lat="43.2913667" lon="10.8082963"><ele>191.0</ele><time>2026-04-18T13:15:44.21Z</time></trkpt><trkpt lat="43.291357" lon="10.8082018"><ele>191.0</ele><time>2026-04-18T13:15:45.207Z</time></trkpt><trkpt lat="43.2913296" lon="10.8081025"><ele>191.83333333333331</ele><time>2026-04-18T13:15:46.201Z</time></trkpt><trkpt lat="43.2913011" lon="10.8079941"><ele>192.66666666666666</ele><time>2026-04-18T13:15:47.201Z</time></trkpt><trkpt lat="43.2912685" lon="10.8078824"><ele>193.5</ele><time>2026-04-18T13:15:48.206Z</time></trkpt><trkpt lat="43.2912365" lon="10.807766"><ele>194.33333333333331</ele><time>2026-04-18T13:15:49.209Z</time></trkpt><trkpt lat="43.2912145" lon="10.8076454"><ele>195.16666666666666</ele><time>2026-04-18T13:15:50.188Z</time></trkpt><trkpt lat="43.2911931" lon="10.8075274"><ele>196.0</ele><time>2026-04-18T13:15:51.212Z</time></trkpt><trkpt lat="43.2911754" lon="10.8074079"><ele>196.33333333333331</ele><time>2026-04-18T13:15:52.193Z</time></trkpt><trkpt lat="43.2911621" lon="10.8072835"><ele>196.66666666666666</ele><time>2026-04-18T13:15:53.195Z</time></trkpt><trkpt lat="43.2911436" lon="10.8071649"><ele>197.0</ele><time>2026-04-18T13:15:54.217Z</time></trkpt><trkpt lat="43.2911189" lon="10.8070413"><ele>197.33333333333331</ele><time>2026-04-18T13:15:55.195Z</time></trkpt><trkpt lat="43.2911004" lon="10.8069389"><ele>197.66666666666666</ele><time>2026-04-18T13:15:56.195Z</time></trkpt><trkpt lat="43.2910808" lon="10.8068355"><ele>198.0</ele><time>2026-04-18T13:15:57.194Z</time></trkpt><trkpt lat="43.2910515" lon="10.8067324"><ele>198.0</ele><time>2026-04-18T13:15:58.188Z</time></trkpt><trkpt lat="43.2910114" lon="10.806635"><ele>198.0</ele><time>2026-04-18T13:15:59.201Z</time></trkpt><trkpt lat="43.2909598" lon="10.8065539"><ele>198.0</ele><time>2026-04-18T13:16:00.19Z</time></trkpt><trkpt lat="43.2909035" lon="10.8064879"><ele>198.0</ele><time>2026-04-18T13:16:01.193Z</time></trkpt><trkpt lat="43.290853" lon="10.8064273"><ele>198.0</ele><time>2026-04-18T13:16:02.2Z</time></trkpt><trkpt lat="43.2907793" lon="10.806371"><ele>198.0</ele><time>2026-04-18T13:16:04.198Z</time></trkpt><trkpt lat="43.2907272" lon="10.8064279"><ele>198.0</ele><time>2026-04-18T13:16:19.211Z</time></trkpt><trkpt lat="43.2906851" lon="10.806516"><ele>198.0</ele><time>2026-04-18T13:16:23.199Z</time></trkpt><trkpt lat="43.2906809" lon="10.8066104"><ele>198.0</ele><time>2026-04-18T13:16:25.202Z</time></trkpt><trkpt lat="43.2906827" lon="10.8067604"><ele>198.0</ele><time>2026-04-18T13:16:27.203Z</time></trkpt><trkpt lat="43.290686" lon="10.8069268"><ele>198.0</ele><time>2026-04-18T13:16:29.195Z</time></trkpt><trkpt lat="43.2906796" lon="10.8070271"><ele>198.0</ele><time>2026-04-18T13:16:30.198Z</time></trkpt><trkpt lat="43.2906658" lon="10.807147"><ele>198.4</ele><time>2026-04-18T13:16:31.193Z</time></trkpt><trkpt lat="43.2906449" lon="10.8072923"><ele>198.8</ele><time>2026-04-18T13:16:32.196Z</time></trkpt><trkpt lat="43.2906195" lon="10.8074333"><ele>199.2</ele><time>2026-04-18T13:16:33.197Z</time></trkpt><trkpt lat="43.2905896" lon="10.8075705"><ele>199.6</ele><time>2026-04-18T13:16:34.201Z</time></trkpt><trkpt lat="43.2905599" lon="10.8077042"><ele>200.0</ele><time>2026-04-18T13:16:35.199Z</time></trkpt><trkpt lat="43.2905235" lon="10.8078333"><ele>202.8</ele><time>2026-04-18T13:16:36.203Z</time></trkpt><trkpt lat="43.290484" lon="10.8079533"><ele>205.6</ele><time>2026-04-18T13:16:37.198Z</time></trkpt><trkpt lat="43.2904366" lon="10.8080566"><ele>208.39999999999998</ele><time>2026-04-18T13:16:38.203Z</time></trkpt><trkpt lat="43.2903812" lon="10.8081498"><ele>211.2</ele><time>2026-04-18T13:16:39.2Z</time></trkpt><trkpt lat="43.2903138" lon="10.8082348"><ele>214.0</ele><time>2026-04-18T13:16:40.201Z</time></trkpt><trkpt lat="43.2902438" lon="10.8083085"><ele>213.99999999999997</ele><time>2026-04-18T13:16:41.203Z</time></trkpt><trkpt lat="43.2901736" lon="10.8083867"><ele>214.0</ele><time>2026-04-18T13:16:42.198Z</time></trkpt><trkpt lat="43.290111" lon="10.8084719"><ele>214.0</ele><time>2026-04-18T13:16:43.198Z</time></trkpt><trkpt lat="43.2900617" lon="10.8085714"><ele>214.0</ele><time>2026-04-18T13:16:44.201Z</time></trkpt><trkpt lat="43.2900221" lon="10.8086839"><ele>213.99999999999997</ele><time>2026-04-18T13:16:45.197Z</time></trkpt><trkpt lat="43.2899903" lon="10.8087896"><ele>214.0</ele><time>2026-04-18T13:16:46.199Z</time></trkpt><trkpt lat="43.2899729" lon="10.8089021"><ele>213.83333333333331</ele><time>2026-04-18T13:16:47.194Z</time></trkpt><trkpt lat="43.2899504" lon="10.8090281"><ele>213.66666666666666</ele><time>2026-04-18T13:16:48.202Z</time></trkpt><trkpt lat="43.2899314" lon="10.8091504"><ele>213.5</ele><time>2026-04-18T13:16:49.203Z</time></trkpt><trkpt lat="43.2899081" lon="10.8092577"><ele>213.33333333333331</ele><time>2026-04-18T13:16:50.216Z</time></trkpt><trkpt lat="43.2898733" lon="10.8093377"><ele>213.16666666666666</ele><time>2026-04-18T13:16:51.192Z</time></trkpt><trkpt lat="43.2897999" lon="10.8094325"><ele>213.0</ele><time>2026-04-18T13:16:53.206Z</time></trkpt><trkpt lat="43.2896993" lon="10.8094843"><ele>215.33333333333334</ele><time>2026-04-18T13:16:55.203Z</time></trkpt><trkpt lat="43.2896432" lon="10.8095267"><ele>217.66666666666669</ele><time>2026-04-18T13:16:56.209Z</time></trkpt><trkpt lat="43.2895872" lon="10.8095933"><ele>220.0</ele><time>2026-04-18T13:16:57.197Z</time></trkpt><trkpt lat="43.2895292" lon="10.80968"><ele>222.33333333333334</ele><time>2026-04-18T13:16:58.198Z</time></trkpt><trkpt lat="43.2894821" lon="10.8097874"><ele>224.66666666666669</ele><time>2026-04-18T13:16:59.195Z</time></trkpt><trkpt lat="43.2894342" lon="10.8098803"><ele>227.0</ele><time>2026-04-18T13:17:00.203Z</time></trkpt><trkpt lat="43.2893894" lon="10.8099718"><ele>227.00000000000003</ele><time>2026-04-18T13:17:01.188Z</time></trkpt><trkpt lat="43.2893553" lon="10.8100784"><ele>227.0</ele><time>2026-04-18T13:17:02.195Z</time></trkpt><trkpt lat="43.2893463" lon="10.8101918"><ele>227.0</ele><time>2026-04-18T13:17:03.191Z</time></trkpt><trkpt lat="43.2893495" lon="10.8103124"><ele>227.0</ele><time>2026-04-18T13:17:04.201Z</time></trkpt><trkpt lat="43.2893763" lon="10.8104156"><ele>227.00000000000003</ele><time>2026-04-18T13:17:05.19Z</time></trkpt><trkpt lat="43.2893964" lon="10.8105158"><ele>227.0</ele><time>2026-04-18T13:17:06.201Z</time></trkpt><trkpt lat="43.2894023" lon="10.8106137"><ele>227.00000000000003</ele><time>2026-04-18T13:17:07.196Z</time></trkpt><trkpt lat="43.2893783" lon="10.8107336"><ele>227.0</ele><time>2026-04-18T13:17:08.193Z</time></trkpt><trkpt lat="43.2893548" lon="10.8108286"><ele>227.0</ele><time>2026-04-18T13:17:09.205Z</time></trkpt><trkpt lat="43.2893206" lon="10.8109179"><ele>227.0</ele><time>2026-04-18T13:17:10.192Z</time></trkpt><trkpt lat="43.2892817" lon="10.8110222"><ele>227.00000000000003</ele><time>2026-04-18T13:17:11.198Z</time></trkpt><trkpt lat="43.2892391" lon="10.811128"><ele>227.0</ele><time>2026-04-18T13:17:12.199Z</time></trkpt><trkpt lat="43.2892" lon="10.8112374"><ele>226.83333333333334</ele><time>2026-04-18T13:17:13.197Z</time></trkpt><trkpt lat="43.2891508" lon="10.8113459"><ele>226.66666666666669</ele><time>2026-04-18T13:17:14.2Z</time></trkpt><trkpt lat="43.2891219" lon="10.8114435"><ele>226.5</ele><time>2026-04-18T13:17:15.198Z</time></trkpt><trkpt lat="43.2890916" lon="10.8115267"><ele>226.33333333333331</ele><time>2026-04-18T13:17:16.202Z</time></trkpt><trkpt lat="43.2890166" lon="10.8116403"><ele>226.16666666666666</ele><time>2026-04-18T13:17:18.195Z</time></trkpt><trkpt lat="43.2889289" lon="10.8116548"><ele>226.0</ele><time>2026-04-18T13:17:20.194Z</time></trkpt><trkpt lat="43.2888755" lon="10.8115763"><ele>225.99999999999997</ele><time>2026-04-18T13:17:22.193Z</time></trkpt><trkpt lat="43.288898" lon="10.8114245"><ele>226.0</ele><time>2026-04-18T13:17:24.185Z</time></trkpt><trkpt lat="43.28893" lon="10.8113463"><ele>226.0</ele><time>2026-04-18T13:17:25.203Z</time></trkpt><trkpt lat="43.2889592" lon="10.8112626"><ele>226.0</ele><time>2026-04-18T13:17:26.196Z</time></trkpt><trkpt lat="43.2889729" lon="10.8111535"><ele>225.99999999999997</ele><time>2026-04-18T13:17:27.199Z</time></trkpt><trkpt lat="43.2889787" lon="10.8110458"><ele>226.0</ele><time>2026-04-18T13:17:28.201Z</time></trkpt><trkpt lat="43.2889686" lon="10.8109363"><ele>226.20000000000002</ele><time>2026-04-18T13:17:29.198Z</time></trkpt><trkpt lat="43.2889495" lon="10.8108245"><ele>226.40000000000003</ele><time>2026-04-18T13:17:30.194Z</time></trkpt><trkpt lat="43.2889201" lon="10.8106999"><ele>226.6</ele><time>2026-04-18T13:17:31.198Z</time></trkpt><trkpt lat="43.2888911" lon="10.8105746"><ele>226.8</ele><time>2026-04-18T13:17:32.209Z</time></trkpt><trkpt lat="43.2888633" lon="10.810456"><ele>227.0</ele><time>2026-04-18T13:17:33.206Z</time></trkpt><trkpt lat="43.2888405" lon="10.8103331"><ele>230.0</ele><time>2026-04-18T13:17:34.205Z</time></trkpt><trkpt lat="43.2888145" lon="10.8102099"><ele>233.0</ele><time>2026-04-18T13:17:35.198Z</time></trkpt><trkpt lat="43.2888089" lon="10.8100734"><ele>236.0</ele><time>2026-04-18T13:17:36.197Z</time></trkpt><trkpt lat="43.2888227" lon="10.8099264"><ele>239.0</ele><time>2026-04-18T13:17:37.194Z</time></trkpt><trkpt lat="43.2888454" lon="10.8097959"><ele>242.0</ele><time>2026-04-18T13:17:38.202Z</time></trkpt><trkpt lat="43.2888602" lon="10.8096679"><ele>243.0</ele><time>2026-04-18T13:17:39.201Z</time></trkpt><trkpt lat="43.2888712" lon="10.8095439"><ele>244.0</ele><time>2026-04-18T13:17:40.204Z</time></trkpt><trkpt lat="43.2888755" lon="10.8094084"><ele>245.0</ele><time>2026-04-18T13:17:41.194Z</time></trkpt><trkpt lat="43.2888719" lon="10.809271"><ele>246.0</ele><time>2026-04-18T13:17:42.201Z</time></trkpt><trkpt lat="43.2888469" lon="10.8091379"><ele>247.0</ele><time>2026-04-18T13:17:43.201Z</time></trkpt><trkpt lat="43.2887966" lon="10.8090327"><ele>246.99999999999997</ele><time>2026-04-18T13:17:44.199Z</time></trkpt><trkpt lat="43.2887483" lon="10.8089622"><ele>247.0</ele><time>2026-04-18T13:17:45.182Z</time></trkpt><trkpt lat="43.2886822" lon="10.8089448"><ele>247.0</ele><time>2026-04-18T13:17:46.208Z</time></trkpt><trkpt lat="43.2885822" lon="10.8090254"><ele>247.0</ele><time>2026-04-18T13:17:48.198Z</time></trkpt><trkpt lat="43.2885319" lon="10.8091663"><ele>246.99999999999997</ele><time>2026-04-18T13:17:50.2Z</time></trkpt><trkpt lat="43.2885153" lon="10.8092578"><ele>247.0</ele><time>2026-04-18T13:17:51.195Z</time></trkpt><trkpt lat="43.288497" lon="10.80937"><ele>247.0</ele><time>2026-04-18T13:17:52.195Z</time></trkpt><trkpt lat="43.2884719" lon="10.8094873"><ele>247.0</ele><time>2026-04-18T13:17:53.204Z</time></trkpt><trkpt lat="43.2884448" lon="10.8096239"><ele>247.0</ele><time>2026-04-18T13:17:54.203Z</time></trkpt><trkpt lat="43.2884132" lon="10.8097685"><ele>247.0</ele><time>2026-04-18T13:17:55.194Z</time></trkpt><trkpt lat="43.2883865" lon="10.8099186"><ele>247.0</ele><time>2026-04-18T13:17:56.203Z</time></trkpt><trkpt lat="43.2883616" lon="10.8100742"><ele>246.0</ele><time>2026-04-18T13:17:57.196Z</time></trkpt><trkpt lat="43.288358" lon="10.810218"><ele>245.0</ele><time>2026-04-18T13:17:58.21Z</time></trkpt><trkpt lat="43.2883624" lon="10.810363"><ele>244.0</ele><time>2026-04-18T13:17:59.193Z</time></trkpt><trkpt lat="43.2883551" lon="10.8105105"><ele>243.0</ele><time>2026-04-18T13:18:00.205Z</time></trkpt><trkpt lat="43.2883501" lon="10.8106589"><ele>242.0</ele><time>2026-04-18T13:18:01.191Z</time></trkpt><trkpt lat="43.2883365" lon="10.8108092"><ele>242.0</ele><time>2026-04-18T13:18:02.2Z</time></trkpt><trkpt lat="43.2883021" lon="10.8109371"><ele>242.0</ele><time>2026-04-18T13:18:03.196Z</time></trkpt><trkpt lat="43.2882451" lon="10.8110526"><ele>242.0</ele><time>2026-04-18T13:18:04.201Z</time></trkpt><trkpt lat="43.2881723" lon="10.8111577"><ele>242.0</ele><time>2026-04-18T13:18:05.2Z</time></trkpt><trkpt lat="43.2880924" lon="10.811245"><ele>242.0</ele><time>2026-04-18T13:18:06.196Z</time></trkpt><trkpt lat="43.2879943" lon="10.8113215"><ele>243.6</ele><time>2026-04-18T13:18:07.193Z</time></trkpt><trkpt lat="43.2879112" lon="10.8114054"><ele>245.2</ele><time>2026-04-18T13:18:08.194Z</time></trkpt><trkpt lat="43.2878231" lon="10.8114839"><ele>246.8</ele><time>2026-04-18T13:18:09.184Z</time></trkpt><trkpt lat="43.2877369" lon="10.8115588"><ele>248.4</ele><time>2026-04-18T13:18:10.199Z</time></trkpt><trkpt lat="43.2876492" lon="10.8116171"><ele>250.0</ele><time>2026-04-18T13:18:11.197Z</time></trkpt><trkpt lat="43.2875546" lon="10.8116495"><ele>250.0</ele><time>2026-04-18T13:18:12.188Z</time></trkpt><trkpt lat="43.2874654" lon="10.8116659"><ele>250.0</ele><time>2026-04-18T13:18:13.192Z</time></trkpt><trkpt lat="43.2873838" lon="10.8116866"><ele>250.0</ele><time>2026-04-18T13:18:14.193Z</time></trkpt><trkpt lat="43.2872973" lon="10.8117321"><ele>250.0</ele><time>2026-04-18T13:18:15.205Z</time></trkpt><trkpt lat="43.2872121" lon="10.8117847"><ele>250.0</ele><time>2026-04-18T13:18:16.204Z</time></trkpt><trkpt lat="43.2871307" lon="10.8118648"><ele>252.8</ele><time>2026-04-18T13:18:17.197Z</time></trkpt><trkpt lat="43.2870582" lon="10.81194"><ele>255.6</ele><time>2026-04-18T13:18:18.197Z</time></trkpt><trkpt lat="43.2869988" lon="10.8120237"><ele>258.4</ele><time>2026-04-18T13:18:19.208Z</time></trkpt><trkpt lat="43.2869483" lon="10.8121237"><ele>261.2</ele><time>2026-04-18T13:18:20.199Z</time></trkpt><trkpt lat="43.286915" lon="10.8122545"><ele>264.0</ele><time>2026-04-18T13:18:21.197Z</time></trkpt><trkpt lat="43.2868989" lon="10.8123869"><ele>264.0</ele><time>2026-04-18T13:18:22.186Z</time></trkpt><trkpt lat="43.2869051" lon="10.8125281"><ele>264.0</ele><time>2026-04-18T13:18:23.188Z</time></trkpt><trkpt lat="43.2869254" lon="10.8126629"><ele>264.0</ele><time>2026-04-18T13:18:24.207Z</time></trkpt><trkpt lat="43.2869618" lon="10.8127998"><ele>264.0</ele><time>2026-04-18T13:18:25.18Z</time></trkpt><trkpt lat="43.2870002" lon="10.8129287"><ele>264.0</ele><time>2026-04-18T13:18:26.204Z</time></trkpt><trkpt lat="43.2870256" lon="10.813051"><ele>263.4</ele><time>2026-04-18T13:18:27.198Z</time></trkpt><trkpt lat="43.2870342" lon="10.8131622"><ele>262.79999999999995</ele><time>2026-04-18T13:18:28.202Z</time></trkpt><trkpt lat="43.2870181" lon="10.8132792"><ele>262.20000000000005</ele><time>2026-04-18T13:18:29.191Z</time></trkpt><trkpt lat="43.2869144" lon="10.8134374"><ele>261.6</ele><time>2026-04-18T13:18:31.195Z</time></trkpt><trkpt lat="43.2868367" lon="10.813524"><ele>261.0</ele><time>2026-04-18T13:18:32.201Z</time></trkpt><trkpt lat="43.2867542" lon="10.8136057"><ele>259.8</ele><time>2026-04-18T13:18:33.195Z</time></trkpt><trkpt lat="43.2866561" lon="10.8136815"><ele>258.6</ele><time>2026-04-18T13:18:34.206Z</time></trkpt><trkpt lat="43.2865584" lon="10.8137544"><ele>257.4</ele><time>2026-04-18T13:18:35.197Z</time></trkpt><trkpt lat="43.286476" lon="10.8138338"><ele>256.2</ele><time>2026-04-18T13:18:36.194Z</time></trkpt><trkpt lat="43.2863925" lon="10.813909"><ele>255.0</ele><time>2026-04-18T13:18:37.2Z</time></trkpt><trkpt lat="43.2863237" lon="10.8139988"><ele>256.8333333333333</ele><time>2026-04-18T13:18:38.211Z</time></trkpt><trkpt lat="43.2862695" lon="10.8140977"><ele>258.6666666666667</ele><time>2026-04-18T13:18:39.197Z</time></trkpt><trkpt lat="43.2862321" lon="10.8142124"><ele>260.5</ele><time>2026-04-18T13:18:40.191Z</time></trkpt><trkpt lat="43.2862051" lon="10.8143267"><ele>262.33333333333337</ele><time>2026-04-18T13:18:41.185Z</time></trkpt><trkpt lat="43.2861642" lon="10.8144371"><ele>264.1666666666667</ele><time>2026-04-18T13:18:42.198Z</time></trkpt><trkpt lat="43.2861122" lon="10.8145257"><ele>266.0</ele><time>2026-04-18T13:18:43.2Z</time></trkpt><trkpt lat="43.2860527" lon="10.8145889"><ele>266.0</ele><time>2026-04-18T13:18:44.203Z</time></trkpt><trkpt lat="43.285977" lon="10.8146357"><ele>266.0</ele><time>2026-04-18T13:18:45.187Z</time></trkpt><trkpt lat="43.2858985" lon="10.8146677"><ele>266.0</ele><time>2026-04-18T13:18:46.201Z</time></trkpt><trkpt lat="43.2858208" lon="10.8146939"><ele>266.0</ele><time>2026-04-18T13:18:47.195Z</time></trkpt><trkpt lat="43.2857358" lon="10.8147123"><ele>266.0</ele><time>2026-04-18T13:18:48.206Z</time></trkpt><trkpt lat="43.2856481" lon="10.8147366"><ele>266.0</ele><time>2026-04-18T13:18:49.204Z</time></trkpt><trkpt lat="43.2855687" lon="10.8147816"><ele>267.0</ele><time>2026-04-18T13:18:50.198Z</time></trkpt><trkpt lat="43.2854895" lon="10.8148422"><ele>268.0</ele><time>2026-04-18T13:18:51.199Z</time></trkpt><trkpt lat="43.2854206" lon="10.8149101"><ele>269.0</ele><time>2026-04-18T13:18:52.188Z</time></trkpt><trkpt lat="43.2853563" lon="10.814989"><ele>270.0</ele><time>2026-04-18T13:18:53.196Z</time></trkpt><trkpt lat="43.2852841" lon="10.8150592"><ele>271.0</ele><time>2026-04-18T13:18:54.197Z</time></trkpt><trkpt lat="43.2852144" lon="10.8151487"><ele>272.0</ele><time>2026-04-18T13:18:55.196Z</time></trkpt><trkpt lat="43.2851387" lon="10.8152476"><ele>272.0</ele><time>2026-04-18T13:18:56.212Z</time></trkpt><trkpt lat="43.2850767" lon="10.8153531"><ele>272.0</ele><time>2026-04-18T13:18:57.205Z</time></trkpt><trkpt lat="43.2850184" lon="10.8154513"><ele>272.0</ele><time>2026-04-18T13:18:58.187Z</time></trkpt><trkpt lat="43.284951" lon="10.8155312"><ele>272.0</ele><time>2026-04-18T13:18:59.197Z</time></trkpt><trkpt lat="43.2848875" lon="10.8156052"><ele>272.0</ele><time>2026-04-18T13:19:00.199Z</time></trkpt><trkpt lat="43.28482" lon="10.8156743"><ele>272.0</ele><time>2026-04-18T13:19:01.201Z</time></trkpt><trkpt lat="43.2847573" lon="10.8157512"><ele>273.8</ele><time>2026-04-18T13:19:02.193Z</time></trkpt><trkpt lat="43.2846995" lon="10.815817"><ele>275.6</ele><time>2026-04-18T13:19:03.21Z</time></trkpt><trkpt lat="43.2846164" lon="10.8159163"><ele>277.40000000000003</ele><time>2026-04-18T13:19:05.196Z</time></trkpt><trkpt lat="43.2845341" lon="10.815969"><ele>279.2</ele><time>2026-04-18T13:19:07.21Z</time></trkpt><trkpt lat="43.284457" lon="10.8159613"><ele>281.0</ele><time>2026-04-18T13:19:09.198Z</time></trkpt><trkpt lat="43.2843799" lon="10.8158276"><ele>281.0</ele><time>2026-04-18T13:19:11.195Z</time></trkpt><trkpt lat="43.2843358" lon="10.8157623"><ele>281.0</ele><time>2026-04-18T13:19:12.192Z</time></trkpt><trkpt lat="43.2842941" lon="10.8156744"><ele>281.0</ele><time>2026-04-18T13:19:13.19Z</time></trkpt><trkpt lat="43.2842389" lon="10.8155822"><ele>281.0</ele><time>2026-04-18T13:19:14.193Z</time></trkpt><trkpt lat="43.2841804" lon="10.8154912"><ele>281.0</ele><time>2026-04-18T13:19:15.193Z</time></trkpt><trkpt lat="43.2841319" lon="10.8154012"><ele>281.0</ele><time>2026-04-18T13:19:16.201Z</time></trkpt><trkpt lat="43.2840669" lon="10.8153215"><ele>281.0</ele><time>2026-04-18T13:19:17.202Z</time></trkpt><trkpt lat="43.2839985" lon="10.8152413"><ele>281.0</ele><time>2026-04-18T13:19:18.206Z</time></trkpt><trkpt lat="43.2839069" lon="10.8152027"><ele>281.0</ele><time>2026-04-18T13:19:19.215Z</time></trkpt><trkpt lat="43.2837887" lon="10.8151974"><ele>281.0</ele><time>2026-04-18T13:19:20.204Z</time></trkpt><trkpt lat="43.2836788" lon="10.815234"><ele>281.0</ele><time>2026-04-18T13:19:21.203Z</time></trkpt><trkpt lat="43.2835602" lon="10.8152642"><ele>280.6666666666667</ele><time>2026-04-18T13:19:22.199Z</time></trkpt><trkpt lat="43.2834678" lon="10.8153026"><ele>280.33333333333337</ele><time>2026-04-18T13:19:23.197Z</time></trkpt><trkpt lat="43.283362" lon="10.815328"><ele>280.0</ele><time>2026-04-18T13:19:24.206Z</time></trkpt><trkpt lat="43.2832868" lon="10.8153362"><ele>279.6666666666667</ele><time>2026-04-18T13:19:25.195Z</time></trkpt><trkpt lat="43.2832158" lon="10.815286"><ele>279.3333333333333</ele><time>2026-04-18T13:19:26.216Z</time></trkpt><trkpt lat="43.2831768" lon="10.8152076"><ele>279.0</ele><time>2026-04-18T13:19:27.19Z</time></trkpt><trkpt lat="43.2831744" lon="10.8150742"><ele>281.59999999999997</ele><time>2026-04-18T13:19:29.197Z</time></trkpt><trkpt lat="43.2832633" lon="10.8149564"><ele>284.2</ele><time>2026-04-18T13:19:31.206Z</time></trkpt><trkpt lat="43.2833411" lon="10.8148863"><ele>286.79999999999995</ele><time>2026-04-18T13:19:32.206Z</time></trkpt><trkpt lat="43.2834227" lon="10.8148165"><ele>289.4</ele><time>2026-04-18T13:19:33.195Z</time></trkpt><trkpt lat="43.2835132" lon="10.8147266"><ele>292.0</ele><time>2026-04-18T13:19:34.198Z</time></trkpt><trkpt lat="43.2836025" lon="10.8146349"><ele>292.0</ele><time>2026-04-18T13:19:35.202Z</time></trkpt><trkpt lat="43.28369" lon="10.8145538"><ele>292.0</ele><time>2026-04-18T13:19:36.202Z</time></trkpt><trkpt lat="43.2837753" lon="10.8144745"><ele>292.0</ele><time>2026-04-18T13:19:37.192Z</time></trkpt><trkpt lat="43.2838651" lon="10.8144044"><ele>292.0</ele><time>2026-04-18T13:19:38.2Z</time></trkpt><trkpt lat="43.2839585" lon="10.8143498"><ele>292.0</ele><time>2026-04-18T13:19:39.2Z</time></trkpt><trkpt lat="43.2840426" lon="10.8142932"><ele>293.0</ele><time>2026-04-18T13:19:40.212Z</time></trkpt><trkpt lat="43.2841272" lon="10.8142346"><ele>294.0</ele><time>2026-04-18T13:19:41.192Z</time></trkpt><trkpt lat="43.2842054" lon="10.8141592"><ele>295.0</ele><time>2026-04-18T13:19:42.203Z</time></trkpt><trkpt lat="43.2842685" lon="10.8140708"><ele>296.0</ele><time>2026-04-18T13:19:43.204Z</time></trkpt><trkpt lat="43.2843253" lon="10.8139616"><ele>297.0</ele><time>2026-04-18T13:19:44.194Z</time></trkpt><trkpt lat="43.2843711" lon="10.8138577"><ele>297.0</ele><time>2026-04-18T13:19:45.206Z</time></trkpt><trkpt lat="43.284415" lon="10.813739"><ele>297.0</ele><time>2026-04-18T13:19:46.205Z</time></trkpt><trkpt lat="43.2844491" lon="10.8136118"><ele>297.0</ele><time>2026-04-18T13:19:47.198Z</time></trkpt><trkpt lat="43.284449" lon="10.8134827"><ele>297.0</ele><time>2026-04-18T13:19:48.203Z</time></trkpt><trkpt lat="43.2844271" lon="10.8133392"><ele>297.0</ele><time>2026-04-18T13:19:49.202Z</time></trkpt><trkpt lat="43.284418" lon="10.8132003"><ele>298.6666666666667</ele><time>2026-04-18T13:19:50.197Z</time></trkpt><trkpt lat="43.2843999" lon="10.8130719"><ele>300.3333333333333</ele><time>2026-04-18T13:19:51.2Z</time></trkpt><trkpt lat="43.2843895" lon="10.8129495"><ele>302.0</ele><time>2026-04-18T13:19:52.201Z</time></trkpt><trkpt lat="43.2843802" lon="10.8128283"><ele>303.66666666666663</ele><time>2026-04-18T13:19:53.196Z</time></trkpt><trkpt lat="43.2843919" lon="10.8127131"><ele>305.3333333333333</ele><time>2026-04-18T13:19:54.198Z</time></trkpt><trkpt lat="43.2844127" lon="10.8126117"><ele>307.0</ele><time>2026-04-18T13:19:55.19Z</time></trkpt><trkpt lat="43.2844855" lon="10.8124595"><ele>310.0</ele><time>2026-04-18T13:19:57.195Z</time></trkpt><trkpt lat="43.2845247" lon="10.8123708"><ele>313.0</ele><time>2026-04-18T13:19:58.205Z</time></trkpt><trkpt lat="43.2845434" lon="10.8122726"><ele>316.0</ele><time>2026-04-18T13:19:59.203Z</time></trkpt><trkpt lat="43.2845592" lon="10.8121677"><ele>319.0</ele><time>2026-04-18T13:20:00.205Z</time></trkpt><trkpt lat="43.2845541" lon="10.8120503"><ele>322.0</ele><time>2026-04-18T13:20:01.2Z</time></trkpt><trkpt lat="43.284547" lon="10.8119354"><ele>325.0</ele><time>2026-04-18T13:20:02.201Z</time></trkpt><trkpt lat="43.2845562" lon="10.8118318"><ele>329.6</ele><time>2026-04-18T13:20:03.192Z</time></trkpt><trkpt lat="43.2845734" lon="10.8117181"><ele>334.2</ele><time>2026-04-18T13:20:04.199Z</time></trkpt><trkpt lat="43.2846037" lon="10.8116141"><ele>338.79999999999995</ele><time>2026-04-18T13:20:05.188Z</time></trkpt><trkpt lat="43.2846339" lon="10.8114902"><ele>343.4</ele><time>2026-04-18T13:20:06.207Z</time></trkpt><trkpt lat="43.284663" lon="10.8113628"><ele>348.0</ele><time>2026-04-18T13:20:07.188Z</time></trkpt><trkpt lat="43.2846869" lon="10.8112104"><ele>348.0</ele><time>2026-04-18T13:20:08.196Z</time></trkpt><trkpt lat="43.2847268" lon="10.8110684"><ele>348.0</ele><time>2026-04-18T13:20:09.193Z</time></trkpt><trkpt lat="43.2847778" lon="10.810935"><ele>348.0</ele><time>2026-04-18T13:20:10.193Z</time></trkpt><trkpt lat="43.2848284" lon="10.810805"><ele>348.0</ele><time>2026-04-18T13:20:11.192Z</time></trkpt><trkpt lat="43.2848811" lon="10.8106884"><ele>348.0</ele><time>2026-04-18T13:20:12.191Z</time></trkpt><trkpt lat="43.28494" lon="10.8105828"><ele>345.0</ele><time>2026-04-18T13:20:13.202Z</time></trkpt><trkpt lat="43.2849693" lon="10.8104705"><ele>342.0</ele><time>2026-04-18T13:20:14.19Z</time></trkpt><trkpt lat="43.2849944" lon="10.8103354"><ele>339.0</ele><time>2026-04-18T13:20:15.2Z</time></trkpt><trkpt lat="43.2850093" lon="10.8102065"><ele>336.0</ele><time>2026-04-18T13:20:16.19Z</time></trkpt><trkpt lat="43.2850216" lon="10.8100926"><ele>333.0</ele><time>2026-04-18T13:20:17.198Z</time></trkpt><trkpt lat="43.2850308" lon="10.8099731"><ele>333.0</ele><time>2026-04-18T13:20:18.2Z</time></trkpt><trkpt lat="43.2850157" lon="10.8098435"><ele>333.0</ele><time>2026-04-18T13:20:19.189Z</time></trkpt><trkpt lat="43.2849821" lon="10.8097034"><ele>333.0</ele><time>2026-04-18T13:20:20.211Z</time></trkpt><trkpt lat="43.2849378" lon="10.8095664"><ele>333.0</ele><time>2026-04-18T13:20:21.201Z</time></trkpt><trkpt lat="43.2848935" lon="10.8094388"><ele>333.0</ele><time>2026-04-18T13:20:22.205Z</time></trkpt><trkpt lat="43.2848606" lon="10.8093064"><ele>332.8333333333333</ele><time>2026-04-18T13:20:23.189Z</time></trkpt><trkpt lat="43.2848227" lon="10.8091719"><ele>332.6666666666667</ele><time>2026-04-18T13:20:24.201Z</time></trkpt><trkpt lat="43.2847841" lon="10.8090688"><ele>332.5</ele><time>2026-04-18T13:20:25.198Z</time></trkpt><trkpt lat="43.2847473" lon="10.8089589"><ele>332.33333333333337</ele><time>2026-04-18T13:20:26.201Z</time></trkpt><trkpt lat="43.2846979" lon="10.8088672"><ele>332.1666666666667</ele><time>2026-04-18T13:20:27.191Z</time></trkpt><trkpt lat="43.2846507" lon="10.8087885"><ele>332.0</ele><time>2026-04-18T13:20:28.204Z</time></trkpt><trkpt lat="43.2846081" lon="10.8086991"><ele>339.1666666666667</ele><time>2026-04-18T13:20:29.2Z</time></trkpt><trkpt lat="43.2845788" lon="10.8086043"><ele>346.33333333333337</ele><time>2026-04-18T13:20:30.192Z</time></trkpt><trkpt lat="43.2845667" lon="10.8085098"><ele>353.5</ele><time>2026-04-18T13:20:31.184Z</time></trkpt><trkpt lat="43.2845776" lon="10.8083992"><ele>360.6666666666667</ele><time>2026-04-18T13:20:32.194Z</time></trkpt><trkpt lat="43.2845935" lon="10.8082976"><ele>367.8333333333333</ele><time>2026-04-18T13:20:33.199Z</time></trkpt><trkpt lat="43.2846267" lon="10.8081737"><ele>375.0</ele><time>2026-04-18T13:20:34.197Z</time></trkpt><trkpt lat="43.2846581" lon="10.8080472"><ele>375.0</ele><time>2026-04-18T13:20:35.183Z</time></trkpt><trkpt lat="43.2847035" lon="10.8079165"><ele>375.0</ele><time>2026-04-18T13:20:36.192Z</time></trkpt><trkpt lat="43.284721" lon="10.807777"><ele>375.0</ele><time>2026-04-18T13:20:37.19Z</time></trkpt><trkpt lat="43.2847241" lon="10.8076358"><ele>375.0</ele><time>2026-04-18T13:20:38.206Z</time></trkpt><trkpt lat="43.2847152" lon="10.8075095"><ele>375.0</ele><time>2026-04-18T13:20:39.197Z</time></trkpt><trkpt lat="43.2846939" lon="10.8073984"><ele>373.8</ele><time>2026-04-18T13:20:40.206Z</time></trkpt><trkpt lat="43.2846522" lon="10.8072808"><ele>372.6</ele><time>2026-04-18T13:20:41.198Z</time></trkpt><trkpt lat="43.2846203" lon="10.8071486"><ele>371.4</ele><time>2026-04-18T13:20:42.202Z</time></trkpt><trkpt lat="43.284592" lon="10.8070047"><ele>370.2</ele><time>2026-04-18T13:20:43.194Z</time></trkpt><trkpt lat="43.2845759" lon="10.8068786"><ele>369.0</ele><time>2026-04-18T13:20:44.197Z</time></trkpt><trkpt lat="43.2845928" lon="10.806754"><ele>367.4</ele><time>2026-04-18T13:20:45.198Z</time></trkpt><trkpt lat="43.284622" lon="10.8066323"><ele>365.79999999999995</ele><time>2026-04-18T13:20:46.199Z</time></trkpt><trkpt lat="43.2846705" lon="10.8064988"><ele>364.20000000000005</ele><time>2026-04-18T13:20:47.19Z</time></trkpt><trkpt lat="43.2847066" lon="10.8063592"><ele>362.6</ele><time>2026-04-18T13:20:48.202Z</time></trkpt><trkpt lat="43.2847241" lon="10.8062139"><ele>361.0</ele><time>2026-04-18T13:20:49.202Z</time></trkpt><trkpt lat="43.2847254" lon="10.8060524"><ele>361.4</ele><time>2026-04-18T13:20:50.192Z</time></trkpt><trkpt lat="43.2847209" lon="10.8059041"><ele>361.8</ele><time>2026-04-18T13:20:51.186Z</time></trkpt><trkpt lat="43.2847103" lon="10.805766"><ele>362.2</ele><time>2026-04-18T13:20:52.194Z</time></trkpt><trkpt lat="43.2846903" lon="10.8056192"><ele>362.59999999999997</ele><time>2026-04-18T13:20:53.188Z</time></trkpt><trkpt lat="43.2846859" lon="10.805459"><ele>363.0</ele><time>2026-04-18T13:20:54.185Z</time></trkpt><trkpt lat="43.2846934" lon="10.8052959"><ele>364.2</ele><time>2026-04-18T13:20:55.194Z</time></trkpt><trkpt lat="43.2847082" lon="10.8051544"><ele>365.4</ele><time>2026-04-18T13:20:56.186Z</time></trkpt><trkpt lat="43.2847058" lon="10.8050276"><ele>366.59999999999997</ele><time>2026-04-18T13:20:57.19Z</time></trkpt><trkpt lat="43.2847021" lon="10.8049149"><ele>367.79999999999995</ele><time>2026-04-18T13:20:58.206Z</time></trkpt><trkpt lat="43.2847094" lon="10.8047931"><ele>369.0</ele><time>2026-04-18T13:20:59.184Z</time></trkpt><trkpt lat="43.2847249" lon="10.8046728"><ele>364.0</ele><time>2026-04-18T13:21:00.2Z</time></trkpt><trkpt lat="43.2847683" lon="10.8045384"><ele>359.0</ele><time>2026-04-18T13:21:01.187Z</time></trkpt><trkpt lat="43.2848247" lon="10.8044174"><ele>354.0</ele><time>2026-04-18T13:21:02.198Z</time></trkpt><trkpt lat="43.2848713" lon="10.8042929"><ele>349.0</ele><time>2026-04-18T13:21:03.192Z</time></trkpt><trkpt lat="43.284889" lon="10.8041708"><ele>344.0</ele><time>2026-04-18T13:21:04.196Z</time></trkpt><trkpt lat="43.284911" lon="10.804075"><ele>344.0</ele><time>2026-04-18T13:21:05.192Z</time></trkpt><trkpt lat="43.2848925" lon="10.8039814"><ele>344.0</ele><time>2026-04-18T13:21:06.204Z</time></trkpt><trkpt lat="43.2848526" lon="10.8038945"><ele>344.0</ele><time>2026-04-18T13:21:07.201Z</time></trkpt><trkpt lat="43.2848101" lon="10.8038195"><ele>344.0</ele><time>2026-04-18T13:21:08.202Z</time></trkpt><trkpt lat="43.28477" lon="10.8037508"><ele>344.0</ele><time>2026-04-18T13:21:09.2Z</time></trkpt><trkpt lat="43.2847317" lon="10.8036759"><ele>344.0</ele><time>2026-04-18T13:21:10.204Z</time></trkpt><trkpt lat="43.2846523" lon="10.8035469"><ele>346.5</ele><time>2026-04-18T13:21:12.196Z</time></trkpt><trkpt lat="43.284561" lon="10.8034896"><ele>349.0</ele><time>2026-04-18T13:21:14.194Z</time></trkpt><trkpt lat="43.2845032" lon="10.8035704"><ele>351.5</ele><time>2026-04-18T13:21:17.186Z</time></trkpt><trkpt lat="43.2845915" lon="10.8036307"><ele>354.0</ele><time>2026-04-18T13:21:19.196Z</time></trkpt><trkpt lat="43.2846466" lon="10.8036766"><ele>356.5</ele><time>2026-04-18T13:21:20.205Z</time></trkpt><trkpt lat="43.2847055" lon="10.8037159"><ele>359.0</ele><time>2026-04-18T13:21:21.195Z</time></trkpt><trkpt lat="43.2847591" lon="10.8037735"><ele>360.6666666666667</ele><time>2026-04-18T13:21:22.204Z</time></trkpt><trkpt lat="43.284806" lon="10.8038367"><ele>362.33333333333337</ele><time>2026-04-18T13:21:23.193Z</time></trkpt><trkpt lat="43.2847628" lon="10.8039704"><ele>364.0</ele><time>2026-04-18T13:21:25.202Z</time></trkpt><trkpt lat="43.2847324" lon="10.804053"><ele>365.6666666666667</ele><time>2026-04-18T13:21:26.2Z</time></trkpt><trkpt lat="43.2846849" lon="10.8041319"><ele>367.3333333333333</ele><time>2026-04-18T13:21:27.197Z</time></trkpt><trkpt lat="43.2846548" lon="10.804216"><ele>369.0</ele><time>2026-04-18T13:21:28.211Z</time></trkpt><trkpt lat="43.2846097" lon="10.8043733"><ele>369.0</ele><time>2026-04-18T13:21:30.199Z</time></trkpt><trkpt lat="43.2845719" lon="10.804456"><ele>369.0</ele><time>2026-04-18T13:21:31.212Z</time></trkpt><trkpt lat="43.2845398" lon="10.8045453"><ele>369.0</ele><time>2026-04-18T13:21:32.207Z</time></trkpt><trkpt lat="43.2845078" lon="10.8046326"><ele>369.0</ele><time>2026-04-18T13:21:33.196Z</time></trkpt><trkpt lat="43.2844622" lon="10.8047207"><ele>369.0</ele><time>2026-04-18T13:21:34.196Z</time></trkpt><trkpt lat="43.2844029" lon="10.8047968"><ele>369.0</ele><time>2026-04-18T13:21:35.199Z</time></trkpt><trkpt lat="43.2843499" lon="10.8048612"><ele>369.0</ele><time>2026-04-18T13:21:36.211Z</time></trkpt><trkpt lat="43.2842906" lon="10.8049212"><ele>369.0</ele><time>2026-04-18T13:21:37.212Z</time></trkpt><trkpt lat="43.2842229" lon="10.8049888"><ele>369.0</ele><time>2026-04-18T13:21:38.199Z</time></trkpt><trkpt lat="43.2841586" lon="10.8050737"><ele>369.0</ele><time>2026-04-18T13:21:39.189Z</time></trkpt><trkpt lat="43.284108" lon="10.8051628"><ele>369.0</ele><time>2026-04-18T13:21:40.199Z</time></trkpt><trkpt lat="43.2840569" lon="10.8052503"><ele>369.0</ele><time>2026-04-18T13:21:41.194Z</time></trkpt><trkpt lat="43.2840003" lon="10.8053255"><ele>369.0</ele><time>2026-04-18T13:21:42.187Z</time></trkpt><trkpt lat="43.2839379" lon="10.805402"><ele>371.6666666666667</ele><time>2026-04-18T13:21:43.185Z</time></trkpt><trkpt lat="43.2838771" lon="10.8054899"><ele>374.33333333333337</ele><time>2026-04-18T13:21:44.203Z</time></trkpt><trkpt lat="43.2838099" lon="10.8055698"><ele>377.0</ele><time>2026-04-18T13:21:45.192Z</time></trkpt><trkpt lat="43.2837436" lon="10.805658"><ele>379.6666666666667</ele><time>2026-04-18T13:21:46.201Z</time></trkpt><trkpt lat="43.2836892" lon="10.8057564"><ele>382.33333333333337</ele><time>2026-04-18T13:21:47.197Z</time></trkpt><trkpt lat="43.2836521" lon="10.805857"><ele>385.0</ele><time>2026-04-18T13:21:48.195Z</time></trkpt><trkpt lat="43.2836271" lon="10.8059502"><ele>386.33333333333337</ele><time>2026-04-18T13:21:49.197Z</time></trkpt><trkpt lat="43.2836288" lon="10.8060671"><ele>387.6666666666667</ele><time>2026-04-18T13:21:50.191Z</time></trkpt><trkpt lat="43.2836461" lon="10.8061828"><ele>389.0</ele><time>2026-04-18T13:21:51.208Z</time></trkpt><trkpt lat="43.2836769" lon="10.8063038"><ele>390.33333333333337</ele><time>2026-04-18T13:21:52.203Z</time></trkpt><trkpt lat="43.2837169" lon="10.8064185"><ele>391.6666666666667</ele><time>2026-04-18T13:21:53.203Z</time></trkpt><trkpt lat="43.2837608" lon="10.8065302"><ele>393.0</ele><time>2026-04-18T13:21:54.205Z</time></trkpt><trkpt lat="43.2838061" lon="10.8066485"><ele>393.0</ele><time>2026-04-18T13:21:55.2Z</time></trkpt><trkpt lat="43.2838485" lon="10.806769"><ele>393.0</ele><time>2026-04-18T13:21:56.2Z</time></trkpt><trkpt lat="43.283892" lon="10.8068887"><ele>393.0</ele><time>2026-04-18T13:21:57.192Z</time></trkpt><trkpt lat="43.283929" lon="10.8069996"><ele>393.0</ele><time>2026-04-18T13:21:58.205Z</time></trkpt><trkpt lat="43.2839578" lon="10.8071226"><ele>393.0</ele><time>2026-04-18T13:21:59.194Z</time></trkpt><trkpt lat="43.283974" lon="10.8072348"><ele>393.8333333333333</ele><time>2026-04-18T13:22:00.2Z</time></trkpt><trkpt lat="43.2839743" lon="10.8073385"><ele>394.66666666666663</ele><time>2026-04-18T13:22:01.201Z</time></trkpt><trkpt lat="43.2839505" lon="10.8074198"><ele>395.5</ele><time>2026-04-18T13:22:02.203Z</time></trkpt><trkpt lat="43.2838526" lon="10.8075218"><ele>396.3333333333333</ele><time>2026-04-18T13:22:04.226Z</time></trkpt><trkpt lat="43.2837997" lon="10.8075854"><ele>397.16666666666663</ele><time>2026-04-18T13:22:05.202Z</time></trkpt><trkpt lat="43.2837388" lon="10.8076289"><ele>398.0</ele><time>2026-04-18T13:22:06.203Z</time></trkpt><trkpt lat="43.2836738" lon="10.8076405"><ele>398.0</ele><time>2026-04-18T13:22:07.194Z</time></trkpt><trkpt lat="43.283552" lon="10.807642"><ele>398.0</ele><time>2026-04-18T13:22:09.192Z</time></trkpt><trkpt lat="43.2836062" lon="10.8077648"><ele>398.0</ele><time>2026-04-18T13:22:14.196Z</time></trkpt><trkpt lat="43.2836728" lon="10.8078774"><ele>398.0</ele><time>2026-04-18T13:22:15.197Z</time></trkpt><trkpt lat="43.2837317" lon="10.8079761"><ele>398.0</ele><time>2026-04-18T13:22:16.193Z</time></trkpt><trkpt lat="43.2837698" lon="10.8080917"><ele>399.66666666666663</ele><time>2026-04-18T13:22:17.186Z</time></trkpt><trkpt lat="43.2838103" lon="10.8081637"><ele>401.3333333333333</ele><time>2026-04-18T13:22:18.184Z</time></trkpt><trkpt lat="43.2838479" lon="10.8082673"><ele>403.0</ele><time>2026-04-18T13:22:19.198Z</time></trkpt><trkpt lat="43.2838433" lon="10.8083915"><ele>404.66666666666663</ele><time>2026-04-18T13:22:20.199Z</time></trkpt><trkpt lat="43.2838271" lon="10.8085161"><ele>406.3333333333333</ele><time>2026-04-18T13:22:21.202Z</time></trkpt><trkpt lat="43.2838101" lon="10.8086257"><ele>408.0</ele><time>2026-04-18T13:22:22.202Z</time></trkpt><trkpt lat="43.2838016" lon="10.8087471"><ele>409.1666666666667</ele><time>2026-04-18T13:22:23.205Z</time></trkpt><trkpt lat="43.283795" lon="10.8088562"><ele>410.33333333333337</ele><time>2026-04-18T13:22:24.201Z</time></trkpt><trkpt lat="43.2838035" lon="10.8089766"><ele>411.5</ele><time>2026-04-18T13:22:25.187Z</time></trkpt><trkpt lat="43.2838407" lon="10.8090874"><ele>412.6666666666667</ele><time>2026-04-18T13:22:26.2Z</time></trkpt><trkpt lat="43.2838991" lon="10.8091879"><ele>413.83333333333337</ele><time>2026-04-18T13:22:27.19Z</time></trkpt><trkpt lat="43.2839579" lon="10.8092805"><ele>415.0</ele><time>2026-04-18T13:22:28.203Z</time></trkpt><trkpt lat="43.284004" lon="10.8093594"><ele>414.42857142857144</ele><time>2026-04-18T13:22:29.2Z</time></trkpt><trkpt lat="43.2840254" lon="10.8094464"><ele>413.8571428571429</ele><time>2026-04-18T13:22:30.201Z</time></trkpt><trkpt lat="43.2840362" lon="10.8095474"><ele>413.2857142857143</ele><time>2026-04-18T13:22:31.194Z</time></trkpt><trkpt lat="43.2840211" lon="10.8096493"><ele>412.7142857142857</ele><time>2026-04-18T13:22:32.192Z</time></trkpt><trkpt lat="43.2839853" lon="10.8097453"><ele>412.1428571428571</ele><time>2026-04-18T13:22:33.189Z</time></trkpt><trkpt lat="43.2839352" lon="10.8098323"><ele>411.57142857142856</ele><time>2026-04-18T13:22:34.213Z</time></trkpt><trkpt lat="43.2838831" lon="10.8098996"><ele>411.0</ele><time>2026-04-18T13:22:35.198Z</time></trkpt><trkpt lat="43.2838153" lon="10.8099416"><ele>411.0</ele><time>2026-04-18T13:22:36.198Z</time></trkpt><trkpt lat="43.2837389" lon="10.8099715"><ele>411.0</ele><time>2026-04-18T13:22:37.197Z</time></trkpt><trkpt lat="43.2836379" lon="10.8100072"><ele>411.0</ele><time>2026-04-18T13:22:38.202Z</time></trkpt><trkpt lat="43.2835394" lon="10.8100346"><ele>411.0</ele><time>2026-04-18T13:22:39.189Z</time></trkpt><trkpt lat="43.283445" lon="10.8100518"><ele>411.0</ele><time>2026-04-18T13:22:40.191Z</time></trkpt><trkpt lat="43.283354" lon="10.8100399"><ele>411.0</ele><time>2026-04-18T13:22:41.191Z</time></trkpt><trkpt lat="43.283266" lon="10.8100033"><ele>411.0</ele><time>2026-04-18T13:22:42.19Z</time></trkpt><trkpt lat="43.2831908" lon="10.8099318"><ele>411.0</ele><time>2026-04-18T13:22:43.187Z</time></trkpt><trkpt lat="43.2831327" lon="10.8098538"><ele>411.0</ele><time>2026-04-18T13:22:44.202Z</time></trkpt><trkpt lat="43.2830695" lon="10.8097659"><ele>411.0</ele><time>2026-04-18T13:22:45.185Z</time></trkpt><trkpt lat="43.2830095" lon="10.8096715"><ele>411.0</ele><time>2026-04-18T13:22:46.2Z</time></trkpt><trkpt lat="43.2829549" lon="10.8095729"><ele>410.6666666666667</ele><time>2026-04-18T13:22:47.192Z</time></trkpt><trkpt lat="43.2829084" lon="10.8094903"><ele>410.33333333333337</ele><time>2026-04-18T13:22:48.202Z</time></trkpt><trkpt lat="43.2828194" lon="10.8093792"><ele>410.0</ele><time>2026-04-18T13:22:50.193Z</time></trkpt><trkpt lat="43.282748" lon="10.8093583"><ele>409.6666666666667</ele><time>2026-04-18T13:22:51.193Z</time></trkpt><trkpt lat="43.2826683" lon="10.8093449"><ele>409.33333333333337</ele><time>2026-04-18T13:22:52.194Z</time></trkpt><trkpt lat="43.2825717" lon="10.8093567"><ele>409.0</ele><time>2026-04-18T13:22:53.205Z</time></trkpt><trkpt lat="43.2824951" lon="10.809396"><ele>409.00000000000006</ele><time>2026-04-18T13:22:54.192Z</time></trkpt><trkpt lat="43.2824141" lon="10.8094385"><ele>409.0</ele><time>2026-04-18T13:22:55.206Z</time></trkpt><trkpt lat="43.2823405" lon="10.8094564"><ele>409.0</ele><time>2026-04-18T13:22:56.202Z</time></trkpt><trkpt lat="43.2822722" lon="10.8094233"><ele>409.0</ele><time>2026-04-18T13:22:58.199Z</time></trkpt><trkpt lat="43.2822884" lon="10.8092986"><ele>409.00000000000006</ele><time>2026-04-18T13:23:00.194Z</time></trkpt><trkpt lat="43.282358" lon="10.8092198"><ele>409.0</ele><time>2026-04-18T13:23:02.201Z</time></trkpt><trkpt lat="43.2824595" lon="10.8091466"><ele>413.0</ele><time>2026-04-18T13:23:04.202Z</time></trkpt><trkpt lat="43.2825972" lon="10.8091252"><ele>417.0</ele><time>2026-04-18T13:23:06.202Z</time></trkpt><trkpt lat="43.2826658" lon="10.809152"><ele>421.0</ele><time>2026-04-18T13:23:07.183Z</time></trkpt><trkpt lat="43.2827929" lon="10.8091894"><ele>425.0</ele><time>2026-04-18T13:23:09.189Z</time></trkpt><trkpt lat="43.2828689" lon="10.8091947"><ele>429.0</ele><time>2026-04-18T13:23:10.191Z</time></trkpt><trkpt lat="43.28294" lon="10.8092063"><ele>429.0</ele><time>2026-04-18T13:23:11.197Z</time></trkpt><trkpt lat="43.2830292" lon="10.8092604"><ele>429.0</ele><time>2026-04-18T13:23:13.193Z</time></trkpt><trkpt lat="43.2831031" lon="10.8091942"><ele>429.0</ele><time>2026-04-18T13:23:15.199Z</time></trkpt><trkpt lat="43.2831349" lon="10.8090458"><ele>429.0</ele><time>2026-04-18T13:23:17.201Z</time></trkpt><trkpt lat="43.2830915" lon="10.8088836"><ele>429.0</ele><time>2026-04-18T13:23:19.19Z</time></trkpt><trkpt lat="43.2830715" lon="10.8087945"><ele>429.0</ele><time>2026-04-18T13:23:20.198Z</time></trkpt><trkpt lat="43.2830384" lon="10.8087024"><ele>429.0</ele><time>2026-04-18T13:23:21.201Z</time></trkpt><trkpt lat="43.2829973" lon="10.8086187"><ele>429.0</ele><time>2026-04-18T13:23:22.202Z</time></trkpt><trkpt lat="43.2829538" lon="10.8085479"><ele>429.0</ele><time>2026-04-18T13:23:23.216Z</time></trkpt><trkpt lat="43.2828513" lon="10.8084621"><ele>429.0</ele><time>2026-04-18T13:23:25.196Z</time></trkpt><trkpt lat="43.2827547" lon="10.8084708"><ele>429.0</ele><time>2026-04-18T13:23:27.193Z</time></trkpt><trkpt lat="43.2826863" lon="10.8084969"><ele>429.0</ele><time>2026-04-18T13:23:28.198Z</time></trkpt><trkpt lat="43.2826198" lon="10.8085088"><ele>429.0</ele><time>2026-04-18T13:23:29.195Z</time></trkpt><trkpt lat="43.2825441" lon="10.8085263"><ele>429.0</ele><time>2026-04-18T13:23:30.195Z</time></trkpt><trkpt lat="43.2824613" lon="10.80853"><ele>429.0</ele><time>2026-04-18T13:23:31.202Z</time></trkpt><trkpt lat="43.2823703" lon="10.8085371"><ele>429.0</ele><time>2026-04-18T13:23:32.211Z</time></trkpt><trkpt lat="43.2822945" lon="10.8085379"><ele>429.0</ele><time>2026-04-18T13:23:33.195Z</time></trkpt><trkpt lat="43.282216" lon="10.8085205"><ele>428.8333333333333</ele><time>2026-04-18T13:23:34.201Z</time></trkpt><trkpt lat="43.282153" lon="10.8085095"><ele>428.66666666666663</ele><time>2026-04-18T13:23:35.183Z</time></trkpt><trkpt lat="43.2820314" lon="10.8084772"><ele>428.5</ele><time>2026-04-18T13:23:37.198Z</time></trkpt><trkpt lat="43.2819224" lon="10.8084514"><ele>428.3333333333333</ele><time>2026-04-18T13:23:39.219Z</time></trkpt><trkpt lat="43.281846" lon="10.8084343"><ele>428.16666666666663</ele><time>2026-04-18T13:23:40.207Z</time></trkpt><trkpt lat="43.2817754" lon="10.8084066"><ele>428.0</ele><time>2026-04-18T13:23:41.199Z</time></trkpt><trkpt lat="43.2816907" lon="10.8083538"><ele>430.5714285714286</ele><time>2026-04-18T13:23:43.196Z</time></trkpt><trkpt lat="43.2816487" lon="10.8082851"><ele>433.14285714285717</ele><time>2026-04-18T13:23:47.203Z</time></trkpt><trkpt lat="43.2816957" lon="10.8082173"><ele>435.7142857142857</ele><time>2026-04-18T13:23:50.204Z</time></trkpt><trkpt lat="43.2816896" lon="10.8081301"><ele>438.28571428571433</ele><time>2026-04-18T13:23:56.192Z</time></trkpt><trkpt lat="43.2817152" lon="10.8080409"><ele>440.85714285714283</ele><time>2026-04-18T13:24:22.204Z</time></trkpt><trkpt lat="43.2817794" lon="10.8080246"><ele>443.42857142857144</ele><time>2026-04-18T13:24:29.189Z</time></trkpt><trkpt lat="43.281843" lon="10.8080225"><ele>446.0</ele><time>2026-04-18T13:24:35.204Z</time></trkpt><trkpt lat="43.2817979" lon="10.8080972"><ele>445.99999999999994</ele><time>2026-04-18T13:24:51.194Z</time></trkpt><trkpt lat="43.2817421" lon="10.8081584"><ele>446.0</ele><time>2026-04-18T13:24:53.2Z</time></trkpt><trkpt lat="43.2816904" lon="10.8082351"><ele>446.0</ele><time>2026-04-18T13:24:55.198Z</time></trkpt><trkpt lat="43.281657" lon="10.8083392"><ele>446.0</ele><time>2026-04-18T13:24:58.203Z</time></trkpt><trkpt lat="43.2816969" lon="10.8084338"><ele>445.99999999999994</ele><time>2026-04-18T13:25:01.195Z</time></trkpt><trkpt lat="43.2817546" lon="10.8084894"><ele>446.0</ele><time>2026-04-18T13:25:04.212Z</time></trkpt><trkpt lat="43.2818086" lon="10.8085669"><ele>445.99999999999994</ele><time>2026-04-18T13:25:07.215Z</time></trkpt><trkpt lat="43.2818163" lon="10.8086529"><ele>446.0</ele><time>2026-04-18T13:25:10.199Z</time></trkpt><trkpt lat="43.2817306" lon="10.8086475"><ele>446.0</ele><time>2026-04-18T13:25:21.202Z</time></trkpt><trkpt lat="43.2816465" lon="10.8085761"><ele>446.0</ele><time>2026-04-18T13:25:25.207Z</time></trkpt><trkpt lat="43.2815792" lon="10.8085107"><ele>445.99999999999994</ele><time>2026-04-18T13:25:27.207Z</time></trkpt><trkpt lat="43.2815073" lon="10.8084475"><ele>446.0</ele><time>2026-04-18T13:25:29.21Z</time></trkpt><trkpt lat="43.281416" lon="10.8083832"><ele>443.8</ele><time>2026-04-18T13:25:31.199Z</time></trkpt><trkpt lat="43.2813085" lon="10.8083186"><ele>441.6</ele><time>2026-04-18T13:25:33.203Z</time></trkpt><trkpt lat="43.2812046" lon="10.8082625"><ele>439.4</ele><time>2026-04-18T13:25:35.215Z</time></trkpt><trkpt lat="43.2811087" lon="10.8082372"><ele>437.2</ele><time>2026-04-18T13:25:37.186Z</time></trkpt><trkpt lat="43.2810025" lon="10.8082461"><ele>435.0</ele><time>2026-04-18T13:25:39.195Z</time></trkpt><trkpt lat="43.2808874" lon="10.8082584"><ele>435.0</ele><time>2026-04-18T13:25:41.199Z</time></trkpt><trkpt lat="43.280775" lon="10.8082429"><ele>435.0</ele><time>2026-04-18T13:25:43.204Z</time></trkpt><trkpt lat="43.2806655" lon="10.8082068"><ele>435.0</ele><time>2026-04-18T13:25:45.199Z</time></trkpt><trkpt lat="43.280547" lon="10.8082237"><ele>435.0</ele><time>2026-04-18T13:25:47.206Z</time></trkpt><trkpt lat="43.2804854" lon="10.8082425"><ele>435.0</ele><time>2026-04-18T13:25:48.208Z</time></trkpt><trkpt lat="43.2804171" lon="10.8082887"><ele>435.5</ele><time>2026-04-18T13:25:49.208Z</time></trkpt><trkpt lat="43.2803447" lon="10.8083486"><ele>436.0</ele><time>2026-04-18T13:25:50.206Z</time></trkpt><trkpt lat="43.2802822" lon="10.8083931"><ele>436.5</ele><time>2026-04-18T13:25:51.19Z</time></trkpt><trkpt lat="43.2802013" lon="10.808409"><ele>437.0</ele><time>2026-04-18T13:25:52.197Z</time></trkpt><trkpt lat="43.2801158" lon="10.8084295"><ele>437.5</ele><time>2026-04-18T13:25:53.182Z</time></trkpt><trkpt lat="43.2800296" lon="10.8084433"><ele>438.0</ele><time>2026-04-18T13:25:54.192Z</time></trkpt><trkpt lat="43.2799482" lon="10.8084529"><ele>438.0</ele><time>2026-04-18T13:25:55.208Z</time></trkpt><trkpt lat="43.2798701" lon="10.808461"><ele>438.0</ele><time>2026-04-18T13:25:56.2Z</time></trkpt><trkpt lat="43.2797998" lon="10.8084753"><ele>438.0</ele><time>2026-04-18T13:25:57.2Z</time></trkpt><trkpt lat="43.2797302" lon="10.8085128"><ele>438.0</ele><time>2026-04-18T13:25:58.208Z</time></trkpt><trkpt lat="43.2796677" lon="10.8085669"><ele>438.0</ele><time>2026-04-18T13:25:59.212Z</time></trkpt><trkpt lat="43.2796092" lon="10.8086289"><ele>438.0</ele><time>2026-04-18T13:26:00.194Z</time></trkpt><trkpt lat="43.2795404" lon="10.8086748"><ele>438.0</ele><time>2026-04-18T13:26:01.196Z</time></trkpt><trkpt lat="43.2794806" lon="10.8087182"><ele>439.6666666666667</ele><time>2026-04-18T13:26:02.203Z</time></trkpt><trkpt lat="43.279433" lon="10.8087754"><ele>441.33333333333337</ele><time>2026-04-18T13:26:03.191Z</time></trkpt><trkpt lat="43.279371" lon="10.8088459"><ele>443.0</ele><time>2026-04-18T13:26:05.2Z</time></trkpt><trkpt lat="43.2793057" lon="10.8088746"><ele>444.6666666666667</ele><time>2026-04-18T13:26:07.193Z</time></trkpt><trkpt lat="43.2792198" lon="10.8088692"><ele>446.33333333333337</ele><time>2026-04-18T13:26:09.186Z</time></trkpt><trkpt lat="43.279141" lon="10.8088322"><ele>448.0</ele><time>2026-04-18T13:26:11.191Z</time></trkpt><trkpt lat="43.2790908" lon="10.8087288"><ele>448.00000000000006</ele><time>2026-04-18T13:26:13.203Z</time></trkpt><trkpt lat="43.2790626" lon="10.8086273"><ele>448.0</ele><time>2026-04-18T13:26:15.189Z</time></trkpt><trkpt lat="43.2790563" lon="10.8085011"><ele>448.0</ele><time>2026-04-18T13:26:18.2Z</time></trkpt><trkpt lat="43.2790702" lon="10.8083878"><ele>448.0</ele><time>2026-04-18T13:26:20.213Z</time></trkpt><trkpt lat="43.2790963" lon="10.8082569"><ele>448.00000000000006</ele><time>2026-04-18T13:26:22.208Z</time></trkpt><trkpt lat="43.2790971" lon="10.8081348"><ele>448.0</ele><time>2026-04-18T13:26:24.189Z</time></trkpt><trkpt lat="43.2790691" lon="10.8080101"><ele>448.0</ele><time>2026-04-18T13:26:26.199Z</time></trkpt><trkpt lat="43.2790094" lon="10.8078994"><ele>447.99999999999994</ele><time>2026-04-18T13:26:28.198Z</time></trkpt><trkpt lat="43.2789197" lon="10.8078063"><ele>447.99999999999994</ele><time>2026-04-18T13:26:30.196Z</time></trkpt><trkpt lat="43.2788191" lon="10.8077307"><ele>448.0</ele><time>2026-04-18T13:26:32.21Z</time></trkpt><trkpt lat="43.2787538" lon="10.8076985"><ele>448.0</ele><time>2026-04-18T13:26:33.193Z</time></trkpt><trkpt lat="43.2786974" lon="10.8076595"><ele>450.79999999999995</ele><time>2026-04-18T13:26:34.204Z</time></trkpt><trkpt lat="43.2785937" lon="10.8075485"><ele>453.59999999999997</ele><time>2026-04-18T13:26:36.201Z</time></trkpt><trkpt lat="43.2785418" lon="10.8074594"><ele>456.40000000000003</ele><time>2026-04-18T13:26:37.199Z</time></trkpt><trkpt lat="43.2785078" lon="10.8073534"><ele>459.20000000000005</ele><time>2026-04-18T13:26:38.204Z</time></trkpt><trkpt lat="43.2784713" lon="10.807254"><ele>462.0</ele><time>2026-04-18T13:26:39.187Z</time></trkpt><trkpt lat="43.2784401" lon="10.8071594"><ele>462.0</ele><time>2026-04-18T13:26:40.2Z</time></trkpt><trkpt lat="43.2784119" lon="10.8070635"><ele>462.0</ele><time>2026-04-18T13:26:41.188Z</time></trkpt><trkpt lat="43.2783723" lon="10.8069748"><ele>462.0</ele><time>2026-04-18T13:26:42.198Z</time></trkpt><trkpt lat="43.2783225" lon="10.8069018"><ele>462.0</ele><time>2026-04-18T13:26:43.197Z</time></trkpt><trkpt lat="43.2782614" lon="10.8068411"><ele>462.0</ele><time>2026-04-18T13:26:44.19Z</time></trkpt><trkpt lat="43.2782006" lon="10.8068133"><ele>462.0</ele><time>2026-04-18T13:26:45.186Z</time></trkpt><trkpt lat="43.2781291" lon="10.8068049"><ele>462.0</ele><time>2026-04-18T13:26:46.193Z</time></trkpt><trkpt lat="43.2780641" lon="10.806807"><ele>463.0</ele><time>2026-04-18T13:26:47.184Z</time></trkpt><trkpt lat="43.278001" lon="10.8068085"><ele>464.00000000000006</ele><time>2026-04-18T13:26:48.197Z</time></trkpt><trkpt lat="43.2778889" lon="10.806783"><ele>465.00000000000006</ele><time>2026-04-18T13:26:50.208Z</time></trkpt><trkpt lat="43.2777933" lon="10.8067272"><ele>466.0</ele><time>2026-04-18T13:26:52.197Z</time></trkpt><trkpt lat="43.2777326" lon="10.8065883"><ele>467.0</ele><time>2026-04-18T13:26:54.205Z</time></trkpt><trkpt lat="43.2776766" lon="10.8065082"><ele>466.99999999999994</ele><time>2026-04-18T13:26:56.195Z</time></trkpt><trkpt lat="43.2775846" lon="10.8064313"><ele>467.0</ele><time>2026-04-18T13:26:58.203Z</time></trkpt><trkpt lat="43.2775324" lon="10.8063777"><ele>467.0</ele><time>2026-04-18T13:26:59.215Z</time></trkpt><trkpt lat="43.2774835" lon="10.8062915"><ele>467.0</ele><time>2026-04-18T13:27:00.209Z</time></trkpt><trkpt lat="43.2774385" lon="10.8061955"><ele>466.99999999999994</ele><time>2026-04-18T13:27:01.193Z</time></trkpt><trkpt lat="43.2773977" lon="10.8060997"><ele>467.0</ele><time>2026-04-18T13:27:02.196Z</time></trkpt><trkpt lat="43.2773609" lon="10.8059938"><ele>467.49999999999994</ele><time>2026-04-18T13:27:03.2Z</time></trkpt><trkpt lat="43.2773166" lon="10.8059072"><ele>468.0</ele><time>2026-04-18T13:27:04.203Z</time></trkpt><trkpt lat="43.2772804" lon="10.8058362"><ele>468.5</ele><time>2026-04-18T13:27:05.185Z</time></trkpt><trkpt lat="43.2772489" lon="10.8057536"><ele>469.0</ele><time>2026-04-18T13:27:06.202Z</time></trkpt><trkpt lat="43.2771746" lon="10.8056276"><ele>469.49999999999994</ele><time>2026-04-18T13:27:08.191Z</time></trkpt><trkpt lat="43.2770895" lon="10.8055437"><ele>470.0</ele><time>2026-04-18T13:27:10.188Z</time></trkpt><trkpt lat="43.2770093" lon="10.8055013"><ele>470.0</ele><time>2026-04-18T13:27:12.207Z</time></trkpt><trkpt lat="43.2769099" lon="10.8055182"><ele>470.0</ele><time>2026-04-18T13:27:14.199Z</time></trkpt><trkpt lat="43.2767973" lon="10.805575"><ele>470.0</ele><time>2026-04-18T13:27:16.183Z</time></trkpt><trkpt lat="43.2767188" lon="10.8055982"><ele>470.0</ele><time>2026-04-18T13:27:17.191Z</time></trkpt><trkpt lat="43.2766294" lon="10.8056193"><ele>470.0</ele><time>2026-04-18T13:27:18.185Z</time></trkpt><trkpt lat="43.2765277" lon="10.8056196"><ele>469.0</ele><time>2026-04-18T13:27:19.186Z</time></trkpt><trkpt lat="43.2764181" lon="10.8055876"><ele>468.0</ele><time>2026-04-18T13:27:20.2Z</time></trkpt><trkpt lat="43.2763468" lon="10.8055457"><ele>467.0</ele><time>2026-04-18T13:27:21.186Z</time></trkpt><trkpt lat="43.2762776" lon="10.8055124"><ele>466.0</ele><time>2026-04-18T13:27:22.187Z</time></trkpt><trkpt lat="43.2761898" lon="10.8054408"><ele>465.0</ele><time>2026-04-18T13:27:24.2Z</time></trkpt><trkpt lat="43.2761016" lon="10.8053927"><ele>465.0</ele><time>2026-04-18T13:27:26.19Z</time></trkpt><trkpt lat="43.2760249" lon="10.8053103"><ele>465.0</ele><time>2026-04-18T13:27:28.19Z</time></trkpt><trkpt lat="43.2759803" lon="10.8052395"><ele>465.0</ele><time>2026-04-18T13:27:30.2Z</time></trkpt><trkpt lat="43.2759485" lon="10.8051561"><ele>465.0</ele><time>2026-04-18T13:27:32.201Z</time></trkpt><trkpt lat="43.2758991" lon="10.8050755"><ele>465.0</ele><time>2026-04-18T13:27:34.188Z</time></trkpt><trkpt lat="43.2758132" lon="10.8049993"><ele>465.0</ele><time>2026-04-18T13:27:36.202Z</time></trkpt><trkpt lat="43.275701" lon="10.8049443"><ele>465.0</ele><time>2026-04-18T13:27:38.191Z</time></trkpt><trkpt lat="43.2756095" lon="10.8049042"><ele>465.0</ele><time>2026-04-18T13:27:40.187Z</time></trkpt><trkpt lat="43.275511" lon="10.8048796"><ele>465.0</ele><time>2026-04-18T13:27:42.192Z</time></trkpt><trkpt lat="43.2754482" lon="10.804868"><ele>465.0</ele><time>2026-04-18T13:27:43.196Z</time></trkpt><trkpt lat="43.2753415" lon="10.8048597"><ele>465.0</ele><time>2026-04-18T13:27:45.198Z</time></trkpt><trkpt lat="43.2752446" lon="10.8048729"><ele>465.0</ele><time>2026-04-18T13:27:47.193Z</time></trkpt><trkpt lat="43.2751245" lon="10.8049119"><ele>465.0</ele><time>2026-04-18T13:27:49.196Z</time></trkpt><trkpt lat="43.274999" lon="10.8049582"><ele>465.0</ele><time>2026-04-18T13:27:51.185Z</time></trkpt><trkpt lat="43.2748727" lon="10.8049981"><ele>465.0</ele><time>2026-04-18T13:27:53.194Z</time></trkpt><trkpt lat="43.2747989" lon="10.8050201"><ele>463.4</ele><time>2026-04-18T13:27:54.206Z</time></trkpt><trkpt lat="43.2747244" lon="10.805052"><ele>461.8</ele><time>2026-04-18T13:27:55.19Z</time></trkpt><trkpt lat="43.2746412" lon="10.8050703"><ele>460.20000000000005</ele><time>2026-04-18T13:27:56.206Z</time></trkpt><trkpt lat="43.2745545" lon="10.8051014"><ele>458.6</ele><time>2026-04-18T13:27:57.196Z</time></trkpt><trkpt lat="43.2744581" lon="10.8051285"><ele>457.0</ele><time>2026-04-18T13:27:58.205Z</time></trkpt><trkpt lat="43.2743544" lon="10.8051561"><ele>455.8</ele><time>2026-04-18T13:27:59.187Z</time></trkpt><trkpt lat="43.2742509" lon="10.8051783"><ele>454.6</ele><time>2026-04-18T13:28:00.194Z</time></trkpt><trkpt lat="43.2741494" lon="10.8051907"><ele>453.40000000000003</ele><time>2026-04-18T13:28:01.195Z</time></trkpt><trkpt lat="43.2740454" lon="10.8051939"><ele>452.20000000000005</ele><time>2026-04-18T13:28:02.197Z</time></trkpt><trkpt lat="43.2739399" lon="10.8052105"><ele>451.0</ele><time>2026-04-18T13:28:03.194Z</time></trkpt><trkpt lat="43.273832" lon="10.8052207"><ele>451.0</ele><time>2026-04-18T13:28:04.203Z</time></trkpt><trkpt lat="43.2737126" lon="10.8052214"><ele>451.0</ele><time>2026-04-18T13:28:05.205Z</time></trkpt><trkpt lat="43.2736035" lon="10.8052323"><ele>451.0</ele><time>2026-04-18T13:28:06.197Z</time></trkpt><trkpt lat="43.2734908" lon="10.8052471"><ele>451.0</ele><time>2026-04-18T13:28:07.197Z</time></trkpt><trkpt lat="43.2733823" lon="10.8052587"><ele>451.0</ele><time>2026-04-18T13:28:08.214Z</time></trkpt><trkpt lat="43.2732734" lon="10.8052671"><ele>451.0</ele><time>2026-04-18T13:28:09.199Z</time></trkpt><trkpt lat="43.2731619" lon="10.8052698"><ele>451.0</ele><time>2026-04-18T13:28:10.199Z</time></trkpt><trkpt lat="43.2730499" lon="10.8052754"><ele>451.0</ele><time>2026-04-18T13:28:11.199Z</time></trkpt><trkpt lat="43.2729418" lon="10.8052817"><ele>451.0</ele><time>2026-04-18T13:28:12.202Z</time></trkpt><trkpt lat="43.2728282" lon="10.8052983"><ele>450.8</ele><time>2026-04-18T13:28:13.197Z</time></trkpt><trkpt lat="43.2727168" lon="10.8053213"><ele>450.6</ele><time>2026-04-18T13:28:14.198Z</time></trkpt><trkpt lat="43.2726107" lon="10.8053531"><ele>450.4</ele><time>2026-04-18T13:28:15.196Z</time></trkpt><trkpt lat="43.2725065" lon="10.8053804"><ele>450.2</ele><time>2026-04-18T13:28:16.206Z</time></trkpt><trkpt lat="43.2724116" lon="10.8054248"><ele>450.0</ele><time>2026-04-18T13:28:17.202Z</time></trkpt><trkpt lat="43.2723138" lon="10.8054718"><ele>450.0</ele><time>2026-04-18T13:28:18.201Z</time></trkpt><trkpt lat="43.272213" lon="10.8055121"><ele>450.0</ele><time>2026-04-18T13:28:19.185Z</time></trkpt><trkpt lat="43.2721162" lon="10.805547"><ele>450.0</ele><time>2026-04-18T13:28:20.199Z</time></trkpt><trkpt lat="43.2720246" lon="10.8055901"><ele>450.0</ele><time>2026-04-18T13:28:21.192Z</time></trkpt><trkpt lat="43.2719324" lon="10.8056407"><ele>450.0</ele><time>2026-04-18T13:28:22.19Z</time></trkpt><trkpt lat="43.2718445" lon="10.8056798"><ele>450.0</ele><time>2026-04-18T13:28:23.198Z</time></trkpt><trkpt lat="43.27176" lon="10.8057154"><ele>450.0</ele><time>2026-04-18T13:28:24.202Z</time></trkpt><trkpt lat="43.2716734" lon="10.8057338"><ele>450.0</ele><time>2026-04-18T13:28:25.196Z</time></trkpt><trkpt lat="43.2715931" lon="10.8057434"><ele>450.0</ele><time>2026-04-18T13:28:26.209Z</time></trkpt><trkpt lat="43.271512" lon="10.8057433"><ele>450.0</ele><time>2026-04-18T13:28:27.184Z</time></trkpt><trkpt lat="43.2714434" lon="10.8057373"><ele>450.0</ele><time>2026-04-18T13:28:28.208Z</time></trkpt><trkpt lat="43.2713186" lon="10.8057332"><ele>450.1428571428572</ele><time>2026-04-18T13:28:30.194Z</time></trkpt><trkpt lat="43.2712529" lon="10.805734"><ele>450.28571428571433</ele><time>2026-04-18T13:28:31.184Z</time></trkpt><trkpt lat="43.2711873" lon="10.8057299"><ele>450.42857142857144</ele><time>2026-04-18T13:28:32.198Z</time></trkpt><trkpt lat="43.2711151" lon="10.8057301"><ele>450.5714285714286</ele><time>2026-04-18T13:28:33.21Z</time></trkpt><trkpt lat="43.271039" lon="10.8057424"><ele>450.7142857142858</ele><time>2026-04-18T13:28:34.211Z</time></trkpt><trkpt lat="43.2709665" lon="10.8057551"><ele>450.85714285714283</ele><time>2026-04-18T13:28:35.196Z</time></trkpt><trkpt lat="43.2708884" lon="10.8057755"><ele>451.0</ele><time>2026-04-18T13:28:36.199Z</time></trkpt><trkpt lat="43.2708066" lon="10.8057922"><ele>451.00000000000006</ele><time>2026-04-18T13:28:37.195Z</time></trkpt><trkpt lat="43.2707236" lon="10.8058021"><ele>451.0</ele><time>2026-04-18T13:28:38.202Z</time></trkpt><trkpt lat="43.2706385" lon="10.8058153"><ele>451.0</ele><time>2026-04-18T13:28:39.199Z</time></trkpt><trkpt lat="43.2705563" lon="10.8058249"><ele>451.0</ele><time>2026-04-18T13:28:40.206Z</time></trkpt><trkpt lat="43.2704707" lon="10.8058333"><ele>451.00000000000006</ele><time>2026-04-18T13:28:41.193Z</time></trkpt><trkpt lat="43.2703805" lon="10.8058476"><ele>451.0</ele><time>2026-04-18T13:28:42.2Z</time></trkpt><trkpt lat="43.2702918" lon="10.8058615"><ele>451.20000000000005</ele><time>2026-04-18T13:28:43.206Z</time></trkpt><trkpt lat="43.2701955" lon="10.8058769"><ele>451.40000000000003</ele><time>2026-04-18T13:28:44.202Z</time></trkpt><trkpt lat="43.2701029" lon="10.8058904"><ele>451.6</ele><time>2026-04-18T13:28:45.201Z</time></trkpt><trkpt lat="43.2700084" lon="10.8059062"><ele>451.8</ele><time>2026-04-18T13:28:46.211Z</time></trkpt><trkpt lat="43.2699286" lon="10.805919"><ele>452.0</ele><time>2026-04-18T13:28:47.205Z</time></trkpt><trkpt lat="43.2698384" lon="10.8059312"><ele>452.8333333333333</ele><time>2026-04-18T13:28:48.192Z</time></trkpt><trkpt lat="43.2697506" lon="10.8059425"><ele>453.66666666666663</ele><time>2026-04-18T13:28:49.197Z</time></trkpt><trkpt lat="43.2696708" lon="10.805937"><ele>454.5</ele><time>2026-04-18T13:28:50.213Z</time></trkpt><trkpt lat="43.2695872" lon="10.8059272"><ele>455.33333333333337</ele><time>2026-04-18T13:28:51.202Z</time></trkpt><trkpt lat="43.2695044" lon="10.8058906"><ele>456.1666666666667</ele><time>2026-04-18T13:28:52.2Z</time></trkpt><trkpt lat="43.269427" lon="10.8058347"><ele>457.0</ele><time>2026-04-18T13:28:53.206Z</time></trkpt><trkpt lat="43.2693476" lon="10.805773"><ele>457.00000000000006</ele><time>2026-04-18T13:28:54.22Z</time></trkpt><trkpt lat="43.2692751" lon="10.8057127"><ele>457.0</ele><time>2026-04-18T13:28:55.191Z</time></trkpt><trkpt lat="43.2692004" lon="10.8056514"><ele>457.0</ele><time>2026-04-18T13:28:56.198Z</time></trkpt><trkpt lat="43.2691263" lon="10.8056048"><ele>457.0</ele><time>2026-04-18T13:28:57.194Z</time></trkpt><trkpt lat="43.2690441" lon="10.8055857"><ele>457.00000000000006</ele><time>2026-04-18T13:28:58.196Z</time></trkpt><trkpt lat="43.2689635" lon="10.8055731"><ele>457.0</ele><time>2026-04-18T13:28:59.216Z</time></trkpt><trkpt lat="43.2688819" lon="10.8055711"><ele>457.00000000000006</ele><time>2026-04-18T13:29:00.21Z</time></trkpt><trkpt lat="43.2688078" lon="10.8055781"><ele>457.0</ele><time>2026-04-18T13:29:01.213Z</time></trkpt><trkpt lat="43.2687386" lon="10.8055917"><ele>457.00000000000006</ele><time>2026-04-18T13:29:02.207Z</time></trkpt><trkpt lat="43.2686687" lon="10.8056059"><ele>457.00000000000006</ele><time>2026-04-18T13:29:03.212Z</time></trkpt><trkpt lat="43.2685936" lon="10.8056241"><ele>457.0</ele><time>2026-04-18T13:29:04.204Z</time></trkpt><trkpt lat="43.2685222" lon="10.8056384"><ele>457.00000000000006</ele><time>2026-04-18T13:29:05.195Z</time></trkpt><trkpt lat="43.2684511" lon="10.8056483"><ele>457.00000000000006</ele><time>2026-04-18T13:29:06.209Z</time></trkpt><trkpt lat="43.2683809" lon="10.8056536"><ele>457.00000000000006</ele><time>2026-04-18T13:29:07.197Z</time></trkpt><trkpt lat="43.2683075" lon="10.8056582"><ele>457.0</ele><time>2026-04-18T13:29:08.21Z</time></trkpt><trkpt lat="43.2682264" lon="10.8056503"><ele>457.0</ele><time>2026-04-18T13:29:09.203Z</time></trkpt><trkpt lat="43.2681335" lon="10.8056362"><ele>457.0</ele><time>2026-04-18T13:29:10.201Z</time></trkpt><trkpt lat="43.2680464" lon="10.8056144"><ele>457.00000000000006</ele><time>2026-04-18T13:29:11.198Z</time></trkpt><trkpt lat="43.2679603" lon="10.805584"><ele>457.0</ele><time>2026-04-18T13:29:12.213Z</time></trkpt><trkpt lat="43.2678756" lon="10.8055544"><ele>457.1666666666667</ele><time>2026-04-18T13:29:13.217Z</time></trkpt><trkpt lat="43.2677984" lon="10.8055156"><ele>457.33333333333337</ele><time>2026-04-18T13:29:14.207Z</time></trkpt><trkpt lat="43.2677241" lon="10.8054762"><ele>457.5</ele><time>2026-04-18T13:29:15.191Z</time></trkpt><trkpt lat="43.2676412" lon="10.8054384"><ele>457.66666666666663</ele><time>2026-04-18T13:29:16.197Z</time></trkpt><trkpt lat="43.267561" lon="10.8053961"><ele>457.8333333333333</ele><time>2026-04-18T13:29:17.197Z</time></trkpt><trkpt lat="43.2674857" lon="10.8053634"><ele>458.0</ele><time>2026-04-18T13:29:18.204Z</time></trkpt><trkpt lat="43.2674249" lon="10.8053281"><ele>457.99999999999994</ele><time>2026-04-18T13:29:19.212Z</time></trkpt><trkpt lat="43.2673557" lon="10.805298"><ele>458.0</ele><time>2026-04-18T13:29:20.211Z</time></trkpt><trkpt lat="43.2672816" lon="10.8052769"><ele>458.0</ele><time>2026-04-18T13:29:21.2Z</time></trkpt><trkpt lat="43.2672097" lon="10.8052528"><ele>458.0</ele><time>2026-04-18T13:29:22.226Z</time></trkpt><trkpt lat="43.2671336" lon="10.8052401"><ele>457.99999999999994</ele><time>2026-04-18T13:29:23.196Z</time></trkpt><trkpt lat="43.2670536" lon="10.8052224"><ele>458.0</ele><time>2026-04-18T13:29:24.213Z</time></trkpt><trkpt lat="43.2669688" lon="10.8051948"><ele>457.4</ele><time>2026-04-18T13:29:25.202Z</time></trkpt><trkpt lat="43.2668812" lon="10.8051525"><ele>456.79999999999995</ele><time>2026-04-18T13:29:26.213Z</time></trkpt><trkpt lat="43.2667894" lon="10.8050978"><ele>456.2</ele><time>2026-04-18T13:29:27.205Z</time></trkpt><trkpt lat="43.2667012" lon="10.8050335"><ele>455.6</ele><time>2026-04-18T13:29:28.2Z</time></trkpt><trkpt lat="43.2666213" lon="10.8049711"><ele>455.0</ele><time>2026-04-18T13:29:29.207Z</time></trkpt><trkpt lat="43.266544" lon="10.8049052"><ele>455.0</ele><time>2026-04-18T13:29:30.207Z</time></trkpt><trkpt lat="43.2664622" lon="10.8048318"><ele>455.0</ele><time>2026-04-18T13:29:31.197Z</time></trkpt><trkpt lat="43.2663801" lon="10.8047505"><ele>455.0</ele><time>2026-04-18T13:29:32.205Z</time></trkpt><trkpt lat="43.2662906" lon="10.8046725"><ele>455.0</ele><time>2026-04-18T13:29:33.208Z</time></trkpt><trkpt lat="43.2662061" lon="10.8045923"><ele>455.0</ele><time>2026-04-18T13:29:34.21Z</time></trkpt><trkpt lat="43.2661302" lon="10.8045142"><ele>455.8333333333333</ele><time>2026-04-18T13:29:35.2Z</time></trkpt><trkpt lat="43.2660659" lon="10.8044519"><ele>456.66666666666663</ele><time>2026-04-18T13:29:36.204Z</time></trkpt><trkpt lat="43.2660052" lon="10.804393"><ele>457.5</ele><time>2026-04-18T13:29:37.192Z</time></trkpt><trkpt lat="43.2659462" lon="10.804346"><ele>458.33333333333337</ele><time>2026-04-18T13:29:38.215Z</time></trkpt><trkpt lat="43.2658878" lon="10.8043051"><ele>459.1666666666667</ele><time>2026-04-18T13:29:39.2Z</time></trkpt><trkpt lat="43.265779" lon="10.8042159"><ele>460.0</ele><time>2026-04-18T13:29:41.217Z</time></trkpt><trkpt lat="43.2656785" lon="10.8041211"><ele>460.00000000000006</ele><time>2026-04-18T13:29:43.205Z</time></trkpt><trkpt lat="43.2656322" lon="10.8040422"><ele>460.0</ele><time>2026-04-18T13:29:44.211Z</time></trkpt><trkpt lat="43.2655943" lon="10.8039561"><ele>460.0</ele><time>2026-04-18T13:29:45.195Z</time></trkpt><trkpt lat="43.2655682" lon="10.8038635"><ele>460.0</ele><time>2026-04-18T13:29:46.208Z</time></trkpt><trkpt lat="43.2655169" lon="10.8037269"><ele>460.00000000000006</ele><time>2026-04-18T13:29:48.22Z</time></trkpt><trkpt lat="43.2654176" lon="10.8036396"><ele>460.0</ele><time>2026-04-18T13:29:50.204Z</time></trkpt><trkpt lat="43.2652958" lon="10.8035961"><ele>462.1666666666667</ele><time>2026-04-18T13:29:52.209Z</time></trkpt><trkpt lat="43.2652155" lon="10.8035925"><ele>464.33333333333337</ele><time>2026-04-18T13:29:53.195Z</time></trkpt><trkpt lat="43.2651335" lon="10.8035878"><ele>466.5</ele><time>2026-04-18T13:29:54.205Z</time></trkpt><trkpt lat="43.2650579" lon="10.8035855"><ele>468.66666666666663</ele><time>2026-04-18T13:29:55.19Z</time></trkpt><trkpt lat="43.2649694" lon="10.8035865"><ele>470.8333333333333</ele><time>2026-04-18T13:29:56.206Z</time></trkpt><trkpt lat="43.2648807" lon="10.8035806"><ele>473.0</ele><time>2026-04-18T13:29:57.207Z</time></trkpt><trkpt lat="43.2647722" lon="10.8035754"><ele>474.0</ele><time>2026-04-18T13:29:58.196Z</time></trkpt><trkpt lat="43.2646741" lon="10.8035724"><ele>474.99999999999994</ele><time>2026-04-18T13:29:59.206Z</time></trkpt><trkpt lat="43.2645827" lon="10.8035755"><ele>475.99999999999994</ele><time>2026-04-18T13:30:00.21Z</time></trkpt><trkpt lat="43.2644946" lon="10.8035777"><ele>477.0</ele><time>2026-04-18T13:30:01.195Z</time></trkpt><trkpt lat="43.2644088" lon="10.8035882"><ele>478.0</ele><time>2026-04-18T13:30:02.199Z</time></trkpt><trkpt lat="43.2643205" lon="10.8035824"><ele>478.00000000000006</ele><time>2026-04-18T13:30:03.207Z</time></trkpt><trkpt lat="43.2642386" lon="10.803549"><ele>478.0</ele><time>2026-04-18T13:30:04.202Z</time></trkpt><trkpt lat="43.2641599" lon="10.8034941"><ele>478.0</ele><time>2026-04-18T13:30:05.211Z</time></trkpt><trkpt lat="43.2640862" lon="10.8034313"><ele>478.0</ele><time>2026-04-18T13:30:06.203Z</time></trkpt><trkpt lat="43.2640276" lon="10.8033684"><ele>478.00000000000006</ele><time>2026-04-18T13:30:07.203Z</time></trkpt><trkpt lat="43.2639763" lon="10.8033085"><ele>478.0</ele><time>2026-04-18T13:30:08.209Z</time></trkpt><trkpt lat="43.2639226" lon="10.8032557"><ele>475.83333333333337</ele><time>2026-04-18T13:30:09.215Z</time></trkpt><trkpt lat="43.2638389" lon="10.803203"><ele>473.6666666666667</ele><time>2026-04-18T13:30:11.211Z</time></trkpt><trkpt lat="43.2637823" lon="10.803147"><ele>471.5</ele><time>2026-04-18T13:30:13.193Z</time></trkpt><trkpt lat="43.2637263" lon="10.8030714"><ele>469.33333333333337</ele><time>2026-04-18T13:30:17.201Z</time></trkpt><trkpt lat="43.2636822" lon="10.8029987"><ele>467.1666666666667</ele><time>2026-04-18T13:30:19.21Z</time></trkpt><trkpt lat="43.2636472" lon="10.8028934"><ele>465.0</ele><time>2026-04-18T13:30:21.193Z</time></trkpt><trkpt lat="43.2636098" lon="10.8027647"><ele>465.2</ele><time>2026-04-18T13:30:23.205Z</time></trkpt><trkpt lat="43.2635963" lon="10.8026305"><ele>465.4</ele><time>2026-04-18T13:30:25.202Z</time></trkpt><trkpt lat="43.2635987" lon="10.8025057"><ele>465.6</ele><time>2026-04-18T13:30:27.207Z</time></trkpt><trkpt lat="43.2636092" lon="10.8023671"><ele>465.8</ele><time>2026-04-18T13:30:29.213Z</time></trkpt><trkpt lat="43.2636384" lon="10.8022233"><ele>466.0</ele><time>2026-04-18T13:30:31.199Z</time></trkpt><trkpt lat="43.2636646" lon="10.8020816"><ele>466.00000000000006</ele><time>2026-04-18T13:30:33.211Z</time></trkpt><trkpt lat="43.2636771" lon="10.8019911"><ele>466.0</ele><time>2026-04-18T13:30:34.206Z</time></trkpt><trkpt lat="43.2636954" lon="10.8018844"><ele>466.0</ele><time>2026-04-18T13:30:35.211Z</time></trkpt><trkpt lat="43.263721" lon="10.8017658"><ele>466.0</ele><time>2026-04-18T13:30:36.215Z</time></trkpt><trkpt lat="43.2637605" lon="10.801644"><ele>466.00000000000006</ele><time>2026-04-18T13:30:37.203Z</time></trkpt><trkpt lat="43.2637986" lon="10.8015348"><ele>466.0</ele><time>2026-04-18T13:30:38.198Z</time></trkpt><trkpt lat="43.26385" lon="10.8014313"><ele>466.00000000000006</ele><time>2026-04-18T13:30:39.201Z</time></trkpt><trkpt lat="43.2638877" lon="10.8013342"><ele>466.0</ele><time>2026-04-18T13:30:40.203Z</time></trkpt><trkpt lat="43.263919" lon="10.8012281"><ele>466.0</ele><time>2026-04-18T13:30:41.202Z</time></trkpt><trkpt lat="43.2639326" lon="10.8011067"><ele>466.0</ele><time>2026-04-18T13:30:42.194Z</time></trkpt><trkpt lat="43.2639224" lon="10.800995"><ele>466.00000000000006</ele><time>2026-04-18T13:30:43.203Z</time></trkpt><trkpt lat="43.2638943" lon="10.800898"><ele>466.0</ele><time>2026-04-18T13:30:44.2Z</time></trkpt><trkpt lat="43.2638515" lon="10.8008089"><ele>465.50000000000006</ele><time>2026-04-18T13:30:45.204Z</time></trkpt><trkpt lat="43.263794" lon="10.8007413"><ele>465.0</ele><time>2026-04-18T13:30:46.209Z</time></trkpt><trkpt lat="43.2637281" lon="10.8006788"><ele>464.5</ele><time>2026-04-18T13:30:47.194Z</time></trkpt><trkpt lat="43.2636577" lon="10.8006181"><ele>464.0</ele><time>2026-04-18T13:30:48.198Z</time></trkpt><trkpt lat="43.2635875" lon="10.800566"><ele>463.50000000000006</ele><time>2026-04-18T13:30:49.205Z</time></trkpt><trkpt lat="43.2635226" lon="10.800498"><ele>463.0</ele><time>2026-04-18T13:30:50.205Z</time></trkpt><trkpt lat="43.2634469" lon="10.8004227"><ele>463.0</ele><time>2026-04-18T13:30:51.192Z</time></trkpt><trkpt lat="43.2633682" lon="10.8003406"><ele>462.99999999999994</ele><time>2026-04-18T13:30:52.205Z</time></trkpt><trkpt lat="43.263284" lon="10.8002465"><ele>462.99999999999994</ele><time>2026-04-18T13:30:53.201Z</time></trkpt><trkpt lat="43.2631961" lon="10.800149"><ele>463.0</ele><time>2026-04-18T13:30:54.196Z</time></trkpt><trkpt lat="43.2631157" lon="10.8000518"><ele>463.0</ele><time>2026-04-18T13:30:55.2Z</time></trkpt><trkpt lat="43.2630315" lon="10.7999656"><ele>464.2</ele><time>2026-04-18T13:30:56.205Z</time></trkpt><trkpt lat="43.2629429" lon="10.7998821"><ele>465.4</ele><time>2026-04-18T13:30:57.201Z</time></trkpt><trkpt lat="43.2628683" lon="10.799798"><ele>466.59999999999997</ele><time>2026-04-18T13:30:58.188Z</time></trkpt><trkpt lat="43.2627927" lon="10.7997135"><ele>467.79999999999995</ele><time>2026-04-18T13:30:59.195Z</time></trkpt><trkpt lat="43.2627109" lon="10.799633"><ele>469.0</ele><time>2026-04-18T13:31:00.2Z</time></trkpt><trkpt lat="43.2626366" lon="10.7995683"><ele>469.00000000000006</ele><time>2026-04-18T13:31:01.187Z</time></trkpt><trkpt lat="43.2625621" lon="10.7995116"><ele>469.0</ele><time>2026-04-18T13:31:02.209Z</time></trkpt><trkpt lat="43.262499" lon="10.7994367"><ele>469.0</ele><time>2026-04-18T13:31:03.197Z</time></trkpt><trkpt lat="43.2624314" lon="10.7993507"><ele>469.0</ele><time>2026-04-18T13:31:04.206Z</time></trkpt><trkpt lat="43.2623881" lon="10.7992469"><ele>469.00000000000006</ele><time>2026-04-18T13:31:05.195Z</time></trkpt><trkpt lat="43.2623543" lon="10.799135"><ele>469.0</ele><time>2026-04-18T13:31:06.2Z</time></trkpt><trkpt lat="43.2623267" lon="10.7990017"><ele>470.5</ele><time>2026-04-18T13:31:07.203Z</time></trkpt><trkpt lat="43.2623011" lon="10.7988505"><ele>472.0</ele><time>2026-04-18T13:31:08.196Z</time></trkpt><trkpt lat="43.2622713" lon="10.7986902"><ele>473.5</ele><time>2026-04-18T13:31:09.204Z</time></trkpt><trkpt lat="43.2622329" lon="10.7985302"><ele>475.0</ele><time>2026-04-18T13:31:10.198Z</time></trkpt><trkpt lat="43.2621967" lon="10.7983755"><ele>477.8</ele><time>2026-04-18T13:31:11.204Z</time></trkpt><trkpt lat="43.262157" lon="10.7982248"><ele>480.6</ele><time>2026-04-18T13:31:12.21Z</time></trkpt><trkpt lat="43.2621209" lon="10.7980882"><ele>483.4</ele><time>2026-04-18T13:31:13.203Z</time></trkpt><trkpt lat="43.262089" lon="10.7979538"><ele>486.2</ele><time>2026-04-18T13:31:14.193Z</time></trkpt><trkpt lat="43.2620682" lon="10.7978257"><ele>489.0</ele><time>2026-04-18T13:31:15.195Z</time></trkpt><trkpt lat="43.2620458" lon="10.7977076"><ele>488.6</ele><time>2026-04-18T13:31:16.209Z</time></trkpt><trkpt lat="43.2620103" lon="10.7975956"><ele>488.2</ele><time>2026-04-18T13:31:17.198Z</time></trkpt><trkpt lat="43.2619716" lon="10.7974723"><ele>487.80000000000007</ele><time>2026-04-18T13:31:18.216Z</time></trkpt><trkpt lat="43.2619247" lon="10.7973416"><ele>487.40000000000003</ele><time>2026-04-18T13:31:19.193Z</time></trkpt><trkpt lat="43.2618907" lon="10.7972091"><ele>487.0</ele><time>2026-04-18T13:31:20.196Z</time></trkpt><trkpt lat="43.2618619" lon="10.7970917"><ele>487.0</ele><time>2026-04-18T13:31:21.198Z</time></trkpt><trkpt lat="43.2618387" lon="10.7969942"><ele>487.0</ele><time>2026-04-18T13:31:22.197Z</time></trkpt><trkpt lat="43.2618211" lon="10.7969083"><ele>487.0</ele><time>2026-04-18T13:31:23.198Z</time></trkpt><trkpt lat="43.2617916" lon="10.7968218"><ele>487.0</ele><time>2026-04-18T13:31:24.202Z</time></trkpt><trkpt lat="43.2617569" lon="10.7967331"><ele>487.0</ele><time>2026-04-18T13:31:25.203Z</time></trkpt><trkpt lat="43.2617184" lon="10.7966341"><ele>487.0</ele><time>2026-04-18T13:31:26.188Z</time></trkpt><trkpt lat="43.2616842" lon="10.7965302"><ele>487.0</ele><time>2026-04-18T13:31:27.191Z</time></trkpt><trkpt lat="43.2616437" lon="10.7964286"><ele>485.83333333333337</ele><time>2026-04-18T13:31:28.191Z</time></trkpt><trkpt lat="43.2616112" lon="10.7963276"><ele>484.6666666666667</ele><time>2026-04-18T13:31:29.185Z</time></trkpt><trkpt lat="43.2615738" lon="10.7962153"><ele>483.5</ele><time>2026-04-18T13:31:30.202Z</time></trkpt><trkpt lat="43.2615372" lon="10.7961093"><ele>482.33333333333337</ele><time>2026-04-18T13:31:31.192Z</time></trkpt><trkpt lat="43.261518" lon="10.7960035"><ele>481.1666666666667</ele><time>2026-04-18T13:31:32.206Z</time></trkpt><trkpt lat="43.2614965" lon="10.7958801"><ele>480.0</ele><time>2026-04-18T13:31:33.188Z</time></trkpt><trkpt lat="43.2614559" lon="10.7957711"><ele>479.4</ele><time>2026-04-18T13:31:34.2Z</time></trkpt><trkpt lat="43.2614135" lon="10.7956484"><ele>478.8</ele><time>2026-04-18T13:31:35.199Z</time></trkpt><trkpt lat="43.2613622" lon="10.7955213"><ele>478.20000000000005</ele><time>2026-04-18T13:31:36.199Z</time></trkpt><trkpt lat="43.2613011" lon="10.7953959"><ele>477.6</ele><time>2026-04-18T13:31:37.193Z</time></trkpt><trkpt lat="43.2612382" lon="10.795289"><ele>477.0</ele><time>2026-04-18T13:31:38.194Z</time></trkpt><trkpt lat="43.2611824" lon="10.7951815"><ele>475.40000000000003</ele><time>2026-04-18T13:31:39.185Z</time></trkpt><trkpt lat="43.2611357" lon="10.7950777"><ele>473.80000000000007</ele><time>2026-04-18T13:31:40.19Z</time></trkpt><trkpt lat="43.2610855" lon="10.7949875"><ele>472.2</ele><time>2026-04-18T13:31:41.189Z</time></trkpt><trkpt lat="43.2610375" lon="10.7948891"><ele>470.6</ele><time>2026-04-18T13:31:42.2Z</time></trkpt><trkpt lat="43.2609729" lon="10.7947726"><ele>469.0</ele><time>2026-04-18T13:31:43.203Z</time></trkpt><trkpt lat="43.2609019" lon="10.7946565"><ele>469.0</ele><time>2026-04-18T13:31:44.2Z</time></trkpt><trkpt lat="43.2608315" lon="10.7945426"><ele>469.0</ele><time>2026-04-18T13:31:45.185Z</time></trkpt><trkpt lat="43.2607619" lon="10.7944256"><ele>469.0</ele><time>2026-04-18T13:31:46.209Z</time></trkpt><trkpt lat="43.2606874" lon="10.7943121"><ele>469.0</ele><time>2026-04-18T13:31:47.198Z</time></trkpt><trkpt lat="43.2606157" lon="10.7941902"><ele>469.0</ele><time>2026-04-18T13:31:48.203Z</time></trkpt><trkpt lat="43.2605603" lon="10.7940626"><ele>467.0</ele><time>2026-04-18T13:31:49.211Z</time></trkpt><trkpt lat="43.2605165" lon="10.7939302"><ele>465.0</ele><time>2026-04-18T13:31:50.208Z</time></trkpt><trkpt lat="43.2604818" lon="10.7938028"><ele>463.0</ele><time>2026-04-18T13:31:51.201Z</time></trkpt><trkpt lat="43.2604552" lon="10.7936732"><ele>461.0</ele><time>2026-04-18T13:31:52.2Z</time></trkpt><trkpt lat="43.2604253" lon="10.7935503"><ele>459.0</ele><time>2026-04-18T13:31:53.215Z</time></trkpt><trkpt lat="43.2603866" lon="10.7934257"><ele>459.0</ele><time>2026-04-18T13:31:54.19Z</time></trkpt><trkpt lat="43.2603385" lon="10.7932972"><ele>459.0</ele><time>2026-04-18T13:31:55.195Z</time></trkpt><trkpt lat="43.2602888" lon="10.7931613"><ele>459.0</ele><time>2026-04-18T13:31:56.195Z</time></trkpt><trkpt lat="43.2602505" lon="10.7930273"><ele>459.0</ele><time>2026-04-18T13:31:57.21Z</time></trkpt><trkpt lat="43.2601968" lon="10.7929065"><ele>459.0</ele><time>2026-04-18T13:31:58.209Z</time></trkpt><trkpt lat="43.2601408" lon="10.7927821"><ele>459.6</ele><time>2026-04-18T13:31:59.203Z</time></trkpt><trkpt lat="43.2600766" lon="10.7926632"><ele>460.2</ele><time>2026-04-18T13:32:00.212Z</time></trkpt><trkpt lat="43.260017" lon="10.7925418"><ele>460.80000000000007</ele><time>2026-04-18T13:32:01.209Z</time></trkpt><trkpt lat="43.2599596" lon="10.7924229"><ele>461.40000000000003</ele><time>2026-04-18T13:32:02.221Z</time></trkpt><trkpt lat="43.2598952" lon="10.7923006"><ele>462.0</ele><time>2026-04-18T13:32:03.201Z</time></trkpt><trkpt lat="43.2598356" lon="10.7921849"><ele>461.0</ele><time>2026-04-18T13:32:04.204Z</time></trkpt><trkpt lat="43.259766" lon="10.7920627"><ele>460.0</ele><time>2026-04-18T13:32:05.21Z</time></trkpt><trkpt lat="43.2596869" lon="10.7919401"><ele>459.0</ele><time>2026-04-18T13:32:06.199Z</time></trkpt><trkpt lat="43.2596066" lon="10.7918262"><ele>458.0</ele><time>2026-04-18T13:32:07.227Z</time></trkpt><trkpt lat="43.2595219" lon="10.7917003"><ele>458.0</ele><time>2026-04-18T13:32:08.196Z</time></trkpt><trkpt lat="43.2594379" lon="10.791576"><ele>458.0</ele><time>2026-04-18T13:32:09.201Z</time></trkpt><trkpt lat="43.2593608" lon="10.7914481"><ele>458.0</ele><time>2026-04-18T13:32:10.209Z</time></trkpt><trkpt lat="43.2592868" lon="10.7913172"><ele>458.0</ele><time>2026-04-18T13:32:11.195Z</time></trkpt><trkpt lat="43.2592173" lon="10.79119"><ele>458.0</ele><time>2026-04-18T13:32:12.2Z</time></trkpt><trkpt lat="43.25915" lon="10.7910584"><ele>457.99999999999994</ele><time>2026-04-18T13:32:13.201Z</time></trkpt><trkpt lat="43.2590936" lon="10.7909289"><ele>457.99999999999994</ele><time>2026-04-18T13:32:14.198Z</time></trkpt><trkpt lat="43.2590364" lon="10.790807"><ele>458.0</ele><time>2026-04-18T13:32:15.197Z</time></trkpt><trkpt lat="43.2589906" lon="10.7906998"><ele>458.0</ele><time>2026-04-18T13:32:16.203Z</time></trkpt><trkpt lat="43.2589426" lon="10.7905819"><ele>457.79999999999995</ele><time>2026-04-18T13:32:17.206Z</time></trkpt><trkpt lat="43.2588973" lon="10.7904612"><ele>457.59999999999997</ele><time>2026-04-18T13:32:18.19Z</time></trkpt><trkpt lat="43.2588449" lon="10.7903342"><ele>457.40000000000003</ele><time>2026-04-18T13:32:19.188Z</time></trkpt><trkpt lat="43.2587949" lon="10.7902011"><ele>457.20000000000005</ele><time>2026-04-18T13:32:20.193Z</time></trkpt><trkpt lat="43.2587501" lon="10.7900616"><ele>457.0</ele><time>2026-04-18T13:32:21.207Z</time></trkpt><trkpt lat="43.2587004" lon="10.7899124"><ele>457.0</ele><time>2026-04-18T13:32:22.207Z</time></trkpt><trkpt lat="43.258663" lon="10.7897658"><ele>457.00000000000006</ele><time>2026-04-18T13:32:23.21Z</time></trkpt><trkpt lat="43.2586369" lon="10.7896178"><ele>457.00000000000006</ele><time>2026-04-18T13:32:24.191Z</time></trkpt><trkpt lat="43.2586088" lon="10.7894861"><ele>457.0</ele><time>2026-04-18T13:32:25.19Z</time></trkpt><trkpt lat="43.2585773" lon="10.7893579"><ele>457.0</ele><time>2026-04-18T13:32:26.214Z</time></trkpt><trkpt lat="43.2585505" lon="10.7892257"><ele>456.6</ele><time>2026-04-18T13:32:27.201Z</time></trkpt><trkpt lat="43.2585281" lon="10.7890898"><ele>456.20000000000005</ele><time>2026-04-18T13:32:28.21Z</time></trkpt><trkpt lat="43.2585128" lon="10.7889455"><ele>455.8</ele><time>2026-04-18T13:32:29.209Z</time></trkpt><trkpt lat="43.2584971" lon="10.7888025"><ele>455.4</ele><time>2026-04-18T13:32:30.212Z</time></trkpt><trkpt lat="43.2584826" lon="10.7886522"><ele>455.0</ele><time>2026-04-18T13:32:31.2Z</time></trkpt><trkpt lat="43.2584662" lon="10.7885051"><ele>455.0</ele><time>2026-04-18T13:32:32.199Z</time></trkpt><trkpt lat="43.25846" lon="10.7883711"><ele>455.0</ele><time>2026-04-18T13:32:33.194Z</time></trkpt><trkpt lat="43.2584606" lon="10.7882467"><ele>455.0</ele><time>2026-04-18T13:32:34.213Z</time></trkpt><trkpt lat="43.2584585" lon="10.7881148"><ele>455.0</ele><time>2026-04-18T13:32:35.197Z</time></trkpt><trkpt lat="43.2584649" lon="10.7879853"><ele>455.0</ele><time>2026-04-18T13:32:36.207Z</time></trkpt><trkpt lat="43.2584654" lon="10.7878612"><ele>454.99999999999994</ele><time>2026-04-18T13:32:37.201Z</time></trkpt><trkpt lat="43.2584553" lon="10.7877303"><ele>455.0</ele><time>2026-04-18T13:32:38.208Z</time></trkpt><trkpt lat="43.2584471" lon="10.787608"><ele>455.0</ele><time>2026-04-18T13:32:39.208Z</time></trkpt><trkpt lat="43.2584273" lon="10.7874912"><ele>455.0</ele><time>2026-04-18T13:32:40.2Z</time></trkpt><trkpt lat="43.2583849" lon="10.7873868"><ele>454.99999999999994</ele><time>2026-04-18T13:32:41.19Z</time></trkpt><trkpt lat="43.2583274" lon="10.7872961"><ele>455.0</ele><time>2026-04-18T13:32:42.198Z</time></trkpt><trkpt lat="43.2582482" lon="10.7872383"><ele>455.4</ele><time>2026-04-18T13:32:43.19Z</time></trkpt><trkpt lat="43.258163" lon="10.7871635"><ele>455.8</ele><time>2026-04-18T13:32:44.192Z</time></trkpt><trkpt lat="43.2580733" lon="10.7870856"><ele>456.20000000000005</ele><time>2026-04-18T13:32:45.196Z</time></trkpt><trkpt lat="43.2579803" lon="10.7870057"><ele>456.6</ele><time>2026-04-18T13:32:46.196Z</time></trkpt><trkpt lat="43.2578786" lon="10.7869277"><ele>457.0</ele><time>2026-04-18T13:32:47.182Z</time></trkpt><trkpt lat="43.2577828" lon="10.7868453"><ele>455.20000000000005</ele><time>2026-04-18T13:32:48.199Z</time></trkpt><trkpt lat="43.2576991" lon="10.7867544"><ele>453.40000000000003</ele><time>2026-04-18T13:32:49.197Z</time></trkpt><trkpt lat="43.2576159" lon="10.7866569"><ele>451.59999999999997</ele><time>2026-04-18T13:32:50.194Z</time></trkpt><trkpt lat="43.2575383" lon="10.786571"><ele>449.79999999999995</ele><time>2026-04-18T13:32:51.203Z</time></trkpt><trkpt lat="43.2574714" lon="10.7864847"><ele>448.0</ele><time>2026-04-18T13:32:52.209Z</time></trkpt><trkpt lat="43.2573968" lon="10.7863941"><ele>448.00000000000006</ele><time>2026-04-18T13:32:53.196Z</time></trkpt><trkpt lat="43.2573206" lon="10.7863109"><ele>448.0</ele><time>2026-04-18T13:32:54.203Z</time></trkpt><trkpt lat="43.2572591" lon="10.7862237"><ele>448.0</ele><time>2026-04-18T13:32:55.195Z</time></trkpt><trkpt lat="43.2572166" lon="10.7861238"><ele>448.0</ele><time>2026-04-18T13:32:56.206Z</time></trkpt><trkpt lat="43.2571925" lon="10.7860173"><ele>448.00000000000006</ele><time>2026-04-18T13:32:57.201Z</time></trkpt><trkpt lat="43.2571843" lon="10.7859183"><ele>448.0</ele><time>2026-04-18T13:32:58.207Z</time></trkpt><trkpt lat="43.2571937" lon="10.7858223"><ele>446.00000000000006</ele><time>2026-04-18T13:32:59.21Z</time></trkpt><trkpt lat="43.2572097" lon="10.7857235"><ele>444.0</ele><time>2026-04-18T13:33:00.201Z</time></trkpt><trkpt lat="43.2572219" lon="10.7856165"><ele>442.0</ele><time>2026-04-18T13:33:01.212Z</time></trkpt><trkpt lat="43.2572291" lon="10.7855173"><ele>440.0</ele><time>2026-04-18T13:33:02.206Z</time></trkpt><trkpt lat="43.2572234" lon="10.7854191"><ele>438.00000000000006</ele><time>2026-04-18T13:33:03.217Z</time></trkpt><trkpt lat="43.2571996" lon="10.7853146"><ele>436.0</ele><time>2026-04-18T13:33:04.201Z</time></trkpt><trkpt lat="43.2571571" lon="10.7852184"><ele>436.6666666666667</ele><time>2026-04-18T13:33:05.19Z</time></trkpt><trkpt lat="43.257114" lon="10.78513"><ele>437.33333333333337</ele><time>2026-04-18T13:33:06.214Z</time></trkpt><trkpt lat="43.257066" lon="10.7850661"><ele>438.0</ele><time>2026-04-18T13:33:07.217Z</time></trkpt><trkpt lat="43.2570236" lon="10.7849949"><ele>438.66666666666663</ele><time>2026-04-18T13:33:08.203Z</time></trkpt><trkpt lat="43.2569918" lon="10.7849198"><ele>439.3333333333333</ele><time>2026-04-18T13:33:09.196Z</time></trkpt><trkpt lat="43.2569512" lon="10.784777"><ele>440.0</ele><time>2026-04-18T13:33:11.189Z</time></trkpt><trkpt lat="43.2569262" lon="10.7846294"><ele>439.99999999999994</ele><time>2026-04-18T13:33:13.191Z</time></trkpt><trkpt lat="43.2569228" lon="10.7845403"><ele>440.0</ele><time>2026-04-18T13:33:14.192Z</time></trkpt><trkpt lat="43.2569142" lon="10.7844356"><ele>440.0</ele><time>2026-04-18T13:33:15.2Z</time></trkpt><trkpt lat="43.2569031" lon="10.7843202"><ele>440.0</ele><time>2026-04-18T13:33:16.19Z</time></trkpt><trkpt lat="43.2568754" lon="10.7841995"><ele>439.99999999999994</ele><time>2026-04-18T13:33:17.194Z</time></trkpt><trkpt lat="43.2568426" lon="10.7840682"><ele>440.0</ele><time>2026-04-18T13:33:18.206Z</time></trkpt><trkpt lat="43.2568246" lon="10.7839405"><ele>440.66666666666663</ele><time>2026-04-18T13:33:19.191Z</time></trkpt><trkpt lat="43.2568245" lon="10.7838171"><ele>441.3333333333333</ele><time>2026-04-18T13:33:20.216Z</time></trkpt><trkpt lat="43.2568136" lon="10.7836947"><ele>442.0</ele><time>2026-04-18T13:33:21.201Z</time></trkpt><trkpt lat="43.2567991" lon="10.7835691"><ele>442.66666666666663</ele><time>2026-04-18T13:33:22.196Z</time></trkpt><trkpt lat="43.25677" lon="10.783455"><ele>443.3333333333333</ele><time>2026-04-18T13:33:23.197Z</time></trkpt><trkpt lat="43.256727" lon="10.7833523"><ele>444.0</ele><time>2026-04-18T13:33:24.215Z</time></trkpt><trkpt lat="43.2566635" lon="10.783261"><ele>445.0</ele><time>2026-04-18T13:33:25.201Z</time></trkpt><trkpt lat="43.2565822" lon="10.7832021"><ele>446.0</ele><time>2026-04-18T13:33:26.188Z</time></trkpt><trkpt lat="43.2564947" lon="10.7831779"><ele>447.0</ele><time>2026-04-18T13:33:27.198Z</time></trkpt><trkpt lat="43.2563942" lon="10.7831774"><ele>448.0</ele><time>2026-04-18T13:33:28.198Z</time></trkpt><trkpt lat="43.2563043" lon="10.7831896"><ele>449.0</ele><time>2026-04-18T13:33:29.199Z</time></trkpt><trkpt lat="43.2562151" lon="10.7831927"><ele>449.3333333333333</ele><time>2026-04-18T13:33:30.194Z</time></trkpt><trkpt lat="43.2561346" lon="10.7832007"><ele>449.66666666666663</ele><time>2026-04-18T13:33:31.194Z</time></trkpt><trkpt lat="43.2560602" lon="10.7831947"><ele>450.0</ele><time>2026-04-18T13:33:32.196Z</time></trkpt><trkpt lat="43.2559799" lon="10.7831863"><ele>450.33333333333337</ele><time>2026-04-18T13:33:33.187Z</time></trkpt><trkpt lat="43.2559111" lon="10.7831624"><ele>450.6666666666667</ele><time>2026-04-18T13:33:34.197Z</time></trkpt><trkpt lat="43.2558031" lon="10.7830778"><ele>451.0</ele><time>2026-04-18T13:33:36.196Z</time></trkpt><trkpt lat="43.2557523" lon="10.7830073"><ele>451.00000000000006</ele><time>2026-04-18T13:33:37.189Z</time></trkpt><trkpt lat="43.2557086" lon="10.78292"><ele>451.0</ele><time>2026-04-18T13:33:38.192Z</time></trkpt><trkpt lat="43.2556503" lon="10.7828292"><ele>451.0</ele><time>2026-04-18T13:33:39.19Z</time></trkpt><trkpt lat="43.2555879" lon="10.78275"><ele>451.0</ele><time>2026-04-18T13:33:40.193Z</time></trkpt><trkpt lat="43.2555237" lon="10.7826783"><ele>451.00000000000006</ele><time>2026-04-18T13:33:41.198Z</time></trkpt><trkpt lat="43.2554746" lon="10.7826154"><ele>451.0</ele><time>2026-04-18T13:33:42.194Z</time></trkpt><trkpt lat="43.2554394" lon="10.7825273"><ele>451.00000000000006</ele><time>2026-04-18T13:33:43.19Z</time></trkpt><trkpt lat="43.2554258" lon="10.7824237"><ele>451.0</ele><time>2026-04-18T13:33:44.189Z</time></trkpt><trkpt lat="43.2554232" lon="10.7823196"><ele>451.0</ele><time>2026-04-18T13:33:45.186Z</time></trkpt><trkpt lat="43.2554262" lon="10.7821992"><ele>451.0</ele><time>2026-04-18T13:33:46.203Z</time></trkpt><trkpt lat="43.2554179" lon="10.7820759"><ele>451.00000000000006</ele><time>2026-04-18T13:33:47.185Z</time></trkpt><trkpt lat="43.255395" lon="10.781962"><ele>451.0</ele><time>2026-04-18T13:33:48.207Z</time></trkpt><trkpt lat="43.2553629" lon="10.7818485"><ele>453.4</ele><time>2026-04-18T13:33:49.194Z</time></trkpt><trkpt lat="43.2553236" lon="10.7817396"><ele>455.8</ele><time>2026-04-18T13:33:50.195Z</time></trkpt><trkpt lat="43.2552614" lon="10.7816124"><ele>458.19999999999993</ele><time>2026-04-18T13:33:51.189Z</time></trkpt><trkpt lat="43.2551963" lon="10.7814861"><ele>460.59999999999997</ele><time>2026-04-18T13:33:52.207Z</time></trkpt><trkpt lat="43.2551406" lon="10.78139"><ele>463.0</ele><time>2026-04-18T13:33:53.198Z</time></trkpt><trkpt lat="43.255073" lon="10.7812975"><ele>463.0</ele><time>2026-04-18T13:33:54.204Z</time></trkpt><trkpt lat="43.2549992" lon="10.7812208"><ele>462.99999999999994</ele><time>2026-04-18T13:33:55.198Z</time></trkpt><trkpt lat="43.2549038" lon="10.7811498"><ele>462.99999999999994</ele><time>2026-04-18T13:33:56.202Z</time></trkpt><trkpt lat="43.2548036" lon="10.7811205"><ele>463.0</ele><time>2026-04-18T13:33:57.211Z</time></trkpt><trkpt lat="43.2547027" lon="10.7811174"><ele>463.0</ele><time>2026-04-18T13:33:58.214Z</time></trkpt><trkpt lat="43.2546146" lon="10.7811482"><ele>462.1666666666667</ele><time>2026-04-18T13:33:59.204Z</time></trkpt><trkpt lat="43.254543" lon="10.7811941"><ele>461.33333333333337</ele><time>2026-04-18T13:34:00.207Z</time></trkpt><trkpt lat="43.2544607" lon="10.7812427"><ele>460.5</ele><time>2026-04-18T13:34:01.211Z</time></trkpt><trkpt lat="43.2543778" lon="10.781276"><ele>459.66666666666663</ele><time>2026-04-18T13:34:02.207Z</time></trkpt><trkpt lat="43.2542942" lon="10.7812809"><ele>458.8333333333333</ele><time>2026-04-18T13:34:03.196Z</time></trkpt><trkpt lat="43.2542191" lon="10.7812617"><ele>458.0</ele><time>2026-04-18T13:34:04.211Z</time></trkpt><trkpt lat="43.2541396" lon="10.7812317"><ele>458.0</ele><time>2026-04-18T13:34:05.199Z</time></trkpt><trkpt lat="43.254064" lon="10.781157"><ele>457.99999999999994</ele><time>2026-04-18T13:34:06.217Z</time></trkpt><trkpt lat="43.2539876" lon="10.7810832"><ele>457.99999999999994</ele><time>2026-04-18T13:34:07.19Z</time></trkpt><trkpt lat="43.2539025" lon="10.7810134"><ele>458.0</ele><time>2026-04-18T13:34:08.214Z</time></trkpt><trkpt lat="43.2538328" lon="10.7809503"><ele>458.0</ele><time>2026-04-18T13:34:09.194Z</time></trkpt><trkpt lat="43.2537605" lon="10.7808758"><ele>458.66666666666663</ele><time>2026-04-18T13:34:10.201Z</time></trkpt><trkpt lat="43.2537006" lon="10.7807916"><ele>459.3333333333333</ele><time>2026-04-18T13:34:11.194Z</time></trkpt><trkpt lat="43.2536451" lon="10.7807029"><ele>460.0</ele><time>2026-04-18T13:34:12.197Z</time></trkpt><trkpt lat="43.2536095" lon="10.7806071"><ele>460.66666666666663</ele><time>2026-04-18T13:34:13.193Z</time></trkpt><trkpt lat="43.2535759" lon="10.7805026"><ele>461.3333333333333</ele><time>2026-04-18T13:34:14.207Z</time></trkpt><trkpt lat="43.2535361" lon="10.7803892"><ele>462.0</ele><time>2026-04-18T13:34:15.193Z</time></trkpt><trkpt lat="43.253492" lon="10.7802726"><ele>464.40000000000003</ele><time>2026-04-18T13:34:16.2Z</time></trkpt><trkpt lat="43.2534421" lon="10.7801642"><ele>466.80000000000007</ele><time>2026-04-18T13:34:17.193Z</time></trkpt><trkpt lat="43.2533909" lon="10.780057"><ele>469.2</ele><time>2026-04-18T13:34:18.205Z</time></trkpt><trkpt lat="43.2533346" lon="10.7799544"><ele>471.6</ele><time>2026-04-18T13:34:19.188Z</time></trkpt><trkpt lat="43.2532712" lon="10.7798732"><ele>474.0</ele><time>2026-04-18T13:34:20.195Z</time></trkpt><trkpt lat="43.2532031" lon="10.7797904"><ele>474.0</ele><time>2026-04-18T13:34:21.208Z</time></trkpt><trkpt lat="43.2531293" lon="10.7797046"><ele>474.0</ele><time>2026-04-18T13:34:22.203Z</time></trkpt><trkpt lat="43.2530512" lon="10.779618"><ele>474.0</ele><time>2026-04-18T13:34:23.209Z</time></trkpt><trkpt lat="43.2529743" lon="10.7795355"><ele>474.0</ele><time>2026-04-18T13:34:24.201Z</time></trkpt><trkpt lat="43.2529024" lon="10.779461"><ele>474.0</ele><time>2026-04-18T13:34:25.186Z</time></trkpt><trkpt lat="43.2528255" lon="10.7793837"><ele>474.2</ele><time>2026-04-18T13:34:26.189Z</time></trkpt><trkpt lat="43.2527474" lon="10.7793082"><ele>474.4</ele><time>2026-04-18T13:34:27.2Z</time></trkpt><trkpt lat="43.252666" lon="10.7792393"><ele>474.6</ele><time>2026-04-18T13:34:28.191Z</time></trkpt><trkpt lat="43.2525796" lon="10.7791697"><ele>474.8</ele><time>2026-04-18T13:34:29.194Z</time></trkpt><trkpt lat="43.2524948" lon="10.7790988"><ele>475.0</ele><time>2026-04-18T13:34:30.199Z</time></trkpt><trkpt lat="43.2524093" lon="10.7790252"><ele>475.0</ele><time>2026-04-18T13:34:31.185Z</time></trkpt><trkpt lat="43.2523175" lon="10.7789516"><ele>475.0</ele><time>2026-04-18T13:34:32.189Z</time></trkpt><trkpt lat="43.2522285" lon="10.7788769"><ele>475.0</ele><time>2026-04-18T13:34:33.19Z</time></trkpt><trkpt lat="43.2521316" lon="10.7788018"><ele>475.0</ele><time>2026-04-18T13:34:34.199Z</time></trkpt><trkpt lat="43.2520311" lon="10.7787252"><ele>475.0</ele><time>2026-04-18T13:34:35.187Z</time></trkpt><trkpt lat="43.2519258" lon="10.7786428"><ele>473.75</ele><time>2026-04-18T13:34:36.191Z</time></trkpt><trkpt lat="43.2518189" lon="10.7785602"><ele>472.5</ele><time>2026-04-18T13:34:37.187Z</time></trkpt><trkpt lat="43.2517093" lon="10.7784738"><ele>471.25</ele><time>2026-04-18T13:34:38.186Z</time></trkpt><trkpt lat="43.2515984" lon="10.7783972"><ele>470.0</ele><time>2026-04-18T13:34:39.184Z</time></trkpt><trkpt lat="43.2514915" lon="10.7783143"><ele>470.4</ele><time>2026-04-18T13:34:40.185Z</time></trkpt><trkpt lat="43.2513887" lon="10.7782461"><ele>470.8</ele><time>2026-04-18T13:34:41.189Z</time></trkpt><trkpt lat="43.251283" lon="10.7781793"><ele>471.20000000000005</ele><time>2026-04-18T13:34:42.201Z</time></trkpt><trkpt lat="43.2511875" lon="10.7781235"><ele>471.6</ele><time>2026-04-18T13:34:43.195Z</time></trkpt><trkpt lat="43.2510988" lon="10.7780861"><ele>472.0</ele><time>2026-04-18T13:34:44.203Z</time></trkpt><trkpt lat="43.2510352" lon="10.7780485"><ele>472.00000000000006</ele><time>2026-04-18T13:34:45.194Z</time></trkpt><trkpt lat="43.2509659" lon="10.7780137"><ele>472.0</ele><time>2026-04-18T13:34:46.191Z</time></trkpt><trkpt lat="43.2508889" lon="10.7779854"><ele>472.0</ele><time>2026-04-18T13:34:47.185Z</time></trkpt><trkpt lat="43.2508051" lon="10.7779755"><ele>472.0</ele><time>2026-04-18T13:34:48.202Z</time></trkpt><trkpt lat="43.2507187" lon="10.7779889"><ele>472.00000000000006</ele><time>2026-04-18T13:34:49.194Z</time></trkpt><trkpt lat="43.2506347" lon="10.7780171"><ele>472.0</ele><time>2026-04-18T13:34:50.197Z</time></trkpt><trkpt lat="43.2505477" lon="10.7780435"><ele>472.6666666666667</ele><time>2026-04-18T13:34:51.197Z</time></trkpt><trkpt lat="43.2504568" lon="10.7780661"><ele>473.33333333333337</ele><time>2026-04-18T13:34:52.194Z</time></trkpt><trkpt lat="43.2503671" lon="10.7780553"><ele>474.0</ele><time>2026-04-18T13:34:53.19Z</time></trkpt><trkpt lat="43.2502835" lon="10.7780388"><ele>474.66666666666663</ele><time>2026-04-18T13:34:54.195Z</time></trkpt><trkpt lat="43.2502089" lon="10.778017"><ele>475.3333333333333</ele><time>2026-04-18T13:34:55.196Z</time></trkpt><trkpt lat="43.250143" lon="10.7780103"><ele>476.0</ele><time>2026-04-18T13:34:56.182Z</time></trkpt><trkpt lat="43.2500797" lon="10.7780042"><ele>476.0</ele><time>2026-04-18T13:34:57.194Z</time></trkpt><trkpt lat="43.2499749" lon="10.778012"><ele>476.0</ele><time>2026-04-18T13:34:59.185Z</time></trkpt><trkpt lat="43.2498878" lon="10.7779818"><ele>476.0</ele><time>2026-04-18T13:35:01.189Z</time></trkpt><trkpt lat="43.2498237" lon="10.7779022"><ele>476.0</ele><time>2026-04-18T13:35:03.188Z</time></trkpt><trkpt lat="43.2497507" lon="10.7777964"><ele>476.0</ele><time>2026-04-18T13:35:05.196Z</time></trkpt><trkpt lat="43.2496961" lon="10.7777416"><ele>480.4</ele><time>2026-04-18T13:35:06.194Z</time></trkpt><trkpt lat="43.2496433" lon="10.7776898"><ele>484.8</ele><time>2026-04-18T13:35:07.187Z</time></trkpt><trkpt lat="43.2495525" lon="10.7775836"><ele>489.19999999999993</ele><time>2026-04-18T13:35:09.194Z</time></trkpt><trkpt lat="43.2494525" lon="10.7774761"><ele>493.59999999999997</ele><time>2026-04-18T13:35:11.192Z</time></trkpt><trkpt lat="43.2493966" lon="10.7774105"><ele>498.0</ele><time>2026-04-18T13:35:12.186Z</time></trkpt><trkpt lat="43.249345" lon="10.7773405"><ele>498.0</ele><time>2026-04-18T13:35:13.193Z</time></trkpt><trkpt lat="43.2493002" lon="10.7772599"><ele>497.99999999999994</ele><time>2026-04-18T13:35:14.203Z</time></trkpt><trkpt lat="43.2492742" lon="10.77717"><ele>498.0</ele><time>2026-04-18T13:35:15.188Z</time></trkpt><trkpt lat="43.2492598" lon="10.7770748"><ele>498.0</ele><time>2026-04-18T13:35:16.202Z</time></trkpt><trkpt lat="43.2492485" lon="10.7769737"><ele>497.99999999999994</ele><time>2026-04-18T13:35:17.194Z</time></trkpt><trkpt lat="43.2492316" lon="10.7768821"><ele>498.0</ele><time>2026-04-18T13:35:18.191Z</time></trkpt><trkpt lat="43.24921" lon="10.7767967"><ele>498.0</ele><time>2026-04-18T13:35:19.19Z</time></trkpt><trkpt lat="43.2491483" lon="10.7766584"><ele>497.1666666666667</ele><time>2026-04-18T13:35:21.198Z</time></trkpt><trkpt lat="43.249059" lon="10.7765569"><ele>496.33333333333337</ele><time>2026-04-18T13:35:23.192Z</time></trkpt><trkpt lat="43.2489623" lon="10.7764528"><ele>495.5</ele><time>2026-04-18T13:35:25.186Z</time></trkpt><trkpt lat="43.2489063" lon="10.7763963"><ele>494.6666666666667</ele><time>2026-04-18T13:35:26.192Z</time></trkpt><trkpt lat="43.2488598" lon="10.7763233"><ele>493.83333333333337</ele><time>2026-04-18T13:35:27.182Z</time></trkpt><trkpt lat="43.2488254" lon="10.7762507"><ele>493.0</ele><time>2026-04-18T13:35:28.199Z</time></trkpt><trkpt lat="43.2487537" lon="10.7761337"><ele>495.0</ele><time>2026-04-18T13:35:30.193Z</time></trkpt><trkpt lat="43.2486941" lon="10.7760294"><ele>496.99999999999994</ele><time>2026-04-18T13:35:32.192Z</time></trkpt><trkpt lat="43.248602" lon="10.7759607"><ele>498.99999999999994</ele><time>2026-04-18T13:35:34.195Z</time></trkpt><trkpt lat="43.2485072" lon="10.7759113"><ele>501.0</ele><time>2026-04-18T13:35:36.19Z</time></trkpt><trkpt lat="43.2484347" lon="10.7759198"><ele>503.0</ele><time>2026-04-18T13:35:38.19Z</time></trkpt><trkpt lat="43.2483678" lon="10.7759789"><ele>502.99999999999994</ele><time>2026-04-18T13:35:40.182Z</time></trkpt><trkpt lat="43.2482927" lon="10.7760217"><ele>503.0</ele><time>2026-04-18T13:35:42.202Z</time></trkpt><trkpt lat="43.2482005" lon="10.7760114"><ele>503.0</ele><time>2026-04-18T13:35:44.204Z</time></trkpt><trkpt lat="43.2480801" lon="10.7760022"><ele>503.0</ele><time>2026-04-18T13:35:46.186Z</time></trkpt><trkpt lat="43.2480107" lon="10.7759993"><ele>502.99999999999994</ele><time>2026-04-18T13:35:47.2Z</time></trkpt><trkpt lat="43.2479316" lon="10.7760125"><ele>503.0</ele><time>2026-04-18T13:35:48.192Z</time></trkpt><trkpt lat="43.2478539" lon="10.7760303"><ele>506.8333333333333</ele><time>2026-04-18T13:35:49.192Z</time></trkpt><trkpt lat="43.2477816" lon="10.7760482"><ele>510.66666666666663</ele><time>2026-04-18T13:35:50.197Z</time></trkpt><trkpt lat="43.2476855" lon="10.7760711"><ele>514.5</ele><time>2026-04-18T13:35:51.194Z</time></trkpt><trkpt lat="43.2476106" lon="10.7761076"><ele>518.3333333333334</ele><time>2026-04-18T13:35:52.193Z</time></trkpt><trkpt lat="43.2475334" lon="10.7761399"><ele>522.1666666666667</ele><time>2026-04-18T13:35:53.194Z</time></trkpt><trkpt lat="43.2474531" lon="10.7761884"><ele>526.0</ele><time>2026-04-18T13:35:54.197Z</time></trkpt><trkpt lat="43.2473685" lon="10.7762222"><ele>526.0</ele><time>2026-04-18T13:35:55.197Z</time></trkpt><trkpt lat="43.2473007" lon="10.7762312"><ele>526.0</ele><time>2026-04-18T13:35:56.2Z</time></trkpt><trkpt lat="43.2472091" lon="10.776199"><ele>526.0</ele><time>2026-04-18T13:35:57.179Z</time></trkpt><trkpt lat="43.2471259" lon="10.7761405"><ele>526.0</ele><time>2026-04-18T13:35:58.198Z</time></trkpt><trkpt lat="43.2470526" lon="10.7760809"><ele>526.0</ele><time>2026-04-18T13:35:59.187Z</time></trkpt><trkpt lat="43.2469791" lon="10.7760002"><ele>526.0</ele><time>2026-04-18T13:36:00.185Z</time></trkpt><trkpt lat="43.2469154" lon="10.775905"><ele>523.3333333333334</ele><time>2026-04-18T13:36:01.186Z</time></trkpt><trkpt lat="43.2468397" lon="10.7758173"><ele>520.6666666666667</ele><time>2026-04-18T13:36:02.194Z</time></trkpt><trkpt lat="43.246769" lon="10.7757481"><ele>518.0</ele><time>2026-04-18T13:36:03.189Z</time></trkpt><trkpt lat="43.2467013" lon="10.7756884"><ele>515.3333333333334</ele><time>2026-04-18T13:36:04.197Z</time></trkpt><trkpt lat="43.2466341" lon="10.7756284"><ele>512.6666666666666</ele><time>2026-04-18T13:36:05.197Z</time></trkpt><trkpt lat="43.2465748" lon="10.7755585"><ele>510.0</ele><time>2026-04-18T13:36:06.191Z</time></trkpt><trkpt lat="43.2465289" lon="10.7754741"><ele>510.0</ele><time>2026-04-18T13:36:07.2Z</time></trkpt><trkpt lat="43.2464865" lon="10.7753673"><ele>510.0</ele><time>2026-04-18T13:36:08.201Z</time></trkpt><trkpt lat="43.2464429" lon="10.7752815"><ele>510.0</ele><time>2026-04-18T13:36:09.187Z</time></trkpt><trkpt lat="43.246392" lon="10.7751985"><ele>510.0</ele><time>2026-04-18T13:36:10.188Z</time></trkpt><trkpt lat="43.2463306" lon="10.7751175"><ele>510.0</ele><time>2026-04-18T13:36:11.183Z</time></trkpt><trkpt lat="43.2462621" lon="10.7750783"><ele>510.0</ele><time>2026-04-18T13:36:12.189Z</time></trkpt><trkpt lat="43.246186" lon="10.7750666"><ele>509.1666666666667</ele><time>2026-04-18T13:36:13.191Z</time></trkpt><trkpt lat="43.2461066" lon="10.7750883"><ele>508.33333333333337</ele><time>2026-04-18T13:36:14.201Z</time></trkpt><trkpt lat="43.2460248" lon="10.7751152"><ele>507.5</ele><time>2026-04-18T13:36:15.204Z</time></trkpt><trkpt lat="43.2459282" lon="10.7751484"><ele>506.6666666666667</ele><time>2026-04-18T13:36:17.195Z</time></trkpt><trkpt lat="43.2458535" lon="10.7751557"><ele>505.83333333333337</ele><time>2026-04-18T13:36:20.193Z</time></trkpt><trkpt lat="43.2457594" lon="10.7751596"><ele>505.0</ele><time>2026-04-18T13:36:22.196Z</time></trkpt><trkpt lat="43.2456571" lon="10.7751652"><ele>504.6666666666667</ele><time>2026-04-18T13:36:24.19Z</time></trkpt><trkpt lat="43.2455785" lon="10.7751386"><ele>504.33333333333337</ele><time>2026-04-18T13:36:25.19Z</time></trkpt><trkpt lat="43.2455078" lon="10.7751098"><ele>504.0</ele><time>2026-04-18T13:36:26.205Z</time></trkpt><trkpt lat="43.2454381" lon="10.7750679"><ele>503.66666666666663</ele><time>2026-04-18T13:36:27.19Z</time></trkpt><trkpt lat="43.2453725" lon="10.7750249"><ele>503.3333333333333</ele><time>2026-04-18T13:36:28.198Z</time></trkpt><trkpt lat="43.2453071" lon="10.7749728"><ele>503.0</ele><time>2026-04-18T13:36:29.182Z</time></trkpt><trkpt lat="43.2452399" lon="10.7749146"><ele>503.0</ele><time>2026-04-18T13:36:30.193Z</time></trkpt><trkpt lat="43.2451671" lon="10.7748557"><ele>502.99999999999994</ele><time>2026-04-18T13:36:31.182Z</time></trkpt><trkpt lat="43.245064" lon="10.7747905"><ele>502.99999999999994</ele><time>2026-04-18T13:36:32.205Z</time></trkpt><trkpt lat="43.244957" lon="10.7747297"><ele>503.0</ele><time>2026-04-18T13:36:33.201Z</time></trkpt><trkpt lat="43.2448575" lon="10.7746678"><ele>503.0</ele><time>2026-04-18T13:36:34.18Z</time></trkpt><trkpt lat="43.2447671" lon="10.7746151"><ele>502.66666666666663</ele><time>2026-04-18T13:36:35.188Z</time></trkpt><trkpt lat="43.2446853" lon="10.7745622"><ele>502.3333333333333</ele><time>2026-04-18T13:36:36.202Z</time></trkpt><trkpt lat="43.2446033" lon="10.7745028"><ele>502.0</ele><time>2026-04-18T13:36:37.186Z</time></trkpt><trkpt lat="43.2445349" lon="10.7744474"><ele>501.66666666666663</ele><time>2026-04-18T13:36:38.199Z</time></trkpt><trkpt lat="43.2444631" lon="10.7744037"><ele>501.3333333333333</ele><time>2026-04-18T13:36:39.189Z</time></trkpt><trkpt lat="43.2443997" lon="10.7743558"><ele>501.0</ele><time>2026-04-18T13:36:40.191Z</time></trkpt><trkpt lat="43.2443402" lon="10.7742812"><ele>501.0</ele><time>2026-04-18T13:36:41.198Z</time></trkpt><trkpt lat="43.2442791" lon="10.7742021"><ele>501.0</ele><time>2026-04-18T13:36:42.195Z</time></trkpt><trkpt lat="43.2442347" lon="10.7741045"><ele>501.0</ele><time>2026-04-18T13:36:43.199Z</time></trkpt><trkpt lat="43.2442065" lon="10.7739833"><ele>501.0</ele><time>2026-04-18T13:36:44.192Z</time></trkpt><trkpt lat="43.2441961" lon="10.77386"><ele>501.0</ele><time>2026-04-18T13:36:45.179Z</time></trkpt><trkpt lat="43.2441758" lon="10.773736"><ele>501.0</ele><time>2026-04-18T13:36:46.198Z</time></trkpt><trkpt lat="43.2441383" lon="10.7736233"><ele>500.6</ele><time>2026-04-18T13:36:47.197Z</time></trkpt><trkpt lat="43.2440723" lon="10.7735143"><ele>500.20000000000005</ele><time>2026-04-18T13:36:48.194Z</time></trkpt><trkpt lat="43.2440014" lon="10.7734078"><ele>499.79999999999995</ele><time>2026-04-18T13:36:49.184Z</time></trkpt><trkpt lat="43.2439207" lon="10.7733152"><ele>499.4</ele><time>2026-04-18T13:36:50.186Z</time></trkpt><trkpt lat="43.2438355" lon="10.7732315"><ele>499.0</ele><time>2026-04-18T13:36:51.194Z</time></trkpt><trkpt lat="43.2437646" lon="10.7731366"><ele>499.79999999999995</ele><time>2026-04-18T13:36:52.194Z</time></trkpt><trkpt lat="43.2437132" lon="10.7730337"><ele>500.59999999999997</ele><time>2026-04-18T13:36:53.191Z</time></trkpt><trkpt lat="43.2436462" lon="10.7728782"><ele>501.4</ele><time>2026-04-18T13:36:54.191Z</time></trkpt><trkpt lat="43.2436056" lon="10.7727297"><ele>502.2</ele><time>2026-04-18T13:36:55.179Z</time></trkpt><trkpt lat="43.2435787" lon="10.7725901"><ele>503.0</ele><time>2026-04-18T13:36:56.194Z</time></trkpt><trkpt lat="43.243589" lon="10.7724588"><ele>503.0</ele><time>2026-04-18T13:36:57.197Z</time></trkpt><trkpt lat="43.243625" lon="10.7723107"><ele>502.99999999999994</ele><time>2026-04-18T13:36:58.196Z</time></trkpt><trkpt lat="43.2436349" lon="10.7721667"><ele>502.99999999999994</ele><time>2026-04-18T13:36:59.194Z</time></trkpt><trkpt lat="43.2436452" lon="10.7720174"><ele>503.0</ele><time>2026-04-18T13:37:00.196Z</time></trkpt><trkpt lat="43.2436523" lon="10.7718825"><ele>503.0</ele><time>2026-04-18T13:37:01.207Z</time></trkpt><trkpt lat="43.243668" lon="10.7717622"><ele>503.0</ele><time>2026-04-18T13:37:02.202Z</time></trkpt><trkpt lat="43.2436673" lon="10.7716533"><ele>502.99999999999994</ele><time>2026-04-18T13:37:03.191Z</time></trkpt><trkpt lat="43.2435865" lon="10.7715233"><ele>502.99999999999994</ele><time>2026-04-18T13:37:05.196Z</time></trkpt><trkpt lat="43.2434996" lon="10.7714891"><ele>503.0</ele><time>2026-04-18T13:37:06.215Z</time></trkpt><trkpt lat="43.2434188" lon="10.7714817"><ele>503.0</ele><time>2026-04-18T13:37:07.208Z</time></trkpt><trkpt lat="43.2433342" lon="10.7714885"><ele>502.99999999999994</ele><time>2026-04-18T13:37:08.211Z</time></trkpt><trkpt lat="43.2432466" lon="10.7714877"><ele>503.0</ele><time>2026-04-18T13:37:09.196Z</time></trkpt><trkpt lat="43.2431652" lon="10.771479"><ele>503.0</ele><time>2026-04-18T13:37:10.197Z</time></trkpt><trkpt lat="43.2431158" lon="10.7714159"><ele>503.0</ele><time>2026-04-18T13:37:11.203Z</time></trkpt><trkpt lat="43.2430971" lon="10.77131"><ele>502.99999999999994</ele><time>2026-04-18T13:37:12.206Z</time></trkpt><trkpt lat="43.2430794" lon="10.7712166"><ele>503.0</ele><time>2026-04-18T13:37:13.196Z</time></trkpt><trkpt lat="43.2430682" lon="10.7711182"><ele>503.42857142857144</ele><time>2026-04-18T13:37:14.192Z</time></trkpt><trkpt lat="43.2430487" lon="10.7710244"><ele>503.8571428571429</ele><time>2026-04-18T13:37:15.196Z</time></trkpt><trkpt lat="43.2430325" lon="10.7709218"><ele>504.28571428571433</ele><time>2026-04-18T13:37:16.201Z</time></trkpt><trkpt lat="43.2430251" lon="10.7708136"><ele>504.7142857142858</ele><time>2026-04-18T13:37:17.198Z</time></trkpt><trkpt lat="43.2430179" lon="10.7707164"><ele>505.14285714285717</ele><time>2026-04-18T13:37:18.201Z</time></trkpt><trkpt lat="43.2429968" lon="10.7706137"><ele>505.57142857142867</ele><time>2026-04-18T13:37:19.194Z</time></trkpt><trkpt lat="43.2429698" lon="10.7705195"><ele>506.00000000000006</ele><time>2026-04-18T13:37:20.2Z</time></trkpt><trkpt lat="43.2429437" lon="10.7704327"><ele>506.0</ele><time>2026-04-18T13:37:21.185Z</time></trkpt><trkpt lat="43.2429038" lon="10.7702966"><ele>506.0</ele><time>2026-04-18T13:37:23.19Z</time></trkpt><trkpt lat="43.2428832" lon="10.7701676"><ele>506.0</ele><time>2026-04-18T13:37:25.197Z</time></trkpt><trkpt lat="43.2428902" lon="10.7700282"><ele>506.0</ele><time>2026-04-18T13:37:27.206Z</time></trkpt><trkpt lat="43.2429199" lon="10.7698727"><ele>506.0</ele><time>2026-04-18T13:37:29.197Z</time></trkpt><trkpt lat="43.2429242" lon="10.7697183"><ele>504.00000000000006</ele><time>2026-04-18T13:37:31.181Z</time></trkpt><trkpt lat="43.2429082" lon="10.7696013"><ele>502.0</ele><time>2026-04-18T13:37:33.195Z</time></trkpt><trkpt lat="43.2428745" lon="10.7695235"><ele>500.00000000000006</ele><time>2026-04-18T13:37:37.193Z</time></trkpt><trkpt lat="43.2428124" lon="10.7694495"><ele>498.00000000000006</ele><time>2026-04-18T13:37:43.182Z</time></trkpt><trkpt lat="43.2427628" lon="10.7693955"><ele>496.0</ele><time>2026-04-18T13:38:01.189Z</time></trkpt><trkpt lat="43.2427048" lon="10.7693616"><ele>494.00000000000006</ele><time>2026-04-18T13:39:24.204Z</time></trkpt><trkpt lat="43.2426504" lon="10.769301"><ele>492.00000000000006</ele><time>2026-04-18T13:42:03.199Z</time></trkpt><trkpt lat="43.2426022" lon="10.769236"><ele>490.1666666666667</ele><time>2026-04-18T13:42:06.19Z</time></trkpt><trkpt lat="43.2425502" lon="10.769187"><ele>488.33333333333337</ele><time>2026-04-18T13:42:08.213Z</time></trkpt><trkpt lat="43.2424828" lon="10.769135"><ele>486.5</ele><time>2026-04-18T13:42:10.2Z</time></trkpt><trkpt lat="43.2423661" lon="10.7690664"><ele>484.6666666666667</ele><time>2026-04-18T13:42:12.193Z</time></trkpt><trkpt lat="43.2422635" lon="10.7690177"><ele>482.83333333333337</ele><time>2026-04-18T13:42:14.192Z</time></trkpt><trkpt lat="43.242196" lon="10.7690074"><ele>481.0</ele><time>2026-04-18T13:42:15.182Z</time></trkpt><trkpt lat="43.2421221" lon="10.7689772"><ele>481.00000000000006</ele><time>2026-04-18T13:42:16.2Z</time></trkpt><trkpt lat="43.2420545" lon="10.7689571"><ele>481.0</ele><time>2026-04-18T13:42:17.188Z</time></trkpt><trkpt lat="43.2419338" lon="10.7689063"><ele>481.0</ele><time>2026-04-18T13:42:19.194Z</time></trkpt><trkpt lat="43.2418676" lon="10.7688724"><ele>481.0</ele><time>2026-04-18T13:42:20.195Z</time></trkpt><trkpt lat="43.2417972" lon="10.7688432"><ele>481.00000000000006</ele><time>2026-04-18T13:42:21.197Z</time></trkpt><trkpt lat="43.2417258" lon="10.768824"><ele>481.0</ele><time>2026-04-18T13:42:22.189Z</time></trkpt><trkpt lat="43.2416601" lon="10.7688063"><ele>481.00000000000006</ele><time>2026-04-18T13:42:23.195Z</time></trkpt><trkpt lat="43.2415511" lon="10.7687969"><ele>481.0</ele><time>2026-04-18T13:42:25.193Z</time></trkpt><trkpt lat="43.2414833" lon="10.7688067"><ele>481.0</ele><time>2026-04-18T13:42:27.192Z</time></trkpt><trkpt lat="43.2414126" lon="10.7688151"><ele>481.0</ele><time>2026-04-18T13:42:29.189Z</time></trkpt><trkpt lat="43.2413332" lon="10.7688205"><ele>481.00000000000006</ele><time>2026-04-18T13:42:31.209Z</time></trkpt><trkpt lat="43.2412274" lon="10.7687887"><ele>481.0</ele><time>2026-04-18T13:42:33.205Z</time></trkpt><trkpt lat="43.2411085" lon="10.768727"><ele>479.50000000000006</ele><time>2026-04-18T13:42:35.2Z</time></trkpt><trkpt lat="43.2410406" lon="10.768685"><ele>478.0</ele><time>2026-04-18T13:42:36.212Z</time></trkpt><trkpt lat="43.2409743" lon="10.7686426"><ele>476.5</ele><time>2026-04-18T13:42:37.204Z</time></trkpt><trkpt lat="43.2409112" lon="10.7686006"><ele>475.0</ele><time>2026-04-18T13:42:38.203Z</time></trkpt><trkpt lat="43.2408516" lon="10.7685638"><ele>473.50000000000006</ele><time>2026-04-18T13:42:39.2Z</time></trkpt><trkpt lat="43.2407613" lon="10.7685072"><ele>472.0</ele><time>2026-04-18T13:42:41.199Z</time></trkpt><trkpt lat="43.2406862" lon="10.7684852"><ele>470.0</ele><time>2026-04-18T13:42:43.214Z</time></trkpt><trkpt lat="43.2406353" lon="10.7684202"><ele>468.00000000000006</ele><time>2026-04-18T13:42:47.195Z</time></trkpt><trkpt lat="43.2406544" lon="10.7682886"><ele>466.00000000000006</ele><time>2026-04-18T13:42:50.204Z</time></trkpt><trkpt lat="43.2406664" lon="10.7681488"><ele>464.0</ele><time>2026-04-18T13:42:52.203Z</time></trkpt><trkpt lat="43.2406727" lon="10.7679741"><ele>462.0</ele><time>2026-04-18T13:42:54.212Z</time></trkpt><trkpt lat="43.2406809" lon="10.7678596"><ele>462.0</ele><time>2026-04-18T13:42:55.187Z</time></trkpt><trkpt lat="43.2406894" lon="10.7677337"><ele>462.00000000000006</ele><time>2026-04-18T13:42:56.197Z</time></trkpt><trkpt lat="43.2407069" lon="10.7675987"><ele>462.00000000000006</ele><time>2026-04-18T13:42:57.194Z</time></trkpt><trkpt lat="43.240724" lon="10.7674668"><ele>462.0</ele><time>2026-04-18T13:42:58.2Z</time></trkpt><trkpt lat="43.2407466" lon="10.7673356"><ele>462.0</ele><time>2026-04-18T13:42:59.184Z</time></trkpt><trkpt lat="43.2407689" lon="10.7672065"><ele>461.8</ele><time>2026-04-18T13:43:00.202Z</time></trkpt><trkpt lat="43.2407828" lon="10.7670736"><ele>461.6</ele><time>2026-04-18T13:43:01.203Z</time></trkpt><trkpt lat="43.2407898" lon="10.7669368"><ele>461.40000000000003</ele><time>2026-04-18T13:43:02.206Z</time></trkpt><trkpt lat="43.240798" lon="10.7668099"><ele>461.20000000000005</ele><time>2026-04-18T13:43:03.192Z</time></trkpt><trkpt lat="43.2408141" lon="10.7666789"><ele>461.0</ele><time>2026-04-18T13:43:04.201Z</time></trkpt><trkpt lat="43.2408365" lon="10.7665426"><ele>461.0</ele><time>2026-04-18T13:43:05.199Z</time></trkpt><trkpt lat="43.2408619" lon="10.7664185"><ele>461.0</ele><time>2026-04-18T13:43:06.204Z</time></trkpt><trkpt lat="43.240893" lon="10.7663117"><ele>461.0</ele><time>2026-04-18T13:43:07.206Z</time></trkpt><trkpt lat="43.2409184" lon="10.7662148"><ele>461.0</ele><time>2026-04-18T13:43:08.185Z</time></trkpt><trkpt lat="43.2409482" lon="10.7660675"><ele>461.0</ele><time>2026-04-18T13:43:10.194Z</time></trkpt><trkpt lat="43.2409661" lon="10.7659386"><ele>461.66666666666663</ele><time>2026-04-18T13:43:12.198Z</time></trkpt><trkpt lat="43.2409746" lon="10.7658044"><ele>462.3333333333333</ele><time>2026-04-18T13:43:14.202Z</time></trkpt><trkpt lat="43.2409756" lon="10.7656383"><ele>463.0</ele><time>2026-04-18T13:43:16.194Z</time></trkpt><trkpt lat="43.2409614" lon="10.765548"><ele>463.66666666666663</ele><time>2026-04-18T13:43:17.198Z</time></trkpt><trkpt lat="43.2409351" lon="10.7654596"><ele>464.3333333333333</ele><time>2026-04-18T13:43:18.216Z</time></trkpt><trkpt lat="43.2409044" lon="10.7653707"><ele>465.0</ele><time>2026-04-18T13:43:19.198Z</time></trkpt><trkpt lat="43.2408761" lon="10.7652838"><ele>463.6</ele><time>2026-04-18T13:43:20.198Z</time></trkpt><trkpt lat="43.2408562" lon="10.7651903"><ele>462.2</ele><time>2026-04-18T13:43:21.184Z</time></trkpt><trkpt lat="43.2408394" lon="10.7650307"><ele>460.79999999999995</ele><time>2026-04-18T13:43:23.203Z</time></trkpt><trkpt lat="43.2408404" lon="10.7649416"><ele>459.4</ele><time>2026-04-18T13:43:24.197Z</time></trkpt><trkpt lat="43.240814" lon="10.7647744"><ele>458.0</ele><time>2026-04-18T13:43:26.21Z</time></trkpt><trkpt lat="43.2407859" lon="10.7646504"><ele>457.99999999999994</ele><time>2026-04-18T13:43:28.188Z</time></trkpt><trkpt lat="43.2407451" lon="10.7645506"><ele>458.0</ele><time>2026-04-18T13:43:30.215Z</time></trkpt><trkpt lat="43.2406798" lon="10.7644472"><ele>458.0</ele><time>2026-04-18T13:43:32.19Z</time></trkpt><trkpt lat="43.2406147" lon="10.7643556"><ele>458.0</ele><time>2026-04-18T13:43:34.198Z</time></trkpt><trkpt lat="43.2405812" lon="10.7642431"><ele>457.99999999999994</ele><time>2026-04-18T13:43:37.199Z</time></trkpt><trkpt lat="43.2405501" lon="10.7641437"><ele>458.0</ele><time>2026-04-18T13:43:42.191Z</time></trkpt><trkpt lat="43.2404961" lon="10.7640706"><ele>461.0</ele><time>2026-04-18T13:43:45.188Z</time></trkpt><trkpt lat="43.240413" lon="10.7640199"><ele>463.99999999999994</ele><time>2026-04-18T13:43:48.197Z</time></trkpt><trkpt lat="43.2403305" lon="10.7639645"><ele>466.99999999999994</ele><time>2026-04-18T13:43:50.185Z</time></trkpt><trkpt lat="43.2402412" lon="10.7639098"><ele>470.0</ele><time>2026-04-18T13:43:52.196Z</time></trkpt><trkpt lat="43.2401524" lon="10.763836"><ele>473.0</ele><time>2026-04-18T13:43:54.187Z</time></trkpt><trkpt lat="43.2400941" lon="10.7637397"><ele>473.0</ele><time>2026-04-18T13:43:56.181Z</time></trkpt><trkpt lat="43.240107" lon="10.7636034"><ele>472.99999999999994</ele><time>2026-04-18T13:43:58.19Z</time></trkpt><trkpt lat="43.2401631" lon="10.7634998"><ele>472.99999999999994</ele><time>2026-04-18T13:44:00.186Z</time></trkpt><trkpt lat="43.2402401" lon="10.7634422"><ele>473.0</ele><time>2026-04-18T13:44:02.193Z</time></trkpt><trkpt lat="43.2403328" lon="10.7634085"><ele>473.0</ele><time>2026-04-18T13:44:04.19Z</time></trkpt><trkpt lat="43.2404164" lon="10.763347"><ele>472.0</ele><time>2026-04-18T13:44:06.188Z</time></trkpt><trkpt lat="43.2405109" lon="10.7632631"><ele>471.0</ele><time>2026-04-18T13:44:08.196Z</time></trkpt><trkpt lat="43.2406192" lon="10.7631822"><ele>470.0</ele><time>2026-04-18T13:44:10.195Z</time></trkpt><trkpt lat="43.2407333" lon="10.7631059"><ele>469.0</ele><time>2026-04-18T13:44:12.197Z</time></trkpt><trkpt lat="43.2408271" lon="10.7629801"><ele>468.33333333333337</ele><time>2026-04-18T13:44:14.194Z</time></trkpt><trkpt lat="43.2408824" lon="10.7629043"><ele>467.6666666666667</ele><time>2026-04-18T13:44:15.19Z</time></trkpt><trkpt lat="43.2409281" lon="10.7628269"><ele>467.0</ele><time>2026-04-18T13:44:16.191Z</time></trkpt><trkpt lat="43.2409696" lon="10.7627569"><ele>466.33333333333337</ele><time>2026-04-18T13:44:17.192Z</time></trkpt><trkpt lat="43.2410443" lon="10.7626761"><ele>465.6666666666667</ele><time>2026-04-18T13:44:19.186Z</time></trkpt><trkpt lat="43.2411069" lon="10.7625352"><ele>465.0</ele><time>2026-04-18T13:44:21.184Z</time></trkpt><trkpt lat="43.2411305" lon="10.7623734"><ele>465.0</ele><time>2026-04-18T13:44:23.187Z</time></trkpt><trkpt lat="43.2411254" lon="10.762271"><ele>465.0</ele><time>2026-04-18T13:44:24.197Z</time></trkpt><trkpt lat="43.2411201" lon="10.7621442"><ele>465.0</ele><time>2026-04-18T13:44:25.187Z</time></trkpt><trkpt lat="43.2411374" lon="10.7620209"><ele>465.0</ele><time>2026-04-18T13:44:26.194Z</time></trkpt><trkpt lat="43.2411551" lon="10.7619038"><ele>465.0</ele><time>2026-04-18T13:44:27.188Z</time></trkpt><trkpt lat="43.2411744" lon="10.7617929"><ele>465.0</ele><time>2026-04-18T13:44:28.194Z</time></trkpt><trkpt lat="43.2412131" lon="10.7616925"><ele>465.8333333333333</ele><time>2026-04-18T13:44:29.193Z</time></trkpt><trkpt lat="43.2412592" lon="10.7616059"><ele>466.66666666666663</ele><time>2026-04-18T13:44:30.186Z</time></trkpt><trkpt lat="43.241305" lon="10.7615431"><ele>467.5</ele><time>2026-04-18T13:44:31.182Z</time></trkpt><trkpt lat="43.2414027" lon="10.7614858"><ele>468.3333333333333</ele><time>2026-04-18T13:44:33.199Z</time></trkpt><trkpt lat="43.2414682" lon="10.7614594"><ele>469.16666666666663</ele><time>2026-04-18T13:44:35.189Z</time></trkpt><trkpt lat="43.2415047" lon="10.7613529"><ele>470.0</ele><time>2026-04-18T13:44:38.199Z</time></trkpt><trkpt lat="43.2414659" lon="10.7612293"><ele>469.99999999999994</ele><time>2026-04-18T13:44:40.195Z</time></trkpt><trkpt lat="43.2414001" lon="10.7610916"><ele>470.0</ele><time>2026-04-18T13:44:42.189Z</time></trkpt><trkpt lat="43.2413621" lon="10.7610108"><ele>470.0</ele><time>2026-04-18T13:44:43.183Z</time></trkpt><trkpt lat="43.241332" lon="10.760933"><ele>470.0</ele><time>2026-04-18T13:44:44.192Z</time></trkpt><trkpt lat="43.2412936" lon="10.7608626"><ele>469.99999999999994</ele><time>2026-04-18T13:44:45.192Z</time></trkpt><trkpt lat="43.2412417" lon="10.7607187"><ele>470.0</ele><time>2026-04-18T13:44:47.187Z</time></trkpt><trkpt lat="43.2412286" lon="10.7605663"><ele>469.6</ele><time>2026-04-18T13:44:49.192Z</time></trkpt><trkpt lat="43.2412309" lon="10.7603872"><ele>469.2</ele><time>2026-04-18T13:44:51.188Z</time></trkpt><trkpt lat="43.2412305" lon="10.7602812"><ele>468.79999999999995</ele><time>2026-04-18T13:44:52.198Z</time></trkpt><trkpt lat="43.2412273" lon="10.760187"><ele>468.4</ele><time>2026-04-18T13:44:53.195Z</time></trkpt><trkpt lat="43.241223" lon="10.7600276"><ele>468.0</ele><time>2026-04-18T13:44:55.19Z</time></trkpt><trkpt lat="43.2412095" lon="10.7598807"><ele>465.2</ele><time>2026-04-18T13:44:57.195Z</time></trkpt><trkpt lat="43.241211" lon="10.7597489"><ele>462.4</ele><time>2026-04-18T13:44:59.198Z</time></trkpt><trkpt lat="43.2412429" lon="10.759621"><ele>459.59999999999997</ele><time>2026-04-18T13:45:01.178Z</time></trkpt><trkpt lat="43.2412509" lon="10.7595289"><ele>456.79999999999995</ele><time>2026-04-18T13:45:02.196Z</time></trkpt><trkpt lat="43.2412315" lon="10.7593636"><ele>454.0</ele><time>2026-04-18T13:45:04.205Z</time></trkpt><trkpt lat="43.2411824" lon="10.7592399"><ele>452.00000000000006</ele><time>2026-04-18T13:45:06.195Z</time></trkpt><trkpt lat="43.2411192" lon="10.7591312"><ele>450.0</ele><time>2026-04-18T13:45:08.201Z</time></trkpt><trkpt lat="43.241102" lon="10.7590124"><ele>448.0</ele><time>2026-04-18T13:45:10.211Z</time></trkpt><trkpt lat="43.2411574" lon="10.7589317"><ele>446.0</ele><time>2026-04-18T13:45:12.192Z</time></trkpt><trkpt lat="43.24123" lon="10.7589527"><ele>444.00000000000006</ele><time>2026-04-18T13:45:15.181Z</time></trkpt><trkpt lat="43.2412764" lon="10.7590482"><ele>442.0</ele><time>2026-04-18T13:45:17.195Z</time></trkpt><trkpt lat="43.241311" lon="10.7592022"><ele>442.00000000000006</ele><time>2026-04-18T13:45:19.198Z</time></trkpt><trkpt lat="43.2413426" lon="10.7593665"><ele>442.0</ele><time>2026-04-18T13:45:21.193Z</time></trkpt><trkpt lat="43.2413658" lon="10.7594544"><ele>442.0</ele><time>2026-04-18T13:45:22.207Z</time></trkpt><trkpt lat="43.2413903" lon="10.7595546"><ele>442.0</ele><time>2026-04-18T13:45:23.193Z</time></trkpt><trkpt lat="43.2414142" lon="10.7596605"><ele>442.00000000000006</ele><time>2026-04-18T13:45:24.195Z</time></trkpt><trkpt lat="43.2414387" lon="10.7597698"><ele>442.0</ele><time>2026-04-18T13:45:25.206Z</time></trkpt><trkpt lat="43.2414562" lon="10.7598836"><ele>441.1666666666667</ele><time>2026-04-18T13:45:26.199Z</time></trkpt><trkpt lat="43.2414808" lon="10.7599896"><ele>440.33333333333337</ele><time>2026-04-18T13:45:27.193Z</time></trkpt><trkpt lat="43.2415168" lon="10.7600857"><ele>439.5</ele><time>2026-04-18T13:45:28.201Z</time></trkpt><trkpt lat="43.2416047" lon="10.7601648"><ele>438.66666666666663</ele><time>2026-04-18T13:45:30.207Z</time></trkpt><trkpt lat="43.241712" lon="10.7601691"><ele>437.8333333333333</ele><time>2026-04-18T13:45:32.199Z</time></trkpt><trkpt lat="43.2417831" lon="10.7601614"><ele>437.0</ele><time>2026-04-18T13:45:33.191Z</time></trkpt><trkpt lat="43.241852" lon="10.7601496"><ele>437.0</ele><time>2026-04-18T13:45:34.194Z</time></trkpt><trkpt lat="43.2419536" lon="10.7601063"><ele>437.00000000000006</ele><time>2026-04-18T13:45:36.195Z</time></trkpt><trkpt lat="43.2420484" lon="10.7600198"><ele>437.00000000000006</ele><time>2026-04-18T13:45:38.196Z</time></trkpt><trkpt lat="43.2421499" lon="10.7599162"><ele>437.0</ele><time>2026-04-18T13:45:40.187Z</time></trkpt><trkpt lat="43.2422044" lon="10.7598571"><ele>437.0</ele><time>2026-04-18T13:45:41.191Z</time></trkpt><trkpt lat="43.2422608" lon="10.7597979"><ele>437.49999999999994</ele><time>2026-04-18T13:45:42.183Z</time></trkpt><trkpt lat="43.2423265" lon="10.7597483"><ele>438.0</ele><time>2026-04-18T13:45:43.203Z</time></trkpt><trkpt lat="43.2423899" lon="10.7597062"><ele>438.5</ele><time>2026-04-18T13:45:44.198Z</time></trkpt><trkpt lat="43.2424605" lon="10.7596686"><ele>439.0</ele><time>2026-04-18T13:45:45.186Z</time></trkpt><trkpt lat="43.2425218" lon="10.7596449"><ele>439.49999999999994</ele><time>2026-04-18T13:45:46.186Z</time></trkpt><trkpt lat="43.24264" lon="10.7596102"><ele>440.0</ele><time>2026-04-18T13:45:48.193Z</time></trkpt><trkpt lat="43.24276" lon="10.7596223"><ele>439.99999999999994</ele><time>2026-04-18T13:45:50.192Z</time></trkpt><trkpt lat="43.2428624" lon="10.7596824"><ele>440.0</ele><time>2026-04-18T13:45:52.189Z</time></trkpt><trkpt lat="43.242917" lon="10.7597286"><ele>440.0</ele><time>2026-04-18T13:45:53.189Z</time></trkpt><trkpt lat="43.2429898" lon="10.759795"><ele>440.0</ele><time>2026-04-18T13:45:54.188Z</time></trkpt><trkpt lat="43.2430683" lon="10.759847"><ele>439.99999999999994</ele><time>2026-04-18T13:45:55.2Z</time></trkpt><trkpt lat="43.2431595" lon="10.7598876"><ele>440.0</ele><time>2026-04-18T13:45:56.192Z</time></trkpt><trkpt lat="43.2432613" lon="10.7599298"><ele>437.25</ele><time>2026-04-18T13:45:57.192Z</time></trkpt><trkpt lat="43.2433753" lon="10.7599723"><ele>434.5</ele><time>2026-04-18T13:45:58.191Z</time></trkpt><trkpt lat="43.2434757" lon="10.7600092"><ele>431.75</ele><time>2026-04-18T13:45:59.192Z</time></trkpt><trkpt lat="43.2435781" lon="10.7600634"><ele>429.0</ele><time>2026-04-18T13:46:00.198Z</time></trkpt><trkpt lat="43.243684" lon="10.760141"><ele>429.6</ele><time>2026-04-18T13:46:01.186Z</time></trkpt><trkpt lat="43.2437995" lon="10.7602133"><ele>430.2</ele><time>2026-04-18T13:46:02.193Z</time></trkpt><trkpt lat="43.2439136" lon="10.7602834"><ele>430.80000000000007</ele><time>2026-04-18T13:46:03.194Z</time></trkpt><trkpt lat="43.2440044" lon="10.7603464"><ele>431.40000000000003</ele><time>2026-04-18T13:46:04.2Z</time></trkpt><trkpt lat="43.2440883" lon="10.7603917"><ele>432.0</ele><time>2026-04-18T13:46:05.183Z</time></trkpt><trkpt lat="43.2441721" lon="10.7604171"><ele>429.20000000000005</ele><time>2026-04-18T13:46:06.191Z</time></trkpt><trkpt lat="43.2442482" lon="10.7604262"><ele>426.40000000000003</ele><time>2026-04-18T13:46:07.19Z</time></trkpt><trkpt lat="43.2443553" lon="10.7604075"><ele>423.6</ele><time>2026-04-18T13:46:09.183Z</time></trkpt><trkpt lat="43.2444523" lon="10.7603623"><ele>420.79999999999995</ele><time>2026-04-18T13:46:11.19Z</time></trkpt><trkpt lat="43.2445478" lon="10.7603339"><ele>418.0</ele><time>2026-04-18T13:46:13.184Z</time></trkpt><trkpt lat="43.2446337" lon="10.7602983"><ele>418.00000000000006</ele><time>2026-04-18T13:46:15.185Z</time></trkpt><trkpt lat="43.2447155" lon="10.7602596"><ele>418.0</ele><time>2026-04-18T13:46:17.193Z</time></trkpt><trkpt lat="43.2447659" lon="10.7601902"><ele>418.0</ele><time>2026-04-18T13:46:19.176Z</time></trkpt><trkpt lat="43.2448073" lon="10.7601052"><ele>418.0</ele><time>2026-04-18T13:46:23.189Z</time></trkpt><trkpt lat="43.2448418" lon="10.7600229"><ele>418.00000000000006</ele><time>2026-04-18T13:46:28.203Z</time></trkpt><trkpt lat="43.2448972" lon="10.7599019"><ele>418.0</ele><time>2026-04-18T13:46:31.193Z</time></trkpt><trkpt lat="43.2449342" lon="10.759752"><ele>421.0</ele><time>2026-04-18T13:46:33.187Z</time></trkpt><trkpt lat="43.2449722" lon="10.7596085"><ele>424.0</ele><time>2026-04-18T13:46:35.195Z</time></trkpt><trkpt lat="43.2450231" lon="10.75946"><ele>426.99999999999994</ele><time>2026-04-18T13:46:37.18Z</time></trkpt><trkpt lat="43.2450563" lon="10.7593823"><ele>430.0</ele><time>2026-04-18T13:46:38.194Z</time></trkpt><trkpt lat="43.2450883" lon="10.7593023"><ele>433.0</ele><time>2026-04-18T13:46:39.186Z</time></trkpt><trkpt lat="43.2451501" lon="10.7591573"><ele>433.75</ele><time>2026-04-18T13:46:41.195Z</time></trkpt><trkpt lat="43.2452108" lon="10.7590257"><ele>434.5</ele><time>2026-04-18T13:46:43.191Z</time></trkpt><trkpt lat="43.2452885" lon="10.7589107"><ele>435.25</ele><time>2026-04-18T13:46:45.193Z</time></trkpt><trkpt lat="43.245381" lon="10.7587964"><ele>436.0</ele><time>2026-04-18T13:46:47.177Z</time></trkpt><trkpt lat="43.2454679" lon="10.7586992"><ele>436.0</ele><time>2026-04-18T13:46:49.196Z</time></trkpt><trkpt lat="43.2455325" lon="10.7585899"><ele>436.0</ele><time>2026-04-18T13:46:51.188Z</time></trkpt><trkpt lat="43.2456091" lon="10.7584753"><ele>436.0</ele><time>2026-04-18T13:46:53.189Z</time></trkpt><trkpt lat="43.2456564" lon="10.7583253"><ele>436.0</ele><time>2026-04-18T13:46:55.188Z</time></trkpt><trkpt lat="43.2456745" lon="10.7582401"><ele>436.0</ele><time>2026-04-18T13:46:56.183Z</time></trkpt><trkpt lat="43.2456957" lon="10.7581537"><ele>438.0</ele><time>2026-04-18T13:46:57.194Z</time></trkpt><trkpt lat="43.2457182" lon="10.7580724"><ele>440.0</ele><time>2026-04-18T13:46:58.19Z</time></trkpt><trkpt lat="43.2457459" lon="10.7579846"><ele>442.0</ele><time>2026-04-18T13:46:59.191Z</time></trkpt><trkpt lat="43.2457805" lon="10.7578985"><ele>444.0</ele><time>2026-04-18T13:47:00.185Z</time></trkpt><trkpt lat="43.2458117" lon="10.7578179"><ele>446.0</ele><time>2026-04-18T13:47:01.192Z</time></trkpt><trkpt lat="43.2458511" lon="10.7577471"><ele>448.00000000000006</ele><time>2026-04-18T13:47:02.19Z</time></trkpt><trkpt lat="43.2459107" lon="10.757674"><ele>450.00000000000006</ele><time>2026-04-18T13:47:03.197Z</time></trkpt><trkpt lat="43.245977" lon="10.7575984"><ele>450.8333333333333</ele><time>2026-04-18T13:47:04.189Z</time></trkpt><trkpt lat="43.2460381" lon="10.7575171"><ele>451.66666666666663</ele><time>2026-04-18T13:47:05.193Z</time></trkpt><trkpt lat="43.2460944" lon="10.7574427"><ele>452.5</ele><time>2026-04-18T13:47:06.195Z</time></trkpt><trkpt lat="43.2461351" lon="10.757366"><ele>453.3333333333333</ele><time>2026-04-18T13:47:07.188Z</time></trkpt><trkpt lat="43.2461645" lon="10.7572789"><ele>454.16666666666663</ele><time>2026-04-18T13:47:08.199Z</time></trkpt><trkpt lat="43.2462513" lon="10.7571592"><ele>455.0</ele><time>2026-04-18T13:47:10.203Z</time></trkpt><trkpt lat="43.2463439" lon="10.7570816"><ele>457.8333333333333</ele><time>2026-04-18T13:47:12.195Z</time></trkpt><trkpt lat="43.2464628" lon="10.7570484"><ele>460.66666666666663</ele><time>2026-04-18T13:47:14.194Z</time></trkpt><trkpt lat="43.2465393" lon="10.7570339"><ele>463.5</ele><time>2026-04-18T13:47:15.18Z</time></trkpt><trkpt lat="43.2466174" lon="10.7570212"><ele>466.33333333333337</ele><time>2026-04-18T13:47:16.194Z</time></trkpt><trkpt lat="43.2466957" lon="10.7570014"><ele>469.1666666666667</ele><time>2026-04-18T13:47:17.187Z</time></trkpt><trkpt lat="43.2467692" lon="10.7569782"><ele>472.0</ele><time>2026-04-18T13:47:18.198Z</time></trkpt><trkpt lat="43.2468377" lon="10.7569561"><ele>472.00000000000006</ele><time>2026-04-18T13:47:19.194Z</time></trkpt><trkpt lat="43.2469012" lon="10.7569245"><ele>472.0</ele><time>2026-04-18T13:47:20.186Z</time></trkpt><trkpt lat="43.2469726" lon="10.7568874"><ele>472.0</ele><time>2026-04-18T13:47:21.187Z</time></trkpt><trkpt lat="43.2470361" lon="10.7568448"><ele>472.0</ele><time>2026-04-18T13:47:22.2Z</time></trkpt><trkpt lat="43.2471502" lon="10.7568024"><ele>472.00000000000006</ele><time>2026-04-18T13:47:24.203Z</time></trkpt><trkpt lat="43.2472492" lon="10.7567675"><ele>472.0</ele><time>2026-04-18T13:47:26.213Z</time></trkpt><trkpt lat="43.2473153" lon="10.7567171"><ele>473.1666666666667</ele><time>2026-04-18T13:47:28.185Z</time></trkpt><trkpt lat="43.2473274" lon="10.7565963"><ele>474.33333333333337</ele><time>2026-04-18T13:47:31.191Z</time></trkpt><trkpt lat="43.2472972" lon="10.7564693"><ele>475.5</ele><time>2026-04-18T13:47:33.181Z</time></trkpt><trkpt lat="43.2472966" lon="10.7563736"><ele>476.66666666666663</ele><time>2026-04-18T13:47:34.193Z</time></trkpt><trkpt lat="43.2473103" lon="10.7562777"><ele>477.8333333333333</ele><time>2026-04-18T13:47:35.195Z</time></trkpt><trkpt lat="43.2473289" lon="10.7561871"><ele>479.0</ele><time>2026-04-18T13:47:36.199Z</time></trkpt><trkpt lat="43.2473491" lon="10.7561012"><ele>478.99999999999994</ele><time>2026-04-18T13:47:37.19Z</time></trkpt><trkpt lat="43.2473961" lon="10.7560375"><ele>479.0</ele><time>2026-04-18T13:47:38.19Z</time></trkpt><trkpt lat="43.247438" lon="10.7559394"><ele>479.0</ele><time>2026-04-18T13:47:39.19Z</time></trkpt><trkpt lat="43.2474934" lon="10.7558629"><ele>479.0</ele><time>2026-04-18T13:47:40.203Z</time></trkpt><trkpt lat="43.247556" lon="10.75579"><ele>478.99999999999994</ele><time>2026-04-18T13:47:41.188Z</time></trkpt><trkpt lat="43.2476224" lon="10.7557119"><ele>479.0</ele><time>2026-04-18T13:47:42.195Z</time></trkpt><trkpt lat="43.2476862" lon="10.7556178"><ele>478.99999999999994</ele><time>2026-04-18T13:47:43.191Z</time></trkpt><trkpt lat="43.2477575" lon="10.7555473"><ele>479.0</ele><time>2026-04-18T13:47:44.185Z</time></trkpt><trkpt lat="43.2478288" lon="10.7554704"><ele>479.0</ele><time>2026-04-18T13:47:45.19Z</time></trkpt><trkpt lat="43.2478813" lon="10.7553869"><ele>479.0</ele><time>2026-04-18T13:47:46.181Z</time></trkpt><trkpt lat="43.2479195" lon="10.7552851"><ele>478.99999999999994</ele><time>2026-04-18T13:47:47.183Z</time></trkpt><trkpt lat="43.2479665" lon="10.7551733"><ele>479.0</ele><time>2026-04-18T13:47:48.192Z</time></trkpt><trkpt lat="43.2480088" lon="10.7550603"><ele>478.2</ele><time>2026-04-18T13:47:49.186Z</time></trkpt><trkpt lat="43.248052" lon="10.7549489"><ele>477.4</ele><time>2026-04-18T13:47:50.197Z</time></trkpt><trkpt lat="43.2481009" lon="10.7548416"><ele>476.6</ele><time>2026-04-18T13:47:51.184Z</time></trkpt><trkpt lat="43.2481416" lon="10.7547329"><ele>475.8</ele><time>2026-04-18T13:47:52.201Z</time></trkpt><trkpt lat="43.2481872" lon="10.7546259"><ele>475.0</ele><time>2026-04-18T13:47:53.186Z</time></trkpt><trkpt lat="43.2482376" lon="10.7544973"><ele>475.0</ele><time>2026-04-18T13:47:54.188Z</time></trkpt><trkpt lat="43.2482808" lon="10.7543728"><ele>475.0</ele><time>2026-04-18T13:47:55.183Z</time></trkpt><trkpt lat="43.2483054" lon="10.7542491"><ele>475.0</ele><time>2026-04-18T13:47:56.195Z</time></trkpt><trkpt lat="43.2483189" lon="10.7541272"><ele>475.0</ele><time>2026-04-18T13:47:57.188Z</time></trkpt><trkpt lat="43.2483479" lon="10.7539893"><ele>475.0</ele><time>2026-04-18T13:47:58.202Z</time></trkpt><trkpt lat="43.2483728" lon="10.7538556"><ele>474.1666666666667</ele><time>2026-04-18T13:47:59.195Z</time></trkpt><trkpt lat="43.2484046" lon="10.7537302"><ele>473.33333333333337</ele><time>2026-04-18T13:48:00.199Z</time></trkpt><trkpt lat="43.2484407" lon="10.7536227"><ele>472.5</ele><time>2026-04-18T13:48:01.203Z</time></trkpt><trkpt lat="43.2484723" lon="10.7535125"><ele>471.66666666666663</ele><time>2026-04-18T13:48:02.202Z</time></trkpt><trkpt lat="43.2485033" lon="10.753411"><ele>470.8333333333333</ele><time>2026-04-18T13:48:03.186Z</time></trkpt><trkpt lat="43.2485364" lon="10.7533034"><ele>470.0</ele><time>2026-04-18T13:48:04.19Z</time></trkpt><trkpt lat="43.2485744" lon="10.7531958"><ele>472.2</ele><time>2026-04-18T13:48:05.183Z</time></trkpt><trkpt lat="43.248616" lon="10.7530737"><ele>474.4</ele><time>2026-04-18T13:48:06.191Z</time></trkpt><trkpt lat="43.2486479" lon="10.7529438"><ele>476.6</ele><time>2026-04-18T13:48:07.18Z</time></trkpt><trkpt lat="43.2486761" lon="10.7528148"><ele>478.8</ele><time>2026-04-18T13:48:08.194Z</time></trkpt><trkpt lat="43.2486973" lon="10.7526866"><ele>481.0</ele><time>2026-04-18T13:48:09.188Z</time></trkpt><trkpt lat="43.2487206" lon="10.7525634"><ele>481.6666666666667</ele><time>2026-04-18T13:48:10.184Z</time></trkpt><trkpt lat="43.248732" lon="10.7524423"><ele>482.33333333333337</ele><time>2026-04-18T13:48:11.196Z</time></trkpt><trkpt lat="43.2487427" lon="10.7523422"><ele>483.0</ele><time>2026-04-18T13:48:12.184Z</time></trkpt><trkpt lat="43.2487416" lon="10.7522345"><ele>483.66666666666663</ele><time>2026-04-18T13:48:13.193Z</time></trkpt><trkpt lat="43.24874" lon="10.7520999"><ele>484.3333333333333</ele><time>2026-04-18T13:48:14.184Z</time></trkpt><trkpt lat="43.2487384" lon="10.7519648"><ele>485.0</ele><time>2026-04-18T13:48:15.191Z</time></trkpt><trkpt lat="43.2487193" lon="10.7518276"><ele>485.0</ele><time>2026-04-18T13:48:16.202Z</time></trkpt><trkpt lat="43.2486927" lon="10.7516936"><ele>485.0</ele><time>2026-04-18T13:48:17.194Z</time></trkpt><trkpt lat="43.2486641" lon="10.7515414"><ele>485.0</ele><time>2026-04-18T13:48:18.2Z</time></trkpt><trkpt lat="43.2486685" lon="10.7514085"><ele>485.0</ele><time>2026-04-18T13:48:19.199Z</time></trkpt><trkpt lat="43.2486716" lon="10.7512793"><ele>485.0</ele><time>2026-04-18T13:48:20.213Z</time></trkpt><trkpt lat="43.2486852" lon="10.7511467"><ele>484.0</ele><time>2026-04-18T13:48:21.198Z</time></trkpt><trkpt lat="43.2487087" lon="10.751008"><ele>483.0</ele><time>2026-04-18T13:48:22.186Z</time></trkpt><trkpt lat="43.2487287" lon="10.7508702"><ele>482.0</ele><time>2026-04-18T13:48:23.194Z</time></trkpt><trkpt lat="43.2487414" lon="10.7507155"><ele>481.0</ele><time>2026-04-18T13:48:24.193Z</time></trkpt><trkpt lat="43.2487403" lon="10.7505609"><ele>480.0</ele><time>2026-04-18T13:48:25.21Z</time></trkpt><trkpt lat="43.2487209" lon="10.7504064"><ele>480.0</ele><time>2026-04-18T13:48:26.191Z</time></trkpt><trkpt lat="43.2487069" lon="10.7502787"><ele>480.0</ele><time>2026-04-18T13:48:27.202Z</time></trkpt><trkpt lat="43.2486979" lon="10.7501639"><ele>480.0</ele><time>2026-04-18T13:48:28.199Z</time></trkpt><trkpt lat="43.2486909" lon="10.7500445"><ele>480.0</ele><time>2026-04-18T13:48:29.218Z</time></trkpt><trkpt lat="43.2486761" lon="10.7499229"><ele>480.0</ele><time>2026-04-18T13:48:30.21Z</time></trkpt><trkpt lat="43.2486729" lon="10.7498145"><ele>480.0</ele><time>2026-04-18T13:48:31.194Z</time></trkpt><trkpt lat="43.2486766" lon="10.7497174"><ele>480.8333333333333</ele><time>2026-04-18T13:48:32.2Z</time></trkpt><trkpt lat="43.2486806" lon="10.7496151"><ele>481.66666666666663</ele><time>2026-04-18T13:48:33.206Z</time></trkpt><trkpt lat="43.2486814" lon="10.7495185"><ele>482.5</ele><time>2026-04-18T13:48:34.209Z</time></trkpt><trkpt lat="43.2486774" lon="10.749398"><ele>483.3333333333333</ele><time>2026-04-18T13:48:35.204Z</time></trkpt><trkpt lat="43.2486582" lon="10.7492846"><ele>484.16666666666663</ele><time>2026-04-18T13:48:36.219Z</time></trkpt><trkpt lat="43.2486318" lon="10.7491696"><ele>485.0</ele><time>2026-04-18T13:48:37.204Z</time></trkpt><trkpt lat="43.2486038" lon="10.7490528"><ele>485.16666666666663</ele><time>2026-04-18T13:48:38.208Z</time></trkpt><trkpt lat="43.2485734" lon="10.7489377"><ele>485.3333333333333</ele><time>2026-04-18T13:48:39.21Z</time></trkpt><trkpt lat="43.2485482" lon="10.7488292"><ele>485.5</ele><time>2026-04-18T13:48:40.193Z</time></trkpt><trkpt lat="43.2485245" lon="10.7487173"><ele>485.66666666666663</ele><time>2026-04-18T13:48:41.197Z</time></trkpt><trkpt lat="43.2484904" lon="10.7486127"><ele>485.8333333333333</ele><time>2026-04-18T13:48:42.198Z</time></trkpt><trkpt lat="43.248455" lon="10.7485114"><ele>486.0</ele><time>2026-04-18T13:48:43.191Z</time></trkpt><trkpt lat="43.248414" lon="10.7484024"><ele>486.8</ele><time>2026-04-18T13:48:44.209Z</time></trkpt><trkpt lat="43.2483912" lon="10.7482921"><ele>487.6</ele><time>2026-04-18T13:48:45.188Z</time></trkpt><trkpt lat="43.2484119" lon="10.7481913"><ele>488.4</ele><time>2026-04-18T13:48:46.198Z</time></trkpt><trkpt lat="43.2484995" lon="10.7480922"><ele>489.2</ele><time>2026-04-18T13:48:48.209Z</time></trkpt><trkpt lat="43.24861" lon="10.7481598"><ele>490.0</ele><time>2026-04-18T13:48:50.215Z</time></trkpt><trkpt lat="43.2486714" lon="10.7482079"><ele>490.0</ele><time>2026-04-18T13:48:51.183Z</time></trkpt><trkpt lat="43.2487282" lon="10.7482523"><ele>490.0</ele><time>2026-04-18T13:48:52.185Z</time></trkpt><trkpt lat="43.2487872" lon="10.7482984"><ele>490.0</ele><time>2026-04-18T13:48:53.21Z</time></trkpt><trkpt lat="43.2488568" lon="10.7483584"><ele>490.0</ele><time>2026-04-18T13:48:54.217Z</time></trkpt><trkpt lat="43.2489235" lon="10.7484164"><ele>490.0</ele><time>2026-04-18T13:48:55.207Z</time></trkpt><trkpt lat="43.2489863" lon="10.7484758"><ele>490.0</ele><time>2026-04-18T13:48:56.215Z</time></trkpt><trkpt lat="43.2490404" lon="10.7485355"><ele>490.0</ele><time>2026-04-18T13:48:57.209Z</time></trkpt><trkpt lat="43.2490936" lon="10.7485969"><ele>490.83333333333337</ele><time>2026-04-18T13:48:58.203Z</time></trkpt><trkpt lat="43.2491592" lon="10.7486631"><ele>491.6666666666667</ele><time>2026-04-18T13:48:59.216Z</time></trkpt><trkpt lat="43.2492249" lon="10.748715"><ele>492.5</ele><time>2026-04-18T13:49:00.194Z</time></trkpt><trkpt lat="43.2492873" lon="10.7487573"><ele>493.33333333333337</ele><time>2026-04-18T13:49:01.196Z</time></trkpt><trkpt lat="43.2493546" lon="10.7487927"><ele>494.1666666666667</ele><time>2026-04-18T13:49:02.214Z</time></trkpt><trkpt lat="43.2494404" lon="10.7488148"><ele>495.0</ele><time>2026-04-18T13:49:03.189Z</time></trkpt><trkpt lat="43.2495464" lon="10.7488194"><ele>495.0</ele><time>2026-04-18T13:49:04.187Z</time></trkpt><trkpt lat="43.2496399" lon="10.7488082"><ele>495.0</ele><time>2026-04-18T13:49:05.184Z</time></trkpt><trkpt lat="43.2497463" lon="10.7487736"><ele>495.0</ele><time>2026-04-18T13:49:06.205Z</time></trkpt><trkpt lat="43.2498568" lon="10.7487378"><ele>495.0</ele><time>2026-04-18T13:49:07.196Z</time></trkpt><trkpt lat="43.2499668" lon="10.7486732"><ele>495.0</ele><time>2026-04-18T13:49:08.194Z</time></trkpt><trkpt lat="43.2500758" lon="10.7485899"><ele>493.25</ele><time>2026-04-18T13:49:09.201Z</time></trkpt><trkpt lat="43.2501692" lon="10.7484951"><ele>491.5</ele><time>2026-04-18T13:49:10.206Z</time></trkpt><trkpt lat="43.2502686" lon="10.7484033"><ele>489.75</ele><time>2026-04-18T13:49:11.192Z</time></trkpt><trkpt lat="43.2503723" lon="10.748326"><ele>488.0</ele><time>2026-04-18T13:49:12.197Z</time></trkpt><trkpt lat="43.2504694" lon="10.748265"><ele>487.99999999999994</ele><time>2026-04-18T13:49:13.195Z</time></trkpt><trkpt lat="43.2505601" lon="10.7482005"><ele>488.0</ele><time>2026-04-18T13:49:14.187Z</time></trkpt><trkpt lat="43.250643" lon="10.7481387"><ele>488.0</ele><time>2026-04-18T13:49:15.183Z</time></trkpt><trkpt lat="43.2507161" lon="10.7480781"><ele>488.0</ele><time>2026-04-18T13:49:16.195Z</time></trkpt><trkpt lat="43.2507728" lon="10.7479907"><ele>487.99999999999994</ele><time>2026-04-18T13:49:17.19Z</time></trkpt><trkpt lat="43.2507893" lon="10.7478927"><ele>488.0</ele><time>2026-04-18T13:49:18.2Z</time></trkpt><trkpt lat="43.2508143" lon="10.7478008"><ele>488.79999999999995</ele><time>2026-04-18T13:49:19.188Z</time></trkpt><trkpt lat="43.2508416" lon="10.7476822"><ele>489.59999999999997</ele><time>2026-04-18T13:49:20.194Z</time></trkpt><trkpt lat="43.2508761" lon="10.7475705"><ele>490.40000000000003</ele><time>2026-04-18T13:49:21.194Z</time></trkpt><trkpt lat="43.2509211" lon="10.7474609"><ele>491.20000000000005</ele><time>2026-04-18T13:49:22.206Z</time></trkpt><trkpt lat="43.2509895" lon="10.7473651"><ele>492.0</ele><time>2026-04-18T13:49:23.201Z</time></trkpt><trkpt lat="43.2510481" lon="10.7472475"><ele>492.0</ele><time>2026-04-18T13:49:24.207Z</time></trkpt><trkpt lat="43.2510956" lon="10.7471436"><ele>492.00000000000006</ele><time>2026-04-18T13:49:25.191Z</time></trkpt><trkpt lat="43.2511606" lon="10.7470388"><ele>492.00000000000006</ele><time>2026-04-18T13:49:26.198Z</time></trkpt><trkpt lat="43.2512184" lon="10.746941"><ele>492.0</ele><time>2026-04-18T13:49:27.195Z</time></trkpt><trkpt lat="43.2512666" lon="10.7468382"><ele>492.0</ele><time>2026-04-18T13:49:28.201Z</time></trkpt><trkpt lat="43.2513279" lon="10.7467326"><ele>492.40000000000003</ele><time>2026-04-18T13:49:29.182Z</time></trkpt><trkpt lat="43.2513788" lon="10.7466184"><ele>492.80000000000007</ele><time>2026-04-18T13:49:30.199Z</time></trkpt><trkpt lat="43.2514317" lon="10.7465165"><ele>493.2</ele><time>2026-04-18T13:49:31.191Z</time></trkpt><trkpt lat="43.2514883" lon="10.746431"><ele>493.6</ele><time>2026-04-18T13:49:32.197Z</time></trkpt><trkpt lat="43.2515412" lon="10.7463436"><ele>494.0</ele><time>2026-04-18T13:49:33.194Z</time></trkpt><trkpt lat="43.2516298" lon="10.7462796"><ele>494.0</ele><time>2026-04-18T13:49:35.179Z</time></trkpt><trkpt lat="43.2517283" lon="10.7463246"><ele>494.0</ele><time>2026-04-18T13:49:37.188Z</time></trkpt><trkpt lat="43.2517748" lon="10.7464253"><ele>494.0</ele><time>2026-04-18T13:49:38.186Z</time></trkpt><trkpt lat="43.2518382" lon="10.7465507"><ele>494.0</ele><time>2026-04-18T13:49:39.19Z</time></trkpt><trkpt lat="43.251903" lon="10.746669"><ele>494.0</ele><time>2026-04-18T13:49:40.186Z</time></trkpt><trkpt lat="43.2519783" lon="10.7467799"><ele>493.99999999999994</ele><time>2026-04-18T13:49:41.189Z</time></trkpt><trkpt lat="43.2520318" lon="10.7468721"><ele>494.0</ele><time>2026-04-18T13:49:42.186Z</time></trkpt><trkpt lat="43.252086" lon="10.7469558"><ele>494.0</ele><time>2026-04-18T13:49:43.194Z</time></trkpt><trkpt lat="43.2521466" lon="10.7470233"><ele>494.0</ele><time>2026-04-18T13:49:44.202Z</time></trkpt><trkpt lat="43.2522164" lon="10.7470638"><ele>493.99999999999994</ele><time>2026-04-18T13:49:45.2Z</time></trkpt><trkpt lat="43.2522783" lon="10.7470871"><ele>494.0</ele><time>2026-04-18T13:49:46.2Z</time></trkpt><trkpt lat="43.2523586" lon="10.7471011"><ele>494.79999999999995</ele><time>2026-04-18T13:49:47.205Z</time></trkpt><trkpt lat="43.2524318" lon="10.7471028"><ele>495.59999999999997</ele><time>2026-04-18T13:49:48.211Z</time></trkpt><trkpt lat="43.2525047" lon="10.7470931"><ele>496.4</ele><time>2026-04-18T13:49:49.194Z</time></trkpt><trkpt lat="43.2526285" lon="10.7470672"><ele>497.2</ele><time>2026-04-18T13:49:51.199Z</time></trkpt><trkpt lat="43.2527552" lon="10.7471032"><ele>498.0</ele><time>2026-04-18T13:49:53.193Z</time></trkpt><trkpt lat="43.2528147" lon="10.7471557"><ele>498.0</ele><time>2026-04-18T13:49:54.196Z</time></trkpt><trkpt lat="43.2528654" lon="10.747228"><ele>497.99999999999994</ele><time>2026-04-18T13:49:55.181Z</time></trkpt><trkpt lat="43.2529067" lon="10.7472991"><ele>498.0</ele><time>2026-04-18T13:49:56.199Z</time></trkpt><trkpt lat="43.2529403" lon="10.7473732"><ele>498.0</ele><time>2026-04-18T13:49:57.19Z</time></trkpt><trkpt lat="43.2529741" lon="10.747469"><ele>497.99999999999994</ele><time>2026-04-18T13:49:58.206Z</time></trkpt><trkpt lat="43.2530162" lon="10.7475693"><ele>498.0</ele><time>2026-04-18T13:49:59.213Z</time></trkpt><trkpt lat="43.2530424" lon="10.7476631"><ele>498.0</ele><time>2026-04-18T13:50:00.206Z</time></trkpt><trkpt lat="43.2531098" lon="10.7478067"><ele>495.2</ele><time>2026-04-18T13:50:02.196Z</time></trkpt><trkpt lat="43.2531485" lon="10.7478836"><ele>492.4</ele><time>2026-04-18T13:50:03.188Z</time></trkpt><trkpt lat="43.2532218" lon="10.7480131"><ele>489.59999999999997</ele><time>2026-04-18T13:50:05.195Z</time></trkpt><trkpt lat="43.2533228" lon="10.7480952"><ele>486.79999999999995</ele><time>2026-04-18T13:50:07.198Z</time></trkpt><trkpt lat="43.2534325" lon="10.7481434"><ele>484.0</ele><time>2026-04-18T13:50:09.2Z</time></trkpt><trkpt lat="43.253493" lon="10.7481878"><ele>484.0</ele><time>2026-04-18T13:50:10.187Z</time></trkpt><trkpt lat="43.2535449" lon="10.7482704"><ele>484.0</ele><time>2026-04-18T13:50:11.201Z</time></trkpt><trkpt lat="43.2535769" lon="10.7483624"><ele>484.0</ele><time>2026-04-18T13:50:12.197Z</time></trkpt><trkpt lat="43.2536213" lon="10.7485179"><ele>484.0</ele><time>2026-04-18T13:50:14.199Z</time></trkpt><trkpt lat="43.2536373" lon="10.7486878"><ele>484.0</ele><time>2026-04-18T13:50:16.197Z</time></trkpt><trkpt lat="43.2536476" lon="10.7487747"><ele>484.57142857142856</ele><time>2026-04-18T13:50:17.196Z</time></trkpt><trkpt lat="43.2536635" lon="10.7488624"><ele>485.1428571428571</ele><time>2026-04-18T13:50:18.194Z</time></trkpt><trkpt lat="43.2536974" lon="10.74895"><ele>485.71428571428567</ele><time>2026-04-18T13:50:19.192Z</time></trkpt><trkpt lat="43.2537267" lon="10.749028"><ele>486.2857142857142</ele><time>2026-04-18T13:50:20.198Z</time></trkpt><trkpt lat="43.2537656" lon="10.7491028"><ele>486.85714285714283</ele><time>2026-04-18T13:50:21.187Z</time></trkpt><trkpt lat="43.253813" lon="10.7491839"><ele>487.42857142857133</ele><time>2026-04-18T13:50:22.2Z</time></trkpt><trkpt lat="43.2538637" lon="10.7492573"><ele>487.99999999999994</ele><time>2026-04-18T13:50:23.183Z</time></trkpt><trkpt lat="43.2539058" lon="10.7493279"><ele>487.71428571428567</ele><time>2026-04-18T13:50:24.191Z</time></trkpt><trkpt lat="43.2539618" lon="10.7493938"><ele>487.42857142857144</ele><time>2026-04-18T13:50:25.181Z</time></trkpt><trkpt lat="43.2540216" lon="10.7494512"><ele>487.1428571428571</ele><time>2026-04-18T13:50:26.194Z</time></trkpt><trkpt lat="43.2540745" lon="10.7495198"><ele>486.85714285714283</ele><time>2026-04-18T13:50:27.204Z</time></trkpt><trkpt lat="43.2541208" lon="10.7495909"><ele>486.57142857142856</ele><time>2026-04-18T13:50:28.201Z</time></trkpt><trkpt lat="43.2541665" lon="10.7496523"><ele>486.2857142857143</ele><time>2026-04-18T13:50:29.189Z</time></trkpt><trkpt lat="43.2542225" lon="10.7497008"><ele>486.0</ele><time>2026-04-18T13:50:30.191Z</time></trkpt><trkpt lat="43.2542816" lon="10.7497434"><ele>486.0</ele><time>2026-04-18T13:50:31.186Z</time></trkpt><trkpt lat="43.2543423" lon="10.7497727"><ele>486.0</ele><time>2026-04-18T13:50:32.189Z</time></trkpt><trkpt lat="43.2544557" lon="10.7498048"><ele>486.0</ele><time>2026-04-18T13:50:34.202Z</time></trkpt><trkpt lat="43.2545243" lon="10.7498119"><ele>486.0</ele><time>2026-04-18T13:50:35.179Z</time></trkpt><trkpt lat="43.2545904" lon="10.7498203"><ele>486.0</ele><time>2026-04-18T13:50:36.184Z</time></trkpt><trkpt lat="43.2546534" lon="10.7498343"><ele>486.0</ele><time>2026-04-18T13:50:37.192Z</time></trkpt><trkpt lat="43.2547182" lon="10.7498518"><ele>486.0</ele><time>2026-04-18T13:50:38.201Z</time></trkpt><trkpt lat="43.2547793" lon="10.7498779"><ele>484.1666666666667</ele><time>2026-04-18T13:50:39.185Z</time></trkpt><trkpt lat="43.2548808" lon="10.7499077"><ele>482.33333333333337</ele><time>2026-04-18T13:50:41.192Z</time></trkpt><trkpt lat="43.2549821" lon="10.7498871"><ele>480.5</ele><time>2026-04-18T13:50:43.184Z</time></trkpt><trkpt lat="43.2550498" lon="10.7498523"><ele>478.6666666666667</ele><time>2026-04-18T13:50:44.197Z</time></trkpt><trkpt lat="43.255127" lon="10.7498243"><ele>476.83333333333337</ele><time>2026-04-18T13:50:45.188Z</time></trkpt><trkpt lat="43.2551978" lon="10.7498114"><ele>475.0</ele><time>2026-04-18T13:50:46.198Z</time></trkpt><trkpt lat="43.255273" lon="10.7498119"><ele>475.00000000000006</ele><time>2026-04-18T13:50:47.195Z</time></trkpt><trkpt lat="43.2553417" lon="10.7498297"><ele>475.0</ele><time>2026-04-18T13:50:48.184Z</time></trkpt><trkpt lat="43.2553987" lon="10.7498699"><ele>475.0</ele><time>2026-04-18T13:50:49.191Z</time></trkpt><trkpt lat="43.2554543" lon="10.7499587"><ele>475.0</ele><time>2026-04-18T13:50:50.198Z</time></trkpt><trkpt lat="43.255515" lon="10.7500608"><ele>475.00000000000006</ele><time>2026-04-18T13:50:51.196Z</time></trkpt><trkpt lat="43.2555669" lon="10.750148"><ele>475.0</ele><time>2026-04-18T13:50:52.193Z</time></trkpt><trkpt lat="43.2556216" lon="10.7502377"><ele>474.33333333333337</ele><time>2026-04-18T13:50:53.206Z</time></trkpt><trkpt lat="43.2556758" lon="10.7503128"><ele>473.6666666666667</ele><time>2026-04-18T13:50:54.206Z</time></trkpt><trkpt lat="43.2557497" lon="10.7503788"><ele>473.0</ele><time>2026-04-18T13:50:55.19Z</time></trkpt><trkpt lat="43.2558375" lon="10.7504212"><ele>472.33333333333337</ele><time>2026-04-18T13:50:56.211Z</time></trkpt><trkpt lat="43.2559223" lon="10.7504464"><ele>471.6666666666667</ele><time>2026-04-18T13:50:57.207Z</time></trkpt><trkpt lat="43.2560026" lon="10.750463"><ele>471.0</ele><time>2026-04-18T13:50:58.19Z</time></trkpt><trkpt lat="43.2560737" lon="10.750491"><ele>471.0</ele><time>2026-04-18T13:50:59.189Z</time></trkpt><trkpt lat="43.2561624" lon="10.7505311"><ele>471.0</ele><time>2026-04-18T13:51:00.203Z</time></trkpt><trkpt lat="43.2562492" lon="10.7505986"><ele>471.0</ele><time>2026-04-18T13:51:01.198Z</time></trkpt><trkpt lat="43.2563028" lon="10.7506897"><ele>471.0</ele><time>2026-04-18T13:51:02.205Z</time></trkpt><trkpt lat="43.2563597" lon="10.7507802"><ele>471.0</ele><time>2026-04-18T13:51:03.194Z</time></trkpt><trkpt lat="43.2564006" lon="10.7508759"><ele>471.0</ele><time>2026-04-18T13:51:04.196Z</time></trkpt><trkpt lat="43.2564619" lon="10.7509803"><ele>469.6666666666667</ele><time>2026-04-18T13:51:05.179Z</time></trkpt><trkpt lat="43.2565146" lon="10.7510837"><ele>468.33333333333337</ele><time>2026-04-18T13:51:06.184Z</time></trkpt><trkpt lat="43.256566" lon="10.7511753"><ele>467.0</ele><time>2026-04-18T13:51:07.193Z</time></trkpt><trkpt lat="43.2566236" lon="10.7512586"><ele>465.6666666666667</ele><time>2026-04-18T13:51:08.184Z</time></trkpt><trkpt lat="43.2566669" lon="10.7513405"><ele>464.33333333333337</ele><time>2026-04-18T13:51:09.183Z</time></trkpt><trkpt lat="43.2567155" lon="10.7514257"><ele>463.0</ele><time>2026-04-18T13:51:10.209Z</time></trkpt><trkpt lat="43.2567633" lon="10.751512"><ele>463.00000000000006</ele><time>2026-04-18T13:51:11.188Z</time></trkpt><trkpt lat="43.2568128" lon="10.7515835"><ele>463.0</ele><time>2026-04-18T13:51:12.201Z</time></trkpt><trkpt lat="43.2568706" lon="10.7516602"><ele>463.0</ele><time>2026-04-18T13:51:13.188Z</time></trkpt><trkpt lat="43.2569391" lon="10.7517228"><ele>463.0</ele><time>2026-04-18T13:51:14.201Z</time></trkpt><trkpt lat="43.2570083" lon="10.751779"><ele>463.00000000000006</ele><time>2026-04-18T13:51:15.189Z</time></trkpt><trkpt lat="43.2570736" lon="10.7518282"><ele>463.0</ele><time>2026-04-18T13:51:16.2Z</time></trkpt><trkpt lat="43.2571401" lon="10.7518745"><ele>462.59999999999997</ele><time>2026-04-18T13:51:17.207Z</time></trkpt><trkpt lat="43.2572078" lon="10.7519386"><ele>462.19999999999993</ele><time>2026-04-18T13:51:18.197Z</time></trkpt><trkpt lat="43.2572895" lon="10.7519932"><ele>461.8</ele><time>2026-04-18T13:51:19.205Z</time></trkpt><trkpt lat="43.2573764" lon="10.7520472"><ele>461.4</ele><time>2026-04-18T13:51:20.199Z</time></trkpt><trkpt lat="43.2574678" lon="10.7521"><ele>461.0</ele><time>2026-04-18T13:51:21.188Z</time></trkpt><trkpt lat="43.2575646" lon="10.7521618"><ele>460.99999999999994</ele><time>2026-04-18T13:51:22.191Z</time></trkpt><trkpt lat="43.2576477" lon="10.7522156"><ele>461.0</ele><time>2026-04-18T13:51:23.191Z</time></trkpt><trkpt lat="43.2577259" lon="10.7522455"><ele>461.0</ele><time>2026-04-18T13:51:24.207Z</time></trkpt><trkpt lat="43.2578014" lon="10.7522711"><ele>461.0</ele><time>2026-04-18T13:51:25.193Z</time></trkpt><trkpt lat="43.2578805" lon="10.7522721"><ele>460.99999999999994</ele><time>2026-04-18T13:51:26.196Z</time></trkpt><trkpt lat="43.2579759" lon="10.7522631"><ele>461.0</ele><time>2026-04-18T13:51:27.188Z</time></trkpt><trkpt lat="43.2580677" lon="10.7522469"><ele>462.0</ele><time>2026-04-18T13:51:28.206Z</time></trkpt><trkpt lat="43.2581659" lon="10.7522288"><ele>463.0</ele><time>2026-04-18T13:51:29.19Z</time></trkpt><trkpt lat="43.2582692" lon="10.7522181"><ele>464.0</ele><time>2026-04-18T13:51:30.19Z</time></trkpt><trkpt lat="43.2583746" lon="10.7522113"><ele>465.0</ele><time>2026-04-18T13:51:31.174Z</time></trkpt><trkpt lat="43.2584689" lon="10.7522042"><ele>466.0</ele><time>2026-04-18T13:51:32.186Z</time></trkpt><trkpt lat="43.2585522" lon="10.7521898"><ele>466.00000000000006</ele><time>2026-04-18T13:51:33.195Z</time></trkpt><trkpt lat="43.2586372" lon="10.752169"><ele>466.0</ele><time>2026-04-18T13:51:34.193Z</time></trkpt><trkpt lat="43.2586988" lon="10.7521481"><ele>466.0</ele><time>2026-04-18T13:51:35.169Z</time></trkpt><trkpt lat="43.2587668" lon="10.7521183"><ele>466.0</ele><time>2026-04-18T13:51:36.192Z</time></trkpt><trkpt lat="43.2588346" lon="10.7520771"><ele>466.00000000000006</ele><time>2026-04-18T13:51:37.186Z</time></trkpt><trkpt lat="43.2589078" lon="10.7520345"><ele>466.0</ele><time>2026-04-18T13:51:38.194Z</time></trkpt><trkpt lat="43.2589966" lon="10.7519839"><ele>465.8</ele><time>2026-04-18T13:51:39.194Z</time></trkpt><trkpt lat="43.2590925" lon="10.7519471"><ele>465.6</ele><time>2026-04-18T13:51:40.191Z</time></trkpt><trkpt lat="43.259197" lon="10.7519307"><ele>465.4</ele><time>2026-04-18T13:51:41.186Z</time></trkpt><trkpt lat="43.2592941" lon="10.7519352"><ele>465.2</ele><time>2026-04-18T13:51:42.187Z</time></trkpt><trkpt lat="43.2593795" lon="10.7519436"><ele>465.0</ele><time>2026-04-18T13:51:43.186Z</time></trkpt><trkpt lat="43.259454" lon="10.7519655"><ele>465.0</ele><time>2026-04-18T13:51:44.196Z</time></trkpt><trkpt lat="43.2595529" lon="10.7519664"><ele>465.0</ele><time>2026-04-18T13:51:45.187Z</time></trkpt><trkpt lat="43.2596736" lon="10.7519789"><ele>465.0</ele><time>2026-04-18T13:51:46.185Z</time></trkpt><trkpt lat="43.2597439" lon="10.7520329"><ele>465.0</ele><time>2026-04-18T13:51:47.188Z</time></trkpt><trkpt lat="43.2597438" lon="10.7521746"><ele>465.0</ele><time>2026-04-18T13:51:49.191Z</time></trkpt><trkpt lat="43.2597132" lon="10.7522698"><ele>465.0</ele><time>2026-04-18T13:51:50.189Z</time></trkpt><trkpt lat="43.2596779" lon="10.752366"><ele>465.0</ele><time>2026-04-18T13:51:51.193Z</time></trkpt><trkpt lat="43.2596426" lon="10.7524578"><ele>465.0</ele><time>2026-04-18T13:51:52.188Z</time></trkpt><trkpt lat="43.259603" lon="10.752542"><ele>465.0</ele><time>2026-04-18T13:51:53.193Z</time></trkpt><trkpt lat="43.2595586" lon="10.7526453"><ele>465.0</ele><time>2026-04-18T13:51:54.201Z</time></trkpt><trkpt lat="43.2595207" lon="10.7527159"><ele>465.0</ele><time>2026-04-18T13:51:55.182Z</time></trkpt><trkpt lat="43.2594759" lon="10.7528097"><ele>463.0</ele><time>2026-04-18T13:51:56.189Z</time></trkpt><trkpt lat="43.2594321" lon="10.7529053"><ele>461.0</ele><time>2026-04-18T13:51:57.197Z</time></trkpt><trkpt lat="43.2594046" lon="10.7529912"><ele>459.0</ele><time>2026-04-18T13:51:58.193Z</time></trkpt><trkpt lat="43.2593984" lon="10.7530809"><ele>457.0</ele><time>2026-04-18T13:51:59.179Z</time></trkpt><trkpt lat="43.2594718" lon="10.7532523"><ele>455.0</ele><time>2026-04-18T13:52:01.2Z</time></trkpt><trkpt lat="43.2595644" lon="10.7533365"><ele>455.0</ele><time>2026-04-18T13:52:02.192Z</time></trkpt><trkpt lat="43.2596294" lon="10.7534468"><ele>455.0</ele><time>2026-04-18T13:52:03.185Z</time></trkpt><trkpt lat="43.2596788" lon="10.7535625"><ele>455.0</ele><time>2026-04-18T13:52:04.198Z</time></trkpt><trkpt lat="43.2597369" lon="10.7536651"><ele>455.0</ele><time>2026-04-18T13:52:05.189Z</time></trkpt><trkpt lat="43.2598061" lon="10.7537523"><ele>455.0</ele><time>2026-04-18T13:52:06.201Z</time></trkpt><trkpt lat="43.2598726" lon="10.753821"><ele>455.49999999999994</ele><time>2026-04-18T13:52:07.186Z</time></trkpt><trkpt lat="43.2599481" lon="10.7538722"><ele>456.0</ele><time>2026-04-18T13:52:08.21Z</time></trkpt><trkpt lat="43.260026" lon="10.7538922"><ele>456.5</ele><time>2026-04-18T13:52:09.191Z</time></trkpt><trkpt lat="43.2601035" lon="10.753923"><ele>457.0</ele><time>2026-04-18T13:52:10.199Z</time></trkpt><trkpt lat="43.260175" lon="10.7539586"><ele>457.49999999999994</ele><time>2026-04-18T13:52:11.191Z</time></trkpt><trkpt lat="43.2602395" lon="10.7539909"><ele>458.0</ele><time>2026-04-18T13:52:12.187Z</time></trkpt><trkpt lat="43.2603065" lon="10.7540029"><ele>458.0</ele><time>2026-04-18T13:52:13.181Z</time></trkpt><trkpt lat="43.2603748" lon="10.7540123"><ele>458.0</ele><time>2026-04-18T13:52:14.188Z</time></trkpt><trkpt lat="43.2604488" lon="10.754022"><ele>458.0</ele><time>2026-04-18T13:52:15.193Z</time></trkpt><trkpt lat="43.2605163" lon="10.7540183"><ele>458.0</ele><time>2026-04-18T13:52:16.188Z</time></trkpt><trkpt lat="43.260587" lon="10.7540104"><ele>458.0</ele><time>2026-04-18T13:52:17.176Z</time></trkpt><trkpt lat="43.2606596" lon="10.7539876"><ele>458.0</ele><time>2026-04-18T13:52:18.193Z</time></trkpt><trkpt lat="43.2607318" lon="10.753953"><ele>458.0</ele><time>2026-04-18T13:52:19.182Z</time></trkpt><trkpt lat="43.2608001" lon="10.7539068"><ele>458.0</ele><time>2026-04-18T13:52:20.193Z</time></trkpt><trkpt lat="43.2608562" lon="10.7538638"><ele>457.99999999999994</ele><time>2026-04-18T13:52:21.197Z</time></trkpt><trkpt lat="43.2609173" lon="10.7537462"><ele>457.99999999999994</ele><time>2026-04-18T13:52:23.191Z</time></trkpt><trkpt lat="43.2609991" lon="10.7536239"><ele>458.0</ele><time>2026-04-18T13:52:25.187Z</time></trkpt><trkpt lat="43.261106" lon="10.7535553"><ele>458.0</ele><time>2026-04-18T13:52:27.19Z</time></trkpt><trkpt lat="43.261205" lon="10.7535147"><ele>459.3333333333333</ele><time>2026-04-18T13:52:29.195Z</time></trkpt><trkpt lat="43.2612896" lon="10.7534599"><ele>460.66666666666663</ele><time>2026-04-18T13:52:31.186Z</time></trkpt><trkpt lat="43.261343" lon="10.7534038"><ele>462.0</ele><time>2026-04-18T13:52:32.207Z</time></trkpt><trkpt lat="43.2614032" lon="10.7533462"><ele>463.33333333333337</ele><time>2026-04-18T13:52:33.201Z</time></trkpt><trkpt lat="43.2614651" lon="10.7532844"><ele>464.6666666666667</ele><time>2026-04-18T13:52:34.188Z</time></trkpt><trkpt lat="43.261536" lon="10.7531901"><ele>466.0</ele><time>2026-04-18T13:52:36.198Z</time></trkpt><trkpt lat="43.26162" lon="10.7531263"><ele>466.0</ele><time>2026-04-18T13:52:38.198Z</time></trkpt><trkpt lat="43.2616746" lon="10.753063"><ele>466.0</ele><time>2026-04-18T13:52:40.184Z</time></trkpt><trkpt lat="43.2617586" lon="10.7530867"><ele>466.0</ele><time>2026-04-18T13:52:43.182Z</time></trkpt><trkpt lat="43.2618581" lon="10.75313"><ele>466.0</ele><time>2026-04-18T13:52:45.182Z</time></trkpt><trkpt lat="43.2619238" lon="10.7531598"><ele>466.0</ele><time>2026-04-18T13:52:46.203Z</time></trkpt><trkpt lat="43.2620462" lon="10.7532328"><ele>466.0</ele><time>2026-04-18T13:52:48.197Z</time></trkpt><trkpt lat="43.262113" lon="10.7532437"><ele>466.0</ele><time>2026-04-18T13:52:49.195Z</time></trkpt><trkpt lat="43.2621765" lon="10.7532149"><ele>466.0</ele><time>2026-04-18T13:52:50.198Z</time></trkpt><trkpt lat="43.2622347" lon="10.7531746"><ele>466.0</ele><time>2026-04-18T13:52:51.201Z</time></trkpt><trkpt lat="43.2623041" lon="10.753141"><ele>466.0</ele><time>2026-04-18T13:52:52.198Z</time></trkpt><trkpt lat="43.2623868" lon="10.7531693"><ele>466.0</ele><time>2026-04-18T13:52:53.199Z</time></trkpt><trkpt lat="43.2624714" lon="10.7531932"><ele>466.0</ele><time>2026-04-18T13:52:54.188Z</time></trkpt><trkpt lat="43.2625643" lon="10.7532491"><ele>465.00000000000006</ele><time>2026-04-18T13:52:55.18Z</time></trkpt><trkpt lat="43.26265" lon="10.7533024"><ele>464.0</ele><time>2026-04-18T13:52:56.212Z</time></trkpt><trkpt lat="43.2627222" lon="10.7533649"><ele>463.0</ele><time>2026-04-18T13:52:57.217Z</time></trkpt><trkpt lat="43.2628014" lon="10.7534017"><ele>462.0</ele><time>2026-04-18T13:52:58.189Z</time></trkpt><trkpt lat="43.262884" lon="10.7534195"><ele>461.00000000000006</ele><time>2026-04-18T13:52:59.194Z</time></trkpt><trkpt lat="43.2629634" lon="10.7534392"><ele>460.0</ele><time>2026-04-18T13:53:00.209Z</time></trkpt><trkpt lat="43.2630467" lon="10.7534671"><ele>459.50000000000006</ele><time>2026-04-18T13:53:01.176Z</time></trkpt><trkpt lat="43.2631265" lon="10.753491"><ele>459.0</ele><time>2026-04-18T13:53:02.19Z</time></trkpt><trkpt lat="43.2632078" lon="10.7535063"><ele>458.5</ele><time>2026-04-18T13:53:03.199Z</time></trkpt><trkpt lat="43.2632863" lon="10.7535274"><ele>458.0</ele><time>2026-04-18T13:53:04.199Z</time></trkpt><trkpt lat="43.2633616" lon="10.753553"><ele>457.50000000000006</ele><time>2026-04-18T13:53:05.175Z</time></trkpt><trkpt lat="43.2634451" lon="10.753597"><ele>457.0</ele><time>2026-04-18T13:53:06.193Z</time></trkpt><trkpt lat="43.2635036" lon="10.7536902"><ele>455.1666666666667</ele><time>2026-04-18T13:53:07.187Z</time></trkpt><trkpt lat="43.2635422" lon="10.7537994"><ele>453.33333333333337</ele><time>2026-04-18T13:53:08.197Z</time></trkpt><trkpt lat="43.2635875" lon="10.7539059"><ele>451.5</ele><time>2026-04-18T13:53:09.196Z</time></trkpt><trkpt lat="43.2636331" lon="10.754006"><ele>449.66666666666663</ele><time>2026-04-18T13:53:10.2Z</time></trkpt><trkpt lat="43.2636781" lon="10.7540989"><ele>447.8333333333333</ele><time>2026-04-18T13:53:11.183Z</time></trkpt><trkpt lat="43.2637141" lon="10.7541908"><ele>446.0</ele><time>2026-04-18T13:53:12.203Z</time></trkpt><trkpt lat="43.2637428" lon="10.7542937"><ele>447.3333333333333</ele><time>2026-04-18T13:53:13.185Z</time></trkpt><trkpt lat="43.2637807" lon="10.7543808"><ele>448.66666666666663</ele><time>2026-04-18T13:53:14.207Z</time></trkpt><trkpt lat="43.2638276" lon="10.7544754"><ele>450.0</ele><time>2026-04-18T13:53:15.189Z</time></trkpt><trkpt lat="43.2638777" lon="10.7545544"><ele>451.33333333333337</ele><time>2026-04-18T13:53:16.205Z</time></trkpt><trkpt lat="43.2639353" lon="10.754623"><ele>452.6666666666667</ele><time>2026-04-18T13:53:17.21Z</time></trkpt><trkpt lat="43.2639867" lon="10.7546756"><ele>454.0</ele><time>2026-04-18T13:53:18.206Z</time></trkpt><trkpt lat="43.2640853" lon="10.7547438"><ele>454.00000000000006</ele><time>2026-04-18T13:53:20.204Z</time></trkpt><trkpt lat="43.264198" lon="10.7547661"><ele>454.0</ele><time>2026-04-18T13:53:22.191Z</time></trkpt><trkpt lat="43.2643223" lon="10.7547539"><ele>454.0</ele><time>2026-04-18T13:53:24.207Z</time></trkpt><trkpt lat="43.2643854" lon="10.7547485"><ele>454.0</ele><time>2026-04-18T13:53:25.187Z</time></trkpt><trkpt lat="43.2644483" lon="10.7547538"><ele>454.00000000000006</ele><time>2026-04-18T13:53:26.197Z</time></trkpt><trkpt lat="43.2645117" lon="10.7547667"><ele>454.0</ele><time>2026-04-18T13:53:27.192Z</time></trkpt><trkpt lat="43.2645823" lon="10.7547972"><ele>454.00000000000006</ele><time>2026-04-18T13:53:28.209Z</time></trkpt><trkpt lat="43.2646491" lon="10.7548338"><ele>454.0</ele><time>2026-04-18T13:53:29.181Z</time></trkpt><trkpt lat="43.2647221" lon="10.754871"><ele>454.0</ele><time>2026-04-18T13:53:30.198Z</time></trkpt><trkpt lat="43.2647933" lon="10.7548933"><ele>454.0</ele><time>2026-04-18T13:53:31.188Z</time></trkpt><trkpt lat="43.2648565" lon="10.7549131"><ele>454.00000000000006</ele><time>2026-04-18T13:53:32.202Z</time></trkpt><trkpt lat="43.2649262" lon="10.7549282"><ele>454.0</ele><time>2026-04-18T13:53:33.2Z</time></trkpt><trkpt lat="43.2650508" lon="10.7549093"><ele>455.50000000000006</ele><time>2026-04-18T13:53:35.191Z</time></trkpt><trkpt lat="43.265118" lon="10.754886"><ele>457.0</ele><time>2026-04-18T13:53:36.197Z</time></trkpt><trkpt lat="43.265197" lon="10.7548571"><ele>458.5</ele><time>2026-04-18T13:53:37.199Z</time></trkpt><trkpt lat="43.2652792" lon="10.7548381"><ele>460.0</ele><time>2026-04-18T13:53:38.187Z</time></trkpt><trkpt lat="43.2653643" lon="10.7548371"><ele>461.50000000000006</ele><time>2026-04-18T13:53:39.188Z</time></trkpt><trkpt lat="43.2654522" lon="10.7548457"><ele>463.0</ele><time>2026-04-18T13:53:40.199Z</time></trkpt><trkpt lat="43.2655362" lon="10.7548528"><ele>463.00000000000006</ele><time>2026-04-18T13:53:41.188Z</time></trkpt><trkpt lat="43.2656091" lon="10.7548404"><ele>463.0</ele><time>2026-04-18T13:53:42.201Z</time></trkpt><trkpt lat="43.2656846" lon="10.754817"><ele>463.0</ele><time>2026-04-18T13:53:43.185Z</time></trkpt><trkpt lat="43.2657768" lon="10.7547869"><ele>463.0</ele><time>2026-04-18T13:53:44.189Z</time></trkpt><trkpt lat="43.2658736" lon="10.7547569"><ele>463.00000000000006</ele><time>2026-04-18T13:53:45.186Z</time></trkpt><trkpt lat="43.2659654" lon="10.7547647"><ele>463.0</ele><time>2026-04-18T13:53:46.188Z</time></trkpt><trkpt lat="43.2660651" lon="10.7548084"><ele>460.59999999999997</ele><time>2026-04-18T13:53:47.182Z</time></trkpt><trkpt lat="43.2661599" lon="10.7548638"><ele>458.19999999999993</ele><time>2026-04-18T13:53:48.193Z</time></trkpt><trkpt lat="43.2662561" lon="10.7549221"><ele>455.8</ele><time>2026-04-18T13:53:49.198Z</time></trkpt><trkpt lat="43.2663469" lon="10.7549771"><ele>453.4</ele><time>2026-04-18T13:53:50.192Z</time></trkpt><trkpt lat="43.2664402" lon="10.755034"><ele>451.0</ele><time>2026-04-18T13:53:51.187Z</time></trkpt><trkpt lat="43.2665333" lon="10.7551075"><ele>448.75</ele><time>2026-04-18T13:53:52.204Z</time></trkpt><trkpt lat="43.2666319" lon="10.7551707"><ele>446.5</ele><time>2026-04-18T13:53:53.201Z</time></trkpt><trkpt lat="43.2667366" lon="10.7552299"><ele>444.25</ele><time>2026-04-18T13:53:54.191Z</time></trkpt><trkpt lat="43.2668448" lon="10.7552853"><ele>442.0</ele><time>2026-04-18T13:53:55.183Z</time></trkpt><trkpt lat="43.2669661" lon="10.7553382"><ele>442.0</ele><time>2026-04-18T13:53:56.218Z</time></trkpt><trkpt lat="43.2670785" lon="10.7553717"><ele>442.00000000000006</ele><time>2026-04-18T13:53:57.201Z</time></trkpt><trkpt lat="43.2671798" lon="10.7553932"><ele>442.00000000000006</ele><time>2026-04-18T13:53:58.207Z</time></trkpt><trkpt lat="43.2672723" lon="10.755396"><ele>442.0</ele><time>2026-04-18T13:53:59.205Z</time></trkpt><trkpt lat="43.2673768" lon="10.7553859"><ele>442.0</ele><time>2026-04-18T13:54:00.208Z</time></trkpt><trkpt lat="43.2674664" lon="10.7553379"><ele>442.00000000000006</ele><time>2026-04-18T13:54:01.204Z</time></trkpt><trkpt lat="43.2675505" lon="10.7552828"><ele>442.0</ele><time>2026-04-18T13:54:02.211Z</time></trkpt><trkpt lat="43.2676283" lon="10.7552267"><ele>442.0</ele><time>2026-04-18T13:54:03.202Z</time></trkpt><trkpt lat="43.2676953" lon="10.7551539"><ele>442.0</ele><time>2026-04-18T13:54:04.19Z</time></trkpt><trkpt lat="43.2677521" lon="10.7550889"><ele>442.00000000000006</ele><time>2026-04-18T13:54:05.197Z</time></trkpt><trkpt lat="43.2678091" lon="10.7550259"><ele>442.0</ele><time>2026-04-18T13:54:06.186Z</time></trkpt><trkpt lat="43.2678725" lon="10.7549779"><ele>442.1666666666667</ele><time>2026-04-18T13:54:07.194Z</time></trkpt><trkpt lat="43.2679521" lon="10.7549753"><ele>442.33333333333337</ele><time>2026-04-18T13:54:08.205Z</time></trkpt><trkpt lat="43.2680328" lon="10.7550171"><ele>442.5</ele><time>2026-04-18T13:54:09.193Z</time></trkpt><trkpt lat="43.2680981" lon="10.7550894"><ele>442.66666666666663</ele><time>2026-04-18T13:54:10.207Z</time></trkpt><trkpt lat="43.2681566" lon="10.7551599"><ele>442.8333333333333</ele><time>2026-04-18T13:54:11.199Z</time></trkpt><trkpt lat="43.2682047" lon="10.7552408"><ele>443.0</ele><time>2026-04-18T13:54:12.202Z</time></trkpt><trkpt lat="43.2682476" lon="10.7553204"><ele>442.99999999999994</ele><time>2026-04-18T13:54:13.191Z</time></trkpt><trkpt lat="43.2682943" lon="10.7553946"><ele>443.0</ele><time>2026-04-18T13:54:14.201Z</time></trkpt><trkpt lat="43.2683392" lon="10.7554846"><ele>443.0</ele><time>2026-04-18T13:54:15.186Z</time></trkpt><trkpt lat="43.2683978" lon="10.755572"><ele>443.0</ele><time>2026-04-18T13:54:16.188Z</time></trkpt><trkpt lat="43.2684703" lon="10.7556565"><ele>442.99999999999994</ele><time>2026-04-18T13:54:17.184Z</time></trkpt><trkpt lat="43.268544" lon="10.7557407"><ele>443.0</ele><time>2026-04-18T13:54:18.197Z</time></trkpt><trkpt lat="43.2686165" lon="10.7558278"><ele>443.0</ele><time>2026-04-18T13:54:19.194Z</time></trkpt><trkpt lat="43.2686936" lon="10.7559125"><ele>442.99999999999994</ele><time>2026-04-18T13:54:20.199Z</time></trkpt><trkpt lat="43.2687708" lon="10.7559944"><ele>442.99999999999994</ele><time>2026-04-18T13:54:21.198Z</time></trkpt><trkpt lat="43.2688451" lon="10.7560843"><ele>443.0</ele><time>2026-04-18T13:54:22.197Z</time></trkpt><trkpt lat="43.2689269" lon="10.7561787"><ele>443.0</ele><time>2026-04-18T13:54:23.192Z</time></trkpt><trkpt lat="43.2690079" lon="10.7562689"><ele>442.4</ele><time>2026-04-18T13:54:24.206Z</time></trkpt><trkpt lat="43.2690895" lon="10.7563479"><ele>441.79999999999995</ele><time>2026-04-18T13:54:25.198Z</time></trkpt><trkpt lat="43.2691704" lon="10.7564161"><ele>441.2</ele><time>2026-04-18T13:54:26.201Z</time></trkpt><trkpt lat="43.2692462" lon="10.7564813"><ele>440.6</ele><time>2026-04-18T13:54:27.193Z</time></trkpt><trkpt lat="43.2693206" lon="10.7565445"><ele>440.0</ele><time>2026-04-18T13:54:28.187Z</time></trkpt><trkpt lat="43.2693972" lon="10.7566049"><ele>439.99999999999994</ele><time>2026-04-18T13:54:29.203Z</time></trkpt><trkpt lat="43.2694813" lon="10.7566658"><ele>440.0</ele><time>2026-04-18T13:54:30.2Z</time></trkpt><trkpt lat="43.2695593" lon="10.7567249"><ele>440.0</ele><time>2026-04-18T13:54:31.204Z</time></trkpt><trkpt lat="43.2696373" lon="10.7567756"><ele>440.0</ele><time>2026-04-18T13:54:32.199Z</time></trkpt><trkpt lat="43.2697098" lon="10.7568104"><ele>439.99999999999994</ele><time>2026-04-18T13:54:33.191Z</time></trkpt><trkpt lat="43.2697801" lon="10.7568242"><ele>440.0</ele><time>2026-04-18T13:54:34.213Z</time></trkpt><trkpt lat="43.2698562" lon="10.7568294"><ele>440.16666666666663</ele><time>2026-04-18T13:54:35.186Z</time></trkpt><trkpt lat="43.2699385" lon="10.7568347"><ele>440.3333333333333</ele><time>2026-04-18T13:54:36.203Z</time></trkpt><trkpt lat="43.2700176" lon="10.7568428"><ele>440.5</ele><time>2026-04-18T13:54:37.195Z</time></trkpt><trkpt lat="43.2700894" lon="10.756846"><ele>440.66666666666663</ele><time>2026-04-18T13:54:38.209Z</time></trkpt><trkpt lat="43.2701659" lon="10.7568525"><ele>440.8333333333333</ele><time>2026-04-18T13:54:39.201Z</time></trkpt><trkpt lat="43.2702374" lon="10.7568568"><ele>441.0</ele><time>2026-04-18T13:54:40.206Z</time></trkpt><trkpt lat="43.270366" lon="10.7568859"><ele>441.0</ele><time>2026-04-18T13:54:42.203Z</time></trkpt><trkpt lat="43.2704368" lon="10.7569193"><ele>441.0</ele><time>2026-04-18T13:54:43.183Z</time></trkpt><trkpt lat="43.2705074" lon="10.7569529"><ele>441.0</ele><time>2026-04-18T13:54:44.206Z</time></trkpt><trkpt lat="43.2705688" lon="10.7569927"><ele>441.0</ele><time>2026-04-18T13:54:45.191Z</time></trkpt><trkpt lat="43.2706262" lon="10.7570359"><ele>441.0</ele><time>2026-04-18T13:54:46.181Z</time></trkpt><trkpt lat="43.2706821" lon="10.7570853"><ele>441.0</ele><time>2026-04-18T13:54:47.196Z</time></trkpt><trkpt lat="43.2707256" lon="10.7571521"><ele>441.0</ele><time>2026-04-18T13:54:48.197Z</time></trkpt><trkpt lat="43.2707705" lon="10.7572236"><ele>443.0</ele><time>2026-04-18T13:54:49.198Z</time></trkpt><trkpt lat="43.270789" lon="10.757307"><ele>445.0</ele><time>2026-04-18T13:54:50.206Z</time></trkpt><trkpt lat="43.2707876" lon="10.7573981"><ele>447.0</ele><time>2026-04-18T13:54:51.193Z</time></trkpt><trkpt lat="43.2707751" lon="10.7575693"><ele>449.0</ele><time>2026-04-18T13:54:53.189Z</time></trkpt><trkpt lat="43.2707719" lon="10.7576557"><ele>451.0</ele><time>2026-04-18T13:54:54.206Z</time></trkpt><trkpt lat="43.2707808" lon="10.7578177"><ele>453.0</ele><time>2026-04-18T13:54:56.203Z</time></trkpt><trkpt lat="43.2708058" lon="10.7578973"><ele>453.59999999999997</ele><time>2026-04-18T13:54:57.194Z</time></trkpt><trkpt lat="43.2708374" lon="10.7579783"><ele>454.19999999999993</ele><time>2026-04-18T13:54:58.194Z</time></trkpt><trkpt lat="43.2709012" lon="10.7581162"><ele>454.8</ele><time>2026-04-18T13:55:00.196Z</time></trkpt><trkpt lat="43.270954" lon="10.758266"><ele>455.4</ele><time>2026-04-18T13:55:02.207Z</time></trkpt><trkpt lat="43.2709723" lon="10.7584224"><ele>456.0</ele><time>2026-04-18T13:55:04.195Z</time></trkpt><trkpt lat="43.2709592" lon="10.7585114"><ele>456.57142857142856</ele><time>2026-04-18T13:55:05.194Z</time></trkpt><trkpt lat="43.2709392" lon="10.7586049"><ele>457.1428571428571</ele><time>2026-04-18T13:55:06.199Z</time></trkpt><trkpt lat="43.2709251" lon="10.7586934"><ele>457.71428571428567</ele><time>2026-04-18T13:55:07.184Z</time></trkpt><trkpt lat="43.2709082" lon="10.758791"><ele>458.2857142857142</ele><time>2026-04-18T13:55:08.212Z</time></trkpt><trkpt lat="43.2708926" lon="10.7588872"><ele>458.85714285714283</ele><time>2026-04-18T13:55:09.195Z</time></trkpt><trkpt lat="43.2708777" lon="10.7589758"><ele>459.42857142857133</ele><time>2026-04-18T13:55:10.195Z</time></trkpt><trkpt lat="43.2708557" lon="10.7590618"><ele>459.99999999999994</ele><time>2026-04-18T13:55:11.193Z</time></trkpt><trkpt lat="43.2708221" lon="10.7591479"><ele>460.0</ele><time>2026-04-18T13:55:12.212Z</time></trkpt><trkpt lat="43.2707884" lon="10.7592272"><ele>460.0</ele><time>2026-04-18T13:55:13.199Z</time></trkpt><trkpt lat="43.2707555" lon="10.7593083"><ele>460.0</ele><time>2026-04-18T13:55:14.194Z</time></trkpt><trkpt lat="43.2707602" lon="10.7594848"><ele>460.0</ele><time>2026-04-18T13:55:16.2Z</time></trkpt><trkpt lat="43.2708077" lon="10.7596244"><ele>460.0</ele><time>2026-04-18T13:55:18.196Z</time></trkpt><trkpt lat="43.2708412" lon="10.7597497"><ele>460.1666666666667</ele><time>2026-04-18T13:55:20.198Z</time></trkpt><trkpt lat="43.2708439" lon="10.7598701"><ele>460.33333333333337</ele><time>2026-04-18T13:55:22.196Z</time></trkpt><trkpt lat="43.2708418" lon="10.7599801"><ele>460.5</ele><time>2026-04-18T13:55:24.183Z</time></trkpt><trkpt lat="43.2708353" lon="10.7600941"><ele>460.66666666666663</ele><time>2026-04-18T13:55:26.201Z</time></trkpt><trkpt lat="43.2708224" lon="10.7602029"><ele>460.8333333333333</ele><time>2026-04-18T13:55:28.203Z</time></trkpt><trkpt lat="43.2708089" lon="10.7603251"><ele>461.0</ele><time>2026-04-18T13:55:30.196Z</time></trkpt><trkpt lat="43.2707995" lon="10.7604425"><ele>461.0</ele><time>2026-04-18T13:55:32.204Z</time></trkpt><trkpt lat="43.2707943" lon="10.7605767"><ele>461.0</ele><time>2026-04-18T13:55:34.197Z</time></trkpt><trkpt lat="43.2707917" lon="10.7607297"><ele>461.0</ele><time>2026-04-18T13:55:36.191Z</time></trkpt><trkpt lat="43.2707755" lon="10.7608838"><ele>461.0</ele><time>2026-04-18T13:55:38.186Z</time></trkpt><trkpt lat="43.2707878" lon="10.7610185"><ele>461.0</ele><time>2026-04-18T13:55:40.189Z</time></trkpt><trkpt lat="43.2708589" lon="10.7611426"><ele>461.0</ele><time>2026-04-18T13:55:42.186Z</time></trkpt><trkpt lat="43.2709648" lon="10.7612262"><ele>461.0</ele><time>2026-04-18T13:55:44.194Z</time></trkpt><trkpt lat="43.2710795" lon="10.7612539"><ele>461.0</ele><time>2026-04-18T13:55:46.19Z</time></trkpt><trkpt lat="43.2712051" lon="10.7612668"><ele>461.0</ele><time>2026-04-18T13:55:48.205Z</time></trkpt><trkpt lat="43.2712719" lon="10.7612674"><ele>461.0</ele><time>2026-04-18T13:55:49.188Z</time></trkpt><trkpt lat="43.2713877" lon="10.7612568"><ele>460.3333333333333</ele><time>2026-04-18T13:55:51.205Z</time></trkpt><trkpt lat="43.2714779" lon="10.7612334"><ele>459.66666666666663</ele><time>2026-04-18T13:55:53.192Z</time></trkpt><trkpt lat="43.2715665" lon="10.7612007"><ele>459.0</ele><time>2026-04-18T13:55:55.183Z</time></trkpt><trkpt lat="43.2716299" lon="10.761138"><ele>458.33333333333337</ele><time>2026-04-18T13:55:57.194Z</time></trkpt><trkpt lat="43.2716607" lon="10.7610501"><ele>457.6666666666667</ele><time>2026-04-18T13:55:59.185Z</time></trkpt><trkpt lat="43.2717057" lon="10.7609496"><ele>457.0</ele><time>2026-04-18T13:56:01.191Z</time></trkpt><trkpt lat="43.2717394" lon="10.7608667"><ele>460.00000000000006</ele><time>2026-04-18T13:56:03.194Z</time></trkpt><trkpt lat="43.2717687" lon="10.7607843"><ele>463.0</ele><time>2026-04-18T13:56:06.193Z</time></trkpt><trkpt lat="43.2717827" lon="10.7606694"><ele>466.0</ele><time>2026-04-18T13:56:09.193Z</time></trkpt><trkpt lat="43.2718145" lon="10.7605496"><ele>469.0</ele><time>2026-04-18T13:56:12.194Z</time></trkpt><trkpt lat="43.2718407" lon="10.7604631"><ele>472.00000000000006</ele><time>2026-04-18T13:56:15.179Z</time></trkpt><trkpt lat="43.2718287" lon="10.7605684"><ele>475.0</ele><time>2026-04-18T13:56:23.189Z</time></trkpt><trkpt lat="43.2717559" lon="10.7605671"><ele>475.00000000000006</ele><time>2026-04-18T13:56:32.196Z</time></trkpt><trkpt lat="43.2716748" lon="10.7605318"><ele>475.0</ele><time>2026-04-18T13:56:34.19Z</time></trkpt><trkpt lat="43.271603" lon="10.7604617"><ele>475.0</ele><time>2026-04-18T13:56:36.192Z</time></trkpt><trkpt lat="43.2715325" lon="10.7603961"><ele>475.0</ele><time>2026-04-18T13:56:38.207Z</time></trkpt><trkpt lat="43.2714491" lon="10.760355"><ele>475.00000000000006</ele><time>2026-04-18T13:56:40.203Z</time></trkpt><trkpt lat="43.2713898" lon="10.7603251"><ele>475.0</ele><time>2026-04-18T13:56:42.193Z</time></trkpt><trkpt lat="43.2713044" lon="10.7602819"><ele>473.8571428571429</ele><time>2026-04-18T13:56:45.183Z</time></trkpt><trkpt lat="43.2712429" lon="10.7602261"><ele>472.7142857142858</ele><time>2026-04-18T13:56:48.191Z</time></trkpt><trkpt lat="43.2712032" lon="10.7603104"><ele>471.57142857142856</ele><time>2026-04-18T13:57:09.213Z</time></trkpt><trkpt lat="43.2712426" lon="10.7603802"><ele>470.42857142857144</ele><time>2026-04-18T13:57:13.203Z</time></trkpt><trkpt lat="43.2713044" lon="10.760439"><ele>469.2857142857143</ele><time>2026-04-18T13:57:16.214Z</time></trkpt><trkpt lat="43.2713552" lon="10.7605093"><ele>468.1428571428571</ele><time>2026-04-18T13:57:19.219Z</time></trkpt><trkpt lat="43.2713941" lon="10.7605856"><ele>466.99999999999994</ele><time>2026-04-18T13:57:30.208Z</time></trkpt><trkpt lat="43.271419" lon="10.7606695"><ele>466.99999999999994</ele><time>2026-04-18T13:58:19.194Z</time></trkpt><trkpt lat="43.2714847" lon="10.7606316"><ele>467.0</ele><time>2026-04-18T13:58:25.192Z</time></trkpt><trkpt lat="43.271482" lon="10.7605422"><ele>466.99999999999994</ele><time>2026-04-18T13:58:35.215Z</time></trkpt><trkpt lat="43.2714337" lon="10.7604496"><ele>466.99999999999994</ele><time>2026-04-18T13:58:41.184Z</time></trkpt><trkpt lat="43.2713699" lon="10.7604455"><ele>467.0</ele><time>2026-04-18T13:58:52.196Z</time></trkpt><trkpt lat="43.271295" lon="10.7604131"><ele>466.99999999999994</ele><time>2026-04-18T13:59:00.186Z</time></trkpt><trkpt lat="43.2713022" lon="10.760499"><ele>466.99999999999994</ele><time>2026-04-18T14:01:39.193Z</time></trkpt><trkpt lat="43.2712829" lon="10.7605869"><ele>466.99999999999994</ele><time>2026-04-18T14:01:50.193Z</time></trkpt><trkpt lat="43.2712819" lon="10.7606819"><ele>467.0</ele><time>2026-04-18T14:02:19.202Z</time></trkpt><trkpt lat="43.2712678" lon="10.7607737"><ele>467.0</ele><time>2026-04-18T14:02:25.217Z</time></trkpt><trkpt lat="43.2713418" lon="10.7606"><ele>467.0</ele><time>2026-04-18T14:03:29.174Z</time></trkpt><trkpt lat="43.2713128" lon="10.7605218"><ele>466.99999999999994</ele><time>2026-04-18T14:03:47.192Z</time></trkpt><trkpt lat="43.2713517" lon="10.7604313"><ele>467.0</ele><time>2026-04-18T14:03:52.199Z</time></trkpt><trkpt lat="43.271407" lon="10.7603715"><ele>468.3333333333333</ele><time>2026-04-18T14:03:57.106Z</time></trkpt><trkpt lat="43.2714889" lon="10.7603701"><ele>469.66666666666663</ele><time>2026-04-18T14:04:00.193Z</time></trkpt><trkpt lat="43.2715602" lon="10.7604193"><ele>471.0</ele><time>2026-04-18T14:04:02.532Z</time></trkpt><trkpt lat="43.2716348" lon="10.7604865"><ele>472.33333333333337</ele><time>2026-04-18T14:04:05.199Z</time></trkpt><trkpt lat="43.2717029" lon="10.7605064"><ele>473.6666666666667</ele><time>2026-04-18T14:04:07.203Z</time></trkpt><trkpt lat="43.2717704" lon="10.7604908"><ele>475.0</ele><time>2026-04-18T14:04:09.185Z</time></trkpt><trkpt lat="43.2718278" lon="10.760433"><ele>475.0</ele><time>2026-04-18T14:04:11.215Z</time></trkpt><trkpt lat="43.2718794" lon="10.7603345"><ele>475.0</ele><time>2026-04-18T14:04:13.184Z</time></trkpt><trkpt lat="43.2719723" lon="10.7601813"><ele>475.0</ele><time>2026-04-18T14:04:16.183Z</time></trkpt><trkpt lat="43.2720646" lon="10.7600992"><ele>475.0</ele><time>2026-04-18T14:04:18.181Z</time></trkpt><trkpt lat="43.2721683" lon="10.7600463"><ele>477.0</ele><time>2026-04-18T14:04:20.183Z</time></trkpt><trkpt lat="43.2722872" lon="10.7600548"><ele>479.0</ele><time>2026-04-18T14:04:22.179Z</time></trkpt><trkpt lat="43.2723959" lon="10.7600786"><ele>481.0</ele><time>2026-04-18T14:04:24.187Z</time></trkpt><trkpt lat="43.2725045" lon="10.7601205"><ele>483.0</ele><time>2026-04-18T14:04:26.174Z</time></trkpt><trkpt lat="43.2726181" lon="10.7601641"><ele>483.0</ele><time>2026-04-18T14:04:28.176Z</time></trkpt><trkpt lat="43.2726822" lon="10.7601728"><ele>483.0</ele><time>2026-04-18T14:04:29.181Z</time></trkpt><trkpt lat="43.2727479" lon="10.7601667"><ele>483.0</ele><time>2026-04-18T14:04:30.179Z</time></trkpt><trkpt lat="43.2728132" lon="10.7601527"><ele>483.0</ele><time>2026-04-18T14:04:31.214Z</time></trkpt><trkpt lat="43.2728745" lon="10.7601263"><ele>483.0</ele><time>2026-04-18T14:04:32.211Z</time></trkpt><trkpt lat="43.2729405" lon="10.7600865"><ele>483.0</ele><time>2026-04-18T14:04:33.216Z</time></trkpt><trkpt lat="43.272992" lon="10.7600287"><ele>483.0</ele><time>2026-04-18T14:04:34.197Z</time></trkpt><trkpt lat="43.2730394" lon="10.7599615"><ele>483.0</ele><time>2026-04-18T14:04:35.195Z</time></trkpt><trkpt lat="43.2730846" lon="10.759901"><ele>483.0</ele><time>2026-04-18T14:04:36.184Z</time></trkpt><trkpt lat="43.273136" lon="10.7598307"><ele>483.0</ele><time>2026-04-18T14:04:37.182Z</time></trkpt><trkpt lat="43.2731886" lon="10.7597748"><ele>483.0</ele><time>2026-04-18T14:04:38.19Z</time></trkpt><trkpt lat="43.2732365" lon="10.7597121"><ele>483.0</ele><time>2026-04-18T14:04:39.202Z</time></trkpt><trkpt lat="43.2732857" lon="10.7596577"><ele>483.0</ele><time>2026-04-18T14:04:40.227Z</time></trkpt><trkpt lat="43.2733739" lon="10.7595431"><ele>483.2</ele><time>2026-04-18T14:04:42.24Z</time></trkpt><trkpt lat="43.2734232" lon="10.7594684"><ele>483.4</ele><time>2026-04-18T14:04:43.187Z</time></trkpt><trkpt lat="43.2734747" lon="10.7593639"><ele>483.59999999999997</ele><time>2026-04-18T14:04:45.85Z</time></trkpt><trkpt lat="43.2735891" lon="10.7592704"><ele>483.79999999999995</ele><time>2026-04-18T14:04:48.195Z</time></trkpt><trkpt lat="43.2736781" lon="10.7592135"><ele>484.0</ele><time>2026-04-18T14:04:50.186Z</time></trkpt><trkpt lat="43.2737475" lon="10.7591848"><ele>484.00000000000006</ele><time>2026-04-18T14:04:51.202Z</time></trkpt><trkpt lat="43.2738156" lon="10.7591622"><ele>484.0</ele><time>2026-04-18T14:04:52.196Z</time></trkpt><trkpt lat="43.273897" lon="10.7591418"><ele>484.0</ele><time>2026-04-18T14:04:53.197Z</time></trkpt><trkpt lat="43.2739784" lon="10.7591199"><ele>484.0</ele><time>2026-04-18T14:04:54.204Z</time></trkpt><trkpt lat="43.2740586" lon="10.7591009"><ele>484.00000000000006</ele><time>2026-04-18T14:04:55.209Z</time></trkpt><trkpt lat="43.2741346" lon="10.7590747"><ele>484.0</ele><time>2026-04-18T14:04:56.2Z</time></trkpt><trkpt lat="43.274217" lon="10.7590402"><ele>485.83333333333337</ele><time>2026-04-18T14:04:57.207Z</time></trkpt><trkpt lat="43.2742805" lon="10.7590061"><ele>487.6666666666667</ele><time>2026-04-18T14:04:58.203Z</time></trkpt><trkpt lat="43.274346" lon="10.7589687"><ele>489.5</ele><time>2026-04-18T14:04:59.201Z</time></trkpt><trkpt lat="43.274406" lon="10.758939"><ele>491.33333333333337</ele><time>2026-04-18T14:05:00.194Z</time></trkpt><trkpt lat="43.2745188" lon="10.7589142"><ele>493.1666666666667</ele><time>2026-04-18T14:05:02.2Z</time></trkpt><trkpt lat="43.2746483" lon="10.7589418"><ele>495.0</ele><time>2026-04-18T14:05:04.195Z</time></trkpt><trkpt lat="43.2747139" lon="10.7589641"><ele>494.6666666666667</ele><time>2026-04-18T14:05:05.188Z</time></trkpt><trkpt lat="43.2747808" lon="10.7589839"><ele>494.33333333333337</ele><time>2026-04-18T14:05:06.201Z</time></trkpt><trkpt lat="43.2748436" lon="10.7589951"><ele>494.0</ele><time>2026-04-18T14:05:07.196Z</time></trkpt><trkpt lat="43.2749133" lon="10.7589631"><ele>493.6666666666667</ele><time>2026-04-18T14:05:09.206Z</time></trkpt><trkpt lat="43.2749901" lon="10.7588558"><ele>493.33333333333337</ele><time>2026-04-18T14:05:11.219Z</time></trkpt><trkpt lat="43.2750256" lon="10.7587737"><ele>493.0</ele><time>2026-04-18T14:05:12.218Z</time></trkpt><trkpt lat="43.2751141" lon="10.7586459"><ele>493.0</ele><time>2026-04-18T14:05:14.203Z</time></trkpt><trkpt lat="43.2752196" lon="10.758589"><ele>493.0</ele><time>2026-04-18T14:05:16.203Z</time></trkpt><trkpt lat="43.2752851" lon="10.758602"><ele>493.0</ele><time>2026-04-18T14:05:17.219Z</time></trkpt><trkpt lat="43.2753453" lon="10.7586383"><ele>493.0</ele><time>2026-04-18T14:05:18.206Z</time></trkpt><trkpt lat="43.2754015" lon="10.7586855"><ele>493.0</ele><time>2026-04-18T14:05:19.208Z</time></trkpt><trkpt lat="43.2754575" lon="10.7587334"><ele>493.0</ele><time>2026-04-18T14:05:20.189Z</time></trkpt><trkpt lat="43.2755159" lon="10.7587738"><ele>493.0</ele><time>2026-04-18T14:05:21.192Z</time></trkpt><trkpt lat="43.2755789" lon="10.7588123"><ele>491.75</ele><time>2026-04-18T14:05:22.197Z</time></trkpt><trkpt lat="43.2757052" lon="10.7588564"><ele>490.5</ele><time>2026-04-18T14:05:24.206Z</time></trkpt><trkpt lat="43.275824" lon="10.75887"><ele>489.25</ele><time>2026-04-18T14:05:26.188Z</time></trkpt><trkpt lat="43.2759247" lon="10.7588132"><ele>488.0</ele><time>2026-04-18T14:05:28.191Z</time></trkpt><trkpt lat="43.2759842" lon="10.7586907"><ele>488.16666666666663</ele><time>2026-04-18T14:05:30.191Z</time></trkpt><trkpt lat="43.2760072" lon="10.7585164"><ele>488.3333333333333</ele><time>2026-04-18T14:05:32.175Z</time></trkpt><trkpt lat="43.2760125" lon="10.758417"><ele>488.5</ele><time>2026-04-18T14:05:33.188Z</time></trkpt><trkpt lat="43.2760219" lon="10.7583136"><ele>488.66666666666663</ele><time>2026-04-18T14:05:34.189Z</time></trkpt><trkpt lat="43.2760345" lon="10.7582132"><ele>488.8333333333333</ele><time>2026-04-18T14:05:35.19Z</time></trkpt><trkpt lat="43.276046" lon="10.7581135"><ele>489.0</ele><time>2026-04-18T14:05:36.19Z</time></trkpt><trkpt lat="43.2760589" lon="10.7580131"><ele>489.0</ele><time>2026-04-18T14:05:37.186Z</time></trkpt><trkpt lat="43.2760687" lon="10.7579088"><ele>489.0</ele><time>2026-04-18T14:05:38.202Z</time></trkpt><trkpt lat="43.276087" lon="10.7577984"><ele>489.0</ele><time>2026-04-18T14:05:39.196Z</time></trkpt><trkpt lat="43.2761138" lon="10.7576914"><ele>489.0</ele><time>2026-04-18T14:05:40.197Z</time></trkpt><trkpt lat="43.2761623" lon="10.7575905"><ele>489.0</ele><time>2026-04-18T14:05:41.191Z</time></trkpt><trkpt lat="43.276201" lon="10.7574981"><ele>489.0</ele><time>2026-04-18T14:05:42.186Z</time></trkpt><trkpt lat="43.2762578" lon="10.7574132"><ele>489.0</ele><time>2026-04-18T14:05:43.188Z</time></trkpt><trkpt lat="43.2763153" lon="10.757326"><ele>489.0</ele><time>2026-04-18T14:05:44.177Z</time></trkpt><trkpt lat="43.2763645" lon="10.7572375"><ele>489.0</ele><time>2026-04-18T14:05:45.188Z</time></trkpt><trkpt lat="43.2764141" lon="10.7571524"><ele>489.0</ele><time>2026-04-18T14:05:46.195Z</time></trkpt><trkpt lat="43.2764641" lon="10.7570806"><ele>489.0</ele><time>2026-04-18T14:05:47.186Z</time></trkpt><trkpt lat="43.2765386" lon="10.7570336"><ele>489.0</ele><time>2026-04-18T14:05:48.183Z</time></trkpt><trkpt lat="43.2766251" lon="10.7570012"><ele>485.75</ele><time>2026-04-18T14:05:49.185Z</time></trkpt><trkpt lat="43.276728" lon="10.7569853"><ele>482.5</ele><time>2026-04-18T14:05:50.185Z</time></trkpt><trkpt lat="43.2768469" lon="10.7569727"><ele>479.25</ele><time>2026-04-18T14:05:51.184Z</time></trkpt><trkpt lat="43.2769574" lon="10.7569349"><ele>476.0</ele><time>2026-04-18T14:05:52.181Z</time></trkpt><trkpt lat="43.2770677" lon="10.7568962"><ele>475.8</ele><time>2026-04-18T14:05:53.181Z</time></trkpt><trkpt lat="43.2771683" lon="10.7568461"><ele>475.6</ele><time>2026-04-18T14:05:54.189Z</time></trkpt><trkpt lat="43.2772649" lon="10.7567973"><ele>475.4</ele><time>2026-04-18T14:05:55.189Z</time></trkpt><trkpt lat="43.2773516" lon="10.7567484"><ele>475.2</ele><time>2026-04-18T14:05:56.18Z</time></trkpt><trkpt lat="43.2774328" lon="10.7566984"><ele>475.0</ele><time>2026-04-18T14:05:57.189Z</time></trkpt><trkpt lat="43.2775078" lon="10.7566648"><ele>475.00000000000006</ele><time>2026-04-18T14:05:58.177Z</time></trkpt><trkpt lat="43.2775721" lon="10.7566342"><ele>475.0</ele><time>2026-04-18T14:05:59.184Z</time></trkpt><trkpt lat="43.2776357" lon="10.7565859"><ele>475.0</ele><time>2026-04-18T14:06:00.184Z</time></trkpt><trkpt lat="43.277692" lon="10.7565149"><ele>475.0</ele><time>2026-04-18T14:06:01.192Z</time></trkpt><trkpt lat="43.2777476" lon="10.7564305"><ele>475.00000000000006</ele><time>2026-04-18T14:06:02.185Z</time></trkpt><trkpt lat="43.2777958" lon="10.7563353"><ele>475.0</ele><time>2026-04-18T14:06:03.189Z</time></trkpt><trkpt lat="43.2778502" lon="10.7562274"><ele>475.00000000000006</ele><time>2026-04-18T14:06:04.19Z</time></trkpt><trkpt lat="43.2779047" lon="10.7561155"><ele>475.0</ele><time>2026-04-18T14:06:05.192Z</time></trkpt><trkpt lat="43.2779483" lon="10.7560031"><ele>475.0</ele><time>2026-04-18T14:06:06.184Z</time></trkpt><trkpt lat="43.2779911" lon="10.7559037"><ele>475.0</ele><time>2026-04-18T14:06:07.196Z</time></trkpt><trkpt lat="43.2780379" lon="10.755811"><ele>475.00000000000006</ele><time>2026-04-18T14:06:08.193Z</time></trkpt><trkpt lat="43.278088" lon="10.7557425"><ele>475.0</ele><time>2026-04-18T14:06:09.198Z</time></trkpt><trkpt lat="43.2781581" lon="10.7556904"><ele>473.6666666666667</ele><time>2026-04-18T14:06:10.186Z</time></trkpt><trkpt lat="43.278228" lon="10.7556684"><ele>472.33333333333337</ele><time>2026-04-18T14:06:11.181Z</time></trkpt><trkpt lat="43.2782973" lon="10.7556947"><ele>471.0</ele><time>2026-04-18T14:06:12.181Z</time></trkpt><trkpt lat="43.278358" lon="10.7557536"><ele>469.66666666666663</ele><time>2026-04-18T14:06:13.191Z</time></trkpt><trkpt lat="43.2784216" lon="10.7558251"><ele>468.3333333333333</ele><time>2026-04-18T14:06:14.181Z</time></trkpt><trkpt lat="43.2784726" lon="10.7559251"><ele>467.0</ele><time>2026-04-18T14:06:15.186Z</time></trkpt><trkpt lat="43.2785189" lon="10.7560252"><ele>466.66666666666663</ele><time>2026-04-18T14:06:16.193Z</time></trkpt><trkpt lat="43.2785634" lon="10.7561201"><ele>466.3333333333333</ele><time>2026-04-18T14:06:17.198Z</time></trkpt><trkpt lat="43.2785997" lon="10.7562096"><ele>466.0</ele><time>2026-04-18T14:06:18.187Z</time></trkpt><trkpt lat="43.2786347" lon="10.7562943"><ele>465.66666666666663</ele><time>2026-04-18T14:06:19.188Z</time></trkpt><trkpt lat="43.2786662" lon="10.7563757"><ele>465.3333333333333</ele><time>2026-04-18T14:06:20.193Z</time></trkpt><trkpt lat="43.2787376" lon="10.7564917"><ele>465.0</ele><time>2026-04-18T14:06:22.198Z</time></trkpt><trkpt lat="43.2788102" lon="10.7565482"><ele>465.0</ele><time>2026-04-18T14:06:24.183Z</time></trkpt><trkpt lat="43.278884" lon="10.7565221"><ele>465.0</ele><time>2026-04-18T14:06:26.189Z</time></trkpt><trkpt lat="43.2789493" lon="10.7564163"><ele>465.0</ele><time>2026-04-18T14:06:28.177Z</time></trkpt><trkpt lat="43.2790062" lon="10.7562569"><ele>465.0</ele><time>2026-04-18T14:06:30.194Z</time></trkpt><trkpt lat="43.2790467" lon="10.7561705"><ele>465.0</ele><time>2026-04-18T14:06:31.197Z</time></trkpt><trkpt lat="43.2790936" lon="10.7560898"><ele>464.42857142857144</ele><time>2026-04-18T14:06:32.194Z</time></trkpt><trkpt lat="43.2791197" lon="10.7560013"><ele>463.8571428571429</ele><time>2026-04-18T14:06:33.194Z</time></trkpt><trkpt lat="43.2791371" lon="10.7559132"><ele>463.28571428571433</ele><time>2026-04-18T14:06:34.192Z</time></trkpt><trkpt lat="43.2791483" lon="10.7558265"><ele>462.7142857142857</ele><time>2026-04-18T14:06:35.187Z</time></trkpt><trkpt lat="43.2791463" lon="10.7557277"><ele>462.1428571428572</ele><time>2026-04-18T14:06:36.194Z</time></trkpt><trkpt lat="43.2791382" lon="10.7556284"><ele>461.5714285714286</ele><time>2026-04-18T14:06:37.196Z</time></trkpt><trkpt lat="43.2791242" lon="10.7555188"><ele>461.0</ele><time>2026-04-18T14:06:38.197Z</time></trkpt><trkpt lat="43.2791004" lon="10.7554073"><ele>461.0</ele><time>2026-04-18T14:06:39.186Z</time></trkpt><trkpt lat="43.27909" lon="10.7553091"><ele>461.00000000000006</ele><time>2026-04-18T14:06:40.191Z</time></trkpt><trkpt lat="43.2790868" lon="10.7552175"><ele>461.0</ele><time>2026-04-18T14:06:41.191Z</time></trkpt><trkpt lat="43.27911" lon="10.7551217"><ele>461.0</ele><time>2026-04-18T14:06:42.189Z</time></trkpt><trkpt lat="43.2791483" lon="10.7550241"><ele>461.00000000000006</ele><time>2026-04-18T14:06:43.199Z</time></trkpt><trkpt lat="43.2791809" lon="10.7549272"><ele>461.0</ele><time>2026-04-18T14:06:44.193Z</time></trkpt><trkpt lat="43.2792392" lon="10.7548572"><ele>461.0</ele><time>2026-04-18T14:06:45.182Z</time></trkpt><trkpt lat="43.2792936" lon="10.7547944"><ele>460.49999999999994</ele><time>2026-04-18T14:06:46.188Z</time></trkpt><trkpt lat="43.2793528" lon="10.7547304"><ele>460.0</ele><time>2026-04-18T14:06:47.197Z</time></trkpt><trkpt lat="43.2794108" lon="10.7546529"><ele>459.5</ele><time>2026-04-18T14:06:48.194Z</time></trkpt><trkpt lat="43.2794651" lon="10.7545696"><ele>459.0</ele><time>2026-04-18T14:06:49.196Z</time></trkpt><trkpt lat="43.2795184" lon="10.7544861"><ele>458.49999999999994</ele><time>2026-04-18T14:06:50.178Z</time></trkpt><trkpt lat="43.2795551" lon="10.7543889"><ele>458.0</ele><time>2026-04-18T14:06:51.185Z</time></trkpt><trkpt lat="43.2795871" lon="10.7542951"><ele>457.49999999999994</ele><time>2026-04-18T14:06:52.187Z</time></trkpt><trkpt lat="43.279606" lon="10.7541928"><ele>457.0</ele><time>2026-04-18T14:06:53.199Z</time></trkpt><trkpt lat="43.2796227" lon="10.7540896"><ele>456.5</ele><time>2026-04-18T14:06:54.192Z</time></trkpt><trkpt lat="43.279643" lon="10.7539938"><ele>456.0</ele><time>2026-04-18T14:06:55.195Z</time></trkpt><trkpt lat="43.2796638" lon="10.7538916"><ele>455.49999999999994</ele><time>2026-04-18T14:06:56.192Z</time></trkpt><trkpt lat="43.2796875" lon="10.7537837"><ele>455.0</ele><time>2026-04-18T14:06:57.197Z</time></trkpt><trkpt lat="43.2797194" lon="10.7536638"><ele>454.99999999999994</ele><time>2026-04-18T14:06:58.188Z</time></trkpt><trkpt lat="43.2797492" lon="10.7535471"><ele>455.0</ele><time>2026-04-18T14:06:59.19Z</time></trkpt><trkpt lat="43.2797795" lon="10.7534397"><ele>455.0</ele><time>2026-04-18T14:07:00.198Z</time></trkpt><trkpt lat="43.2798166" lon="10.7533339"><ele>455.0</ele><time>2026-04-18T14:07:01.197Z</time></trkpt><trkpt lat="43.279849" lon="10.7532251"><ele>454.99999999999994</ele><time>2026-04-18T14:07:02.206Z</time></trkpt><trkpt lat="43.2798685" lon="10.7531163"><ele>455.0</ele><time>2026-04-18T14:07:03.199Z</time></trkpt><trkpt lat="43.2798852" lon="10.753008"><ele>454.49999999999994</ele><time>2026-04-18T14:07:04.198Z</time></trkpt><trkpt lat="43.2798921" lon="10.7529018"><ele>454.0</ele><time>2026-04-18T14:07:05.18Z</time></trkpt><trkpt lat="43.2798992" lon="10.7528106"><ele>453.5</ele><time>2026-04-18T14:07:06.179Z</time></trkpt><trkpt lat="43.2799127" lon="10.7527255"><ele>453.0</ele><time>2026-04-18T14:07:07.191Z</time></trkpt><trkpt lat="43.2799318" lon="10.7526413"><ele>452.49999999999994</ele><time>2026-04-18T14:07:08.187Z</time></trkpt><trkpt lat="43.2799942" lon="10.7525144"><ele>452.0</ele><time>2026-04-18T14:07:10.181Z</time></trkpt><trkpt lat="43.2800667" lon="10.7524768"><ele>452.0</ele><time>2026-04-18T14:07:11.182Z</time></trkpt><trkpt lat="43.2801327" lon="10.7524426"><ele>452.0</ele><time>2026-04-18T14:07:12.183Z</time></trkpt><trkpt lat="43.2801986" lon="10.7524263"><ele>452.0</ele><time>2026-04-18T14:07:13.185Z</time></trkpt><trkpt lat="43.280273" lon="10.7524065"><ele>452.0</ele><time>2026-04-18T14:07:14.18Z</time></trkpt><trkpt lat="43.280344" lon="10.7523774"><ele>452.0</ele><time>2026-04-18T14:07:15.189Z</time></trkpt><trkpt lat="43.2804154" lon="10.7523512"><ele>452.0</ele><time>2026-04-18T14:07:16.179Z</time></trkpt><trkpt lat="43.2804851" lon="10.7523171"><ele>452.0</ele><time>2026-04-18T14:07:17.182Z</time></trkpt><trkpt lat="43.2805485" lon="10.7522885"><ele>451.8333333333333</ele><time>2026-04-18T14:07:18.189Z</time></trkpt><trkpt lat="43.2806118" lon="10.7522685"><ele>451.66666666666663</ele><time>2026-04-18T14:07:19.192Z</time></trkpt><trkpt lat="43.2807246" lon="10.7522424"><ele>451.5</ele><time>2026-04-18T14:07:21.189Z</time></trkpt><trkpt lat="43.280835" lon="10.7522408"><ele>451.33333333333337</ele><time>2026-04-18T14:07:23.198Z</time></trkpt><trkpt lat="43.280899" lon="10.7522412"><ele>451.1666666666667</ele><time>2026-04-18T14:07:24.203Z</time></trkpt><trkpt lat="43.2809619" lon="10.7522254"><ele>451.0</ele><time>2026-04-18T14:07:25.188Z</time></trkpt><trkpt lat="43.2810401" lon="10.752215"><ele>451.00000000000006</ele><time>2026-04-18T14:07:26.193Z</time></trkpt><trkpt lat="43.2811056" lon="10.7522128"><ele>451.0</ele><time>2026-04-18T14:07:27.182Z</time></trkpt><trkpt lat="43.2811708" lon="10.7522056"><ele>451.0</ele><time>2026-04-18T14:07:28.201Z</time></trkpt><trkpt lat="43.2812867" lon="10.7521522"><ele>451.0</ele><time>2026-04-18T14:07:30.191Z</time></trkpt><trkpt lat="43.2813414" lon="10.7521025"><ele>451.00000000000006</ele><time>2026-04-18T14:07:31.189Z</time></trkpt><trkpt lat="43.2814016" lon="10.7520304"><ele>451.0</ele><time>2026-04-18T14:07:32.179Z</time></trkpt><trkpt lat="43.2814627" lon="10.7519337"><ele>449.20000000000005</ele><time>2026-04-18T14:07:33.195Z</time></trkpt><trkpt lat="43.2815055" lon="10.7518484"><ele>447.40000000000003</ele><time>2026-04-18T14:07:34.2Z</time></trkpt><trkpt lat="43.281549" lon="10.7517705"><ele>445.6</ele><time>2026-04-18T14:07:35.222Z</time></trkpt><trkpt lat="43.2816049" lon="10.7516344"><ele>443.8</ele><time>2026-04-18T14:07:37.187Z</time></trkpt><trkpt lat="43.2816453" lon="10.7515601"><ele>442.0</ele><time>2026-04-18T14:07:38.186Z</time></trkpt><trkpt lat="43.2816934" lon="10.7514058"><ele>442.00000000000006</ele><time>2026-04-18T14:07:40.182Z</time></trkpt><trkpt lat="43.2817183" lon="10.7512809"><ele>442.0</ele><time>2026-04-18T14:07:42.203Z</time></trkpt><trkpt lat="43.2817352" lon="10.7511528"><ele>442.0</ele><time>2026-04-18T14:07:44.202Z</time></trkpt><trkpt lat="43.2817482" lon="10.7510501"><ele>442.0</ele><time>2026-04-18T14:07:46.21Z</time></trkpt><trkpt lat="43.2817734" lon="10.7509365"><ele>442.00000000000006</ele><time>2026-04-18T14:07:49.202Z</time></trkpt><trkpt lat="43.281772" lon="10.7508362"><ele>442.0</ele><time>2026-04-18T14:07:51.197Z</time></trkpt><trkpt lat="43.2817397" lon="10.7507172"><ele>441.1666666666667</ele><time>2026-04-18T14:07:53.199Z</time></trkpt><trkpt lat="43.2817066" lon="10.7506307"><ele>440.33333333333337</ele><time>2026-04-18T14:07:55.195Z</time></trkpt><trkpt lat="43.2816603" lon="10.750542"><ele>439.5</ele><time>2026-04-18T14:07:57.198Z</time></trkpt><trkpt lat="43.2816094" lon="10.7504423"><ele>438.66666666666663</ele><time>2026-04-18T14:08:00.186Z</time></trkpt><trkpt lat="43.2815791" lon="10.7503316"><ele>437.8333333333333</ele><time>2026-04-18T14:08:03.204Z</time></trkpt><trkpt lat="43.2815748" lon="10.7502168"><ele>437.0</ele><time>2026-04-18T14:08:05.193Z</time></trkpt><trkpt lat="43.2815879" lon="10.7500538"><ele>435.75</ele><time>2026-04-18T14:08:07.202Z</time></trkpt><trkpt lat="43.281625" lon="10.7498962"><ele>434.5</ele><time>2026-04-18T14:08:09.201Z</time></trkpt><trkpt lat="43.2816756" lon="10.7497532"><ele>433.25</ele><time>2026-04-18T14:08:11.205Z</time></trkpt><trkpt lat="43.2817435" lon="10.749614"><ele>432.0</ele><time>2026-04-18T14:08:13.201Z</time></trkpt><trkpt lat="43.2817926" lon="10.7494902"><ele>432.0</ele><time>2026-04-18T14:08:15.205Z</time></trkpt><trkpt lat="43.2818249" lon="10.7493783"><ele>432.0</ele><time>2026-04-18T14:08:17.193Z</time></trkpt><trkpt lat="43.2818687" lon="10.7492762"><ele>432.0</ele><time>2026-04-18T14:08:19.195Z</time></trkpt><trkpt lat="43.2819111" lon="10.7491992"><ele>432.0</ele><time>2026-04-18T14:08:21.209Z</time></trkpt><trkpt lat="43.2819686" lon="10.7491443"><ele>432.0</ele><time>2026-04-18T14:08:23.198Z</time></trkpt><trkpt lat="43.2820323" lon="10.7491163"><ele>432.0</ele><time>2026-04-18T14:08:25.199Z</time></trkpt><trkpt lat="43.2821134" lon="10.7490974"><ele>431.8333333333333</ele><time>2026-04-18T14:08:27.195Z</time></trkpt><trkpt lat="43.2821917" lon="10.7491065"><ele>431.66666666666663</ele><time>2026-04-18T14:08:29.212Z</time></trkpt><trkpt lat="43.2822801" lon="10.7491043"><ele>431.5</ele><time>2026-04-18T14:08:32.2Z</time></trkpt><trkpt lat="43.2823409" lon="10.7490105"><ele>431.3333333333333</ele><time>2026-04-18T14:08:35.198Z</time></trkpt><trkpt lat="43.2823459" lon="10.7488842"><ele>431.16666666666663</ele><time>2026-04-18T14:08:38.191Z</time></trkpt><trkpt lat="43.2823292" lon="10.7487793"><ele>431.0</ele><time>2026-04-18T14:08:41.195Z</time></trkpt><trkpt lat="43.2823161" lon="10.7486813"><ele>430.99999999999994</ele><time>2026-04-18T14:08:59.199Z</time></trkpt><trkpt lat="43.2823017" lon="10.7485961"><ele>431.0</ele><time>2026-04-18T14:09:01.204Z</time></trkpt><trkpt lat="43.2823119" lon="10.7485062"><ele>431.0</ele><time>2026-04-18T14:09:03.199Z</time></trkpt><trkpt lat="43.2823433" lon="10.7484086"><ele>431.0</ele><time>2026-04-18T14:09:05.193Z</time></trkpt><trkpt lat="43.2824105" lon="10.7482501"><ele>430.99999999999994</ele><time>2026-04-18T14:09:07.204Z</time></trkpt><trkpt lat="43.2824653" lon="10.7481329"><ele>431.0</ele><time>2026-04-18T14:09:09.216Z</time></trkpt><trkpt lat="43.282509" lon="10.7480417"><ele>428.66666666666663</ele><time>2026-04-18T14:09:11.184Z</time></trkpt><trkpt lat="43.2825748" lon="10.7479766"><ele>426.3333333333333</ele><time>2026-04-18T14:09:13.199Z</time></trkpt><trkpt lat="43.2826489" lon="10.7479141"><ele>424.0</ele><time>2026-04-18T14:09:15.198Z</time></trkpt><trkpt lat="43.2827144" lon="10.747841"><ele>421.66666666666663</ele><time>2026-04-18T14:09:17.195Z</time></trkpt><trkpt lat="43.282781" lon="10.7477573"><ele>419.3333333333333</ele><time>2026-04-18T14:09:19.213Z</time></trkpt><trkpt lat="43.2828429" lon="10.7476818"><ele>417.0</ele><time>2026-04-18T14:09:21.205Z</time></trkpt><trkpt lat="43.2829075" lon="10.7476698"><ele>416.40000000000003</ele><time>2026-04-18T14:09:23.202Z</time></trkpt><trkpt lat="43.2829906" lon="10.7476541"><ele>415.8</ele><time>2026-04-18T14:09:25.204Z</time></trkpt><trkpt lat="43.2830664" lon="10.7475463"><ele>415.2</ele><time>2026-04-18T14:09:27.212Z</time></trkpt><trkpt lat="43.2830898" lon="10.747412"><ele>414.6</ele><time>2026-04-18T14:09:29.196Z</time></trkpt><trkpt lat="43.2831112" lon="10.7472695"><ele>414.0</ele><time>2026-04-18T14:09:31.201Z</time></trkpt><trkpt lat="43.2831698" lon="10.7471779"><ele>414.0</ele><time>2026-04-18T14:09:33.196Z</time></trkpt><trkpt lat="43.2832662" lon="10.7471169"><ele>414.0</ele><time>2026-04-18T14:09:35.212Z</time></trkpt><trkpt lat="43.2833802" lon="10.7471032"><ele>414.0</ele><time>2026-04-18T14:09:37.206Z</time></trkpt><trkpt lat="43.283506" lon="10.747096"><ele>414.0</ele><time>2026-04-18T14:09:39.202Z</time></trkpt><trkpt lat="43.2835698" lon="10.7470948"><ele>414.0</ele><time>2026-04-18T14:09:40.201Z</time></trkpt><trkpt lat="43.2836646" lon="10.7470594"><ele>414.0</ele><time>2026-04-18T14:09:42.199Z</time></trkpt><trkpt lat="43.2837224" lon="10.746975"><ele>414.0</ele><time>2026-04-18T14:09:45.209Z</time></trkpt><trkpt lat="43.2837418" lon="10.7468595"><ele>414.0</ele><time>2026-04-18T14:09:50.209Z</time></trkpt><trkpt lat="43.283723" lon="10.7467731"><ele>414.0</ele><time>2026-04-18T14:09:52.199Z</time></trkpt><trkpt lat="43.2836441" lon="10.7466904"><ele>414.0</ele><time>2026-04-18T14:09:54.179Z</time></trkpt><trkpt lat="43.2835436" lon="10.7466389"><ele>414.0</ele><time>2026-04-18T14:09:56.193Z</time></trkpt><trkpt lat="43.28344" lon="10.7465634"><ele>411.6</ele><time>2026-04-18T14:09:58.201Z</time></trkpt><trkpt lat="43.2833663" lon="10.7464498"><ele>409.2</ele><time>2026-04-18T14:10:00.195Z</time></trkpt><trkpt lat="43.283367" lon="10.7462946"><ele>406.8</ele><time>2026-04-18T14:10:02.199Z</time></trkpt><trkpt lat="43.2833729" lon="10.7462047"><ele>404.40000000000003</ele><time>2026-04-18T14:10:03.196Z</time></trkpt><trkpt lat="43.2834026" lon="10.7460404"><ele>402.0</ele><time>2026-04-18T14:10:05.195Z</time></trkpt><trkpt lat="43.2834558" lon="10.7458886"><ele>400.20000000000005</ele><time>2026-04-18T14:10:07.201Z</time></trkpt><trkpt lat="43.2835266" lon="10.7457481"><ele>398.4</ele><time>2026-04-18T14:10:09.199Z</time></trkpt><trkpt lat="43.283592" lon="10.7456248"><ele>396.6</ele><time>2026-04-18T14:10:11.205Z</time></trkpt><trkpt lat="43.2836502" lon="10.7454859"><ele>394.79999999999995</ele><time>2026-04-18T14:10:13.197Z</time></trkpt><trkpt lat="43.2836756" lon="10.7454057"><ele>393.0</ele><time>2026-04-18T14:10:14.198Z</time></trkpt><trkpt lat="43.2836999" lon="10.745256"><ele>392.2</ele><time>2026-04-18T14:10:16.202Z</time></trkpt><trkpt lat="43.2836768" lon="10.7451116"><ele>391.4</ele><time>2026-04-18T14:10:18.207Z</time></trkpt><trkpt lat="43.28363" lon="10.74497"><ele>390.59999999999997</ele><time>2026-04-18T14:10:20.196Z</time></trkpt><trkpt lat="43.28359" lon="10.7448314"><ele>389.79999999999995</ele><time>2026-04-18T14:10:22.193Z</time></trkpt><trkpt lat="43.2835521" lon="10.7446952"><ele>389.0</ele><time>2026-04-18T14:10:24.2Z</time></trkpt><trkpt lat="43.283515" lon="10.7445536"><ele>389.0</ele><time>2026-04-18T14:10:26.193Z</time></trkpt><trkpt lat="43.2834554" lon="10.744405"><ele>389.0</ele><time>2026-04-18T14:10:28.198Z</time></trkpt><trkpt lat="43.2833958" lon="10.744252"><ele>389.0</ele><time>2026-04-18T14:10:30.203Z</time></trkpt><trkpt lat="43.2833627" lon="10.7441754"><ele>389.0</ele><time>2026-04-18T14:10:31.2Z</time></trkpt><trkpt lat="43.2833193" lon="10.7440934"><ele>389.0</ele><time>2026-04-18T14:10:32.196Z</time></trkpt><trkpt lat="43.2832653" lon="10.7440175"><ele>388.5714285714286</ele><time>2026-04-18T14:10:33.207Z</time></trkpt><trkpt lat="43.2832156" lon="10.743948"><ele>388.1428571428571</ele><time>2026-04-18T14:10:34.205Z</time></trkpt><trkpt lat="43.2831704" lon="10.743871"><ele>387.7142857142857</ele><time>2026-04-18T14:10:35.189Z</time></trkpt><trkpt lat="43.2831284" lon="10.7437876"><ele>387.28571428571433</ele><time>2026-04-18T14:10:36.211Z</time></trkpt><trkpt lat="43.2830867" lon="10.7437108"><ele>386.8571428571429</ele><time>2026-04-18T14:10:37.206Z</time></trkpt><trkpt lat="43.28305" lon="10.7436283"><ele>386.42857142857144</ele><time>2026-04-18T14:10:38.209Z</time></trkpt><trkpt lat="43.2830222" lon="10.7435328"><ele>386.0</ele><time>2026-04-18T14:10:39.206Z</time></trkpt><trkpt lat="43.2829919" lon="10.7434507"><ele>383.0</ele><time>2026-04-18T14:10:40.193Z</time></trkpt><trkpt lat="43.2829727" lon="10.7433635"><ele>380.0</ele><time>2026-04-18T14:10:41.207Z</time></trkpt><trkpt lat="43.2829614" lon="10.7432096"><ele>377.0</ele><time>2026-04-18T14:10:43.191Z</time></trkpt><trkpt lat="43.2829724" lon="10.7430448"><ele>374.0</ele><time>2026-04-18T14:10:45.201Z</time></trkpt><trkpt lat="43.2829881" lon="10.7429023"><ele>371.0</ele><time>2026-04-18T14:10:47.212Z</time></trkpt><trkpt lat="43.2830722" lon="10.7428607"><ele>370.8</ele><time>2026-04-18T14:10:49.208Z</time></trkpt><trkpt lat="43.2831682" lon="10.7428415"><ele>370.6</ele><time>2026-04-18T14:10:51.2Z</time></trkpt><trkpt lat="43.2832539" lon="10.7427768"><ele>370.4</ele><time>2026-04-18T14:10:53.198Z</time></trkpt><trkpt lat="43.2833142" lon="10.7426913"><ele>370.2</ele><time>2026-04-18T14:10:55.201Z</time></trkpt><trkpt lat="43.2833706" lon="10.7426199"><ele>370.0</ele><time>2026-04-18T14:10:57.217Z</time></trkpt><trkpt lat="43.2834671" lon="10.7425926"><ele>370.0</ele><time>2026-04-18T14:10:59.199Z</time></trkpt><trkpt lat="43.2835556" lon="10.7426012"><ele>370.0</ele><time>2026-04-18T14:11:01.201Z</time></trkpt><trkpt lat="43.2836419" lon="10.7426647"><ele>370.0</ele><time>2026-04-18T14:11:03.2Z</time></trkpt><trkpt lat="43.2837344" lon="10.7427556"><ele>370.0</ele><time>2026-04-18T14:11:05.209Z</time></trkpt><trkpt lat="43.2838089" lon="10.7428478"><ele>370.0</ele><time>2026-04-18T14:11:07.214Z</time></trkpt><trkpt lat="43.2838883" lon="10.742905"><ele>371.0</ele><time>2026-04-18T14:11:09.19Z</time></trkpt><trkpt lat="43.2839947" lon="10.7429283"><ele>372.0</ele><time>2026-04-18T14:11:11.203Z</time></trkpt><trkpt lat="43.2841189" lon="10.742945"><ele>373.0</ele><time>2026-04-18T14:11:13.213Z</time></trkpt><trkpt lat="43.2842249" lon="10.7429988"><ele>374.0</ele><time>2026-04-18T14:11:15.198Z</time></trkpt><trkpt lat="43.2843181" lon="10.7430661"><ele>374.0</ele><time>2026-04-18T14:11:17.191Z</time></trkpt><trkpt lat="43.2844185" lon="10.7430995"><ele>374.0</ele><time>2026-04-18T14:11:19.199Z</time></trkpt><trkpt lat="43.2845248" lon="10.7431114"><ele>374.0</ele><time>2026-04-18T14:11:21.197Z</time></trkpt><trkpt lat="43.2846263" lon="10.7430736"><ele>374.0</ele><time>2026-04-18T14:11:23.189Z</time></trkpt><trkpt lat="43.2846968" lon="10.7430144"><ele>374.0</ele><time>2026-04-18T14:11:25.187Z</time></trkpt><trkpt lat="43.2847814" lon="10.7429911"><ele>372.6666666666667</ele><time>2026-04-18T14:11:27.199Z</time></trkpt><trkpt lat="43.2849089" lon="10.7430193"><ele>371.33333333333337</ele><time>2026-04-18T14:11:29.2Z</time></trkpt><trkpt lat="43.2849762" lon="10.7430559"><ele>370.0</ele><time>2026-04-18T14:11:30.199Z</time></trkpt><trkpt lat="43.2850366" lon="10.7431027"><ele>368.6666666666667</ele><time>2026-04-18T14:11:31.189Z</time></trkpt><trkpt lat="43.2850926" lon="10.7431575"><ele>367.3333333333333</ele><time>2026-04-18T14:11:32.182Z</time></trkpt><trkpt lat="43.2851491" lon="10.7432112"><ele>366.0</ele><time>2026-04-18T14:11:33.196Z</time></trkpt><trkpt lat="43.285208" lon="10.7432727"><ele>366.0</ele><time>2026-04-18T14:11:34.195Z</time></trkpt><trkpt lat="43.2852684" lon="10.7433232"><ele>366.0</ele><time>2026-04-18T14:11:35.181Z</time></trkpt><trkpt lat="43.2853278" lon="10.7433543"><ele>366.0</ele><time>2026-04-18T14:11:36.2Z</time></trkpt><trkpt lat="43.2854398" lon="10.7433903"><ele>366.0</ele><time>2026-04-18T14:11:38.2Z</time></trkpt><trkpt lat="43.2855385" lon="10.7434256"><ele>366.0</ele><time>2026-04-18T14:11:40.21Z</time></trkpt><trkpt lat="43.2856283" lon="10.7435245"><ele>366.20000000000005</ele><time>2026-04-18T14:11:42.203Z</time></trkpt><trkpt lat="43.2856951" lon="10.74366"><ele>366.40000000000003</ele><time>2026-04-18T14:11:44.187Z</time></trkpt><trkpt lat="43.2857183" lon="10.7437817"><ele>366.6</ele><time>2026-04-18T14:11:46.185Z</time></trkpt><trkpt lat="43.2857437" lon="10.74387"><ele>366.8</ele><time>2026-04-18T14:11:48.19Z</time></trkpt><trkpt lat="43.2858172" lon="10.7439371"><ele>367.0</ele><time>2026-04-18T14:11:50.204Z</time></trkpt><trkpt lat="43.2859024" lon="10.7439127"><ele>367.0</ele><time>2026-04-18T14:11:52.204Z</time></trkpt><trkpt lat="43.2859338" lon="10.74379"><ele>367.0</ele><time>2026-04-18T14:11:54.19Z</time></trkpt><trkpt lat="43.2859258" lon="10.7436408"><ele>367.0</ele><time>2026-04-18T14:11:56.188Z</time></trkpt><trkpt lat="43.2859138" lon="10.7435092"><ele>367.0</ele><time>2026-04-18T14:11:58.198Z</time></trkpt><trkpt lat="43.2858953" lon="10.7433785"><ele>367.0</ele><time>2026-04-18T14:12:00.194Z</time></trkpt><trkpt lat="43.285907" lon="10.7432522"><ele>365.66666666666663</ele><time>2026-04-18T14:12:02.19Z</time></trkpt><trkpt lat="43.2859886" lon="10.7431399"><ele>364.3333333333333</ele><time>2026-04-18T14:12:04.19Z</time></trkpt><trkpt lat="43.2860443" lon="10.743084"><ele>363.0</ele><time>2026-04-18T14:12:05.191Z</time></trkpt><trkpt lat="43.2860999" lon="10.7430162"><ele>361.6666666666667</ele><time>2026-04-18T14:12:06.198Z</time></trkpt><trkpt lat="43.2861515" lon="10.742942"><ele>360.33333333333337</ele><time>2026-04-18T14:12:07.195Z</time></trkpt><trkpt lat="43.2861961" lon="10.7428566"><ele>359.0</ele><time>2026-04-18T14:12:08.19Z</time></trkpt><trkpt lat="43.2862292" lon="10.74277"><ele>357.1666666666667</ele><time>2026-04-18T14:12:09.186Z</time></trkpt><trkpt lat="43.2862614" lon="10.7426786"><ele>355.33333333333337</ele><time>2026-04-18T14:12:10.193Z</time></trkpt><trkpt lat="43.2862878" lon="10.7425943"><ele>353.5</ele><time>2026-04-18T14:12:11.198Z</time></trkpt><trkpt lat="43.2863384" lon="10.7424717"><ele>351.6666666666667</ele><time>2026-04-18T14:12:13.196Z</time></trkpt><trkpt lat="43.2863566" lon="10.7423519"><ele>349.8333333333333</ele><time>2026-04-18T14:12:15.191Z</time></trkpt><trkpt lat="43.2863701" lon="10.7422319"><ele>348.0</ele><time>2026-04-18T14:12:17.197Z</time></trkpt><trkpt lat="43.2864104" lon="10.7421202"><ele>348.2</ele><time>2026-04-18T14:12:19.199Z</time></trkpt><trkpt lat="43.2864704" lon="10.7419941"><ele>348.4</ele><time>2026-04-18T14:12:21.2Z</time></trkpt><trkpt lat="43.2865175" lon="10.7418237"><ele>348.59999999999997</ele><time>2026-04-18T14:12:23.197Z</time></trkpt><trkpt lat="43.2865428" lon="10.7417306"><ele>348.79999999999995</ele><time>2026-04-18T14:12:24.19Z</time></trkpt><trkpt lat="43.2865797" lon="10.7416294"><ele>349.0</ele><time>2026-04-18T14:12:25.199Z</time></trkpt><trkpt lat="43.2866159" lon="10.741541"><ele>349.0</ele><time>2026-04-18T14:12:26.194Z</time></trkpt><trkpt lat="43.2866514" lon="10.7414235"><ele>349.0</ele><time>2026-04-18T14:12:28.194Z</time></trkpt><trkpt lat="43.2867152" lon="10.741315"><ele>349.0</ele><time>2026-04-18T14:12:31.201Z</time></trkpt><trkpt lat="43.2867701" lon="10.7411889"><ele>349.0</ele><time>2026-04-18T14:12:33.198Z</time></trkpt><trkpt lat="43.2868203" lon="10.7410477"><ele>349.0</ele><time>2026-04-18T14:12:35.191Z</time></trkpt><trkpt lat="43.2868473" lon="10.7409659"><ele>346.2857142857143</ele><time>2026-04-18T14:12:36.201Z</time></trkpt><trkpt lat="43.2868791" lon="10.7408814"><ele>343.57142857142856</ele><time>2026-04-18T14:12:37.191Z</time></trkpt><trkpt lat="43.2869125" lon="10.740798"><ele>340.8571428571429</ele><time>2026-04-18T14:12:38.19Z</time></trkpt><trkpt lat="43.2869459" lon="10.7407162"><ele>338.1428571428571</ele><time>2026-04-18T14:12:39.206Z</time></trkpt><trkpt lat="43.2869765" lon="10.7406305"><ele>335.42857142857144</ele><time>2026-04-18T14:12:40.195Z</time></trkpt><trkpt lat="43.2870021" lon="10.7405449"><ele>332.7142857142857</ele><time>2026-04-18T14:12:41.195Z</time></trkpt><trkpt lat="43.2870242" lon="10.7404629"><ele>330.0</ele><time>2026-04-18T14:12:42.197Z</time></trkpt><trkpt lat="43.2870787" lon="10.7403361"><ele>330.0</ele><time>2026-04-18T14:12:44.197Z</time></trkpt><trkpt lat="43.2871402" lon="10.7402171"><ele>330.0</ele><time>2026-04-18T14:12:46.186Z</time></trkpt><trkpt lat="43.2872166" lon="10.7401045"><ele>330.0</ele><time>2026-04-18T14:12:48.185Z</time></trkpt><trkpt lat="43.2872787" lon="10.740038"><ele>330.0</ele><time>2026-04-18T14:12:50.207Z</time></trkpt><trkpt lat="43.2873329" lon="10.7399372"><ele>330.0</ele><time>2026-04-18T14:12:53.196Z</time></trkpt><trkpt lat="43.2873692" lon="10.7398437"><ele>331.6</ele><time>2026-04-18T14:12:55.189Z</time></trkpt><trkpt lat="43.2874331" lon="10.7396992"><ele>333.2</ele><time>2026-04-18T14:12:57.204Z</time></trkpt><trkpt lat="43.2875061" lon="10.7395768"><ele>334.79999999999995</ele><time>2026-04-18T14:12:59.206Z</time></trkpt><trkpt lat="43.2875815" lon="10.7394832"><ele>336.4</ele><time>2026-04-18T14:13:01.191Z</time></trkpt><trkpt lat="43.2876555" lon="10.7394394"><ele>338.0</ele><time>2026-04-18T14:13:03.199Z</time></trkpt><trkpt lat="43.2877527" lon="10.7394797"><ele>338.0</ele><time>2026-04-18T14:13:05.194Z</time></trkpt><trkpt lat="43.2878218" lon="10.7395418"><ele>338.0</ele><time>2026-04-18T14:13:07.199Z</time></trkpt><trkpt lat="43.2878903" lon="10.7396377"><ele>338.0</ele><time>2026-04-18T14:13:09.207Z</time></trkpt><trkpt lat="43.2879675" lon="10.7397324"><ele>338.0</ele><time>2026-04-18T14:13:11.201Z</time></trkpt><trkpt lat="43.2880562" lon="10.7397742"><ele>338.0</ele><time>2026-04-18T14:13:13.199Z</time></trkpt><trkpt lat="43.2881272" lon="10.739715"><ele>336.6666666666667</ele><time>2026-04-18T14:13:15.179Z</time></trkpt><trkpt lat="43.2881744" lon="10.739611"><ele>335.33333333333337</ele><time>2026-04-18T14:13:17.185Z</time></trkpt><trkpt lat="43.2881987" lon="10.7395102"><ele>334.0</ele><time>2026-04-18T14:13:18.198Z</time></trkpt><trkpt lat="43.2882206" lon="10.7394114"><ele>332.6666666666667</ele><time>2026-04-18T14:13:19.201Z</time></trkpt><trkpt lat="43.2882561" lon="10.7393139"><ele>331.3333333333333</ele><time>2026-04-18T14:13:20.195Z</time></trkpt><trkpt lat="43.2882946" lon="10.739221"><ele>330.0</ele><time>2026-04-18T14:13:21.201Z</time></trkpt><trkpt lat="43.2883367" lon="10.7391399"><ele>330.00000000000006</ele><time>2026-04-18T14:13:22.185Z</time></trkpt><trkpt lat="43.2883863" lon="10.7390554"><ele>330.0</ele><time>2026-04-18T14:13:23.175Z</time></trkpt><trkpt lat="43.2884374" lon="10.7389716"><ele>330.0</ele><time>2026-04-18T14:13:24.19Z</time></trkpt><trkpt lat="43.2884818" lon="10.7388921"><ele>330.0</ele><time>2026-04-18T14:13:25.203Z</time></trkpt><trkpt lat="43.2885293" lon="10.7388138"><ele>330.0</ele><time>2026-04-18T14:13:26.178Z</time></trkpt><trkpt lat="43.2885704" lon="10.7387414"><ele>330.00000000000006</ele><time>2026-04-18T14:13:27.208Z</time></trkpt><trkpt lat="43.2886192" lon="10.7386828"><ele>330.0</ele><time>2026-04-18T14:13:28.202Z</time></trkpt><trkpt lat="43.2886746" lon="10.7386214"><ele>330.0</ele><time>2026-04-18T14:13:29.19Z</time></trkpt><trkpt lat="43.2887374" lon="10.7385544"><ele>330.0</ele><time>2026-04-18T14:13:30.202Z</time></trkpt><trkpt lat="43.2888092" lon="10.7385006"><ele>330.0</ele><time>2026-04-18T14:13:31.189Z</time></trkpt><trkpt lat="43.2888841" lon="10.7384493"><ele>330.0</ele><time>2026-04-18T14:13:32.193Z</time></trkpt><trkpt lat="43.2889582" lon="10.7383991"><ele>330.0</ele><time>2026-04-18T14:13:33.19Z</time></trkpt><trkpt lat="43.2890263" lon="10.7383475"><ele>330.0</ele><time>2026-04-18T14:13:34.185Z</time></trkpt><trkpt lat="43.2890908" lon="10.7383071"><ele>329.5</ele><time>2026-04-18T14:13:35.187Z</time></trkpt><trkpt lat="43.2891545" lon="10.7382567"><ele>329.0</ele><time>2026-04-18T14:13:36.198Z</time></trkpt><trkpt lat="43.2892127" lon="10.7382042"><ele>328.5</ele><time>2026-04-18T14:13:37.188Z</time></trkpt><trkpt lat="43.2892698" lon="10.7381459"><ele>328.0</ele><time>2026-04-18T14:13:38.188Z</time></trkpt><trkpt lat="43.2893284" lon="10.7380932"><ele>327.5</ele><time>2026-04-18T14:13:39.199Z</time></trkpt><trkpt lat="43.289435" lon="10.7380014"><ele>327.0</ele><time>2026-04-18T14:13:41.195Z</time></trkpt><trkpt lat="43.2894902" lon="10.7379346"><ele>327.0</ele><time>2026-04-18T14:13:42.2Z</time></trkpt><trkpt lat="43.2895382" lon="10.7378718"><ele>327.0</ele><time>2026-04-18T14:13:43.202Z</time></trkpt><trkpt lat="43.2895844" lon="10.7378045"><ele>327.0</ele><time>2026-04-18T14:13:44.189Z</time></trkpt><trkpt lat="43.289639" lon="10.7377306"><ele>327.0</ele><time>2026-04-18T14:13:45.195Z</time></trkpt><trkpt lat="43.289693" lon="10.737664"><ele>327.0</ele><time>2026-04-18T14:13:46.185Z</time></trkpt><trkpt lat="43.2897488" lon="10.7376067"><ele>327.0</ele><time>2026-04-18T14:13:47.189Z</time></trkpt><trkpt lat="43.289801" lon="10.7375475"><ele>327.0</ele><time>2026-04-18T14:13:48.204Z</time></trkpt><trkpt lat="43.2898486" lon="10.7374872"><ele>325.57142857142856</ele><time>2026-04-18T14:13:49.204Z</time></trkpt><trkpt lat="43.2898957" lon="10.7374244"><ele>324.14285714285717</ele><time>2026-04-18T14:13:50.195Z</time></trkpt><trkpt lat="43.2899523" lon="10.7373655"><ele>322.7142857142857</ele><time>2026-04-18T14:13:51.188Z</time></trkpt><trkpt lat="43.2900014" lon="10.7373101"><ele>321.2857142857143</ele><time>2026-04-18T14:13:52.188Z</time></trkpt><trkpt lat="43.290075" lon="10.7372437"><ele>319.85714285714283</ele><time>2026-04-18T14:13:54.19Z</time></trkpt><trkpt lat="43.2901192" lon="10.7371651"><ele>318.42857142857144</ele><time>2026-04-18T14:13:56.19Z</time></trkpt><trkpt lat="43.2901457" lon="10.7370772"><ele>317.0</ele><time>2026-04-18T14:13:58.188Z</time></trkpt><trkpt lat="43.2901834" lon="10.7369917"><ele>314.2</ele><time>2026-04-18T14:14:00.195Z</time></trkpt><trkpt lat="43.2902343" lon="10.7368706"><ele>311.4</ele><time>2026-04-18T14:14:02.187Z</time></trkpt><trkpt lat="43.2902768" lon="10.7367336"><ele>308.6</ele><time>2026-04-18T14:14:04.183Z</time></trkpt><trkpt lat="43.290293" lon="10.7365694"><ele>305.8</ele><time>2026-04-18T14:14:06.187Z</time></trkpt><trkpt lat="43.2902999" lon="10.7364824"><ele>303.0</ele><time>2026-04-18T14:14:07.194Z</time></trkpt><trkpt lat="43.2902855" lon="10.7363918"><ele>303.0</ele><time>2026-04-18T14:14:08.183Z</time></trkpt><trkpt lat="43.2902634" lon="10.7363088"><ele>303.0</ele><time>2026-04-18T14:14:09.204Z</time></trkpt><trkpt lat="43.2902312" lon="10.736224"><ele>303.0</ele><time>2026-04-18T14:14:10.188Z</time></trkpt><trkpt lat="43.2901632" lon="10.7360934"><ele>303.0</ele><time>2026-04-18T14:14:12.194Z</time></trkpt><trkpt lat="43.290086" lon="10.7360214"><ele>303.0</ele><time>2026-04-18T14:14:14.207Z</time></trkpt><trkpt lat="43.2900022" lon="10.7359649"><ele>303.0</ele><time>2026-04-18T14:14:16.187Z</time></trkpt><trkpt lat="43.2899359" lon="10.7359446"><ele>303.0</ele><time>2026-04-18T14:14:17.191Z</time></trkpt><trkpt lat="43.2898619" lon="10.7359199"><ele>303.0</ele><time>2026-04-18T14:14:18.197Z</time></trkpt><trkpt lat="43.2897944" lon="10.7358919"><ele>303.0</ele><time>2026-04-18T14:14:19.198Z</time></trkpt><trkpt lat="43.2897153" lon="10.7358677"><ele>303.0</ele><time>2026-04-18T14:14:20.18Z</time></trkpt><trkpt lat="43.2896366" lon="10.7358344"><ele>303.0</ele><time>2026-04-18T14:14:21.208Z</time></trkpt><trkpt lat="43.2895581" lon="10.7358111"><ele>303.0</ele><time>2026-04-18T14:14:22.182Z</time></trkpt><trkpt lat="43.2894757" lon="10.7357614"><ele>300.3333333333333</ele><time>2026-04-18T14:14:23.194Z</time></trkpt><trkpt lat="43.2893961" lon="10.7356964"><ele>297.6666666666667</ele><time>2026-04-18T14:14:24.202Z</time></trkpt><trkpt lat="43.2893227" lon="10.7356306"><ele>295.0</ele><time>2026-04-18T14:14:25.182Z</time></trkpt><trkpt lat="43.2892705" lon="10.7355659"><ele>292.33333333333337</ele><time>2026-04-18T14:14:26.192Z</time></trkpt><trkpt lat="43.2892424" lon="10.7354869"><ele>289.6666666666667</ele><time>2026-04-18T14:14:28.196Z</time></trkpt><trkpt lat="43.2892238" lon="10.7353918"><ele>287.0</ele><time>2026-04-18T14:14:39.198Z</time></trkpt><trkpt lat="43.2892264" lon="10.7352904"><ele>287.6666666666667</ele><time>2026-04-18T14:14:45.209Z</time></trkpt><trkpt lat="43.2892204" lon="10.735204"><ele>288.33333333333337</ele><time>2026-04-18T14:15:06.202Z</time></trkpt><trkpt lat="43.2892202" lon="10.7351119"><ele>289.0</ele><time>2026-04-18T14:15:14.203Z</time></trkpt><trkpt lat="43.2892315" lon="10.7349846"><ele>289.6666666666667</ele><time>2026-04-18T14:15:16.198Z</time></trkpt><trkpt lat="43.2892256" lon="10.7348285"><ele>290.3333333333333</ele><time>2026-04-18T14:15:18.196Z</time></trkpt><trkpt lat="43.2892107" lon="10.7347378"><ele>291.0</ele><time>2026-04-18T14:15:19.219Z</time></trkpt><trkpt lat="43.2891552" lon="10.7345804"><ele>291.0</ele><time>2026-04-18T14:15:21.211Z</time></trkpt><trkpt lat="43.2891083" lon="10.7344553"><ele>291.0</ele><time>2026-04-18T14:15:23.211Z</time></trkpt><trkpt lat="43.2891049" lon="10.7343415"><ele>291.0</ele><time>2026-04-18T14:15:25.192Z</time></trkpt><trkpt lat="43.2891552" lon="10.7342689"><ele>291.0</ele><time>2026-04-18T14:15:27.208Z</time></trkpt><trkpt lat="43.2892299" lon="10.7341735"><ele>291.0</ele><time>2026-04-18T14:15:29.221Z</time></trkpt><trkpt lat="43.2893167" lon="10.7340715"><ele>289.3333333333333</ele><time>2026-04-18T14:15:31.216Z</time></trkpt><trkpt lat="43.2893752" lon="10.7340118"><ele>287.6666666666667</ele><time>2026-04-18T14:15:32.205Z</time></trkpt><trkpt lat="43.2894328" lon="10.7339528"><ele>286.0</ele><time>2026-04-18T14:15:33.213Z</time></trkpt><trkpt lat="43.2894916" lon="10.7338888"><ele>284.33333333333337</ele><time>2026-04-18T14:15:34.212Z</time></trkpt><trkpt lat="43.2895527" lon="10.7338152"><ele>282.6666666666667</ele><time>2026-04-18T14:15:35.199Z</time></trkpt><trkpt lat="43.2896069" lon="10.7337362"><ele>281.0</ele><time>2026-04-18T14:15:36.188Z</time></trkpt><trkpt lat="43.2896545" lon="10.733663"><ele>281.0</ele><time>2026-04-18T14:15:37.214Z</time></trkpt><trkpt lat="43.2896912" lon="10.7335817"><ele>281.0</ele><time>2026-04-18T14:15:38.196Z</time></trkpt><trkpt lat="43.2897271" lon="10.7335068"><ele>281.0</ele><time>2026-04-18T14:15:39.185Z</time></trkpt><trkpt lat="43.2897619" lon="10.7334307"><ele>281.0</ele><time>2026-04-18T14:15:40.191Z</time></trkpt><trkpt lat="43.2898618" lon="10.7333426"><ele>281.0</ele><time>2026-04-18T14:15:42.202Z</time></trkpt><trkpt lat="43.2899883" lon="10.7333103"><ele>281.0</ele><time>2026-04-18T14:15:44.208Z</time></trkpt><trkpt lat="43.2900537" lon="10.7333015"><ele>281.1666666666667</ele><time>2026-04-18T14:15:45.193Z</time></trkpt><trkpt lat="43.2901306" lon="10.7332962"><ele>281.33333333333337</ele><time>2026-04-18T14:15:46.209Z</time></trkpt><trkpt lat="43.2902074" lon="10.7333012"><ele>281.5</ele><time>2026-04-18T14:15:47.208Z</time></trkpt><trkpt lat="43.2902767" lon="10.7333109"><ele>281.6666666666667</ele><time>2026-04-18T14:15:48.227Z</time></trkpt><trkpt lat="43.2903414" lon="10.7333293"><ele>281.8333333333333</ele><time>2026-04-18T14:15:49.199Z</time></trkpt><trkpt lat="43.2904398" lon="10.7334087"><ele>282.0</ele><time>2026-04-18T14:15:51.204Z</time></trkpt><trkpt lat="43.2905144" lon="10.7335089"><ele>283.2</ele><time>2026-04-18T14:15:53.191Z</time></trkpt><trkpt lat="43.2905626" lon="10.7336085"><ele>284.4</ele><time>2026-04-18T14:15:55.201Z</time></trkpt><trkpt lat="43.2906001" lon="10.7337362"><ele>285.6</ele><time>2026-04-18T14:15:57.195Z</time></trkpt><trkpt lat="43.2906405" lon="10.7338717"><ele>286.8</ele><time>2026-04-18T14:15:59.215Z</time></trkpt><trkpt lat="43.2907307" lon="10.7339648"><ele>288.0</ele><time>2026-04-18T14:16:01.202Z</time></trkpt><trkpt lat="43.290803" lon="10.7339941"><ele>288.0</ele><time>2026-04-18T14:16:02.206Z</time></trkpt><trkpt lat="43.2908794" lon="10.7340118"><ele>288.0</ele><time>2026-04-18T14:16:03.197Z</time></trkpt><trkpt lat="43.2909556" lon="10.7340178"><ele>288.0</ele><time>2026-04-18T14:16:04.203Z</time></trkpt><trkpt lat="43.2910312" lon="10.7340274"><ele>288.0</ele><time>2026-04-18T14:16:05.19Z</time></trkpt><trkpt lat="43.2911137" lon="10.734039"><ele>288.0</ele><time>2026-04-18T14:16:06.196Z</time></trkpt><trkpt lat="43.2911922" lon="10.7340617"><ele>288.0</ele><time>2026-04-18T14:16:07.199Z</time></trkpt><trkpt lat="43.2912755" lon="10.7340979"><ele>288.00000000000006</ele><time>2026-04-18T14:16:08.211Z</time></trkpt><trkpt lat="43.291351" lon="10.7341449"><ele>288.0</ele><time>2026-04-18T14:16:09.213Z</time></trkpt><trkpt lat="43.2914148" lon="10.7341973"><ele>288.0</ele><time>2026-04-18T14:16:10.207Z</time></trkpt><trkpt lat="43.2914622" lon="10.7342649"><ele>288.0</ele><time>2026-04-18T14:16:11.205Z</time></trkpt><trkpt lat="43.2915004" lon="10.7343403"><ele>288.0</ele><time>2026-04-18T14:16:12.202Z</time></trkpt><trkpt lat="43.2915427" lon="10.7344347"><ele>288.00000000000006</ele><time>2026-04-18T14:16:13.213Z</time></trkpt><trkpt lat="43.2915807" lon="10.7345219"><ele>288.0</ele><time>2026-04-18T14:16:14.192Z</time></trkpt><trkpt lat="43.2916091" lon="10.7346657"><ele>287.6</ele><time>2026-04-18T14:16:16.192Z</time></trkpt><trkpt lat="43.2916174" lon="10.7347756"><ele>287.20000000000005</ele><time>2026-04-18T14:16:18.21Z</time></trkpt><trkpt lat="43.2916189" lon="10.7348824"><ele>286.8</ele><time>2026-04-18T14:16:26.196Z</time></trkpt><trkpt lat="43.2916906" lon="10.7348704"><ele>286.40000000000003</ele><time>2026-04-18T14:16:30.206Z</time></trkpt><trkpt lat="43.2917773" lon="10.7347768"><ele>286.0</ele><time>2026-04-18T14:16:32.193Z</time></trkpt><trkpt lat="43.2918726" lon="10.7346466"><ele>285.99999999999994</ele><time>2026-04-18T14:16:34.196Z</time></trkpt><trkpt lat="43.2919289" lon="10.7345568"><ele>286.0</ele><time>2026-04-18T14:16:35.19Z</time></trkpt><trkpt lat="43.2919779" lon="10.7344726"><ele>286.0</ele><time>2026-04-18T14:16:36.2Z</time></trkpt><trkpt lat="43.2920205" lon="10.7343941"><ele>286.0</ele><time>2026-04-18T14:16:37.206Z</time></trkpt><trkpt lat="43.2920568" lon="10.7343091"><ele>286.0</ele><time>2026-04-18T14:16:38.2Z</time></trkpt><trkpt lat="43.2920865" lon="10.7342272"><ele>285.99999999999994</ele><time>2026-04-18T14:16:39.199Z</time></trkpt><trkpt lat="43.2921167" lon="10.7341486"><ele>286.0</ele><time>2026-04-18T14:16:40.203Z</time></trkpt><trkpt lat="43.2921459" lon="10.7340712"><ele>283.66666666666663</ele><time>2026-04-18T14:16:41.204Z</time></trkpt><trkpt lat="43.2921763" lon="10.733987"><ele>281.3333333333333</ele><time>2026-04-18T14:16:42.184Z</time></trkpt><trkpt lat="43.2921999" lon="10.7338988"><ele>279.0</ele><time>2026-04-18T14:16:43.199Z</time></trkpt><trkpt lat="43.2922086" lon="10.7338111"><ele>276.6666666666667</ele><time>2026-04-18T14:16:44.212Z</time></trkpt><trkpt lat="43.2922147" lon="10.7336583"><ele>274.33333333333337</ele><time>2026-04-18T14:16:46.196Z</time></trkpt><trkpt lat="43.2922458" lon="10.7335375"><ele>272.0</ele><time>2026-04-18T14:16:48.207Z</time></trkpt><trkpt lat="43.2922835" lon="10.733448"><ele>271.6666666666667</ele><time>2026-04-18T14:16:54.193Z</time></trkpt><trkpt lat="43.2922852" lon="10.7333412"><ele>271.33333333333337</ele><time>2026-04-18T14:16:59.189Z</time></trkpt><trkpt lat="43.2923057" lon="10.7332195"><ele>271.0</ele><time>2026-04-18T14:17:02.203Z</time></trkpt><trkpt lat="43.2923623" lon="10.7331465"><ele>270.6666666666667</ele><time>2026-04-18T14:17:03.191Z</time></trkpt><trkpt lat="43.292416" lon="10.7330965"><ele>270.3333333333333</ele><time>2026-04-18T14:17:04.195Z</time></trkpt><trkpt lat="43.2925272" lon="10.7330438"><ele>270.0</ele><time>2026-04-18T14:17:06.207Z</time></trkpt><trkpt lat="43.2926313" lon="10.7330079"><ele>270.0</ele><time>2026-04-18T14:17:08.216Z</time></trkpt><trkpt lat="43.2927069" lon="10.7329758"><ele>270.0</ele><time>2026-04-18T14:17:10.194Z</time></trkpt><trkpt lat="43.2927717" lon="10.7329375"><ele>270.0</ele><time>2026-04-18T14:17:12.211Z</time></trkpt><trkpt lat="43.292864" lon="10.7329112"><ele>270.0</ele><time>2026-04-18T14:17:14.186Z</time></trkpt><trkpt lat="43.2929405" lon="10.7328928"><ele>270.0</ele><time>2026-04-18T14:17:16.213Z</time></trkpt><trkpt lat="43.2930106" lon="10.7328897"><ele>270.0</ele><time>2026-04-18T14:17:18.214Z</time></trkpt><trkpt lat="43.2930807" lon="10.7328112"><ele>269.5</ele><time>2026-04-18T14:17:20.198Z</time></trkpt><trkpt lat="43.293111" lon="10.7327015"><ele>269.0</ele><time>2026-04-18T14:17:22.196Z</time></trkpt><trkpt lat="43.2931112" lon="10.7326072"><ele>268.5</ele><time>2026-04-18T14:17:24.198Z</time></trkpt><trkpt lat="43.2931187" lon="10.7325"><ele>268.0</ele><time>2026-04-18T14:17:26.194Z</time></trkpt><trkpt lat="43.2931487" lon="10.732388"><ele>267.5</ele><time>2026-04-18T14:17:28.203Z</time></trkpt><trkpt lat="43.2931811" lon="10.7322774"><ele>267.0</ele><time>2026-04-18T14:17:30.192Z</time></trkpt><trkpt lat="43.2932033" lon="10.7321581"><ele>267.0</ele><time>2026-04-18T14:17:32.194Z</time></trkpt><trkpt lat="43.2931908" lon="10.7320291"><ele>267.0</ele><time>2026-04-18T14:17:35.193Z</time></trkpt><trkpt lat="43.2931548" lon="10.731937"><ele>267.0</ele><time>2026-04-18T14:17:37.214Z</time></trkpt><trkpt lat="43.2930857" lon="10.7317908"><ele>267.0</ele><time>2026-04-18T14:17:39.197Z</time></trkpt><trkpt lat="43.2930474" lon="10.7317079"><ele>267.0</ele><time>2026-04-18T14:17:40.206Z</time></trkpt><trkpt lat="43.2930335" lon="10.7316053"><ele>267.0</ele><time>2026-04-18T14:17:41.202Z</time></trkpt><trkpt lat="43.2930128" lon="10.7314466"><ele>265.0</ele><time>2026-04-18T14:17:43.2Z</time></trkpt><trkpt lat="43.2930203" lon="10.7313001"><ele>263.0</ele><time>2026-04-18T14:17:45.184Z</time></trkpt><trkpt lat="43.2930894" lon="10.7311878"><ele>261.0</ele><time>2026-04-18T14:17:47.209Z</time></trkpt><trkpt lat="43.2931538" lon="10.7310781"><ele>259.0</ele><time>2026-04-18T14:17:49.194Z</time></trkpt><trkpt lat="43.2932015" lon="10.7309358"><ele>257.0</ele><time>2026-04-18T14:17:51.19Z</time></trkpt><trkpt lat="43.2932422" lon="10.7307875"><ele>257.0</ele><time>2026-04-18T14:17:53.203Z</time></trkpt><trkpt lat="43.2932847" lon="10.7306363"><ele>257.0</ele><time>2026-04-18T14:17:55.186Z</time></trkpt><trkpt lat="43.2933024" lon="10.7305265"><ele>257.0</ele><time>2026-04-18T14:17:57.19Z</time></trkpt><trkpt lat="43.293331" lon="10.7304237"><ele>257.0</ele><time>2026-04-18T14:18:00.192Z</time></trkpt><trkpt lat="43.2933667" lon="10.7303114"><ele>257.0</ele><time>2026-04-18T14:18:03.2Z</time></trkpt><trkpt lat="43.2934054" lon="10.7302359"><ele>257.0</ele><time>2026-04-18T14:18:05.2Z</time></trkpt><trkpt lat="43.2934661" lon="10.7301224"><ele>256.5</ele><time>2026-04-18T14:18:07.199Z</time></trkpt><trkpt lat="43.2935652" lon="10.7300285"><ele>256.0</ele><time>2026-04-18T14:18:09.195Z</time></trkpt><trkpt lat="43.2936786" lon="10.7299742"><ele>255.5</ele><time>2026-04-18T14:18:11.204Z</time></trkpt><trkpt lat="43.2937437" lon="10.7299586"><ele>255.0</ele><time>2026-04-18T14:18:12.198Z</time></trkpt><trkpt lat="43.2938095" lon="10.7299502"><ele>254.50000000000003</ele><time>2026-04-18T14:18:13.192Z</time></trkpt><trkpt lat="43.2938719" lon="10.729937"><ele>254.0</ele><time>2026-04-18T14:18:14.204Z</time></trkpt><trkpt lat="43.2939735" lon="10.7299215"><ele>254.00000000000003</ele><time>2026-04-18T14:18:16.193Z</time></trkpt><trkpt lat="43.2940482" lon="10.7298763"><ele>254.0</ele><time>2026-04-18T14:18:20.192Z</time></trkpt><trkpt lat="43.2941308" lon="10.7298199"><ele>254.0</ele><time>2026-04-18T14:18:23.194Z</time></trkpt><trkpt lat="43.2941954" lon="10.7297776"><ele>254.0</ele><time>2026-04-18T14:18:25.203Z</time></trkpt><trkpt lat="43.2942793" lon="10.7297264"><ele>254.00000000000003</ele><time>2026-04-18T14:18:28.19Z</time></trkpt><trkpt lat="43.2943603" lon="10.7296791"><ele>254.0</ele><time>2026-04-18T14:18:30.196Z</time></trkpt><trkpt lat="43.2944247" lon="10.729652"><ele>254.00000000000003</ele><time>2026-04-18T14:18:32.201Z</time></trkpt><trkpt lat="43.2945017" lon="10.7296551"><ele>254.0</ele><time>2026-04-18T14:18:36.193Z</time></trkpt><trkpt lat="43.2945651" lon="10.7297343"><ele>254.0</ele><time>2026-04-18T14:18:41.184Z</time></trkpt><trkpt lat="43.2946142" lon="10.7298064"><ele>254.0</ele><time>2026-04-18T14:18:44.202Z</time></trkpt><trkpt lat="43.2946979" lon="10.7297754"><ele>254.00000000000003</ele><time>2026-04-18T14:18:50.182Z</time></trkpt><trkpt lat="43.2947273" lon="10.7296944"><ele>254.0</ele><time>2026-04-18T14:18:52.176Z</time></trkpt><trkpt lat="43.2947641" lon="10.7295716"><ele>252.57142857142858</ele><time>2026-04-18T14:18:54.189Z</time></trkpt><trkpt lat="43.2947886" lon="10.7294604"><ele>251.1428571428571</ele><time>2026-04-18T14:18:55.184Z</time></trkpt><trkpt lat="43.2948176" lon="10.729379"><ele>249.7142857142857</ele><time>2026-04-18T14:18:56.183Z</time></trkpt><trkpt lat="43.2948672" lon="10.729297"><ele>248.28571428571428</ele><time>2026-04-18T14:18:57.188Z</time></trkpt><trkpt lat="43.2949234" lon="10.7292321"><ele>246.85714285714283</ele><time>2026-04-18T14:18:58.178Z</time></trkpt><trkpt lat="43.2949773" lon="10.7291776"><ele>245.4285714285714</ele><time>2026-04-18T14:18:59.175Z</time></trkpt><trkpt lat="43.2950378" lon="10.7291107"><ele>243.99999999999997</ele><time>2026-04-18T14:19:00.176Z</time></trkpt><trkpt lat="43.2951147" lon="10.7290376"><ele>244.0</ele><time>2026-04-18T14:19:01.199Z</time></trkpt><trkpt lat="43.2952021" lon="10.7289584"><ele>243.99999999999997</ele><time>2026-04-18T14:19:02.181Z</time></trkpt><trkpt lat="43.2952892" lon="10.7288553"><ele>243.99999999999997</ele><time>2026-04-18T14:19:03.188Z</time></trkpt><trkpt lat="43.295372" lon="10.7287584"><ele>244.0</ele><time>2026-04-18T14:19:04.177Z</time></trkpt><trkpt lat="43.2954491" lon="10.7286581"><ele>244.0</ele><time>2026-04-18T14:19:05.19Z</time></trkpt><trkpt lat="43.2955112" lon="10.7285822"><ele>245.66666666666666</ele><time>2026-04-18T14:19:06.174Z</time></trkpt><trkpt lat="43.2955584" lon="10.7285158"><ele>247.33333333333331</ele><time>2026-04-18T14:19:07.181Z</time></trkpt><trkpt lat="43.295613" lon="10.728449"><ele>249.0</ele><time>2026-04-18T14:19:08.182Z</time></trkpt><trkpt lat="43.2956776" lon="10.7283658"><ele>250.66666666666669</ele><time>2026-04-18T14:19:09.194Z</time></trkpt><trkpt lat="43.2957319" lon="10.7282331"><ele>252.33333333333334</ele><time>2026-04-18T14:19:10.177Z</time></trkpt><trkpt lat="43.2957718" lon="10.7281268"><ele>254.0</ele><time>2026-04-18T14:19:11.186Z</time></trkpt><trkpt lat="43.2958089" lon="10.728023"><ele>248.50000000000003</ele><time>2026-04-18T14:19:12.195Z</time></trkpt><trkpt lat="43.2958351" lon="10.7279333"><ele>243.0</ele><time>2026-04-18T14:19:13.196Z</time></trkpt><trkpt lat="43.2958455" lon="10.7278397"><ele>237.5</ele><time>2026-04-18T14:19:14.19Z</time></trkpt><trkpt lat="43.2958311" lon="10.7277469"><ele>232.0</ele><time>2026-04-18T14:19:15.188Z</time></trkpt><trkpt lat="43.2957847" lon="10.7276625"><ele>226.50000000000003</ele><time>2026-04-18T14:19:16.194Z</time></trkpt><trkpt lat="43.2957394" lon="10.7275741"><ele>221.0</ele><time>2026-04-18T14:19:17.198Z</time></trkpt><trkpt lat="43.2956814" lon="10.7274844"><ele>220.16666666666669</ele><time>2026-04-18T14:19:18.19Z</time></trkpt><trkpt lat="43.2956242" lon="10.7274115"><ele>219.33333333333334</ele><time>2026-04-18T14:19:19.178Z</time></trkpt><trkpt lat="43.2955594" lon="10.727336"><ele>218.5</ele><time>2026-04-18T14:19:20.194Z</time></trkpt><trkpt lat="43.2955067" lon="10.7272776"><ele>217.66666666666669</ele><time>2026-04-18T14:19:21.194Z</time></trkpt><trkpt lat="43.2954474" lon="10.7272188"><ele>216.83333333333334</ele><time>2026-04-18T14:19:22.193Z</time></trkpt><trkpt lat="43.2953695" lon="10.7271376"><ele>216.0</ele><time>2026-04-18T14:19:24.176Z</time></trkpt><trkpt lat="43.2953401" lon="10.7270386"><ele>215.4</ele><time>2026-04-18T14:19:26.187Z</time></trkpt><trkpt lat="43.2953599" lon="10.7269144"><ele>214.8</ele><time>2026-04-18T14:19:28.195Z</time></trkpt><trkpt lat="43.2954596" lon="10.7267927"><ele>214.20000000000002</ele><time>2026-04-18T14:19:30.185Z</time></trkpt><trkpt lat="43.2955347" lon="10.7267359"><ele>213.60000000000002</ele><time>2026-04-18T14:19:31.199Z</time></trkpt><trkpt lat="43.2956149" lon="10.7266969"><ele>213.0</ele><time>2026-04-18T14:19:32.199Z</time></trkpt><trkpt lat="43.2956965" lon="10.7266832"><ele>213.5</ele><time>2026-04-18T14:19:33.192Z</time></trkpt><trkpt lat="43.2957903" lon="10.7267002"><ele>214.0</ele><time>2026-04-18T14:19:34.188Z</time></trkpt><trkpt lat="43.2958558" lon="10.7267746"><ele>214.5</ele><time>2026-04-18T14:19:35.188Z</time></trkpt><trkpt lat="43.2959235" lon="10.7268354"><ele>215.0</ele><time>2026-04-18T14:19:36.179Z</time></trkpt><trkpt lat="43.2959932" lon="10.7268968"><ele>215.5</ele><time>2026-04-18T14:19:37.19Z</time></trkpt><trkpt lat="43.2960526" lon="10.7269531"><ele>216.0</ele><time>2026-04-18T14:19:38.19Z</time></trkpt><trkpt lat="43.2961444" lon="10.7270586"><ele>216.0</ele><time>2026-04-18T14:19:40.203Z</time></trkpt><trkpt lat="43.296202" lon="10.7271045"><ele>216.00000000000003</ele><time>2026-04-18T14:19:41.191Z</time></trkpt><trkpt lat="43.2963085" lon="10.7271571"><ele>216.00000000000003</ele><time>2026-04-18T14:19:43.188Z</time></trkpt><trkpt lat="43.2963714" lon="10.7270946"><ele>216.0</ele><time>2026-04-18T14:19:45.189Z</time></trkpt><trkpt lat="43.2963835" lon="10.7269437"><ele>216.0</ele><time>2026-04-18T14:19:47.185Z</time></trkpt><trkpt lat="43.2963812" lon="10.7268242"><ele>213.8</ele><time>2026-04-18T14:19:48.197Z</time></trkpt><trkpt lat="43.2963985" lon="10.7266983"><ele>211.60000000000002</ele><time>2026-04-18T14:19:49.201Z</time></trkpt><trkpt lat="43.29644" lon="10.7265657"><ele>209.4</ele><time>2026-04-18T14:19:50.196Z</time></trkpt><trkpt lat="43.2964831" lon="10.7264351"><ele>207.2</ele><time>2026-04-18T14:19:51.191Z</time></trkpt><trkpt lat="43.2965295" lon="10.7262984"><ele>205.0</ele><time>2026-04-18T14:19:52.193Z</time></trkpt><trkpt lat="43.296555" lon="10.7261758"><ele>203.66666666666666</ele><time>2026-04-18T14:19:53.2Z</time></trkpt><trkpt lat="43.2965533" lon="10.7260735"><ele>202.33333333333331</ele><time>2026-04-18T14:19:54.205Z</time></trkpt><trkpt lat="43.2965133" lon="10.7259931"><ele>201.0</ele><time>2026-04-18T14:19:55.193Z</time></trkpt><trkpt lat="43.2964613" lon="10.7259107"><ele>199.66666666666669</ele><time>2026-04-18T14:19:56.198Z</time></trkpt><trkpt lat="43.2964195" lon="10.725814"><ele>198.33333333333334</ele><time>2026-04-18T14:19:57.197Z</time></trkpt><trkpt lat="43.2964002" lon="10.7257095"><ele>197.0</ele><time>2026-04-18T14:19:58.189Z</time></trkpt><trkpt lat="43.2963971" lon="10.7255992"><ele>195.39999999999998</ele><time>2026-04-18T14:19:59.186Z</time></trkpt><trkpt lat="43.2964259" lon="10.7254796"><ele>193.79999999999998</ele><time>2026-04-18T14:20:00.183Z</time></trkpt><trkpt lat="43.2964714" lon="10.7253699"><ele>192.2</ele><time>2026-04-18T14:20:01.178Z</time></trkpt><trkpt lat="43.2965333" lon="10.7252566"><ele>190.6</ele><time>2026-04-18T14:20:02.193Z</time></trkpt><trkpt lat="43.2966069" lon="10.7251533"><ele>189.0</ele><time>2026-04-18T14:20:03.188Z</time></trkpt><trkpt lat="43.2966975" lon="10.7250785"><ele>188.0</ele><time>2026-04-18T14:20:04.187Z</time></trkpt><trkpt lat="43.2967999" lon="10.7250168"><ele>187.0</ele><time>2026-04-18T14:20:05.187Z</time></trkpt><trkpt lat="43.2969061" lon="10.7249656"><ele>186.0</ele><time>2026-04-18T14:20:06.179Z</time></trkpt><trkpt lat="43.2970157" lon="10.7249183"><ele>185.0</ele><time>2026-04-18T14:20:07.189Z</time></trkpt><trkpt lat="43.2971238" lon="10.7248736"><ele>185.0</ele><time>2026-04-18T14:20:08.195Z</time></trkpt><trkpt lat="43.2972337" lon="10.7248214"><ele>185.0</ele><time>2026-04-18T14:20:09.192Z</time></trkpt><trkpt lat="43.2973323" lon="10.7247806"><ele>185.0</ele><time>2026-04-18T14:20:10.182Z</time></trkpt><trkpt lat="43.2974173" lon="10.7247423"><ele>185.0</ele><time>2026-04-18T14:20:11.194Z</time></trkpt><trkpt lat="43.2974962" lon="10.7247156"><ele>185.0</ele><time>2026-04-18T14:20:12.185Z</time></trkpt><trkpt lat="43.2975605" lon="10.72469"><ele>185.0</ele><time>2026-04-18T14:20:13.189Z</time></trkpt><trkpt lat="43.2976515" lon="10.7246593"><ele>185.0</ele><time>2026-04-18T14:20:15.184Z</time></trkpt><trkpt lat="43.2977197" lon="10.7245887"><ele>185.0</ele><time>2026-04-18T14:20:17.194Z</time></trkpt><trkpt lat="43.2977177" lon="10.7244561"><ele>185.0</ele><time>2026-04-18T14:20:19.192Z</time></trkpt><trkpt lat="43.2976937" lon="10.7243754"><ele>185.0</ele><time>2026-04-18T14:20:20.19Z</time></trkpt><trkpt lat="43.2976638" lon="10.7242968"><ele>185.0</ele><time>2026-04-18T14:20:21.199Z</time></trkpt><trkpt lat="43.2976278" lon="10.7242102"><ele>185.4</ele><time>2026-04-18T14:20:22.195Z</time></trkpt><trkpt lat="43.2975834" lon="10.7241097"><ele>185.8</ele><time>2026-04-18T14:20:23.193Z</time></trkpt><trkpt lat="43.2975233" lon="10.7240074"><ele>186.2</ele><time>2026-04-18T14:20:24.204Z</time></trkpt><trkpt lat="43.297454" lon="10.7238983"><ele>186.6</ele><time>2026-04-18T14:20:25.196Z</time></trkpt><trkpt lat="43.2973887" lon="10.7237892"><ele>187.0</ele><time>2026-04-18T14:20:26.186Z</time></trkpt><trkpt lat="43.2973318" lon="10.7236867"><ele>187.0</ele><time>2026-04-18T14:20:27.194Z</time></trkpt><trkpt lat="43.2972959" lon="10.7235747"><ele>187.0</ele><time>2026-04-18T14:20:28.196Z</time></trkpt><trkpt lat="43.2972856" lon="10.7234502"><ele>187.0</ele><time>2026-04-18T14:20:29.189Z</time></trkpt><trkpt lat="43.29728" lon="10.7233363"><ele>187.0</ele><time>2026-04-18T14:20:30.191Z</time></trkpt><trkpt lat="43.2972847" lon="10.7232148"><ele>187.0</ele><time>2026-04-18T14:20:31.199Z</time></trkpt><trkpt lat="43.2972639" lon="10.7230966"><ele>187.0</ele><time>2026-04-18T14:20:32.196Z</time></trkpt><trkpt lat="43.2972162" lon="10.7229845"><ele>187.6</ele><time>2026-04-18T14:20:33.19Z</time></trkpt><trkpt lat="43.2971665" lon="10.7228824"><ele>188.2</ele><time>2026-04-18T14:20:34.188Z</time></trkpt><trkpt lat="43.2971095" lon="10.7227729"><ele>188.8</ele><time>2026-04-18T14:20:35.192Z</time></trkpt><trkpt lat="43.297043" lon="10.7226822"><ele>189.4</ele><time>2026-04-18T14:20:36.185Z</time></trkpt><trkpt lat="43.2969623" lon="10.7225972"><ele>190.0</ele><time>2026-04-18T14:20:37.195Z</time></trkpt><trkpt lat="43.2968806" lon="10.7225297"><ele>188.2</ele><time>2026-04-18T14:20:38.181Z</time></trkpt><trkpt lat="43.2968049" lon="10.722452"><ele>186.4</ele><time>2026-04-18T14:20:39.189Z</time></trkpt><trkpt lat="43.2967564" lon="10.7223378"><ele>184.60000000000002</ele><time>2026-04-18T14:20:40.197Z</time></trkpt><trkpt lat="43.2967299" lon="10.7222024"><ele>182.8</ele><time>2026-04-18T14:20:41.191Z</time></trkpt><trkpt lat="43.2967104" lon="10.7220655"><ele>181.0</ele><time>2026-04-18T14:20:42.188Z</time></trkpt><trkpt lat="43.2966886" lon="10.7219207"><ele>179.8</ele><time>2026-04-18T14:20:43.204Z</time></trkpt><trkpt lat="43.2966607" lon="10.7217753"><ele>178.60000000000002</ele><time>2026-04-18T14:20:44.193Z</time></trkpt><trkpt lat="43.2966295" lon="10.7216492"><ele>177.4</ele><time>2026-04-18T14:20:45.194Z</time></trkpt><trkpt lat="43.2966127" lon="10.7215234"><ele>176.2</ele><time>2026-04-18T14:20:46.199Z</time></trkpt><trkpt lat="43.2966107" lon="10.7214116"><ele>175.0</ele><time>2026-04-18T14:20:47.217Z</time></trkpt><trkpt lat="43.2966394" lon="10.721322"><ele>175.0</ele><time>2026-04-18T14:20:48.192Z</time></trkpt><trkpt lat="43.2967386" lon="10.7212168"><ele>175.0</ele><time>2026-04-18T14:20:50.201Z</time></trkpt><trkpt lat="43.2968" lon="10.7211362"><ele>175.0</ele><time>2026-04-18T14:20:51.203Z</time></trkpt><trkpt lat="43.2968718" lon="10.7210351"><ele>175.0</ele><time>2026-04-18T14:20:52.185Z</time></trkpt><trkpt lat="43.29694" lon="10.7209482"><ele>175.0</ele><time>2026-04-18T14:20:53.207Z</time></trkpt><trkpt lat="43.297015" lon="10.7208536"><ele>175.8</ele><time>2026-04-18T14:20:54.192Z</time></trkpt><trkpt lat="43.2970914" lon="10.7207545"><ele>176.6</ele><time>2026-04-18T14:20:55.193Z</time></trkpt><trkpt lat="43.297171" lon="10.7206536"><ele>177.39999999999998</ele><time>2026-04-18T14:20:56.182Z</time></trkpt><trkpt lat="43.2972483" lon="10.720547"><ele>178.2</ele><time>2026-04-18T14:20:57.19Z</time></trkpt><trkpt lat="43.2973302" lon="10.7204424"><ele>179.0</ele><time>2026-04-18T14:20:58.193Z</time></trkpt><trkpt lat="43.2974172" lon="10.7203361"><ele>178.2</ele><time>2026-04-18T14:20:59.197Z</time></trkpt><trkpt lat="43.2975004" lon="10.7202329"><ele>177.39999999999998</ele><time>2026-04-18T14:21:00.193Z</time></trkpt><trkpt lat="43.2975769" lon="10.7201385"><ele>176.6</ele><time>2026-04-18T14:21:01.197Z</time></trkpt><trkpt lat="43.2976477" lon="10.7200522"><ele>175.8</ele><time>2026-04-18T14:21:02.209Z</time></trkpt><trkpt lat="43.2977101" lon="10.7199778"><ele>175.0</ele><time>2026-04-18T14:21:03.188Z</time></trkpt><trkpt lat="43.2978011" lon="10.7198754"><ele>175.0</ele><time>2026-04-18T14:21:05.194Z</time></trkpt><trkpt lat="43.2978865" lon="10.7197528"><ele>175.0</ele><time>2026-04-18T14:21:07.178Z</time></trkpt><trkpt lat="43.297951" lon="10.7196136"><ele>175.0</ele><time>2026-04-18T14:21:09.195Z</time></trkpt><trkpt lat="43.2979073" lon="10.7194555"><ele>175.0</ele><time>2026-04-18T14:21:11.202Z</time></trkpt><trkpt lat="43.2978609" lon="10.7193887"><ele>175.0</ele><time>2026-04-18T14:21:12.194Z</time></trkpt><trkpt lat="43.2978105" lon="10.7193187"><ele>174.16666666666669</ele><time>2026-04-18T14:21:13.195Z</time></trkpt><trkpt lat="43.2977589" lon="10.7192275"><ele>173.33333333333334</ele><time>2026-04-18T14:21:14.185Z</time></trkpt><trkpt lat="43.2977008" lon="10.7191371"><ele>172.5</ele><time>2026-04-18T14:21:15.176Z</time></trkpt><trkpt lat="43.2976449" lon="10.7190416"><ele>171.66666666666666</ele><time>2026-04-18T14:21:16.185Z</time></trkpt><trkpt lat="43.2975869" lon="10.7189595"><ele>170.83333333333331</ele><time>2026-04-18T14:21:17.19Z</time></trkpt><trkpt lat="43.2975332" lon="10.7188846"><ele>170.0</ele><time>2026-04-18T14:21:18.185Z</time></trkpt><trkpt lat="43.2974883" lon="10.7188069"><ele>170.0</ele><time>2026-04-18T14:21:19.194Z</time></trkpt><trkpt lat="43.2974437" lon="10.7187292"><ele>170.0</ele><time>2026-04-18T14:21:20.191Z</time></trkpt><trkpt lat="43.2973931" lon="10.7186541"><ele>170.0</ele><time>2026-04-18T14:21:21.181Z</time></trkpt><trkpt lat="43.2973419" lon="10.718576"><ele>170.0</ele><time>2026-04-18T14:21:22.192Z</time></trkpt><trkpt lat="43.2972856" lon="10.7184929"><ele>170.0</ele><time>2026-04-18T14:21:23.194Z</time></trkpt><trkpt lat="43.2972269" lon="10.7184129"><ele>170.0</ele><time>2026-04-18T14:21:24.177Z</time></trkpt><trkpt lat="43.2971667" lon="10.7183314"><ele>170.16666666666666</ele><time>2026-04-18T14:21:25.183Z</time></trkpt><trkpt lat="43.2971058" lon="10.7182574"><ele>170.33333333333331</ele><time>2026-04-18T14:21:26.19Z</time></trkpt><trkpt lat="43.2970461" lon="10.7181781"><ele>170.5</ele><time>2026-04-18T14:21:27.19Z</time></trkpt><trkpt lat="43.2969954" lon="10.7180852"><ele>170.66666666666666</ele><time>2026-04-18T14:21:28.181Z</time></trkpt><trkpt lat="43.296947" lon="10.7179934"><ele>170.83333333333334</ele><time>2026-04-18T14:21:29.191Z</time></trkpt><trkpt lat="43.2969028" lon="10.7179136"><ele>171.0</ele><time>2026-04-18T14:21:30.199Z</time></trkpt><trkpt lat="43.296866" lon="10.7178382"><ele>171.0</ele><time>2026-04-18T14:21:31.184Z</time></trkpt><trkpt lat="43.2968377" lon="10.7177528"><ele>171.0</ele><time>2026-04-18T14:21:32.187Z</time></trkpt><trkpt lat="43.2968204" lon="10.7176547"><ele>171.0</ele><time>2026-04-18T14:21:33.181Z</time></trkpt><trkpt lat="43.296815" lon="10.7175439"><ele>171.0</ele><time>2026-04-18T14:21:34.189Z</time></trkpt><trkpt lat="43.2968202" lon="10.7174067"><ele>171.0</ele><time>2026-04-18T14:21:35.182Z</time></trkpt><trkpt lat="43.2968206" lon="10.7172922"><ele>171.0</ele><time>2026-04-18T14:21:36.181Z</time></trkpt><trkpt lat="43.2968287" lon="10.7171643"><ele>170.4</ele><time>2026-04-18T14:21:37.197Z</time></trkpt><trkpt lat="43.2968321" lon="10.7170534"><ele>169.8</ele><time>2026-04-18T14:21:38.192Z</time></trkpt><trkpt lat="43.2968352" lon="10.7169344"><ele>169.20000000000002</ele><time>2026-04-18T14:21:39.195Z</time></trkpt><trkpt lat="43.2968399" lon="10.7168145"><ele>168.60000000000002</ele><time>2026-04-18T14:21:40.185Z</time></trkpt><trkpt lat="43.2968537" lon="10.716687"><ele>168.0</ele><time>2026-04-18T14:21:41.187Z</time></trkpt><trkpt lat="43.2968703" lon="10.7165488"><ele>167.0</ele><time>2026-04-18T14:21:42.192Z</time></trkpt><trkpt lat="43.2968834" lon="10.7164075"><ele>166.0</ele><time>2026-04-18T14:21:43.179Z</time></trkpt><trkpt lat="43.2968976" lon="10.716269"><ele>165.0</ele><time>2026-04-18T14:21:44.185Z</time></trkpt><trkpt lat="43.2969161" lon="10.71613"><ele>164.0</ele><time>2026-04-18T14:21:45.184Z</time></trkpt><trkpt lat="43.296934" lon="10.7159926"><ele>163.0</ele><time>2026-04-18T14:21:46.188Z</time></trkpt><trkpt lat="43.2969544" lon="10.7158537"><ele>162.60000000000002</ele><time>2026-04-18T14:21:47.194Z</time></trkpt><trkpt lat="43.2969724" lon="10.715713"><ele>162.20000000000002</ele><time>2026-04-18T14:21:48.189Z</time></trkpt><trkpt lat="43.2969927" lon="10.7155774"><ele>161.8</ele><time>2026-04-18T14:21:49.188Z</time></trkpt><trkpt lat="43.297016" lon="10.7154526"><ele>161.4</ele><time>2026-04-18T14:21:50.188Z</time></trkpt><trkpt lat="43.2970346" lon="10.7153274"><ele>161.0</ele><time>2026-04-18T14:21:51.188Z</time></trkpt><trkpt lat="43.2970491" lon="10.7152129"><ele>160.16666666666666</ele><time>2026-04-18T14:21:52.192Z</time></trkpt><trkpt lat="43.2970528" lon="10.7151003"><ele>159.33333333333331</ele><time>2026-04-18T14:21:53.185Z</time></trkpt><trkpt lat="43.2970506" lon="10.7150015"><ele>158.5</ele><time>2026-04-18T14:21:54.186Z</time></trkpt><trkpt lat="43.297037" lon="10.7149077"><ele>157.66666666666666</ele><time>2026-04-18T14:21:55.194Z</time></trkpt><trkpt lat="43.2969718" lon="10.7147519"><ele>156.83333333333334</ele><time>2026-04-18T14:21:57.188Z</time></trkpt><trkpt lat="43.2969373" lon="10.714659"><ele>156.0</ele><time>2026-04-18T14:21:58.177Z</time></trkpt><trkpt lat="43.2969045" lon="10.7145496"><ele>156.0</ele><time>2026-04-18T14:21:59.191Z</time></trkpt><trkpt lat="43.2968734" lon="10.7144342"><ele>156.0</ele><time>2026-04-18T14:22:00.188Z</time></trkpt><trkpt lat="43.2968406" lon="10.7143225"><ele>156.0</ele><time>2026-04-18T14:22:01.187Z</time></trkpt><trkpt lat="43.2968163" lon="10.7142166"><ele>156.0</ele><time>2026-04-18T14:22:02.183Z</time></trkpt><trkpt lat="43.2967922" lon="10.7141096"><ele>156.0</ele><time>2026-04-18T14:22:03.197Z</time></trkpt><trkpt lat="43.2967739" lon="10.7140067"><ele>156.0</ele><time>2026-04-18T14:22:04.182Z</time></trkpt><trkpt lat="43.2967581" lon="10.7139008"><ele>155.4</ele><time>2026-04-18T14:22:05.19Z</time></trkpt><trkpt lat="43.2967472" lon="10.7137858"><ele>154.8</ele><time>2026-04-18T14:22:06.188Z</time></trkpt><trkpt lat="43.296722" lon="10.7136671"><ele>154.20000000000002</ele><time>2026-04-18T14:22:07.182Z</time></trkpt><trkpt lat="43.2966899" lon="10.7135347"><ele>153.6</ele><time>2026-04-18T14:22:08.174Z</time></trkpt><trkpt lat="43.296663" lon="10.713397"><ele>153.0</ele><time>2026-04-18T14:22:09.193Z</time></trkpt><trkpt lat="43.2966296" lon="10.7132499"><ele>152.16666666666666</ele><time>2026-04-18T14:22:10.179Z</time></trkpt><trkpt lat="43.2966075" lon="10.7131202"><ele>151.33333333333334</ele><time>2026-04-18T14:22:11.192Z</time></trkpt><trkpt lat="43.2965944" lon="10.712995"><ele>150.5</ele><time>2026-04-18T14:22:12.182Z</time></trkpt><trkpt lat="43.2965959" lon="10.7128945"><ele>149.66666666666669</ele><time>2026-04-18T14:22:13.183Z</time></trkpt><trkpt lat="43.2965999" lon="10.7127927"><ele>148.83333333333334</ele><time>2026-04-18T14:22:14.189Z</time></trkpt><trkpt lat="43.2965989" lon="10.7126816"><ele>148.0</ele><time>2026-04-18T14:22:15.187Z</time></trkpt><trkpt lat="43.2965999" lon="10.7125699"><ele>146.83333333333334</ele><time>2026-04-18T14:22:16.167Z</time></trkpt><trkpt lat="43.2966006" lon="10.7124572"><ele>145.66666666666669</ele><time>2026-04-18T14:22:17.19Z</time></trkpt><trkpt lat="43.2965921" lon="10.7123521"><ele>144.5</ele><time>2026-04-18T14:22:18.192Z</time></trkpt><trkpt lat="43.2965826" lon="10.7122601"><ele>143.33333333333334</ele><time>2026-04-18T14:22:19.187Z</time></trkpt><trkpt lat="43.2965356" lon="10.7121189"><ele>142.16666666666666</ele><time>2026-04-18T14:22:21.19Z</time></trkpt><trkpt lat="43.2964872" lon="10.712059"><ele>141.0</ele><time>2026-04-18T14:22:22.189Z</time></trkpt><trkpt lat="43.2964167" lon="10.7120171"><ele>138.2</ele><time>2026-04-18T14:22:23.194Z</time></trkpt><trkpt lat="43.2963375" lon="10.7120104"><ele>135.39999999999998</ele><time>2026-04-18T14:22:24.185Z</time></trkpt><trkpt lat="43.2962475" lon="10.7120156"><ele>132.6</ele><time>2026-04-18T14:22:25.189Z</time></trkpt><trkpt lat="43.2961507" lon="10.71204"><ele>129.79999999999998</ele><time>2026-04-18T14:22:26.188Z</time></trkpt><trkpt lat="43.2960554" lon="10.7120524"><ele>127.0</ele><time>2026-04-18T14:22:27.178Z</time></trkpt><trkpt lat="43.2959542" lon="10.7120639"><ele>127.0</ele><time>2026-04-18T14:22:28.181Z</time></trkpt><trkpt lat="43.295841" lon="10.7120658"><ele>127.0</ele><time>2026-04-18T14:22:29.189Z</time></trkpt><trkpt lat="43.2957163" lon="10.7120771"><ele>127.0</ele><time>2026-04-18T14:22:30.192Z</time></trkpt><trkpt lat="43.2955925" lon="10.7120867"><ele>127.0</ele><time>2026-04-18T14:22:31.193Z</time></trkpt><trkpt lat="43.2954793" lon="10.7120888"><ele>123.6</ele><time>2026-04-18T14:22:32.194Z</time></trkpt><trkpt lat="43.2953718" lon="10.7120431"><ele>120.19999999999999</ele><time>2026-04-18T14:22:33.192Z</time></trkpt><trkpt lat="43.295268" lon="10.7119797"><ele>116.8</ele><time>2026-04-18T14:22:34.191Z</time></trkpt><trkpt lat="43.2951761" lon="10.7119256"><ele>113.4</ele><time>2026-04-18T14:22:35.189Z</time></trkpt><trkpt lat="43.2951108" lon="10.711835"><ele>110.0</ele><time>2026-04-18T14:22:36.178Z</time></trkpt><trkpt lat="43.2950685" lon="10.7117443"><ele>109.83333333333333</ele><time>2026-04-18T14:22:37.184Z</time></trkpt><trkpt lat="43.2950544" lon="10.7116543"><ele>109.66666666666666</ele><time>2026-04-18T14:22:38.183Z</time></trkpt><trkpt lat="43.2950706" lon="10.7115414"><ele>109.5</ele><time>2026-04-18T14:22:39.191Z</time></trkpt><trkpt lat="43.2950909" lon="10.7114235"><ele>109.33333333333334</ele><time>2026-04-18T14:22:40.191Z</time></trkpt><trkpt lat="43.2950949" lon="10.7113262"><ele>109.16666666666667</ele><time>2026-04-18T14:22:41.19Z</time></trkpt><trkpt lat="43.2950831" lon="10.7112228"><ele>109.0</ele><time>2026-04-18T14:22:42.202Z</time></trkpt><trkpt lat="43.2950442" lon="10.7111331"><ele>107.6</ele><time>2026-04-18T14:22:43.203Z</time></trkpt><trkpt lat="43.2949825" lon="10.7110639"><ele>106.2</ele><time>2026-04-18T14:22:44.181Z</time></trkpt><trkpt lat="43.2949112" lon="10.7109799"><ele>104.8</ele><time>2026-04-18T14:22:45.189Z</time></trkpt><trkpt lat="43.2948246" lon="10.7108989"><ele>103.39999999999999</ele><time>2026-04-18T14:22:46.19Z</time></trkpt><trkpt lat="43.2947349" lon="10.7108265"><ele>102.0</ele><time>2026-04-18T14:22:47.19Z</time></trkpt><trkpt lat="43.2946488" lon="10.7107398"><ele>102.0</ele><time>2026-04-18T14:22:48.196Z</time></trkpt><trkpt lat="43.2945664" lon="10.7106363"><ele>102.0</ele><time>2026-04-18T14:22:49.202Z</time></trkpt><trkpt lat="43.2944827" lon="10.7105401"><ele>102.0</ele><time>2026-04-18T14:22:50.188Z</time></trkpt><trkpt lat="43.2943948" lon="10.7104416"><ele>102.0</ele><time>2026-04-18T14:22:51.197Z</time></trkpt><trkpt lat="43.2943042" lon="10.7103274"><ele>100.8</ele><time>2026-04-18T14:22:52.189Z</time></trkpt><trkpt lat="43.2942224" lon="10.7102201"><ele>99.6</ele><time>2026-04-18T14:22:53.192Z</time></trkpt><trkpt lat="43.294147" lon="10.7101231"><ele>98.39999999999999</ele><time>2026-04-18T14:22:54.189Z</time></trkpt><trkpt lat="43.2940804" lon="10.7100375"><ele>97.19999999999999</ele><time>2026-04-18T14:22:55.194Z</time></trkpt><trkpt lat="43.2940218" lon="10.7099683"><ele>96.0</ele><time>2026-04-18T14:22:56.19Z</time></trkpt><trkpt lat="43.2939752" lon="10.7098878"><ele>96.0</ele><time>2026-04-18T14:22:57.187Z</time></trkpt><trkpt lat="43.2939613" lon="10.709782"><ele>96.0</ele><time>2026-04-18T14:22:58.19Z</time></trkpt><trkpt lat="43.2939678" lon="10.7096561"><ele>96.0</ele><time>2026-04-18T14:22:59.186Z</time></trkpt><trkpt lat="43.293991" lon="10.7095206"><ele>96.0</ele><time>2026-04-18T14:23:00.19Z</time></trkpt><trkpt lat="43.2940164" lon="10.7093905"><ele>96.0</ele><time>2026-04-18T14:23:01.186Z</time></trkpt><trkpt lat="43.2940129" lon="10.7092615"><ele>93.4</ele><time>2026-04-18T14:23:02.189Z</time></trkpt><trkpt lat="43.2939996" lon="10.7091302"><ele>90.8</ele><time>2026-04-18T14:23:03.189Z</time></trkpt><trkpt lat="43.293982" lon="10.7089906"><ele>88.2</ele><time>2026-04-18T14:23:04.188Z</time></trkpt><trkpt lat="43.2939545" lon="10.708852"><ele>85.60000000000001</ele><time>2026-04-18T14:23:05.181Z</time></trkpt><trkpt lat="43.2939302" lon="10.708713"><ele>83.0</ele><time>2026-04-18T14:23:06.19Z</time></trkpt><trkpt lat="43.2939038" lon="10.7085827"><ele>80.80000000000001</ele><time>2026-04-18T14:23:07.184Z</time></trkpt><trkpt lat="43.2938799" lon="10.7084654"><ele>78.60000000000001</ele><time>2026-04-18T14:23:08.183Z</time></trkpt><trkpt lat="43.2938535" lon="10.7083444"><ele>76.4</ele><time>2026-04-18T14:23:09.193Z</time></trkpt><trkpt lat="43.2938249" lon="10.7082223"><ele>74.2</ele><time>2026-04-18T14:23:10.181Z</time></trkpt><trkpt lat="43.2937952" lon="10.7081053"><ele>72.0</ele><time>2026-04-18T14:23:11.202Z</time></trkpt><trkpt lat="43.2937562" lon="10.7079922"><ele>72.0</ele><time>2026-04-18T14:23:12.189Z</time></trkpt><trkpt lat="43.293715" lon="10.707893"><ele>72.0</ele><time>2026-04-18T14:23:13.191Z</time></trkpt><trkpt lat="43.2936675" lon="10.7078074"><ele>72.0</ele><time>2026-04-18T14:23:14.193Z</time></trkpt><trkpt lat="43.2936073" lon="10.7077268"><ele>72.0</ele><time>2026-04-18T14:23:15.189Z</time></trkpt><trkpt lat="43.293535" lon="10.7076589"><ele>72.0</ele><time>2026-04-18T14:23:16.19Z</time></trkpt><trkpt lat="43.2934557" lon="10.7076092"><ele>72.0</ele><time>2026-04-18T14:23:17.186Z</time></trkpt><trkpt lat="43.293374" lon="10.7075481"><ele>71.0</ele><time>2026-04-18T14:23:18.191Z</time></trkpt><trkpt lat="43.2932814" lon="10.7074931"><ele>70.0</ele><time>2026-04-18T14:23:19.199Z</time></trkpt><trkpt lat="43.2931839" lon="10.7074322"><ele>69.0</ele><time>2026-04-18T14:23:20.193Z</time></trkpt><trkpt lat="43.2930868" lon="10.7073851"><ele>68.0</ele><time>2026-04-18T14:23:21.196Z</time></trkpt><trkpt lat="43.2929904" lon="10.7073421"><ele>67.0</ele><time>2026-04-18T14:23:22.186Z</time></trkpt><trkpt lat="43.2928969" lon="10.7072884"><ele>67.0</ele><time>2026-04-18T14:23:23.192Z</time></trkpt><trkpt lat="43.2928061" lon="10.7072427"><ele>67.0</ele><time>2026-04-18T14:23:24.186Z</time></trkpt><trkpt lat="43.2927152" lon="10.7071974"><ele>67.0</ele><time>2026-04-18T14:23:25.19Z</time></trkpt><trkpt lat="43.2926278" lon="10.7071527"><ele>67.0</ele><time>2026-04-18T14:23:26.189Z</time></trkpt><trkpt lat="43.2925462" lon="10.7071105"><ele>67.0</ele><time>2026-04-18T14:23:27.189Z</time></trkpt><trkpt lat="43.2924703" lon="10.7070709"><ele>67.0</ele><time>2026-04-18T14:23:28.188Z</time></trkpt><trkpt lat="43.2923974" lon="10.7070268"><ele>67.0</ele><time>2026-04-18T14:23:29.198Z</time></trkpt><trkpt lat="43.2923249" lon="10.7069679"><ele>67.0</ele><time>2026-04-18T14:23:30.2Z</time></trkpt><trkpt lat="43.2922615" lon="10.7069005"><ele>67.0</ele><time>2026-04-18T14:23:31.18Z</time></trkpt><trkpt lat="43.2922174" lon="10.7068213"><ele>67.0</ele><time>2026-04-18T14:23:32.194Z</time></trkpt><trkpt lat="43.292192" lon="10.7067212"><ele>67.0</ele><time>2026-04-18T14:23:33.188Z</time></trkpt><trkpt lat="43.2921851" lon="10.7065998"><ele>66.75</ele><time>2026-04-18T14:23:34.199Z</time></trkpt><trkpt lat="43.2922188" lon="10.7064663"><ele>66.5</ele><time>2026-04-18T14:23:35.179Z</time></trkpt><trkpt lat="43.2922665" lon="10.7063402"><ele>66.25</ele><time>2026-04-18T14:23:36.186Z</time></trkpt><trkpt lat="43.2923438" lon="10.7062198"><ele>66.0</ele><time>2026-04-18T14:23:37.194Z</time></trkpt><trkpt lat="43.2924309" lon="10.7060894"><ele>66.39999999999999</ele><time>2026-04-18T14:23:38.187Z</time></trkpt><trkpt lat="43.292524" lon="10.7059722"><ele>66.8</ele><time>2026-04-18T14:23:39.186Z</time></trkpt><trkpt lat="43.2926025" lon="10.7058586"><ele>67.19999999999999</ele><time>2026-04-18T14:23:40.183Z</time></trkpt><trkpt lat="43.2926567" lon="10.7057546"><ele>67.6</ele><time>2026-04-18T14:23:41.188Z</time></trkpt><trkpt lat="43.2927008" lon="10.7056661"><ele>68.0</ele><time>2026-04-18T14:23:42.193Z</time></trkpt><trkpt lat="43.2927634" lon="10.7055712"><ele>68.0</ele><time>2026-04-18T14:23:44.181Z</time></trkpt><trkpt lat="43.2928099" lon="10.7054966"><ele>68.0</ele><time>2026-04-18T14:23:46.178Z</time></trkpt><trkpt lat="43.2928839" lon="10.705403"><ele>68.0</ele><time>2026-04-18T14:23:48.188Z</time></trkpt><trkpt lat="43.2929594" lon="10.7052692"><ele>68.0</ele><time>2026-04-18T14:23:50.178Z</time></trkpt><trkpt lat="43.2930042" lon="10.7051879"><ele>68.0</ele><time>2026-04-18T14:23:51.183Z</time></trkpt><trkpt lat="43.2930451" lon="10.7050944"><ele>68.0</ele><time>2026-04-18T14:23:52.19Z</time></trkpt><trkpt lat="43.2930826" lon="10.7049984"><ele>67.2</ele><time>2026-04-18T14:23:53.179Z</time></trkpt><trkpt lat="43.2931213" lon="10.7048844"><ele>66.4</ele><time>2026-04-18T14:23:54.183Z</time></trkpt><trkpt lat="43.2931519" lon="10.7047612"><ele>65.60000000000001</ele><time>2026-04-18T14:23:55.176Z</time></trkpt><trkpt lat="43.2931868" lon="10.7046245"><ele>64.8</ele><time>2026-04-18T14:23:56.173Z</time></trkpt><trkpt lat="43.2932284" lon="10.7044786"><ele>64.0</ele><time>2026-04-18T14:23:57.187Z</time></trkpt><trkpt lat="43.2932645" lon="10.7043289"><ele>64.0</ele><time>2026-04-18T14:23:58.194Z</time></trkpt><trkpt lat="43.2932969" lon="10.7041667"><ele>64.0</ele><time>2026-04-18T14:23:59.184Z</time></trkpt><trkpt lat="43.2933344" lon="10.7040067"><ele>64.0</ele><time>2026-04-18T14:24:00.179Z</time></trkpt><trkpt lat="43.2933681" lon="10.7038497"><ele>64.0</ele><time>2026-04-18T14:24:01.185Z</time></trkpt><trkpt lat="43.2934055" lon="10.7037016"><ele>63.5</ele><time>2026-04-18T14:24:02.178Z</time></trkpt><trkpt lat="43.2934366" lon="10.7035527"><ele>63.0</ele><time>2026-04-18T14:24:03.179Z</time></trkpt><trkpt lat="43.2934721" lon="10.7034124"><ele>62.5</ele><time>2026-04-18T14:24:04.174Z</time></trkpt><trkpt lat="43.2935099" lon="10.7032635"><ele>62.0</ele><time>2026-04-18T14:24:05.19Z</time></trkpt><trkpt lat="43.2935508" lon="10.7031093"><ele>62.0</ele><time>2026-04-18T14:24:06.173Z</time></trkpt><trkpt lat="43.293588" lon="10.702961"><ele>62.0</ele><time>2026-04-18T14:24:07.183Z</time></trkpt><trkpt lat="43.2936295" lon="10.7028153"><ele>62.0</ele><time>2026-04-18T14:24:08.179Z</time></trkpt><trkpt lat="43.2936708" lon="10.7026673"><ele>62.0</ele><time>2026-04-18T14:24:09.181Z</time></trkpt><trkpt lat="43.2937111" lon="10.7025192"><ele>61.8</ele><time>2026-04-18T14:24:10.178Z</time></trkpt><trkpt lat="43.2937496" lon="10.7023637"><ele>61.6</ele><time>2026-04-18T14:24:11.192Z</time></trkpt><trkpt lat="43.2937872" lon="10.7022245"><ele>61.39999999999999</ele><time>2026-04-18T14:24:12.19Z</time></trkpt><trkpt lat="43.2938227" lon="10.702098"><ele>61.199999999999996</ele><time>2026-04-18T14:24:13.186Z</time></trkpt><trkpt lat="43.2938536" lon="10.701982"><ele>61.0</ele><time>2026-04-18T14:24:14.2Z</time></trkpt><trkpt lat="43.293874" lon="10.701869"><ele>61.4</ele><time>2026-04-18T14:24:15.187Z</time></trkpt><trkpt lat="43.2938929" lon="10.7017433"><ele>61.8</ele><time>2026-04-18T14:24:16.179Z</time></trkpt><trkpt lat="43.2939058" lon="10.7016183"><ele>62.199999999999996</ele><time>2026-04-18T14:24:17.19Z</time></trkpt><trkpt lat="43.293903" lon="10.7014733"><ele>62.599999999999994</ele><time>2026-04-18T14:24:18.182Z</time></trkpt><trkpt lat="43.2938826" lon="10.7013037"><ele>63.0</ele><time>2026-04-18T14:24:19.184Z</time></trkpt><trkpt lat="43.2938582" lon="10.7011272"><ele>63.5</ele><time>2026-04-18T14:24:20.176Z</time></trkpt><trkpt lat="43.2938201" lon="10.700936"><ele>64.0</ele><time>2026-04-18T14:24:21.186Z</time></trkpt><trkpt lat="43.2937788" lon="10.7007376"><ele>64.5</ele><time>2026-04-18T14:24:22.195Z</time></trkpt><trkpt lat="43.2937445" lon="10.7005475"><ele>65.0</ele><time>2026-04-18T14:24:23.184Z</time></trkpt><trkpt lat="43.2937097" lon="10.7003645"><ele>64.25</ele><time>2026-04-18T14:24:24.185Z</time></trkpt><trkpt lat="43.2936747" lon="10.7001817"><ele>63.5</ele><time>2026-04-18T14:24:25.176Z</time></trkpt><trkpt lat="43.2936448" lon="10.7000094"><ele>62.75</ele><time>2026-04-18T14:24:26.184Z</time></trkpt><trkpt lat="43.2936102" lon="10.6998552"><ele>62.0</ele><time>2026-04-18T14:24:27.184Z</time></trkpt><trkpt lat="43.2935821" lon="10.69971"><ele>62.00000000000001</ele><time>2026-04-18T14:24:28.185Z</time></trkpt><trkpt lat="43.2935531" lon="10.6995969"><ele>62.0</ele><time>2026-04-18T14:24:29.179Z</time></trkpt><trkpt lat="43.2935345" lon="10.6994888"><ele>62.0</ele><time>2026-04-18T14:24:30.189Z</time></trkpt><trkpt lat="43.2935232" lon="10.6993956"><ele>62.0</ele><time>2026-04-18T14:24:31.192Z</time></trkpt><trkpt lat="43.2935225" lon="10.699308"><ele>62.00000000000001</ele><time>2026-04-18T14:24:32.18Z</time></trkpt><trkpt lat="43.2935314" lon="10.6991521"><ele>62.0</ele><time>2026-04-18T14:24:34.182Z</time></trkpt><trkpt lat="43.293548" lon="10.6989776"><ele>61.0</ele><time>2026-04-18T14:24:36.183Z</time></trkpt><trkpt lat="43.2935555" lon="10.69889"><ele>60.0</ele><time>2026-04-18T14:24:37.19Z</time></trkpt><trkpt lat="43.2935795" lon="10.6987419"><ele>59.0</ele><time>2026-04-18T14:24:39.19Z</time></trkpt><trkpt lat="43.2936135" lon="10.6986335"><ele>58.0</ele><time>2026-04-18T14:24:46.18Z</time></trkpt><trkpt lat="43.2936949" lon="10.6985599"><ele>57.0</ele><time>2026-04-18T14:24:49.19Z</time></trkpt><trkpt lat="43.2938113" lon="10.6985053"><ele>55.8</ele><time>2026-04-18T14:24:51.198Z</time></trkpt><trkpt lat="43.2938754" lon="10.698458"><ele>54.6</ele><time>2026-04-18T14:24:52.182Z</time></trkpt><trkpt lat="43.2939515" lon="10.6983872"><ele>53.4</ele><time>2026-04-18T14:24:53.199Z</time></trkpt><trkpt lat="43.2940301" lon="10.6983052"><ele>52.199999999999996</ele><time>2026-04-18T14:24:54.19Z</time></trkpt><trkpt lat="43.2941175" lon="10.6982032"><ele>51.0</ele><time>2026-04-18T14:24:55.195Z</time></trkpt><trkpt lat="43.2942221" lon="10.6981046"><ele>51.0</ele><time>2026-04-18T14:24:56.178Z</time></trkpt><trkpt lat="43.2943438" lon="10.6979953"><ele>51.0</ele><time>2026-04-18T14:24:57.183Z</time></trkpt><trkpt lat="43.2944734" lon="10.6978659"><ele>51.0</ele><time>2026-04-18T14:24:58.196Z</time></trkpt><trkpt lat="43.2946157" lon="10.6977238"><ele>51.0</ele><time>2026-04-18T14:24:59.19Z</time></trkpt><trkpt lat="43.2947758" lon="10.697582"><ele>51.0</ele><time>2026-04-18T14:25:00.178Z</time></trkpt><trkpt lat="43.2949435" lon="10.6974307"><ele>51.0</ele><time>2026-04-18T14:25:01.183Z</time></trkpt><trkpt lat="43.2951124" lon="10.697276"><ele>51.0</ele><time>2026-04-18T14:25:02.183Z</time></trkpt><trkpt lat="43.2952829" lon="10.6971344"><ele>51.0</ele><time>2026-04-18T14:25:03.183Z</time></trkpt><trkpt lat="43.2954454" lon="10.6969855"><ele>51.0</ele><time>2026-04-18T14:25:04.186Z</time></trkpt><trkpt lat="43.2955947" lon="10.6968467"><ele>51.33333333333333</ele><time>2026-04-18T14:25:05.185Z</time></trkpt><trkpt lat="43.2957433" lon="10.6966976"><ele>51.666666666666664</ele><time>2026-04-18T14:25:06.192Z</time></trkpt><trkpt lat="43.2958904" lon="10.6965485"><ele>52.0</ele><time>2026-04-18T14:25:07.193Z</time></trkpt><trkpt lat="43.2960355" lon="10.6964042"><ele>52.0</ele><time>2026-04-18T14:25:08.181Z</time></trkpt><trkpt lat="43.2961774" lon="10.6962693"><ele>52.0</ele><time>2026-04-18T14:25:09.185Z</time></trkpt><trkpt lat="43.2963173" lon="10.6961388"><ele>52.0</ele><time>2026-04-18T14:25:10.175Z</time></trkpt><trkpt lat="43.2964559" lon="10.6960196"><ele>51.33333333333333</ele><time>2026-04-18T14:25:11.177Z</time></trkpt><trkpt lat="43.2965961" lon="10.6959008"><ele>50.66666666666667</ele><time>2026-04-18T14:25:12.181Z</time></trkpt><trkpt lat="43.296738" lon="10.6957847"><ele>50.0</ele><time>2026-04-18T14:25:13.179Z</time></trkpt><trkpt lat="43.2968796" lon="10.6956556"><ele>50.0</ele><time>2026-04-18T14:25:14.189Z</time></trkpt><trkpt lat="43.2970294" lon="10.6955176"><ele>50.0</ele><time>2026-04-18T14:25:15.205Z</time></trkpt><trkpt lat="43.2971882" lon="10.6953775"><ele>50.0</ele><time>2026-04-18T14:25:16.175Z</time></trkpt><trkpt lat="43.2973533" lon="10.6952385"><ele>50.0</ele><time>2026-04-18T14:25:17.188Z</time></trkpt><trkpt lat="43.2975172" lon="10.6950997"><ele>50.0</ele><time>2026-04-18T14:25:18.168Z</time></trkpt><trkpt lat="43.2976781" lon="10.6949581"><ele>50.0</ele><time>2026-04-18T14:25:19.185Z</time></trkpt><trkpt lat="43.2978384" lon="10.6948091"><ele>50.0</ele><time>2026-04-18T14:25:20.182Z</time></trkpt><trkpt lat="43.2979965" lon="10.6946626"><ele>50.0</ele><time>2026-04-18T14:25:21.189Z</time></trkpt><trkpt lat="43.2981547" lon="10.6945171"><ele>50.0</ele><time>2026-04-18T14:25:22.186Z</time></trkpt><trkpt lat="43.2983169" lon="10.6943709"><ele>48.66666666666667</ele><time>2026-04-18T14:25:23.184Z</time></trkpt><trkpt lat="43.29848" lon="10.6942271"><ele>47.333333333333336</ele><time>2026-04-18T14:25:24.177Z</time></trkpt><trkpt lat="43.2986358" lon="10.6940784"><ele>46.0</ele><time>2026-04-18T14:25:25.183Z</time></trkpt><trkpt lat="43.2987919" lon="10.6939341"><ele>46.0</ele><time>2026-04-18T14:25:26.182Z</time></trkpt><trkpt lat="43.2989448" lon="10.6937944"><ele>46.0</ele><time>2026-04-18T14:25:27.185Z</time></trkpt><trkpt lat="43.299093" lon="10.6936572"><ele>46.0</ele><time>2026-04-18T14:25:28.179Z</time></trkpt><trkpt lat="43.2992361" lon="10.6935243"><ele>46.0</ele><time>2026-04-18T14:25:29.182Z</time></trkpt><trkpt lat="43.2993776" lon="10.6933913"><ele>46.0</ele><time>2026-04-18T14:25:30.189Z</time></trkpt><trkpt lat="43.2995168" lon="10.6932576"><ele>46.0</ele><time>2026-04-18T14:25:31.188Z</time></trkpt><trkpt lat="43.2996546" lon="10.6931314"><ele>46.333333333333336</ele><time>2026-04-18T14:25:32.19Z</time></trkpt><trkpt lat="43.2997958" lon="10.6930071"><ele>46.666666666666664</ele><time>2026-04-18T14:25:33.195Z</time></trkpt><trkpt lat="43.2999331" lon="10.6928857"><ele>47.0</ele><time>2026-04-18T14:25:34.184Z</time></trkpt><trkpt lat="43.3000755" lon="10.6927517"><ele>47.0</ele><time>2026-04-18T14:25:35.186Z</time></trkpt><trkpt lat="43.3002091" lon="10.6926255"><ele>47.0</ele><time>2026-04-18T14:25:36.184Z</time></trkpt><trkpt lat="43.3003501" lon="10.69249"><ele>47.0</ele><time>2026-04-18T14:25:37.195Z</time></trkpt><trkpt lat="43.3004919" lon="10.6923475"><ele>47.666666666666664</ele><time>2026-04-18T14:25:38.201Z</time></trkpt><trkpt lat="43.3006346" lon="10.6921956"><ele>48.33333333333333</ele><time>2026-04-18T14:25:39.192Z</time></trkpt><trkpt lat="43.3007642" lon="10.6920268"><ele>49.0</ele><time>2026-04-18T14:25:40.193Z</time></trkpt><trkpt lat="43.3008865" lon="10.6918524"><ele>49.0</ele><time>2026-04-18T14:25:41.201Z</time></trkpt><trkpt lat="43.3010057" lon="10.6916775"><ele>49.0</ele><time>2026-04-18T14:25:42.209Z</time></trkpt><trkpt lat="43.3011168" lon="10.6914954"><ele>49.0</ele><time>2026-04-18T14:25:43.195Z</time></trkpt><trkpt lat="43.3012278" lon="10.6913179"><ele>49.0</ele><time>2026-04-18T14:25:44.202Z</time></trkpt><trkpt lat="43.3013365" lon="10.6911351"><ele>49.0</ele><time>2026-04-18T14:25:45.203Z</time></trkpt><trkpt lat="43.3014436" lon="10.690954"><ele>49.0</ele><time>2026-04-18T14:25:46.194Z</time></trkpt><trkpt lat="43.301546" lon="10.6907867"><ele>48.666666666666664</ele><time>2026-04-18T14:25:47.203Z</time></trkpt><trkpt lat="43.3016457" lon="10.6906175"><ele>48.33333333333333</ele><time>2026-04-18T14:25:48.21Z</time></trkpt><trkpt lat="43.3017432" lon="10.6904436"><ele>48.0</ele><time>2026-04-18T14:25:49.194Z</time></trkpt><trkpt lat="43.3018432" lon="10.6902742"><ele>46.666666666666664</ele><time>2026-04-18T14:25:50.199Z</time></trkpt><trkpt lat="43.3019487" lon="10.6901067"><ele>45.33333333333333</ele><time>2026-04-18T14:25:51.196Z</time></trkpt><trkpt lat="43.3020547" lon="10.6899346"><ele>44.0</ele><time>2026-04-18T14:25:52.185Z</time></trkpt><trkpt lat="43.302163" lon="10.6897629"><ele>44.666666666666664</ele><time>2026-04-18T14:25:53.209Z</time></trkpt><trkpt lat="43.3022772" lon="10.689586"><ele>45.333333333333336</ele><time>2026-04-18T14:25:54.192Z</time></trkpt><trkpt lat="43.3024005" lon="10.6894156"><ele>46.0</ele><time>2026-04-18T14:25:55.204Z</time></trkpt><trkpt lat="43.3025246" lon="10.6892414"><ele>46.0</ele><time>2026-04-18T14:25:56.181Z</time></trkpt><trkpt lat="43.30266" lon="10.6890701"><ele>46.0</ele><time>2026-04-18T14:25:57.196Z</time></trkpt><trkpt lat="43.3028139" lon="10.6889023"><ele>46.0</ele><time>2026-04-18T14:25:58.193Z</time></trkpt><trkpt lat="43.302978" lon="10.688736"><ele>46.0</ele><time>2026-04-18T14:25:59.189Z</time></trkpt><trkpt lat="43.303135" lon="10.6885707"><ele>46.0</ele><time>2026-04-18T14:26:00.19Z</time></trkpt><trkpt lat="43.303287" lon="10.6884144"><ele>46.0</ele><time>2026-04-18T14:26:01.194Z</time></trkpt><trkpt lat="43.3034313" lon="10.6882593"><ele>46.0</ele><time>2026-04-18T14:26:02.194Z</time></trkpt><trkpt lat="43.3035716" lon="10.6881154"><ele>46.0</ele><time>2026-04-18T14:26:03.201Z</time></trkpt><trkpt lat="43.3037138" lon="10.6879735"><ele>46.0</ele><time>2026-04-18T14:26:04.199Z</time></trkpt><trkpt lat="43.303855" lon="10.6878386"><ele>46.66666666666667</ele><time>2026-04-18T14:26:05.189Z</time></trkpt><trkpt lat="43.3039972" lon="10.6877015"><ele>47.333333333333336</ele><time>2026-04-18T14:26:06.199Z</time></trkpt><trkpt lat="43.3041381" lon="10.6875615"><ele>48.0</ele><time>2026-04-18T14:26:07.194Z</time></trkpt><trkpt lat="43.3042808" lon="10.6874219"><ele>48.0</ele><time>2026-04-18T14:26:08.203Z</time></trkpt><trkpt lat="43.3044254" lon="10.687276"><ele>48.0</ele><time>2026-04-18T14:26:09.187Z</time></trkpt><trkpt lat="43.3045719" lon="10.6871225"><ele>48.0</ele><time>2026-04-18T14:26:10.186Z</time></trkpt><trkpt lat="43.3047171" lon="10.6869685"><ele>47.333333333333336</ele><time>2026-04-18T14:26:11.203Z</time></trkpt><trkpt lat="43.304863" lon="10.6868133"><ele>46.66666666666667</ele><time>2026-04-18T14:26:12.188Z</time></trkpt><trkpt lat="43.3050054" lon="10.6866556"><ele>46.0</ele><time>2026-04-18T14:26:13.193Z</time></trkpt><trkpt lat="43.3051467" lon="10.6864985"><ele>46.0</ele><time>2026-04-18T14:26:14.183Z</time></trkpt><trkpt lat="43.3052927" lon="10.6863427"><ele>46.0</ele><time>2026-04-18T14:26:15.181Z</time></trkpt><trkpt lat="43.3054344" lon="10.6861878"><ele>46.0</ele><time>2026-04-18T14:26:16.181Z</time></trkpt><trkpt lat="43.3055707" lon="10.686024"><ele>45.66666666666667</ele><time>2026-04-18T14:26:17.2Z</time></trkpt><trkpt lat="43.3056999" lon="10.6858522"><ele>45.333333333333336</ele><time>2026-04-18T14:26:18.202Z</time></trkpt><trkpt lat="43.3058191" lon="10.6856678"><ele>45.0</ele><time>2026-04-18T14:26:19.185Z</time></trkpt><trkpt lat="43.3059338" lon="10.6854704"><ele>45.0</ele><time>2026-04-18T14:26:20.202Z</time></trkpt><trkpt lat="43.3060421" lon="10.685272"><ele>45.0</ele><time>2026-04-18T14:26:21.196Z</time></trkpt><trkpt lat="43.3061422" lon="10.6850772"><ele>45.0</ele><time>2026-04-18T14:26:22.184Z</time></trkpt><trkpt lat="43.3062525" lon="10.6848793"><ele>45.333333333333336</ele><time>2026-04-18T14:26:23.197Z</time></trkpt><trkpt lat="43.3063538" lon="10.6846908"><ele>45.66666666666667</ele><time>2026-04-18T14:26:24.199Z</time></trkpt><trkpt lat="43.3064578" lon="10.6845049"><ele>46.0</ele><time>2026-04-18T14:26:25.199Z</time></trkpt><trkpt lat="43.3065611" lon="10.6843133"><ele>45.333333333333336</ele><time>2026-04-18T14:26:26.197Z</time></trkpt><trkpt lat="43.3066653" lon="10.6841138"><ele>44.666666666666664</ele><time>2026-04-18T14:26:27.193Z</time></trkpt><trkpt lat="43.3067714" lon="10.6839247"><ele>44.0</ele><time>2026-04-18T14:26:28.182Z</time></trkpt><trkpt lat="43.3068781" lon="10.6837342"><ele>43.666666666666664</ele><time>2026-04-18T14:26:29.194Z</time></trkpt><trkpt lat="43.3069867" lon="10.6835322"><ele>43.333333333333336</ele><time>2026-04-18T14:26:30.195Z</time></trkpt><trkpt lat="43.3070963" lon="10.6833302"><ele>43.0</ele><time>2026-04-18T14:26:31.202Z</time></trkpt><trkpt lat="43.3072063" lon="10.6831337"><ele>45.0</ele><time>2026-04-18T14:26:32.188Z</time></trkpt><trkpt lat="43.3073173" lon="10.6829235"><ele>47.0</ele><time>2026-04-18T14:26:33.198Z</time></trkpt><trkpt lat="43.3074302" lon="10.6827263"><ele>49.0</ele><time>2026-04-18T14:26:34.196Z</time></trkpt><trkpt lat="43.3075417" lon="10.6825231"><ele>49.0</ele><time>2026-04-18T14:26:35.2Z</time></trkpt><trkpt lat="43.307655" lon="10.6823271"><ele>49.0</ele><time>2026-04-18T14:26:36.186Z</time></trkpt><trkpt lat="43.3077672" lon="10.6821335"><ele>49.0</ele><time>2026-04-18T14:26:37.191Z</time></trkpt><trkpt lat="43.3078773" lon="10.6819373"><ele>47.0</ele><time>2026-04-18T14:26:38.19Z</time></trkpt><trkpt lat="43.307989" lon="10.6817391"><ele>45.0</ele><time>2026-04-18T14:26:39.195Z</time></trkpt><trkpt lat="43.3081038" lon="10.6815456"><ele>43.0</ele><time>2026-04-18T14:26:40.179Z</time></trkpt><trkpt lat="43.3082237" lon="10.6813685"><ele>43.0</ele><time>2026-04-18T14:26:41.186Z</time></trkpt><trkpt lat="43.3083489" lon="10.6811974"><ele>43.0</ele><time>2026-04-18T14:26:42.193Z</time></trkpt><trkpt lat="43.3084805" lon="10.6810349"><ele>43.0</ele><time>2026-04-18T14:26:43.184Z</time></trkpt><trkpt lat="43.3086136" lon="10.6808765"><ele>43.0</ele><time>2026-04-18T14:26:44.182Z</time></trkpt><trkpt lat="43.3087469" lon="10.6807146"><ele>43.0</ele><time>2026-04-18T14:26:45.187Z</time></trkpt><trkpt lat="43.30888" lon="10.6805563"><ele>43.0</ele><time>2026-04-18T14:26:46.196Z</time></trkpt><trkpt lat="43.3090129" lon="10.6803943"><ele>42.0</ele><time>2026-04-18T14:26:47.188Z</time></trkpt><trkpt lat="43.3091472" lon="10.6802311"><ele>41.0</ele><time>2026-04-18T14:26:48.19Z</time></trkpt><trkpt lat="43.3092826" lon="10.6800655"><ele>40.0</ele><time>2026-04-18T14:26:49.192Z</time></trkpt><trkpt lat="43.3094188" lon="10.6798961"><ele>40.0</ele><time>2026-04-18T14:26:50.197Z</time></trkpt><trkpt lat="43.3095596" lon="10.6797254"><ele>40.0</ele><time>2026-04-18T14:26:51.174Z</time></trkpt><trkpt lat="43.3097038" lon="10.6795584"><ele>40.0</ele><time>2026-04-18T14:26:52.192Z</time></trkpt><trkpt lat="43.3098432" lon="10.6793867"><ele>39.66666666666667</ele><time>2026-04-18T14:26:53.178Z</time></trkpt><trkpt lat="43.3099885" lon="10.6792204"><ele>39.333333333333336</ele><time>2026-04-18T14:26:54.178Z</time></trkpt><trkpt lat="43.3101282" lon="10.6790609"><ele>39.0</ele><time>2026-04-18T14:26:55.193Z</time></trkpt><trkpt lat="43.3102741" lon="10.6788946"><ele>39.0</ele><time>2026-04-18T14:26:56.195Z</time></trkpt><trkpt lat="43.31042" lon="10.6787238"><ele>39.0</ele><time>2026-04-18T14:26:57.193Z</time></trkpt><trkpt lat="43.3105647" lon="10.6785495"><ele>39.0</ele><time>2026-04-18T14:26:58.187Z</time></trkpt><trkpt lat="43.3107092" lon="10.678375"><ele>39.0</ele><time>2026-04-18T14:26:59.198Z</time></trkpt><trkpt lat="43.3108557" lon="10.6782082"><ele>39.0</ele><time>2026-04-18T14:27:00.191Z</time></trkpt><trkpt lat="43.3110006" lon="10.6780354"><ele>39.0</ele><time>2026-04-18T14:27:01.202Z</time></trkpt><trkpt lat="43.3111402" lon="10.6778608"><ele>38.666666666666664</ele><time>2026-04-18T14:27:02.212Z</time></trkpt><trkpt lat="43.3112781" lon="10.677695"><ele>38.33333333333333</ele><time>2026-04-18T14:27:03.184Z</time></trkpt><trkpt lat="43.3114154" lon="10.6775298"><ele>38.0</ele><time>2026-04-18T14:27:04.181Z</time></trkpt><trkpt lat="43.3115525" lon="10.6773654"><ele>37.666666666666664</ele><time>2026-04-18T14:27:05.185Z</time></trkpt><trkpt lat="43.3116882" lon="10.6772004"><ele>37.333333333333336</ele><time>2026-04-18T14:27:06.178Z</time></trkpt><trkpt lat="43.3118259" lon="10.677032"><ele>37.0</ele><time>2026-04-18T14:27:07.195Z</time></trkpt><trkpt lat="43.311963" lon="10.6768709"><ele>37.333333333333336</ele><time>2026-04-18T14:27:08.183Z</time></trkpt><trkpt lat="43.3120934" lon="10.6767108"><ele>37.666666666666664</ele><time>2026-04-18T14:27:09.174Z</time></trkpt><trkpt lat="43.3122357" lon="10.6765458"><ele>38.0</ele><time>2026-04-18T14:27:10.191Z</time></trkpt><trkpt lat="43.3123706" lon="10.6763917"><ele>38.0</ele><time>2026-04-18T14:27:11.196Z</time></trkpt><trkpt lat="43.3125008" lon="10.6762335"><ele>38.0</ele><time>2026-04-18T14:27:12.189Z</time></trkpt><trkpt lat="43.312632" lon="10.6760744"><ele>38.0</ele><time>2026-04-18T14:27:13.188Z</time></trkpt><trkpt lat="43.3127676" lon="10.6759075"><ele>38.33333333333333</ele><time>2026-04-18T14:27:14.184Z</time></trkpt><trkpt lat="43.3128965" lon="10.6757396"><ele>38.666666666666664</ele><time>2026-04-18T14:27:15.19Z</time></trkpt><trkpt lat="43.3130288" lon="10.6755785"><ele>39.0</ele><time>2026-04-18T14:27:16.196Z</time></trkpt><trkpt lat="43.3131673" lon="10.6754153"><ele>39.666666666666664</ele><time>2026-04-18T14:27:17.193Z</time></trkpt><trkpt lat="43.313302" lon="10.6752544"><ele>40.33333333333333</ele><time>2026-04-18T14:27:18.186Z</time></trkpt><trkpt lat="43.3134348" lon="10.6750962"><ele>41.0</ele><time>2026-04-18T14:27:19.192Z</time></trkpt><trkpt lat="43.3135667" lon="10.6749332"><ele>41.0</ele><time>2026-04-18T14:27:20.183Z</time></trkpt><trkpt lat="43.3137003" lon="10.6747716"><ele>41.0</ele><time>2026-04-18T14:27:21.207Z</time></trkpt><trkpt lat="43.3138337" lon="10.6746095"><ele>41.0</ele><time>2026-04-18T14:27:22.193Z</time></trkpt><trkpt lat="43.3139658" lon="10.6744482"><ele>40.0</ele><time>2026-04-18T14:27:23.19Z</time></trkpt><trkpt lat="43.3140971" lon="10.674294"><ele>39.0</ele><time>2026-04-18T14:27:24.186Z</time></trkpt><trkpt lat="43.3142315" lon="10.6741393"><ele>38.0</ele><time>2026-04-18T14:27:25.187Z</time></trkpt><trkpt lat="43.3143656" lon="10.673989"><ele>38.0</ele><time>2026-04-18T14:27:26.191Z</time></trkpt><trkpt lat="43.3145002" lon="10.6738405"><ele>38.0</ele><time>2026-04-18T14:27:27.199Z</time></trkpt><trkpt lat="43.3146379" lon="10.6736914"><ele>38.0</ele><time>2026-04-18T14:27:28.195Z</time></trkpt><trkpt lat="43.3147841" lon="10.6735551"><ele>39.0</ele><time>2026-04-18T14:27:29.199Z</time></trkpt><trkpt lat="43.3149331" lon="10.673417"><ele>40.0</ele><time>2026-04-18T14:27:30.194Z</time></trkpt><trkpt lat="43.3150854" lon="10.6732916"><ele>41.0</ele><time>2026-04-18T14:27:31.188Z</time></trkpt><trkpt lat="43.3152384" lon="10.6731611"><ele>41.0</ele><time>2026-04-18T14:27:32.204Z</time></trkpt><trkpt lat="43.3153943" lon="10.6730273"><ele>41.0</ele><time>2026-04-18T14:27:33.198Z</time></trkpt><trkpt lat="43.315547" lon="10.6728934"><ele>41.0</ele><time>2026-04-18T14:27:34.189Z</time></trkpt><trkpt lat="43.3156957" lon="10.6727616"><ele>40.33333333333333</ele><time>2026-04-18T14:27:35.191Z</time></trkpt><trkpt lat="43.3158447" lon="10.6726329"><ele>39.666666666666664</ele><time>2026-04-18T14:27:36.191Z</time></trkpt><trkpt lat="43.3159921" lon="10.6725114"><ele>39.0</ele><time>2026-04-18T14:27:37.203Z</time></trkpt><trkpt lat="43.3161404" lon="10.6723879"><ele>39.0</ele><time>2026-04-18T14:27:38.199Z</time></trkpt><trkpt lat="43.3162881" lon="10.6722638"><ele>39.0</ele><time>2026-04-18T14:27:39.188Z</time></trkpt><trkpt lat="43.3164387" lon="10.6721332"><ele>39.0</ele><time>2026-04-18T14:27:40.19Z</time></trkpt><trkpt lat="43.316586" lon="10.6720059"><ele>39.0</ele><time>2026-04-18T14:27:41.193Z</time></trkpt><trkpt lat="43.3167359" lon="10.671883"><ele>39.0</ele><time>2026-04-18T14:27:42.192Z</time></trkpt><trkpt lat="43.3168876" lon="10.6717545"><ele>39.0</ele><time>2026-04-18T14:27:43.192Z</time></trkpt><trkpt lat="43.3170416" lon="10.6716226"><ele>39.0</ele><time>2026-04-18T14:27:44.191Z</time></trkpt><trkpt lat="43.3171952" lon="10.6714904"><ele>39.0</ele><time>2026-04-18T14:27:45.192Z</time></trkpt><trkpt lat="43.3173576" lon="10.6713598"><ele>39.0</ele><time>2026-04-18T14:27:46.189Z</time></trkpt><trkpt lat="43.3175175" lon="10.6712344"><ele>38.666666666666664</ele><time>2026-04-18T14:27:47.197Z</time></trkpt><trkpt lat="43.3176816" lon="10.6711132"><ele>38.33333333333333</ele><time>2026-04-18T14:27:48.203Z</time></trkpt><trkpt lat="43.3178458" lon="10.6709965"><ele>38.0</ele><time>2026-04-18T14:27:49.204Z</time></trkpt><trkpt lat="43.3180109" lon="10.6708946"><ele>37.33333333333333</ele><time>2026-04-18T14:27:50.198Z</time></trkpt><trkpt lat="43.3181773" lon="10.6707935"><ele>36.666666666666664</ele><time>2026-04-18T14:27:51.193Z</time></trkpt><trkpt lat="43.3183496" lon="10.6707049"><ele>36.0</ele><time>2026-04-18T14:27:52.195Z</time></trkpt><trkpt lat="43.3185204" lon="10.6706201"><ele>36.0</ele><time>2026-04-18T14:27:53.199Z</time></trkpt><trkpt lat="43.3186966" lon="10.670532"><ele>36.0</ele><time>2026-04-18T14:27:54.192Z</time></trkpt><trkpt lat="43.3188762" lon="10.6704506"><ele>36.0</ele><time>2026-04-18T14:27:55.195Z</time></trkpt><trkpt lat="43.3190594" lon="10.6703722"><ele>36.0</ele><time>2026-04-18T14:27:56.196Z</time></trkpt><trkpt lat="43.3192355" lon="10.6702883"><ele>36.0</ele><time>2026-04-18T14:27:57.196Z</time></trkpt><trkpt lat="43.3194135" lon="10.6702254"><ele>36.0</ele><time>2026-04-18T14:27:58.196Z</time></trkpt><trkpt lat="43.3195957" lon="10.6701621"><ele>36.333333333333336</ele><time>2026-04-18T14:27:59.187Z</time></trkpt><trkpt lat="43.3197787" lon="10.670101"><ele>36.66666666666667</ele><time>2026-04-18T14:28:00.2Z</time></trkpt><trkpt lat="43.3199623" lon="10.670055"><ele>37.0</ele><time>2026-04-18T14:28:01.198Z</time></trkpt><trkpt lat="43.320147" lon="10.6700104"><ele>37.0</ele><time>2026-04-18T14:28:02.193Z</time></trkpt><trkpt lat="43.3203346" lon="10.6699665"><ele>37.0</ele><time>2026-04-18T14:28:03.184Z</time></trkpt><trkpt lat="43.3205211" lon="10.6699309"><ele>37.0</ele><time>2026-04-18T14:28:04.194Z</time></trkpt><trkpt lat="43.3207067" lon="10.6698977"><ele>37.0</ele><time>2026-04-18T14:28:05.196Z</time></trkpt><trkpt lat="43.3208966" lon="10.669877"><ele>37.0</ele><time>2026-04-18T14:28:06.181Z</time></trkpt><trkpt lat="43.3210828" lon="10.6698515"><ele>37.0</ele><time>2026-04-18T14:28:07.201Z</time></trkpt><trkpt lat="43.3212678" lon="10.6698358"><ele>37.0</ele><time>2026-04-18T14:28:08.182Z</time></trkpt><trkpt lat="43.3214472" lon="10.6698321"><ele>37.0</ele><time>2026-04-18T14:28:09.192Z</time></trkpt><trkpt lat="43.321626" lon="10.669831"><ele>37.0</ele><time>2026-04-18T14:28:10.196Z</time></trkpt><trkpt lat="43.3218096" lon="10.6698328"><ele>37.0</ele><time>2026-04-18T14:28:11.193Z</time></trkpt><trkpt lat="43.3219932" lon="10.6698359"><ele>37.0</ele><time>2026-04-18T14:28:12.184Z</time></trkpt><trkpt lat="43.3221791" lon="10.6698354"><ele>37.0</ele><time>2026-04-18T14:28:13.189Z</time></trkpt><trkpt lat="43.3223686" lon="10.6698333"><ele>37.333333333333336</ele><time>2026-04-18T14:28:14.191Z</time></trkpt><trkpt lat="43.3225495" lon="10.6698339"><ele>37.666666666666664</ele><time>2026-04-18T14:28:15.208Z</time></trkpt><trkpt lat="43.3227267" lon="10.6698346"><ele>38.0</ele><time>2026-04-18T14:28:16.183Z</time></trkpt><trkpt lat="43.3229049" lon="10.6698338"><ele>36.666666666666664</ele><time>2026-04-18T14:28:17.189Z</time></trkpt><trkpt lat="43.3230825" lon="10.6698375"><ele>35.333333333333336</ele><time>2026-04-18T14:28:18.196Z</time></trkpt><trkpt lat="43.3232619" lon="10.6698367"><ele>34.0</ele><time>2026-04-18T14:28:19.183Z</time></trkpt><trkpt lat="43.3234389" lon="10.6698346"><ele>34.0</ele><time>2026-04-18T14:28:20.18Z</time></trkpt><trkpt lat="43.3236238" lon="10.6698291"><ele>34.0</ele><time>2026-04-18T14:28:21.198Z</time></trkpt><trkpt lat="43.3238114" lon="10.6698286"><ele>34.0</ele><time>2026-04-18T14:28:22.188Z</time></trkpt><trkpt lat="43.3240013" lon="10.6698245"><ele>34.66666666666667</ele><time>2026-04-18T14:28:23.2Z</time></trkpt><trkpt lat="43.3241898" lon="10.6698168"><ele>35.333333333333336</ele><time>2026-04-18T14:28:24.188Z</time></trkpt><trkpt lat="43.3243816" lon="10.6698211"><ele>36.0</ele><time>2026-04-18T14:28:25.187Z</time></trkpt><trkpt lat="43.3245735" lon="10.6698428"><ele>36.0</ele><time>2026-04-18T14:28:26.196Z</time></trkpt><trkpt lat="43.3247718" lon="10.6698764"><ele>36.0</ele><time>2026-04-18T14:28:27.197Z</time></trkpt><trkpt lat="43.324968" lon="10.6699119"><ele>36.0</ele><time>2026-04-18T14:28:28.2Z</time></trkpt><trkpt lat="43.3251762" lon="10.6699516"><ele>36.0</ele><time>2026-04-18T14:28:29.188Z</time></trkpt><trkpt lat="43.325382" lon="10.669995"><ele>36.0</ele><time>2026-04-18T14:28:30.192Z</time></trkpt><trkpt lat="43.3255892" lon="10.6700383"><ele>36.0</ele><time>2026-04-18T14:28:31.182Z</time></trkpt><trkpt lat="43.3257903" lon="10.6700847"><ele>36.0</ele><time>2026-04-18T14:28:32.173Z</time></trkpt><trkpt lat="43.3259937" lon="10.6701295"><ele>36.0</ele><time>2026-04-18T14:28:33.184Z</time></trkpt><trkpt lat="43.3261925" lon="10.6701729"><ele>36.0</ele><time>2026-04-18T14:28:34.193Z</time></trkpt><trkpt lat="43.3263895" lon="10.6702096"><ele>35.666666666666664</ele><time>2026-04-18T14:28:35.198Z</time></trkpt><trkpt lat="43.3265832" lon="10.6702442"><ele>35.33333333333333</ele><time>2026-04-18T14:28:36.185Z</time></trkpt><trkpt lat="43.326777" lon="10.6702807"><ele>35.0</ele><time>2026-04-18T14:28:37.204Z</time></trkpt><trkpt lat="43.3269698" lon="10.6703133"><ele>35.666666666666664</ele><time>2026-04-18T14:28:38.195Z</time></trkpt><trkpt lat="43.3271575" lon="10.6703487"><ele>36.333333333333336</ele><time>2026-04-18T14:28:39.199Z</time></trkpt><trkpt lat="43.3273382" lon="10.6703821"><ele>37.0</ele><time>2026-04-18T14:28:40.193Z</time></trkpt><trkpt lat="43.3275092" lon="10.6704137"><ele>37.0</ele><time>2026-04-18T14:28:41.193Z</time></trkpt><trkpt lat="43.3276629" lon="10.670445"><ele>37.0</ele><time>2026-04-18T14:28:42.187Z</time></trkpt><trkpt lat="43.3278026" lon="10.6704714"><ele>37.0</ele><time>2026-04-18T14:28:43.193Z</time></trkpt><trkpt lat="43.3279329" lon="10.6705028"><ele>37.0</ele><time>2026-04-18T14:28:44.18Z</time></trkpt><trkpt lat="43.3280531" lon="10.6705298"><ele>36.75</ele><time>2026-04-18T14:28:45.195Z</time></trkpt><trkpt lat="43.3281725" lon="10.6705517"><ele>36.5</ele><time>2026-04-18T14:28:46.193Z</time></trkpt><trkpt lat="43.3282971" lon="10.6705792"><ele>36.25</ele><time>2026-04-18T14:28:47.192Z</time></trkpt><trkpt lat="43.328417" lon="10.670597"><ele>36.0</ele><time>2026-04-18T14:28:48.18Z</time></trkpt><trkpt lat="43.3285341" lon="10.6706009"><ele>36.0</ele><time>2026-04-18T14:28:49.189Z</time></trkpt><trkpt lat="43.3286413" lon="10.6705967"><ele>36.0</ele><time>2026-04-18T14:28:50.191Z</time></trkpt><trkpt lat="43.3287376" lon="10.6705646"><ele>36.0</ele><time>2026-04-18T14:28:51.194Z</time></trkpt><trkpt lat="43.3288249" lon="10.6705303"><ele>36.0</ele><time>2026-04-18T14:28:52.179Z</time></trkpt><trkpt lat="43.3289085" lon="10.6705023"><ele>36.0</ele><time>2026-04-18T14:28:53.194Z</time></trkpt><trkpt lat="43.32898" lon="10.6705005"><ele>36.2</ele><time>2026-04-18T14:28:54.194Z</time></trkpt><trkpt lat="43.329049" lon="10.6705212"><ele>36.400000000000006</ele><time>2026-04-18T14:28:55.186Z</time></trkpt><trkpt lat="43.3291746" lon="10.6705688"><ele>36.6</ele><time>2026-04-18T14:28:57.195Z</time></trkpt><trkpt lat="43.3292975" lon="10.6705511"><ele>36.800000000000004</ele><time>2026-04-18T14:28:59.192Z</time></trkpt><trkpt lat="43.3293445" lon="10.6704899"><ele>37.0</ele><time>2026-04-18T14:29:00.182Z</time></trkpt><trkpt lat="43.3293621" lon="10.6703803"><ele>36.6</ele><time>2026-04-18T14:29:01.189Z</time></trkpt><trkpt lat="43.3293445" lon="10.6702559"><ele>36.2</ele><time>2026-04-18T14:29:02.188Z</time></trkpt><trkpt lat="43.3292962" lon="10.6701367"><ele>35.8</ele><time>2026-04-18T14:29:03.184Z</time></trkpt><trkpt lat="43.3292382" lon="10.6700107"><ele>35.4</ele><time>2026-04-18T14:29:04.177Z</time></trkpt><trkpt lat="43.3292052" lon="10.6698726"><ele>35.0</ele><time>2026-04-18T14:29:05.195Z</time></trkpt><trkpt lat="43.3291777" lon="10.6697225"><ele>35.0</ele><time>2026-04-18T14:29:06.185Z</time></trkpt><trkpt lat="43.3291509" lon="10.6695586"><ele>35.0</ele><time>2026-04-18T14:29:07.18Z</time></trkpt><trkpt lat="43.3291208" lon="10.6693981"><ele>35.0</ele><time>2026-04-18T14:29:08.181Z</time></trkpt><trkpt lat="43.3290928" lon="10.6692316"><ele>35.0</ele><time>2026-04-18T14:29:09.184Z</time></trkpt><trkpt lat="43.3290615" lon="10.6690776"><ele>34.75</ele><time>2026-04-18T14:29:10.176Z</time></trkpt><trkpt lat="43.3290371" lon="10.6689194"><ele>34.5</ele><time>2026-04-18T14:29:11.188Z</time></trkpt><trkpt lat="43.3290131" lon="10.6687696"><ele>34.25</ele><time>2026-04-18T14:29:12.184Z</time></trkpt><trkpt lat="43.3289846" lon="10.6686129"><ele>34.0</ele><time>2026-04-18T14:29:13.201Z</time></trkpt><trkpt lat="43.3289555" lon="10.6684671"><ele>34.4</ele><time>2026-04-18T14:29:14.177Z</time></trkpt><trkpt lat="43.3289321" lon="10.6683201"><ele>34.8</ele><time>2026-04-18T14:29:15.201Z</time></trkpt><trkpt lat="43.3289128" lon="10.6681735"><ele>35.2</ele><time>2026-04-18T14:29:16.182Z</time></trkpt><trkpt lat="43.3288941" lon="10.6680223"><ele>35.6</ele><time>2026-04-18T14:29:17.203Z</time></trkpt><trkpt lat="43.328874" lon="10.6678797"><ele>36.0</ele><time>2026-04-18T14:29:18.168Z</time></trkpt><trkpt lat="43.3288536" lon="10.6677253"><ele>36.2</ele><time>2026-04-18T14:29:19.193Z</time></trkpt><trkpt lat="43.3288324" lon="10.6675797"><ele>36.400000000000006</ele><time>2026-04-18T14:29:20.18Z</time></trkpt><trkpt lat="43.3288302" lon="10.6674396"><ele>36.6</ele><time>2026-04-18T14:29:21.183Z</time></trkpt><trkpt lat="43.3288203" lon="10.667305"><ele>36.800000000000004</ele><time>2026-04-18T14:29:22.183Z</time></trkpt><trkpt lat="43.3287981" lon="10.6671857"><ele>37.0</ele><time>2026-04-18T14:29:23.179Z</time></trkpt><trkpt lat="43.3287764" lon="10.6670883"><ele>37.0</ele><time>2026-04-18T14:29:24.178Z</time></trkpt><trkpt lat="43.3287127" lon="10.6669845"><ele>37.0</ele><time>2026-04-18T14:29:26.193Z</time></trkpt><trkpt lat="43.3286483" lon="10.6669552"><ele>37.0</ele><time>2026-04-18T14:29:28.191Z</time></trkpt><trkpt lat="43.328598" lon="10.6668997"><ele>37.0</ele><time>2026-04-18T14:29:30.194Z</time></trkpt><trkpt lat="43.3285623" lon="10.6667896"><ele>37.0</ele><time>2026-04-18T14:29:33.178Z</time></trkpt><trkpt lat="43.3285235" lon="10.6667195"><ele>37.0</ele><time>2026-04-18T14:29:48.184Z</time></trkpt><trkpt lat="43.3285786" lon="10.6667702"><ele>37.0</ele><time>2026-04-18T14:30:12.176Z</time></trkpt><trkpt lat="43.3285141" lon="10.666814"><ele>37.0</ele><time>2026-04-18T14:32:07.2Z</time></trkpt><trkpt lat="43.3285417" lon="10.6667324"><ele>37.0</ele><time>2026-04-18T14:32:27.213Z</time></trkpt><trkpt lat="43.3285713" lon="10.6666413"><ele>37.0</ele><time>2026-04-18T14:32:31.185Z</time></trkpt><trkpt lat="43.328603" lon="10.6665481"><ele>37.0</ele><time>2026-04-18T14:32:34.183Z</time></trkpt><trkpt lat="43.3286291" lon="10.6663841"><ele>37.0</ele><time>2026-04-18T14:32:36.187Z</time></trkpt><trkpt lat="43.3286399" lon="10.6662855"><ele>37.0</ele><time>2026-04-18T14:32:37.189Z</time></trkpt><trkpt lat="43.3286361" lon="10.6661776"><ele>37.2</ele><time>2026-04-18T14:32:38.187Z</time></trkpt><trkpt lat="43.328626" lon="10.6660483"><ele>37.400000000000006</ele><time>2026-04-18T14:32:39.184Z</time></trkpt><trkpt lat="43.3286166" lon="10.6659119"><ele>37.599999999999994</ele><time>2026-04-18T14:32:40.193Z</time></trkpt><trkpt lat="43.3286058" lon="10.6657687"><ele>37.8</ele><time>2026-04-18T14:32:41.189Z</time></trkpt><trkpt lat="43.3285967" lon="10.6656164"><ele>38.0</ele><time>2026-04-18T14:32:42.215Z</time></trkpt><trkpt lat="43.3285796" lon="10.665449"><ele>38.0</ele><time>2026-04-18T14:32:43.196Z</time></trkpt><trkpt lat="43.328567" lon="10.6652722"><ele>38.0</ele><time>2026-04-18T14:32:44.198Z</time></trkpt><trkpt lat="43.3285588" lon="10.6650841"><ele>38.0</ele><time>2026-04-18T14:32:45.208Z</time></trkpt><trkpt lat="43.3285431" lon="10.6648888"><ele>38.0</ele><time>2026-04-18T14:32:46.184Z</time></trkpt><trkpt lat="43.3285271" lon="10.6646817"><ele>38.0</ele><time>2026-04-18T14:32:47.198Z</time></trkpt><trkpt lat="43.3285123" lon="10.6644705"><ele>38.0</ele><time>2026-04-18T14:32:48.188Z</time></trkpt><trkpt lat="43.3285075" lon="10.6642625"><ele>38.0</ele><time>2026-04-18T14:32:49.202Z</time></trkpt><trkpt lat="43.3285061" lon="10.6640482"><ele>37.0</ele><time>2026-04-18T14:32:50.194Z</time></trkpt><trkpt lat="43.3285242" lon="10.6638394"><ele>36.0</ele><time>2026-04-18T14:32:51.196Z</time></trkpt><trkpt lat="43.3285629" lon="10.663615"><ele>35.0</ele><time>2026-04-18T14:32:52.181Z</time></trkpt><trkpt lat="43.3286167" lon="10.6633946"><ele>35.0</ele><time>2026-04-18T14:32:53.193Z</time></trkpt><trkpt lat="43.3286791" lon="10.6631961"><ele>35.0</ele><time>2026-04-18T14:32:54.199Z</time></trkpt><trkpt lat="43.3287731" lon="10.6630254"><ele>35.0</ele><time>2026-04-18T14:32:55.21Z</time></trkpt><trkpt lat="43.3288737" lon="10.6628672"><ele>35.0</ele><time>2026-04-18T14:32:56.202Z</time></trkpt><trkpt lat="43.3289904" lon="10.6627251"><ele>35.0</ele><time>2026-04-18T14:32:57.204Z</time></trkpt><trkpt lat="43.3291127" lon="10.6626093"><ele>35.0</ele><time>2026-04-18T14:32:58.209Z</time></trkpt><trkpt lat="43.3292453" lon="10.66251"><ele>35.0</ele><time>2026-04-18T14:32:59.196Z</time></trkpt><trkpt lat="43.3293894" lon="10.6624224"><ele>35.0</ele><time>2026-04-18T14:33:00.192Z</time></trkpt><trkpt lat="43.3295413" lon="10.6623471"><ele>35.0</ele><time>2026-04-18T14:33:01.195Z</time></trkpt><trkpt lat="43.3296915" lon="10.662277"><ele>36.0</ele><time>2026-04-18T14:33:02.183Z</time></trkpt><trkpt lat="43.3298411" lon="10.6622126"><ele>37.0</ele><time>2026-04-18T14:33:03.194Z</time></trkpt><trkpt lat="43.3299937" lon="10.6621415"><ele>38.0</ele><time>2026-04-18T14:33:04.187Z</time></trkpt><trkpt lat="43.3301504" lon="10.6620711"><ele>38.0</ele><time>2026-04-18T14:33:05.188Z</time></trkpt><trkpt lat="43.3303101" lon="10.6619933"><ele>38.0</ele><time>2026-04-18T14:33:06.186Z</time></trkpt><trkpt lat="43.3304696" lon="10.6619106"><ele>38.0</ele><time>2026-04-18T14:33:07.198Z</time></trkpt><trkpt lat="43.3306389" lon="10.6618222"><ele>38.666666666666664</ele><time>2026-04-18T14:33:08.199Z</time></trkpt><trkpt lat="43.3308153" lon="10.661734"><ele>39.333333333333336</ele><time>2026-04-18T14:33:09.202Z</time></trkpt><trkpt lat="43.3309834" lon="10.6616516"><ele>40.0</ele><time>2026-04-18T14:33:10.212Z</time></trkpt><trkpt lat="43.3311472" lon="10.6615605"><ele>40.0</ele><time>2026-04-18T14:33:11.195Z</time></trkpt><trkpt lat="43.3313086" lon="10.6614587"><ele>40.0</ele><time>2026-04-18T14:33:12.19Z</time></trkpt><trkpt lat="43.3314714" lon="10.6613051"><ele>40.0</ele><time>2026-04-18T14:33:13.189Z</time></trkpt><trkpt lat="43.3316331" lon="10.6611346"><ele>38.66666666666667</ele><time>2026-04-18T14:33:14.2Z</time></trkpt><trkpt lat="43.3317895" lon="10.660946"><ele>37.333333333333336</ele><time>2026-04-18T14:33:15.194Z</time></trkpt><trkpt lat="43.3319411" lon="10.6607519"><ele>36.0</ele><time>2026-04-18T14:33:16.199Z</time></trkpt><trkpt lat="43.3320854" lon="10.6605465"><ele>36.0</ele><time>2026-04-18T14:33:17.194Z</time></trkpt><trkpt lat="43.3322213" lon="10.660325"><ele>36.0</ele><time>2026-04-18T14:33:18.201Z</time></trkpt><trkpt lat="43.3323498" lon="10.660104"><ele>36.0</ele><time>2026-04-18T14:33:19.194Z</time></trkpt><trkpt lat="43.3324813" lon="10.6598745"><ele>35.666666666666664</ele><time>2026-04-18T14:33:20.168Z</time></trkpt><trkpt lat="43.332611" lon="10.6596434"><ele>35.33333333333333</ele><time>2026-04-18T14:33:21.194Z</time></trkpt><trkpt lat="43.3327385" lon="10.6594062"><ele>35.0</ele><time>2026-04-18T14:33:22.193Z</time></trkpt><trkpt lat="43.3328706" lon="10.6591667"><ele>35.0</ele><time>2026-04-18T14:33:23.194Z</time></trkpt><trkpt lat="43.3330028" lon="10.6589334"><ele>35.0</ele><time>2026-04-18T14:33:24.188Z</time></trkpt><trkpt lat="43.3331284" lon="10.6586965"><ele>35.0</ele><time>2026-04-18T14:33:25.185Z</time></trkpt><trkpt lat="43.3332596" lon="10.6584527"><ele>34.0</ele><time>2026-04-18T14:33:26.182Z</time></trkpt><trkpt lat="43.3333889" lon="10.6582096"><ele>33.0</ele><time>2026-04-18T14:33:27.204Z</time></trkpt><trkpt lat="43.3335145" lon="10.6579666"><ele>32.0</ele><time>2026-04-18T14:33:28.186Z</time></trkpt><trkpt lat="43.3336416" lon="10.6577326"><ele>32.0</ele><time>2026-04-18T14:33:29.178Z</time></trkpt><trkpt lat="43.3337652" lon="10.6575041"><ele>32.0</ele><time>2026-04-18T14:33:30.169Z</time></trkpt><trkpt lat="43.3338936" lon="10.6572803"><ele>32.0</ele><time>2026-04-18T14:33:31.182Z</time></trkpt><trkpt lat="43.3340184" lon="10.6570601"><ele>32.33333333333333</ele><time>2026-04-18T14:33:32.177Z</time></trkpt><trkpt lat="43.3341459" lon="10.6568433"><ele>32.666666666666664</ele><time>2026-04-18T14:33:33.175Z</time></trkpt><trkpt lat="43.3342647" lon="10.6566278"><ele>33.0</ele><time>2026-04-18T14:33:34.189Z</time></trkpt><trkpt lat="43.334383" lon="10.6564142"><ele>33.0</ele><time>2026-04-18T14:33:35.178Z</time></trkpt><trkpt lat="43.3344941" lon="10.6562137"><ele>33.0</ele><time>2026-04-18T14:33:36.183Z</time></trkpt><trkpt lat="43.3384516" lon="10.6496507"><ele>32.666666666666664</ele><time>2026-04-18T14:34:19.037Z</time></trkpt><trkpt lat="43.3385726" lon="10.649362"><ele>32.33333333333333</ele><time>2026-04-18T14:34:20.17Z</time></trkpt><trkpt lat="43.3386381" lon="10.6491098"><ele>32.0</ele><time>2026-04-18T14:34:21.187Z</time></trkpt><trkpt lat="43.3386911" lon="10.6489363"><ele>32.0</ele><time>2026-04-18T14:34:22.174Z</time></trkpt><trkpt lat="43.3388004" lon="10.6487014"><ele>32.0</ele><time>2026-04-18T14:34:23.177Z</time></trkpt><trkpt lat="43.3388769" lon="10.6484676"><ele>32.0</ele><time>2026-04-18T14:34:24.167Z</time></trkpt><trkpt lat="43.3389521" lon="10.6482267"><ele>32.0</ele><time>2026-04-18T14:34:25.172Z</time></trkpt><trkpt lat="43.3390157" lon="10.6479851"><ele>32.0</ele><time>2026-04-18T14:34:26.178Z</time></trkpt><trkpt lat="43.3390855" lon="10.6477364"><ele>32.0</ele><time>2026-04-18T14:34:27.199Z</time></trkpt><trkpt lat="43.3391449" lon="10.6474835"><ele>32.0</ele><time>2026-04-18T14:34:28.179Z</time></trkpt><trkpt lat="43.3392108" lon="10.6472259"><ele>32.0</ele><time>2026-04-18T14:34:29.187Z</time></trkpt><trkpt lat="43.3392673" lon="10.6469755"><ele>32.0</ele><time>2026-04-18T14:34:30.192Z</time></trkpt><trkpt lat="43.3393217" lon="10.6467269"><ele>32.0</ele><time>2026-04-18T14:34:31.176Z</time></trkpt><trkpt lat="43.3393844" lon="10.6464702"><ele>32.0</ele><time>2026-04-18T14:34:32.186Z</time></trkpt><trkpt lat="43.3394475" lon="10.6462119"><ele>32.0</ele><time>2026-04-18T14:34:33.188Z</time></trkpt><trkpt lat="43.3395128" lon="10.6459528"><ele>31.666666666666664</ele><time>2026-04-18T14:34:34.192Z</time></trkpt><trkpt lat="43.339576" lon="10.6456926"><ele>31.333333333333336</ele><time>2026-04-18T14:34:35.21Z</time></trkpt><trkpt lat="43.3396376" lon="10.6454323"><ele>31.0</ele><time>2026-04-18T14:34:36.21Z</time></trkpt><trkpt lat="43.3397006" lon="10.6451661"><ele>31.0</ele><time>2026-04-18T14:34:37.181Z</time></trkpt><trkpt lat="43.3397627" lon="10.644914"><ele>31.0</ele><time>2026-04-18T14:34:38.192Z</time></trkpt><trkpt lat="43.3398255" lon="10.6446594"><ele>31.0</ele><time>2026-04-18T14:34:39.208Z</time></trkpt><trkpt lat="43.339894" lon="10.6444083"><ele>31.333333333333336</ele><time>2026-04-18T14:34:40.179Z</time></trkpt><trkpt lat="43.3399636" lon="10.6441609"><ele>31.666666666666664</ele><time>2026-04-18T14:34:41.204Z</time></trkpt><trkpt lat="43.3400385" lon="10.6439145"><ele>32.0</ele><time>2026-04-18T14:34:42.183Z</time></trkpt><trkpt lat="43.3401268" lon="10.6436734"><ele>31.666666666666664</ele><time>2026-04-18T14:34:43.195Z</time></trkpt><trkpt lat="43.3402283" lon="10.6434452"><ele>31.333333333333336</ele><time>2026-04-18T14:34:44.19Z</time></trkpt><trkpt lat="43.340339" lon="10.6432247"><ele>31.0</ele><time>2026-04-18T14:34:45.193Z</time></trkpt><trkpt lat="43.3404632" lon="10.6430167"><ele>30.666666666666668</ele><time>2026-04-18T14:34:46.193Z</time></trkpt><trkpt lat="43.3405934" lon="10.6428254"><ele>30.333333333333336</ele><time>2026-04-18T14:34:47.2Z</time></trkpt><trkpt lat="43.3407293" lon="10.6426488"><ele>30.0</ele><time>2026-04-18T14:34:48.193Z</time></trkpt><trkpt lat="43.3408648" lon="10.6424792"><ele>30.0</ele><time>2026-04-18T14:34:49.208Z</time></trkpt><trkpt lat="43.3410021" lon="10.6423059"><ele>30.0</ele><time>2026-04-18T14:34:50.179Z</time></trkpt><trkpt lat="43.3453963" lon="10.6353777"><ele>30.5</ele><time>2026-04-18T14:35:28.177Z</time></trkpt><trkpt lat="43.3455157" lon="10.6352622"><ele>31.0</ele><time>2026-04-18T14:35:30.179Z</time></trkpt><trkpt lat="43.3455758" lon="10.6351648"><ele>31.5</ele><time>2026-04-18T14:35:31.166Z</time></trkpt><trkpt lat="43.3456306" lon="10.6350695"><ele>32.0</ele><time>2026-04-18T14:35:32.166Z</time></trkpt><trkpt lat="43.3457313" lon="10.6348922"><ele>33.14285714285714</ele><time>2026-04-18T14:35:34.177Z</time></trkpt><trkpt lat="43.3457681" lon="10.6348075"><ele>34.285714285714285</ele><time>2026-04-18T14:35:35.179Z</time></trkpt><trkpt lat="43.3458174" lon="10.6347349"><ele>35.42857142857143</ele><time>2026-04-18T14:35:38.18Z</time></trkpt><trkpt lat="43.3458384" lon="10.6346501"><ele>36.57142857142857</ele><time>2026-04-18T14:35:43.178Z</time></trkpt><trkpt lat="43.3458187" lon="10.6345593"><ele>37.714285714285715</ele><time>2026-04-18T14:35:47.192Z</time></trkpt><trkpt lat="43.3457576" lon="10.6346101"><ele>38.857142857142854</ele><time>2026-04-18T14:36:04.193Z</time></trkpt><trkpt lat="43.3457043" lon="10.6347117"><ele>40.0</ele><time>2026-04-18T14:36:07.189Z</time></trkpt><trkpt lat="43.3456309" lon="10.6348674"><ele>40.0</ele><time>2026-04-18T14:36:09.188Z</time></trkpt><trkpt lat="43.3455567" lon="10.6350179"><ele>40.0</ele><time>2026-04-18T14:36:10.191Z</time></trkpt><trkpt lat="43.3454749" lon="10.6351521"><ele>40.0</ele><time>2026-04-18T14:36:11.174Z</time></trkpt><trkpt lat="43.3453881" lon="10.6353018"><ele>40.0</ele><time>2026-04-18T14:36:12.184Z</time></trkpt><trkpt lat="43.3452948" lon="10.6354529"><ele>38.66666666666667</ele><time>2026-04-18T14:36:13.188Z</time></trkpt><trkpt lat="43.3451987" lon="10.6356192"><ele>37.333333333333336</ele><time>2026-04-18T14:36:14.177Z</time></trkpt><trkpt lat="43.345093" lon="10.6358064"><ele>36.0</ele><time>2026-04-18T14:36:15.178Z</time></trkpt><trkpt lat="43.3449894" lon="10.6359942"><ele>33.0</ele><time>2026-04-18T14:36:16.177Z</time></trkpt><trkpt lat="43.3448866" lon="10.636201"><ele>30.0</ele><time>2026-04-18T14:36:17.179Z</time></trkpt><trkpt lat="43.3447825" lon="10.6363894"><ele>27.0</ele><time>2026-04-18T14:36:18.183Z</time></trkpt><trkpt lat="43.3446774" lon="10.6365807"><ele>27.0</ele><time>2026-04-18T14:36:19.174Z</time></trkpt><trkpt lat="43.3445729" lon="10.6367831"><ele>27.0</ele><time>2026-04-18T14:36:20.18Z</time></trkpt><trkpt lat="43.3444662" lon="10.6370076"><ele>27.0</ele><time>2026-04-18T14:36:21.18Z</time></trkpt><trkpt lat="43.3443639" lon="10.6372484"><ele>29.0</ele><time>2026-04-18T14:36:22.186Z</time></trkpt><trkpt lat="43.3442597" lon="10.6374881"><ele>31.0</ele><time>2026-04-18T14:36:23.178Z</time></trkpt><trkpt lat="43.3441593" lon="10.6377153"><ele>33.0</ele><time>2026-04-18T14:36:24.18Z</time></trkpt><trkpt lat="43.3440655" lon="10.637932"><ele>31.666666666666664</ele><time>2026-04-18T14:36:25.199Z</time></trkpt><trkpt lat="43.3439739" lon="10.6381465"><ele>30.333333333333332</ele><time>2026-04-18T14:36:26.184Z</time></trkpt><trkpt lat="43.343876" lon="10.6383681"><ele>29.0</ele><time>2026-04-18T14:36:27.187Z</time></trkpt><trkpt lat="43.3437767" lon="10.6386014"><ele>30.333333333333332</ele><time>2026-04-18T14:36:28.19Z</time></trkpt><trkpt lat="43.3436594" lon="10.6388388"><ele>31.666666666666664</ele><time>2026-04-18T14:36:29.186Z</time></trkpt><trkpt lat="43.3435238" lon="10.639084"><ele>33.0</ele><time>2026-04-18T14:36:30.191Z</time></trkpt><trkpt lat="43.3433832" lon="10.6393256"><ele>33.0</ele><time>2026-04-18T14:36:31.18Z</time></trkpt><trkpt lat="43.3432357" lon="10.6395454"><ele>33.0</ele><time>2026-04-18T14:36:32.193Z</time></trkpt><trkpt lat="43.3430957" lon="10.6397465"><ele>33.0</ele><time>2026-04-18T14:36:33.182Z</time></trkpt><trkpt lat="43.3429678" lon="10.6399275"><ele>33.0</ele><time>2026-04-18T14:36:34.197Z</time></trkpt><trkpt lat="43.3428449" lon="10.6400874"><ele>33.0</ele><time>2026-04-18T14:36:35.189Z</time></trkpt><trkpt lat="43.3427267" lon="10.6402385"><ele>33.0</ele><time>2026-04-18T14:36:36.197Z</time></trkpt><trkpt lat="43.3426082" lon="10.6403868"><ele>35.0</ele><time>2026-04-18T14:36:37.195Z</time></trkpt><trkpt lat="43.3424885" lon="10.6405329"><ele>37.0</ele><time>2026-04-18T14:36:38.187Z</time></trkpt><trkpt lat="43.3423727" lon="10.6406747"><ele>39.0</ele><time>2026-04-18T14:36:39.179Z</time></trkpt><trkpt lat="43.3422507" lon="10.6408195"><ele>37.333333333333336</ele><time>2026-04-18T14:36:40.192Z</time></trkpt><trkpt lat="43.3421286" lon="10.6409626"><ele>35.66666666666667</ele><time>2026-04-18T14:36:41.194Z</time></trkpt><trkpt lat="43.3420086" lon="10.6411032"><ele>34.0</ele><time>2026-04-18T14:36:42.196Z</time></trkpt><trkpt lat="43.3418875" lon="10.6412432"><ele>34.0</ele><time>2026-04-18T14:36:43.196Z</time></trkpt><trkpt lat="43.3417709" lon="10.6413824"><ele>34.0</ele><time>2026-04-18T14:36:44.186Z</time></trkpt><trkpt lat="43.3416551" lon="10.6415213"><ele>34.0</ele><time>2026-04-18T14:36:45.19Z</time></trkpt><trkpt lat="43.3415386" lon="10.6416602"><ele>34.0</ele><time>2026-04-18T14:36:46.179Z</time></trkpt><trkpt lat="43.3414226" lon="10.641796"><ele>34.0</ele><time>2026-04-18T14:36:47.196Z</time></trkpt><trkpt lat="43.3413054" lon="10.6419347"><ele>34.0</ele><time>2026-04-18T14:36:48.199Z</time></trkpt><trkpt lat="43.3411911" lon="10.6420773"><ele>32.66666666666667</ele><time>2026-04-18T14:36:49.188Z</time></trkpt><trkpt lat="43.34107" lon="10.642215"><ele>31.333333333333336</ele><time>2026-04-18T14:36:50.19Z</time></trkpt><trkpt lat="43.3409498" lon="10.6423641"><ele>30.0</ele><time>2026-04-18T14:36:51.183Z</time></trkpt><trkpt lat="43.3408293" lon="10.6425082"><ele>30.0</ele><time>2026-04-18T14:36:52.202Z</time></trkpt><trkpt lat="43.340714" lon="10.6426554"><ele>30.0</ele><time>2026-04-18T14:36:53.164Z</time></trkpt><trkpt lat="43.3406003" lon="10.6427994"><ele>30.0</ele><time>2026-04-18T14:36:54.187Z</time></trkpt><trkpt lat="43.3404932" lon="10.6429416"><ele>30.25</ele><time>2026-04-18T14:36:55.17Z</time></trkpt><trkpt lat="43.3403941" lon="10.6430772"><ele>30.5</ele><time>2026-04-18T14:36:56.187Z</time></trkpt><trkpt lat="43.3403064" lon="10.6432228"><ele>30.75</ele><time>2026-04-18T14:36:57.191Z</time></trkpt><trkpt lat="43.3402287" lon="10.6433598"><ele>31.0</ele><time>2026-04-18T14:36:58.188Z</time></trkpt><trkpt lat="43.3401609" lon="10.6435015"><ele>31.200000000000003</ele><time>2026-04-18T14:36:59.18Z</time></trkpt><trkpt lat="43.340101" lon="10.6436496"><ele>31.400000000000002</ele><time>2026-04-18T14:37:00.183Z</time></trkpt><trkpt lat="43.3400463" lon="10.6437863"><ele>31.6</ele><time>2026-04-18T14:37:01.184Z</time></trkpt><trkpt lat="43.340006" lon="10.643911"><ele>31.8</ele><time>2026-04-18T14:37:02.193Z</time></trkpt><trkpt lat="43.3399916" lon="10.6440277"><ele>32.0</ele><time>2026-04-18T14:37:03.179Z</time></trkpt><trkpt lat="43.3400031" lon="10.6441312"><ele>31.999999999999996</ele><time>2026-04-18T14:37:04.191Z</time></trkpt><trkpt lat="43.3400546" lon="10.6442161"><ele>32.0</ele><time>2026-04-18T14:37:05.193Z</time></trkpt><trkpt lat="43.3401002" lon="10.6443219"><ele>32.0</ele><time>2026-04-18T14:37:06.188Z</time></trkpt><trkpt lat="43.3401356" lon="10.6444467"><ele>32.0</ele><time>2026-04-18T14:37:07.184Z</time></trkpt><trkpt lat="43.3401508" lon="10.6445736"><ele>31.999999999999996</ele><time>2026-04-18T14:37:08.213Z</time></trkpt><trkpt lat="43.3401552" lon="10.6446818"><ele>32.0</ele><time>2026-04-18T14:37:09.206Z</time></trkpt><trkpt lat="43.3402055" lon="10.6448139"><ele>31.8</ele><time>2026-04-18T14:37:11.195Z</time></trkpt><trkpt lat="43.3402872" lon="10.6448452"><ele>31.6</ele><time>2026-04-18T14:37:13.179Z</time></trkpt><trkpt lat="43.3404195" lon="10.6449166"><ele>31.400000000000002</ele><time>2026-04-18T14:37:15.185Z</time></trkpt><trkpt lat="43.3405029" lon="10.6449602"><ele>31.200000000000003</ele><time>2026-04-18T14:37:16.177Z</time></trkpt><trkpt lat="43.3405867" lon="10.6450264"><ele>31.0</ele><time>2026-04-18T14:37:17.201Z</time></trkpt><trkpt lat="43.3406832" lon="10.6450954"><ele>31.5</ele><time>2026-04-18T14:37:18.201Z</time></trkpt><trkpt lat="43.3407754" lon="10.6451847"><ele>32.0</ele><time>2026-04-18T14:37:19.2Z</time></trkpt><trkpt lat="43.3408791" lon="10.645282"><ele>32.5</ele><time>2026-04-18T14:37:20.191Z</time></trkpt><trkpt lat="43.3409837" lon="10.6453901"><ele>33.0</ele><time>2026-04-18T14:37:21.193Z</time></trkpt><trkpt lat="43.341093" lon="10.6454982"><ele>33.0</ele><time>2026-04-18T14:37:22.198Z</time></trkpt><trkpt lat="43.3411908" lon="10.6455958"><ele>33.0</ele><time>2026-04-18T14:37:23.183Z</time></trkpt><trkpt lat="43.3412917" lon="10.6456861"><ele>33.0</ele><time>2026-04-18T14:37:24.185Z</time></trkpt><trkpt lat="43.3413929" lon="10.6457772"><ele>33.0</ele><time>2026-04-18T14:37:25.191Z</time></trkpt><trkpt lat="43.3414872" lon="10.6458695"><ele>32.75</ele><time>2026-04-18T14:37:26.196Z</time></trkpt><trkpt lat="43.3415822" lon="10.6459616"><ele>32.5</ele><time>2026-04-18T14:37:27.177Z</time></trkpt><trkpt lat="43.3416761" lon="10.646054"><ele>32.25</ele><time>2026-04-18T14:37:28.194Z</time></trkpt><trkpt lat="43.3417669" lon="10.6461444"><ele>32.0</ele><time>2026-04-18T14:37:29.201Z</time></trkpt><trkpt lat="43.3418625" lon="10.6462209"><ele>32.0</ele><time>2026-04-18T14:37:30.194Z</time></trkpt><trkpt lat="43.3419616" lon="10.6462868"><ele>32.0</ele><time>2026-04-18T14:37:31.195Z</time></trkpt><trkpt lat="43.342073" lon="10.646346"><ele>32.0</ele><time>2026-04-18T14:37:32.207Z</time></trkpt><trkpt lat="43.3421929" lon="10.6463905"><ele>32.0</ele><time>2026-04-18T14:37:33.187Z</time></trkpt><trkpt lat="43.3423141" lon="10.646433"><ele>33.0</ele><time>2026-04-18T14:37:34.196Z</time></trkpt><trkpt lat="43.3424379" lon="10.6464762"><ele>34.0</ele><time>2026-04-18T14:37:35.195Z</time></trkpt><trkpt lat="43.3425604" lon="10.6465173"><ele>35.0</ele><time>2026-04-18T14:37:36.203Z</time></trkpt><trkpt lat="43.3426801" lon="10.6465658"><ele>36.0</ele><time>2026-04-18T14:37:37.191Z</time></trkpt><trkpt lat="43.3427984" lon="10.646618"><ele>36.0</ele><time>2026-04-18T14:37:38.201Z</time></trkpt><trkpt lat="43.3429128" lon="10.6466675"><ele>36.0</ele><time>2026-04-18T14:37:39.183Z</time></trkpt><trkpt lat="43.3430322" lon="10.6466944"><ele>36.0</ele><time>2026-04-18T14:37:40.193Z</time></trkpt><trkpt lat="43.3431541" lon="10.6467029"><ele>36.0</ele><time>2026-04-18T14:37:41.187Z</time></trkpt><trkpt lat="43.3432758" lon="10.6467052"><ele>36.75</ele><time>2026-04-18T14:37:42.199Z</time></trkpt><trkpt lat="43.3433979" lon="10.6467144"><ele>37.5</ele><time>2026-04-18T14:37:43.194Z</time></trkpt><trkpt lat="43.3435222" lon="10.6467183"><ele>38.25</ele><time>2026-04-18T14:37:44.196Z</time></trkpt><trkpt lat="43.3436484" lon="10.6467196"><ele>39.0</ele><time>2026-04-18T14:37:45.19Z</time></trkpt><trkpt lat="43.3437745" lon="10.6467263"><ele>39.0</ele><time>2026-04-18T14:37:46.198Z</time></trkpt><trkpt lat="43.343898" lon="10.6467508"><ele>39.0</ele><time>2026-04-18T14:37:47.191Z</time></trkpt><trkpt lat="43.3440207" lon="10.6467849"><ele>39.0</ele><time>2026-04-18T14:37:48.204Z</time></trkpt><trkpt lat="43.3441488" lon="10.6468158"><ele>39.0</ele><time>2026-04-18T14:37:49.185Z</time></trkpt><trkpt lat="43.3442812" lon="10.6468507"><ele>39.0</ele><time>2026-04-18T14:37:50.193Z</time></trkpt><trkpt lat="43.3444056" lon="10.6468833"><ele>39.0</ele><time>2026-04-18T14:37:51.186Z</time></trkpt><trkpt lat="43.3445274" lon="10.6469168"><ele>39.0</ele><time>2026-04-18T14:37:52.197Z</time></trkpt><trkpt lat="43.3446522" lon="10.6469482"><ele>39.0</ele><time>2026-04-18T14:37:53.192Z</time></trkpt><trkpt lat="43.3447784" lon="10.6469756"><ele>39.0</ele><time>2026-04-18T14:37:54.199Z</time></trkpt><trkpt lat="43.3449047" lon="10.6470089"><ele>39.0</ele><time>2026-04-18T14:37:55.191Z</time></trkpt><trkpt lat="43.3450295" lon="10.6470498"><ele>39.0</ele><time>2026-04-18T14:37:56.191Z</time></trkpt><trkpt lat="43.3451509" lon="10.6470999"><ele>39.0</ele><time>2026-04-18T14:37:57.206Z</time></trkpt><trkpt lat="43.3452704" lon="10.6471518"><ele>39.0</ele><time>2026-04-18T14:37:58.203Z</time></trkpt><trkpt lat="43.3453865" lon="10.6472039"><ele>39.0</ele><time>2026-04-18T14:37:59.184Z</time></trkpt><trkpt lat="43.3454988" lon="10.6472432"><ele>39.0</ele><time>2026-04-18T14:38:00.201Z</time></trkpt><trkpt lat="43.3456044" lon="10.6472666"><ele>39.0</ele><time>2026-04-18T14:38:01.185Z</time></trkpt><trkpt lat="43.3457056" lon="10.6472911"><ele>39.0</ele><time>2026-04-18T14:38:02.186Z</time></trkpt><trkpt lat="43.3457989" lon="10.6473176"><ele>39.8</ele><time>2026-04-18T14:38:03.183Z</time></trkpt><trkpt lat="43.3458975" lon="10.6473492"><ele>40.599999999999994</ele><time>2026-04-18T14:38:04.199Z</time></trkpt><trkpt lat="43.3460003" lon="10.6473663"><ele>41.4</ele><time>2026-04-18T14:38:05.187Z</time></trkpt><trkpt lat="43.3461038" lon="10.6473817"><ele>42.199999999999996</ele><time>2026-04-18T14:38:06.187Z</time></trkpt><trkpt lat="43.3462093" lon="10.6474035"><ele>43.0</ele><time>2026-04-18T14:38:07.186Z</time></trkpt><trkpt lat="43.346312" lon="10.6474288"><ele>42.75</ele><time>2026-04-18T14:38:08.196Z</time></trkpt><trkpt lat="43.3464292" lon="10.6474778"><ele>42.5</ele><time>2026-04-18T14:38:09.189Z</time></trkpt><trkpt lat="43.3465546" lon="10.6475317"><ele>42.25</ele><time>2026-04-18T14:38:10.199Z</time></trkpt><trkpt lat="43.3466854" lon="10.6475907"><ele>42.0</ele><time>2026-04-18T14:38:11.181Z</time></trkpt><trkpt lat="43.3468156" lon="10.6476434"><ele>42.0</ele><time>2026-04-18T14:38:12.198Z</time></trkpt><trkpt lat="43.3469429" lon="10.6477012"><ele>42.0</ele><time>2026-04-18T14:38:13.186Z</time></trkpt><trkpt lat="43.3470654" lon="10.6477555"><ele>42.0</ele><time>2026-04-18T14:38:14.203Z</time></trkpt><trkpt lat="43.3471857" lon="10.6478076"><ele>42.0</ele><time>2026-04-18T14:38:15.198Z</time></trkpt><trkpt lat="43.3473099" lon="10.64786"><ele>41.25</ele><time>2026-04-18T14:38:16.185Z</time></trkpt><trkpt lat="43.3474339" lon="10.6479169"><ele>40.5</ele><time>2026-04-18T14:38:17.188Z</time></trkpt><trkpt lat="43.3475656" lon="10.6479706"><ele>39.75</ele><time>2026-04-18T14:38:18.191Z</time></trkpt><trkpt lat="43.3476998" lon="10.6480183"><ele>39.0</ele><time>2026-04-18T14:38:19.19Z</time></trkpt><trkpt lat="43.3478351" lon="10.6480728"><ele>39.0</ele><time>2026-04-18T14:38:20.191Z</time></trkpt><trkpt lat="43.3479636" lon="10.648127"><ele>39.0</ele><time>2026-04-18T14:38:21.199Z</time></trkpt><trkpt lat="43.3480924" lon="10.6481888"><ele>39.0</ele><time>2026-04-18T14:38:22.191Z</time></trkpt><trkpt lat="43.3482245" lon="10.6482551"><ele>39.0</ele><time>2026-04-18T14:38:23.19Z</time></trkpt><trkpt lat="43.3483565" lon="10.6483073"><ele>39.25</ele><time>2026-04-18T14:38:24.197Z</time></trkpt><trkpt lat="43.3484949" lon="10.6483715"><ele>39.5</ele><time>2026-04-18T14:38:25.181Z</time></trkpt><trkpt lat="43.3486367" lon="10.6484228"><ele>39.75</ele><time>2026-04-18T14:38:26.193Z</time></trkpt><trkpt lat="43.3487756" lon="10.6484796"><ele>40.0</ele><time>2026-04-18T14:38:27.192Z</time></trkpt><trkpt lat="43.3489169" lon="10.6485364"><ele>40.0</ele><time>2026-04-18T14:38:28.2Z</time></trkpt><trkpt lat="43.3490553" lon="10.648596"><ele>40.0</ele><time>2026-04-18T14:38:29.2Z</time></trkpt><trkpt lat="43.3491999" lon="10.6486586"><ele>40.0</ele><time>2026-04-18T14:38:30.198Z</time></trkpt><trkpt lat="43.3493436" lon="10.6487171"><ele>40.0</ele><time>2026-04-18T14:38:31.177Z</time></trkpt><trkpt lat="43.3494801" lon="10.6487767"><ele>40.0</ele><time>2026-04-18T14:38:32.19Z</time></trkpt><trkpt lat="43.3496154" lon="10.648835"><ele>40.0</ele><time>2026-04-18T14:38:33.196Z</time></trkpt><trkpt lat="43.3497508" lon="10.6488947"><ele>40.0</ele><time>2026-04-18T14:38:34.191Z</time></trkpt><trkpt lat="43.3498897" lon="10.6489635"><ele>40.0</ele><time>2026-04-18T14:38:35.188Z</time></trkpt><trkpt lat="43.3500321" lon="10.6490391"><ele>41.333333333333336</ele><time>2026-04-18T14:38:36.185Z</time></trkpt><trkpt lat="43.3501774" lon="10.6491186"><ele>42.666666666666664</ele><time>2026-04-18T14:38:37.183Z</time></trkpt><trkpt lat="43.350321" lon="10.6491998"><ele>44.0</ele><time>2026-04-18T14:38:38.188Z</time></trkpt><trkpt lat="43.3504646" lon="10.6492745"><ele>44.0</ele><time>2026-04-18T14:38:39.186Z</time></trkpt><trkpt lat="43.3506107" lon="10.6493502"><ele>44.0</ele><time>2026-04-18T14:38:40.181Z</time></trkpt><trkpt lat="43.3507526" lon="10.6494252"><ele>44.0</ele><time>2026-04-18T14:38:41.192Z</time></trkpt><trkpt lat="43.3508907" lon="10.649491"><ele>44.25</ele><time>2026-04-18T14:38:42.179Z</time></trkpt><trkpt lat="43.3510204" lon="10.6495568"><ele>44.5</ele><time>2026-04-18T14:38:43.205Z</time></trkpt><trkpt lat="43.3511476" lon="10.649622"><ele>44.75</ele><time>2026-04-18T14:38:44.186Z</time></trkpt><trkpt lat="43.351269" lon="10.6496804"><ele>45.0</ele><time>2026-04-18T14:38:45.195Z</time></trkpt><trkpt lat="43.3513849" lon="10.6497352"><ele>45.0</ele><time>2026-04-18T14:38:46.188Z</time></trkpt><trkpt lat="43.351505" lon="10.6497903"><ele>45.0</ele><time>2026-04-18T14:38:47.187Z</time></trkpt><trkpt lat="43.3516232" lon="10.6498518"><ele>45.0</ele><time>2026-04-18T14:38:48.184Z</time></trkpt><trkpt lat="43.3517448" lon="10.6499118"><ele>45.0</ele><time>2026-04-18T14:38:49.183Z</time></trkpt><trkpt lat="43.3518686" lon="10.6499675"><ele>45.0</ele><time>2026-04-18T14:38:50.192Z</time></trkpt><trkpt lat="43.3519932" lon="10.6500307"><ele>45.0</ele><time>2026-04-18T14:38:51.186Z</time></trkpt><trkpt lat="43.3521207" lon="10.6500926"><ele>45.0</ele><time>2026-04-18T14:38:52.197Z</time></trkpt><trkpt lat="43.3522521" lon="10.6501565"><ele>45.0</ele><time>2026-04-18T14:38:53.191Z</time></trkpt><trkpt lat="43.3523844" lon="10.6502245"><ele>45.25</ele><time>2026-04-18T14:38:54.182Z</time></trkpt><trkpt lat="43.3525229" lon="10.650294"><ele>45.5</ele><time>2026-04-18T14:38:55.185Z</time></trkpt><trkpt lat="43.3526631" lon="10.6503633"><ele>45.75</ele><time>2026-04-18T14:38:56.205Z</time></trkpt><trkpt lat="43.3528068" lon="10.6504342"><ele>46.0</ele><time>2026-04-18T14:38:57.18Z</time></trkpt><trkpt lat="43.3529552" lon="10.6505048"><ele>46.66666666666667</ele><time>2026-04-18T14:38:58.189Z</time></trkpt><trkpt lat="43.3531025" lon="10.6505733"><ele>47.333333333333336</ele><time>2026-04-18T14:38:59.195Z</time></trkpt><trkpt lat="43.3532464" lon="10.6506502"><ele>48.0</ele><time>2026-04-18T14:39:00.187Z</time></trkpt><trkpt lat="43.3533844" lon="10.6507212"><ele>48.0</ele><time>2026-04-18T14:39:01.199Z</time></trkpt><trkpt lat="43.3535206" lon="10.6507867"><ele>48.0</ele><time>2026-04-18T14:39:02.189Z</time></trkpt><trkpt lat="43.3536413" lon="10.6508464"><ele>48.0</ele><time>2026-04-18T14:39:03.19Z</time></trkpt><trkpt lat="43.3537454" lon="10.6508934"><ele>48.0</ele><time>2026-04-18T14:39:04.197Z</time></trkpt><trkpt lat="43.3538356" lon="10.6509339"><ele>48.666666666666664</ele><time>2026-04-18T14:39:05.203Z</time></trkpt><trkpt lat="43.3539163" lon="10.6509653"><ele>49.33333333333333</ele><time>2026-04-18T14:39:06.198Z</time></trkpt><trkpt lat="43.3540033" lon="10.650994"><ele>50.0</ele><time>2026-04-18T14:39:07.203Z</time></trkpt><trkpt lat="43.3540789" lon="10.6510186"><ele>50.666666666666664</ele><time>2026-04-18T14:39:08.187Z</time></trkpt><trkpt lat="43.3541583" lon="10.6510411"><ele>51.33333333333333</ele><time>2026-04-18T14:39:09.201Z</time></trkpt><trkpt lat="43.3542348" lon="10.6510614"><ele>52.0</ele><time>2026-04-18T14:39:10.202Z</time></trkpt><trkpt lat="43.3543118" lon="10.6510873"><ele>51.99999999999999</ele><time>2026-04-18T14:39:11.192Z</time></trkpt><trkpt lat="43.3543892" lon="10.6511097"><ele>52.0</ele><time>2026-04-18T14:39:12.174Z</time></trkpt><trkpt lat="43.3544684" lon="10.6511336"><ele>52.0</ele><time>2026-04-18T14:39:13.188Z</time></trkpt><trkpt lat="43.354552" lon="10.6511583"><ele>52.0</ele><time>2026-04-18T14:39:14.204Z</time></trkpt><trkpt lat="43.3546363" lon="10.6511859"><ele>51.99999999999999</ele><time>2026-04-18T14:39:15.194Z</time></trkpt><trkpt lat="43.3547232" lon="10.6512157"><ele>52.0</ele><time>2026-04-18T14:39:16.191Z</time></trkpt><trkpt lat="43.3548085" lon="10.6512525"><ele>51.8</ele><time>2026-04-18T14:39:17.186Z</time></trkpt><trkpt lat="43.3548995" lon="10.6512799"><ele>51.6</ele><time>2026-04-18T14:39:18.194Z</time></trkpt><trkpt lat="43.3549873" lon="10.6513093"><ele>51.4</ele><time>2026-04-18T14:39:19.183Z</time></trkpt><trkpt lat="43.3550717" lon="10.6513361"><ele>51.199999999999996</ele><time>2026-04-18T14:39:20.195Z</time></trkpt><trkpt lat="43.3551571" lon="10.6513651"><ele>51.0</ele><time>2026-04-18T14:39:21.195Z</time></trkpt><trkpt lat="43.3552477" lon="10.6513965"><ele>51.0</ele><time>2026-04-18T14:39:22.189Z</time></trkpt><trkpt lat="43.3553455" lon="10.6514376"><ele>51.0</ele><time>2026-04-18T14:39:23.188Z</time></trkpt><trkpt lat="43.3554446" lon="10.6514748"><ele>51.0</ele><time>2026-04-18T14:39:24.189Z</time></trkpt><trkpt lat="43.3555366" lon="10.6515086"><ele>51.0</ele><time>2026-04-18T14:39:25.189Z</time></trkpt><trkpt lat="43.3556251" lon="10.6515325"><ele>51.0</ele><time>2026-04-18T14:39:26.187Z</time></trkpt><trkpt lat="43.3557102" lon="10.6515533"><ele>51.714285714285715</ele><time>2026-04-18T14:39:27.184Z</time></trkpt><trkpt lat="43.3557905" lon="10.651569"><ele>52.42857142857143</ele><time>2026-04-18T14:39:28.182Z</time></trkpt><trkpt lat="43.3558635" lon="10.6515863"><ele>53.14285714285714</ele><time>2026-04-18T14:39:29.181Z</time></trkpt><trkpt lat="43.355928" lon="10.6516042"><ele>53.85714285714286</ele><time>2026-04-18T14:39:30.199Z</time></trkpt><trkpt lat="43.3559904" lon="10.6516235"><ele>54.57142857142857</ele><time>2026-04-18T14:39:31.185Z</time></trkpt><trkpt lat="43.3560615" lon="10.6516494"><ele>55.285714285714285</ele><time>2026-04-18T14:39:32.187Z</time></trkpt><trkpt lat="43.3561343" lon="10.6516795"><ele>56.0</ele><time>2026-04-18T14:39:33.185Z</time></trkpt><trkpt lat="43.3562049" lon="10.6517148"><ele>56.0</ele><time>2026-04-18T14:39:34.18Z</time></trkpt><trkpt lat="43.3562757" lon="10.6517516"><ele>56.0</ele><time>2026-04-18T14:39:35.197Z</time></trkpt><trkpt lat="43.356342" lon="10.651793"><ele>56.0</ele><time>2026-04-18T14:39:36.191Z</time></trkpt><trkpt lat="43.3564075" lon="10.6518317"><ele>56.0</ele><time>2026-04-18T14:39:37.187Z</time></trkpt><trkpt lat="43.3564725" lon="10.6518785"><ele>56.0</ele><time>2026-04-18T14:39:38.191Z</time></trkpt><trkpt lat="43.3565366" lon="10.6519226"><ele>56.0</ele><time>2026-04-18T14:39:39.189Z</time></trkpt><trkpt lat="43.3566028" lon="10.6519635"><ele>56.0</ele><time>2026-04-18T14:39:40.192Z</time></trkpt><trkpt lat="43.3566675" lon="10.652002"><ele>55.857142857142854</ele><time>2026-04-18T14:39:41.199Z</time></trkpt><trkpt lat="43.356733" lon="10.6520422"><ele>55.714285714285715</ele><time>2026-04-18T14:39:42.187Z</time></trkpt><trkpt lat="43.3567937" lon="10.6520786"><ele>55.57142857142857</ele><time>2026-04-18T14:39:43.181Z</time></trkpt><trkpt lat="43.3568528" lon="10.6521167"><ele>55.42857142857143</ele><time>2026-04-18T14:39:44.219Z</time></trkpt><trkpt lat="43.356911" lon="10.6521509"><ele>55.285714285714285</ele><time>2026-04-18T14:39:45.198Z</time></trkpt><trkpt lat="43.3569738" lon="10.65219"><ele>55.14285714285714</ele><time>2026-04-18T14:39:46.203Z</time></trkpt><trkpt lat="43.3570432" lon="10.6522322"><ele>55.0</ele><time>2026-04-18T14:39:47.199Z</time></trkpt><trkpt lat="43.3571072" lon="10.6522678"><ele>54.99999999999999</ele><time>2026-04-18T14:39:48.192Z</time></trkpt><trkpt lat="43.3571789" lon="10.6523042"><ele>55.0</ele><time>2026-04-18T14:39:49.192Z</time></trkpt><trkpt lat="43.3572483" lon="10.6523514"><ele>55.0</ele><time>2026-04-18T14:39:50.189Z</time></trkpt><trkpt lat="43.3573167" lon="10.6524006"><ele>55.0</ele><time>2026-04-18T14:39:51.189Z</time></trkpt><trkpt lat="43.3573824" lon="10.6524544"><ele>54.99999999999999</ele><time>2026-04-18T14:39:52.191Z</time></trkpt><trkpt lat="43.3574503" lon="10.6525033"><ele>55.0</ele><time>2026-04-18T14:39:53.198Z</time></trkpt><trkpt lat="43.3575139" lon="10.6525586"><ele>54.99999999999999</ele><time>2026-04-18T14:39:54.201Z</time></trkpt><trkpt lat="43.3575858" lon="10.6526252"><ele>55.0</ele><time>2026-04-18T14:39:55.199Z</time></trkpt><trkpt lat="43.3576605" lon="10.6526758"><ele>55.0</ele><time>2026-04-18T14:39:56.201Z</time></trkpt><trkpt lat="43.3577338" lon="10.6527136"><ele>55.0</ele><time>2026-04-18T14:39:57.196Z</time></trkpt><trkpt lat="43.3578068" lon="10.6527482"><ele>54.99999999999999</ele><time>2026-04-18T14:39:58.197Z</time></trkpt><trkpt lat="43.357882" lon="10.6527819"><ele>55.0</ele><time>2026-04-18T14:39:59.195Z</time></trkpt><trkpt lat="43.3579607" lon="10.6528089"><ele>55.166666666666664</ele><time>2026-04-18T14:40:00.203Z</time></trkpt><trkpt lat="43.3580373" lon="10.6528348"><ele>55.33333333333333</ele><time>2026-04-18T14:40:01.201Z</time></trkpt><trkpt lat="43.3581137" lon="10.652861"><ele>55.5</ele><time>2026-04-18T14:40:02.202Z</time></trkpt><trkpt lat="43.3581887" lon="10.6528788"><ele>55.66666666666667</ele><time>2026-04-18T14:40:03.194Z</time></trkpt><trkpt lat="43.3582658" lon="10.6528948"><ele>55.833333333333336</ele><time>2026-04-18T14:40:04.187Z</time></trkpt><trkpt lat="43.35834" lon="10.6529115"><ele>56.0</ele><time>2026-04-18T14:40:05.186Z</time></trkpt><trkpt lat="43.3584154" lon="10.6529276"><ele>56.00000000000001</ele><time>2026-04-18T14:40:06.195Z</time></trkpt><trkpt lat="43.3584883" lon="10.6529337"><ele>56.0</ele><time>2026-04-18T14:40:07.179Z</time></trkpt><trkpt lat="43.358559" lon="10.6529399"><ele>56.0</ele><time>2026-04-18T14:40:08.194Z</time></trkpt><trkpt lat="43.3586281" lon="10.6529517"><ele>56.0</ele><time>2026-04-18T14:40:09.195Z</time></trkpt><trkpt lat="43.358736" lon="10.6529542"><ele>56.00000000000001</ele><time>2026-04-18T14:40:11.192Z</time></trkpt><trkpt lat="43.3588372" lon="10.6529572"><ele>56.0</ele><time>2026-04-18T14:40:13.193Z</time></trkpt><trkpt lat="43.3589043" lon="10.6529724"><ele>56.833333333333336</ele><time>2026-04-18T14:40:14.203Z</time></trkpt><trkpt lat="43.3589791" lon="10.6529965"><ele>57.66666666666667</ele><time>2026-04-18T14:40:15.201Z</time></trkpt><trkpt lat="43.3590601" lon="10.6530367"><ele>58.5</ele><time>2026-04-18T14:40:16.191Z</time></trkpt><trkpt lat="43.3591355" lon="10.6530819"><ele>59.33333333333333</ele><time>2026-04-18T14:40:17.197Z</time></trkpt><trkpt lat="43.3592147" lon="10.6531243"><ele>60.166666666666664</ele><time>2026-04-18T14:40:18.196Z</time></trkpt><trkpt lat="43.3592948" lon="10.6531668"><ele>61.0</ele><time>2026-04-18T14:40:19.191Z</time></trkpt><trkpt lat="43.3593736" lon="10.6532025"><ele>60.99999999999999</ele><time>2026-04-18T14:40:20.186Z</time></trkpt><trkpt lat="43.3594501" lon="10.6532357"><ele>61.0</ele><time>2026-04-18T14:40:21.183Z</time></trkpt><trkpt lat="43.3595293" lon="10.6532552"><ele>61.0</ele><time>2026-04-18T14:40:22.168Z</time></trkpt><trkpt lat="43.3596116" lon="10.6532789"><ele>61.0</ele><time>2026-04-18T14:40:23.173Z</time></trkpt><trkpt lat="43.3597131" lon="10.6532964"><ele>60.99999999999999</ele><time>2026-04-18T14:40:24.177Z</time></trkpt><trkpt lat="43.3598027" lon="10.6533179"><ele>61.0</ele><time>2026-04-18T14:40:25.187Z</time></trkpt><trkpt lat="43.359879" lon="10.6533469"><ele>61.33333333333333</ele><time>2026-04-18T14:40:26.187Z</time></trkpt><trkpt lat="43.3599427" lon="10.6533554"><ele>61.666666666666664</ele><time>2026-04-18T14:40:27.183Z</time></trkpt><trkpt lat="43.3600138" lon="10.6533713"><ele>62.0</ele><time>2026-04-18T14:40:28.187Z</time></trkpt><trkpt lat="43.360082" lon="10.6533833"><ele>62.33333333333333</ele><time>2026-04-18T14:40:29.191Z</time></trkpt><trkpt lat="43.3601472" lon="10.6533952"><ele>62.666666666666664</ele><time>2026-04-18T14:40:30.194Z</time></trkpt><trkpt lat="43.3602712" lon="10.6534537"><ele>63.0</ele><time>2026-04-18T14:40:32.207Z</time></trkpt><trkpt lat="43.3603414" lon="10.6534938"><ele>63.0</ele><time>2026-04-18T14:40:33.186Z</time></trkpt><trkpt lat="43.3604127" lon="10.6535303"><ele>63.0</ele><time>2026-04-18T14:40:34.193Z</time></trkpt><trkpt lat="43.3604868" lon="10.6535651"><ele>63.0</ele><time>2026-04-18T14:40:35.198Z</time></trkpt><trkpt lat="43.3605553" lon="10.6535987"><ele>63.0</ele><time>2026-04-18T14:40:36.203Z</time></trkpt><trkpt lat="43.3606362" lon="10.6536286"><ele>63.0</ele><time>2026-04-18T14:40:37.185Z</time></trkpt><trkpt lat="43.3607083" lon="10.6536658"><ele>63.0</ele><time>2026-04-18T14:40:38.192Z</time></trkpt><trkpt lat="43.3607781" lon="10.653697"><ele>63.14285714285714</ele><time>2026-04-18T14:40:39.186Z</time></trkpt><trkpt lat="43.3608477" lon="10.6537208"><ele>63.285714285714285</ele><time>2026-04-18T14:40:40.175Z</time></trkpt><trkpt lat="43.3609148" lon="10.6537434"><ele>63.42857142857143</ele><time>2026-04-18T14:40:41.186Z</time></trkpt><trkpt lat="43.3609805" lon="10.6537717"><ele>63.57142857142857</ele><time>2026-04-18T14:40:42.195Z</time></trkpt><trkpt lat="43.3610466" lon="10.6538075"><ele>63.71428571428571</ele><time>2026-04-18T14:40:43.218Z</time></trkpt><trkpt lat="43.3611068" lon="10.6538576"><ele>63.857142857142854</ele><time>2026-04-18T14:40:44.189Z</time></trkpt><trkpt lat="43.3611667" lon="10.6539117"><ele>64.0</ele><time>2026-04-18T14:40:45.208Z</time></trkpt><trkpt lat="43.3612258" lon="10.6539674"><ele>64.0</ele><time>2026-04-18T14:40:46.206Z</time></trkpt><trkpt lat="43.361286" lon="10.6540242"><ele>63.99999999999999</ele><time>2026-04-18T14:40:47.198Z</time></trkpt><trkpt lat="43.3613518" lon="10.6540809"><ele>64.0</ele><time>2026-04-18T14:40:48.198Z</time></trkpt><trkpt lat="43.3614114" lon="10.6541487"><ele>64.0</ele><time>2026-04-18T14:40:49.189Z</time></trkpt><trkpt lat="43.3614634" lon="10.6542203"><ele>63.99999999999999</ele><time>2026-04-18T14:40:50.199Z</time></trkpt><trkpt lat="43.3615079" lon="10.654295"><ele>64.0</ele><time>2026-04-18T14:40:51.195Z</time></trkpt><trkpt lat="43.3615537" lon="10.6543786"><ele>64.0</ele><time>2026-04-18T14:40:52.187Z</time></trkpt><trkpt lat="43.3616052" lon="10.6544546"><ele>64.57142857142857</ele><time>2026-04-18T14:40:53.189Z</time></trkpt><trkpt lat="43.3616593" lon="10.6545346"><ele>65.14285714285714</ele><time>2026-04-18T14:40:54.206Z</time></trkpt><trkpt lat="43.3617249" lon="10.6545972"><ele>65.71428571428571</ele><time>2026-04-18T14:40:55.187Z</time></trkpt><trkpt lat="43.3617876" lon="10.6546569"><ele>66.28571428571428</ele><time>2026-04-18T14:40:56.183Z</time></trkpt><trkpt lat="43.3618503" lon="10.6547175"><ele>66.85714285714286</ele><time>2026-04-18T14:40:57.183Z</time></trkpt><trkpt lat="43.3619101" lon="10.6547483"><ele>67.42857142857142</ele><time>2026-04-18T14:40:58.18Z</time></trkpt><trkpt lat="43.3619755" lon="10.6547731"><ele>68.0</ele><time>2026-04-18T14:40:59.177Z</time></trkpt><trkpt lat="43.3620447" lon="10.6547935"><ele>67.99999999999999</ele><time>2026-04-18T14:41:00.206Z</time></trkpt><trkpt lat="43.3621127" lon="10.6548099"><ele>68.0</ele><time>2026-04-18T14:41:01.178Z</time></trkpt><trkpt lat="43.36218" lon="10.6548364"><ele>68.0</ele><time>2026-04-18T14:41:02.183Z</time></trkpt><trkpt lat="43.3622465" lon="10.6548718"><ele>68.0</ele><time>2026-04-18T14:41:03.183Z</time></trkpt><trkpt lat="43.3623196" lon="10.6549042"><ele>68.0</ele><time>2026-04-18T14:41:04.186Z</time></trkpt><trkpt lat="43.3623972" lon="10.6549341"><ele>67.99999999999999</ele><time>2026-04-18T14:41:05.176Z</time></trkpt><trkpt lat="43.3624632" lon="10.6549338"><ele>68.0</ele><time>2026-04-18T14:41:06.171Z</time></trkpt><trkpt lat="43.3625317" lon="10.6549213"><ele>69.85714285714285</ele><time>2026-04-18T14:41:07.186Z</time></trkpt><trkpt lat="43.3626037" lon="10.6548981"><ele>71.71428571428571</ele><time>2026-04-18T14:41:08.177Z</time></trkpt><trkpt lat="43.3626791" lon="10.6548894"><ele>73.57142857142857</ele><time>2026-04-18T14:41:09.188Z</time></trkpt><trkpt lat="43.3627498" lon="10.6548806"><ele>75.42857142857142</ele><time>2026-04-18T14:41:10.188Z</time></trkpt><trkpt lat="43.3628144" lon="10.6548894"><ele>77.28571428571428</ele><time>2026-04-18T14:41:11.175Z</time></trkpt><trkpt lat="43.3628802" lon="10.6549068"><ele>79.14285714285714</ele><time>2026-04-18T14:41:12.182Z</time></trkpt><trkpt lat="43.3629406" lon="10.6549575"><ele>81.0</ele><time>2026-04-18T14:41:13.197Z</time></trkpt><trkpt lat="43.3629949" lon="10.6550233"><ele>82.6</ele><time>2026-04-18T14:41:14.187Z</time></trkpt><trkpt lat="43.3630431" lon="10.6550909"><ele>84.19999999999999</ele><time>2026-04-18T14:41:15.207Z</time></trkpt><trkpt lat="43.3631296" lon="10.6552009"><ele>85.80000000000001</ele><time>2026-04-18T14:41:17.194Z</time></trkpt><trkpt lat="43.3632172" lon="10.6552371"><ele>87.4</ele><time>2026-04-18T14:41:19.179Z</time></trkpt><trkpt lat="43.3633385" lon="10.6552342"><ele>89.0</ele><time>2026-04-18T14:41:21.176Z</time></trkpt><trkpt lat="43.3634496" lon="10.6552868"><ele>89.0</ele><time>2026-04-18T14:41:23.182Z</time></trkpt><trkpt lat="43.363551" lon="10.6553226"><ele>89.0</ele><time>2026-04-18T14:41:25.204Z</time></trkpt><trkpt lat="43.3636615" lon="10.6553093"><ele>89.0</ele><time>2026-04-18T14:41:27.178Z</time></trkpt><trkpt lat="43.363693" lon="10.6551852"><ele>89.0</ele><time>2026-04-18T14:41:29.178Z</time></trkpt><trkpt lat="43.36365" lon="10.6550163"><ele>89.0</ele><time>2026-04-18T14:41:31.187Z</time></trkpt><trkpt lat="43.3636157" lon="10.6549417"><ele>89.0</ele><time>2026-04-18T14:41:32.184Z</time></trkpt><trkpt lat="43.3635795" lon="10.6548593"><ele>89.0</ele><time>2026-04-18T14:41:33.177Z</time></trkpt><trkpt lat="43.3635479" lon="10.654767"><ele>89.0</ele><time>2026-04-18T14:41:34.178Z</time></trkpt><trkpt lat="43.3635132" lon="10.6546755"><ele>89.0</ele><time>2026-04-18T14:41:35.179Z</time></trkpt><trkpt lat="43.3634838" lon="10.6545943"><ele>89.0</ele><time>2026-04-18T14:41:36.183Z</time></trkpt><trkpt lat="43.3634474" lon="10.6545214"><ele>89.0</ele><time>2026-04-18T14:41:37.171Z</time></trkpt><trkpt lat="43.3633586" lon="10.6544071"><ele>91.0</ele><time>2026-04-18T14:41:39.184Z</time></trkpt><trkpt lat="43.3632711" lon="10.6543372"><ele>93.0</ele><time>2026-04-18T14:41:41.192Z</time></trkpt><trkpt lat="43.3632654" lon="10.6542354"><ele>95.0</ele><time>2026-04-18T14:41:44.179Z</time></trkpt><trkpt lat="43.3633425" lon="10.6541675"><ele>97.0</ele><time>2026-04-18T14:41:46.188Z</time></trkpt><trkpt lat="43.3634453" lon="10.6541818"><ele>99.0</ele><time>2026-04-18T14:41:48.196Z</time></trkpt><trkpt lat="43.3635551" lon="10.6542118"><ele>99.0</ele><time>2026-04-18T14:41:50.18Z</time></trkpt><trkpt lat="43.3636215" lon="10.6542305"><ele>99.0</ele><time>2026-04-18T14:41:51.179Z</time></trkpt><trkpt lat="43.3636921" lon="10.6542479"><ele>99.0</ele><time>2026-04-18T14:41:52.189Z</time></trkpt><trkpt lat="43.3637613" lon="10.6542597"><ele>99.0</ele><time>2026-04-18T14:41:53.183Z</time></trkpt><trkpt lat="43.3638331" lon="10.6542837"><ele>99.0</ele><time>2026-04-18T14:41:54.173Z</time></trkpt><trkpt lat="43.3639028" lon="10.654318"><ele>99.0</ele><time>2026-04-18T14:41:55.185Z</time></trkpt><trkpt lat="43.363969" lon="10.6543654"><ele>99.0</ele><time>2026-04-18T14:41:56.187Z</time></trkpt><trkpt lat="43.3640259" lon="10.654426"><ele>99.5</ele><time>2026-04-18T14:41:57.181Z</time></trkpt><trkpt lat="43.3640744" lon="10.6544972"><ele>100.0</ele><time>2026-04-18T14:41:58.175Z</time></trkpt><trkpt lat="43.3641197" lon="10.6545688"><ele>100.5</ele><time>2026-04-18T14:41:59.179Z</time></trkpt><trkpt lat="43.3641682" lon="10.6546499"><ele>101.0</ele><time>2026-04-18T14:42:00.179Z</time></trkpt><trkpt lat="43.3642346" lon="10.6547251"><ele>101.5</ele><time>2026-04-18T14:42:01.187Z</time></trkpt><trkpt lat="43.364314" lon="10.6547807"><ele>102.0</ele><time>2026-04-18T14:42:02.187Z</time></trkpt><trkpt lat="43.3643914" lon="10.6548135"><ele>102.0</ele><time>2026-04-18T14:42:03.165Z</time></trkpt><trkpt lat="43.3644679" lon="10.6548382"><ele>102.0</ele><time>2026-04-18T14:42:04.174Z</time></trkpt><trkpt lat="43.3645451" lon="10.6548425"><ele>102.0</ele><time>2026-04-18T14:42:05.193Z</time></trkpt><trkpt lat="43.3646191" lon="10.6548487"><ele>102.0</ele><time>2026-04-18T14:42:06.185Z</time></trkpt><trkpt lat="43.3646892" lon="10.654861"><ele>102.0</ele><time>2026-04-18T14:42:07.185Z</time></trkpt><trkpt lat="43.3647557" lon="10.6548745"><ele>102.0</ele><time>2026-04-18T14:42:08.173Z</time></trkpt><trkpt lat="43.3648243" lon="10.6548905"><ele>102.0</ele><time>2026-04-18T14:42:09.183Z</time></trkpt><trkpt lat="43.3648922" lon="10.6549167"><ele>103.83333333333333</ele><time>2026-04-18T14:42:10.177Z</time></trkpt><trkpt lat="43.36496" lon="10.6549399"><ele>105.66666666666666</ele><time>2026-04-18T14:42:11.175Z</time></trkpt><trkpt lat="43.3650289" lon="10.6549395"><ele>107.5</ele><time>2026-04-18T14:42:12.174Z</time></trkpt><trkpt lat="43.365102" lon="10.6549153"><ele>109.33333333333333</ele><time>2026-04-18T14:42:13.189Z</time></trkpt><trkpt lat="43.3651768" lon="10.654882"><ele>111.16666666666666</ele><time>2026-04-18T14:42:14.186Z</time></trkpt><trkpt lat="43.3652498" lon="10.6548663"><ele>113.0</ele><time>2026-04-18T14:42:15.185Z</time></trkpt><trkpt lat="43.3653379" lon="10.6548381"><ele>112.99999999999999</ele><time>2026-04-18T14:42:16.192Z</time></trkpt><trkpt lat="43.3654147" lon="10.6548181"><ele>113.0</ele><time>2026-04-18T14:42:17.179Z</time></trkpt><trkpt lat="43.3654842" lon="10.6547902"><ele>113.0</ele><time>2026-04-18T14:42:18.191Z</time></trkpt><trkpt lat="43.3655526" lon="10.6547597"><ele>113.0</ele><time>2026-04-18T14:42:19.196Z</time></trkpt><trkpt lat="43.365628" lon="10.6547373"><ele>112.99999999999999</ele><time>2026-04-18T14:42:20.19Z</time></trkpt><trkpt lat="43.3657037" lon="10.6547248"><ele>113.0</ele><time>2026-04-18T14:42:21.184Z</time></trkpt><trkpt lat="43.3657783" lon="10.6547119"><ele>113.0</ele><time>2026-04-18T14:42:22.182Z</time></trkpt><trkpt lat="43.3658906" lon="10.6547436"><ele>113.0</ele><time>2026-04-18T14:42:24.202Z</time></trkpt><trkpt lat="43.3659962" lon="10.654758"><ele>113.0</ele><time>2026-04-18T14:42:26.186Z</time></trkpt><trkpt lat="43.3661016" lon="10.6546739"><ele>113.0</ele><time>2026-04-18T14:42:28.194Z</time></trkpt><trkpt lat="43.366116" lon="10.6545073"><ele>115.33333333333333</ele><time>2026-04-18T14:42:30.178Z</time></trkpt><trkpt lat="43.3661223" lon="10.6544116"><ele>117.66666666666666</ele><time>2026-04-18T14:42:31.179Z</time></trkpt><trkpt lat="43.3661331" lon="10.6543173"><ele>120.0</ele><time>2026-04-18T14:42:32.191Z</time></trkpt><trkpt lat="43.3661729" lon="10.6542201"><ele>122.33333333333334</ele><time>2026-04-18T14:42:33.188Z</time></trkpt><trkpt lat="43.3662174" lon="10.6541239"><ele>124.66666666666667</ele><time>2026-04-18T14:42:34.197Z</time></trkpt><trkpt lat="43.3662595" lon="10.6540327"><ele>127.0</ele><time>2026-04-18T14:42:35.191Z</time></trkpt><trkpt lat="43.3663071" lon="10.6539421"><ele>127.0</ele><time>2026-04-18T14:42:36.183Z</time></trkpt><trkpt lat="43.3663495" lon="10.6538474"><ele>127.0</ele><time>2026-04-18T14:42:37.175Z</time></trkpt><trkpt lat="43.3663831" lon="10.6537535"><ele>127.0</ele><time>2026-04-18T14:42:38.186Z</time></trkpt><trkpt lat="43.3664117" lon="10.6536659"><ele>127.0</ele><time>2026-04-18T14:42:39.188Z</time></trkpt><trkpt lat="43.3664342" lon="10.653577"><ele>127.0</ele><time>2026-04-18T14:42:40.188Z</time></trkpt><trkpt lat="43.3664665" lon="10.6534828"><ele>127.0</ele><time>2026-04-18T14:42:41.184Z</time></trkpt><trkpt lat="43.3665159" lon="10.6534117"><ele>127.0</ele><time>2026-04-18T14:42:42.181Z</time></trkpt><trkpt lat="43.3665751" lon="10.6533723"><ele>127.42857142857143</ele><time>2026-04-18T14:42:43.177Z</time></trkpt><trkpt lat="43.3666406" lon="10.6533458"><ele>127.85714285714286</ele><time>2026-04-18T14:42:44.183Z</time></trkpt><trkpt lat="43.3667105" lon="10.6533311"><ele>128.28571428571428</ele><time>2026-04-18T14:42:45.183Z</time></trkpt><trkpt lat="43.366784" lon="10.6533201"><ele>128.71428571428572</ele><time>2026-04-18T14:42:46.184Z</time></trkpt><trkpt lat="43.3668611" lon="10.6533059"><ele>129.14285714285714</ele><time>2026-04-18T14:42:47.187Z</time></trkpt><trkpt lat="43.3669414" lon="10.6532933"><ele>129.57142857142858</ele><time>2026-04-18T14:42:48.189Z</time></trkpt><trkpt lat="43.3670172" lon="10.6532756"><ele>130.0</ele><time>2026-04-18T14:42:49.177Z</time></trkpt><trkpt lat="43.3671014" lon="10.6532574"><ele>130.0</ele><time>2026-04-18T14:42:50.186Z</time></trkpt><trkpt lat="43.3671877" lon="10.6532357"><ele>130.0</ele><time>2026-04-18T14:42:51.185Z</time></trkpt><trkpt lat="43.3672691" lon="10.6532059"><ele>130.0</ele><time>2026-04-18T14:42:52.181Z</time></trkpt><trkpt lat="43.367355" lon="10.6531619"><ele>130.0</ele><time>2026-04-18T14:42:53.18Z</time></trkpt><trkpt lat="43.3674435" lon="10.6531115"><ele>130.0</ele><time>2026-04-18T14:42:54.195Z</time></trkpt><trkpt lat="43.3675257" lon="10.6530681"><ele>130.0</ele><time>2026-04-18T14:42:55.187Z</time></trkpt><trkpt lat="43.367603" lon="10.6530317"><ele>129.66666666666669</ele><time>2026-04-18T14:42:56.19Z</time></trkpt><trkpt lat="43.3676777" lon="10.6530029"><ele>129.33333333333334</ele><time>2026-04-18T14:42:57.193Z</time></trkpt><trkpt lat="43.367758" lon="10.6529866"><ele>129.0</ele><time>2026-04-18T14:42:58.186Z</time></trkpt><trkpt lat="43.3678379" lon="10.6529787"><ele>128.66666666666666</ele><time>2026-04-18T14:42:59.186Z</time></trkpt><trkpt lat="43.3679082" lon="10.6529937"><ele>128.33333333333331</ele><time>2026-04-18T14:43:00.182Z</time></trkpt><trkpt lat="43.3680275" lon="10.6529918"><ele>128.0</ele><time>2026-04-18T14:43:02.191Z</time></trkpt><trkpt lat="43.3681188" lon="10.652914"><ele>128.66666666666666</ele><time>2026-04-18T14:43:04.186Z</time></trkpt><trkpt lat="43.3681596" lon="10.6528416"><ele>129.33333333333331</ele><time>2026-04-18T14:43:05.183Z</time></trkpt><trkpt lat="43.3682113" lon="10.6527622"><ele>130.0</ele><time>2026-04-18T14:43:06.184Z</time></trkpt><trkpt lat="43.3682721" lon="10.6526814"><ele>130.66666666666666</ele><time>2026-04-18T14:43:07.174Z</time></trkpt><trkpt lat="43.3683344" lon="10.6526108"><ele>131.33333333333334</ele><time>2026-04-18T14:43:08.183Z</time></trkpt><trkpt lat="43.3684094" lon="10.652565"><ele>132.0</ele><time>2026-04-18T14:43:09.194Z</time></trkpt><trkpt lat="43.3684802" lon="10.6525109"><ele>134.14285714285714</ele><time>2026-04-18T14:43:10.18Z</time></trkpt><trkpt lat="43.3685628" lon="10.6524674"><ele>136.28571428571428</ele><time>2026-04-18T14:43:11.182Z</time></trkpt><trkpt lat="43.3686376" lon="10.6524456"><ele>138.42857142857144</ele><time>2026-04-18T14:43:12.176Z</time></trkpt><trkpt lat="43.3687124" lon="10.6524454"><ele>140.57142857142856</ele><time>2026-04-18T14:43:13.175Z</time></trkpt><trkpt lat="43.3687804" lon="10.6524634"><ele>142.71428571428572</ele><time>2026-04-18T14:43:14.191Z</time></trkpt><trkpt lat="43.3688469" lon="10.6524952"><ele>144.85714285714286</ele><time>2026-04-18T14:43:15.202Z</time></trkpt><trkpt lat="43.3689071" lon="10.652526"><ele>147.0</ele><time>2026-04-18T14:43:16.184Z</time></trkpt><trkpt lat="43.3690033" lon="10.6525999"><ele>148.66666666666666</ele><time>2026-04-18T14:43:18.191Z</time></trkpt><trkpt lat="43.3691105" lon="10.6526807"><ele>150.33333333333334</ele><time>2026-04-18T14:43:20.189Z</time></trkpt><trkpt lat="43.3691812" lon="10.6526916"><ele>152.0</ele><time>2026-04-18T14:43:21.183Z</time></trkpt><trkpt lat="43.3692637" lon="10.6527061"><ele>153.66666666666669</ele><time>2026-04-18T14:43:22.187Z</time></trkpt><trkpt lat="43.3693336" lon="10.6527132"><ele>155.33333333333334</ele><time>2026-04-18T14:43:23.188Z</time></trkpt><trkpt lat="43.3694036" lon="10.6527096"><ele>157.0</ele><time>2026-04-18T14:43:24.188Z</time></trkpt><trkpt lat="43.369474" lon="10.6526923"><ele>157.0</ele><time>2026-04-18T14:43:25.196Z</time></trkpt><trkpt lat="43.3695468" lon="10.6526877"><ele>157.0</ele><time>2026-04-18T14:43:26.173Z</time></trkpt><trkpt lat="43.3696158" lon="10.6526791"><ele>157.0</ele><time>2026-04-18T14:43:27.182Z</time></trkpt><trkpt lat="43.3696778" lon="10.6526615"><ele>157.0</ele><time>2026-04-18T14:43:28.199Z</time></trkpt><trkpt lat="43.369747" lon="10.6526223"><ele>157.0</ele><time>2026-04-18T14:43:29.194Z</time></trkpt><trkpt lat="43.3698629" lon="10.6525375"><ele>157.0</ele><time>2026-04-18T14:43:31.186Z</time></trkpt><trkpt lat="43.3699694" lon="10.6524562"><ele>157.66666666666669</ele><time>2026-04-18T14:43:33.182Z</time></trkpt><trkpt lat="43.3700316" lon="10.6524345"><ele>158.33333333333334</ele><time>2026-04-18T14:43:34.174Z</time></trkpt><trkpt lat="43.3701488" lon="10.6524369"><ele>159.0</ele><time>2026-04-18T14:43:36.185Z</time></trkpt><trkpt lat="43.3702185" lon="10.6524613"><ele>159.66666666666666</ele><time>2026-04-18T14:43:37.182Z</time></trkpt><trkpt lat="43.3702865" lon="10.6524851"><ele>160.33333333333331</ele><time>2026-04-18T14:43:38.183Z</time></trkpt><trkpt lat="43.3703504" lon="10.6524939"><ele>161.0</ele><time>2026-04-18T14:43:39.184Z</time></trkpt><trkpt lat="43.3704163" lon="10.6524621"><ele>160.0</ele><time>2026-04-18T14:43:40.191Z</time></trkpt><trkpt lat="43.3705366" lon="10.652419"><ele>159.0</ele><time>2026-04-18T14:43:42.197Z</time></trkpt><trkpt lat="43.3706378" lon="10.6523311"><ele>158.0</ele><time>2026-04-18T14:43:44.189Z</time></trkpt><trkpt lat="43.3707228" lon="10.6522303"><ele>157.0</ele><time>2026-04-18T14:43:46.169Z</time></trkpt><trkpt lat="43.3707693" lon="10.652154"><ele>156.0</ele><time>2026-04-18T14:43:48.183Z</time></trkpt><trkpt lat="43.3707089" lon="10.6520563"><ele>156.0</ele><time>2026-04-18T14:43:52.183Z</time></trkpt><trkpt lat="43.3706144" lon="10.6520229"><ele>156.0</ele><time>2026-04-18T14:43:55.168Z</time></trkpt><trkpt lat="43.3705403" lon="10.6519735"><ele>156.0</ele><time>2026-04-18T14:43:57.171Z</time></trkpt><trkpt lat="43.3704642" lon="10.6518541"><ele>156.0</ele><time>2026-04-18T14:43:59.188Z</time></trkpt><trkpt lat="43.3703584" lon="10.6517863"><ele>156.0</ele><time>2026-04-18T14:44:01.18Z</time></trkpt><trkpt lat="43.3702484" lon="10.6517765"><ele>159.5</ele><time>2026-04-18T14:44:03.18Z</time></trkpt><trkpt lat="43.37018" lon="10.6517902"><ele>163.0</ele><time>2026-04-18T14:44:04.179Z</time></trkpt><trkpt lat="43.3701025" lon="10.6518025"><ele>166.5</ele><time>2026-04-18T14:44:05.189Z</time></trkpt><trkpt lat="43.3700238" lon="10.6518018"><ele>170.0</ele><time>2026-04-18T14:44:06.188Z</time></trkpt><trkpt lat="43.3699466" lon="10.6517996"><ele>173.5</ele><time>2026-04-18T14:44:07.184Z</time></trkpt><trkpt lat="43.3698655" lon="10.6518036"><ele>177.0</ele><time>2026-04-18T14:44:08.177Z</time></trkpt><trkpt lat="43.3697853" lon="10.6517968"><ele>177.0</ele><time>2026-04-18T14:44:09.17Z</time></trkpt><trkpt lat="43.3697045" lon="10.6517839"><ele>177.0</ele><time>2026-04-18T14:44:10.184Z</time></trkpt><trkpt lat="43.369638" lon="10.6517575"><ele>177.0</ele><time>2026-04-18T14:44:11.173Z</time></trkpt><trkpt lat="43.369554" lon="10.6516665"><ele>177.0</ele><time>2026-04-18T14:44:13.177Z</time></trkpt><trkpt lat="43.3695125" lon="10.6515434"><ele>177.0</ele><time>2026-04-18T14:44:15.176Z</time></trkpt><trkpt lat="43.3695059" lon="10.6514145"><ele>177.2</ele><time>2026-04-18T14:44:17.177Z</time></trkpt><trkpt lat="43.3695517" lon="10.6512855"><ele>177.39999999999998</ele><time>2026-04-18T14:44:19.182Z</time></trkpt><trkpt lat="43.3695897" lon="10.6512135"><ele>177.60000000000002</ele><time>2026-04-18T14:44:20.181Z</time></trkpt><trkpt lat="43.3696607" lon="10.6511025"><ele>177.8</ele><time>2026-04-18T14:44:22.166Z</time></trkpt><trkpt lat="43.3697236" lon="10.6510116"><ele>178.0</ele><time>2026-04-18T14:44:24.168Z</time></trkpt><trkpt lat="43.3698099" lon="10.6509347"><ele>178.0</ele><time>2026-04-18T14:44:26.166Z</time></trkpt><trkpt lat="43.3699298" lon="10.6508814"><ele>178.0</ele><time>2026-04-18T14:44:28.171Z</time></trkpt><trkpt lat="43.3699965" lon="10.650861"><ele>178.0</ele><time>2026-04-18T14:44:29.179Z</time></trkpt><trkpt lat="43.3701046" lon="10.6508709"><ele>178.0</ele><time>2026-04-18T14:44:31.176Z</time></trkpt><trkpt lat="43.3702298" lon="10.6509046"><ele>178.0</ele><time>2026-04-18T14:44:33.181Z</time></trkpt><trkpt lat="43.3702986" lon="10.6509422"><ele>178.0</ele><time>2026-04-18T14:44:34.174Z</time></trkpt><trkpt lat="43.3703678" lon="10.650977"><ele>178.0</ele><time>2026-04-18T14:44:35.173Z</time></trkpt><trkpt lat="43.3704633" lon="10.6510366"><ele>178.0</ele><time>2026-04-18T14:44:37.188Z</time></trkpt><trkpt lat="43.3705732" lon="10.6510506"><ele>178.0</ele><time>2026-04-18T14:44:40.172Z</time></trkpt><trkpt lat="43.3706374" lon="10.6510559"><ele>178.0</ele><time>2026-04-18T14:44:41.193Z</time></trkpt><trkpt lat="43.3704642" lon="10.6518541"><ele>177.8</ele><time>2026-04-18T14:43:59.188Z</time></trkpt><trkpt lat="43.3703584" lon="10.6517863"><ele>177.60000000000002</ele><time>2026-04-18T14:44:01.18Z</time></trkpt><trkpt lat="43.3702484" lon="10.6517765"><ele>177.39999999999998</ele><time>2026-04-18T14:44:03.18Z</time></trkpt><trkpt lat="43.37018" lon="10.6517902"><ele>177.2</ele><time>2026-04-18T14:44:04.179Z</time></trkpt><trkpt lat="43.3701025" lon="10.6518025"><ele>177.0</ele><time>2026-04-18T14:44:05.189Z</time></trkpt><trkpt lat="43.3700238" lon="10.6518018"><ele>177.0</ele><time>2026-04-18T14:44:06.188Z</time></trkpt><trkpt lat="43.3699466" lon="10.6517996"><ele>177.0</ele><time>2026-04-18T14:44:07.184Z</time></trkpt><trkpt lat="43.3698655" lon="10.6518036"><ele>177.0</ele><time>2026-04-18T14:44:08.177Z</time></trkpt><trkpt lat="43.3697853" lon="10.6517968"><ele>177.0</ele><time>2026-04-18T14:44:09.17Z</time></trkpt><trkpt lat="43.3697045" lon="10.6517839"><ele>177.0</ele><time>2026-04-18T14:44:10.184Z</time></trkpt><trkpt lat="43.369638" lon="10.6517575"><ele>177.0</ele><time>2026-04-18T14:44:11.173Z</time></trkpt><trkpt lat="43.369554" lon="10.6516665"><ele>175.6</ele><time>2026-04-18T14:44:13.177Z</time></trkpt><trkpt lat="43.3695125" lon="10.6515434"><ele>174.2</ele><time>2026-04-18T14:44:15.176Z</time></trkpt><trkpt lat="43.3695059" lon="10.6514145"><ele>172.8</ele><time>2026-04-18T14:44:17.177Z</time></trkpt><trkpt lat="43.3695517" lon="10.6512855"><ele>171.4</ele><time>2026-04-18T14:44:19.182Z</time></trkpt><trkpt lat="43.3695897" lon="10.6512135"><ele>170.0</ele><time>2026-04-18T14:44:20.181Z</time></trkpt><trkpt lat="43.3696607" lon="10.6511025"><ele>171.6</ele><time>2026-04-18T14:44:22.166Z</time></trkpt><trkpt lat="43.3697236" lon="10.6510116"><ele>173.2</ele><time>2026-04-18T14:44:24.168Z</time></trkpt><trkpt lat="43.3698099" lon="10.6509347"><ele>174.8</ele><time>2026-04-18T14:44:26.166Z</time></trkpt><trkpt lat="43.3699298" lon="10.6508814"><ele>176.4</ele><time>2026-04-18T14:44:28.171Z</time></trkpt><trkpt lat="43.3699965" lon="10.650861"><ele>178.0</ele><time>2026-04-18T14:44:29.179Z</time></trkpt><trkpt lat="43.3701046" lon="10.6508709"><ele>178.0</ele><time>2026-04-18T14:44:31.176Z</time></trkpt><trkpt lat="43.3702298" lon="10.6509046"><ele>178.0</ele><time>2026-04-18T14:44:33.181Z</time></trkpt><trkpt lat="43.3702986" lon="10.6509422"><ele>178.0</ele><time>2026-04-18T14:44:34.174Z</time></trkpt><trkpt lat="43.3703678" lon="10.650977"><ele>178.0</ele><time>2026-04-18T14:44:35.173Z</time></trkpt><trkpt lat="43.3704633" lon="10.6510366"><ele>178.0</ele><time>2026-04-18T14:44:37.188Z</time></trkpt><trkpt lat="43.3705732" lon="10.6510506"><ele>178.0</ele><time>2026-04-18T14:44:40.172Z</time></trkpt><trkpt lat="43.3706374" lon="10.6510559"><ele>178.0</ele><time>2026-04-18T14:44:41.193Z</time></trkpt><trkpt lat="43.3707372" lon="10.6509772"><ele>178.0</ele><time>2026-04-18T14:44:43.179Z</time></trkpt><trkpt lat="43.3707895" lon="10.6509109"><ele>178.0</ele><time>2026-04-18T14:44:44.171Z</time></trkpt><trkpt lat="43.3708465" lon="10.6508425"><ele>178.0</ele><time>2026-04-18T14:44:45.184Z</time></trkpt><trkpt lat="43.370894" lon="10.6507732"><ele>178.0</ele><time>2026-04-18T14:44:46.178Z</time></trkpt><trkpt lat="43.3709536" lon="10.6506892"><ele>177.99999999999997</ele><time>2026-04-18T14:44:47.195Z</time></trkpt><trkpt lat="43.3710124" lon="10.6506138"><ele>178.0</ele><time>2026-04-18T14:44:48.189Z</time></trkpt><trkpt lat="43.3710658" lon="10.6505419"><ele>178.0</ele><time>2026-04-18T14:44:49.196Z</time></trkpt><trkpt lat="43.3711174" lon="10.6504721"><ele>178.0</ele><time>2026-04-18T14:44:50.188Z</time></trkpt><trkpt lat="43.3711656" lon="10.6504006"><ele>178.0</ele><time>2026-04-18T14:44:51.176Z</time></trkpt><trkpt lat="43.3712077" lon="10.6503207"><ele>177.99999999999997</ele><time>2026-04-18T14:44:52.198Z</time></trkpt><trkpt lat="43.3712514" lon="10.6502567"><ele>178.0</ele><time>2026-04-18T14:44:53.183Z</time></trkpt><trkpt lat="43.3712872" lon="10.6501751"><ele>177.33333333333334</ele><time>2026-04-18T14:44:54.196Z</time></trkpt><trkpt lat="43.3713336" lon="10.6501111"><ele>176.66666666666669</ele><time>2026-04-18T14:44:55.188Z</time></trkpt><trkpt lat="43.3713694" lon="10.6500299"><ele>176.0</ele><time>2026-04-18T14:44:56.186Z</time></trkpt><trkpt lat="43.3714136" lon="10.6499664"><ele>175.33333333333334</ele><time>2026-04-18T14:44:57.184Z</time></trkpt><trkpt lat="43.3714431" lon="10.6498818"><ele>174.66666666666666</ele><time>2026-04-18T14:44:58.192Z</time></trkpt><trkpt lat="43.3714876" lon="10.6498127"><ele>174.0</ele><time>2026-04-18T14:44:59.194Z</time></trkpt><trkpt lat="43.3715132" lon="10.6496433"><ele>174.6</ele><time>2026-04-18T14:45:01.198Z</time></trkpt><trkpt lat="43.3715285" lon="10.6494809"><ele>175.2</ele><time>2026-04-18T14:45:03.178Z</time></trkpt><trkpt lat="43.3715489" lon="10.6493269"><ele>175.79999999999998</ele><time>2026-04-18T14:45:05.176Z</time></trkpt><trkpt lat="43.3715603" lon="10.6492402"><ele>176.39999999999998</ele><time>2026-04-18T14:45:07.183Z</time></trkpt><trkpt lat="43.3715948" lon="10.6491536"><ele>177.0</ele><time>2026-04-18T14:45:09.202Z</time></trkpt><trkpt lat="43.3716679" lon="10.6490784"><ele>177.0</ele><time>2026-04-18T14:45:11.181Z</time></trkpt><trkpt lat="43.3717749" lon="10.6490626"><ele>177.0</ele><time>2026-04-18T14:45:13.2Z</time></trkpt><trkpt lat="43.3718971" lon="10.6490591"><ele>177.0</ele><time>2026-04-18T14:45:15.193Z</time></trkpt><trkpt lat="43.3719638" lon="10.6490489"><ele>177.0</ele><time>2026-04-18T14:45:16.192Z</time></trkpt><trkpt lat="43.3720372" lon="10.6490368"><ele>177.0</ele><time>2026-04-18T14:45:17.173Z</time></trkpt><trkpt lat="43.3721148" lon="10.6490295"><ele>177.0</ele><time>2026-04-18T14:45:18.182Z</time></trkpt><trkpt lat="43.3721899" lon="10.6490257"><ele>177.16666666666666</ele><time>2026-04-18T14:45:19.178Z</time></trkpt><trkpt lat="43.3722666" lon="10.64902"><ele>177.33333333333334</ele><time>2026-04-18T14:45:20.19Z</time></trkpt><trkpt lat="43.3723523" lon="10.6490109"><ele>177.5</ele><time>2026-04-18T14:45:21.182Z</time></trkpt><trkpt lat="43.372437" lon="10.6490012"><ele>177.66666666666669</ele><time>2026-04-18T14:45:22.192Z</time></trkpt><trkpt lat="43.3725168" lon="10.6489942"><ele>177.83333333333334</ele><time>2026-04-18T14:45:23.176Z</time></trkpt><trkpt lat="43.372599" lon="10.6489863"><ele>178.0</ele><time>2026-04-18T14:45:24.2Z</time></trkpt><trkpt lat="43.3726826" lon="10.6489763"><ele>178.0</ele><time>2026-04-18T14:45:25.184Z</time></trkpt><trkpt lat="43.3727631" lon="10.6489697"><ele>178.0</ele><time>2026-04-18T14:45:26.182Z</time></trkpt><trkpt lat="43.3728497" lon="10.6489683"><ele>178.0</ele><time>2026-04-18T14:45:27.178Z</time></trkpt><trkpt lat="43.3729322" lon="10.6489623"><ele>178.0</ele><time>2026-04-18T14:45:28.188Z</time></trkpt><trkpt lat="43.3730087" lon="10.6489621"><ele>178.0</ele><time>2026-04-18T14:45:29.182Z</time></trkpt><trkpt lat="43.3730854" lon="10.6489641"><ele>178.0</ele><time>2026-04-18T14:45:30.19Z</time></trkpt><trkpt lat="43.373162" lon="10.6489653"><ele>178.33333333333334</ele><time>2026-04-18T14:45:31.176Z</time></trkpt><trkpt lat="43.3732388" lon="10.648959"><ele>178.66666666666669</ele><time>2026-04-18T14:45:32.186Z</time></trkpt><trkpt lat="43.3733142" lon="10.6489562"><ele>179.0</ele><time>2026-04-18T14:45:33.178Z</time></trkpt><trkpt lat="43.3733993" lon="10.6489533"><ele>179.33333333333334</ele><time>2026-04-18T14:45:34.184Z</time></trkpt><trkpt lat="43.3734858" lon="10.6489424"><ele>179.66666666666666</ele><time>2026-04-18T14:45:35.173Z</time></trkpt><trkpt lat="43.3735693" lon="10.6489409"><ele>180.0</ele><time>2026-04-18T14:45:36.192Z</time></trkpt><trkpt lat="43.3736508" lon="10.6489311"><ele>180.0</ele><time>2026-04-18T14:45:37.185Z</time></trkpt><trkpt lat="43.3737208" lon="10.6489215"><ele>180.0</ele><time>2026-04-18T14:45:38.192Z</time></trkpt><trkpt lat="43.3737849" lon="10.6489159"><ele>180.0</ele><time>2026-04-18T14:45:39.186Z</time></trkpt><trkpt lat="43.3738934" lon="10.6489073"><ele>180.0</ele><time>2026-04-18T14:45:41.178Z</time></trkpt><trkpt lat="43.3739817" lon="10.6488725"><ele>180.0</ele><time>2026-04-18T14:45:43.18Z</time></trkpt><trkpt lat="43.3740879" lon="10.6487901"><ele>180.5</ele><time>2026-04-18T14:45:45.181Z</time></trkpt><trkpt lat="43.374186" lon="10.6486962"><ele>181.0</ele><time>2026-04-18T14:45:47.182Z</time></trkpt><trkpt lat="43.3742905" lon="10.6486141"><ele>181.5</ele><time>2026-04-18T14:45:49.186Z</time></trkpt><trkpt lat="43.3743908" lon="10.648528"><ele>182.0</ele><time>2026-04-18T14:45:51.179Z</time></trkpt><trkpt lat="43.3744868" lon="10.6484362"><ele>182.0</ele><time>2026-04-18T14:45:53.187Z</time></trkpt><trkpt lat="43.3745395" lon="10.6483885"><ele>182.0</ele><time>2026-04-18T14:45:54.181Z</time></trkpt><trkpt lat="43.374644" lon="10.6482952"><ele>182.0</ele><time>2026-04-18T14:45:56.189Z</time></trkpt><trkpt lat="43.3747529" lon="10.6482145"><ele>182.0</ele><time>2026-04-18T14:45:58.179Z</time></trkpt><trkpt lat="43.3748641" lon="10.6481405"><ele>182.0</ele><time>2026-04-18T14:46:00.182Z</time></trkpt><trkpt lat="43.3749206" lon="10.6480924"><ele>181.0</ele><time>2026-04-18T14:46:01.179Z</time></trkpt><trkpt lat="43.3750222" lon="10.6480102"><ele>180.0</ele><time>2026-04-18T14:46:03.176Z</time></trkpt><trkpt lat="43.375113" lon="10.6479433"><ele>179.0</ele><time>2026-04-18T14:46:05.179Z</time></trkpt><trkpt lat="43.3751961" lon="10.6478861"><ele>178.0</ele><time>2026-04-18T14:46:07.178Z</time></trkpt><trkpt lat="43.3752906" lon="10.6478609"><ele>177.0</ele><time>2026-04-18T14:46:09.177Z</time></trkpt><trkpt lat="43.3754059" lon="10.647882"><ele>177.0</ele><time>2026-04-18T14:46:11.172Z</time></trkpt><trkpt lat="43.3754663" lon="10.647908"><ele>177.0</ele><time>2026-04-18T14:46:12.177Z</time></trkpt><trkpt lat="43.3755303" lon="10.6479393"><ele>177.0</ele><time>2026-04-18T14:46:13.179Z</time></trkpt><trkpt lat="43.3756002" lon="10.6479499"><ele>177.0</ele><time>2026-04-18T14:46:14.181Z</time></trkpt><trkpt lat="43.3756725" lon="10.6479553"><ele>177.0</ele><time>2026-04-18T14:46:15.176Z</time></trkpt><trkpt lat="43.3757527" lon="10.6479461"><ele>177.0</ele><time>2026-04-18T14:46:16.183Z</time></trkpt><trkpt lat="43.3758298" lon="10.6479476"><ele>177.0</ele><time>2026-04-18T14:46:17.178Z</time></trkpt><trkpt lat="43.3759025" lon="10.6479354"><ele>176.83333333333334</ele><time>2026-04-18T14:46:18.185Z</time></trkpt><trkpt lat="43.3759747" lon="10.6479185"><ele>176.66666666666666</ele><time>2026-04-18T14:46:19.176Z</time></trkpt><trkpt lat="43.3760446" lon="10.6478866"><ele>176.5</ele><time>2026-04-18T14:46:20.18Z</time></trkpt><trkpt lat="43.3761027" lon="10.6478364"><ele>176.33333333333331</ele><time>2026-04-18T14:46:21.194Z</time></trkpt><trkpt lat="43.3761496" lon="10.6477707"><ele>176.16666666666666</ele><time>2026-04-18T14:46:22.184Z</time></trkpt><trkpt lat="43.376196" lon="10.6477092"><ele>176.0</ele><time>2026-04-18T14:46:23.16Z</time></trkpt><trkpt lat="43.3762875" lon="10.6475961"><ele>179.60000000000002</ele><time>2026-04-18T14:46:25.177Z</time></trkpt><trkpt lat="43.3764097" lon="10.6475827"><ele>183.2</ele><time>2026-04-18T14:46:27.183Z</time></trkpt><trkpt lat="43.3764989" lon="10.6476028"><ele>186.8</ele><time>2026-04-18T14:46:28.18Z</time></trkpt><trkpt lat="43.3765886" lon="10.6476221"><ele>190.39999999999998</ele><time>2026-04-18T14:46:29.183Z</time></trkpt><trkpt lat="43.3766827" lon="10.6476079"><ele>194.0</ele><time>2026-04-18T14:46:30.185Z</time></trkpt><trkpt lat="43.3767708" lon="10.6475925"><ele>194.00000000000003</ele><time>2026-04-18T14:46:31.168Z</time></trkpt><trkpt lat="43.3768583" lon="10.6475761"><ele>194.0</ele><time>2026-04-18T14:46:32.179Z</time></trkpt><trkpt lat="43.3769485" lon="10.6475369"><ele>194.0</ele><time>2026-04-18T14:46:33.183Z</time></trkpt><trkpt lat="43.3770308" lon="10.6475152"><ele>194.0</ele><time>2026-04-18T14:46:34.171Z</time></trkpt><trkpt lat="43.3771138" lon="10.6475039"><ele>194.00000000000003</ele><time>2026-04-18T14:46:35.176Z</time></trkpt><trkpt lat="43.3771942" lon="10.6474879"><ele>194.0</ele><time>2026-04-18T14:46:36.177Z</time></trkpt><trkpt lat="43.3772793" lon="10.6474729"><ele>193.33333333333334</ele><time>2026-04-18T14:46:37.182Z</time></trkpt><trkpt lat="43.3773601" lon="10.64745"><ele>192.66666666666669</ele><time>2026-04-18T14:46:38.179Z</time></trkpt><trkpt lat="43.3774257" lon="10.6474321"><ele>192.0</ele><time>2026-04-18T14:46:39.179Z</time></trkpt><trkpt lat="43.3774975" lon="10.647404"><ele>191.33333333333334</ele><time>2026-04-18T14:46:40.168Z</time></trkpt><trkpt lat="43.3775746" lon="10.6473602"><ele>190.66666666666669</ele><time>2026-04-18T14:46:41.177Z</time></trkpt><trkpt lat="43.3776468" lon="10.6472919"><ele>190.0</ele><time>2026-04-18T14:46:42.166Z</time></trkpt><trkpt lat="43.377711" lon="10.6472143"><ele>190.0</ele><time>2026-04-18T14:46:43.166Z</time></trkpt><trkpt lat="43.3778451" lon="10.6471527"><ele>190.0</ele><time>2026-04-18T14:46:44.179Z</time></trkpt><trkpt lat="43.3779133" lon="10.6470782"><ele>190.0</ele><time>2026-04-18T14:46:45.18Z</time></trkpt><trkpt lat="43.3779859" lon="10.6470155"><ele>190.0</ele><time>2026-04-18T14:46:46.188Z</time></trkpt><trkpt lat="43.3780722" lon="10.6469418"><ele>190.0</ele><time>2026-04-18T14:46:47.173Z</time></trkpt><trkpt lat="43.378145" lon="10.6468569"><ele>191.6</ele><time>2026-04-18T14:46:48.18Z</time></trkpt><trkpt lat="43.3782281" lon="10.6467777"><ele>193.2</ele><time>2026-04-18T14:46:49.176Z</time></trkpt><trkpt lat="43.3783083" lon="10.6466999"><ele>194.8</ele><time>2026-04-18T14:46:50.181Z</time></trkpt><trkpt lat="43.3783886" lon="10.6466196"><ele>196.4</ele><time>2026-04-18T14:46:51.173Z</time></trkpt><trkpt lat="43.378463" lon="10.6465461"><ele>198.0</ele><time>2026-04-18T14:46:52.181Z</time></trkpt><trkpt lat="43.3785503" lon="10.6464771"><ele>198.0</ele><time>2026-04-18T14:46:53.172Z</time></trkpt><trkpt lat="43.3786465" lon="10.6464268"><ele>198.0</ele><time>2026-04-18T14:46:54.178Z</time></trkpt><trkpt lat="43.3787355" lon="10.6463893"><ele>198.0</ele><time>2026-04-18T14:46:55.166Z</time></trkpt><trkpt lat="43.3788315" lon="10.6463682"><ele>198.0</ele><time>2026-04-18T14:46:56.179Z</time></trkpt><trkpt lat="43.3789104" lon="10.6463492"><ele>198.0</ele><time>2026-04-18T14:46:57.174Z</time></trkpt><trkpt lat="43.378996" lon="10.6463288"><ele>195.60000000000002</ele><time>2026-04-18T14:46:58.171Z</time></trkpt><trkpt lat="43.3790824" lon="10.6463075"><ele>193.20000000000002</ele><time>2026-04-18T14:46:59.172Z</time></trkpt><trkpt lat="43.3791736" lon="10.6462964"><ele>190.8</ele><time>2026-04-18T14:47:00.172Z</time></trkpt><trkpt lat="43.3792643" lon="10.646286"><ele>188.4</ele><time>2026-04-18T14:47:01.176Z</time></trkpt><trkpt lat="43.3793503" lon="10.6462737"><ele>186.0</ele><time>2026-04-18T14:47:02.172Z</time></trkpt><trkpt lat="43.3794453" lon="10.6462576"><ele>186.0</ele><time>2026-04-18T14:47:03.169Z</time></trkpt><trkpt lat="43.3795202" lon="10.646233"><ele>186.0</ele><time>2026-04-18T14:47:04.185Z</time></trkpt><trkpt lat="43.3796099" lon="10.6462042"><ele>186.0</ele><time>2026-04-18T14:47:05.176Z</time></trkpt><trkpt lat="43.3796917" lon="10.6461684"><ele>186.0</ele><time>2026-04-18T14:47:06.18Z</time></trkpt><trkpt lat="43.3797572" lon="10.6461408"><ele>186.0</ele><time>2026-04-18T14:47:07.172Z</time></trkpt><trkpt lat="43.3798378" lon="10.6461151"><ele>186.0</ele><time>2026-04-18T14:47:08.178Z</time></trkpt><trkpt lat="43.3799139" lon="10.6460977"><ele>188.5</ele><time>2026-04-18T14:47:09.179Z</time></trkpt><trkpt lat="43.3799862" lon="10.6460885"><ele>191.0</ele><time>2026-04-18T14:47:10.169Z</time></trkpt><trkpt lat="43.3800565" lon="10.646078"><ele>193.5</ele><time>2026-04-18T14:47:11.167Z</time></trkpt><trkpt lat="43.3801249" lon="10.6460762"><ele>196.0</ele><time>2026-04-18T14:47:12.162Z</time></trkpt><trkpt lat="43.380207" lon="10.6460812"><ele>198.5</ele><time>2026-04-18T14:47:13.172Z</time></trkpt><trkpt lat="43.380277" lon="10.6460789"><ele>201.0</ele><time>2026-04-18T14:47:14.175Z</time></trkpt><trkpt lat="43.3803957" lon="10.6460852"><ele>201.0</ele><time>2026-04-18T14:47:16.178Z</time></trkpt><trkpt lat="43.3804605" lon="10.6460825"><ele>201.0</ele><time>2026-04-18T14:47:17.18Z</time></trkpt><trkpt lat="43.3805777" lon="10.6460527"><ele>201.0</ele><time>2026-04-18T14:47:19.178Z</time></trkpt><trkpt lat="43.3806406" lon="10.6460115"><ele>201.0</ele><time>2026-04-18T14:47:20.172Z</time></trkpt><trkpt lat="43.3806887" lon="10.645948"><ele>201.0</ele><time>2026-04-18T14:47:21.173Z</time></trkpt><trkpt lat="43.3807356" lon="10.6458761"><ele>201.0</ele><time>2026-04-18T14:47:22.185Z</time></trkpt><trkpt lat="43.3807737" lon="10.645792"><ele>199.83333333333334</ele><time>2026-04-18T14:47:23.18Z</time></trkpt><trkpt lat="43.3808109" lon="10.6457063"><ele>198.66666666666669</ele><time>2026-04-18T14:47:24.176Z</time></trkpt><trkpt lat="43.3808585" lon="10.6456136"><ele>197.5</ele><time>2026-04-18T14:47:25.175Z</time></trkpt><trkpt lat="43.3809047" lon="10.6455435"><ele>196.33333333333334</ele><time>2026-04-18T14:47:26.173Z</time></trkpt><trkpt lat="43.3809489" lon="10.6454774"><ele>195.16666666666669</ele><time>2026-04-18T14:47:27.181Z</time></trkpt><trkpt lat="43.3810007" lon="10.6454142"><ele>194.0</ele><time>2026-04-18T14:47:28.175Z</time></trkpt><trkpt lat="43.3811131" lon="10.6453482"><ele>194.0</ele><time>2026-04-18T14:47:30.196Z</time></trkpt><trkpt lat="43.3812075" lon="10.6453444"><ele>194.0</ele><time>2026-04-18T14:47:32.173Z</time></trkpt><trkpt lat="43.3813387" lon="10.6453934"><ele>194.0</ele><time>2026-04-18T14:47:34.185Z</time></trkpt><trkpt lat="43.38141" lon="10.6454123"><ele>194.0</ele><time>2026-04-18T14:47:35.182Z</time></trkpt><trkpt lat="43.3815249" lon="10.6453509"><ele>194.0</ele><time>2026-04-18T14:47:37.171Z</time></trkpt><trkpt lat="43.3815783" lon="10.645305"><ele>196.39999999999998</ele><time>2026-04-18T14:47:38.188Z</time></trkpt><trkpt lat="43.381676" lon="10.6452097"><ele>198.8</ele><time>2026-04-18T14:47:40.186Z</time></trkpt><trkpt lat="43.3817319" lon="10.6451377"><ele>201.2</ele><time>2026-04-18T14:47:41.179Z</time></trkpt><trkpt lat="43.381782" lon="10.6450642"><ele>203.60000000000002</ele><time>2026-04-18T14:47:42.18Z</time></trkpt><trkpt lat="43.3818357" lon="10.6449979"><ele>206.0</ele><time>2026-04-18T14:47:43.191Z</time></trkpt><trkpt lat="43.3819266" lon="10.6448888"><ele>206.0</ele><time>2026-04-18T14:47:45.174Z</time></trkpt><trkpt lat="43.3820155" lon="10.6447987"><ele>206.0</ele><time>2026-04-18T14:47:47.176Z</time></trkpt><trkpt lat="43.3821369" lon="10.6447541"><ele>206.0</ele><time>2026-04-18T14:47:49.184Z</time></trkpt><trkpt lat="43.3821972" lon="10.6447188"><ele>206.0</ele><time>2026-04-18T14:47:50.183Z</time></trkpt><trkpt lat="43.382275" lon="10.6446947"><ele>206.0</ele><time>2026-04-18T14:47:51.174Z</time></trkpt><trkpt lat="43.3823833" lon="10.6446278"><ele>206.33333333333334</ele><time>2026-04-18T14:47:53.17Z</time></trkpt><trkpt lat="43.3824354" lon="10.6445719"><ele>206.66666666666669</ele><time>2026-04-18T14:47:54.181Z</time></trkpt><trkpt lat="43.3824793" lon="10.6445051"><ele>207.0</ele><time>2026-04-18T14:47:55.17Z</time></trkpt><trkpt lat="43.3825237" lon="10.6444247"><ele>207.33333333333331</ele><time>2026-04-18T14:47:56.181Z</time></trkpt><trkpt lat="43.3825783" lon="10.644257"><ele>207.66666666666666</ele><time>2026-04-18T14:47:58.181Z</time></trkpt><trkpt lat="43.3826095" lon="10.6441813"><ele>208.0</ele><time>2026-04-18T14:47:59.187Z</time></trkpt><trkpt lat="43.3826697" lon="10.6440501"><ele>209.4</ele><time>2026-04-18T14:48:01.178Z</time></trkpt><trkpt lat="43.3827471" lon="10.6439071"><ele>210.8</ele><time>2026-04-18T14:48:03.169Z</time></trkpt><trkpt lat="43.3827933" lon="10.6438463"><ele>212.2</ele><time>2026-04-18T14:48:04.176Z</time></trkpt><trkpt lat="43.3828999" lon="10.6437619"><ele>213.6</ele><time>2026-04-18T14:48:06.176Z</time></trkpt><trkpt lat="43.3830052" lon="10.6437305"><ele>215.0</ele><time>2026-04-18T14:48:08.174Z</time></trkpt><trkpt lat="43.3831021" lon="10.6436911"><ele>215.0</ele><time>2026-04-18T14:48:10.176Z</time></trkpt><trkpt lat="43.3831828" lon="10.6436388"><ele>215.0</ele><time>2026-04-18T14:48:12.171Z</time></trkpt><trkpt lat="43.3832743" lon="10.6435411"><ele>215.0</ele><time>2026-04-18T14:48:14.179Z</time></trkpt><trkpt lat="43.3833504" lon="10.6434894"><ele>215.0</ele><time>2026-04-18T14:48:15.174Z</time></trkpt><trkpt lat="43.3834117" lon="10.6434408"><ele>215.0</ele><time>2026-04-18T14:48:16.181Z</time></trkpt><trkpt lat="43.383496" lon="10.6433528"><ele>217.8</ele><time>2026-04-18T14:48:18.182Z</time></trkpt><trkpt lat="43.3835842" lon="10.6432795"><ele>220.6</ele><time>2026-04-18T14:48:20.187Z</time></trkpt><trkpt lat="43.3836455" lon="10.6431593"><ele>223.39999999999998</ele><time>2026-04-18T14:48:22.181Z</time></trkpt><trkpt lat="43.3837075" lon="10.6430209"><ele>226.2</ele><time>2026-04-18T14:48:24.187Z</time></trkpt><trkpt lat="43.3837419" lon="10.6429475"><ele>229.0</ele><time>2026-04-18T14:48:25.174Z</time></trkpt><trkpt lat="43.3837805" lon="10.6428714"><ele>230.6</ele><time>2026-04-18T14:48:26.179Z</time></trkpt><trkpt lat="43.3838691" lon="10.6427702"><ele>232.2</ele><time>2026-04-18T14:48:28.176Z</time></trkpt><trkpt lat="43.3839752" lon="10.6426964"><ele>233.79999999999998</ele><time>2026-04-18T14:48:30.175Z</time></trkpt><trkpt lat="43.3840357" lon="10.6426571"><ele>235.39999999999998</ele><time>2026-04-18T14:48:31.185Z</time></trkpt><trkpt lat="43.3841279" lon="10.6425504"><ele>237.0</ele><time>2026-04-18T14:48:33.178Z</time></trkpt><trkpt lat="43.3842019" lon="10.6424289"><ele>237.0</ele><time>2026-04-18T14:48:35.181Z</time></trkpt><trkpt lat="43.3842685" lon="10.642316"><ele>237.0</ele><time>2026-04-18T14:48:37.177Z</time></trkpt><trkpt lat="43.3843293" lon="10.6422232"><ele>237.0</ele><time>2026-04-18T14:48:39.171Z</time></trkpt><trkpt lat="43.3844315" lon="10.6421684"><ele>237.0</ele><time>2026-04-18T14:48:41.178Z</time></trkpt><trkpt lat="43.3845382" lon="10.6420898"><ele>237.0</ele><time>2026-04-18T14:48:43.178Z</time></trkpt><trkpt lat="43.3845947" lon="10.6420351"><ele>238.6</ele><time>2026-04-18T14:48:44.173Z</time></trkpt><trkpt lat="43.3846478" lon="10.641965"><ele>240.2</ele><time>2026-04-18T14:48:45.172Z</time></trkpt><trkpt lat="43.3847347" lon="10.6418614"><ele>241.8</ele><time>2026-04-18T14:48:47.171Z</time></trkpt><trkpt lat="43.3848286" lon="10.6417776"><ele>243.4</ele><time>2026-04-18T14:48:49.179Z</time></trkpt><trkpt lat="43.3849334" lon="10.6417165"><ele>245.0</ele><time>2026-04-18T14:48:51.17Z</time></trkpt><trkpt lat="43.3850164" lon="10.641657"><ele>245.0</ele><time>2026-04-18T14:48:53.172Z</time></trkpt><trkpt lat="43.3850987" lon="10.6416122"><ele>245.0</ele><time>2026-04-18T14:48:55.179Z</time></trkpt><trkpt lat="43.3851624" lon="10.6415408"><ele>245.0</ele><time>2026-04-18T14:48:57.19Z</time></trkpt><trkpt lat="43.3852507" lon="10.6414893"><ele>245.0</ele><time>2026-04-18T14:48:59.169Z</time></trkpt><trkpt lat="43.3853359" lon="10.6414637"><ele>245.0</ele><time>2026-04-18T14:49:01.168Z</time></trkpt><trkpt lat="43.3854372" lon="10.6414994"><ele>245.00000000000003</ele><time>2026-04-18T14:49:03.175Z</time></trkpt><trkpt lat="43.3855116" lon="10.6415847"><ele>245.0</ele><time>2026-04-18T14:49:05.174Z</time></trkpt><trkpt lat="43.3855549" lon="10.6416726"><ele>245.0</ele><time>2026-04-18T14:49:06.188Z</time></trkpt><trkpt lat="43.3855973" lon="10.6417436"><ele>245.0</ele><time>2026-04-18T14:49:07.178Z</time></trkpt><trkpt lat="43.3856215" lon="10.6418326"><ele>245.00000000000003</ele><time>2026-04-18T14:49:08.173Z</time></trkpt><trkpt lat="43.3856505" lon="10.6420172"><ele>245.0</ele><time>2026-04-18T14:49:10.166Z</time></trkpt><trkpt lat="43.3856586" lon="10.6421201"><ele>246.16666666666669</ele><time>2026-04-18T14:49:11.161Z</time></trkpt><trkpt lat="43.3856592" lon="10.6422227"><ele>247.33333333333334</ele><time>2026-04-18T14:49:12.186Z</time></trkpt><trkpt lat="43.38568" lon="10.6423284"><ele>248.5</ele><time>2026-04-18T14:49:13.182Z</time></trkpt><trkpt lat="43.3856765" lon="10.6424372"><ele>249.66666666666669</ele><time>2026-04-18T14:49:14.179Z</time></trkpt><trkpt lat="43.3856919" lon="10.6426252"><ele>250.83333333333334</ele><time>2026-04-18T14:49:16.185Z</time></trkpt><trkpt lat="43.3857325" lon="10.6427046"><ele>252.0</ele><time>2026-04-18T14:49:17.17Z</time></trkpt><trkpt lat="43.3857339" lon="10.6427972"><ele>252.0</ele><time>2026-04-18T14:49:18.202Z</time></trkpt><trkpt lat="43.3857424" lon="10.6428855"><ele>252.0</ele><time>2026-04-18T14:49:19.196Z</time></trkpt><trkpt lat="43.3857673" lon="10.6429791"><ele>252.0</ele><time>2026-04-18T14:49:20.192Z</time></trkpt><trkpt lat="43.3857922" lon="10.6430755"><ele>252.0</ele><time>2026-04-18T14:49:21.21Z</time></trkpt><trkpt lat="43.3858357" lon="10.6432099"><ele>252.0</ele><time>2026-04-18T14:49:23.185Z</time></trkpt><trkpt lat="43.3858885" lon="10.643323"><ele>252.0</ele><time>2026-04-18T14:49:25.198Z</time></trkpt><trkpt lat="43.3859875" lon="10.6433834"><ele>252.0</ele><time>2026-04-18T14:49:27.196Z</time></trkpt><trkpt lat="43.3861137" lon="10.643402"><ele>252.0</ele><time>2026-04-18T14:49:29.174Z</time></trkpt><trkpt lat="43.386184" lon="10.6434152"><ele>252.0</ele><time>2026-04-18T14:49:30.212Z</time></trkpt><trkpt lat="43.3862548" lon="10.6434243"><ele>252.0</ele><time>2026-04-18T14:49:31.188Z</time></trkpt><trkpt lat="43.3863269" lon="10.64343"><ele>252.0</ele><time>2026-04-18T14:49:32.187Z</time></trkpt><trkpt lat="43.3863974" lon="10.6434371"><ele>252.0</ele><time>2026-04-18T14:49:33.181Z</time></trkpt><trkpt lat="43.3864675" lon="10.6434505"><ele>253.14285714285714</ele><time>2026-04-18T14:49:34.201Z</time></trkpt><trkpt lat="43.3865374" lon="10.6434591"><ele>254.28571428571428</ele><time>2026-04-18T14:49:35.201Z</time></trkpt><trkpt lat="43.3866068" lon="10.6434682"><ele>255.42857142857144</ele><time>2026-04-18T14:49:36.19Z</time></trkpt><trkpt lat="43.3866711" lon="10.6434814"><ele>256.57142857142856</ele><time>2026-04-18T14:49:37.202Z</time></trkpt><trkpt lat="43.3867421" lon="10.6434998"><ele>257.7142857142857</ele><time>2026-04-18T14:49:38.192Z</time></trkpt><trkpt lat="43.386805" lon="10.6435108"><ele>258.8571428571429</ele><time>2026-04-18T14:49:39.182Z</time></trkpt><trkpt lat="43.3868703" lon="10.6435203"><ele>260.0</ele><time>2026-04-18T14:49:40.192Z</time></trkpt><trkpt lat="43.3869362" lon="10.6435269"><ele>260.00000000000006</ele><time>2026-04-18T14:49:41.182Z</time></trkpt><trkpt lat="43.3870045" lon="10.6435381"><ele>260.0</ele><time>2026-04-18T14:49:42.192Z</time></trkpt><trkpt lat="43.3870694" lon="10.6435447"><ele>260.0</ele><time>2026-04-18T14:49:43.184Z</time></trkpt><trkpt lat="43.3871358" lon="10.6435535"><ele>260.0</ele><time>2026-04-18T14:49:44.193Z</time></trkpt><trkpt lat="43.3872031" lon="10.643568"><ele>260.0</ele><time>2026-04-18T14:49:45.193Z</time></trkpt><trkpt lat="43.3872798" lon="10.6435796"><ele>260.00000000000006</ele><time>2026-04-18T14:49:46.184Z</time></trkpt><trkpt lat="43.3873483" lon="10.6435846"><ele>260.0</ele><time>2026-04-18T14:49:47.167Z</time></trkpt><trkpt lat="43.3874133" lon="10.6436036"><ele>260.1666666666667</ele><time>2026-04-18T14:49:48.177Z</time></trkpt><trkpt lat="43.3874833" lon="10.6436331"><ele>260.33333333333337</ele><time>2026-04-18T14:49:49.189Z</time></trkpt><trkpt lat="43.3875474" lon="10.6436625"><ele>260.5</ele><time>2026-04-18T14:49:50.189Z</time></trkpt><trkpt lat="43.3876374" lon="10.643689"><ele>260.6666666666667</ele><time>2026-04-18T14:49:52.18Z</time></trkpt><trkpt lat="43.3876829" lon="10.643594"><ele>260.8333333333333</ele><time>2026-04-18T14:49:54.189Z</time></trkpt><trkpt lat="43.3876996" lon="10.6434712"><ele>261.0</ele><time>2026-04-18T14:49:56.189Z</time></trkpt><trkpt lat="43.3877085" lon="10.6433254"><ele>262.6</ele><time>2026-04-18T14:49:58.197Z</time></trkpt><trkpt lat="43.3877194" lon="10.6431935"><ele>264.20000000000005</ele><time>2026-04-18T14:50:00.19Z</time></trkpt><trkpt lat="43.3877323" lon="10.6430691"><ele>265.79999999999995</ele><time>2026-04-18T14:50:02.202Z</time></trkpt><trkpt lat="43.3877407" lon="10.6429325"><ele>267.4</ele><time>2026-04-18T14:50:04.178Z</time></trkpt><trkpt lat="43.3877538" lon="10.6427959"><ele>269.0</ele><time>2026-04-18T14:50:06.188Z</time></trkpt><trkpt lat="43.3877638" lon="10.6426515"><ele>270.2</ele><time>2026-04-18T14:50:08.191Z</time></trkpt><trkpt lat="43.3877656" lon="10.6424899"><ele>271.4</ele><time>2026-04-18T14:50:10.194Z</time></trkpt><trkpt lat="43.3877754" lon="10.6423369"><ele>272.6</ele><time>2026-04-18T14:50:12.202Z</time></trkpt><trkpt lat="43.3877883" lon="10.6421895"><ele>273.8</ele><time>2026-04-18T14:50:14.187Z</time></trkpt><trkpt lat="43.3878149" lon="10.6420641"><ele>275.0</ele><time>2026-04-18T14:50:16.187Z</time></trkpt><trkpt lat="43.3878773" lon="10.6419586"><ele>275.8</ele><time>2026-04-18T14:50:18.204Z</time></trkpt><trkpt lat="43.3879644" lon="10.6419188"><ele>276.6</ele><time>2026-04-18T14:50:20.188Z</time></trkpt><trkpt lat="43.3880583" lon="10.6419276"><ele>277.4</ele><time>2026-04-18T14:50:22.199Z</time></trkpt><trkpt lat="43.3881632" lon="10.6419413"><ele>278.2</ele><time>2026-04-18T14:50:24.183Z</time></trkpt><trkpt lat="43.3882817" lon="10.6419638"><ele>279.0</ele><time>2026-04-18T14:50:26.196Z</time></trkpt><trkpt lat="43.3883801" lon="10.6419721"><ele>280.59999999999997</ele><time>2026-04-18T14:50:28.204Z</time></trkpt><trkpt lat="43.3884739" lon="10.6419843"><ele>282.2</ele><time>2026-04-18T14:50:30.199Z</time></trkpt><trkpt lat="43.3885611" lon="10.6420065"><ele>283.79999999999995</ele><time>2026-04-18T14:50:32.188Z</time></trkpt><trkpt lat="43.3886428" lon="10.642028"><ele>285.4</ele><time>2026-04-18T14:50:34.202Z</time></trkpt><trkpt lat="43.3887303" lon="10.6420268"><ele>287.0</ele><time>2026-04-18T14:50:36.187Z</time></trkpt><trkpt lat="43.3888377" lon="10.6419945"><ele>291.4</ele><time>2026-04-18T14:50:38.185Z</time></trkpt><trkpt lat="43.3889362" lon="10.6419575"><ele>295.79999999999995</ele><time>2026-04-18T14:50:40.185Z</time></trkpt><trkpt lat="43.3890483" lon="10.641928"><ele>300.2</ele><time>2026-04-18T14:50:42.185Z</time></trkpt><trkpt lat="43.3891658" lon="10.6418806"><ele>304.59999999999997</ele><time>2026-04-18T14:50:44.184Z</time></trkpt><trkpt lat="43.3892271" lon="10.6418605"><ele>309.0</ele><time>2026-04-18T14:50:45.178Z</time></trkpt><trkpt lat="43.3893477" lon="10.6418331"><ele>309.0</ele><time>2026-04-18T14:50:47.181Z</time></trkpt><trkpt lat="43.3894702" lon="10.6418182"><ele>309.0</ele><time>2026-04-18T14:50:49.178Z</time></trkpt><trkpt lat="43.3895891" lon="10.6417742"><ele>309.0</ele><time>2026-04-18T14:50:51.189Z</time></trkpt><trkpt lat="43.3897144" lon="10.6417274"><ele>309.0</ele><time>2026-04-18T14:50:53.182Z</time></trkpt><trkpt lat="43.389832" lon="10.6417237"><ele>310.25</ele><time>2026-04-18T14:50:55.182Z</time></trkpt><trkpt lat="43.3899577" lon="10.6417361"><ele>311.5</ele><time>2026-04-18T14:50:57.19Z</time></trkpt><trkpt lat="43.3900645" lon="10.6417617"><ele>312.75</ele><time>2026-04-18T14:50:59.189Z</time></trkpt><trkpt lat="43.3901657" lon="10.6417954"><ele>314.0</ele><time>2026-04-18T14:51:01.181Z</time></trkpt><trkpt lat="43.3902743" lon="10.6418393"><ele>314.0</ele><time>2026-04-18T14:51:03.183Z</time></trkpt><trkpt lat="43.3903876" lon="10.6418684"><ele>314.0</ele><time>2026-04-18T14:51:05.193Z</time></trkpt><trkpt lat="43.3904523" lon="10.641858"><ele>314.0</ele><time>2026-04-18T14:51:06.191Z</time></trkpt><trkpt lat="43.3905594" lon="10.6417679"><ele>314.0</ele><time>2026-04-18T14:51:08.198Z</time></trkpt><trkpt lat="43.3906155" lon="10.6417175"><ele>314.0</ele><time>2026-04-18T14:51:09.191Z</time></trkpt><trkpt lat="43.390677" lon="10.6416785"><ele>314.0</ele><time>2026-04-18T14:51:10.188Z</time></trkpt><trkpt lat="43.3907315" lon="10.6416313"><ele>314.5</ele><time>2026-04-18T14:51:11.179Z</time></trkpt><trkpt lat="43.3907935" lon="10.6415917"><ele>315.0</ele><time>2026-04-18T14:51:12.175Z</time></trkpt><trkpt lat="43.3909086" lon="10.6415897"><ele>315.5</ele><time>2026-04-18T14:51:14.199Z</time></trkpt><trkpt lat="43.390969" lon="10.6416266"><ele>316.0</ele><time>2026-04-18T14:51:15.195Z</time></trkpt><trkpt lat="43.3910379" lon="10.6416635"><ele>316.5</ele><time>2026-04-18T14:51:16.173Z</time></trkpt><trkpt lat="43.3911065" lon="10.6416866"><ele>317.0</ele><time>2026-04-18T14:51:17.189Z</time></trkpt><trkpt lat="43.3911723" lon="10.6417022"><ele>317.0</ele><time>2026-04-18T14:51:18.2Z</time></trkpt><trkpt lat="43.3912354" lon="10.6416999"><ele>317.0</ele><time>2026-04-18T14:51:19.195Z</time></trkpt><trkpt lat="43.3913601" lon="10.6417005"><ele>317.0</ele><time>2026-04-18T14:51:21.182Z</time></trkpt><trkpt lat="43.3914363" lon="10.6416996"><ele>317.0</ele><time>2026-04-18T14:51:22.183Z</time></trkpt><trkpt lat="43.3915144" lon="10.6416907"><ele>317.0</ele><time>2026-04-18T14:51:23.185Z</time></trkpt><trkpt lat="43.39159" lon="10.6416859"><ele>317.0</ele><time>2026-04-18T14:51:24.183Z</time></trkpt><trkpt lat="43.3916522" lon="10.6417016"><ele>317.6</ele><time>2026-04-18T14:51:25.183Z</time></trkpt><trkpt lat="43.3917285" lon="10.6416933"><ele>318.2</ele><time>2026-04-18T14:51:26.184Z</time></trkpt><trkpt lat="43.3918393" lon="10.6416914"><ele>318.8</ele><time>2026-04-18T14:51:28.179Z</time></trkpt><trkpt lat="43.3919217" lon="10.641711"><ele>319.4</ele><time>2026-04-18T14:51:30.18Z</time></trkpt><trkpt lat="43.3920158" lon="10.6417322"><ele>320.0</ele><time>2026-04-18T14:51:32.179Z</time></trkpt><trkpt lat="43.3921101" lon="10.6417231"><ele>321.6666666666667</ele><time>2026-04-18T14:51:34.185Z</time></trkpt><trkpt lat="43.3922014" lon="10.6416928"><ele>323.33333333333337</ele><time>2026-04-18T14:51:36.189Z</time></trkpt><trkpt lat="43.3922948" lon="10.6416361"><ele>325.0</ele><time>2026-04-18T14:51:38.177Z</time></trkpt><trkpt lat="43.3923455" lon="10.6415565"><ele>326.6666666666667</ele><time>2026-04-18T14:51:40.176Z</time></trkpt><trkpt lat="43.3923856" lon="10.6414763"><ele>328.3333333333333</ele><time>2026-04-18T14:51:42.188Z</time></trkpt><trkpt lat="43.3924345" lon="10.641409"><ele>330.0</ele><time>2026-04-18T14:51:44.179Z</time></trkpt><trkpt lat="43.3924767" lon="10.6413409"><ele>330.0</ele><time>2026-04-18T14:51:46.186Z</time></trkpt><trkpt lat="43.3925093" lon="10.6412635"><ele>330.0</ele><time>2026-04-18T14:51:48.183Z</time></trkpt><trkpt lat="43.3925465" lon="10.641166"><ele>330.0</ele><time>2026-04-18T14:51:50.185Z</time></trkpt><trkpt lat="43.3926405" lon="10.6410699"><ele>330.0</ele><time>2026-04-18T14:51:52.183Z</time></trkpt><trkpt lat="43.3927074" lon="10.6409705"><ele>330.0</ele><time>2026-04-18T14:51:54.189Z</time></trkpt><trkpt lat="43.3927389" lon="10.6408691"><ele>330.0</ele><time>2026-04-18T14:51:57.188Z</time></trkpt><trkpt lat="43.3927857" lon="10.6407904"><ele>331.8</ele><time>2026-04-18T14:51:59.182Z</time></trkpt><trkpt lat="43.392845" lon="10.6406517"><ele>333.6</ele><time>2026-04-18T14:52:01.191Z</time></trkpt><trkpt lat="43.3929035" lon="10.6405462"><ele>335.4</ele><time>2026-04-18T14:52:03.179Z</time></trkpt><trkpt lat="43.3929787" lon="10.6404412"><ele>337.2</ele><time>2026-04-18T14:52:05.168Z</time></trkpt><trkpt lat="43.3930566" lon="10.6403559"><ele>339.0</ele><time>2026-04-18T14:52:07.185Z</time></trkpt><trkpt lat="43.3931369" lon="10.640364"><ele>341.2</ele><time>2026-04-18T14:52:09.179Z</time></trkpt><trkpt lat="43.3932326" lon="10.6404258"><ele>343.4</ele><time>2026-04-18T14:52:11.179Z</time></trkpt><trkpt lat="43.3933045" lon="10.6405035"><ele>345.6</ele><time>2026-04-18T14:52:13.18Z</time></trkpt><trkpt lat="43.3933622" lon="10.6406102"><ele>347.8</ele><time>2026-04-18T14:52:15.176Z</time></trkpt><trkpt lat="43.3934421" lon="10.6407068"><ele>350.0</ele><time>2026-04-18T14:52:17.179Z</time></trkpt><trkpt lat="43.3935306" lon="10.6407735"><ele>350.0</ele><time>2026-04-18T14:52:19.174Z</time></trkpt><trkpt lat="43.3936152" lon="10.6408731"><ele>350.0</ele><time>2026-04-18T14:52:21.182Z</time></trkpt><trkpt lat="43.3936848" lon="10.6410076"><ele>350.0</ele><time>2026-04-18T14:52:23.189Z</time></trkpt><trkpt lat="43.3937487" lon="10.6411287"><ele>350.0</ele><time>2026-04-18T14:52:25.18Z</time></trkpt><trkpt lat="43.393837" lon="10.6411753"><ele>350.0</ele><time>2026-04-18T14:52:27.18Z</time></trkpt><trkpt lat="43.3939287" lon="10.6411823"><ele>350.8</ele><time>2026-04-18T14:52:29.174Z</time></trkpt><trkpt lat="43.3940098" lon="10.641189"><ele>351.6</ele><time>2026-04-18T14:52:31.185Z</time></trkpt><trkpt lat="43.3941065" lon="10.6411727"><ele>352.4</ele><time>2026-04-18T14:52:33.182Z</time></trkpt><trkpt lat="43.3942069" lon="10.6411556"><ele>353.2</ele><time>2026-04-18T14:52:35.186Z</time></trkpt><trkpt lat="43.3943103" lon="10.6411201"><ele>354.0</ele><time>2026-04-18T14:52:37.176Z</time></trkpt><trkpt lat="43.394406" lon="10.6410886"><ele>357.2</ele><time>2026-04-18T14:52:39.182Z</time></trkpt><trkpt lat="43.3945105" lon="10.6410356"><ele>360.4</ele><time>2026-04-18T14:52:41.181Z</time></trkpt><trkpt lat="43.394591" lon="10.6409574"><ele>363.6</ele><time>2026-04-18T14:52:43.188Z</time></trkpt><trkpt lat="43.3946232" lon="10.6408707"><ele>366.8</ele><time>2026-04-18T14:52:45.184Z</time></trkpt><trkpt lat="43.3946809" lon="10.6407736"><ele>370.0</ele><time>2026-04-18T14:52:48.173Z</time></trkpt><trkpt lat="43.3947912" lon="10.6407315"><ele>371.4</ele><time>2026-04-18T14:52:50.178Z</time></trkpt><trkpt lat="43.3949131" lon="10.6407002"><ele>372.8</ele><time>2026-04-18T14:52:52.183Z</time></trkpt><trkpt lat="43.3950405" lon="10.6406856"><ele>374.20000000000005</ele><time>2026-04-18T14:52:54.182Z</time></trkpt><trkpt lat="43.3951064" lon="10.6406704"><ele>375.6</ele><time>2026-04-18T14:52:55.176Z</time></trkpt><trkpt lat="43.3951692" lon="10.640648"><ele>377.0</ele><time>2026-04-18T14:52:56.184Z</time></trkpt><trkpt lat="43.3952933" lon="10.6406203"><ele>377.0</ele><time>2026-04-18T14:52:58.18Z</time></trkpt><trkpt lat="43.3953983" lon="10.6405903"><ele>377.0</ele><time>2026-04-18T14:53:00.18Z</time></trkpt><trkpt lat="43.3954656" lon="10.6405772"><ele>377.0</ele><time>2026-04-18T14:53:01.182Z</time></trkpt><trkpt lat="43.3955299" lon="10.6405683"><ele>377.0</ele><time>2026-04-18T14:53:02.188Z</time></trkpt><trkpt lat="43.395666" lon="10.6405232"><ele>377.0</ele><time>2026-04-18T14:53:04.178Z</time></trkpt><trkpt lat="43.3957443" lon="10.6404993"><ele>377.1666666666667</ele><time>2026-04-18T14:53:05.184Z</time></trkpt><trkpt lat="43.3958109" lon="10.6404695"><ele>377.33333333333337</ele><time>2026-04-18T14:53:06.198Z</time></trkpt><trkpt lat="43.3958881" lon="10.6404399"><ele>377.5</ele><time>2026-04-18T14:53:07.195Z</time></trkpt><trkpt lat="43.3959586" lon="10.6404217"><ele>377.6666666666667</ele><time>2026-04-18T14:53:08.195Z</time></trkpt><trkpt lat="43.3960585" lon="10.6403656"><ele>377.8333333333333</ele><time>2026-04-18T14:53:10.2Z</time></trkpt><trkpt lat="43.3961471" lon="10.6403406"><ele>378.0</ele><time>2026-04-18T14:53:13.197Z</time></trkpt><trkpt lat="43.3962126" lon="10.6403667"><ele>378.0</ele><time>2026-04-18T14:53:15.188Z</time></trkpt><trkpt lat="43.3962842" lon="10.6403961"><ele>378.0</ele><time>2026-04-18T14:53:17.179Z</time></trkpt><trkpt lat="43.3963785" lon="10.640423"><ele>378.0</ele><time>2026-04-18T14:53:19.174Z</time></trkpt><trkpt lat="43.3964453" lon="10.6404398"><ele>378.0</ele><time>2026-04-18T14:53:20.18Z</time></trkpt><trkpt lat="43.3965523" lon="10.6405157"><ele>378.0</ele><time>2026-04-18T14:53:22.177Z</time></trkpt><trkpt lat="43.3966149" lon="10.640551"><ele>378.0</ele><time>2026-04-18T14:53:23.194Z</time></trkpt><trkpt lat="43.3966741" lon="10.6405843"><ele>377.6666666666667</ele><time>2026-04-18T14:53:24.185Z</time></trkpt><trkpt lat="43.3967481" lon="10.640616"><ele>377.3333333333333</ele><time>2026-04-18T14:53:25.206Z</time></trkpt><trkpt lat="43.3968264" lon="10.6406338"><ele>377.0</ele><time>2026-04-18T14:53:26.18Z</time></trkpt><trkpt lat="43.3968894" lon="10.6406571"><ele>376.66666666666663</ele><time>2026-04-18T14:53:27.187Z</time></trkpt><trkpt lat="43.3969663" lon="10.6406744"><ele>376.3333333333333</ele><time>2026-04-18T14:53:28.183Z</time></trkpt><trkpt lat="43.3970861" lon="10.6406754"><ele>376.0</ele><time>2026-04-18T14:53:30.197Z</time></trkpt><trkpt lat="43.3972017" lon="10.6406482"><ele>376.0</ele><time>2026-04-18T14:53:32.18Z</time></trkpt><trkpt lat="43.397296" lon="10.6405921"><ele>376.0</ele><time>2026-04-18T14:53:34.203Z</time></trkpt><trkpt lat="43.3974037" lon="10.6405256"><ele>376.0</ele><time>2026-04-18T14:53:36.195Z</time></trkpt><trkpt lat="43.3974685" lon="10.6405131"><ele>376.0</ele><time>2026-04-18T14:53:37.191Z</time></trkpt><trkpt lat="43.3975649" lon="10.6404935"><ele>376.0</ele><time>2026-04-18T14:53:38.199Z</time></trkpt><trkpt lat="43.3976444" lon="10.6404768"><ele>376.0</ele><time>2026-04-18T14:53:39.197Z</time></trkpt><trkpt lat="43.3977492" lon="10.6404683"><ele>376.0</ele><time>2026-04-18T14:53:40.191Z</time></trkpt><trkpt lat="43.3978503" lon="10.6404573"><ele>376.0</ele><time>2026-04-18T14:53:41.205Z</time></trkpt><trkpt lat="43.397942" lon="10.6404511"><ele>376.0</ele><time>2026-04-18T14:53:42.182Z</time></trkpt><trkpt lat="43.3980423" lon="10.640456"><ele>376.0</ele><time>2026-04-18T14:53:43.172Z</time></trkpt><trkpt lat="43.3981367" lon="10.6404405"><ele>376.4</ele><time>2026-04-18T14:53:44.182Z</time></trkpt><trkpt lat="43.3982272" lon="10.6404287"><ele>376.8</ele><time>2026-04-18T14:53:45.181Z</time></trkpt><trkpt lat="43.3983262" lon="10.6404138"><ele>377.2</ele><time>2026-04-18T14:53:46.189Z</time></trkpt><trkpt lat="43.398428" lon="10.6404216"><ele>377.59999999999997</ele><time>2026-04-18T14:53:47.181Z</time></trkpt><trkpt lat="43.3985203" lon="10.64045"><ele>378.0</ele><time>2026-04-18T14:53:48.191Z</time></trkpt><trkpt lat="43.3986642" lon="10.6404816"><ele>378.0</ele><time>2026-04-18T14:53:49.184Z</time></trkpt><trkpt lat="43.3987759" lon="10.6405113"><ele>378.0</ele><time>2026-04-18T14:53:50.195Z</time></trkpt><trkpt lat="43.3988433" lon="10.6405301"><ele>378.0</ele><time>2026-04-18T14:53:51.18Z</time></trkpt><trkpt lat="43.39891" lon="10.6405467"><ele>378.0</ele><time>2026-04-18T14:53:52.196Z</time></trkpt><trkpt lat="43.3989801" lon="10.6405743"><ele>378.0</ele><time>2026-04-18T14:53:53.179Z</time></trkpt><trkpt lat="43.3990736" lon="10.6406154"><ele>378.0</ele><time>2026-04-18T14:53:54.197Z</time></trkpt><trkpt lat="43.3991707" lon="10.6407219"><ele>379.3333333333333</ele><time>2026-04-18T14:53:56.179Z</time></trkpt><trkpt lat="43.3992259" lon="10.6407678"><ele>380.66666666666663</ele><time>2026-04-18T14:53:57.179Z</time></trkpt><trkpt lat="43.3993271" lon="10.6408454"><ele>382.0</ele><time>2026-04-18T14:53:59.172Z</time></trkpt><trkpt lat="43.3994344" lon="10.6408837"><ele>383.3333333333333</ele><time>2026-04-18T14:54:01.181Z</time></trkpt><trkpt lat="43.3995136" lon="10.6408739"><ele>384.66666666666663</ele><time>2026-04-18T14:54:03.197Z</time></trkpt><trkpt lat="43.3995579" lon="10.6408076"><ele>386.0</ele><time>2026-04-18T14:54:06.176Z</time></trkpt><trkpt lat="43.3994895" lon="10.6407361"><ele>386.0</ele><time>2026-04-18T14:54:10.18Z</time></trkpt><trkpt lat="43.3994384" lon="10.6406444"><ele>386.0</ele><time>2026-04-18T14:54:12.168Z</time></trkpt><trkpt lat="43.3994104" lon="10.6405164"><ele>386.0</ele><time>2026-04-18T14:54:14.18Z</time></trkpt><trkpt lat="43.3994399" lon="10.6404041"><ele>386.0</ele><time>2026-04-18T14:54:16.183Z</time></trkpt><trkpt lat="43.3995172" lon="10.6403137"><ele>386.0</ele><time>2026-04-18T14:54:18.194Z</time></trkpt><trkpt lat="43.3995685" lon="10.6401904"><ele>388.20000000000005</ele><time>2026-04-18T14:54:20.184Z</time></trkpt><trkpt lat="43.3995869" lon="10.6400538"><ele>390.40000000000003</ele><time>2026-04-18T14:54:22.176Z</time></trkpt><trkpt lat="43.3995791" lon="10.639909"><ele>392.6</ele><time>2026-04-18T14:54:24.179Z</time></trkpt><trkpt lat="43.3995615" lon="10.6397513"><ele>394.8</ele><time>2026-04-18T14:54:26.183Z</time></trkpt><trkpt lat="43.3995397" lon="10.6396033"><ele>397.0</ele><time>2026-04-18T14:54:28.186Z</time></trkpt><trkpt lat="43.3995151" lon="10.6394436"><ele>399.50000000000006</ele><time>2026-04-18T14:54:30.188Z</time></trkpt><trkpt lat="43.3994735" lon="10.6392939"><ele>402.0</ele><time>2026-04-18T14:54:32.178Z</time></trkpt><trkpt lat="43.3994317" lon="10.6391632"><ele>404.5</ele><time>2026-04-18T14:54:34.175Z</time></trkpt><trkpt lat="43.3994057" lon="10.6390841"><ele>407.0</ele><time>2026-04-18T14:54:35.179Z</time></trkpt><trkpt lat="43.3993756" lon="10.6389942"><ele>409.50000000000006</ele><time>2026-04-18T14:54:36.182Z</time></trkpt><trkpt lat="43.3993396" lon="10.6389147"><ele>412.0</ele><time>2026-04-18T14:54:37.179Z</time></trkpt><trkpt lat="43.3992734" lon="10.6387836"><ele>412.0</ele><time>2026-04-18T14:54:39.18Z</time></trkpt><trkpt lat="43.3992075" lon="10.6386516"><ele>412.0</ele><time>2026-04-18T14:54:41.175Z</time></trkpt><trkpt lat="43.3991726" lon="10.6385757"><ele>412.0</ele><time>2026-04-18T14:54:42.181Z</time></trkpt><trkpt lat="43.3990992" lon="10.6384579"><ele>412.0</ele><time>2026-04-18T14:54:44.182Z</time></trkpt><trkpt lat="43.3990515" lon="10.6383235"><ele>412.0</ele><time>2026-04-18T14:54:46.173Z</time></trkpt><trkpt lat="43.3990202" lon="10.6381859"><ele>414.40000000000003</ele><time>2026-04-18T14:54:48.181Z</time></trkpt><trkpt lat="43.3990461" lon="10.6380441"><ele>416.8</ele><time>2026-04-18T14:54:50.18Z</time></trkpt><trkpt lat="43.3990581" lon="10.637903"><ele>419.2</ele><time>2026-04-18T14:54:52.18Z</time></trkpt><trkpt lat="43.399029" lon="10.6377553"><ele>421.6</ele><time>2026-04-18T14:54:54.181Z</time></trkpt><trkpt lat="43.3989829" lon="10.6375981"><ele>424.0</ele><time>2026-04-18T14:54:56.193Z</time></trkpt><trkpt lat="43.3989564" lon="10.6375164"><ele>424.50000000000006</ele><time>2026-04-18T14:54:57.181Z</time></trkpt><trkpt lat="43.3989034" lon="10.6374087"><ele>425.0</ele><time>2026-04-18T14:54:59.183Z</time></trkpt><trkpt lat="43.3988619" lon="10.6372739"><ele>425.5</ele><time>2026-04-18T14:55:01.179Z</time></trkpt><trkpt lat="43.3988075" lon="10.6371428"><ele>426.0</ele><time>2026-04-18T14:55:03.187Z</time></trkpt><trkpt lat="43.398767" lon="10.6370717"><ele>426.50000000000006</ele><time>2026-04-18T14:55:04.2Z</time></trkpt><trkpt lat="43.3987253" lon="10.6370016"><ele>427.0</ele><time>2026-04-18T14:55:05.187Z</time></trkpt><trkpt lat="43.3986311" lon="10.636908"><ele>430.20000000000005</ele><time>2026-04-18T14:55:07.177Z</time></trkpt><trkpt lat="43.3985304" lon="10.6368139"><ele>433.40000000000003</ele><time>2026-04-18T14:55:09.184Z</time></trkpt><trkpt lat="43.3984488" lon="10.6367358"><ele>436.59999999999997</ele><time>2026-04-18T14:55:11.178Z</time></trkpt><trkpt lat="43.3983597" lon="10.6366641"><ele>439.79999999999995</ele><time>2026-04-18T14:55:13.187Z</time></trkpt><trkpt lat="43.3982543" lon="10.636593"><ele>443.0</ele><time>2026-04-18T14:55:15.186Z</time></trkpt><trkpt lat="43.3981426" lon="10.6365284"><ele>443.0</ele><time>2026-04-18T14:55:17.184Z</time></trkpt><trkpt lat="43.3980297" lon="10.6364816"><ele>442.99999999999994</ele><time>2026-04-18T14:55:19.181Z</time></trkpt><trkpt lat="43.3979401" lon="10.636404"><ele>442.99999999999994</ele><time>2026-04-18T14:55:21.196Z</time></trkpt><trkpt lat="43.3978584" lon="10.6363044"><ele>443.0</ele><time>2026-04-18T14:55:23.188Z</time></trkpt><trkpt lat="43.3977887" lon="10.6362011"><ele>443.0</ele><time>2026-04-18T14:55:25.179Z</time></trkpt><trkpt lat="43.3977172" lon="10.6360932"><ele>445.49999999999994</ele><time>2026-04-18T14:55:27.166Z</time></trkpt><trkpt lat="43.3976505" lon="10.6359673"><ele>448.0</ele><time>2026-04-18T14:55:29.186Z</time></trkpt><trkpt lat="43.3975946" lon="10.6358902"><ele>450.5</ele><time>2026-04-18T14:55:31.187Z</time></trkpt><trkpt lat="43.3975415" lon="10.6358261"><ele>453.0</ele><time>2026-04-18T14:55:33.175Z</time></trkpt><trkpt lat="43.3974924" lon="10.6357519"><ele>455.49999999999994</ele><time>2026-04-18T14:55:35.169Z</time></trkpt><trkpt lat="43.3974506" lon="10.635627"><ele>458.0</ele><time>2026-04-18T14:55:37.185Z</time></trkpt><trkpt lat="43.3974369" lon="10.6355294"><ele>457.99999999999994</ele><time>2026-04-18T14:55:38.183Z</time></trkpt><trkpt lat="43.397435" lon="10.6354285"><ele>458.0</ele><time>2026-04-18T14:55:39.178Z</time></trkpt><trkpt lat="43.3974236" lon="10.6353338"><ele>458.0</ele><time>2026-04-18T14:55:40.2Z</time></trkpt><trkpt lat="43.3974157" lon="10.6352405"><ele>458.0</ele><time>2026-04-18T14:55:41.185Z</time></trkpt><trkpt lat="43.397398" lon="10.635156"><ele>457.99999999999994</ele><time>2026-04-18T14:55:42.184Z</time></trkpt><trkpt lat="43.3974065" lon="10.6349992"><ele>458.0</ele><time>2026-04-18T14:55:44.179Z</time></trkpt><trkpt lat="43.3974315" lon="10.6348492"><ele>460.0</ele><time>2026-04-18T14:55:46.183Z</time></trkpt><trkpt lat="43.3974621" lon="10.6346495"><ele>461.99999999999994</ele><time>2026-04-18T14:55:48.187Z</time></trkpt><trkpt lat="43.3974724" lon="10.6345341"><ele>463.99999999999994</ele><time>2026-04-18T14:55:49.197Z</time></trkpt><trkpt lat="43.3974934" lon="10.6344232"><ele>466.0</ele><time>2026-04-18T14:55:50.178Z</time></trkpt><trkpt lat="43.3975162" lon="10.6343016"><ele>468.0</ele><time>2026-04-18T14:55:51.179Z</time></trkpt><trkpt lat="43.3975379" lon="10.63418"><ele>468.1666666666667</ele><time>2026-04-18T14:55:52.181Z</time></trkpt><trkpt lat="43.3975554" lon="10.6340636"><ele>468.33333333333337</ele><time>2026-04-18T14:55:53.183Z</time></trkpt><trkpt lat="43.3975743" lon="10.6339639"><ele>468.5</ele><time>2026-04-18T14:55:54.184Z</time></trkpt><trkpt lat="43.3975882" lon="10.6338647"><ele>468.6666666666667</ele><time>2026-04-18T14:55:55.193Z</time></trkpt><trkpt lat="43.3976078" lon="10.6337676"><ele>468.83333333333337</ele><time>2026-04-18T14:55:56.189Z</time></trkpt><trkpt lat="43.397626" lon="10.6336628"><ele>469.0</ele><time>2026-04-18T14:55:57.197Z</time></trkpt><trkpt lat="43.3976432" lon="10.6335586"><ele>468.4</ele><time>2026-04-18T14:55:58.194Z</time></trkpt><trkpt lat="43.3976526" lon="10.6334452"><ele>467.79999999999995</ele><time>2026-04-18T14:55:59.181Z</time></trkpt><trkpt lat="43.3976827" lon="10.6333182"><ele>467.20000000000005</ele><time>2026-04-18T14:56:00.19Z</time></trkpt><trkpt lat="43.3977089" lon="10.6331787"><ele>466.6</ele><time>2026-04-18T14:56:01.185Z</time></trkpt><trkpt lat="43.3977322" lon="10.6330495"><ele>466.0</ele><time>2026-04-18T14:56:02.191Z</time></trkpt><trkpt lat="43.3977581" lon="10.6329131"><ele>466.4</ele><time>2026-04-18T14:56:03.187Z</time></trkpt><trkpt lat="43.3977884" lon="10.6327724"><ele>466.8</ele><time>2026-04-18T14:56:04.192Z</time></trkpt><trkpt lat="43.3978088" lon="10.6326266"><ele>467.19999999999993</ele><time>2026-04-18T14:56:05.183Z</time></trkpt><trkpt lat="43.3978319" lon="10.6324962"><ele>467.59999999999997</ele><time>2026-04-18T14:56:06.187Z</time></trkpt><trkpt lat="43.3978495" lon="10.6323712"><ele>468.0</ele><time>2026-04-18T14:56:07.186Z</time></trkpt><trkpt lat="43.3978713" lon="10.6322609"><ele>468.0</ele><time>2026-04-18T14:56:08.2Z</time></trkpt><trkpt lat="43.3978948" lon="10.6321572"><ele>468.0</ele><time>2026-04-18T14:56:09.198Z</time></trkpt><trkpt lat="43.3979179" lon="10.6320621"><ele>468.0</ele><time>2026-04-18T14:56:10.176Z</time></trkpt><trkpt lat="43.3979538" lon="10.6319804"><ele>468.0</ele><time>2026-04-18T14:56:11.2Z</time></trkpt><trkpt lat="43.3980207" lon="10.6318616"><ele>468.0</ele><time>2026-04-18T14:56:13.182Z</time></trkpt><trkpt lat="43.398085" lon="10.6317302"><ele>468.0</ele><time>2026-04-18T14:56:15.178Z</time></trkpt><trkpt lat="43.3981153" lon="10.631648"><ele>468.8333333333333</ele><time>2026-04-18T14:56:16.189Z</time></trkpt><trkpt lat="43.3981472" lon="10.6315523"><ele>469.66666666666663</ele><time>2026-04-18T14:56:17.187Z</time></trkpt><trkpt lat="43.398189" lon="10.6314304"><ele>470.5</ele><time>2026-04-18T14:56:18.18Z</time></trkpt><trkpt lat="43.3982253" lon="10.6313343"><ele>471.3333333333333</ele><time>2026-04-18T14:56:19.181Z</time></trkpt><trkpt lat="43.398254" lon="10.6312505"><ele>472.16666666666663</ele><time>2026-04-18T14:56:20.186Z</time></trkpt><trkpt lat="43.398278" lon="10.6311677"><ele>473.0</ele><time>2026-04-18T14:56:21.185Z</time></trkpt><trkpt lat="43.398288" lon="10.6310412"><ele>474.2</ele><time>2026-04-18T14:56:23.177Z</time></trkpt><trkpt lat="43.398285" lon="10.6308908"><ele>475.4</ele><time>2026-04-18T14:56:25.192Z</time></trkpt><trkpt lat="43.3982791" lon="10.6307784"><ele>476.59999999999997</ele><time>2026-04-18T14:56:27.186Z</time></trkpt><trkpt lat="43.398259" lon="10.6306427"><ele>477.79999999999995</ele><time>2026-04-18T14:56:29.18Z</time></trkpt><trkpt lat="43.398238" lon="10.6305208"><ele>479.0</ele><time>2026-04-18T14:56:31.18Z</time></trkpt><trkpt lat="43.3982242" lon="10.6303915"><ele>480.99999999999994</ele><time>2026-04-18T14:56:33.178Z</time></trkpt><trkpt lat="43.3982173" lon="10.6302752"><ele>483.0</ele><time>2026-04-18T14:56:35.179Z</time></trkpt><trkpt lat="43.3982106" lon="10.6301314"><ele>485.0</ele><time>2026-04-18T14:56:37.183Z</time></trkpt><trkpt lat="43.3982241" lon="10.6300169"><ele>487.0</ele><time>2026-04-18T14:56:39.177Z</time></trkpt><trkpt lat="43.3982245" lon="10.6298983"><ele>488.99999999999994</ele><time>2026-04-18T14:56:41.179Z</time></trkpt><trkpt lat="43.3982098" lon="10.6297986"><ele>491.0</ele><time>2026-04-18T14:56:43.187Z</time></trkpt><trkpt lat="43.3982083" lon="10.6296806"><ele>490.99999999999994</ele><time>2026-04-18T14:56:45.187Z</time></trkpt><trkpt lat="43.3982111" lon="10.6295755"><ele>491.0</ele><time>2026-04-18T14:56:47.171Z</time></trkpt><trkpt lat="43.3982239" lon="10.6294906"><ele>491.0</ele><time>2026-04-18T14:56:49.175Z</time></trkpt><trkpt lat="43.3982323" lon="10.6293846"><ele>491.0</ele><time>2026-04-18T14:56:51.185Z</time></trkpt><trkpt lat="43.3982569" lon="10.6292659"><ele>490.99999999999994</ele><time>2026-04-18T14:56:53.18Z</time></trkpt><trkpt lat="43.3982585" lon="10.6291403"><ele>491.0</ele><time>2026-04-18T14:56:55.183Z</time></trkpt><trkpt lat="43.3982608" lon="10.6290186"><ele>491.66666666666663</ele><time>2026-04-18T14:56:57.184Z</time></trkpt><trkpt lat="43.3982497" lon="10.6289069"><ele>492.3333333333333</ele><time>2026-04-18T14:56:59.176Z</time></trkpt><trkpt lat="43.3982386" lon="10.628798"><ele>493.0</ele><time>2026-04-18T14:57:01.169Z</time></trkpt><trkpt lat="43.398234" lon="10.6286853"><ele>493.66666666666663</ele><time>2026-04-18T14:57:03.177Z</time></trkpt><trkpt lat="43.3982244" lon="10.6285551"><ele>494.3333333333333</ele><time>2026-04-18T14:57:05.186Z</time></trkpt><trkpt lat="43.398219" lon="10.6284329"><ele>495.0</ele><time>2026-04-18T14:57:07.177Z</time></trkpt><trkpt lat="43.3982139" lon="10.6282797"><ele>495.4</ele><time>2026-04-18T14:57:09.186Z</time></trkpt><trkpt lat="43.3982069" lon="10.6281293"><ele>495.8</ele><time>2026-04-18T14:57:11.187Z</time></trkpt><trkpt lat="43.3981528" lon="10.6279634"><ele>496.20000000000005</ele><time>2026-04-18T14:57:13.182Z</time></trkpt><trkpt lat="43.3981158" lon="10.6278684"><ele>496.6</ele><time>2026-04-18T14:57:14.186Z</time></trkpt><trkpt lat="43.3980609" lon="10.6277739"><ele>497.0</ele><time>2026-04-18T14:57:15.182Z</time></trkpt><trkpt lat="43.3980203" lon="10.6276898"><ele>497.8</ele><time>2026-04-18T14:57:16.185Z</time></trkpt><trkpt lat="43.3979765" lon="10.6276147"><ele>498.6</ele><time>2026-04-18T14:57:17.193Z</time></trkpt><trkpt lat="43.397926" lon="10.6274512"><ele>499.40000000000003</ele><time>2026-04-18T14:57:19.183Z</time></trkpt><trkpt lat="43.3979482" lon="10.6272798"><ele>500.20000000000005</ele><time>2026-04-18T14:57:21.183Z</time></trkpt><trkpt lat="43.3979854" lon="10.6271987"><ele>501.0</ele><time>2026-04-18T14:57:22.185Z</time></trkpt><trkpt lat="43.3980322" lon="10.6271178"><ele>501.0</ele><time>2026-04-18T14:57:23.183Z</time></trkpt><trkpt lat="43.39808" lon="10.6270479"><ele>501.0</ele><time>2026-04-18T14:57:24.185Z</time></trkpt><trkpt lat="43.3981278" lon="10.6269708"><ele>501.0</ele><time>2026-04-18T14:57:25.183Z</time></trkpt><trkpt lat="43.3981869" lon="10.626917"><ele>501.0</ele><time>2026-04-18T14:57:26.191Z</time></trkpt><trkpt lat="43.3982595" lon="10.6268555"><ele>501.0</ele><time>2026-04-18T14:57:27.183Z</time></trkpt><trkpt lat="43.3983304" lon="10.6267921"><ele>501.0</ele><time>2026-04-18T14:57:28.189Z</time></trkpt><trkpt lat="43.3983963" lon="10.6267283"><ele>502.6666666666667</ele><time>2026-04-18T14:57:29.185Z</time></trkpt><trkpt lat="43.3984572" lon="10.6266558"><ele>504.33333333333337</ele><time>2026-04-18T14:57:30.188Z</time></trkpt><trkpt lat="43.3985105" lon="10.6265758"><ele>506.0</ele><time>2026-04-18T14:57:31.182Z</time></trkpt><trkpt lat="43.3985535" lon="10.6264939"><ele>507.6666666666667</ele><time>2026-04-18T14:57:32.181Z</time></trkpt><trkpt lat="43.398575" lon="10.6263969"><ele>509.33333333333337</ele><time>2026-04-18T14:57:33.188Z</time></trkpt><trkpt lat="43.3985897" lon="10.6263108"><ele>511.0</ele><time>2026-04-18T14:57:34.177Z</time></trkpt><trkpt lat="43.3985869" lon="10.6261841"><ele>513.75</ele><time>2026-04-18T14:57:36.185Z</time></trkpt><trkpt lat="43.3985034" lon="10.6260355"><ele>516.5</ele><time>2026-04-18T14:57:38.192Z</time></trkpt><trkpt lat="43.3984023" lon="10.6259751"><ele>519.25</ele><time>2026-04-18T14:57:40.187Z</time></trkpt><trkpt lat="43.3982714" lon="10.6259488"><ele>522.0</ele><time>2026-04-18T14:57:42.186Z</time></trkpt><trkpt lat="43.3981981" lon="10.6259028"><ele>522.0</ele><time>2026-04-18T14:57:43.176Z</time></trkpt><trkpt lat="43.3981403" lon="10.625841"><ele>522.0</ele><time>2026-04-18T14:57:44.189Z</time></trkpt><trkpt lat="43.3980955" lon="10.6257715"><ele>522.0</ele><time>2026-04-18T14:57:45.179Z</time></trkpt><trkpt lat="43.3980736" lon="10.625676"><ele>522.0</ele><time>2026-04-18T14:57:46.184Z</time></trkpt><trkpt lat="43.3980557" lon="10.6255809"><ele>522.0</ele><time>2026-04-18T14:57:47.18Z</time></trkpt><trkpt lat="43.3980453" lon="10.625492"><ele>522.0</ele><time>2026-04-18T14:57:48.183Z</time></trkpt><trkpt lat="43.3980359" lon="10.6253428"><ele>523.0</ele><time>2026-04-18T14:57:50.171Z</time></trkpt><trkpt lat="43.3980398" lon="10.6252125"><ele>524.0</ele><time>2026-04-18T14:57:52.19Z</time></trkpt><trkpt lat="43.3980524" lon="10.6250956"><ele>525.0</ele><time>2026-04-18T14:57:54.185Z</time></trkpt><trkpt lat="43.3980665" lon="10.6249561"><ele>526.0</ele><time>2026-04-18T14:57:56.191Z</time></trkpt><trkpt lat="43.3980876" lon="10.62484"><ele>527.0</ele><time>2026-04-18T14:57:59.175Z</time></trkpt><trkpt lat="43.3981227" lon="10.6247588"><ele>528.0</ele><time>2026-04-18T14:58:12.176Z</time></trkpt><trkpt lat="43.3981329" lon="10.624663"><ele>528.0</ele><time>2026-04-18T14:58:16.187Z</time></trkpt><trkpt lat="43.3981559" lon="10.6245785"><ele>528.0</ele><time>2026-04-18T14:58:45.194Z</time></trkpt><trkpt lat="43.3981631" lon="10.6244565"><ele>528.0</ele><time>2026-04-18T14:58:47.191Z</time></trkpt><trkpt lat="43.3981411" lon="10.6243359"><ele>528.0</ele><time>2026-04-18T14:58:49.184Z</time></trkpt><trkpt lat="43.3980758" lon="10.6243012"><ele>528.0</ele><time>2026-04-18T14:58:53.186Z</time></trkpt><trkpt lat="43.3981276" lon="10.6242453"><ele>528.0</ele><time>2026-04-18T14:58:59.182Z</time></trkpt><trkpt lat="43.3981777" lon="10.6243121"><ele>528.0</ele><time>2026-04-18T14:59:05.182Z</time></trkpt><trkpt lat="43.3982157" lon="10.6243907"><ele>528.0</ele><time>2026-04-18T14:59:07.183Z</time></trkpt><trkpt lat="43.3982507" lon="10.6244647"><ele>528.0</ele><time>2026-04-18T14:59:09.176Z</time></trkpt><trkpt lat="43.3983029" lon="10.6245283"><ele>528.0</ele><time>2026-04-18T14:59:12.183Z</time></trkpt><trkpt lat="43.3983654" lon="10.6244874"><ele>528.0</ele><time>2026-04-18T14:59:16.193Z</time></trkpt><trkpt lat="43.3989416" lon="10.6206165"><ele>529.25</ele><time>2026-04-18T15:03:41.161Z</time></trkpt><trkpt lat="43.3989751" lon="10.6204655"><ele>530.5</ele><time>2026-04-18T15:04:03.178Z</time></trkpt><trkpt lat="43.3990521" lon="10.6203463"><ele>531.75</ele><time>2026-04-18T15:04:05.168Z</time></trkpt><trkpt lat="43.3991234" lon="10.6202243"><ele>533.0</ele><time>2026-04-18T15:04:07.178Z</time></trkpt><trkpt lat="43.3991911" lon="10.6200936"><ele>533.0</ele><time>2026-04-18T15:04:09.178Z</time></trkpt><trkpt lat="43.3992476" lon="10.6199463"><ele>533.0</ele><time>2026-04-18T15:04:11.195Z</time></trkpt><trkpt lat="43.3992778" lon="10.6198699"><ele>533.0</ele><time>2026-04-18T15:04:12.178Z</time></trkpt><trkpt lat="43.3993129" lon="10.6197936"><ele>533.0</ele><time>2026-04-18T15:04:13.183Z</time></trkpt><trkpt lat="43.3993495" lon="10.6197206"><ele>533.0</ele><time>2026-04-18T15:04:14.172Z</time></trkpt><trkpt lat="43.3993853" lon="10.6196384"><ele>533.0</ele><time>2026-04-18T15:04:15.169Z</time></trkpt><trkpt lat="43.3994188" lon="10.6195487"><ele>532.8</ele><time>2026-04-18T15:04:16.164Z</time></trkpt><trkpt lat="43.3994415" lon="10.6194489"><ele>532.5999999999999</ele><time>2026-04-18T15:04:17.192Z</time></trkpt><trkpt lat="43.3994541" lon="10.6193498"><ele>532.4000000000001</ele><time>2026-04-18T15:04:18.173Z</time></trkpt><trkpt lat="43.3994618" lon="10.6192543"><ele>532.2</ele><time>2026-04-18T15:04:19.175Z</time></trkpt><trkpt lat="43.3994716" lon="10.6190951"><ele>532.0</ele><time>2026-04-18T15:04:21.188Z</time></trkpt><trkpt lat="43.3994844" lon="10.6189299"><ele>532.0</ele><time>2026-04-18T15:04:23.193Z</time></trkpt><trkpt lat="43.3995005" lon="10.6187824"><ele>532.0</ele><time>2026-04-18T15:04:25.19Z</time></trkpt><trkpt lat="43.3995019" lon="10.618689"><ele>532.0</ele><time>2026-04-18T15:04:29.189Z</time></trkpt><trkpt lat="43.3995315" lon="10.6186019"><ele>532.0</ele><time>2026-04-18T15:05:52.194Z</time></trkpt><trkpt lat="43.3995906" lon="10.6185548"><ele>532.0</ele><time>2026-04-18T15:05:55.183Z</time></trkpt><trkpt lat="43.3996745" lon="10.6186111"><ele>532.0</ele><time>2026-04-18T15:05:58.196Z</time></trkpt><trkpt lat="43.3997765" lon="10.6186907"><ele>533.0</ele><time>2026-04-18T15:06:00.192Z</time></trkpt><trkpt lat="43.399852" lon="10.6187478"><ele>534.0</ele><time>2026-04-18T15:06:01.183Z</time></trkpt><trkpt lat="43.3999325" lon="10.6188066"><ele>535.0</ele><time>2026-04-18T15:06:02.202Z</time></trkpt><trkpt lat="43.400014" lon="10.6188677"><ele>536.0</ele><time>2026-04-18T15:06:03.184Z</time></trkpt><trkpt lat="43.4000951" lon="10.6189343"><ele>537.0</ele><time>2026-04-18T15:06:04.18Z</time></trkpt><trkpt lat="43.4001773" lon="10.619"><ele>537.0</ele><time>2026-04-18T15:06:05.194Z</time></trkpt><trkpt lat="43.4002608" lon="10.6190685"><ele>537.0</ele><time>2026-04-18T15:06:06.194Z</time></trkpt><trkpt lat="43.4003389" lon="10.6191295"><ele>537.0</ele><time>2026-04-18T15:06:07.202Z</time></trkpt><trkpt lat="43.4004129" lon="10.6191874"><ele>537.0</ele><time>2026-04-18T15:06:08.187Z</time></trkpt><trkpt lat="43.4004911" lon="10.6192289"><ele>537.0</ele><time>2026-04-18T15:06:09.197Z</time></trkpt><trkpt lat="43.4005716" lon="10.619263"><ele>537.0</ele><time>2026-04-18T15:06:10.187Z</time></trkpt><trkpt lat="43.4006579" lon="10.6192814"><ele>535.6666666666666</ele><time>2026-04-18T15:06:11.206Z</time></trkpt><trkpt lat="43.4007482" lon="10.6192931"><ele>534.3333333333334</ele><time>2026-04-18T15:06:12.198Z</time></trkpt><trkpt lat="43.4008382" lon="10.6192937"><ele>533.0</ele><time>2026-04-18T15:06:13.178Z</time></trkpt><trkpt lat="43.4009255" lon="10.6192965"><ele>531.6666666666667</ele><time>2026-04-18T15:06:14.199Z</time></trkpt><trkpt lat="43.4010042" lon="10.6192964"><ele>530.3333333333334</ele><time>2026-04-18T15:06:15.197Z</time></trkpt><trkpt lat="43.4010775" lon="10.6192708"><ele>529.0</ele><time>2026-04-18T15:06:16.2Z</time></trkpt><trkpt lat="43.401146" lon="10.6192391"><ele>529.0</ele><time>2026-04-18T15:06:17.201Z</time></trkpt><trkpt lat="43.4012101" lon="10.6191923"><ele>529.0</ele><time>2026-04-18T15:06:18.188Z</time></trkpt><trkpt lat="43.4012816" lon="10.6191713"><ele>529.0</ele><time>2026-04-18T15:06:19.193Z</time></trkpt><trkpt lat="43.4013539" lon="10.6191676"><ele>529.0</ele><time>2026-04-18T15:06:20.193Z</time></trkpt><trkpt lat="43.4014202" lon="10.6191834"><ele>529.0</ele><time>2026-04-18T15:06:21.192Z</time></trkpt><trkpt lat="43.4014864" lon="10.6192233"><ele>529.0</ele><time>2026-04-18T15:06:22.192Z</time></trkpt><trkpt lat="43.4015577" lon="10.6192795"><ele>529.0</ele><time>2026-04-18T15:06:23.189Z</time></trkpt><trkpt lat="43.4016425" lon="10.6193542"><ele>527.5</ele><time>2026-04-18T15:06:24.199Z</time></trkpt><trkpt lat="43.4017384" lon="10.6194257"><ele>526.0</ele><time>2026-04-18T15:06:25.197Z</time></trkpt><trkpt lat="43.4018474" lon="10.6194989"><ele>524.5</ele><time>2026-04-18T15:06:26.203Z</time></trkpt><trkpt lat="43.4019615" lon="10.6195789"><ele>523.0</ele><time>2026-04-18T15:06:27.198Z</time></trkpt><trkpt lat="43.4020759" lon="10.6196572"><ele>517.25</ele><time>2026-04-18T15:06:28.19Z</time></trkpt><trkpt lat="43.402189" lon="10.6197324"><ele>511.5</ele><time>2026-04-18T15:06:29.196Z</time></trkpt><trkpt lat="43.4022912" lon="10.6198083"><ele>505.75</ele><time>2026-04-18T15:06:30.182Z</time></trkpt><trkpt lat="43.4023871" lon="10.6198901"><ele>500.0</ele><time>2026-04-18T15:06:31.186Z</time></trkpt><trkpt lat="43.4024627" lon="10.6199933"><ele>500.0</ele><time>2026-04-18T15:06:32.189Z</time></trkpt><trkpt lat="43.4025346" lon="10.6201003"><ele>500.0</ele><time>2026-04-18T15:06:33.192Z</time></trkpt><trkpt lat="43.4025948" lon="10.6202141"><ele>500.0</ele><time>2026-04-18T15:06:34.171Z</time></trkpt><trkpt lat="43.4026509" lon="10.6203378"><ele>500.0</ele><time>2026-04-18T15:06:35.192Z</time></trkpt><trkpt lat="43.402702" lon="10.6204581"><ele>500.0</ele><time>2026-04-18T15:06:36.177Z</time></trkpt><trkpt lat="43.4027559" lon="10.6205712"><ele>499.66666666666663</ele><time>2026-04-18T15:06:37.193Z</time></trkpt><trkpt lat="43.4028056" lon="10.6206779"><ele>499.3333333333333</ele><time>2026-04-18T15:06:38.17Z</time></trkpt><trkpt lat="43.4028563" lon="10.620785"><ele>499.0</ele><time>2026-04-18T15:06:39.197Z</time></trkpt><trkpt lat="43.4028954" lon="10.6208886"><ele>498.66666666666663</ele><time>2026-04-18T15:06:40.196Z</time></trkpt><trkpt lat="43.4029121" lon="10.6209989"><ele>498.3333333333333</ele><time>2026-04-18T15:06:41.185Z</time></trkpt><trkpt lat="43.402925" lon="10.6211224"><ele>498.0</ele><time>2026-04-18T15:06:42.188Z</time></trkpt><trkpt lat="43.4029319" lon="10.6212564"><ele>496.75</ele><time>2026-04-18T15:06:43.19Z</time></trkpt><trkpt lat="43.4029381" lon="10.6214125"><ele>495.5</ele><time>2026-04-18T15:06:44.192Z</time></trkpt><trkpt lat="43.402951" lon="10.6215945"><ele>494.25</ele><time>2026-04-18T15:06:45.186Z</time></trkpt><trkpt lat="43.402967" lon="10.6217768"><ele>493.0</ele><time>2026-04-18T15:06:46.185Z</time></trkpt><trkpt lat="43.4029789" lon="10.6219594"><ele>492.5</ele><time>2026-04-18T15:06:47.188Z</time></trkpt><trkpt lat="43.402988" lon="10.6221486"><ele>492.0</ele><time>2026-04-18T15:06:48.176Z</time></trkpt><trkpt lat="43.4029851" lon="10.6223317"><ele>491.5</ele><time>2026-04-18T15:06:49.191Z</time></trkpt><trkpt lat="43.4029708" lon="10.622496"><ele>491.0</ele><time>2026-04-18T15:06:50.191Z</time></trkpt><trkpt lat="43.4029385" lon="10.6226486"><ele>491.0</ele><time>2026-04-18T15:06:51.192Z</time></trkpt><trkpt lat="43.4028931" lon="10.6227906"><ele>491.0</ele><time>2026-04-18T15:06:52.18Z</time></trkpt><trkpt lat="43.4028403" lon="10.6229224"><ele>491.0</ele><time>2026-04-18T15:06:53.188Z</time></trkpt><trkpt lat="43.4027983" lon="10.6230481"><ele>491.0</ele><time>2026-04-18T15:06:54.18Z</time></trkpt><trkpt lat="43.4027673" lon="10.6231831"><ele>491.0</ele><time>2026-04-18T15:06:55.181Z</time></trkpt><trkpt lat="43.402747" lon="10.6233345"><ele>490.8</ele><time>2026-04-18T15:06:56.192Z</time></trkpt><trkpt lat="43.4027461" lon="10.6234783"><ele>490.6</ele><time>2026-04-18T15:06:57.183Z</time></trkpt><trkpt lat="43.4027615" lon="10.6236121"><ele>490.4</ele><time>2026-04-18T15:06:58.18Z</time></trkpt><trkpt lat="43.4027901" lon="10.6237359"><ele>490.2</ele><time>2026-04-18T15:06:59.181Z</time></trkpt><trkpt lat="43.4028238" lon="10.623852"><ele>490.0</ele><time>2026-04-18T15:07:00.176Z</time></trkpt><trkpt lat="43.4028518" lon="10.6239634"><ele>490.00000000000006</ele><time>2026-04-18T15:07:01.196Z</time></trkpt><trkpt lat="43.4028813" lon="10.6240862"><ele>490.0</ele><time>2026-04-18T15:07:02.172Z</time></trkpt><trkpt lat="43.4029018" lon="10.6242059"><ele>490.0</ele><time>2026-04-18T15:07:03.192Z</time></trkpt><trkpt lat="43.4029166" lon="10.6243213"><ele>490.0</ele><time>2026-04-18T15:07:04.19Z</time></trkpt><trkpt lat="43.4029329" lon="10.6244366"><ele>490.00000000000006</ele><time>2026-04-18T15:07:05.2Z</time></trkpt><trkpt lat="43.4029572" lon="10.62455"><ele>490.0</ele><time>2026-04-18T15:07:06.19Z</time></trkpt><trkpt lat="43.4030026" lon="10.6246613"><ele>490.6</ele><time>2026-04-18T15:07:07.186Z</time></trkpt><trkpt lat="43.4030525" lon="10.6247772"><ele>491.2</ele><time>2026-04-18T15:07:08.194Z</time></trkpt><trkpt lat="43.4031086" lon="10.6248867"><ele>491.79999999999995</ele><time>2026-04-18T15:07:09.178Z</time></trkpt><trkpt lat="43.4031516" lon="10.6249975"><ele>492.4</ele><time>2026-04-18T15:07:10.194Z</time></trkpt><trkpt lat="43.4031823" lon="10.6251081"><ele>493.0</ele><time>2026-04-18T15:07:11.183Z</time></trkpt><trkpt lat="43.4032065" lon="10.6252157"><ele>489.2</ele><time>2026-04-18T15:07:12.194Z</time></trkpt><trkpt lat="43.4032357" lon="10.6253298"><ele>485.4</ele><time>2026-04-18T15:07:13.18Z</time></trkpt><trkpt lat="43.4032798" lon="10.6254378"><ele>481.59999999999997</ele><time>2026-04-18T15:07:14.177Z</time></trkpt><trkpt lat="43.4033348" lon="10.6255541"><ele>477.79999999999995</ele><time>2026-04-18T15:07:15.197Z</time></trkpt><trkpt lat="43.4034005" lon="10.6256659"><ele>474.0</ele><time>2026-04-18T15:07:16.188Z</time></trkpt><trkpt lat="43.4034706" lon="10.6257886"><ele>474.0</ele><time>2026-04-18T15:07:17.191Z</time></trkpt><trkpt lat="43.4035364" lon="10.6259118"><ele>474.0</ele><time>2026-04-18T15:07:18.205Z</time></trkpt><trkpt lat="43.4036068" lon="10.6260329"><ele>474.0</ele><time>2026-04-18T15:07:19.175Z</time></trkpt><trkpt lat="43.403675" lon="10.6261629"><ele>474.0</ele><time>2026-04-18T15:07:20.188Z</time></trkpt><trkpt lat="43.4037469" lon="10.6262859"><ele>476.25</ele><time>2026-04-18T15:07:21.182Z</time></trkpt><trkpt lat="43.4038165" lon="10.6264245"><ele>478.5</ele><time>2026-04-18T15:07:22.18Z</time></trkpt><trkpt lat="43.4038863" lon="10.626562"><ele>480.75</ele><time>2026-04-18T15:07:23.18Z</time></trkpt><trkpt lat="43.4039531" lon="10.6266884"><ele>483.0</ele><time>2026-04-18T15:07:24.181Z</time></trkpt><trkpt lat="43.4040175" lon="10.6267993"><ele>483.0</ele><time>2026-04-18T15:07:25.173Z</time></trkpt><trkpt lat="43.4040884" lon="10.6268887"><ele>482.99999999999994</ele><time>2026-04-18T15:07:26.187Z</time></trkpt><trkpt lat="43.4041671" lon="10.6269771"><ele>482.99999999999994</ele><time>2026-04-18T15:07:27.192Z</time></trkpt><trkpt lat="43.4042448" lon="10.6270655"><ele>483.0</ele><time>2026-04-18T15:07:28.173Z</time></trkpt><trkpt lat="43.404317" lon="10.6271599"><ele>483.0</ele><time>2026-04-18T15:07:29.185Z</time></trkpt><trkpt lat="43.4043843" lon="10.6272386"><ele>480.6666666666667</ele><time>2026-04-18T15:07:30.185Z</time></trkpt><trkpt lat="43.4044566" lon="10.6272915"><ele>478.33333333333337</ele><time>2026-04-18T15:07:31.183Z</time></trkpt><trkpt lat="43.4045352" lon="10.6273359"><ele>476.0</ele><time>2026-04-18T15:07:32.185Z</time></trkpt><trkpt lat="43.4046088" lon="10.6273662"><ele>473.6666666666667</ele><time>2026-04-18T15:07:33.187Z</time></trkpt><trkpt lat="43.4046857" lon="10.6273839"><ele>471.33333333333337</ele><time>2026-04-18T15:07:34.182Z</time></trkpt><trkpt lat="43.4047646" lon="10.627396"><ele>469.0</ele><time>2026-04-18T15:07:35.18Z</time></trkpt><trkpt lat="43.4048451" lon="10.6274011"><ele>469.00000000000006</ele><time>2026-04-18T15:07:36.189Z</time></trkpt><trkpt lat="43.4049258" lon="10.6274151"><ele>469.0</ele><time>2026-04-18T15:07:37.177Z</time></trkpt><trkpt lat="43.4050032" lon="10.6274317"><ele>469.0</ele><time>2026-04-18T15:07:38.194Z</time></trkpt><trkpt lat="43.4050844" lon="10.6274545"><ele>469.0</ele><time>2026-04-18T15:07:39.194Z</time></trkpt><trkpt lat="43.4051596" lon="10.6274747"><ele>469.00000000000006</ele><time>2026-04-18T15:07:40.208Z</time></trkpt><trkpt lat="43.405227" lon="10.627508"><ele>469.0</ele><time>2026-04-18T15:07:41.197Z</time></trkpt><trkpt lat="43.4052858" lon="10.6275755"><ele>469.00000000000006</ele><time>2026-04-18T15:07:42.186Z</time></trkpt><trkpt lat="43.4053421" lon="10.6276642"><ele>469.0</ele><time>2026-04-18T15:07:43.196Z</time></trkpt><trkpt lat="43.4053813" lon="10.6277791"><ele>469.0</ele><time>2026-04-18T15:07:44.189Z</time></trkpt><trkpt lat="43.4054136" lon="10.6278907"><ele>469.0</ele><time>2026-04-18T15:07:45.199Z</time></trkpt><trkpt lat="43.4054436" lon="10.6279918"><ele>469.00000000000006</ele><time>2026-04-18T15:07:46.19Z</time></trkpt><trkpt lat="43.4054721" lon="10.6280899"><ele>469.0</ele><time>2026-04-18T15:07:47.193Z</time></trkpt><trkpt lat="43.4054997" lon="10.6281821"><ele>466.33333333333337</ele><time>2026-04-18T15:07:48.185Z</time></trkpt><trkpt lat="43.405548" lon="10.6283075"><ele>463.6666666666667</ele><time>2026-04-18T15:07:50.192Z</time></trkpt><trkpt lat="43.4055812" lon="10.6283938"><ele>461.0</ele><time>2026-04-18T15:08:02.184Z</time></trkpt><trkpt lat="43.4056151" lon="10.6285197"><ele>458.33333333333337</ele><time>2026-04-18T15:08:05.199Z</time></trkpt><trkpt lat="43.4056353" lon="10.6286181"><ele>455.6666666666667</ele><time>2026-04-18T15:08:07.195Z</time></trkpt><trkpt lat="43.4056493" lon="10.6287323"><ele>453.0</ele><time>2026-04-18T15:08:09.198Z</time></trkpt><trkpt lat="43.40568" lon="10.6288155"><ele>452.8333333333333</ele><time>2026-04-18T15:08:11.189Z</time></trkpt><trkpt lat="43.4057114" lon="10.6288921"><ele>452.66666666666663</ele><time>2026-04-18T15:08:13.193Z</time></trkpt><trkpt lat="43.4057503" lon="10.6289943"><ele>452.5</ele><time>2026-04-18T15:08:16.198Z</time></trkpt><trkpt lat="43.4057923" lon="10.629096"><ele>452.3333333333333</ele><time>2026-04-18T15:08:19.192Z</time></trkpt><trkpt lat="43.4058303" lon="10.6291972"><ele>452.16666666666663</ele><time>2026-04-18T15:08:22.2Z</time></trkpt><trkpt lat="43.4058691" lon="10.6292938"><ele>452.0</ele><time>2026-04-18T15:08:24.191Z</time></trkpt><trkpt lat="43.4059203" lon="10.6293948"><ele>451.40000000000003</ele><time>2026-04-18T15:08:26.179Z</time></trkpt><trkpt lat="43.4059677" lon="10.629503"><ele>450.80000000000007</ele><time>2026-04-18T15:08:28.204Z</time></trkpt><trkpt lat="43.4060136" lon="10.629619"><ele>450.2</ele><time>2026-04-18T15:08:30.198Z</time></trkpt><trkpt lat="43.4060409" lon="10.6297594"><ele>449.6</ele><time>2026-04-18T15:08:32.197Z</time></trkpt><trkpt lat="43.4060567" lon="10.6298843"><ele>449.0</ele><time>2026-04-18T15:08:34.189Z</time></trkpt><trkpt lat="43.4060776" lon="10.6299789"><ele>448.99999999999994</ele><time>2026-04-18T15:08:38.191Z</time></trkpt><trkpt lat="43.4061189" lon="10.6300723"><ele>449.0</ele><time>2026-04-18T15:08:42.182Z</time></trkpt><trkpt lat="43.4061566" lon="10.6301541"><ele>449.0</ele><time>2026-04-18T15:08:45.203Z</time></trkpt><trkpt lat="43.4061929" lon="10.63024"><ele>449.0</ele><time>2026-04-18T15:08:48.19Z</time></trkpt><trkpt lat="43.4062459" lon="10.6303381"><ele>448.99999999999994</ele><time>2026-04-18T15:08:51.197Z</time></trkpt><trkpt lat="43.4062905" lon="10.6304303"><ele>449.0</ele><time>2026-04-18T15:08:53.199Z</time></trkpt><trkpt lat="43.406292" lon="10.6305305"><ele>448.3333333333333</ele><time>2026-04-18T15:08:56.189Z</time></trkpt><trkpt lat="43.4062759" lon="10.6306507"><ele>447.66666666666663</ele><time>2026-04-18T15:09:27.198Z</time></trkpt><trkpt lat="43.4062682" lon="10.6307559"><ele>447.0</ele><time>2026-04-18T15:09:30.179Z</time></trkpt><trkpt lat="43.4062713" lon="10.6308601"><ele>446.33333333333337</ele><time>2026-04-18T15:09:33.182Z</time></trkpt><trkpt lat="43.4062766" lon="10.6309491"><ele>445.6666666666667</ele><time>2026-04-18T15:09:35.193Z</time></trkpt><trkpt lat="43.4062935" lon="10.6310464"><ele>445.0</ele><time>2026-04-18T15:09:37.184Z</time></trkpt><trkpt lat="43.4063191" lon="10.6311496"><ele>445.1666666666667</ele><time>2026-04-18T15:09:39.182Z</time></trkpt><trkpt lat="43.40633" lon="10.6312607"><ele>445.33333333333337</ele><time>2026-04-18T15:09:41.183Z</time></trkpt><trkpt lat="43.4063146" lon="10.6313798"><ele>445.5</ele><time>2026-04-18T15:09:43.177Z</time></trkpt><trkpt lat="43.4062944" lon="10.6314967"><ele>445.66666666666663</ele><time>2026-04-18T15:09:45.186Z</time></trkpt><trkpt lat="43.4062747" lon="10.6316098"><ele>445.8333333333333</ele><time>2026-04-18T15:09:47.19Z</time></trkpt><trkpt lat="43.4062729" lon="10.6317083"><ele>446.0</ele><time>2026-04-18T15:09:49.181Z</time></trkpt><trkpt lat="43.4062638" lon="10.631825"><ele>445.66666666666663</ele><time>2026-04-18T15:09:52.183Z</time></trkpt><trkpt lat="43.4062763" lon="10.6319488"><ele>445.3333333333333</ele><time>2026-04-18T15:09:55.175Z</time></trkpt><trkpt lat="43.4062918" lon="10.6320726"><ele>445.0</ele><time>2026-04-18T15:09:58.184Z</time></trkpt><trkpt lat="43.4063083" lon="10.6321739"><ele>444.66666666666663</ele><time>2026-04-18T15:10:00.179Z</time></trkpt><trkpt lat="43.4063208" lon="10.6322806"><ele>444.3333333333333</ele><time>2026-04-18T15:10:02.175Z</time></trkpt><trkpt lat="43.4063286" lon="10.632384"><ele>444.0</ele><time>2026-04-18T15:10:04.183Z</time></trkpt><trkpt lat="43.4063287" lon="10.6325114"><ele>444.0</ele><time>2026-04-18T15:10:06.192Z</time></trkpt><trkpt lat="43.4063249" lon="10.6326063"><ele>444.0</ele><time>2026-04-18T15:10:08.184Z</time></trkpt><trkpt lat="43.4063063" lon="10.6327085"><ele>444.0</ele><time>2026-04-18T15:10:11.183Z</time></trkpt><trkpt lat="43.4063052" lon="10.6328264"><ele>444.0</ele><time>2026-04-18T15:10:14.2Z</time></trkpt><trkpt lat="43.4062714" lon="10.6329182"><ele>444.0</ele><time>2026-04-18T15:10:17.195Z</time></trkpt><trkpt lat="43.4062299" lon="10.6330053"><ele>444.0</ele><time>2026-04-18T15:10:20.18Z</time></trkpt><trkpt lat="43.4061818" lon="10.6330715"><ele>444.4285714285714</ele><time>2026-04-18T15:10:23.192Z</time></trkpt><trkpt lat="43.4061302" lon="10.6331307"><ele>444.8571428571429</ele><time>2026-04-18T15:10:26.185Z</time></trkpt><trkpt lat="43.4060906" lon="10.6332337"><ele>445.2857142857143</ele><time>2026-04-18T15:10:45.187Z</time></trkpt><trkpt lat="43.4060733" lon="10.6333421"><ele>445.71428571428567</ele><time>2026-04-18T15:10:48.193Z</time></trkpt><trkpt lat="43.4060378" lon="10.6334156"><ele>446.1428571428571</ele><time>2026-04-18T15:11:25.183Z</time></trkpt><trkpt lat="43.4060906" lon="10.6333598"><ele>446.57142857142856</ele><time>2026-04-18T15:11:51.177Z</time></trkpt><trkpt lat="43.4061223" lon="10.6332633"><ele>447.0</ele><time>2026-04-18T15:11:54.171Z</time></trkpt><trkpt lat="43.4061715" lon="10.6331895"><ele>447.0</ele><time>2026-04-18T15:11:56.183Z</time></trkpt><trkpt lat="43.4062241" lon="10.6331218"><ele>447.0</ele><time>2026-04-18T15:11:58.181Z</time></trkpt><trkpt lat="43.4062589" lon="10.6330439"><ele>447.0</ele><time>2026-04-18T15:12:00.178Z</time></trkpt><trkpt lat="43.4063018" lon="10.6329214"><ele>447.0</ele><time>2026-04-18T15:12:03.181Z</time></trkpt><trkpt lat="43.4063248" lon="10.6328183"><ele>447.0</ele><time>2026-04-18T15:12:05.19Z</time></trkpt><trkpt lat="43.4063293" lon="10.6326952"><ele>447.0</ele><time>2026-04-18T15:12:08.186Z</time></trkpt><trkpt lat="43.4063397" lon="10.6325894"><ele>447.71428571428567</ele><time>2026-04-18T15:12:11.176Z</time></trkpt><trkpt lat="43.4063376" lon="10.6324857"><ele>448.42857142857144</ele><time>2026-04-18T15:12:14.168Z</time></trkpt><trkpt lat="43.4063661" lon="10.6324003"><ele>449.1428571428571</ele><time>2026-04-18T15:12:17.185Z</time></trkpt><trkpt lat="43.4064402" lon="10.6323742"><ele>449.85714285714283</ele><time>2026-04-18T15:12:20.186Z</time></trkpt><trkpt lat="43.4065086" lon="10.6323842"><ele>450.57142857142856</ele><time>2026-04-18T15:12:23.185Z</time></trkpt><trkpt lat="43.4065599" lon="10.6324546"><ele>451.2857142857143</ele><time>2026-04-18T15:12:51.179Z</time></trkpt><trkpt lat="43.4066058" lon="10.6325527"><ele>452.0</ele><time>2026-04-18T15:12:54.178Z</time></trkpt><trkpt lat="43.4066509" lon="10.6326442"><ele>451.99999999999994</ele><time>2026-04-18T15:12:57.185Z</time></trkpt><trkpt lat="43.406672" lon="10.6327401"><ele>452.0</ele><time>2026-04-18T15:13:00.186Z</time></trkpt><trkpt lat="43.4067111" lon="10.6328334"><ele>452.0</ele><time>2026-04-18T15:13:03.191Z</time></trkpt><trkpt lat="43.4067608" lon="10.6329271"><ele>452.0</ele><time>2026-04-18T15:13:06.168Z</time></trkpt><trkpt lat="43.4067948" lon="10.6330193"><ele>451.99999999999994</ele><time>2026-04-18T15:13:09.185Z</time></trkpt><trkpt lat="43.4068245" lon="10.633134"><ele>452.0</ele><time>2026-04-18T15:13:12.195Z</time></trkpt><trkpt lat="43.4068458" lon="10.6332213"><ele>453.16666666666663</ele><time>2026-04-18T15:13:14.199Z</time></trkpt><trkpt lat="43.4068511" lon="10.6333429"><ele>454.3333333333333</ele><time>2026-04-18T15:13:17.198Z</time></trkpt><trkpt lat="43.4068432" lon="10.6334542"><ele>455.5</ele><time>2026-04-18T15:13:20.199Z</time></trkpt><trkpt lat="43.4068111" lon="10.6335782"><ele>456.66666666666663</ele><time>2026-04-18T15:13:23.196Z</time></trkpt><trkpt lat="43.4067956" lon="10.6336676"><ele>457.8333333333333</ele><time>2026-04-18T15:13:25.176Z</time></trkpt><trkpt lat="43.4068064" lon="10.6337844"><ele>459.0</ele><time>2026-04-18T15:13:28.186Z</time></trkpt><trkpt lat="43.4068649" lon="10.6338764"><ele>459.14285714285717</ele><time>2026-04-18T15:13:31.195Z</time></trkpt><trkpt lat="43.4069072" lon="10.6339793"><ele>459.2857142857142</ele><time>2026-04-18T15:13:34.191Z</time></trkpt><trkpt lat="43.4069319" lon="10.6340845"><ele>459.4285714285714</ele><time>2026-04-18T15:13:37.19Z</time></trkpt><trkpt lat="43.4069512" lon="10.6341819"><ele>459.57142857142856</ele><time>2026-04-18T15:13:40.18Z</time></trkpt><trkpt lat="43.4069639" lon="10.6342748"><ele>459.71428571428567</ele><time>2026-04-18T15:13:43.199Z</time></trkpt><trkpt lat="43.406966" lon="10.6343671"><ele>459.8571428571428</ele><time>2026-04-18T15:13:56.186Z</time></trkpt><trkpt lat="43.4069584" lon="10.6342767"><ele>459.99999999999994</ele><time>2026-04-18T15:14:32.193Z</time></trkpt><trkpt lat="43.4069337" lon="10.6341691"><ele>459.99999999999994</ele><time>2026-04-18T15:14:36.19Z</time></trkpt><trkpt lat="43.406909" lon="10.634073"><ele>460.0</ele><time>2026-04-18T15:14:40.2Z</time></trkpt><trkpt lat="43.4068709" lon="10.6339677"><ele>459.99999999999994</ele><time>2026-04-18T15:14:44.186Z</time></trkpt><trkpt lat="43.4068327" lon="10.633891"><ele>459.99999999999994</ele><time>2026-04-18T15:14:46.199Z</time></trkpt><trkpt lat="43.4067977" lon="10.6338044"><ele>460.0</ele><time>2026-04-18T15:14:48.185Z</time></trkpt><trkpt lat="43.4067937" lon="10.6337124"><ele>459.99999999999994</ele><time>2026-04-18T15:14:50.184Z</time></trkpt><trkpt lat="43.4068133" lon="10.633604"><ele>459.99999999999994</ele><time>2026-04-18T15:14:53.196Z</time></trkpt><trkpt lat="43.4068238" lon="10.6335047"><ele>459.83333333333337</ele><time>2026-04-18T15:14:56.193Z</time></trkpt><trkpt lat="43.4068372" lon="10.6334086"><ele>459.6666666666667</ele><time>2026-04-18T15:15:00.183Z</time></trkpt><trkpt lat="43.4068339" lon="10.6333035"><ele>459.5</ele><time>2026-04-18T15:15:03.198Z</time></trkpt><trkpt lat="43.4068216" lon="10.633198"><ele>459.33333333333337</ele><time>2026-04-18T15:15:06.196Z</time></trkpt><trkpt lat="43.4067936" lon="10.6330834"><ele>459.1666666666667</ele><time>2026-04-18T15:15:09.188Z</time></trkpt><trkpt lat="43.4067655" lon="10.6329941"><ele>459.0</ele><time>2026-04-18T15:15:11.184Z</time></trkpt><trkpt lat="43.4067372" lon="10.6329039"><ele>459.0</ele><time>2026-04-18T15:15:13.187Z</time></trkpt><trkpt lat="43.4067107" lon="10.6328251"><ele>459.0</ele><time>2026-04-18T15:15:15.174Z</time></trkpt><trkpt lat="43.4066792" lon="10.6327118"><ele>459.0</ele><time>2026-04-18T15:15:18.178Z</time></trkpt><trkpt lat="43.4066665" lon="10.6325946"><ele>459.0</ele><time>2026-04-18T15:15:22.193Z</time></trkpt><trkpt lat="43.4066272" lon="10.6325227"><ele>459.0</ele><time>2026-04-18T15:15:24.195Z</time></trkpt><trkpt lat="43.4065717" lon="10.6324308"><ele>459.0</ele><time>2026-04-18T15:15:27.191Z</time></trkpt><trkpt lat="43.406498" lon="10.6323708"><ele>458.0</ele><time>2026-04-18T15:15:30.197Z</time></trkpt><trkpt lat="43.4064335" lon="10.6323506"><ele>457.0</ele><time>2026-04-18T15:15:32.175Z</time></trkpt><trkpt lat="43.4063617" lon="10.6323134"><ele>456.0</ele><time>2026-04-18T15:15:35.183Z</time></trkpt><trkpt lat="43.4063108" lon="10.6322518"><ele>455.0</ele><time>2026-04-18T15:15:38.191Z</time></trkpt><trkpt lat="43.4062915" lon="10.6321692"><ele>454.0</ele><time>2026-04-18T15:15:40.178Z</time></trkpt><trkpt lat="43.4062808" lon="10.632083"><ele>453.0</ele><time>2026-04-18T15:15:42.19Z</time></trkpt><trkpt lat="43.4062729" lon="10.6319672"><ele>452.0</ele><time>2026-04-18T15:15:45.189Z</time></trkpt><trkpt lat="43.4062607" lon="10.6318442"><ele>451.14285714285717</ele><time>2026-04-18T15:15:48.2Z</time></trkpt><trkpt lat="43.4062586" lon="10.6317493"><ele>450.2857142857143</ele><time>2026-04-18T15:15:51.184Z</time></trkpt><trkpt lat="43.4062864" lon="10.6316518"><ele>449.42857142857144</ele><time>2026-04-18T15:15:55.185Z</time></trkpt><trkpt lat="43.4062985" lon="10.6315523"><ele>448.57142857142856</ele><time>2026-04-18T15:15:58.192Z</time></trkpt><trkpt lat="43.4063229" lon="10.6314709"><ele>447.71428571428567</ele><time>2026-04-18T15:16:00.197Z</time></trkpt><trkpt lat="43.4063558" lon="10.631372"><ele>446.85714285714283</ele><time>2026-04-18T15:16:03.197Z</time></trkpt><trkpt lat="43.4063657" lon="10.6312648"><ele>446.0</ele><time>2026-04-18T15:16:08.189Z</time></trkpt><trkpt lat="43.4063377" lon="10.6311864"><ele>445.8333333333333</ele><time>2026-04-18T15:16:12.185Z</time></trkpt><trkpt lat="43.4063098" lon="10.6310578"><ele>445.66666666666663</ele><time>2026-04-18T15:16:27.195Z</time></trkpt><trkpt lat="43.4062924" lon="10.6309462"><ele>445.5</ele><time>2026-04-18T15:16:29.187Z</time></trkpt><trkpt lat="43.4062845" lon="10.6308435"><ele>445.33333333333337</ele><time>2026-04-18T15:16:31.184Z</time></trkpt><trkpt lat="43.4062811" lon="10.6307483"><ele>445.1666666666667</ele><time>2026-04-18T15:16:33.191Z</time></trkpt><trkpt lat="43.4063044" lon="10.6306535"><ele>445.0</ele><time>2026-04-18T15:16:36.169Z</time></trkpt><trkpt lat="43.4063038" lon="10.6305598"><ele>445.00000000000006</ele><time>2026-04-18T15:16:43.189Z</time></trkpt><trkpt lat="43.4062833" lon="10.6304376"><ele>445.0</ele><time>2026-04-18T15:16:46.174Z</time></trkpt><trkpt lat="43.4062427" lon="10.630348"><ele>445.0</ele><time>2026-04-18T15:16:48.167Z</time></trkpt><trkpt lat="43.4062038" lon="10.6302405"><ele>445.0</ele><time>2026-04-18T15:16:51.188Z</time></trkpt><trkpt lat="43.4061605" lon="10.6301363"><ele>445.00000000000006</ele><time>2026-04-18T15:16:54.186Z</time></trkpt><trkpt lat="43.4061331" lon="10.6300473"><ele>445.0</ele><time>2026-04-18T15:16:56.171Z</time></trkpt><trkpt lat="43.4061001" lon="10.629962"><ele>445.6666666666667</ele><time>2026-04-18T15:16:58.172Z</time></trkpt><trkpt lat="43.4060565" lon="10.6298677"><ele>446.33333333333337</ele><time>2026-04-18T15:17:00.177Z</time></trkpt><trkpt lat="43.406024" lon="10.6297581"><ele>447.0</ele><time>2026-04-18T15:17:02.18Z</time></trkpt><trkpt lat="43.4060035" lon="10.6296754"><ele>447.66666666666663</ele><time>2026-04-18T15:17:03.193Z</time></trkpt><trkpt lat="43.4059856" lon="10.6295911"><ele>448.3333333333333</ele><time>2026-04-18T15:17:04.18Z</time></trkpt><trkpt lat="43.4059457" lon="10.6294669"><ele>449.0</ele><time>2026-04-18T15:17:06.183Z</time></trkpt><trkpt lat="43.4058908" lon="10.6293511"><ele>449.49999999999994</ele><time>2026-04-18T15:17:08.164Z</time></trkpt><trkpt lat="43.4058438" lon="10.6292643"><ele>450.0</ele><time>2026-04-18T15:17:10.173Z</time></trkpt><trkpt lat="43.4058054" lon="10.6291634"><ele>450.5</ele><time>2026-04-18T15:17:13.188Z</time></trkpt><trkpt lat="43.4057705" lon="10.6290553"><ele>451.0</ele><time>2026-04-18T15:17:16.175Z</time></trkpt><trkpt lat="43.405737" lon="10.6289507"><ele>451.49999999999994</ele><time>2026-04-18T15:17:18.175Z</time></trkpt><trkpt lat="43.4057005" lon="10.6288253"><ele>452.0</ele><time>2026-04-18T15:17:20.183Z</time></trkpt><trkpt lat="43.4056644" lon="10.6287278"><ele>452.16666666666663</ele><time>2026-04-18T15:17:22.169Z</time></trkpt><trkpt lat="43.4056315" lon="10.6286291"><ele>452.3333333333333</ele><time>2026-04-18T15:17:24.178Z</time></trkpt><trkpt lat="43.4056279" lon="10.6285277"><ele>452.5</ele><time>2026-04-18T15:17:27.191Z</time></trkpt><trkpt lat="43.4056854" lon="10.6284497"><ele>452.66666666666663</ele><time>2026-04-18T15:17:31.188Z</time></trkpt><trkpt lat="43.4057676" lon="10.6284655"><ele>452.8333333333333</ele><time>2026-04-18T15:17:33.198Z</time></trkpt><trkpt lat="43.4058356" lon="10.6284996"><ele>453.0</ele><time>2026-04-18T15:17:34.202Z</time></trkpt><trkpt lat="43.4059295" lon="10.6285343"><ele>453.0</ele><time>2026-04-18T15:17:35.205Z</time></trkpt><trkpt lat="43.4060435" lon="10.6285714"><ele>453.0</ele><time>2026-04-18T15:17:36.182Z</time></trkpt><trkpt lat="43.4061705" lon="10.6286088"><ele>453.0</ele><time>2026-04-18T15:17:37.184Z</time></trkpt><trkpt lat="43.4062997" lon="10.6286375"><ele>453.0</ele><time>2026-04-18T15:17:38.175Z</time></trkpt><trkpt lat="43.4064275" lon="10.62866"><ele>450.4</ele><time>2026-04-18T15:17:39.2Z</time></trkpt><trkpt lat="43.4065344" lon="10.6287027"><ele>447.79999999999995</ele><time>2026-04-18T15:17:40.194Z</time></trkpt><trkpt lat="43.4066243" lon="10.6287628"><ele>445.2</ele><time>2026-04-18T15:17:41.187Z</time></trkpt><trkpt lat="43.4067032" lon="10.6288334"><ele>442.6</ele><time>2026-04-18T15:17:42.194Z</time></trkpt><trkpt lat="43.4067609" lon="10.6289272"><ele>440.0</ele><time>2026-04-18T15:17:43.189Z</time></trkpt><trkpt lat="43.4068135" lon="10.6290367"><ele>440.0</ele><time>2026-04-18T15:17:44.201Z</time></trkpt><trkpt lat="43.4068665" lon="10.6291645"><ele>440.0</ele><time>2026-04-18T15:17:45.213Z</time></trkpt><trkpt lat="43.4069411" lon="10.6292868"><ele>440.0</ele><time>2026-04-18T15:17:46.201Z</time></trkpt><trkpt lat="43.4070235" lon="10.6294162"><ele>440.0</ele><time>2026-04-18T15:17:47.176Z</time></trkpt><trkpt lat="43.4071025" lon="10.6295418"><ele>437.0</ele><time>2026-04-18T15:17:48.175Z</time></trkpt><trkpt lat="43.4071831" lon="10.6296624"><ele>434.0</ele><time>2026-04-18T15:17:49.202Z</time></trkpt><trkpt lat="43.4072595" lon="10.6297868"><ele>431.0</ele><time>2026-04-18T15:17:50.184Z</time></trkpt><trkpt lat="43.4073318" lon="10.6299187"><ele>428.0</ele><time>2026-04-18T15:17:51.184Z</time></trkpt><trkpt lat="43.4074064" lon="10.6300473"><ele>428.0</ele><time>2026-04-18T15:17:52.166Z</time></trkpt><trkpt lat="43.4074753" lon="10.6301675"><ele>427.99999999999994</ele><time>2026-04-18T15:17:53.171Z</time></trkpt><trkpt lat="43.4075369" lon="10.6302862"><ele>427.99999999999994</ele><time>2026-04-18T15:17:54.179Z</time></trkpt><trkpt lat="43.4076059" lon="10.6303964"><ele>428.0</ele><time>2026-04-18T15:17:55.185Z</time></trkpt><trkpt lat="43.4076756" lon="10.6305101"><ele>428.0</ele><time>2026-04-18T15:17:56.186Z</time></trkpt><trkpt lat="43.4077408" lon="10.630619"><ele>428.4</ele><time>2026-04-18T15:17:57.175Z</time></trkpt><trkpt lat="43.4078081" lon="10.6307272"><ele>428.79999999999995</ele><time>2026-04-18T15:17:58.176Z</time></trkpt><trkpt lat="43.4078632" lon="10.630842"><ele>429.2</ele><time>2026-04-18T15:17:59.179Z</time></trkpt><trkpt lat="43.4079107" lon="10.6309463"><ele>429.6</ele><time>2026-04-18T15:18:00.18Z</time></trkpt><trkpt lat="43.4079555" lon="10.6310543"><ele>430.0</ele><time>2026-04-18T15:18:01.177Z</time></trkpt><trkpt lat="43.4080148" lon="10.6311653"><ele>428.0</ele><time>2026-04-18T15:18:02.169Z</time></trkpt><trkpt lat="43.4080877" lon="10.6312683"><ele>426.0</ele><time>2026-04-18T15:18:03.192Z</time></trkpt><trkpt lat="43.408182" lon="10.6313443"><ele>424.0</ele><time>2026-04-18T15:18:04.181Z</time></trkpt><trkpt lat="43.4082765" lon="10.6314097"><ele>422.0</ele><time>2026-04-18T15:18:05.19Z</time></trkpt><trkpt lat="43.4083687" lon="10.631468"><ele>420.0</ele><time>2026-04-18T15:18:06.174Z</time></trkpt><trkpt lat="43.4084451" lon="10.6315222"><ele>420.0</ele><time>2026-04-18T15:18:07.179Z</time></trkpt><trkpt lat="43.4085065" lon="10.6315663"><ele>420.0</ele><time>2026-04-18T15:18:08.185Z</time></trkpt><trkpt lat="43.4086099" lon="10.6316379"><ele>420.0</ele><time>2026-04-18T15:18:10.192Z</time></trkpt><trkpt lat="43.4086898" lon="10.631712"><ele>420.0</ele><time>2026-04-18T15:18:12.172Z</time></trkpt><trkpt lat="43.40881" lon="10.6317599"><ele>420.0</ele><time>2026-04-18T15:18:14.18Z</time></trkpt><trkpt lat="43.4088803" lon="10.6317596"><ele>417.4</ele><time>2026-04-18T15:18:15.174Z</time></trkpt><trkpt lat="43.4089451" lon="10.6317547"><ele>414.8</ele><time>2026-04-18T15:18:16.191Z</time></trkpt><trkpt lat="43.409068" lon="10.6317325"><ele>412.20000000000005</ele><time>2026-04-18T15:18:18.185Z</time></trkpt><trkpt lat="43.4091633" lon="10.6316993"><ele>409.6</ele><time>2026-04-18T15:18:20.183Z</time></trkpt><trkpt lat="43.409269" lon="10.6316552"><ele>407.0</ele><time>2026-04-18T15:18:22.189Z</time></trkpt><trkpt lat="43.4093488" lon="10.6316367"><ele>406.99999999999994</ele><time>2026-04-18T15:18:23.179Z</time></trkpt><trkpt lat="43.4094239" lon="10.6316224"><ele>407.0</ele><time>2026-04-18T15:18:24.175Z</time></trkpt><trkpt lat="43.409496" lon="10.631612"><ele>407.0</ele><time>2026-04-18T15:18:25.175Z</time></trkpt><trkpt lat="43.409578" lon="10.631587"><ele>407.0</ele><time>2026-04-18T15:18:26.179Z</time></trkpt><trkpt lat="43.4096579" lon="10.6315528"><ele>406.99999999999994</ele><time>2026-04-18T15:18:27.173Z</time></trkpt><trkpt lat="43.4097286" lon="10.6315356"><ele>407.0</ele><time>2026-04-18T15:18:28.175Z</time></trkpt><trkpt lat="43.409793" lon="10.6315275"><ele>406.3333333333333</ele><time>2026-04-18T15:18:29.189Z</time></trkpt><trkpt lat="43.4098653" lon="10.6315573"><ele>405.66666666666663</ele><time>2026-04-18T15:18:30.182Z</time></trkpt><trkpt lat="43.4099365" lon="10.6316197"><ele>405.0</ele><time>2026-04-18T15:18:31.184Z</time></trkpt><trkpt lat="43.4099896" lon="10.6317016"><ele>404.33333333333337</ele><time>2026-04-18T15:18:32.185Z</time></trkpt><trkpt lat="43.4100252" lon="10.6317992"><ele>403.6666666666667</ele><time>2026-04-18T15:18:33.182Z</time></trkpt><trkpt lat="43.4100678" lon="10.6319018"><ele>403.0</ele><time>2026-04-18T15:18:34.183Z</time></trkpt><trkpt lat="43.410101" lon="10.6320006"><ele>403.00000000000006</ele><time>2026-04-18T15:18:35.188Z</time></trkpt><trkpt lat="43.4101293" lon="10.632097"><ele>403.0</ele><time>2026-04-18T15:18:36.191Z</time></trkpt><trkpt lat="43.4101626" lon="10.6321931"><ele>403.0</ele><time>2026-04-18T15:18:37.188Z</time></trkpt><trkpt lat="43.4101941" lon="10.6322947"><ele>403.0</ele><time>2026-04-18T15:18:38.187Z</time></trkpt><trkpt lat="43.4102339" lon="10.6323833"><ele>403.00000000000006</ele><time>2026-04-18T15:18:39.171Z</time></trkpt><trkpt lat="43.4102908" lon="10.6324769"><ele>403.0</ele><time>2026-04-18T15:18:40.175Z</time></trkpt><trkpt lat="43.4103595" lon="10.6325478"><ele>403.00000000000006</ele><time>2026-04-18T15:18:41.192Z</time></trkpt><trkpt lat="43.4104318" lon="10.6326107"><ele>403.0</ele><time>2026-04-18T15:18:42.181Z</time></trkpt><trkpt lat="43.4105099" lon="10.6326688"><ele>403.0</ele><time>2026-04-18T15:18:43.172Z</time></trkpt><trkpt lat="43.4105944" lon="10.6327042"><ele>403.0</ele><time>2026-04-18T15:18:44.175Z</time></trkpt><trkpt lat="43.4106797" lon="10.6327375"><ele>403.00000000000006</ele><time>2026-04-18T15:18:45.198Z</time></trkpt><trkpt lat="43.4107561" lon="10.6327688"><ele>403.0</ele><time>2026-04-18T15:18:46.18Z</time></trkpt><trkpt lat="43.4108305" lon="10.6328017"><ele>400.1666666666667</ele><time>2026-04-18T15:18:47.196Z</time></trkpt><trkpt lat="43.4109012" lon="10.6328432"><ele>397.33333333333337</ele><time>2026-04-18T15:18:48.192Z</time></trkpt><trkpt lat="43.4109728" lon="10.6329027"><ele>394.5</ele><time>2026-04-18T15:18:49.191Z</time></trkpt><trkpt lat="43.411032" lon="10.6329722"><ele>391.66666666666663</ele><time>2026-04-18T15:18:50.197Z</time></trkpt><trkpt lat="43.41108" lon="10.6330491"><ele>388.8333333333333</ele><time>2026-04-18T15:18:51.192Z</time></trkpt><trkpt lat="43.4111144" lon="10.6331237"><ele>386.0</ele><time>2026-04-18T15:18:52.187Z</time></trkpt><trkpt lat="43.4111682" lon="10.6332643"><ele>385.99999999999994</ele><time>2026-04-18T15:18:54.194Z</time></trkpt><trkpt lat="43.4112057" lon="10.633413"><ele>386.0</ele><time>2026-04-18T15:18:56.192Z</time></trkpt><trkpt lat="43.4112265" lon="10.6334991"><ele>386.0</ele><time>2026-04-18T15:18:57.198Z</time></trkpt><trkpt lat="43.4112448" lon="10.6335844"><ele>386.0</ele><time>2026-04-18T15:18:58.187Z</time></trkpt><trkpt lat="43.4112663" lon="10.6336676"><ele>385.99999999999994</ele><time>2026-04-18T15:18:59.185Z</time></trkpt><trkpt lat="43.4113134" lon="10.6338071"><ele>386.0</ele><time>2026-04-18T15:19:01.194Z</time></trkpt><trkpt lat="43.4113525" lon="10.6339644"><ele>385.16666666666663</ele><time>2026-04-18T15:19:03.187Z</time></trkpt><trkpt lat="43.4113683" lon="10.6340623"><ele>384.3333333333333</ele><time>2026-04-18T15:19:04.19Z</time></trkpt><trkpt lat="43.411379" lon="10.6341739"><ele>383.5</ele><time>2026-04-18T15:19:05.188Z</time></trkpt><trkpt lat="43.4113939" lon="10.6342886"><ele>382.66666666666663</ele><time>2026-04-18T15:19:06.191Z</time></trkpt><trkpt lat="43.4114174" lon="10.6344115"><ele>381.8333333333333</ele><time>2026-04-18T15:19:07.187Z</time></trkpt><trkpt lat="43.4114491" lon="10.6345173"><ele>381.0</ele><time>2026-04-18T15:19:08.182Z</time></trkpt><trkpt lat="43.4114949" lon="10.6346135"><ele>381.0</ele><time>2026-04-18T15:19:09.196Z</time></trkpt><trkpt lat="43.4115355" lon="10.6347007"><ele>381.0</ele><time>2026-04-18T15:19:10.183Z</time></trkpt><trkpt lat="43.4115779" lon="10.6347805"><ele>381.0</ele><time>2026-04-18T15:19:11.192Z</time></trkpt><trkpt lat="43.4116174" lon="10.6348556"><ele>381.0</ele><time>2026-04-18T15:19:12.184Z</time></trkpt><trkpt lat="43.4116518" lon="10.6349294"><ele>381.0</ele><time>2026-04-18T15:19:13.181Z</time></trkpt><trkpt lat="43.4117154" lon="10.6350545"><ele>381.0</ele><time>2026-04-18T15:19:15.183Z</time></trkpt><trkpt lat="43.41177" lon="10.6351499"><ele>381.0</ele><time>2026-04-18T15:19:17.192Z</time></trkpt><trkpt lat="43.4118193" lon="10.6352472"><ele>381.0</ele><time>2026-04-18T15:19:19.192Z</time></trkpt><trkpt lat="43.411865" lon="10.6353623"><ele>381.0</ele><time>2026-04-18T15:19:21.2Z</time></trkpt><trkpt lat="43.4118834" lon="10.6355325"><ele>381.0</ele><time>2026-04-18T15:19:23.194Z</time></trkpt><trkpt lat="43.4118873" lon="10.6356979"><ele>381.0</ele><time>2026-04-18T15:19:25.186Z</time></trkpt><trkpt lat="43.4119052" lon="10.6358324"><ele>381.5</ele><time>2026-04-18T15:19:27.185Z</time></trkpt><trkpt lat="43.4119252" lon="10.6359197"><ele>382.0</ele><time>2026-04-18T15:19:29.205Z</time></trkpt><trkpt lat="43.4119529" lon="10.6360453"><ele>382.5</ele><time>2026-04-18T15:19:32.179Z</time></trkpt><trkpt lat="43.4119847" lon="10.636159"><ele>383.0</ele><time>2026-04-18T15:19:34.178Z</time></trkpt><trkpt lat="43.4120191" lon="10.636261"><ele>383.5</ele><time>2026-04-18T15:19:36.183Z</time></trkpt><trkpt lat="43.4120523" lon="10.6363406"><ele>384.0</ele><time>2026-04-18T15:19:38.196Z</time></trkpt><trkpt lat="43.4120874" lon="10.6364192"><ele>384.0</ele><time>2026-04-18T15:19:40.19Z</time></trkpt><trkpt lat="43.4121326" lon="10.6364936"><ele>384.0</ele><time>2026-04-18T15:19:42.195Z</time></trkpt><trkpt lat="43.4122039" lon="10.6366042"><ele>384.0</ele><time>2026-04-18T15:19:44.186Z</time></trkpt><trkpt lat="43.412282" lon="10.6367264"><ele>384.0</ele><time>2026-04-18T15:19:46.199Z</time></trkpt><trkpt lat="43.4123321" lon="10.6367947"><ele>384.0</ele><time>2026-04-18T15:19:47.186Z</time></trkpt><trkpt lat="43.4123848" lon="10.6368644"><ele>384.0</ele><time>2026-04-18T15:19:48.193Z</time></trkpt><trkpt lat="43.4124347" lon="10.636946"><ele>381.6666666666667</ele><time>2026-04-18T15:19:49.198Z</time></trkpt><trkpt lat="43.4124812" lon="10.637014"><ele>379.3333333333333</ele><time>2026-04-18T15:19:50.19Z</time></trkpt><trkpt lat="43.4125243" lon="10.637078"><ele>377.0</ele><time>2026-04-18T15:19:51.182Z</time></trkpt><trkpt lat="43.412602" lon="10.6371929"><ele>374.66666666666663</ele><time>2026-04-18T15:19:53.189Z</time></trkpt><trkpt lat="43.412647" lon="10.6372619"><ele>372.3333333333333</ele><time>2026-04-18T15:19:54.187Z</time></trkpt><trkpt lat="43.4126995" lon="10.6373379"><ele>370.0</ele><time>2026-04-18T15:19:55.192Z</time></trkpt><trkpt lat="43.4127529" lon="10.6374176"><ele>370.0</ele><time>2026-04-18T15:19:56.192Z</time></trkpt><trkpt lat="43.4128065" lon="10.6374942"><ele>370.0</ele><time>2026-04-18T15:19:57.191Z</time></trkpt><trkpt lat="43.4128558" lon="10.6375745"><ele>370.0</ele><time>2026-04-18T15:19:58.187Z</time></trkpt><trkpt lat="43.4129052" lon="10.6376484"><ele>370.0</ele><time>2026-04-18T15:19:59.183Z</time></trkpt><trkpt lat="43.4129744" lon="10.6377306"><ele>370.0</ele><time>2026-04-18T15:20:01.202Z</time></trkpt><trkpt lat="43.4130452" lon="10.6377617"><ele>370.0</ele><time>2026-04-18T15:20:04.192Z</time></trkpt><trkpt lat="43.4131281" lon="10.6377629"><ele>369.0</ele><time>2026-04-18T15:20:06.195Z</time></trkpt><trkpt lat="43.4132018" lon="10.6377503"><ele>368.0</ele><time>2026-04-18T15:20:08.189Z</time></trkpt><trkpt lat="43.4132916" lon="10.6377643"><ele>367.0</ele><time>2026-04-18T15:20:11.193Z</time></trkpt><trkpt lat="43.4133507" lon="10.6378015"><ele>366.0</ele><time>2026-04-18T15:20:13.192Z</time></trkpt><trkpt lat="43.413418" lon="10.637858"><ele>365.0</ele><time>2026-04-18T15:20:15.186Z</time></trkpt><trkpt lat="43.4135167" lon="10.6379005"><ele>364.0</ele><time>2026-04-18T15:20:17.195Z</time></trkpt><trkpt lat="43.4136314" lon="10.6379402"><ele>364.2</ele><time>2026-04-18T15:20:19.198Z</time></trkpt><trkpt lat="43.4136848" lon="10.6379889"><ele>364.4</ele><time>2026-04-18T15:20:20.187Z</time></trkpt><trkpt lat="43.4137711" lon="10.6380794"><ele>364.6</ele><time>2026-04-18T15:20:22.182Z</time></trkpt><trkpt lat="43.4138412" lon="10.6381569"><ele>364.8</ele><time>2026-04-18T15:20:24.192Z</time></trkpt><trkpt lat="43.4139393" lon="10.6382439"><ele>365.0</ele><time>2026-04-18T15:20:26.194Z</time></trkpt><trkpt lat="43.4140083" lon="10.6382809"><ele>365.0</ele><time>2026-04-18T15:20:27.202Z</time></trkpt><trkpt lat="43.4140875" lon="10.6383254"><ele>365.0</ele><time>2026-04-18T15:20:28.188Z</time></trkpt><trkpt lat="43.4141725" lon="10.6383631"><ele>365.0</ele><time>2026-04-18T15:20:29.189Z</time></trkpt><trkpt lat="43.4142535" lon="10.6384151"><ele>365.0</ele><time>2026-04-18T15:20:30.199Z</time></trkpt><trkpt lat="43.4143375" lon="10.6384965"><ele>365.0</ele><time>2026-04-18T15:20:31.205Z</time></trkpt><trkpt lat="43.4144086" lon="10.6386036"><ele>363.8</ele><time>2026-04-18T15:20:32.185Z</time></trkpt><trkpt lat="43.414461" lon="10.6387088"><ele>362.6</ele><time>2026-04-18T15:20:33.184Z</time></trkpt><trkpt lat="43.4145232" lon="10.6388146"><ele>361.4</ele><time>2026-04-18T15:20:34.179Z</time></trkpt><trkpt lat="43.4145956" lon="10.6388989"><ele>360.2</ele><time>2026-04-18T15:20:35.191Z</time></trkpt><trkpt lat="43.4146891" lon="10.6389629"><ele>359.0</ele><time>2026-04-18T15:20:36.18Z</time></trkpt><trkpt lat="43.4147901" lon="10.6390291"><ele>359.0</ele><time>2026-04-18T15:20:37.19Z</time></trkpt><trkpt lat="43.414883" lon="10.6391018"><ele>359.0</ele><time>2026-04-18T15:20:38.184Z</time></trkpt><trkpt lat="43.41498" lon="10.639168"><ele>359.0</ele><time>2026-04-18T15:20:39.178Z</time></trkpt><trkpt lat="43.415072" lon="10.6392448"><ele>359.0</ele><time>2026-04-18T15:20:40.19Z</time></trkpt><trkpt lat="43.4151672" lon="10.6393245"><ele>359.0</ele><time>2026-04-18T15:20:41.213Z</time></trkpt><trkpt lat="43.4152541" lon="10.6394113"><ele>360.2</ele><time>2026-04-18T15:20:42.184Z</time></trkpt><trkpt lat="43.415336" lon="10.6395099"><ele>361.4</ele><time>2026-04-18T15:20:43.196Z</time></trkpt><trkpt lat="43.4154074" lon="10.639614"><ele>362.6</ele><time>2026-04-18T15:20:44.195Z</time></trkpt><trkpt lat="43.4154768" lon="10.6397178"><ele>363.8</ele><time>2026-04-18T15:20:45.193Z</time></trkpt><trkpt lat="43.415549" lon="10.6398139"><ele>365.0</ele><time>2026-04-18T15:20:46.191Z</time></trkpt><trkpt lat="43.4156389" lon="10.639884"><ele>365.0</ele><time>2026-04-18T15:20:47.198Z</time></trkpt><trkpt lat="43.4157343" lon="10.6399531"><ele>365.0</ele><time>2026-04-18T15:20:48.192Z</time></trkpt><trkpt lat="43.4158345" lon="10.640018"><ele>365.0</ele><time>2026-04-18T15:20:49.189Z</time></trkpt><trkpt lat="43.4159278" lon="10.6400803"><ele>365.0</ele><time>2026-04-18T15:20:50.186Z</time></trkpt><trkpt lat="43.4160099" lon="10.6401199"><ele>365.0</ele><time>2026-04-18T15:20:51.188Z</time></trkpt><trkpt lat="43.416097" lon="10.6401522"><ele>365.0</ele><time>2026-04-18T15:20:52.206Z</time></trkpt><trkpt lat="43.4161837" lon="10.6401756"><ele>365.0</ele><time>2026-04-18T15:20:53.207Z</time></trkpt><trkpt lat="43.4162735" lon="10.6401958"><ele>365.0</ele><time>2026-04-18T15:20:54.184Z</time></trkpt><trkpt lat="43.4163656" lon="10.6402148"><ele>365.0</ele><time>2026-04-18T15:20:55.189Z</time></trkpt><trkpt lat="43.4164581" lon="10.6402353"><ele>365.0</ele><time>2026-04-18T15:20:56.189Z</time></trkpt><trkpt lat="43.4165501" lon="10.6402576"><ele>365.6</ele><time>2026-04-18T15:20:57.194Z</time></trkpt><trkpt lat="43.4166282" lon="10.640294"><ele>366.2</ele><time>2026-04-18T15:20:58.183Z</time></trkpt><trkpt lat="43.4166937" lon="10.6403619"><ele>366.79999999999995</ele><time>2026-04-18T15:20:59.194Z</time></trkpt><trkpt lat="43.4167565" lon="10.6404549"><ele>367.4</ele><time>2026-04-18T15:21:00.181Z</time></trkpt><trkpt lat="43.4168366" lon="10.6405543"><ele>368.0</ele><time>2026-04-18T15:21:01.183Z</time></trkpt><trkpt lat="43.4169219" lon="10.6406651"><ele>367.5</ele><time>2026-04-18T15:21:02.185Z</time></trkpt><trkpt lat="43.417013" lon="10.6407802"><ele>367.0</ele><time>2026-04-18T15:21:03.19Z</time></trkpt><trkpt lat="43.4171125" lon="10.6408952"><ele>366.5</ele><time>2026-04-18T15:21:04.174Z</time></trkpt><trkpt lat="43.4172196" lon="10.6410239"><ele>366.0</ele><time>2026-04-18T15:21:05.186Z</time></trkpt><trkpt lat="43.4173221" lon="10.6411484"><ele>365.75</ele><time>2026-04-18T15:21:06.184Z</time></trkpt><trkpt lat="43.417422" lon="10.6412753"><ele>365.5</ele><time>2026-04-18T15:21:07.185Z</time></trkpt><trkpt lat="43.4175223" lon="10.6413949"><ele>365.25</ele><time>2026-04-18T15:21:08.19Z</time></trkpt><trkpt lat="43.4176199" lon="10.6415181"><ele>365.0</ele><time>2026-04-18T15:21:09.179Z</time></trkpt><trkpt lat="43.4177026" lon="10.6416293"><ele>365.0</ele><time>2026-04-18T15:21:10.177Z</time></trkpt><trkpt lat="43.4177817" lon="10.6417395"><ele>365.0</ele><time>2026-04-18T15:21:11.182Z</time></trkpt><trkpt lat="43.4178555" lon="10.6418464"><ele>365.0</ele><time>2026-04-18T15:21:12.19Z</time></trkpt><trkpt lat="43.4179254" lon="10.6419511"><ele>365.0</ele><time>2026-04-18T15:21:13.188Z</time></trkpt><trkpt lat="43.417998" lon="10.6420374"><ele>365.0</ele><time>2026-04-18T15:21:14.184Z</time></trkpt><trkpt lat="43.4180787" lon="10.6421132"><ele>365.6</ele><time>2026-04-18T15:21:15.187Z</time></trkpt><trkpt lat="43.4181653" lon="10.642184"><ele>366.2</ele><time>2026-04-18T15:21:16.175Z</time></trkpt><trkpt lat="43.4182528" lon="10.6422513"><ele>366.79999999999995</ele><time>2026-04-18T15:21:17.17Z</time></trkpt><trkpt lat="43.4183275" lon="10.6423196"><ele>367.4</ele><time>2026-04-18T15:21:18.177Z</time></trkpt><trkpt lat="43.4183884" lon="10.6423937"><ele>368.0</ele><time>2026-04-18T15:21:19.194Z</time></trkpt><trkpt lat="43.4184499" lon="10.6424644"><ele>368.0</ele><time>2026-04-18T15:21:20.194Z</time></trkpt><trkpt lat="43.4185207" lon="10.6425325"><ele>368.0</ele><time>2026-04-18T15:21:21.21Z</time></trkpt><trkpt lat="43.4185989" lon="10.6425874"><ele>368.0</ele><time>2026-04-18T15:21:22.202Z</time></trkpt><trkpt lat="43.41869" lon="10.6426486"><ele>368.0</ele><time>2026-04-18T15:21:23.192Z</time></trkpt><trkpt lat="43.4187747" lon="10.6426993"><ele>368.0</ele><time>2026-04-18T15:21:24.206Z</time></trkpt><trkpt lat="43.4188598" lon="10.6427583"><ele>369.59999999999997</ele><time>2026-04-18T15:21:25.189Z</time></trkpt><trkpt lat="43.4189407" lon="10.6428257"><ele>371.2</ele><time>2026-04-18T15:21:26.187Z</time></trkpt><trkpt lat="43.419019" lon="10.6428996"><ele>372.8</ele><time>2026-04-18T15:21:27.192Z</time></trkpt><trkpt lat="43.4190979" lon="10.6429775"><ele>374.4</ele><time>2026-04-18T15:21:28.18Z</time></trkpt><trkpt lat="43.4191897" lon="10.6430578"><ele>376.0</ele><time>2026-04-18T15:21:29.183Z</time></trkpt><trkpt lat="43.4192936" lon="10.6431293"><ele>376.0</ele><time>2026-04-18T15:21:30.191Z</time></trkpt><trkpt lat="43.4193988" lon="10.6431879"><ele>376.0</ele><time>2026-04-18T15:21:31.198Z</time></trkpt><trkpt lat="43.4194968" lon="10.6432374"><ele>376.0</ele><time>2026-04-18T15:21:32.178Z</time></trkpt><trkpt lat="43.4195786" lon="10.6432868"><ele>376.0</ele><time>2026-04-18T15:21:33.195Z</time></trkpt><trkpt lat="43.4196445" lon="10.6433223"><ele>376.0</ele><time>2026-04-18T15:21:34.173Z</time></trkpt><trkpt lat="43.4197018" lon="10.6433707"><ele>376.0</ele><time>2026-04-18T15:21:35.193Z</time></trkpt><trkpt lat="43.419751" lon="10.6434406"><ele>376.66666666666663</ele><time>2026-04-18T15:21:36.191Z</time></trkpt><trkpt lat="43.4197918" lon="10.6435219"><ele>377.3333333333333</ele><time>2026-04-18T15:21:37.183Z</time></trkpt><trkpt lat="43.4198366" lon="10.6436051"><ele>378.0</ele><time>2026-04-18T15:21:38.187Z</time></trkpt><trkpt lat="43.4198807" lon="10.6436931"><ele>378.6666666666667</ele><time>2026-04-18T15:21:39.187Z</time></trkpt><trkpt lat="43.4199245" lon="10.6437779"><ele>379.33333333333337</ele><time>2026-04-18T15:21:40.195Z</time></trkpt><trkpt lat="43.4199727" lon="10.6438632"><ele>380.0</ele><time>2026-04-18T15:21:41.189Z</time></trkpt><trkpt lat="43.4200277" lon="10.643953"><ele>380.0</ele><time>2026-04-18T15:21:42.195Z</time></trkpt><trkpt lat="43.4200909" lon="10.6440399"><ele>380.0</ele><time>2026-04-18T15:21:43.19Z</time></trkpt><trkpt lat="43.4201562" lon="10.6441323"><ele>380.0</ele><time>2026-04-18T15:21:44.19Z</time></trkpt><trkpt lat="43.420226" lon="10.6442336"><ele>380.0</ele><time>2026-04-18T15:21:45.199Z</time></trkpt><trkpt lat="43.4203011" lon="10.6443311"><ele>380.0</ele><time>2026-04-18T15:21:46.184Z</time></trkpt><trkpt lat="43.4203695" lon="10.6444106"><ele>379.0</ele><time>2026-04-18T15:21:47.19Z</time></trkpt><trkpt lat="43.4204345" lon="10.6444771"><ele>378.0</ele><time>2026-04-18T15:21:48.187Z</time></trkpt><trkpt lat="43.420498" lon="10.6445211"><ele>377.0</ele><time>2026-04-18T15:21:49.189Z</time></trkpt><trkpt lat="43.4205554" lon="10.6445592"><ele>376.0</ele><time>2026-04-18T15:21:50.182Z</time></trkpt><trkpt lat="43.4206189" lon="10.6446024"><ele>375.0</ele><time>2026-04-18T15:21:51.185Z</time></trkpt><trkpt lat="43.4206859" lon="10.6446468"><ele>374.0</ele><time>2026-04-18T15:21:52.204Z</time></trkpt><trkpt lat="43.420757" lon="10.6447054"><ele>373.0</ele><time>2026-04-18T15:21:53.184Z</time></trkpt><trkpt lat="43.4208291" lon="10.6447696"><ele>373.0</ele><time>2026-04-18T15:21:54.189Z</time></trkpt><trkpt lat="43.4208954" lon="10.6448413"><ele>373.0</ele><time>2026-04-18T15:21:55.195Z</time></trkpt><trkpt lat="43.4209599" lon="10.6449041"><ele>373.0</ele><time>2026-04-18T15:21:56.205Z</time></trkpt><trkpt lat="43.4210172" lon="10.6449688"><ele>373.0</ele><time>2026-04-18T15:21:57.195Z</time></trkpt><trkpt lat="43.4210803" lon="10.6450412"><ele>373.0</ele><time>2026-04-18T15:21:58.185Z</time></trkpt><trkpt lat="43.4211452" lon="10.6451138"><ele>373.0</ele><time>2026-04-18T15:21:59.191Z</time></trkpt><trkpt lat="43.421219" lon="10.6451894"><ele>373.0</ele><time>2026-04-18T15:22:00.186Z</time></trkpt><trkpt lat="43.4212898" lon="10.6452674"><ele>373.0</ele><time>2026-04-18T15:22:01.191Z</time></trkpt><trkpt lat="43.4213722" lon="10.6453508"><ele>373.0</ele><time>2026-04-18T15:22:02.179Z</time></trkpt><trkpt lat="43.4214568" lon="10.6454339"><ele>373.0</ele><time>2026-04-18T15:22:03.19Z</time></trkpt><trkpt lat="43.4215443" lon="10.6455139"><ele>373.0</ele><time>2026-04-18T15:22:04.189Z</time></trkpt><trkpt lat="43.4216335" lon="10.645587"><ele>372.0</ele><time>2026-04-18T15:22:05.192Z</time></trkpt><trkpt lat="43.4217132" lon="10.6456483"><ele>371.0</ele><time>2026-04-18T15:22:06.196Z</time></trkpt><trkpt lat="43.4217876" lon="10.6456914"><ele>370.0</ele><time>2026-04-18T15:22:07.183Z</time></trkpt><trkpt lat="43.4218525" lon="10.6457351"><ele>369.0</ele><time>2026-04-18T15:22:08.196Z</time></trkpt><trkpt lat="43.4219242" lon="10.6457754"><ele>368.0</ele><time>2026-04-18T15:22:09.202Z</time></trkpt><trkpt lat="43.4219968" lon="10.645824"><ele>367.0</ele><time>2026-04-18T15:22:10.179Z</time></trkpt><trkpt lat="43.4220737" lon="10.645876"><ele>365.8333333333333</ele><time>2026-04-18T15:22:11.171Z</time></trkpt><trkpt lat="43.4221553" lon="10.6459223"><ele>364.66666666666663</ele><time>2026-04-18T15:22:12.189Z</time></trkpt><trkpt lat="43.4222373" lon="10.6459576"><ele>363.5</ele><time>2026-04-18T15:22:13.188Z</time></trkpt><trkpt lat="43.4223093" lon="10.6459884"><ele>362.3333333333333</ele><time>2026-04-18T15:22:14.191Z</time></trkpt><trkpt lat="43.4223835" lon="10.6460133"><ele>361.1666666666667</ele><time>2026-04-18T15:22:15.197Z</time></trkpt><trkpt lat="43.4224559" lon="10.6460478"><ele>360.0</ele><time>2026-04-18T15:22:16.194Z</time></trkpt><trkpt lat="43.4225273" lon="10.6460994"><ele>357.2</ele><time>2026-04-18T15:22:17.189Z</time></trkpt><trkpt lat="43.4226029" lon="10.6461646"><ele>354.4</ele><time>2026-04-18T15:22:18.189Z</time></trkpt><trkpt lat="43.4226856" lon="10.646228"><ele>351.6</ele><time>2026-04-18T15:22:19.196Z</time></trkpt><trkpt lat="43.4227859" lon="10.6462936"><ele>348.8</ele><time>2026-04-18T15:22:20.187Z</time></trkpt><trkpt lat="43.4228899" lon="10.6463601"><ele>346.0</ele><time>2026-04-18T15:22:21.182Z</time></trkpt><trkpt lat="43.42299" lon="10.6464244"><ele>346.0</ele><time>2026-04-18T15:22:22.191Z</time></trkpt><trkpt lat="43.4230882" lon="10.6464898"><ele>346.0</ele><time>2026-04-18T15:22:23.187Z</time></trkpt><trkpt lat="43.4231876" lon="10.6465536"><ele>346.0</ele><time>2026-04-18T15:22:24.194Z</time></trkpt><trkpt lat="43.4232874" lon="10.6466222"><ele>346.0</ele><time>2026-04-18T15:22:25.181Z</time></trkpt><trkpt lat="43.4233857" lon="10.6466761"><ele>346.0</ele><time>2026-04-18T15:22:26.18Z</time></trkpt><trkpt lat="43.4234907" lon="10.6467248"><ele>346.0</ele><time>2026-04-18T15:22:27.191Z</time></trkpt><trkpt lat="43.4235975" lon="10.646769"><ele>346.0</ele><time>2026-04-18T15:22:28.177Z</time></trkpt><trkpt lat="43.4237016" lon="10.6468199"><ele>346.0</ele><time>2026-04-18T15:22:29.192Z</time></trkpt><trkpt lat="43.4238049" lon="10.6468631"><ele>346.0</ele><time>2026-04-18T15:22:30.195Z</time></trkpt><trkpt lat="43.4239102" lon="10.6468947"><ele>346.0</ele><time>2026-04-18T15:22:31.183Z</time></trkpt><trkpt lat="43.4240122" lon="10.6469451"><ele>340.8</ele><time>2026-04-18T15:22:32.195Z</time></trkpt><trkpt lat="43.4241125" lon="10.6470108"><ele>335.6</ele><time>2026-04-18T15:22:33.191Z</time></trkpt><trkpt lat="43.4242057" lon="10.6470861"><ele>330.4</ele><time>2026-04-18T15:22:34.181Z</time></trkpt><trkpt lat="43.4242863" lon="10.6471677"><ele>325.2</ele><time>2026-04-18T15:22:35.18Z</time></trkpt><trkpt lat="43.4243666" lon="10.6472358"><ele>320.0</ele><time>2026-04-18T15:22:36.18Z</time></trkpt><trkpt lat="43.4244529" lon="10.6473194"><ele>320.0</ele><time>2026-04-18T15:22:37.192Z</time></trkpt><trkpt lat="43.4245381" lon="10.647406"><ele>320.0</ele><time>2026-04-18T15:22:38.179Z</time></trkpt><trkpt lat="43.4246186" lon="10.6475018"><ele>320.0</ele><time>2026-04-18T15:22:39.178Z</time></trkpt><trkpt lat="43.424693" lon="10.6475968"><ele>320.0</ele><time>2026-04-18T15:22:40.181Z</time></trkpt><trkpt lat="43.4247725" lon="10.6476935"><ele>320.0</ele><time>2026-04-18T15:22:41.173Z</time></trkpt><trkpt lat="43.4248329" lon="10.6477983"><ele>317.2</ele><time>2026-04-18T15:22:42.185Z</time></trkpt><trkpt lat="43.4248879" lon="10.6479285"><ele>314.4</ele><time>2026-04-18T15:22:43.189Z</time></trkpt><trkpt lat="43.424926" lon="10.6480706"><ele>311.6</ele><time>2026-04-18T15:22:44.17Z</time></trkpt><trkpt lat="43.4249457" lon="10.6481986"><ele>308.8</ele><time>2026-04-18T15:22:45.179Z</time></trkpt><trkpt lat="43.4249494" lon="10.6482982"><ele>306.0</ele><time>2026-04-18T15:22:46.179Z</time></trkpt><trkpt lat="43.4249479" lon="10.6484518"><ele>306.0</ele><time>2026-04-18T15:22:48.193Z</time></trkpt><trkpt lat="43.4249555" lon="10.6485712"><ele>306.0</ele><time>2026-04-18T15:22:50.182Z</time></trkpt><trkpt lat="43.4249717" lon="10.6486584"><ele>306.0</ele><time>2026-04-18T15:22:51.19Z</time></trkpt><trkpt lat="43.4249775" lon="10.648763"><ele>306.0</ele><time>2026-04-18T15:22:52.178Z</time></trkpt><trkpt lat="43.4249957" lon="10.6488725"><ele>306.0</ele><time>2026-04-18T15:22:53.203Z</time></trkpt><trkpt lat="43.425019" lon="10.6489869"><ele>306.0</ele><time>2026-04-18T15:22:54.193Z</time></trkpt><trkpt lat="43.4250595" lon="10.6490993"><ele>305.6</ele><time>2026-04-18T15:22:55.181Z</time></trkpt><trkpt lat="43.4251184" lon="10.6492086"><ele>305.20000000000005</ele><time>2026-04-18T15:22:56.18Z</time></trkpt><trkpt lat="43.4251872" lon="10.6493047"><ele>304.79999999999995</ele><time>2026-04-18T15:22:57.193Z</time></trkpt><trkpt lat="43.4252596" lon="10.6493921"><ele>304.4</ele><time>2026-04-18T15:22:58.183Z</time></trkpt><trkpt lat="43.4253189" lon="10.64947"><ele>304.0</ele><time>2026-04-18T15:22:59.196Z</time></trkpt><trkpt lat="43.4253696" lon="10.6495491"><ele>303.5</ele><time>2026-04-18T15:23:00.172Z</time></trkpt><trkpt lat="43.4254088" lon="10.6496393"><ele>303.0</ele><time>2026-04-18T15:23:01.195Z</time></trkpt><trkpt lat="43.425436" lon="10.6497396"><ele>302.5</ele><time>2026-04-18T15:23:02.187Z</time></trkpt><trkpt lat="43.4254579" lon="10.6498401"><ele>302.0</ele><time>2026-04-18T15:23:03.183Z</time></trkpt><trkpt lat="43.4254494" lon="10.6499584"><ele>301.5</ele><time>2026-04-18T15:23:04.184Z</time></trkpt><trkpt lat="43.4254414" lon="10.6500634"><ele>301.0</ele><time>2026-04-18T15:23:05.174Z</time></trkpt><trkpt lat="43.4254274" lon="10.6501658"><ele>301.0</ele><time>2026-04-18T15:23:06.187Z</time></trkpt><trkpt lat="43.425414" lon="10.6502623"><ele>301.0</ele><time>2026-04-18T15:23:07.192Z</time></trkpt><trkpt lat="43.4254112" lon="10.6503949"><ele>301.0</ele><time>2026-04-18T15:23:09.186Z</time></trkpt><trkpt lat="43.4254231" lon="10.6505323"><ele>301.0</ele><time>2026-04-18T15:23:11.192Z</time></trkpt><trkpt lat="43.4254413" lon="10.6506199"><ele>301.0</ele><time>2026-04-18T15:23:12.176Z</time></trkpt><trkpt lat="43.4254561" lon="10.6507158"><ele>301.0</ele><time>2026-04-18T15:23:13.189Z</time></trkpt><trkpt lat="43.4254698" lon="10.6508254"><ele>296.3333333333333</ele><time>2026-04-18T15:23:14.189Z</time></trkpt><trkpt lat="43.4254948" lon="10.6509467"><ele>291.66666666666663</ele><time>2026-04-18T15:23:15.189Z</time></trkpt><trkpt lat="43.4255238" lon="10.6510631"><ele>287.0</ele><time>2026-04-18T15:23:16.172Z</time></trkpt><trkpt lat="43.4255532" lon="10.6511594"><ele>282.3333333333333</ele><time>2026-04-18T15:23:17.2Z</time></trkpt><trkpt lat="43.4255981" lon="10.6512538"><ele>277.6666666666667</ele><time>2026-04-18T15:23:18.191Z</time></trkpt><trkpt lat="43.4256571" lon="10.6513279"><ele>273.0</ele><time>2026-04-18T15:23:19.175Z</time></trkpt><trkpt lat="43.4257227" lon="10.6513921"><ele>272.3333333333333</ele><time>2026-04-18T15:23:20.178Z</time></trkpt><trkpt lat="43.4257867" lon="10.6514397"><ele>271.6666666666667</ele><time>2026-04-18T15:23:21.179Z</time></trkpt><trkpt lat="43.4258435" lon="10.6514777"><ele>271.0</ele><time>2026-04-18T15:23:22.191Z</time></trkpt><trkpt lat="43.4259243" lon="10.6515303"><ele>270.33333333333337</ele><time>2026-04-18T15:23:24.182Z</time></trkpt><trkpt lat="43.4260095" lon="10.6516062"><ele>269.6666666666667</ele><time>2026-04-18T15:23:26.178Z</time></trkpt><trkpt lat="43.4261109" lon="10.651689"><ele>269.0</ele><time>2026-04-18T15:23:28.176Z</time></trkpt><trkpt lat="43.4262003" lon="10.651786"><ele>269.0</ele><time>2026-04-18T15:23:30.183Z</time></trkpt><trkpt lat="43.4262409" lon="10.6518543"><ele>269.0</ele><time>2026-04-18T15:23:31.194Z</time></trkpt><trkpt lat="43.4262834" lon="10.6519218"><ele>269.0</ele><time>2026-04-18T15:23:32.193Z</time></trkpt><trkpt lat="43.4263305" lon="10.6519959"><ele>269.0</ele><time>2026-04-18T15:23:33.192Z</time></trkpt><trkpt lat="43.4263786" lon="10.6520596"><ele>269.0</ele><time>2026-04-18T15:23:34.188Z</time></trkpt><trkpt lat="43.4264267" lon="10.6521209"><ele>269.0</ele><time>2026-04-18T15:23:35.201Z</time></trkpt><trkpt lat="43.4264747" lon="10.6521779"><ele>269.0</ele><time>2026-04-18T15:23:36.187Z</time></trkpt><trkpt lat="43.4265743" lon="10.6522668"><ele>265.59999999999997</ele><time>2026-04-18T15:23:38.182Z</time></trkpt><trkpt lat="43.4266877" lon="10.6523323"><ele>262.2</ele><time>2026-04-18T15:23:40.194Z</time></trkpt><trkpt lat="43.426804" lon="10.6523637"><ele>258.79999999999995</ele><time>2026-04-18T15:23:42.189Z</time></trkpt><trkpt lat="43.4269011" lon="10.6523734"><ele>255.39999999999998</ele><time>2026-04-18T15:23:44.186Z</time></trkpt><trkpt lat="43.4269987" lon="10.6523941"><ele>252.0</ele><time>2026-04-18T15:23:46.2Z</time></trkpt><trkpt lat="43.42708" lon="10.6524276"><ele>250.0</ele><time>2026-04-18T15:23:48.189Z</time></trkpt><trkpt lat="43.4271688" lon="10.6524753"><ele>248.0</ele><time>2026-04-18T15:23:50.188Z</time></trkpt><trkpt lat="43.4272587" lon="10.6525286"><ele>246.0</ele><time>2026-04-18T15:23:52.183Z</time></trkpt><trkpt lat="43.4273683" lon="10.6525934"><ele>244.0</ele><time>2026-04-18T15:23:54.171Z</time></trkpt><trkpt lat="43.4274278" lon="10.6526374"><ele>242.0</ele><time>2026-04-18T15:23:55.183Z</time></trkpt><trkpt lat="43.4274882" lon="10.652692"><ele>242.0</ele><time>2026-04-18T15:23:56.184Z</time></trkpt><trkpt lat="43.4275448" lon="10.652754"><ele>241.99999999999997</ele><time>2026-04-18T15:23:57.187Z</time></trkpt><trkpt lat="43.4275932" lon="10.6528281"><ele>242.0</ele><time>2026-04-18T15:23:58.199Z</time></trkpt><trkpt lat="43.427628" lon="10.6529076"><ele>242.0</ele><time>2026-04-18T15:23:59.196Z</time></trkpt><trkpt lat="43.427648" lon="10.6529974"><ele>241.99999999999997</ele><time>2026-04-18T15:24:00.183Z</time></trkpt><trkpt lat="43.4276579" lon="10.6530845"><ele>242.0</ele><time>2026-04-18T15:24:01.182Z</time></trkpt><trkpt lat="43.42766" lon="10.6531766"><ele>242.0</ele><time>2026-04-18T15:24:02.189Z</time></trkpt><trkpt lat="43.4276507" lon="10.6532672"><ele>240.85714285714283</ele><time>2026-04-18T15:24:03.181Z</time></trkpt><trkpt lat="43.4276346" lon="10.653364"><ele>239.7142857142857</ele><time>2026-04-18T15:24:04.199Z</time></trkpt><trkpt lat="43.4276054" lon="10.6534551"><ele>238.57142857142856</ele><time>2026-04-18T15:24:05.192Z</time></trkpt><trkpt lat="43.4275755" lon="10.6535405"><ele>237.42857142857144</ele><time>2026-04-18T15:24:06.19Z</time></trkpt><trkpt lat="43.4275376" lon="10.6536169"><ele>236.2857142857143</ele><time>2026-04-18T15:24:07.187Z</time></trkpt><trkpt lat="43.4274944" lon="10.653686"><ele>235.14285714285717</ele><time>2026-04-18T15:24:08.175Z</time></trkpt><trkpt lat="43.4274458" lon="10.6537597"><ele>234.0</ele><time>2026-04-18T15:24:09.173Z</time></trkpt><trkpt lat="43.4273946" lon="10.6538309"><ele>232.0</ele><time>2026-04-18T15:24:10.19Z</time></trkpt><trkpt lat="43.4273423" lon="10.6539078"><ele>230.0</ele><time>2026-04-18T15:24:11.183Z</time></trkpt><trkpt lat="43.4272745" lon="10.6540143"><ele>228.0</ele><time>2026-04-18T15:24:13.189Z</time></trkpt><trkpt lat="43.4272234" lon="10.6541191"><ele>226.0</ele><time>2026-04-18T15:24:15.19Z</time></trkpt><trkpt lat="43.427187" lon="10.6542647"><ele>224.0</ele><time>2026-04-18T15:24:17.194Z</time></trkpt><trkpt lat="43.4271854" lon="10.6543538"><ele>222.0</ele><time>2026-04-18T15:24:18.18Z</time></trkpt><trkpt lat="43.4271924" lon="10.6544443"><ele>219.6</ele><time>2026-04-18T15:24:19.19Z</time></trkpt><trkpt lat="43.4272281" lon="10.6545907"><ele>217.2</ele><time>2026-04-18T15:24:21.198Z</time></trkpt><trkpt lat="43.4272753" lon="10.6546965"><ele>214.8</ele><time>2026-04-18T15:24:23.197Z</time></trkpt><trkpt lat="43.4273506" lon="10.6547944"><ele>212.4</ele><time>2026-04-18T15:24:25.196Z</time></trkpt><trkpt lat="43.4274289" lon="10.6548493"><ele>210.0</ele><time>2026-04-18T15:24:27.192Z</time></trkpt><trkpt lat="43.4275082" lon="10.6548923"><ele>210.0</ele><time>2026-04-18T15:24:29.191Z</time></trkpt><trkpt lat="43.4275873" lon="10.6549239"><ele>210.0</ele><time>2026-04-18T15:24:31.2Z</time></trkpt><trkpt lat="43.4276687" lon="10.65497"><ele>210.0</ele><time>2026-04-18T15:24:33.187Z</time></trkpt><trkpt lat="43.4277823" lon="10.6550241"><ele>210.0</ele><time>2026-04-18T15:24:35.197Z</time></trkpt><trkpt lat="43.4278438" lon="10.6550612"><ele>210.0</ele><time>2026-04-18T15:24:36.188Z</time></trkpt><trkpt lat="43.4279101" lon="10.6550963"><ele>210.0</ele><time>2026-04-18T15:24:37.203Z</time></trkpt><trkpt lat="43.4279773" lon="10.6551331"><ele>209.33333333333334</ele><time>2026-04-18T15:24:38.194Z</time></trkpt><trkpt lat="43.4280479" lon="10.6551785"><ele>208.66666666666669</ele><time>2026-04-18T15:24:39.19Z</time></trkpt><trkpt lat="43.4281179" lon="10.6552203"><ele>208.0</ele><time>2026-04-18T15:24:40.197Z</time></trkpt><trkpt lat="43.4281914" lon="10.6552756"><ele>207.33333333333334</ele><time>2026-04-18T15:24:41.178Z</time></trkpt><trkpt lat="43.4282615" lon="10.655337"><ele>206.66666666666669</ele><time>2026-04-18T15:24:42.194Z</time></trkpt><trkpt lat="43.4283277" lon="10.6554099"><ele>206.0</ele><time>2026-04-18T15:24:43.204Z</time></trkpt><trkpt lat="43.4283921" lon="10.6554872"><ele>204.00000000000003</ele><time>2026-04-18T15:24:44.186Z</time></trkpt><trkpt lat="43.4284566" lon="10.6555698"><ele>202.0</ele><time>2026-04-18T15:24:45.201Z</time></trkpt><trkpt lat="43.4285148" lon="10.6556574"><ele>200.0</ele><time>2026-04-18T15:24:46.194Z</time></trkpt><trkpt lat="43.4285684" lon="10.6557562"><ele>198.0</ele><time>2026-04-18T15:24:47.197Z</time></trkpt><trkpt lat="43.4286133" lon="10.6558507"><ele>196.00000000000003</ele><time>2026-04-18T15:24:48.183Z</time></trkpt><trkpt lat="43.4286591" lon="10.6559283"><ele>194.0</ele><time>2026-04-18T15:24:49.211Z</time></trkpt><trkpt lat="43.4287065" lon="10.6560022"><ele>194.00000000000003</ele><time>2026-04-18T15:24:50.203Z</time></trkpt><trkpt lat="43.4287638" lon="10.6560631"><ele>194.0</ele><time>2026-04-18T15:24:51.189Z</time></trkpt><trkpt lat="43.4288223" lon="10.6561233"><ele>194.0</ele><time>2026-04-18T15:24:52.197Z</time></trkpt><trkpt lat="43.4288873" lon="10.6561721"><ele>194.0</ele><time>2026-04-18T15:24:53.195Z</time></trkpt><trkpt lat="43.4289638" lon="10.6562046"><ele>194.00000000000003</ele><time>2026-04-18T15:24:54.196Z</time></trkpt><trkpt lat="43.4290428" lon="10.6562217"><ele>194.0</ele><time>2026-04-18T15:24:55.198Z</time></trkpt><trkpt lat="43.4291206" lon="10.6562393"><ele>192.33333333333334</ele><time>2026-04-18T15:24:56.191Z</time></trkpt><trkpt lat="43.4291901" lon="10.6562696"><ele>190.66666666666669</ele><time>2026-04-18T15:24:57.191Z</time></trkpt><trkpt lat="43.429255" lon="10.6563156"><ele>189.0</ele><time>2026-04-18T15:24:58.19Z</time></trkpt><trkpt lat="43.4293074" lon="10.6563784"><ele>187.33333333333334</ele><time>2026-04-18T15:24:59.181Z</time></trkpt><trkpt lat="43.4293773" lon="10.6564928"><ele>185.66666666666669</ele><time>2026-04-18T15:25:01.193Z</time></trkpt><trkpt lat="43.4294509" lon="10.6565707"><ele>184.0</ele><time>2026-04-18T15:25:03.192Z</time></trkpt><trkpt lat="43.4295098" lon="10.6566161"><ele>184.0</ele><time>2026-04-18T15:25:04.194Z</time></trkpt><trkpt lat="43.4295924" lon="10.6566702"><ele>184.0</ele><time>2026-04-18T15:25:05.192Z</time></trkpt><trkpt lat="43.4296794" lon="10.6567322"><ele>184.0</ele><time>2026-04-18T15:25:06.195Z</time></trkpt><trkpt lat="43.4297718" lon="10.6567969"><ele>184.0</ele><time>2026-04-18T15:25:07.189Z</time></trkpt><trkpt lat="43.429868" lon="10.656861"><ele>184.0</ele><time>2026-04-18T15:25:08.19Z</time></trkpt><trkpt lat="43.4299729" lon="10.6569287"><ele>183.75</ele><time>2026-04-18T15:25:09.194Z</time></trkpt><trkpt lat="43.4300851" lon="10.6570127"><ele>183.5</ele><time>2026-04-18T15:25:10.188Z</time></trkpt><trkpt lat="43.4302" lon="10.657095"><ele>183.25</ele><time>2026-04-18T15:25:11.189Z</time></trkpt><trkpt lat="43.4303158" lon="10.6571729"><ele>183.0</ele><time>2026-04-18T15:25:12.183Z</time></trkpt><trkpt lat="43.4304264" lon="10.6572447"><ele>182.75</ele><time>2026-04-18T15:25:13.181Z</time></trkpt><trkpt lat="43.4305361" lon="10.6573212"><ele>182.5</ele><time>2026-04-18T15:25:14.183Z</time></trkpt><trkpt lat="43.4306512" lon="10.6573978"><ele>182.25</ele><time>2026-04-18T15:25:15.199Z</time></trkpt><trkpt lat="43.4307704" lon="10.6574818"><ele>182.0</ele><time>2026-04-18T15:25:16.183Z</time></trkpt><trkpt lat="43.4308937" lon="10.65757"><ele>182.0</ele><time>2026-04-18T15:25:17.2Z</time></trkpt><trkpt lat="43.4310182" lon="10.6576544"><ele>182.0</ele><time>2026-04-18T15:25:18.174Z</time></trkpt><trkpt lat="43.4311427" lon="10.657734"><ele>182.0</ele><time>2026-04-18T15:25:19.18Z</time></trkpt><trkpt lat="43.4312636" lon="10.6578164"><ele>182.0</ele><time>2026-04-18T15:25:20.171Z</time></trkpt><trkpt lat="43.4313835" lon="10.6578992"><ele>181.75</ele><time>2026-04-18T15:25:21.175Z</time></trkpt><trkpt lat="43.4315121" lon="10.6579825"><ele>181.5</ele><time>2026-04-18T15:25:22.17Z</time></trkpt><trkpt lat="43.4316431" lon="10.6580761"><ele>181.25</ele><time>2026-04-18T15:25:23.188Z</time></trkpt><trkpt lat="43.4317695" lon="10.6581689"><ele>181.0</ele><time>2026-04-18T15:25:24.18Z</time></trkpt><trkpt lat="43.4318996" lon="10.658257"><ele>181.0</ele><time>2026-04-18T15:25:25.184Z</time></trkpt><trkpt lat="43.4320286" lon="10.6583447"><ele>181.0</ele><time>2026-04-18T15:25:26.19Z</time></trkpt><trkpt lat="43.4321545" lon="10.6584313"><ele>181.0</ele><time>2026-04-18T15:25:27.181Z</time></trkpt><trkpt lat="43.4322865" lon="10.658516"><ele>181.0</ele><time>2026-04-18T15:25:28.18Z</time></trkpt><trkpt lat="43.4324192" lon="10.6586058"><ele>180.25</ele><time>2026-04-18T15:25:29.181Z</time></trkpt><trkpt lat="43.4325489" lon="10.6586862"><ele>179.5</ele><time>2026-04-18T15:25:30.181Z</time></trkpt><trkpt lat="43.4326722" lon="10.6587613"><ele>178.75</ele><time>2026-04-18T15:25:31.174Z</time></trkpt><trkpt lat="43.4327881" lon="10.6588424"><ele>178.0</ele><time>2026-04-18T15:25:32.18Z</time></trkpt><trkpt lat="43.4328935" lon="10.6589427"><ele>179.25</ele><time>2026-04-18T15:25:33.183Z</time></trkpt><trkpt lat="43.4329936" lon="10.6590594"><ele>180.5</ele><time>2026-04-18T15:25:34.175Z</time></trkpt><trkpt lat="43.4330663" lon="10.6591933"><ele>181.75</ele><time>2026-04-18T15:25:35.193Z</time></trkpt><trkpt lat="43.4331257" lon="10.6593167"><ele>183.0</ele><time>2026-04-18T15:25:36.198Z</time></trkpt><trkpt lat="43.4331905" lon="10.6594342"><ele>181.5</ele><time>2026-04-18T15:25:37.202Z</time></trkpt><trkpt lat="43.4332632" lon="10.6595509"><ele>180.0</ele><time>2026-04-18T15:25:38.19Z</time></trkpt><trkpt lat="43.4333498" lon="10.65965"><ele>178.5</ele><time>2026-04-18T15:25:39.199Z</time></trkpt><trkpt lat="43.4334591" lon="10.6597016"><ele>177.0</ele><time>2026-04-18T15:25:40.203Z</time></trkpt><trkpt lat="43.4335693" lon="10.6597262"><ele>177.0</ele><time>2026-04-18T15:25:41.187Z</time></trkpt><trkpt lat="43.4336704" lon="10.6597556"><ele>177.0</ele><time>2026-04-18T15:25:42.203Z</time></trkpt><trkpt lat="43.4337749" lon="10.6597883"><ele>177.0</ele><time>2026-04-18T15:25:43.194Z</time></trkpt><trkpt lat="43.4338899" lon="10.6598267"><ele>177.0</ele><time>2026-04-18T15:25:44.185Z</time></trkpt><trkpt lat="43.4340063" lon="10.6598664"><ele>177.0</ele><time>2026-04-18T15:25:45.176Z</time></trkpt><trkpt lat="43.4341214" lon="10.6599054"><ele>177.75</ele><time>2026-04-18T15:25:46.193Z</time></trkpt><trkpt lat="43.4342413" lon="10.6599461"><ele>178.5</ele><time>2026-04-18T15:25:47.183Z</time></trkpt><trkpt lat="43.4343606" lon="10.6599897"><ele>179.25</ele><time>2026-04-18T15:25:48.18Z</time></trkpt><trkpt lat="43.4344801" lon="10.6600385"><ele>180.0</ele><time>2026-04-18T15:25:49.183Z</time></trkpt><trkpt lat="43.4345971" lon="10.6600963"><ele>180.25</ele><time>2026-04-18T15:25:50.21Z</time></trkpt><trkpt lat="43.4347122" lon="10.6601548"><ele>180.5</ele><time>2026-04-18T15:25:51.181Z</time></trkpt><trkpt lat="43.4348297" lon="10.6602236"><ele>180.75</ele><time>2026-04-18T15:25:52.196Z</time></trkpt><trkpt lat="43.4349406" lon="10.6603048"><ele>181.0</ele><time>2026-04-18T15:25:53.19Z</time></trkpt><trkpt lat="43.4350566" lon="10.6603809"><ele>180.0</ele><time>2026-04-18T15:25:54.174Z</time></trkpt><trkpt lat="43.4351745" lon="10.6604698"><ele>179.0</ele><time>2026-04-18T15:25:55.195Z</time></trkpt><trkpt lat="43.4352883" lon="10.6605591"><ele>178.0</ele><time>2026-04-18T15:25:56.187Z</time></trkpt><trkpt lat="43.4353977" lon="10.6606401"><ele>177.0</ele><time>2026-04-18T15:25:57.2Z</time></trkpt><trkpt lat="43.4355079" lon="10.6607153"><ele>177.0</ele><time>2026-04-18T15:25:58.185Z</time></trkpt><trkpt lat="43.4356225" lon="10.6607974"><ele>177.0</ele><time>2026-04-18T15:25:59.183Z</time></trkpt><trkpt lat="43.4357448" lon="10.6608829"><ele>177.0</ele><time>2026-04-18T15:26:00.17Z</time></trkpt><trkpt lat="43.4358826" lon="10.6609811"><ele>177.0</ele><time>2026-04-18T15:26:01.194Z</time></trkpt><trkpt lat="43.4360196" lon="10.6610819"><ele>175.33333333333334</ele><time>2026-04-18T15:26:02.185Z</time></trkpt><trkpt lat="43.4361565" lon="10.6611861"><ele>173.66666666666669</ele><time>2026-04-18T15:26:03.184Z</time></trkpt><trkpt lat="43.4362888" lon="10.6612853"><ele>172.0</ele><time>2026-04-18T15:26:04.194Z</time></trkpt><trkpt lat="43.4364177" lon="10.6613926"><ele>172.0</ele><time>2026-04-18T15:26:05.186Z</time></trkpt><trkpt lat="43.4365392" lon="10.6614954"><ele>172.0</ele><time>2026-04-18T15:26:06.182Z</time></trkpt><trkpt lat="43.4366547" lon="10.6615915"><ele>172.0</ele><time>2026-04-18T15:26:07.189Z</time></trkpt><trkpt lat="43.4367686" lon="10.6616746"><ele>172.0</ele><time>2026-04-18T15:26:08.184Z</time></trkpt><trkpt lat="43.4368877" lon="10.6617467"><ele>172.0</ele><time>2026-04-18T15:26:09.208Z</time></trkpt><trkpt lat="43.4370126" lon="10.6618089"><ele>172.0</ele><time>2026-04-18T15:26:10.186Z</time></trkpt><trkpt lat="43.4371434" lon="10.6618574"><ele>172.0</ele><time>2026-04-18T15:26:11.183Z</time></trkpt><trkpt lat="43.4372732" lon="10.6619032"><ele>172.0</ele><time>2026-04-18T15:26:12.19Z</time></trkpt><trkpt lat="43.4374051" lon="10.6619409"><ele>170.75</ele><time>2026-04-18T15:26:13.181Z</time></trkpt><trkpt lat="43.4375359" lon="10.6619803"><ele>169.5</ele><time>2026-04-18T15:26:14.188Z</time></trkpt><trkpt lat="43.4376696" lon="10.6620215"><ele>168.25</ele><time>2026-04-18T15:26:15.192Z</time></trkpt><trkpt lat="43.4378017" lon="10.6620711"><ele>167.0</ele><time>2026-04-18T15:26:16.192Z</time></trkpt><trkpt lat="43.4379365" lon="10.6621315"><ele>167.75</ele><time>2026-04-18T15:26:17.191Z</time></trkpt><trkpt lat="43.4380649" lon="10.6621834"><ele>168.5</ele><time>2026-04-18T15:26:18.182Z</time></trkpt><trkpt lat="43.4381917" lon="10.6622392"><ele>169.25</ele><time>2026-04-18T15:26:19.174Z</time></trkpt><trkpt lat="43.4383174" lon="10.6622936"><ele>170.0</ele><time>2026-04-18T15:26:20.185Z</time></trkpt><trkpt lat="43.4384439" lon="10.6623428"><ele>170.0</ele><time>2026-04-18T15:26:21.184Z</time></trkpt><trkpt lat="43.4385737" lon="10.6623936"><ele>170.0</ele><time>2026-04-18T15:26:22.18Z</time></trkpt><trkpt lat="43.4387022" lon="10.662443"><ele>170.0</ele><time>2026-04-18T15:26:23.19Z</time></trkpt><trkpt lat="43.4388198" lon="10.6625065"><ele>170.0</ele><time>2026-04-18T15:26:24.193Z</time></trkpt><trkpt lat="43.4389328" lon="10.6625845"><ele>169.75</ele><time>2026-04-18T15:26:25.189Z</time></trkpt><trkpt lat="43.4390369" lon="10.6626849"><ele>169.5</ele><time>2026-04-18T15:26:26.184Z</time></trkpt><trkpt lat="43.4391472" lon="10.6628018"><ele>169.25</ele><time>2026-04-18T15:26:27.18Z</time></trkpt><trkpt lat="43.4392355" lon="10.6629299"><ele>169.0</ele><time>2026-04-18T15:26:28.187Z</time></trkpt><trkpt lat="43.4393321" lon="10.6630618"><ele>169.0</ele><time>2026-04-18T15:26:29.193Z</time></trkpt><trkpt lat="43.4394315" lon="10.6631974"><ele>169.0</ele><time>2026-04-18T15:26:30.18Z</time></trkpt><trkpt lat="43.4395214" lon="10.6633379"><ele>169.0</ele><time>2026-04-18T15:26:31.185Z</time></trkpt><trkpt lat="43.4396256" lon="10.6634702"><ele>169.0</ele><time>2026-04-18T15:26:32.178Z</time></trkpt><trkpt lat="43.4397271" lon="10.6636128"><ele>168.0</ele><time>2026-04-18T15:26:33.183Z</time></trkpt><trkpt lat="43.4398249" lon="10.6637618"><ele>167.0</ele><time>2026-04-18T15:26:34.191Z</time></trkpt><trkpt lat="43.4399275" lon="10.6639097"><ele>166.0</ele><time>2026-04-18T15:26:35.165Z</time></trkpt><trkpt lat="43.4400269" lon="10.6640475"><ele>165.0</ele><time>2026-04-18T15:26:36.17Z</time></trkpt><trkpt lat="43.4401216" lon="10.6641708"><ele>165.0</ele><time>2026-04-18T15:26:37.169Z</time></trkpt><trkpt lat="43.4402012" lon="10.6642664"><ele>165.0</ele><time>2026-04-18T15:26:38.183Z</time></trkpt><trkpt lat="43.4402803" lon="10.664347"><ele>165.0</ele><time>2026-04-18T15:26:39.17Z</time></trkpt><trkpt lat="43.4403616" lon="10.6644239"><ele>165.0</ele><time>2026-04-18T15:26:40.17Z</time></trkpt><trkpt lat="43.4404493" lon="10.6644974"><ele>165.0</ele><time>2026-04-18T15:26:41.178Z</time></trkpt><trkpt lat="43.4405367" lon="10.6645615"><ele>164.4</ele><time>2026-04-18T15:26:42.167Z</time></trkpt><trkpt lat="43.4406218" lon="10.664621"><ele>163.8</ele><time>2026-04-18T15:26:43.173Z</time></trkpt><trkpt lat="43.4407159" lon="10.6646696"><ele>163.2</ele><time>2026-04-18T15:26:44.193Z</time></trkpt><trkpt lat="43.4408109" lon="10.6647129"><ele>162.6</ele><time>2026-04-18T15:26:45.197Z</time></trkpt><trkpt lat="43.4409003" lon="10.664743"><ele>162.0</ele><time>2026-04-18T15:26:46.182Z</time></trkpt><trkpt lat="43.4409999" lon="10.6647753"><ele>162.0</ele><time>2026-04-18T15:26:47.192Z</time></trkpt><trkpt lat="43.4411096" lon="10.664807"><ele>162.0</ele><time>2026-04-18T15:26:48.179Z</time></trkpt><trkpt lat="43.4412245" lon="10.6648472"><ele>162.0</ele><time>2026-04-18T15:26:49.209Z</time></trkpt><trkpt lat="43.4413379" lon="10.664881"><ele>162.0</ele><time>2026-04-18T15:26:50.188Z</time></trkpt><trkpt lat="43.4414514" lon="10.6649151"><ele>161.8</ele><time>2026-04-18T15:26:51.195Z</time></trkpt><trkpt lat="43.441558" lon="10.6649446"><ele>161.6</ele><time>2026-04-18T15:26:52.193Z</time></trkpt><trkpt lat="43.4416553" lon="10.6649711"><ele>161.4</ele><time>2026-04-18T15:26:53.192Z</time></trkpt><trkpt lat="43.4417373" lon="10.6649919"><ele>161.20000000000002</ele><time>2026-04-18T15:26:54.188Z</time></trkpt><trkpt lat="43.4418097" lon="10.6650119"><ele>161.0</ele><time>2026-04-18T15:26:55.199Z</time></trkpt><trkpt lat="43.4418985" lon="10.6650414"><ele>161.0</ele><time>2026-04-18T15:26:57.18Z</time></trkpt><trkpt lat="43.4419682" lon="10.6650437"><ele>161.0</ele><time>2026-04-18T15:27:04.184Z</time></trkpt><trkpt lat="43.4420321" lon="10.6650684"><ele>161.0</ele><time>2026-04-18T15:27:08.186Z</time></trkpt><trkpt lat="43.442096" lon="10.6650978"><ele>161.0</ele><time>2026-04-18T15:27:10.183Z</time></trkpt><trkpt lat="43.4421995" lon="10.6651354"><ele>161.0</ele><time>2026-04-18T15:27:12.188Z</time></trkpt><trkpt lat="43.4405367" lon="10.6645615"><ele>161.20000000000002</ele><time>2026-04-18T15:26:42.167Z</time></trkpt><trkpt lat="43.4406218" lon="10.664621"><ele>161.4</ele><time>2026-04-18T15:26:43.173Z</time></trkpt><trkpt lat="43.4407159" lon="10.6646696"><ele>161.6</ele><time>2026-04-18T15:26:44.193Z</time></trkpt><trkpt lat="43.4408109" lon="10.6647129"><ele>161.8</ele><time>2026-04-18T15:26:45.197Z</time></trkpt><trkpt lat="43.4409003" lon="10.664743"><ele>162.0</ele><time>2026-04-18T15:26:46.182Z</time></trkpt><trkpt lat="43.4409999" lon="10.6647753"><ele>162.0</ele><time>2026-04-18T15:26:47.192Z</time></trkpt><trkpt lat="43.4411096" lon="10.664807"><ele>162.0</ele><time>2026-04-18T15:26:48.179Z</time></trkpt><trkpt lat="43.4412245" lon="10.6648472"><ele>162.0</ele><time>2026-04-18T15:26:49.209Z</time></trkpt><trkpt lat="43.4413379" lon="10.664881"><ele>162.0</ele><time>2026-04-18T15:26:50.188Z</time></trkpt><trkpt lat="43.4414514" lon="10.6649151"><ele>161.8</ele><time>2026-04-18T15:26:51.195Z</time></trkpt><trkpt lat="43.441558" lon="10.6649446"><ele>161.6</ele><time>2026-04-18T15:26:52.193Z</time></trkpt><trkpt lat="43.4416553" lon="10.6649711"><ele>161.4</ele><time>2026-04-18T15:26:53.192Z</time></trkpt><trkpt lat="43.4417373" lon="10.6649919"><ele>161.20000000000002</ele><time>2026-04-18T15:26:54.188Z</time></trkpt><trkpt lat="43.4418097" lon="10.6650119"><ele>161.0</ele><time>2026-04-18T15:26:55.199Z</time></trkpt><trkpt lat="43.4418985" lon="10.6650414"><ele>161.0</ele><time>2026-04-18T15:26:57.18Z</time></trkpt><trkpt lat="43.4419682" lon="10.6650437"><ele>161.0</ele><time>2026-04-18T15:27:04.184Z</time></trkpt><trkpt lat="43.4420321" lon="10.6650684"><ele>161.0</ele><time>2026-04-18T15:27:08.186Z</time></trkpt><trkpt lat="43.442096" lon="10.6650978"><ele>161.0</ele><time>2026-04-18T15:27:10.183Z</time></trkpt><trkpt lat="43.4421995" lon="10.6651354"><ele>161.0</ele><time>2026-04-18T15:27:12.188Z</time></trkpt><trkpt lat="43.4422768" lon="10.6651601"><ele>161.0</ele><time>2026-04-18T15:27:13.193Z</time></trkpt><trkpt lat="43.4423586" lon="10.665182"><ele>160.60000000000002</ele><time>2026-04-18T15:27:14.172Z</time></trkpt><trkpt lat="43.4424501" lon="10.6652028"><ele>160.20000000000002</ele><time>2026-04-18T15:27:15.182Z</time></trkpt><trkpt lat="43.4425397" lon="10.6652324"><ele>159.8</ele><time>2026-04-18T15:27:16.192Z</time></trkpt><trkpt lat="43.4426356" lon="10.6652682"><ele>159.4</ele><time>2026-04-18T15:27:17.195Z</time></trkpt><trkpt lat="43.4427306" lon="10.6653097"><ele>159.0</ele><time>2026-04-18T15:27:18.19Z</time></trkpt><trkpt lat="43.4428311" lon="10.6653405"><ele>159.0</ele><time>2026-04-18T15:27:19.192Z</time></trkpt><trkpt lat="43.4429381" lon="10.6653748"><ele>159.0</ele><time>2026-04-18T15:27:20.198Z</time></trkpt><trkpt lat="43.4430519" lon="10.6654082"><ele>159.0</ele><time>2026-04-18T15:27:21.194Z</time></trkpt><trkpt lat="43.4431602" lon="10.6654425"><ele>159.0</ele><time>2026-04-18T15:27:22.186Z</time></trkpt><trkpt lat="43.4432763" lon="10.6654783"><ele>158.5</ele><time>2026-04-18T15:27:23.188Z</time></trkpt><trkpt lat="43.4433992" lon="10.6655196"><ele>158.0</ele><time>2026-04-18T15:27:24.197Z</time></trkpt><trkpt lat="43.4435287" lon="10.6655523"><ele>157.5</ele><time>2026-04-18T15:27:25.204Z</time></trkpt><trkpt lat="43.4436543" lon="10.6655918"><ele>157.0</ele><time>2026-04-18T15:27:26.195Z</time></trkpt><trkpt lat="43.4437855" lon="10.6656335"><ele>157.0</ele><time>2026-04-18T15:27:27.198Z</time></trkpt><trkpt lat="43.4439153" lon="10.6656814"><ele>157.0</ele><time>2026-04-18T15:27:28.185Z</time></trkpt><trkpt lat="43.4440554" lon="10.6657311"><ele>157.0</ele><time>2026-04-18T15:27:29.196Z</time></trkpt><trkpt lat="43.4442034" lon="10.6657858"><ele>157.0</ele><time>2026-04-18T15:27:30.198Z</time></trkpt><trkpt lat="43.4443616" lon="10.6658512"><ele>157.0</ele><time>2026-04-18T15:27:31.184Z</time></trkpt><trkpt lat="43.4445334" lon="10.6659224"><ele>157.0</ele><time>2026-04-18T15:27:32.188Z</time></trkpt><trkpt lat="43.4447043" lon="10.6659984"><ele>157.0</ele><time>2026-04-18T15:27:33.194Z</time></trkpt><trkpt lat="43.4448776" lon="10.6660708"><ele>155.66666666666669</ele><time>2026-04-18T15:27:34.193Z</time></trkpt><trkpt lat="43.4450457" lon="10.6661424"><ele>154.33333333333334</ele><time>2026-04-18T15:27:35.192Z</time></trkpt><trkpt lat="43.4452101" lon="10.6662115"><ele>153.0</ele><time>2026-04-18T15:27:36.183Z</time></trkpt><trkpt lat="43.4453718" lon="10.6662776"><ele>153.0</ele><time>2026-04-18T15:27:37.189Z</time></trkpt><trkpt lat="43.445537" lon="10.6663407"><ele>153.0</ele><time>2026-04-18T15:27:38.19Z</time></trkpt><trkpt lat="43.4456983" lon="10.6664036"><ele>153.0</ele><time>2026-04-18T15:27:39.173Z</time></trkpt><trkpt lat="43.445848" lon="10.6664716"><ele>153.0</ele><time>2026-04-18T15:27:40.192Z</time></trkpt><trkpt lat="43.4459949" lon="10.6665319"><ele>153.0</ele><time>2026-04-18T15:27:41.19Z</time></trkpt><trkpt lat="43.446147" lon="10.6665925"><ele>153.0</ele><time>2026-04-18T15:27:42.184Z</time></trkpt><trkpt lat="43.4462942" lon="10.6666607"><ele>152.33333333333334</ele><time>2026-04-18T15:27:43.192Z</time></trkpt><trkpt lat="43.4464364" lon="10.6667268"><ele>151.66666666666669</ele><time>2026-04-18T15:27:44.199Z</time></trkpt><trkpt lat="43.4465824" lon="10.6667878"><ele>151.0</ele><time>2026-04-18T15:27:45.183Z</time></trkpt><trkpt lat="43.4467271" lon="10.6668459"><ele>151.0</ele><time>2026-04-18T15:27:46.186Z</time></trkpt><trkpt lat="43.4468636" lon="10.6669059"><ele>151.0</ele><time>2026-04-18T15:27:47.192Z</time></trkpt><trkpt lat="43.4469956" lon="10.666965"><ele>151.0</ele><time>2026-04-18T15:27:48.19Z</time></trkpt><trkpt lat="43.447129" lon="10.6670274"><ele>151.0</ele><time>2026-04-18T15:27:49.21Z</time></trkpt><trkpt lat="43.4472686" lon="10.6670836"><ele>150.66666666666669</ele><time>2026-04-18T15:27:50.196Z</time></trkpt><trkpt lat="43.4474165" lon="10.6671361"><ele>150.33333333333334</ele><time>2026-04-18T15:27:51.197Z</time></trkpt><trkpt lat="43.4475638" lon="10.6671945"><ele>150.0</ele><time>2026-04-18T15:27:52.197Z</time></trkpt><trkpt lat="43.4477142" lon="10.667252"><ele>150.0</ele><time>2026-04-18T15:27:53.194Z</time></trkpt><trkpt lat="43.4478677" lon="10.6673135"><ele>150.0</ele><time>2026-04-18T15:27:54.188Z</time></trkpt><trkpt lat="43.4480236" lon="10.6673723"><ele>150.0</ele><time>2026-04-18T15:27:55.196Z</time></trkpt><trkpt lat="43.4481762" lon="10.667432"><ele>150.0</ele><time>2026-04-18T15:27:56.194Z</time></trkpt><trkpt lat="43.4483295" lon="10.6674937"><ele>150.0</ele><time>2026-04-18T15:27:57.196Z</time></trkpt><trkpt lat="43.4484865" lon="10.6675505"><ele>150.0</ele><time>2026-04-18T15:27:58.179Z</time></trkpt><trkpt lat="43.4486466" lon="10.6675933"><ele>150.33333333333334</ele><time>2026-04-18T15:27:59.197Z</time></trkpt><trkpt lat="43.448802" lon="10.6676229"><ele>150.66666666666669</ele><time>2026-04-18T15:28:00.201Z</time></trkpt><trkpt lat="43.4489575" lon="10.6676403"><ele>151.0</ele><time>2026-04-18T15:28:01.198Z</time></trkpt><trkpt lat="43.4491062" lon="10.6676503"><ele>151.0</ele><time>2026-04-18T15:28:02.197Z</time></trkpt><trkpt lat="43.4492481" lon="10.6676503"><ele>151.0</ele><time>2026-04-18T15:28:03.196Z</time></trkpt><trkpt lat="43.4493935" lon="10.6676357"><ele>151.0</ele><time>2026-04-18T15:28:04.183Z</time></trkpt><trkpt lat="43.4495281" lon="10.6676021"><ele>151.0</ele><time>2026-04-18T15:28:05.194Z</time></trkpt><trkpt lat="43.4496609" lon="10.6675475"><ele>150.5</ele><time>2026-04-18T15:28:06.199Z</time></trkpt><trkpt lat="43.4497791" lon="10.6674891"><ele>150.0</ele><time>2026-04-18T15:28:07.178Z</time></trkpt><trkpt lat="43.4498973" lon="10.6674265"><ele>149.5</ele><time>2026-04-18T15:28:08.212Z</time></trkpt><trkpt lat="43.4500055" lon="10.6673665"><ele>149.0</ele><time>2026-04-18T15:28:09.198Z</time></trkpt><trkpt lat="43.4501143" lon="10.6673167"><ele>149.0</ele><time>2026-04-18T15:28:10.192Z</time></trkpt><trkpt lat="43.4502208" lon="10.6672813"><ele>149.0</ele><time>2026-04-18T15:28:11.185Z</time></trkpt><trkpt lat="43.45034" lon="10.6672642"><ele>149.0</ele><time>2026-04-18T15:28:12.191Z</time></trkpt><trkpt lat="43.4504597" lon="10.667248"><ele>149.0</ele><time>2026-04-18T15:28:13.194Z</time></trkpt><trkpt lat="43.4505843" lon="10.6672635"><ele>149.0</ele><time>2026-04-18T15:28:14.186Z</time></trkpt><trkpt lat="43.4507096" lon="10.6672809"><ele>149.0</ele><time>2026-04-18T15:28:15.183Z</time></trkpt><trkpt lat="43.4508397" lon="10.6673072"><ele>149.0</ele><time>2026-04-18T15:28:16.178Z</time></trkpt><trkpt lat="43.4509742" lon="10.6673375"><ele>149.0</ele><time>2026-04-18T15:28:17.183Z</time></trkpt><trkpt lat="43.4511113" lon="10.6673721"><ele>149.0</ele><time>2026-04-18T15:28:18.193Z</time></trkpt><trkpt lat="43.4512478" lon="10.6674006"><ele>149.0</ele><time>2026-04-18T15:28:19.189Z</time></trkpt><trkpt lat="43.4513813" lon="10.6674266"><ele>149.0</ele><time>2026-04-18T15:28:20.195Z</time></trkpt><trkpt lat="43.4515123" lon="10.6674518"><ele>149.0</ele><time>2026-04-18T15:28:21.188Z</time></trkpt><trkpt lat="43.451644" lon="10.6674804"><ele>149.0</ele><time>2026-04-18T15:28:22.19Z</time></trkpt><trkpt lat="43.4517731" lon="10.6675087"><ele>149.0</ele><time>2026-04-18T15:28:23.165Z</time></trkpt><trkpt lat="43.4518996" lon="10.667527"><ele>149.0</ele><time>2026-04-18T15:28:24.19Z</time></trkpt><trkpt lat="43.4520227" lon="10.667558"><ele>149.0</ele><time>2026-04-18T15:28:25.204Z</time></trkpt><trkpt lat="43.4521376" lon="10.6675927"><ele>149.0</ele><time>2026-04-18T15:28:26.185Z</time></trkpt><trkpt lat="43.4522571" lon="10.6676086"><ele>149.0</ele><time>2026-04-18T15:28:27.188Z</time></trkpt><trkpt lat="43.4523776" lon="10.6676217"><ele>149.0</ele><time>2026-04-18T15:28:28.195Z</time></trkpt><trkpt lat="43.4525008" lon="10.6676204"><ele>149.0</ele><time>2026-04-18T15:28:29.197Z</time></trkpt><trkpt lat="43.4526293" lon="10.6676232"><ele>149.0</ele><time>2026-04-18T15:28:30.196Z</time></trkpt><trkpt lat="43.4527592" lon="10.6676157"><ele>149.0</ele><time>2026-04-18T15:28:31.188Z</time></trkpt><trkpt lat="43.4528912" lon="10.667612"><ele>149.0</ele><time>2026-04-18T15:28:32.188Z</time></trkpt><trkpt lat="43.4530255" lon="10.6676063"><ele>149.0</ele><time>2026-04-18T15:28:33.183Z</time></trkpt><trkpt lat="43.453159" lon="10.6676051"><ele>148.75</ele><time>2026-04-18T15:28:34.186Z</time></trkpt><trkpt lat="43.4532954" lon="10.667613"><ele>148.5</ele><time>2026-04-18T15:28:35.187Z</time></trkpt><trkpt lat="43.4534296" lon="10.6676218"><ele>148.25</ele><time>2026-04-18T15:28:36.197Z</time></trkpt><trkpt lat="43.4535602" lon="10.6676374"><ele>148.0</ele><time>2026-04-18T15:28:37.184Z</time></trkpt><trkpt lat="43.4536907" lon="10.6676622"><ele>147.25</ele><time>2026-04-18T15:28:38.201Z</time></trkpt><trkpt lat="43.4538207" lon="10.6676809"><ele>146.5</ele><time>2026-04-18T15:28:39.193Z</time></trkpt><trkpt lat="43.4539453" lon="10.6676994"><ele>145.75</ele><time>2026-04-18T15:28:40.187Z</time></trkpt><trkpt lat="43.454057" lon="10.6677183"><ele>145.0</ele><time>2026-04-18T15:28:41.181Z</time></trkpt><trkpt lat="43.454171" lon="10.6677357"><ele>145.0</ele><time>2026-04-18T15:28:42.198Z</time></trkpt><trkpt lat="43.4542873" lon="10.6677566"><ele>145.0</ele><time>2026-04-18T15:28:43.194Z</time></trkpt><trkpt lat="43.4544063" lon="10.6677762"><ele>145.0</ele><time>2026-04-18T15:28:44.194Z</time></trkpt><trkpt lat="43.4545287" lon="10.6677998"><ele>145.0</ele><time>2026-04-18T15:28:45.187Z</time></trkpt><trkpt lat="43.4546562" lon="10.6678249"><ele>144.75</ele><time>2026-04-18T15:28:46.185Z</time></trkpt><trkpt lat="43.4547858" lon="10.6678446"><ele>144.5</ele><time>2026-04-18T15:28:47.204Z</time></trkpt><trkpt lat="43.4549124" lon="10.6678652"><ele>144.25</ele><time>2026-04-18T15:28:48.195Z</time></trkpt><trkpt lat="43.4550463" lon="10.6678891"><ele>144.0</ele><time>2026-04-18T15:28:49.19Z</time></trkpt><trkpt lat="43.4551786" lon="10.6679155"><ele>144.0</ele><time>2026-04-18T15:28:50.193Z</time></trkpt><trkpt lat="43.4553131" lon="10.6679428"><ele>144.0</ele><time>2026-04-18T15:28:51.193Z</time></trkpt><trkpt lat="43.4554446" lon="10.6679651"><ele>144.0</ele><time>2026-04-18T15:28:52.191Z</time></trkpt><trkpt lat="43.4555682" lon="10.6679897"><ele>144.0</ele><time>2026-04-18T15:28:53.188Z</time></trkpt><trkpt lat="43.4556996" lon="10.6680337"><ele>143.75</ele><time>2026-04-18T15:28:54.197Z</time></trkpt><trkpt lat="43.4558242" lon="10.6680865"><ele>143.5</ele><time>2026-04-18T15:28:55.194Z</time></trkpt><trkpt lat="43.4559491" lon="10.6681571"><ele>143.25</ele><time>2026-04-18T15:28:56.2Z</time></trkpt><trkpt lat="43.4560745" lon="10.6682419"><ele>143.0</ele><time>2026-04-18T15:28:57.195Z</time></trkpt><trkpt lat="43.4561983" lon="10.6683274"><ele>142.75</ele><time>2026-04-18T15:28:58.171Z</time></trkpt><trkpt lat="43.4563243" lon="10.6684143"><ele>142.5</ele><time>2026-04-18T15:28:59.183Z</time></trkpt><trkpt lat="43.456448" lon="10.668503"><ele>142.25</ele><time>2026-04-18T15:29:00.19Z</time></trkpt><trkpt lat="43.4565699" lon="10.6685843"><ele>142.0</ele><time>2026-04-18T15:29:01.183Z</time></trkpt><trkpt lat="43.4566963" lon="10.6686772"><ele>141.75</ele><time>2026-04-18T15:29:02.197Z</time></trkpt><trkpt lat="43.4568169" lon="10.6687692"><ele>141.5</ele><time>2026-04-18T15:29:03.194Z</time></trkpt><trkpt lat="43.4569481" lon="10.6688695"><ele>141.25</ele><time>2026-04-18T15:29:04.184Z</time></trkpt><trkpt lat="43.457081" lon="10.6689666"><ele>141.0</ele><time>2026-04-18T15:29:05.188Z</time></trkpt><trkpt lat="43.4572152" lon="10.6690621"><ele>140.66666666666666</ele><time>2026-04-18T15:29:06.191Z</time></trkpt><trkpt lat="43.4573508" lon="10.6691631"><ele>140.33333333333331</ele><time>2026-04-18T15:29:07.174Z</time></trkpt><trkpt lat="43.4574865" lon="10.6692648"><ele>140.0</ele><time>2026-04-18T15:29:08.179Z</time></trkpt><trkpt lat="43.4576269" lon="10.6693592"><ele>139.66666666666666</ele><time>2026-04-18T15:29:09.182Z</time></trkpt><trkpt lat="43.4577633" lon="10.6694544"><ele>139.33333333333334</ele><time>2026-04-18T15:29:10.169Z</time></trkpt><trkpt lat="43.4579012" lon="10.6695482"><ele>139.0</ele><time>2026-04-18T15:29:11.189Z</time></trkpt><trkpt lat="43.4580318" lon="10.669635"><ele>139.0</ele><time>2026-04-18T15:29:12.184Z</time></trkpt><trkpt lat="43.4581671" lon="10.669729"><ele>139.0</ele><time>2026-04-18T15:29:13.189Z</time></trkpt><trkpt lat="43.4583057" lon="10.6698232"><ele>139.0</ele><time>2026-04-18T15:29:14.177Z</time></trkpt><trkpt lat="43.4584436" lon="10.6699202"><ele>139.0</ele><time>2026-04-18T15:29:15.179Z</time></trkpt><trkpt lat="43.4585959" lon="10.6700306"><ele>139.0</ele><time>2026-04-18T15:29:16.191Z</time></trkpt><trkpt lat="43.4587623" lon="10.6701475"><ele>139.0</ele><time>2026-04-18T15:29:17.184Z</time></trkpt><trkpt lat="43.458938" lon="10.6702688"><ele>137.66666666666669</ele><time>2026-04-18T15:29:18.191Z</time></trkpt><trkpt lat="43.4591259" lon="10.6704042"><ele>136.33333333333334</ele><time>2026-04-18T15:29:19.187Z</time></trkpt><trkpt lat="43.4593236" lon="10.6705444"><ele>135.0</ele><time>2026-04-18T15:29:20.177Z</time></trkpt><trkpt lat="43.4595387" lon="10.6706935"><ele>136.0</ele><time>2026-04-18T15:29:21.182Z</time></trkpt><trkpt lat="43.4597628" lon="10.670846"><ele>137.0</ele><time>2026-04-18T15:29:22.189Z</time></trkpt><trkpt lat="43.4599867" lon="10.6709996"><ele>135.0</ele><time>2026-04-18T15:29:23.197Z</time></trkpt><trkpt lat="43.4602027" lon="10.6711566"><ele>133.0</ele><time>2026-04-18T15:29:24.177Z</time></trkpt><trkpt lat="43.460408" lon="10.6713163"><ele>132.5</ele><time>2026-04-18T15:29:25.183Z</time></trkpt><trkpt lat="43.4606082" lon="10.6714733"><ele>132.0</ele><time>2026-04-18T15:29:26.178Z</time></trkpt><trkpt lat="43.46081" lon="10.6716162"><ele>132.0</ele><time>2026-04-18T15:29:27.181Z</time></trkpt><trkpt lat="43.4610138" lon="10.6717612"><ele>132.0</ele><time>2026-04-18T15:29:28.181Z</time></trkpt><trkpt lat="43.4612088" lon="10.6719053"><ele>131.5</ele><time>2026-04-18T15:29:29.19Z</time></trkpt><trkpt lat="43.4614041" lon="10.6720554"><ele>131.0</ele><time>2026-04-18T15:29:30.184Z</time></trkpt><trkpt lat="43.4616029" lon="10.672204"><ele>131.0</ele><time>2026-04-18T15:29:31.198Z</time></trkpt><trkpt lat="43.4617991" lon="10.6723511"><ele>131.0</ele><time>2026-04-18T15:29:32.179Z</time></trkpt><trkpt lat="43.4619929" lon="10.6725001"><ele>131.0</ele><time>2026-04-18T15:29:33.186Z</time></trkpt><trkpt lat="43.4621851" lon="10.6726305"><ele>130.66666666666666</ele><time>2026-04-18T15:29:34.168Z</time></trkpt><trkpt lat="43.4623695" lon="10.6727631"><ele>130.33333333333334</ele><time>2026-04-18T15:29:35.186Z</time></trkpt><trkpt lat="43.4625562" lon="10.6728917"><ele>130.0</ele><time>2026-04-18T15:29:36.174Z</time></trkpt><trkpt lat="43.4627356" lon="10.6730067"><ele>130.0</ele><time>2026-04-18T15:29:37.184Z</time></trkpt><trkpt lat="43.4629137" lon="10.6731191"><ele>130.0</ele><time>2026-04-18T15:29:38.19Z</time></trkpt><trkpt lat="43.4630953" lon="10.6732463"><ele>130.0</ele><time>2026-04-18T15:29:39.179Z</time></trkpt><trkpt lat="43.4632755" lon="10.6733674"><ele>130.66666666666669</ele><time>2026-04-18T15:29:40.173Z</time></trkpt><trkpt lat="43.4634543" lon="10.6734971"><ele>131.33333333333334</ele><time>2026-04-18T15:29:41.181Z</time></trkpt><trkpt lat="43.4636357" lon="10.6736282"><ele>132.0</ele><time>2026-04-18T15:29:42.163Z</time></trkpt><trkpt lat="43.4638166" lon="10.673752"><ele>130.66666666666666</ele><time>2026-04-18T15:29:43.18Z</time></trkpt><trkpt lat="43.4639999" lon="10.673879"><ele>129.33333333333331</ele><time>2026-04-18T15:29:44.182Z</time></trkpt><trkpt lat="43.4641854" lon="10.6740081"><ele>128.0</ele><time>2026-04-18T15:29:45.178Z</time></trkpt><trkpt lat="43.4643663" lon="10.6741421"><ele>128.0</ele><time>2026-04-18T15:29:46.198Z</time></trkpt><trkpt lat="43.4645395" lon="10.674276"><ele>128.0</ele><time>2026-04-18T15:29:47.183Z</time></trkpt><trkpt lat="43.4646913" lon="10.6744244"><ele>128.0</ele><time>2026-04-18T15:29:48.194Z</time></trkpt><trkpt lat="43.4648384" lon="10.6745869"><ele>127.33333333333333</ele><time>2026-04-18T15:29:49.184Z</time></trkpt><trkpt lat="43.4649786" lon="10.6747599"><ele>126.66666666666666</ele><time>2026-04-18T15:29:50.186Z</time></trkpt><trkpt lat="43.4651105" lon="10.6749441"><ele>126.0</ele><time>2026-04-18T15:29:51.194Z</time></trkpt><trkpt lat="43.4652264" lon="10.6751428"><ele>125.66666666666666</ele><time>2026-04-18T15:29:52.193Z</time></trkpt><trkpt lat="43.4653353" lon="10.6753619"><ele>125.33333333333333</ele><time>2026-04-18T15:29:53.201Z</time></trkpt><trkpt lat="43.4654254" lon="10.6755971"><ele>125.0</ele><time>2026-04-18T15:29:54.187Z</time></trkpt><trkpt lat="43.465518" lon="10.6758444"><ele>126.0</ele><time>2026-04-18T15:29:55.188Z</time></trkpt><trkpt lat="43.4656083" lon="10.6760863"><ele>127.0</ele><time>2026-04-18T15:29:56.178Z</time></trkpt><trkpt lat="43.4656984" lon="10.6763272"><ele>128.0</ele><time>2026-04-18T15:29:57.191Z</time></trkpt><trkpt lat="43.4657853" lon="10.6765632"><ele>128.0</ele><time>2026-04-18T15:29:58.202Z</time></trkpt><trkpt lat="43.4658771" lon="10.6768063"><ele>128.0</ele><time>2026-04-18T15:29:59.199Z</time></trkpt><trkpt lat="43.4659634" lon="10.6770357"><ele>128.0</ele><time>2026-04-18T15:30:00.191Z</time></trkpt><trkpt lat="43.4660502" lon="10.6772672"><ele>128.33333333333331</ele><time>2026-04-18T15:30:01.178Z</time></trkpt><trkpt lat="43.4661358" lon="10.6774922"><ele>128.66666666666666</ele><time>2026-04-18T15:30:02.198Z</time></trkpt><trkpt lat="43.4662211" lon="10.6777217"><ele>129.0</ele><time>2026-04-18T15:30:03.19Z</time></trkpt><trkpt lat="43.4663061" lon="10.6779553"><ele>129.0</ele><time>2026-04-18T15:30:04.188Z</time></trkpt><trkpt lat="43.4663858" lon="10.6781815"><ele>129.0</ele><time>2026-04-18T15:30:05.185Z</time></trkpt><trkpt lat="43.4664638" lon="10.6783976"><ele>129.0</ele><time>2026-04-18T15:30:06.18Z</time></trkpt><trkpt lat="43.4665446" lon="10.6785974"><ele>126.33333333333334</ele><time>2026-04-18T15:30:07.183Z</time></trkpt><trkpt lat="43.4666275" lon="10.6787934"><ele>123.66666666666667</ele><time>2026-04-18T15:30:08.172Z</time></trkpt><trkpt lat="43.4667232" lon="10.6789798"><ele>121.0</ele><time>2026-04-18T15:30:09.207Z</time></trkpt><trkpt lat="43.4668299" lon="10.6791685"><ele>121.0</ele><time>2026-04-18T15:30:10.188Z</time></trkpt><trkpt lat="43.4669311" lon="10.6793505"><ele>121.0</ele><time>2026-04-18T15:30:11.173Z</time></trkpt><trkpt lat="43.4670279" lon="10.6795261"><ele>121.0</ele><time>2026-04-18T15:30:12.18Z</time></trkpt><trkpt lat="43.467123" lon="10.6797042"><ele>121.0</ele><time>2026-04-18T15:30:13.179Z</time></trkpt><trkpt lat="43.4672181" lon="10.6798717"><ele>121.0</ele><time>2026-04-18T15:30:14.182Z</time></trkpt><trkpt lat="43.4673134" lon="10.6800365"><ele>121.0</ele><time>2026-04-18T15:30:15.176Z</time></trkpt><trkpt lat="43.467413" lon="10.6802034"><ele>120.33333333333334</ele><time>2026-04-18T15:30:16.172Z</time></trkpt><trkpt lat="43.4675117" lon="10.6803629"><ele>119.66666666666666</ele><time>2026-04-18T15:30:17.188Z</time></trkpt><trkpt lat="43.46761" lon="10.6805251"><ele>119.0</ele><time>2026-04-18T15:30:18.19Z</time></trkpt><trkpt lat="43.4677057" lon="10.6806929"><ele>119.0</ele><time>2026-04-18T15:30:19.17Z</time></trkpt><trkpt lat="43.4678015" lon="10.6808651"><ele>119.0</ele><time>2026-04-18T15:30:20.169Z</time></trkpt><trkpt lat="43.4678965" lon="10.6810283"><ele>119.0</ele><time>2026-04-18T15:30:21.186Z</time></trkpt><trkpt lat="43.4679932" lon="10.6811973"><ele>120.75</ele><time>2026-04-18T15:30:22.175Z</time></trkpt><trkpt lat="43.4680839" lon="10.6813626"><ele>122.5</ele><time>2026-04-18T15:30:23.175Z</time></trkpt><trkpt lat="43.4681696" lon="10.6815134"><ele>124.25</ele><time>2026-04-18T15:30:24.18Z</time></trkpt><trkpt lat="43.4682597" lon="10.6816619"><ele>126.0</ele><time>2026-04-18T15:30:25.174Z</time></trkpt><trkpt lat="43.4683517" lon="10.6818087"><ele>125.0</ele><time>2026-04-18T15:30:26.181Z</time></trkpt><trkpt lat="43.4684449" lon="10.6819589"><ele>124.0</ele><time>2026-04-18T15:30:27.189Z</time></trkpt><trkpt lat="43.4685323" lon="10.6821059"><ele>123.0</ele><time>2026-04-18T15:30:28.18Z</time></trkpt><trkpt lat="43.4686128" lon="10.6822492"><ele>122.0</ele><time>2026-04-18T15:30:29.182Z</time></trkpt><trkpt lat="43.4686885" lon="10.6823921"><ele>122.0</ele><time>2026-04-18T15:30:30.18Z</time></trkpt><trkpt lat="43.4687498" lon="10.6825366"><ele>122.0</ele><time>2026-04-18T15:30:31.175Z</time></trkpt><trkpt lat="43.4687866" lon="10.6826889"><ele>122.0</ele><time>2026-04-18T15:30:32.17Z</time></trkpt><trkpt lat="43.4688011" lon="10.6828552"><ele>122.0</ele><time>2026-04-18T15:30:33.177Z</time></trkpt><trkpt lat="43.4688002" lon="10.68302"><ele>121.5</ele><time>2026-04-18T15:30:34.168Z</time></trkpt><trkpt lat="43.4687788" lon="10.6831871"><ele>121.0</ele><time>2026-04-18T15:30:35.18Z</time></trkpt><trkpt lat="43.4687463" lon="10.6833611"><ele>120.5</ele><time>2026-04-18T15:30:36.164Z</time></trkpt><trkpt lat="43.4687152" lon="10.6835405"><ele>120.0</ele><time>2026-04-18T15:30:37.196Z</time></trkpt><trkpt lat="43.468702" lon="10.6837015"><ele>119.25</ele><time>2026-04-18T15:30:38.187Z</time></trkpt><trkpt lat="43.4687103" lon="10.683855"><ele>118.5</ele><time>2026-04-18T15:30:39.186Z</time></trkpt><trkpt lat="43.4687438" lon="10.6840037"><ele>117.75</ele><time>2026-04-18T15:30:40.173Z</time></trkpt><trkpt lat="43.4688101" lon="10.684148"><ele>117.0</ele><time>2026-04-18T15:30:41.187Z</time></trkpt><trkpt lat="43.4688816" lon="10.6842728"><ele>117.0</ele><time>2026-04-18T15:30:42.189Z</time></trkpt><trkpt lat="43.468978" lon="10.6843834"><ele>117.0</ele><time>2026-04-18T15:30:43.18Z</time></trkpt><trkpt lat="43.4690862" lon="10.6844799"><ele>117.0</ele><time>2026-04-18T15:30:44.19Z</time></trkpt><trkpt lat="43.469207" lon="10.6845765"><ele>117.0</ele><time>2026-04-18T15:30:45.188Z</time></trkpt><trkpt lat="43.4693219" lon="10.6846724"><ele>117.0</ele><time>2026-04-18T15:30:46.183Z</time></trkpt><trkpt lat="43.4694401" lon="10.6847531"><ele>117.0</ele><time>2026-04-18T15:30:47.184Z</time></trkpt><trkpt lat="43.4695571" lon="10.6848598"><ele>117.0</ele><time>2026-04-18T15:30:48.177Z</time></trkpt><trkpt lat="43.46967" lon="10.6849565"><ele>117.0</ele><time>2026-04-18T15:30:49.184Z</time></trkpt><trkpt lat="43.4697843" lon="10.6850714"><ele>116.0</ele><time>2026-04-18T15:30:50.189Z</time></trkpt><trkpt lat="43.4698984" lon="10.6851803"><ele>115.0</ele><time>2026-04-18T15:30:51.194Z</time></trkpt><trkpt lat="43.4700136" lon="10.6852805"><ele>114.0</ele><time>2026-04-18T15:30:52.172Z</time></trkpt><trkpt lat="43.4701279" lon="10.6853836"><ele>113.0</ele><time>2026-04-18T15:30:53.192Z</time></trkpt><trkpt lat="43.4702538" lon="10.6854876"><ele>113.0</ele><time>2026-04-18T15:30:54.189Z</time></trkpt><trkpt lat="43.470387" lon="10.6855836"><ele>113.0</ele><time>2026-04-18T15:30:55.186Z</time></trkpt><trkpt lat="43.470524" lon="10.6856717"><ele>113.0</ele><time>2026-04-18T15:30:56.201Z</time></trkpt><trkpt lat="43.4706669" lon="10.6857575"><ele>113.33333333333333</ele><time>2026-04-18T15:30:57.186Z</time></trkpt><trkpt lat="43.4708032" lon="10.6858448"><ele>113.66666666666666</ele><time>2026-04-18T15:30:58.175Z</time></trkpt><trkpt lat="43.4709411" lon="10.6859394"><ele>114.0</ele><time>2026-04-18T15:30:59.181Z</time></trkpt><trkpt lat="43.4710775" lon="10.6860412"><ele>113.66666666666666</ele><time>2026-04-18T15:31:00.198Z</time></trkpt><trkpt lat="43.4712161" lon="10.6861582"><ele>113.33333333333333</ele><time>2026-04-18T15:31:01.177Z</time></trkpt><trkpt lat="43.4713519" lon="10.6862715"><ele>113.0</ele><time>2026-04-18T15:31:02.186Z</time></trkpt><trkpt lat="43.4714756" lon="10.6863956"><ele>113.0</ele><time>2026-04-18T15:31:03.19Z</time></trkpt><trkpt lat="43.4715975" lon="10.6865452"><ele>113.0</ele><time>2026-04-18T15:31:04.175Z</time></trkpt><trkpt lat="43.4717114" lon="10.6867"><ele>113.0</ele><time>2026-04-18T15:31:05.187Z</time></trkpt><trkpt lat="43.4718076" lon="10.6868654"><ele>112.5</ele><time>2026-04-18T15:31:06.196Z</time></trkpt><trkpt lat="43.4718961" lon="10.6870207"><ele>112.0</ele><time>2026-04-18T15:31:07.186Z</time></trkpt><trkpt lat="43.4719721" lon="10.6871631"><ele>111.5</ele><time>2026-04-18T15:31:08.174Z</time></trkpt><trkpt lat="43.4720357" lon="10.6872896"><ele>111.0</ele><time>2026-04-18T15:31:09.188Z</time></trkpt><trkpt lat="43.4720933" lon="10.68741"><ele>110.83333333333333</ele><time>2026-04-18T15:31:10.182Z</time></trkpt><trkpt lat="43.4721503" lon="10.6875222"><ele>110.66666666666666</ele><time>2026-04-18T15:31:11.189Z</time></trkpt><trkpt lat="43.4721926" lon="10.687611"><ele>110.5</ele><time>2026-04-18T15:31:12.192Z</time></trkpt><trkpt lat="43.4722391" lon="10.6876911"><ele>110.33333333333333</ele><time>2026-04-18T15:31:13.187Z</time></trkpt><trkpt lat="43.4722754" lon="10.6877712"><ele>110.16666666666666</ele><time>2026-04-18T15:31:14.166Z</time></trkpt><trkpt lat="43.4723129" lon="10.6878644"><ele>110.0</ele><time>2026-04-18T15:31:16.171Z</time></trkpt><trkpt lat="43.4722492" lon="10.6879686"><ele>109.99999999999999</ele><time>2026-04-18T15:31:19.188Z</time></trkpt><trkpt lat="43.4721674" lon="10.6880459"><ele>110.0</ele><time>2026-04-18T15:31:21.179Z</time></trkpt><trkpt lat="43.4720875" lon="10.6881669"><ele>110.0</ele><time>2026-04-18T15:31:23.192Z</time></trkpt><trkpt lat="43.4720354" lon="10.6882354"><ele>110.0</ele><time>2026-04-18T15:31:24.181Z</time></trkpt><trkpt lat="43.4719775" lon="10.6883079"><ele>109.99999999999999</ele><time>2026-04-18T15:31:25.179Z</time></trkpt><trkpt lat="43.4719232" lon="10.6883857"><ele>110.0</ele><time>2026-04-18T15:31:26.18Z</time></trkpt><trkpt lat="43.4718748" lon="10.6884603"><ele>109.83333333333333</ele><time>2026-04-18T15:31:27.18Z</time></trkpt><trkpt lat="43.4718201" lon="10.6885412"><ele>109.66666666666666</ele><time>2026-04-18T15:31:28.185Z</time></trkpt><trkpt lat="43.4717618" lon="10.6886207"><ele>109.5</ele><time>2026-04-18T15:31:29.173Z</time></trkpt><trkpt lat="43.4717011" lon="10.6887048"><ele>109.33333333333334</ele><time>2026-04-18T15:31:30.181Z</time></trkpt><trkpt lat="43.4716393" lon="10.6887877"><ele>109.16666666666667</ele><time>2026-04-18T15:31:31.187Z</time></trkpt><trkpt lat="43.4715809" lon="10.6888759"><ele>109.0</ele><time>2026-04-18T15:31:32.178Z</time></trkpt><trkpt lat="43.4715328" lon="10.6889503"><ele>109.00000000000001</ele><time>2026-04-18T15:31:33.182Z</time></trkpt><trkpt lat="43.4714653" lon="10.6890569"><ele>109.0</ele><time>2026-04-18T15:31:35.186Z</time></trkpt><trkpt lat="43.4714127" lon="10.68913"><ele>109.0</ele><time>2026-04-18T15:31:37.183Z</time></trkpt><trkpt lat="43.4713688" lon="10.6891982"><ele>109.0</ele><time>2026-04-18T15:31:39.175Z</time></trkpt><trkpt lat="43.471309" lon="10.6892735"><ele>109.00000000000001</ele><time>2026-04-18T15:31:42.183Z</time></trkpt><trkpt lat="43.4712591" lon="10.6893443"><ele>109.0</ele><time>2026-04-18T15:31:45.192Z</time></trkpt><trkpt lat="43.4711985" lon="10.6894223"><ele>109.00000000000001</ele><time>2026-04-18T15:31:48.17Z</time></trkpt><trkpt lat="43.4711478" lon="10.6894868"><ele>109.0</ele><time>2026-04-18T15:31:50.18Z</time></trkpt><trkpt lat="43.4710944" lon="10.6895571"><ele>109.0</ele><time>2026-04-18T15:31:52.168Z</time></trkpt><trkpt lat="43.4710423" lon="10.6896285"><ele>109.0</ele><time>2026-04-18T15:31:54.184Z</time></trkpt><trkpt lat="43.4709798" lon="10.6896899"><ele>109.00000000000001</ele><time>2026-04-18T15:31:56.176Z</time></trkpt><trkpt lat="43.4709134" lon="10.68976"><ele>109.0</ele><time>2026-04-18T15:31:58.175Z</time></trkpt><trkpt lat="43.4708306" lon="10.6898489"><ele>109.0</ele><time>2026-04-18T15:32:00.176Z</time></trkpt><trkpt lat="43.470791" lon="10.6899189"><ele>109.0</ele><time>2026-04-18T15:32:01.176Z</time></trkpt><trkpt lat="43.4707526" lon="10.6899877"><ele>109.0</ele><time>2026-04-18T15:32:02.182Z</time></trkpt><trkpt lat="43.4706772" lon="10.6901221"><ele>109.0</ele><time>2026-04-18T15:32:04.171Z</time></trkpt><trkpt lat="43.4705921" lon="10.6902338"><ele>109.0</ele><time>2026-04-18T15:32:06.177Z</time></trkpt><trkpt lat="43.4705047" lon="10.6902946"><ele>108.71428571428572</ele><time>2026-04-18T15:32:08.182Z</time></trkpt><trkpt lat="43.4704266" lon="10.6902848"><ele>108.42857142857143</ele><time>2026-04-18T15:32:10.171Z</time></trkpt><trkpt lat="43.4703787" lon="10.6902166"><ele>108.14285714285714</ele><time>2026-04-18T15:32:12.174Z</time></trkpt><trkpt lat="43.470356" lon="10.6901351"><ele>107.85714285714286</ele><time>2026-04-18T15:32:14.171Z</time></trkpt><trkpt lat="43.4703132" lon="10.6900562"><ele>107.57142857142857</ele><time>2026-04-18T15:32:17.18Z</time></trkpt><trkpt lat="43.4702454" lon="10.6900943"><ele>107.28571428571429</ele><time>2026-04-18T15:32:44.174Z</time></trkpt><trkpt lat="43.4701636" lon="10.6901373"><ele>107.0</ele><time>2026-04-18T15:32:48.171Z</time></trkpt><trkpt lat="43.4701065" lon="10.6901756"><ele>107.00000000000001</ele><time>2026-04-18T15:33:05.177Z</time></trkpt><trkpt lat="43.4700653" lon="10.6902537"><ele>107.0</ele><time>2026-04-18T15:33:22.174Z</time></trkpt><trkpt lat="43.4700073" lon="10.6903091"><ele>107.0</ele><time>2026-04-18T15:33:34.196Z</time></trkpt><trkpt lat="43.4699652" lon="10.6903772"><ele>107.0</ele><time>2026-04-18T15:33:41.183Z</time></trkpt><trkpt lat="43.4698738" lon="10.6904158"><ele>107.0</ele><time>2026-04-18T15:34:26.918Z</time></trkpt><trkpt lat="43.4699356" lon="10.6903531"><ele>107.00000000000001</ele><time>2026-04-18T15:35:32.17Z</time></trkpt><trkpt lat="43.4699878" lon="10.6902976"><ele>107.0</ele><time>2026-04-18T15:35:40.182Z</time></trkpt><trkpt lat="43.470046" lon="10.6902533"><ele>107.00000000000001</ele><time>2026-04-18T15:35:51.197Z</time></trkpt><trkpt lat="43.4701054" lon="10.6902064"><ele>107.0</ele><time>2026-04-18T15:35:59.116Z</time></trkpt><trkpt lat="43.4701653" lon="10.6901556"><ele>107.0</ele><time>2026-04-18T15:36:03.175Z</time></trkpt><trkpt lat="43.4702251" lon="10.6901159"><ele>107.0</ele><time>2026-04-18T15:36:09.19Z</time></trkpt><trkpt lat="43.4702908" lon="10.6901567"><ele>107.0</ele><time>2026-04-18T15:36:15.027Z</time></trkpt><trkpt lat="43.470335" lon="10.690247"><ele>107.00000000000001</ele><time>2026-04-18T15:36:31.183Z</time></trkpt><trkpt lat="43.4703609" lon="10.6903368"><ele>107.0</ele><time>2026-04-18T15:36:35.197Z</time></trkpt><trkpt lat="43.4704385" lon="10.6903658"><ele>107.19999999999999</ele><time>2026-04-18T15:36:38.188Z</time></trkpt><trkpt lat="43.4705085" lon="10.6903107"><ele>107.39999999999999</ele><time>2026-04-18T15:36:40.189Z</time></trkpt><trkpt lat="43.4705871" lon="10.6902422"><ele>107.60000000000001</ele><time>2026-04-18T15:36:42.178Z</time></trkpt><trkpt lat="43.4706783" lon="10.6901159"><ele>107.80000000000001</ele><time>2026-04-18T15:36:44.174Z</time></trkpt><trkpt lat="43.4707586" lon="10.6899734"><ele>108.0</ele><time>2026-04-18T15:36:46.195Z</time></trkpt><trkpt lat="43.4708571" lon="10.68987"><ele>108.25</ele><time>2026-04-18T15:36:48.201Z</time></trkpt><trkpt lat="43.4709142" lon="10.6898207"><ele>108.5</ele><time>2026-04-18T15:36:49.195Z</time></trkpt><trkpt lat="43.4710033" lon="10.689736"><ele>108.75</ele><time>2026-04-18T15:36:51.216Z</time></trkpt><trkpt lat="43.4710622" lon="10.6896595"><ele>109.0</ele><time>2026-04-18T15:36:54.193Z</time></trkpt><trkpt lat="43.4741115" lon="10.6924272"><ele>109.0</ele><time>2026-04-18T15:38:06.154Z</time></trkpt><trkpt lat="43.4741677" lon="10.6925929"><ele>109.0</ele><time>2026-04-18T15:38:07.164Z</time></trkpt><trkpt lat="43.474217" lon="10.6927478"><ele>109.0</ele><time>2026-04-18T15:38:08.158Z</time></trkpt><trkpt lat="43.4742929" lon="10.6929398"><ele>109.0</ele><time>2026-04-18T15:38:09.166Z</time></trkpt><trkpt lat="43.4743621" lon="10.6931059"><ele>109.5</ele><time>2026-04-18T15:38:10.163Z</time></trkpt><trkpt lat="43.4744355" lon="10.6932709"><ele>110.0</ele><time>2026-04-18T15:38:11.162Z</time></trkpt><trkpt lat="43.474504" lon="10.6934447"><ele>110.5</ele><time>2026-04-18T15:38:12.164Z</time></trkpt><trkpt lat="43.4745716" lon="10.6935994"><ele>111.0</ele><time>2026-04-18T15:38:13.181Z</time></trkpt><trkpt lat="43.4746377" lon="10.6937768"><ele>111.0</ele><time>2026-04-18T15:38:14.182Z</time></trkpt><trkpt lat="43.4747011" lon="10.6939571"><ele>111.0</ele><time>2026-04-18T15:38:15.172Z</time></trkpt><trkpt lat="43.4747663" lon="10.6941237"><ele>111.0</ele><time>2026-04-18T15:38:16.171Z</time></trkpt><trkpt lat="43.4748268" lon="10.6942933"><ele>111.0</ele><time>2026-04-18T15:38:17.171Z</time></trkpt><trkpt lat="43.4748949" lon="10.6944597"><ele>109.25</ele><time>2026-04-18T15:38:18.169Z</time></trkpt><trkpt lat="43.4749661" lon="10.6946231"><ele>107.5</ele><time>2026-04-18T15:38:19.171Z</time></trkpt><trkpt lat="43.4750474" lon="10.6947789"><ele>105.75</ele><time>2026-04-18T15:38:20.162Z</time></trkpt><trkpt lat="43.475137" lon="10.6949333"><ele>104.0</ele><time>2026-04-18T15:38:21.178Z</time></trkpt><trkpt lat="43.4752244" lon="10.6950943"><ele>104.0</ele><time>2026-04-18T15:38:22.161Z</time></trkpt><trkpt lat="43.4753143" lon="10.6952515"><ele>104.0</ele><time>2026-04-18T15:38:23.167Z</time></trkpt><trkpt lat="43.4754101" lon="10.6954141"><ele>104.0</ele><time>2026-04-18T15:38:24.163Z</time></trkpt><trkpt lat="43.4755005" lon="10.6955608"><ele>104.0</ele><time>2026-04-18T15:38:25.164Z</time></trkpt><trkpt lat="43.4755954" lon="10.6957274"><ele>104.66666666666666</ele><time>2026-04-18T15:38:26.168Z</time></trkpt><trkpt lat="43.4756963" lon="10.6958998"><ele>105.33333333333334</ele><time>2026-04-18T15:38:27.169Z</time></trkpt><trkpt lat="43.4757908" lon="10.6960699"><ele>106.0</ele><time>2026-04-18T15:38:28.193Z</time></trkpt><trkpt lat="43.4758818" lon="10.6962397"><ele>104.66666666666667</ele><time>2026-04-18T15:38:29.171Z</time></trkpt><trkpt lat="43.4759759" lon="10.6964155"><ele>103.33333333333334</ele><time>2026-04-18T15:38:30.182Z</time></trkpt><trkpt lat="43.4760684" lon="10.6965906"><ele>102.0</ele><time>2026-04-18T15:38:31.172Z</time></trkpt><trkpt lat="43.4761629" lon="10.6967586"><ele>101.33333333333334</ele><time>2026-04-18T15:38:32.182Z</time></trkpt><trkpt lat="43.4762595" lon="10.6969197"><ele>100.66666666666667</ele><time>2026-04-18T15:38:33.177Z</time></trkpt><trkpt lat="43.4763604" lon="10.6970755"><ele>100.0</ele><time>2026-04-18T15:38:34.175Z</time></trkpt><trkpt lat="43.4764655" lon="10.6972311"><ele>100.0</ele><time>2026-04-18T15:38:35.182Z</time></trkpt><trkpt lat="43.4765779" lon="10.6973858"><ele>100.0</ele><time>2026-04-18T15:38:36.183Z</time></trkpt><trkpt lat="43.4766905" lon="10.6975325"><ele>100.0</ele><time>2026-04-18T15:38:37.184Z</time></trkpt><trkpt lat="43.476807" lon="10.6976839"><ele>99.25</ele><time>2026-04-18T15:38:38.193Z</time></trkpt><trkpt lat="43.4769188" lon="10.6978293"><ele>98.5</ele><time>2026-04-18T15:38:39.188Z</time></trkpt><trkpt lat="43.477019" lon="10.6979571"><ele>97.75</ele><time>2026-04-18T15:38:40.184Z</time></trkpt><trkpt lat="43.4771055" lon="10.6980641"><ele>97.0</ele><time>2026-04-18T15:38:41.177Z</time></trkpt><trkpt lat="43.4771843" lon="10.6981595"><ele>96.83333333333334</ele><time>2026-04-18T15:38:42.181Z</time></trkpt><trkpt lat="43.4772513" lon="10.698244"><ele>96.66666666666667</ele><time>2026-04-18T15:38:43.166Z</time></trkpt><trkpt lat="43.477317" lon="10.698323"><ele>96.5</ele><time>2026-04-18T15:38:44.183Z</time></trkpt><trkpt lat="43.477381" lon="10.6983911"><ele>96.33333333333334</ele><time>2026-04-18T15:38:45.183Z</time></trkpt><trkpt lat="43.477436" lon="10.6984541"><ele>96.16666666666667</ele><time>2026-04-18T15:38:46.196Z</time></trkpt><trkpt lat="43.4775269" lon="10.698523"><ele>96.0</ele><time>2026-04-18T15:38:48.196Z</time></trkpt><trkpt lat="43.4776076" lon="10.6984271"><ele>96.0</ele><time>2026-04-18T15:38:50.185Z</time></trkpt><trkpt lat="43.4776591" lon="10.6983428"><ele>96.0</ele><time>2026-04-18T15:38:51.192Z</time></trkpt><trkpt lat="43.4777301" lon="10.6982554"><ele>96.0</ele><time>2026-04-18T15:38:52.207Z</time></trkpt><trkpt lat="43.4778079" lon="10.6981611"><ele>96.0</ele><time>2026-04-18T15:38:53.191Z</time></trkpt><trkpt lat="43.4778945" lon="10.6980798"><ele>96.0</ele><time>2026-04-18T15:38:54.2Z</time></trkpt><trkpt lat="43.4779928" lon="10.6980016"><ele>96.0</ele><time>2026-04-18T15:38:55.179Z</time></trkpt><trkpt lat="43.4780992" lon="10.6979162"><ele>96.0</ele><time>2026-04-18T15:38:56.182Z</time></trkpt><trkpt lat="43.4782121" lon="10.6978307"><ele>96.0</ele><time>2026-04-18T15:38:57.188Z</time></trkpt><trkpt lat="43.4783343" lon="10.6977356"><ele>96.0</ele><time>2026-04-18T15:38:58.194Z</time></trkpt><trkpt lat="43.4784436" lon="10.6976481"><ele>96.5</ele><time>2026-04-18T15:38:59.182Z</time></trkpt><trkpt lat="43.4785522" lon="10.697568"><ele>97.0</ele><time>2026-04-18T15:39:00.172Z</time></trkpt><trkpt lat="43.4786478" lon="10.6974792"><ele>97.5</ele><time>2026-04-18T15:39:01.178Z</time></trkpt><trkpt lat="43.4787332" lon="10.6973835"><ele>98.0</ele><time>2026-04-18T15:39:02.184Z</time></trkpt><trkpt lat="43.4787906" lon="10.6972589"><ele>99.5</ele><time>2026-04-18T15:39:03.178Z</time></trkpt><trkpt lat="43.478836" lon="10.6971117"><ele>101.0</ele><time>2026-04-18T15:39:04.178Z</time></trkpt><trkpt lat="43.4788804" lon="10.69694"><ele>102.5</ele><time>2026-04-18T15:39:05.193Z</time></trkpt><trkpt lat="43.4789135" lon="10.6967563"><ele>104.0</ele><time>2026-04-18T15:39:06.173Z</time></trkpt><trkpt lat="43.4789423" lon="10.6965757"><ele>104.0</ele><time>2026-04-18T15:39:07.194Z</time></trkpt><trkpt lat="43.4789749" lon="10.6964063"><ele>104.0</ele><time>2026-04-18T15:39:08.175Z</time></trkpt><trkpt lat="43.4790069" lon="10.6962341"><ele>104.0</ele><time>2026-04-18T15:39:09.176Z</time></trkpt><trkpt lat="43.4790426" lon="10.696063"><ele>104.0</ele><time>2026-04-18T15:39:10.178Z</time></trkpt><trkpt lat="43.4790808" lon="10.695898"><ele>104.25</ele><time>2026-04-18T15:39:11.192Z</time></trkpt><trkpt lat="43.479117" lon="10.6957363"><ele>104.5</ele><time>2026-04-18T15:39:12.183Z</time></trkpt><trkpt lat="43.4791696" lon="10.6955763"><ele>104.75</ele><time>2026-04-18T15:39:13.191Z</time></trkpt><trkpt lat="43.4792211" lon="10.6954188"><ele>105.0</ele><time>2026-04-18T15:39:14.193Z</time></trkpt><trkpt lat="43.4792815" lon="10.6952618"><ele>104.5</ele><time>2026-04-18T15:39:15.191Z</time></trkpt><trkpt lat="43.4793483" lon="10.6951106"><ele>104.0</ele><time>2026-04-18T15:39:16.176Z</time></trkpt><trkpt lat="43.4794219" lon="10.6949593"><ele>103.5</ele><time>2026-04-18T15:39:17.187Z</time></trkpt><trkpt lat="43.4794904" lon="10.6948137"><ele>103.0</ele><time>2026-04-18T15:39:18.192Z</time></trkpt><trkpt lat="43.4795737" lon="10.694676"><ele>104.0</ele><time>2026-04-18T15:39:19.2Z</time></trkpt><trkpt lat="43.4796635" lon="10.6945409"><ele>105.0</ele><time>2026-04-18T15:39:20.175Z</time></trkpt><trkpt lat="43.4797611" lon="10.6943981"><ele>106.0</ele><time>2026-04-18T15:39:21.173Z</time></trkpt><trkpt lat="43.4798596" lon="10.6942621"><ele>107.0</ele><time>2026-04-18T15:39:22.179Z</time></trkpt><trkpt lat="43.4799626" lon="10.6941357"><ele>107.0</ele><time>2026-04-18T15:39:23.195Z</time></trkpt><trkpt lat="43.4800595" lon="10.6940378"><ele>106.99999999999999</ele><time>2026-04-18T15:39:24.196Z</time></trkpt><trkpt lat="43.4801452" lon="10.6939575"><ele>106.99999999999999</ele><time>2026-04-18T15:39:25.19Z</time></trkpt><trkpt lat="43.4802296" lon="10.6939043"><ele>107.0</ele><time>2026-04-18T15:39:26.183Z</time></trkpt><trkpt lat="43.4803318" lon="10.6938642"><ele>107.0</ele><time>2026-04-18T15:39:27.192Z</time></trkpt><trkpt lat="43.4804289" lon="10.6938241"><ele>106.8</ele><time>2026-04-18T15:39:28.187Z</time></trkpt><trkpt lat="43.4805275" lon="10.693772"><ele>106.6</ele><time>2026-04-18T15:39:29.17Z</time></trkpt><trkpt lat="43.4806099" lon="10.6936814"><ele>106.39999999999999</ele><time>2026-04-18T15:39:30.172Z</time></trkpt><trkpt lat="43.4806836" lon="10.6935684"><ele>106.19999999999999</ele><time>2026-04-18T15:39:31.174Z</time></trkpt><trkpt lat="43.4807403" lon="10.6934353"><ele>106.0</ele><time>2026-04-18T15:39:32.165Z</time></trkpt><trkpt lat="43.4807955" lon="10.6932949"><ele>106.0</ele><time>2026-04-18T15:39:33.215Z</time></trkpt><trkpt lat="43.4808514" lon="10.6931423"><ele>106.0</ele><time>2026-04-18T15:39:34.187Z</time></trkpt><trkpt lat="43.4809066" lon="10.6930066"><ele>106.0</ele><time>2026-04-18T15:39:35.193Z</time></trkpt><trkpt lat="43.4809493" lon="10.6928664"><ele>106.0</ele><time>2026-04-18T15:39:36.176Z</time></trkpt><trkpt lat="43.4809797" lon="10.6927168"><ele>106.25</ele><time>2026-04-18T15:39:37.181Z</time></trkpt><trkpt lat="43.4810094" lon="10.692559"><ele>106.5</ele><time>2026-04-18T15:39:38.182Z</time></trkpt><trkpt lat="43.4810322" lon="10.6924027"><ele>106.75</ele><time>2026-04-18T15:39:39.179Z</time></trkpt><trkpt lat="43.4810535" lon="10.6922398"><ele>107.0</ele><time>2026-04-18T15:39:40.182Z</time></trkpt><trkpt lat="43.4810802" lon="10.6920834"><ele>107.5</ele><time>2026-04-18T15:39:41.172Z</time></trkpt><trkpt lat="43.4811087" lon="10.6919167"><ele>108.0</ele><time>2026-04-18T15:39:42.216Z</time></trkpt><trkpt lat="43.481138" lon="10.6917491"><ele>108.5</ele><time>2026-04-18T15:39:43.178Z</time></trkpt><trkpt lat="43.4811689" lon="10.6915808"><ele>109.0</ele><time>2026-04-18T15:39:44.168Z</time></trkpt><trkpt lat="43.4812022" lon="10.6914101"><ele>109.0</ele><time>2026-04-18T15:39:45.179Z</time></trkpt><trkpt lat="43.4812326" lon="10.6912407"><ele>109.0</ele><time>2026-04-18T15:39:46.175Z</time></trkpt><trkpt lat="43.4812641" lon="10.6910732"><ele>109.0</ele><time>2026-04-18T15:39:47.18Z</time></trkpt><trkpt lat="43.4812939" lon="10.6909043"><ele>109.0</ele><time>2026-04-18T15:39:48.174Z</time></trkpt><trkpt lat="43.4813255" lon="10.6907402"><ele>109.5</ele><time>2026-04-18T15:39:49.171Z</time></trkpt><trkpt lat="43.4813553" lon="10.6905776"><ele>110.0</ele><time>2026-04-18T15:39:50.165Z</time></trkpt><trkpt lat="43.4813866" lon="10.6904127"><ele>110.5</ele><time>2026-04-18T15:39:51.173Z</time></trkpt><trkpt lat="43.4814205" lon="10.6902428"><ele>111.0</ele><time>2026-04-18T15:39:52.168Z</time></trkpt><trkpt lat="43.481444" lon="10.6900669"><ele>111.0</ele><time>2026-04-18T15:39:53.185Z</time></trkpt><trkpt lat="43.4814602" lon="10.6898833"><ele>111.0</ele><time>2026-04-18T15:39:54.177Z</time></trkpt><trkpt lat="43.4814729" lon="10.6897043"><ele>111.0</ele><time>2026-04-18T15:39:55.167Z</time></trkpt><trkpt lat="43.48147" lon="10.6895061"><ele>111.0</ele><time>2026-04-18T15:39:56.172Z</time></trkpt><trkpt lat="43.4814594" lon="10.6893156"><ele>111.75</ele><time>2026-04-18T15:39:57.163Z</time></trkpt><trkpt lat="43.4814471" lon="10.6891302"><ele>112.5</ele><time>2026-04-18T15:39:58.174Z</time></trkpt><trkpt lat="43.4814393" lon="10.6889307"><ele>113.25</ele><time>2026-04-18T15:39:59.172Z</time></trkpt><trkpt lat="43.4814249" lon="10.6887341"><ele>114.0</ele><time>2026-04-18T15:40:00.174Z</time></trkpt><trkpt lat="43.4814093" lon="10.6885395"><ele>115.0</ele><time>2026-04-18T15:40:01.186Z</time></trkpt><trkpt lat="43.4814022" lon="10.6883371"><ele>116.0</ele><time>2026-04-18T15:40:02.174Z</time></trkpt><trkpt lat="43.4813946" lon="10.6881523"><ele>117.0</ele><time>2026-04-18T15:40:03.175Z</time></trkpt><trkpt lat="43.4814062" lon="10.687974"><ele>118.0</ele><time>2026-04-18T15:40:04.176Z</time></trkpt><trkpt lat="43.4814282" lon="10.6877965"><ele>117.75</ele><time>2026-04-18T15:40:05.168Z</time></trkpt><trkpt lat="43.4814571" lon="10.68763"><ele>117.5</ele><time>2026-04-18T15:40:06.161Z</time></trkpt><trkpt lat="43.4814907" lon="10.6874601"><ele>117.25</ele><time>2026-04-18T15:40:07.184Z</time></trkpt><trkpt lat="43.4815252" lon="10.687285"><ele>117.0</ele><time>2026-04-18T15:40:08.178Z</time></trkpt><trkpt lat="43.4815521" lon="10.6871153"><ele>117.0</ele><time>2026-04-18T15:40:09.186Z</time></trkpt><trkpt lat="43.4815788" lon="10.6869463"><ele>117.0</ele><time>2026-04-18T15:40:10.159Z</time></trkpt><trkpt lat="43.4816056" lon="10.686775"><ele>117.0</ele><time>2026-04-18T15:40:11.183Z</time></trkpt><trkpt lat="43.4816306" lon="10.6866069"><ele>117.0</ele><time>2026-04-18T15:40:12.182Z</time></trkpt><trkpt lat="43.4816577" lon="10.6864479"><ele>115.5</ele><time>2026-04-18T15:40:13.18Z</time></trkpt><trkpt lat="43.4816898" lon="10.6862883"><ele>114.0</ele><time>2026-04-18T15:40:14.163Z</time></trkpt><trkpt lat="43.4821392" lon="10.6738444"><ele>118.2</ele><time>2026-04-18T15:41:31.044Z</time></trkpt><trkpt lat="43.4820684" lon="10.673783"><ele>122.4</ele><time>2026-04-18T15:41:32.17Z</time></trkpt><trkpt lat="43.4819922" lon="10.6737958"><ele>126.6</ele><time>2026-04-18T15:41:33.168Z</time></trkpt><trkpt lat="43.4818766" lon="10.6737629"><ele>130.8</ele><time>2026-04-18T15:41:35.183Z</time></trkpt><trkpt lat="43.481732" lon="10.6737349"><ele>135.0</ele><time>2026-04-18T15:41:37.17Z</time></trkpt><trkpt lat="43.4816576" lon="10.6736921"><ele>135.0</ele><time>2026-04-18T15:41:38.177Z</time></trkpt><trkpt lat="43.4815964" lon="10.6736236"><ele>135.0</ele><time>2026-04-18T15:41:39.169Z</time></trkpt><trkpt lat="43.4815283" lon="10.6735393"><ele>135.0</ele><time>2026-04-18T15:41:40.193Z</time></trkpt><trkpt lat="43.4814752" lon="10.673452"><ele>135.0</ele><time>2026-04-18T15:41:41.18Z</time></trkpt><trkpt lat="43.4814383" lon="10.6733591"><ele>135.0</ele><time>2026-04-18T15:41:42.187Z</time></trkpt><trkpt lat="43.4813951" lon="10.6732531"><ele>135.0</ele><time>2026-04-18T15:41:43.182Z</time></trkpt><trkpt lat="43.4813563" lon="10.6731474"><ele>135.4</ele><time>2026-04-18T15:41:44.189Z</time></trkpt><trkpt lat="43.4813212" lon="10.673029"><ele>135.8</ele><time>2026-04-18T15:41:45.172Z</time></trkpt><trkpt lat="43.4812863" lon="10.6729065"><ele>136.2</ele><time>2026-04-18T15:41:46.178Z</time></trkpt><trkpt lat="43.4812494" lon="10.6727772"><ele>136.6</ele><time>2026-04-18T15:41:47.166Z</time></trkpt><trkpt lat="43.4812066" lon="10.6726413"><ele>137.0</ele><time>2026-04-18T15:41:48.176Z</time></trkpt><trkpt lat="43.4811641" lon="10.6725007"><ele>138.4</ele><time>2026-04-18T15:41:49.177Z</time></trkpt><trkpt lat="43.4811247" lon="10.6723551"><ele>139.79999999999998</ele><time>2026-04-18T15:41:50.182Z</time></trkpt><trkpt lat="43.4810862" lon="10.6722096"><ele>141.2</ele><time>2026-04-18T15:41:51.179Z</time></trkpt><trkpt lat="43.4810501" lon="10.6720624"><ele>142.6</ele><time>2026-04-18T15:41:52.182Z</time></trkpt><trkpt lat="43.4810092" lon="10.6719234"><ele>144.0</ele><time>2026-04-18T15:41:53.165Z</time></trkpt><trkpt lat="43.4809759" lon="10.671784"><ele>145.6</ele><time>2026-04-18T15:41:54.184Z</time></trkpt><trkpt lat="43.4809417" lon="10.6716481"><ele>147.2</ele><time>2026-04-18T15:41:55.165Z</time></trkpt><trkpt lat="43.4809122" lon="10.67153"><ele>148.79999999999998</ele><time>2026-04-18T15:41:56.183Z</time></trkpt><trkpt lat="43.480882" lon="10.671412"><ele>150.4</ele><time>2026-04-18T15:41:57.175Z</time></trkpt><trkpt lat="43.480854" lon="10.6712997"><ele>152.0</ele><time>2026-04-18T15:41:58.162Z</time></trkpt><trkpt lat="43.4808332" lon="10.6711868"><ele>153.33333333333331</ele><time>2026-04-18T15:41:59.169Z</time></trkpt><trkpt lat="43.480828" lon="10.6710697"><ele>154.66666666666666</ele><time>2026-04-18T15:42:00.17Z</time></trkpt><trkpt lat="43.4808371" lon="10.6709488"><ele>156.0</ele><time>2026-04-18T15:42:01.182Z</time></trkpt><trkpt lat="43.480865" lon="10.6708252"><ele>157.33333333333334</ele><time>2026-04-18T15:42:02.179Z</time></trkpt><trkpt lat="43.480902" lon="10.6707044"><ele>158.66666666666669</ele><time>2026-04-18T15:42:03.179Z</time></trkpt><trkpt lat="43.4809234" lon="10.6705957"><ele>160.0</ele><time>2026-04-18T15:42:04.194Z</time></trkpt><trkpt lat="43.4809304" lon="10.670488"><ele>160.0</ele><time>2026-04-18T15:42:05.182Z</time></trkpt><trkpt lat="43.4809144" lon="10.6703673"><ele>160.0</ele><time>2026-04-18T15:42:06.187Z</time></trkpt><trkpt lat="43.4808776" lon="10.6702534"><ele>160.0</ele><time>2026-04-18T15:42:07.183Z</time></trkpt><trkpt lat="43.4808262" lon="10.6701378"><ele>160.0</ele><time>2026-04-18T15:42:08.186Z</time></trkpt><trkpt lat="43.4807598" lon="10.6700347"><ele>160.0</ele><time>2026-04-18T15:42:09.178Z</time></trkpt><trkpt lat="43.4806837" lon="10.6699258"><ele>159.5</ele><time>2026-04-18T15:42:10.179Z</time></trkpt><trkpt lat="43.4805993" lon="10.6698083"><ele>159.0</ele><time>2026-04-18T15:42:11.173Z</time></trkpt><trkpt lat="43.480517" lon="10.6696799"><ele>158.5</ele><time>2026-04-18T15:42:12.183Z</time></trkpt><trkpt lat="43.4804395" lon="10.6695515"><ele>158.0</ele><time>2026-04-18T15:42:13.189Z</time></trkpt><trkpt lat="43.4803545" lon="10.6694159"><ele>157.25</ele><time>2026-04-18T15:42:14.186Z</time></trkpt><trkpt lat="43.4802649" lon="10.6692821"><ele>156.5</ele><time>2026-04-18T15:42:15.178Z</time></trkpt><trkpt lat="43.4801838" lon="10.6691503"><ele>155.75</ele><time>2026-04-18T15:42:16.171Z</time></trkpt><trkpt lat="43.4801054" lon="10.6690131"><ele>155.0</ele><time>2026-04-18T15:42:17.169Z</time></trkpt><trkpt lat="43.4800331" lon="10.6688796"><ele>155.0</ele><time>2026-04-18T15:42:18.167Z</time></trkpt><trkpt lat="43.4799708" lon="10.6687489"><ele>155.0</ele><time>2026-04-18T15:42:19.165Z</time></trkpt><trkpt lat="43.479914" lon="10.6686263"><ele>155.0</ele><time>2026-04-18T15:42:20.171Z</time></trkpt><trkpt lat="43.4798676" lon="10.6685282"><ele>155.0</ele><time>2026-04-18T15:42:21.174Z</time></trkpt><trkpt lat="43.4798202" lon="10.6684498"><ele>155.0</ele><time>2026-04-18T15:42:22.167Z</time></trkpt><trkpt lat="43.4797703" lon="10.6683869"><ele>155.0</ele><time>2026-04-18T15:42:23.171Z</time></trkpt><trkpt lat="43.4797128" lon="10.6683298"><ele>155.16666666666666</ele><time>2026-04-18T15:42:24.172Z</time></trkpt><trkpt lat="43.4796347" lon="10.6682932"><ele>155.33333333333331</ele><time>2026-04-18T15:42:25.164Z</time></trkpt><trkpt lat="43.4795471" lon="10.668283"><ele>155.5</ele><time>2026-04-18T15:42:26.172Z</time></trkpt><trkpt lat="43.4794618" lon="10.6683018"><ele>155.66666666666666</ele><time>2026-04-18T15:42:27.171Z</time></trkpt><trkpt lat="43.4793755" lon="10.6683446"><ele>155.83333333333334</ele><time>2026-04-18T15:42:28.169Z</time></trkpt><trkpt lat="43.4793011" lon="10.6683963"><ele>156.0</ele><time>2026-04-18T15:42:29.171Z</time></trkpt><trkpt lat="43.4792389" lon="10.6684506"><ele>156.0</ele><time>2026-04-18T15:42:30.174Z</time></trkpt><trkpt lat="43.4791748" lon="10.6685059"><ele>156.0</ele><time>2026-04-18T15:42:31.183Z</time></trkpt><trkpt lat="43.4791079" lon="10.6685615"><ele>156.0</ele><time>2026-04-18T15:42:32.182Z</time></trkpt><trkpt lat="43.4790349" lon="10.6685991"><ele>156.0</ele><time>2026-04-18T15:42:33.175Z</time></trkpt><trkpt lat="43.4789692" lon="10.6686412"><ele>156.0</ele><time>2026-04-18T15:42:34.175Z</time></trkpt><trkpt lat="43.4788528" lon="10.6686816"><ele>156.0</ele><time>2026-04-18T15:42:36.175Z</time></trkpt><trkpt lat="43.4787473" lon="10.668652"><ele>156.0</ele><time>2026-04-18T15:42:38.176Z</time></trkpt><trkpt lat="43.4786802" lon="10.6686218"><ele>156.0</ele><time>2026-04-18T15:42:39.186Z</time></trkpt><trkpt lat="43.4786059" lon="10.6685931"><ele>156.0</ele><time>2026-04-18T15:42:40.174Z</time></trkpt><trkpt lat="43.4785206" lon="10.668562"><ele>156.0</ele><time>2026-04-18T15:42:41.164Z</time></trkpt><trkpt lat="43.4784331" lon="10.6685257"><ele>156.0</ele><time>2026-04-18T15:42:42.174Z</time></trkpt><trkpt lat="43.4783357" lon="10.6684883"><ele>156.0</ele><time>2026-04-18T15:42:43.182Z</time></trkpt><trkpt lat="43.478234" lon="10.6684505"><ele>156.0</ele><time>2026-04-18T15:42:44.17Z</time></trkpt><trkpt lat="43.4781355" lon="10.6684137"><ele>156.0</ele><time>2026-04-18T15:42:45.17Z</time></trkpt><trkpt lat="43.478041" lon="10.6683825"><ele>156.0</ele><time>2026-04-18T15:42:46.159Z</time></trkpt><trkpt lat="43.477942" lon="10.6683567"><ele>156.0</ele><time>2026-04-18T15:42:47.171Z</time></trkpt><trkpt lat="43.4778489" lon="10.668349"><ele>156.0</ele><time>2026-04-18T15:42:48.165Z</time></trkpt><trkpt lat="43.4777471" lon="10.6683491"><ele>156.6</ele><time>2026-04-18T15:42:49.167Z</time></trkpt><trkpt lat="43.4776474" lon="10.668365"><ele>157.2</ele><time>2026-04-18T15:42:50.186Z</time></trkpt><trkpt lat="43.4775497" lon="10.6683829"><ele>157.8</ele><time>2026-04-18T15:42:51.184Z</time></trkpt><trkpt lat="43.477449" lon="10.668418"><ele>158.4</ele><time>2026-04-18T15:42:52.169Z</time></trkpt><trkpt lat="43.4773405" lon="10.6684502"><ele>159.0</ele><time>2026-04-18T15:42:53.174Z</time></trkpt><trkpt lat="43.4772319" lon="10.6684756"><ele>159.0</ele><time>2026-04-18T15:42:54.172Z</time></trkpt><trkpt lat="43.4771221" lon="10.668504"><ele>159.0</ele><time>2026-04-18T15:42:55.174Z</time></trkpt><trkpt lat="43.4770081" lon="10.6685361"><ele>159.0</ele><time>2026-04-18T15:42:56.171Z</time></trkpt><trkpt lat="43.4768878" lon="10.668576"><ele>159.0</ele><time>2026-04-18T15:42:57.178Z</time></trkpt><trkpt lat="43.4767687" lon="10.668625"><ele>157.0</ele><time>2026-04-18T15:42:58.175Z</time></trkpt><trkpt lat="43.4766507" lon="10.6686653"><ele>155.0</ele><time>2026-04-18T15:42:59.177Z</time></trkpt><trkpt lat="43.4765389" lon="10.668705"><ele>153.0</ele><time>2026-04-18T15:43:00.174Z</time></trkpt><trkpt lat="43.4764295" lon="10.6687331"><ele>151.0</ele><time>2026-04-18T15:43:01.178Z</time></trkpt><trkpt lat="43.4763197" lon="10.6687681"><ele>152.0</ele><time>2026-04-18T15:43:02.186Z</time></trkpt><trkpt lat="43.4762128" lon="10.6687913"><ele>153.0</ele><time>2026-04-18T15:43:03.175Z</time></trkpt><trkpt lat="43.4761056" lon="10.6688199"><ele>154.0</ele><time>2026-04-18T15:43:04.17Z</time></trkpt><trkpt lat="43.4759993" lon="10.6688531"><ele>155.0</ele><time>2026-04-18T15:43:05.171Z</time></trkpt><trkpt lat="43.4758897" lon="10.6688858"><ele>156.0</ele><time>2026-04-18T15:43:06.166Z</time></trkpt><trkpt lat="43.4757862" lon="10.6689199"><ele>156.0</ele><time>2026-04-18T15:43:07.187Z</time></trkpt><trkpt lat="43.4756768" lon="10.668951"><ele>156.0</ele><time>2026-04-18T15:43:08.179Z</time></trkpt><trkpt lat="43.4755691" lon="10.6689739"><ele>156.0</ele><time>2026-04-18T15:43:09.181Z</time></trkpt><trkpt lat="43.4754573" lon="10.6689812"><ele>156.0</ele><time>2026-04-18T15:43:10.182Z</time></trkpt><trkpt lat="43.4753537" lon="10.6689685"><ele>156.0</ele><time>2026-04-18T15:43:11.18Z</time></trkpt><trkpt lat="43.4752537" lon="10.6689376"><ele>157.66666666666666</ele><time>2026-04-18T15:43:12.17Z</time></trkpt><trkpt lat="43.4751658" lon="10.6688764"><ele>159.33333333333334</ele><time>2026-04-18T15:43:13.173Z</time></trkpt><trkpt lat="43.4750897" lon="10.6688038"><ele>161.0</ele><time>2026-04-18T15:43:14.179Z</time></trkpt><trkpt lat="43.4750172" lon="10.668733"><ele>162.66666666666669</ele><time>2026-04-18T15:43:15.171Z</time></trkpt><trkpt lat="43.4749535" lon="10.6686558"><ele>164.33333333333334</ele><time>2026-04-18T15:43:16.186Z</time></trkpt><trkpt lat="43.4748868" lon="10.6685856"><ele>166.0</ele><time>2026-04-18T15:43:17.202Z</time></trkpt><trkpt lat="43.4748209" lon="10.6685177"><ele>166.0</ele><time>2026-04-18T15:43:18.174Z</time></trkpt><trkpt lat="43.4747428" lon="10.668466"><ele>166.0</ele><time>2026-04-18T15:43:19.169Z</time></trkpt><trkpt lat="43.4746652" lon="10.6684214"><ele>166.0</ele><time>2026-04-18T15:43:20.178Z</time></trkpt><trkpt lat="43.4745784" lon="10.6683766"><ele>166.0</ele><time>2026-04-18T15:43:21.178Z</time></trkpt><trkpt lat="43.4744836" lon="10.6683413"><ele>166.0</ele><time>2026-04-18T15:43:22.172Z</time></trkpt><trkpt lat="43.4743909" lon="10.6683063"><ele>166.83333333333334</ele><time>2026-04-18T15:43:23.179Z</time></trkpt><trkpt lat="43.4743015" lon="10.6682634"><ele>167.66666666666669</ele><time>2026-04-18T15:43:24.187Z</time></trkpt><trkpt lat="43.4742173" lon="10.6682207"><ele>168.5</ele><time>2026-04-18T15:43:25.171Z</time></trkpt><trkpt lat="43.4741323" lon="10.6681783"><ele>169.33333333333334</ele><time>2026-04-18T15:43:26.179Z</time></trkpt><trkpt lat="43.4740537" lon="10.6681411"><ele>170.16666666666666</ele><time>2026-04-18T15:43:27.184Z</time></trkpt><trkpt lat="43.4739763" lon="10.6680974"><ele>171.0</ele><time>2026-04-18T15:43:28.178Z</time></trkpt><trkpt lat="43.4738994" lon="10.6680577"><ele>170.99999999999997</ele><time>2026-04-18T15:43:29.183Z</time></trkpt><trkpt lat="43.4738338" lon="10.668017"><ele>171.0</ele><time>2026-04-18T15:43:30.19Z</time></trkpt><trkpt lat="43.4737682" lon="10.6679797"><ele>171.0</ele><time>2026-04-18T15:43:31.191Z</time></trkpt><trkpt lat="43.4737004" lon="10.6679403"><ele>171.0</ele><time>2026-04-18T15:43:32.18Z</time></trkpt><trkpt lat="43.4736315" lon="10.6679012"><ele>171.0</ele><time>2026-04-18T15:43:33.182Z</time></trkpt><trkpt lat="43.47356" lon="10.6678707"><ele>170.99999999999997</ele><time>2026-04-18T15:43:34.18Z</time></trkpt><trkpt lat="43.4734888" lon="10.6678446"><ele>171.0</ele><time>2026-04-18T15:43:35.18Z</time></trkpt><trkpt lat="43.4734169" lon="10.6678069"><ele>172.28571428571428</ele><time>2026-04-18T15:43:36.177Z</time></trkpt><trkpt lat="43.4733405" lon="10.6677708"><ele>173.57142857142856</ele><time>2026-04-18T15:43:37.183Z</time></trkpt><trkpt lat="43.4732721" lon="10.6677183"><ele>174.85714285714283</ele><time>2026-04-18T15:43:38.18Z</time></trkpt><trkpt lat="43.473208" lon="10.6676599"><ele>176.14285714285714</ele><time>2026-04-18T15:43:39.199Z</time></trkpt><trkpt lat="43.4731577" lon="10.6675932"><ele>177.42857142857144</ele><time>2026-04-18T15:43:40.165Z</time></trkpt><trkpt lat="43.473111" lon="10.6675254"><ele>178.7142857142857</ele><time>2026-04-18T15:43:41.19Z</time></trkpt><trkpt lat="43.4730717" lon="10.6674463"><ele>180.0</ele><time>2026-04-18T15:43:42.173Z</time></trkpt><trkpt lat="43.4730407" lon="10.6673535"><ele>180.0</ele><time>2026-04-18T15:43:43.179Z</time></trkpt><trkpt lat="43.4729979" lon="10.6672794"><ele>180.0</ele><time>2026-04-18T15:43:44.199Z</time></trkpt><trkpt lat="43.4729344" lon="10.6671406"><ele>180.0</ele><time>2026-04-18T15:43:46.165Z</time></trkpt><trkpt lat="43.4728758" lon="10.66703"><ele>180.0</ele><time>2026-04-18T15:43:48.191Z</time></trkpt><trkpt lat="43.4727839" lon="10.6669337"><ele>180.0</ele><time>2026-04-18T15:43:50.168Z</time></trkpt><trkpt lat="43.4727264" lon="10.6668792"><ele>181.4</ele><time>2026-04-18T15:43:51.187Z</time></trkpt><trkpt lat="43.4726474" lon="10.6668303"><ele>182.8</ele><time>2026-04-18T15:43:52.172Z</time></trkpt><trkpt lat="43.4725564" lon="10.6667633"><ele>184.2</ele><time>2026-04-18T15:43:53.181Z</time></trkpt><trkpt lat="43.4724595" lon="10.666694"><ele>185.6</ele><time>2026-04-18T15:43:54.174Z</time></trkpt><trkpt lat="43.4723637" lon="10.6666211"><ele>187.0</ele><time>2026-04-18T15:43:55.169Z</time></trkpt><trkpt lat="43.4722642" lon="10.666543"><ele>187.0</ele><time>2026-04-18T15:43:56.17Z</time></trkpt><trkpt lat="43.4721607" lon="10.6664606"><ele>187.0</ele><time>2026-04-18T15:43:57.187Z</time></trkpt><trkpt lat="43.4720649" lon="10.6663851"><ele>187.0</ele><time>2026-04-18T15:43:58.167Z</time></trkpt><trkpt lat="43.4719705" lon="10.6663137"><ele>187.0</ele><time>2026-04-18T15:43:59.181Z</time></trkpt><trkpt lat="43.4718718" lon="10.6662444"><ele>187.0</ele><time>2026-04-18T15:44:00.169Z</time></trkpt><trkpt lat="43.4717738" lon="10.6661704"><ele>188.25</ele><time>2026-04-18T15:44:01.174Z</time></trkpt><trkpt lat="43.4716773" lon="10.6660863"><ele>189.5</ele><time>2026-04-18T15:44:02.168Z</time></trkpt><trkpt lat="43.4715754" lon="10.6660003"><ele>190.75</ele><time>2026-04-18T15:44:03.179Z</time></trkpt><trkpt lat="43.471474" lon="10.6659172"><ele>192.0</ele><time>2026-04-18T15:44:04.166Z</time></trkpt><trkpt lat="43.4713732" lon="10.6658383"><ele>192.0</ele><time>2026-04-18T15:44:05.175Z</time></trkpt><trkpt lat="43.4712764" lon="10.6657646"><ele>192.0</ele><time>2026-04-18T15:44:06.17Z</time></trkpt><trkpt lat="43.4711817" lon="10.665692"><ele>192.0</ele><time>2026-04-18T15:44:07.174Z</time></trkpt><trkpt lat="43.4710847" lon="10.6656125"><ele>192.0</ele><time>2026-04-18T15:44:08.185Z</time></trkpt><trkpt lat="43.4709941" lon="10.6655327"><ele>192.0</ele><time>2026-04-18T15:44:09.177Z</time></trkpt><trkpt lat="43.4709113" lon="10.6654607"><ele>192.33333333333334</ele><time>2026-04-18T15:44:10.18Z</time></trkpt><trkpt lat="43.4708405" lon="10.6654043"><ele>192.66666666666669</ele><time>2026-04-18T15:44:11.194Z</time></trkpt><trkpt lat="43.4707787" lon="10.6653489"><ele>193.0</ele><time>2026-04-18T15:44:12.176Z</time></trkpt><trkpt lat="43.470721" lon="10.6652965"><ele>193.33333333333334</ele><time>2026-04-18T15:44:13.17Z</time></trkpt><trkpt lat="43.4706658" lon="10.665238"><ele>193.66666666666669</ele><time>2026-04-18T15:44:14.187Z</time></trkpt><trkpt lat="43.470587" lon="10.6651266"><ele>194.0</ele><time>2026-04-18T15:44:16.193Z</time></trkpt><trkpt lat="43.4705166" lon="10.6650028"><ele>195.16666666666669</ele><time>2026-04-18T15:44:18.171Z</time></trkpt><trkpt lat="43.4704502" lon="10.6648617"><ele>196.33333333333334</ele><time>2026-04-18T15:44:20.171Z</time></trkpt><trkpt lat="43.4704116" lon="10.6647886"><ele>197.5</ele><time>2026-04-18T15:44:21.17Z</time></trkpt><trkpt lat="43.470344" lon="10.664655"><ele>198.66666666666669</ele><time>2026-04-18T15:44:23.179Z</time></trkpt><trkpt lat="43.470307" lon="10.6645755"><ele>199.83333333333334</ele><time>2026-04-18T15:44:24.17Z</time></trkpt><trkpt lat="43.4702714" lon="10.6644932"><ele>201.0</ele><time>2026-04-18T15:44:25.178Z</time></trkpt><trkpt lat="43.4702315" lon="10.664406"><ele>203.57142857142856</ele><time>2026-04-18T15:44:26.17Z</time></trkpt><trkpt lat="43.4702015" lon="10.6643175"><ele>206.14285714285717</ele><time>2026-04-18T15:44:27.178Z</time></trkpt><trkpt lat="43.4701919" lon="10.664224"><ele>208.71428571428572</ele><time>2026-04-18T15:44:28.164Z</time></trkpt><trkpt lat="43.4702216" lon="10.6641183"><ele>211.28571428571428</ele><time>2026-04-18T15:44:29.171Z</time></trkpt><trkpt lat="43.4702362" lon="10.6640175"><ele>213.85714285714283</ele><time>2026-04-18T15:44:30.176Z</time></trkpt><trkpt lat="43.4702475" lon="10.6639183"><ele>216.42857142857144</ele><time>2026-04-18T15:44:31.182Z</time></trkpt><trkpt lat="43.4702701" lon="10.6638307"><ele>219.0</ele><time>2026-04-18T15:44:32.156Z</time></trkpt><trkpt lat="43.4702883" lon="10.6637459"><ele>219.0</ele><time>2026-04-18T15:44:33.185Z</time></trkpt><trkpt lat="43.4702994" lon="10.6636583"><ele>219.0</ele><time>2026-04-18T15:44:34.161Z</time></trkpt><trkpt lat="43.4703038" lon="10.6635641"><ele>219.0</ele><time>2026-04-18T15:44:35.183Z</time></trkpt><trkpt lat="43.4703043" lon="10.6634658"><ele>219.0</ele><time>2026-04-18T15:44:36.174Z</time></trkpt><trkpt lat="43.4702955" lon="10.6633677"><ele>219.0</ele><time>2026-04-18T15:44:37.182Z</time></trkpt><trkpt lat="43.4702788" lon="10.6632669"><ele>219.0</ele><time>2026-04-18T15:44:38.169Z</time></trkpt><trkpt lat="43.4702499" lon="10.6631772"><ele>219.0</ele><time>2026-04-18T15:44:39.198Z</time></trkpt><trkpt lat="43.4702056" lon="10.6631007"><ele>219.83333333333334</ele><time>2026-04-18T15:44:40.173Z</time></trkpt><trkpt lat="43.4701388" lon="10.6630328"><ele>220.66666666666669</ele><time>2026-04-18T15:44:41.179Z</time></trkpt><trkpt lat="43.4700779" lon="10.6629727"><ele>221.5</ele><time>2026-04-18T15:44:42.175Z</time></trkpt><trkpt lat="43.4700211" lon="10.6629127"><ele>222.33333333333334</ele><time>2026-04-18T15:44:43.171Z</time></trkpt><trkpt lat="43.4699635" lon="10.6628448"><ele>223.16666666666669</ele><time>2026-04-18T15:44:44.174Z</time></trkpt><trkpt lat="43.469909" lon="10.6627743"><ele>224.0</ele><time>2026-04-18T15:44:45.185Z</time></trkpt><trkpt lat="43.4698478" lon="10.6626997"><ele>224.79999999999998</ele><time>2026-04-18T15:44:46.175Z</time></trkpt><trkpt lat="43.4697819" lon="10.6626318"><ele>225.59999999999997</ele><time>2026-04-18T15:44:47.186Z</time></trkpt><trkpt lat="43.4697095" lon="10.6625475"><ele>226.4</ele><time>2026-04-18T15:44:48.177Z</time></trkpt><trkpt lat="43.4696283" lon="10.6624433"><ele>227.2</ele><time>2026-04-18T15:44:49.177Z</time></trkpt><trkpt lat="43.4695459" lon="10.6623438"><ele>228.0</ele><time>2026-04-18T15:44:50.187Z</time></trkpt><trkpt lat="43.4694639" lon="10.662254"><ele>229.2</ele><time>2026-04-18T15:44:51.17Z</time></trkpt><trkpt lat="43.4693845" lon="10.6621553"><ele>230.4</ele><time>2026-04-18T15:44:52.179Z</time></trkpt><trkpt lat="43.4693111" lon="10.6620534"><ele>231.59999999999997</ele><time>2026-04-18T15:44:53.183Z</time></trkpt><trkpt lat="43.4692428" lon="10.6619437"><ele>232.79999999999998</ele><time>2026-04-18T15:44:54.174Z</time></trkpt><trkpt lat="43.4691758" lon="10.6618168"><ele>234.0</ele><time>2026-04-18T15:44:55.187Z</time></trkpt><trkpt lat="43.4691101" lon="10.6616564"><ele>234.0</ele><time>2026-04-18T15:44:56.163Z</time></trkpt><trkpt lat="43.4690405" lon="10.6614891"><ele>234.0</ele><time>2026-04-18T15:44:57.17Z</time></trkpt><trkpt lat="43.4689672" lon="10.6613208"><ele>234.0</ele><time>2026-04-18T15:44:58.182Z</time></trkpt><trkpt lat="43.4688938" lon="10.6611519"><ele>234.0</ele><time>2026-04-18T15:44:59.178Z</time></trkpt><trkpt lat="43.4688302" lon="10.6610009"><ele>234.39999999999998</ele><time>2026-04-18T15:45:00.166Z</time></trkpt><trkpt lat="43.4687749" lon="10.6608681"><ele>234.79999999999998</ele><time>2026-04-18T15:45:01.178Z</time></trkpt><trkpt lat="43.4687106" lon="10.6607581"><ele>235.20000000000002</ele><time>2026-04-18T15:45:02.174Z</time></trkpt><trkpt lat="43.4686612" lon="10.6606635"><ele>235.60000000000002</ele><time>2026-04-18T15:45:03.171Z</time></trkpt><trkpt lat="43.468602" lon="10.6605709"><ele>236.0</ele><time>2026-04-18T15:45:04.181Z</time></trkpt><trkpt lat="43.4685503" lon="10.6604773"><ele>236.0</ele><time>2026-04-18T15:45:05.18Z</time></trkpt><trkpt lat="43.4684906" lon="10.6603952"><ele>236.00000000000003</ele><time>2026-04-18T15:45:06.18Z</time></trkpt><trkpt lat="43.4684313" lon="10.6602897"><ele>236.00000000000003</ele><time>2026-04-18T15:45:07.179Z</time></trkpt><trkpt lat="43.4683714" lon="10.6601953"><ele>236.0</ele><time>2026-04-18T15:45:08.18Z</time></trkpt><trkpt lat="43.4683097" lon="10.6600968"><ele>236.0</ele><time>2026-04-18T15:45:09.176Z</time></trkpt><trkpt lat="43.468255" lon="10.6600079"><ele>237.33333333333334</ele><time>2026-04-18T15:45:10.171Z</time></trkpt><trkpt lat="43.4681948" lon="10.6599216"><ele>238.66666666666669</ele><time>2026-04-18T15:45:11.178Z</time></trkpt><trkpt lat="43.4681377" lon="10.6598396"><ele>240.0</ele><time>2026-04-18T15:45:12.179Z</time></trkpt><trkpt lat="43.4680816" lon="10.6597619"><ele>241.33333333333331</ele><time>2026-04-18T15:45:13.191Z</time></trkpt><trkpt lat="43.4680267" lon="10.6596853"><ele>242.66666666666666</ele><time>2026-04-18T15:45:14.18Z</time></trkpt><trkpt lat="43.4679663" lon="10.6596128"><ele>244.0</ele><time>2026-04-18T15:45:15.181Z</time></trkpt><trkpt lat="43.4679192" lon="10.6595429"><ele>244.1428571428571</ele><time>2026-04-18T15:45:16.18Z</time></trkpt><trkpt lat="43.4678691" lon="10.6594769"><ele>244.28571428571428</ele><time>2026-04-18T15:45:17.19Z</time></trkpt><trkpt lat="43.4678204" lon="10.6594123"><ele>244.42857142857142</ele><time>2026-04-18T15:45:18.176Z</time></trkpt><trkpt lat="43.4677705" lon="10.6593487"><ele>244.57142857142856</ele><time>2026-04-18T15:45:19.18Z</time></trkpt><trkpt lat="43.4677235" lon="10.6592906"><ele>244.71428571428572</ele><time>2026-04-18T15:45:20.184Z</time></trkpt><trkpt lat="43.4676599" lon="10.6592074"><ele>244.85714285714286</ele><time>2026-04-18T15:45:22.181Z</time></trkpt><trkpt lat="43.4675933" lon="10.659129"><ele>245.0</ele><time>2026-04-18T15:45:25.177Z</time></trkpt><trkpt lat="43.4675376" lon="10.6590394"><ele>247.00000000000003</ele><time>2026-04-18T15:45:27.177Z</time></trkpt><trkpt lat="43.4674576" lon="10.6589338"><ele>249.0</ele><time>2026-04-18T15:45:29.189Z</time></trkpt><trkpt lat="43.4673592" lon="10.6588266"><ele>251.0</ele><time>2026-04-18T15:45:31.193Z</time></trkpt><trkpt lat="43.4673035" lon="10.6587747"><ele>253.0</ele><time>2026-04-18T15:45:32.175Z</time></trkpt><trkpt lat="43.4672499" lon="10.6587195"><ele>255.00000000000003</ele><time>2026-04-18T15:45:33.183Z</time></trkpt><trkpt lat="43.4671937" lon="10.658661"><ele>257.0</ele><time>2026-04-18T15:45:34.174Z</time></trkpt><trkpt lat="43.467137" lon="10.6586016"><ele>258.85714285714283</ele><time>2026-04-18T15:45:35.179Z</time></trkpt><trkpt lat="43.4670857" lon="10.65855"><ele>260.7142857142857</ele><time>2026-04-18T15:45:36.175Z</time></trkpt><trkpt lat="43.4670309" lon="10.6584883"><ele>262.57142857142856</ele><time>2026-04-18T15:45:37.179Z</time></trkpt><trkpt lat="43.466973" lon="10.6584251"><ele>264.42857142857144</ele><time>2026-04-18T15:45:38.167Z</time></trkpt><trkpt lat="43.4669155" lon="10.6583701"><ele>266.2857142857143</ele><time>2026-04-18T15:45:39.179Z</time></trkpt><trkpt lat="43.4668628" lon="10.6583173"><ele>268.1428571428571</ele><time>2026-04-18T15:45:40.177Z</time></trkpt><trkpt lat="43.466806" lon="10.6582635"><ele>270.0</ele><time>2026-04-18T15:45:41.186Z</time></trkpt><trkpt lat="43.4667518" lon="10.6582079"><ele>270.0</ele><time>2026-04-18T15:45:42.173Z</time></trkpt><trkpt lat="43.4666897" lon="10.6581418"><ele>270.0</ele><time>2026-04-18T15:45:44.198Z</time></trkpt><trkpt lat="43.4666362" lon="10.6580758"><ele>270.0</ele><time>2026-04-18T15:45:48.184Z</time></trkpt><trkpt lat="43.4665795" lon="10.6579993"><ele>270.0</ele><time>2026-04-18T15:45:52.175Z</time></trkpt><trkpt lat="43.4665146" lon="10.6579214"><ele>270.0</ele><time>2026-04-18T15:45:55.174Z</time></trkpt><trkpt lat="43.4664472" lon="10.6578487"><ele>270.0</ele><time>2026-04-18T15:45:58.178Z</time></trkpt><trkpt lat="43.4663923" lon="10.6577788"><ele>270.8</ele><time>2026-04-18T15:46:00.184Z</time></trkpt><trkpt lat="43.4663441" lon="10.657703"><ele>271.6</ele><time>2026-04-18T15:46:02.174Z</time></trkpt><trkpt lat="43.4662817" lon="10.6576076"><ele>272.4</ele><time>2026-04-18T15:46:04.178Z</time></trkpt><trkpt lat="43.4662383" lon="10.6574822"><ele>273.2</ele><time>2026-04-18T15:46:06.184Z</time></trkpt><trkpt lat="43.4661928" lon="10.6573413"><ele>274.0</ele><time>2026-04-18T15:46:08.189Z</time></trkpt><trkpt lat="43.466163" lon="10.6571883"><ele>274.4</ele><time>2026-04-18T15:46:10.172Z</time></trkpt><trkpt lat="43.4661237" lon="10.6570497"><ele>274.79999999999995</ele><time>2026-04-18T15:46:12.17Z</time></trkpt><trkpt lat="43.4660914" lon="10.6569137"><ele>275.20000000000005</ele><time>2026-04-18T15:46:14.173Z</time></trkpt><trkpt lat="43.4660614" lon="10.6567905"><ele>275.6</ele><time>2026-04-18T15:46:16.182Z</time></trkpt><trkpt lat="43.466029" lon="10.656662"><ele>276.0</ele><time>2026-04-18T15:46:18.186Z</time></trkpt><trkpt lat="43.4659988" lon="10.6565142"><ele>277.0</ele><time>2026-04-18T15:46:20.185Z</time></trkpt><trkpt lat="43.4659566" lon="10.6563652"><ele>278.0</ele><time>2026-04-18T15:46:22.17Z</time></trkpt><trkpt lat="43.4659309" lon="10.6562293"><ele>279.0</ele><time>2026-04-18T15:46:24.177Z</time></trkpt><trkpt lat="43.4658856" lon="10.6560893"><ele>280.0</ele><time>2026-04-18T15:46:26.18Z</time></trkpt><trkpt lat="43.4658435" lon="10.6559416"><ele>281.0</ele><time>2026-04-18T15:46:28.17Z</time></trkpt><trkpt lat="43.4658071" lon="10.6557915"><ele>282.0</ele><time>2026-04-18T15:46:30.185Z</time></trkpt><trkpt lat="43.4657717" lon="10.6556316"><ele>283.0</ele><time>2026-04-18T15:46:32.188Z</time></trkpt><trkpt lat="43.4657531" lon="10.6555466"><ele>284.0</ele><time>2026-04-18T15:46:33.18Z</time></trkpt><trkpt lat="43.4657079" lon="10.6553901"><ele>285.0</ele><time>2026-04-18T15:46:35.179Z</time></trkpt><trkpt lat="43.4656936" lon="10.6553034"><ele>286.0</ele><time>2026-04-18T15:46:36.176Z</time></trkpt><trkpt lat="43.4656746" lon="10.655217"><ele>287.0</ele><time>2026-04-18T15:46:37.178Z</time></trkpt><trkpt lat="43.4656359" lon="10.6550618"><ele>287.6666666666667</ele><time>2026-04-18T15:46:39.18Z</time></trkpt><trkpt lat="43.4656099" lon="10.6549016"><ele>288.33333333333337</ele><time>2026-04-18T15:46:41.182Z</time></trkpt><trkpt lat="43.4655661" lon="10.6547373"><ele>289.0</ele><time>2026-04-18T15:46:43.177Z</time></trkpt><trkpt lat="43.4655472" lon="10.6546536"><ele>289.6666666666667</ele><time>2026-04-18T15:46:44.178Z</time></trkpt><trkpt lat="43.4655254" lon="10.6545716"><ele>290.3333333333333</ele><time>2026-04-18T15:46:45.185Z</time></trkpt><trkpt lat="43.4655112" lon="10.6544827"><ele>291.0</ele><time>2026-04-18T15:46:46.177Z</time></trkpt><trkpt lat="43.4654923" lon="10.6543934"><ele>291.57142857142856</ele><time>2026-04-18T15:46:47.175Z</time></trkpt><trkpt lat="43.4654726" lon="10.6542972"><ele>292.1428571428571</ele><time>2026-04-18T15:46:48.162Z</time></trkpt><trkpt lat="43.465449" lon="10.654201"><ele>292.7142857142857</ele><time>2026-04-18T15:46:49.184Z</time></trkpt><trkpt lat="43.4654271" lon="10.6541035"><ele>293.2857142857143</ele><time>2026-04-18T15:46:50.188Z</time></trkpt><trkpt lat="43.4654059" lon="10.6539988"><ele>293.8571428571429</ele><time>2026-04-18T15:46:51.187Z</time></trkpt><trkpt lat="43.4653848" lon="10.6539019"><ele>294.42857142857144</ele><time>2026-04-18T15:46:52.17Z</time></trkpt><trkpt lat="43.4653659" lon="10.6538054"><ele>295.0</ele><time>2026-04-18T15:46:53.179Z</time></trkpt><trkpt lat="43.4653413" lon="10.6537018"><ele>296.0</ele><time>2026-04-18T15:46:54.18Z</time></trkpt><trkpt lat="43.4653145" lon="10.6535902"><ele>297.0</ele><time>2026-04-18T15:46:55.171Z</time></trkpt><trkpt lat="43.4652928" lon="10.6534845"><ele>298.0</ele><time>2026-04-18T15:46:56.167Z</time></trkpt><trkpt lat="43.4652759" lon="10.6533848"><ele>299.0</ele><time>2026-04-18T15:46:57.179Z</time></trkpt><trkpt lat="43.4652501" lon="10.6532832"><ele>300.0</ele><time>2026-04-18T15:46:58.18Z</time></trkpt><trkpt lat="43.4652329" lon="10.6531727"><ele>301.0</ele><time>2026-04-18T15:46:59.185Z</time></trkpt><trkpt lat="43.4652053" lon="10.6530662"><ele>301.0</ele><time>2026-04-18T15:47:00.18Z</time></trkpt><trkpt lat="43.465174" lon="10.6529644"><ele>301.0</ele><time>2026-04-18T15:47:01.167Z</time></trkpt><trkpt lat="43.4651418" lon="10.6528658"><ele>301.0</ele><time>2026-04-18T15:47:02.166Z</time></trkpt><trkpt lat="43.4651156" lon="10.6527712"><ele>301.0</ele><time>2026-04-18T15:47:03.169Z</time></trkpt><trkpt lat="43.4650994" lon="10.652673"><ele>301.0</ele><time>2026-04-18T15:47:04.185Z</time></trkpt><trkpt lat="43.4650937" lon="10.6525655"><ele>301.0</ele><time>2026-04-18T15:47:05.176Z</time></trkpt><trkpt lat="43.465099" lon="10.6524555"><ele>301.5</ele><time>2026-04-18T15:47:06.172Z</time></trkpt><trkpt lat="43.465104" lon="10.6523428"><ele>302.0</ele><time>2026-04-18T15:47:07.186Z</time></trkpt><trkpt lat="43.4651223" lon="10.6522297"><ele>302.5</ele><time>2026-04-18T15:47:08.179Z</time></trkpt><trkpt lat="43.4651446" lon="10.6521134"><ele>303.0</ele><time>2026-04-18T15:47:09.177Z</time></trkpt><trkpt lat="43.4651657" lon="10.6520007"><ele>303.5</ele><time>2026-04-18T15:47:10.168Z</time></trkpt><trkpt lat="43.4651842" lon="10.6518964"><ele>304.0</ele><time>2026-04-18T15:47:11.179Z</time></trkpt><trkpt lat="43.4652059" lon="10.6518093"><ele>304.3333333333333</ele><time>2026-04-18T15:47:12.184Z</time></trkpt><trkpt lat="43.4652232" lon="10.6517178"><ele>304.66666666666663</ele><time>2026-04-18T15:47:13.178Z</time></trkpt><trkpt lat="43.4652406" lon="10.6516145"><ele>305.0</ele><time>2026-04-18T15:47:14.172Z</time></trkpt><trkpt lat="43.465255" lon="10.6515046"><ele>305.3333333333333</ele><time>2026-04-18T15:47:15.187Z</time></trkpt><trkpt lat="43.4652649" lon="10.6514004"><ele>305.6666666666667</ele><time>2026-04-18T15:47:16.186Z</time></trkpt><trkpt lat="43.465276" lon="10.6512889"><ele>306.0</ele><time>2026-04-18T15:47:17.186Z</time></trkpt><trkpt lat="43.4652817" lon="10.6511825"><ele>306.3333333333333</ele><time>2026-04-18T15:47:18.179Z</time></trkpt><trkpt lat="43.4652937" lon="10.6510694"><ele>306.6666666666667</ele><time>2026-04-18T15:47:19.18Z</time></trkpt><trkpt lat="43.4653061" lon="10.650958"><ele>307.0</ele><time>2026-04-18T15:47:20.187Z</time></trkpt><trkpt lat="43.4653208" lon="10.6508478"><ele>307.33333333333337</ele><time>2026-04-18T15:47:21.185Z</time></trkpt><trkpt lat="43.4653345" lon="10.6507455"><ele>307.6666666666667</ele><time>2026-04-18T15:47:22.17Z</time></trkpt><trkpt lat="43.4653431" lon="10.6506417"><ele>308.0</ele><time>2026-04-18T15:47:23.183Z</time></trkpt><trkpt lat="43.4653489" lon="10.6505501"><ele>308.0</ele><time>2026-04-18T15:47:24.181Z</time></trkpt><trkpt lat="43.4653561" lon="10.6504584"><ele>308.0</ele><time>2026-04-18T15:47:25.177Z</time></trkpt><trkpt lat="43.4653608" lon="10.650369"><ele>308.0</ele><time>2026-04-18T15:47:26.167Z</time></trkpt><trkpt lat="43.465363" lon="10.6502819"><ele>308.0</ele><time>2026-04-18T15:47:27.182Z</time></trkpt><trkpt lat="43.4653925" lon="10.6501149"><ele>308.0</ele><time>2026-04-18T15:47:29.175Z</time></trkpt><trkpt lat="43.4654396" lon="10.6499747"><ele>308.0</ele><time>2026-04-18T15:47:31.183Z</time></trkpt><trkpt lat="43.4654697" lon="10.6498511"><ele>307.85714285714283</ele><time>2026-04-18T15:47:33.183Z</time></trkpt><trkpt lat="43.4654952" lon="10.6497538"><ele>307.7142857142857</ele><time>2026-04-18T15:47:35.189Z</time></trkpt><trkpt lat="43.4655149" lon="10.6496701"><ele>307.57142857142856</ele><time>2026-04-18T15:47:37.179Z</time></trkpt><trkpt lat="43.465534" lon="10.6495706"><ele>307.42857142857144</ele><time>2026-04-18T15:47:41.181Z</time></trkpt><trkpt lat="43.4655745" lon="10.6494835"><ele>307.2857142857143</ele><time>2026-04-18T15:47:44.164Z</time></trkpt><trkpt lat="43.4655975" lon="10.6493916"><ele>307.1428571428571</ele><time>2026-04-18T15:47:46.193Z</time></trkpt><trkpt lat="43.4656201" lon="10.6492791"><ele>307.0</ele><time>2026-04-18T15:47:48.171Z</time></trkpt><trkpt lat="43.465635" lon="10.6491764"><ele>306.99999999999994</ele><time>2026-04-18T15:47:50.168Z</time></trkpt><trkpt lat="43.4656606" lon="10.6490703"><ele>307.0</ele><time>2026-04-18T15:47:52.176Z</time></trkpt><trkpt lat="43.4656903" lon="10.6489867"><ele>307.0</ele><time>2026-04-18T15:47:54.18Z</time></trkpt><trkpt lat="43.4657071" lon="10.6489006"><ele>307.0</ele><time>2026-04-18T15:47:56.176Z</time></trkpt><trkpt lat="43.4657221" lon="10.6488098"><ele>307.0</ele><time>2026-04-18T15:47:58.166Z</time></trkpt><trkpt lat="43.4657453" lon="10.6487186"><ele>306.99999999999994</ele><time>2026-04-18T15:48:00.185Z</time></trkpt><trkpt lat="43.4657681" lon="10.6486348"><ele>307.0</ele><time>2026-04-18T15:48:02.168Z</time></trkpt><trkpt lat="43.4657886" lon="10.6485411"><ele>305.0</ele><time>2026-04-18T15:48:04.175Z</time></trkpt><trkpt lat="43.4657967" lon="10.6484451"><ele>303.0</ele><time>2026-04-18T15:48:06.16Z</time></trkpt><trkpt lat="43.4658158" lon="10.6483415"><ele>301.0</ele><time>2026-04-18T15:48:08.176Z</time></trkpt><trkpt lat="43.4658257" lon="10.6482433"><ele>299.0</ele><time>2026-04-18T15:48:10.169Z</time></trkpt><trkpt lat="43.4658401" lon="10.6481126"><ele>297.0</ele><time>2026-04-18T15:48:13.185Z</time></trkpt><trkpt lat="43.4658677" lon="10.6479619"><ele>295.0</ele><time>2026-04-18T15:48:15.18Z</time></trkpt><trkpt lat="43.4658855" lon="10.6478122"><ele>293.25</ele><time>2026-04-18T15:48:16.164Z</time></trkpt><trkpt lat="43.4659035" lon="10.6476485"><ele>291.5</ele><time>2026-04-18T15:48:17.178Z</time></trkpt><trkpt lat="43.4659256" lon="10.6474745"><ele>289.75</ele><time>2026-04-18T15:48:18.167Z</time></trkpt><trkpt lat="43.4659376" lon="10.6472974"><ele>288.0</ele><time>2026-04-18T15:48:19.177Z</time></trkpt><trkpt lat="43.4659518" lon="10.6471376"><ele>288.0</ele><time>2026-04-18T15:48:20.165Z</time></trkpt><trkpt lat="43.4659597" lon="10.6469658"><ele>288.0</ele><time>2026-04-18T15:48:21.174Z</time></trkpt><trkpt lat="43.4659747" lon="10.6468068"><ele>288.0</ele><time>2026-04-18T15:48:22.182Z</time></trkpt><trkpt lat="43.4659919" lon="10.6466482"><ele>288.0</ele><time>2026-04-18T15:48:23.178Z</time></trkpt><trkpt lat="43.466019" lon="10.6464888"><ele>288.0</ele><time>2026-04-18T15:48:24.18Z</time></trkpt><trkpt lat="43.4660434" lon="10.6463268"><ele>288.0</ele><time>2026-04-18T15:48:25.184Z</time></trkpt><trkpt lat="43.4660732" lon="10.6461487"><ele>288.0</ele><time>2026-04-18T15:48:26.174Z</time></trkpt><trkpt lat="43.4661062" lon="10.6459615"><ele>288.0</ele><time>2026-04-18T15:48:27.173Z</time></trkpt><trkpt lat="43.4661457" lon="10.6457671"><ele>288.0</ele><time>2026-04-18T15:48:28.171Z</time></trkpt><trkpt lat="43.4661864" lon="10.6455691"><ele>288.0</ele><time>2026-04-18T15:48:29.176Z</time></trkpt><trkpt lat="43.4662231" lon="10.645379"><ele>288.0</ele><time>2026-04-18T15:48:30.166Z</time></trkpt><trkpt lat="43.4662525" lon="10.6452106"><ele>288.0</ele><time>2026-04-18T15:48:31.173Z</time></trkpt><trkpt lat="43.4662808" lon="10.6450397"><ele>289.25</ele><time>2026-04-18T15:48:32.174Z</time></trkpt><trkpt lat="43.4663107" lon="10.6448898"><ele>290.5</ele><time>2026-04-18T15:48:33.178Z</time></trkpt><trkpt lat="43.4663496" lon="10.6447351"><ele>291.75</ele><time>2026-04-18T15:48:34.176Z</time></trkpt><trkpt lat="43.4663979" lon="10.6445867"><ele>293.0</ele><time>2026-04-18T15:48:35.179Z</time></trkpt><trkpt lat="43.4664467" lon="10.6444194"><ele>294.0</ele><time>2026-04-18T15:48:36.174Z</time></trkpt><trkpt lat="43.4664982" lon="10.6442621"><ele>295.0</ele><time>2026-04-18T15:48:37.176Z</time></trkpt><trkpt lat="43.4665511" lon="10.644113"><ele>296.0</ele><time>2026-04-18T15:48:38.182Z</time></trkpt><trkpt lat="43.4665962" lon="10.6439769"><ele>297.0</ele><time>2026-04-18T15:48:39.183Z</time></trkpt><trkpt lat="43.466641" lon="10.6438598"><ele>297.0</ele><time>2026-04-18T15:48:40.173Z</time></trkpt><trkpt lat="43.4666815" lon="10.6437504"><ele>297.0</ele><time>2026-04-18T15:48:41.183Z</time></trkpt><trkpt lat="43.4667223" lon="10.6436478"><ele>297.0</ele><time>2026-04-18T15:48:42.186Z</time></trkpt><trkpt lat="43.4667668" lon="10.6435394"><ele>297.0</ele><time>2026-04-18T15:48:43.172Z</time></trkpt><trkpt lat="43.4668147" lon="10.6434361"><ele>297.0</ele><time>2026-04-18T15:48:44.17Z</time></trkpt><trkpt lat="43.4668583" lon="10.6433372"><ele>297.0</ele><time>2026-04-18T15:48:45.175Z</time></trkpt><trkpt lat="43.4668943" lon="10.6432429"><ele>297.8333333333333</ele><time>2026-04-18T15:48:46.175Z</time></trkpt><trkpt lat="43.4669279" lon="10.6431402"><ele>298.6666666666667</ele><time>2026-04-18T15:48:47.185Z</time></trkpt><trkpt lat="43.4669474" lon="10.6430424"><ele>299.5</ele><time>2026-04-18T15:48:48.175Z</time></trkpt><trkpt lat="43.4669571" lon="10.6429557"><ele>300.33333333333337</ele><time>2026-04-18T15:48:49.182Z</time></trkpt><trkpt lat="43.4669459" lon="10.6428055"><ele>301.1666666666667</ele><time>2026-04-18T15:48:51.18Z</time></trkpt><trkpt lat="43.4669435" lon="10.6426773"><ele>302.0</ele><time>2026-04-18T15:48:53.19Z</time></trkpt><trkpt lat="43.4670022" lon="10.6425763"><ele>303.0</ele><time>2026-04-18T15:48:55.194Z</time></trkpt><trkpt lat="43.4670922" lon="10.642474"><ele>304.0</ele><time>2026-04-18T15:48:57.182Z</time></trkpt><trkpt lat="43.4671458" lon="10.642408"><ele>305.0</ele><time>2026-04-18T15:48:58.165Z</time></trkpt><trkpt lat="43.4671854" lon="10.6423315"><ele>306.0</ele><time>2026-04-18T15:48:59.177Z</time></trkpt><trkpt lat="43.4672281" lon="10.6422607"><ele>307.0</ele><time>2026-04-18T15:49:00.181Z</time></trkpt><trkpt lat="43.4672638" lon="10.6421882"><ele>308.0</ele><time>2026-04-18T15:49:01.175Z</time></trkpt><trkpt lat="43.4673361" lon="10.6420581"><ele>309.83333333333337</ele><time>2026-04-18T15:49:03.165Z</time></trkpt><trkpt lat="43.4673997" lon="10.6419488"><ele>311.6666666666667</ele><time>2026-04-18T15:49:05.183Z</time></trkpt><trkpt lat="43.4674394" lon="10.6418453"><ele>313.5</ele><time>2026-04-18T15:49:07.178Z</time></trkpt><trkpt lat="43.4674585" lon="10.6417459"><ele>315.3333333333333</ele><time>2026-04-18T15:49:09.181Z</time></trkpt><trkpt lat="43.4674884" lon="10.6416499"><ele>317.16666666666663</ele><time>2026-04-18T15:49:11.178Z</time></trkpt><trkpt lat="43.4675182" lon="10.6415559"><ele>319.0</ele><time>2026-04-18T15:49:13.171Z</time></trkpt><trkpt lat="43.467557" lon="10.641482"><ele>319.0</ele><time>2026-04-18T15:49:15.179Z</time></trkpt><trkpt lat="43.4676058" lon="10.6413678"><ele>319.0</ele><time>2026-04-18T15:49:18.184Z</time></trkpt><trkpt lat="43.4676668" lon="10.6412522"><ele>319.0</ele><time>2026-04-18T15:49:20.18Z</time></trkpt><trkpt lat="43.467715" lon="10.6411263"><ele>319.0</ele><time>2026-04-18T15:49:22.192Z</time></trkpt><trkpt lat="43.4677564" lon="10.6409913"><ele>319.0</ele><time>2026-04-18T15:49:24.184Z</time></trkpt><trkpt lat="43.4677887" lon="10.6408913"><ele>320.0</ele><time>2026-04-18T15:49:26.187Z</time></trkpt><trkpt lat="43.4678345" lon="10.6407847"><ele>321.0</ele><time>2026-04-18T15:49:28.185Z</time></trkpt><trkpt lat="43.4678865" lon="10.6406564"><ele>322.0</ele><time>2026-04-18T15:49:30.179Z</time></trkpt><trkpt lat="43.4679485" lon="10.6405097"><ele>323.0</ele><time>2026-04-18T15:49:32.155Z</time></trkpt><trkpt lat="43.4679999" lon="10.6403728"><ele>324.0</ele><time>2026-04-18T15:49:34.177Z</time></trkpt><trkpt lat="43.4680549" lon="10.6402551"><ele>325.6</ele><time>2026-04-18T15:49:36.178Z</time></trkpt><trkpt lat="43.4681179" lon="10.6401698"><ele>327.2</ele><time>2026-04-18T15:49:38.175Z</time></trkpt><trkpt lat="43.4681895" lon="10.6400911"><ele>328.8</ele><time>2026-04-18T15:49:40.161Z</time></trkpt><trkpt lat="43.4682653" lon="10.6400107"><ele>330.40000000000003</ele><time>2026-04-18T15:49:42.178Z</time></trkpt><trkpt lat="43.4683544" lon="10.639944"><ele>332.0</ele><time>2026-04-18T15:49:44.163Z</time></trkpt><trkpt lat="43.4684534" lon="10.6398862"><ele>332.0</ele><time>2026-04-18T15:49:46.18Z</time></trkpt><trkpt lat="43.4685664" lon="10.6398113"><ele>332.0</ele><time>2026-04-18T15:49:48.181Z</time></trkpt><trkpt lat="43.4686527" lon="10.639734"><ele>332.0</ele><time>2026-04-18T15:49:50.167Z</time></trkpt><trkpt lat="43.4687248" lon="10.6397331"><ele>332.0</ele><time>2026-04-18T15:50:21.159Z</time></trkpt><trkpt lat="43.4688086" lon="10.6396883"><ele>332.0</ele><time>2026-04-18T15:50:24.188Z</time></trkpt><trkpt lat="43.4689116" lon="10.6396205"><ele>332.1666666666667</ele><time>2026-04-18T15:50:26.182Z</time></trkpt><trkpt lat="43.4690193" lon="10.6395158"><ele>332.33333333333337</ele><time>2026-04-18T15:50:28.18Z</time></trkpt><trkpt lat="43.4690718" lon="10.6394596"><ele>332.5</ele><time>2026-04-18T15:50:29.177Z</time></trkpt><trkpt lat="43.4691251" lon="10.6394045"><ele>332.6666666666667</ele><time>2026-04-18T15:50:30.172Z</time></trkpt><trkpt lat="43.4691753" lon="10.6393431"><ele>332.8333333333333</ele><time>2026-04-18T15:50:31.181Z</time></trkpt><trkpt lat="43.4692298" lon="10.6392717"><ele>333.0</ele><time>2026-04-18T15:50:32.173Z</time></trkpt><trkpt lat="43.4692775" lon="10.6391979"><ele>333.0</ele><time>2026-04-18T15:50:33.189Z</time></trkpt><trkpt lat="43.4693154" lon="10.6391213"><ele>333.0</ele><time>2026-04-18T15:50:34.181Z</time></trkpt><trkpt lat="43.4693441" lon="10.6390416"><ele>333.0</ele><time>2026-04-18T15:50:35.192Z</time></trkpt><trkpt lat="43.4693686" lon="10.6389601"><ele>333.0</ele><time>2026-04-18T15:50:36.183Z</time></trkpt><trkpt lat="43.4693995" lon="10.638806"><ele>333.0</ele><time>2026-04-18T15:50:38.176Z</time></trkpt><trkpt lat="43.4694222" lon="10.6387249"><ele>333.0</ele><time>2026-04-18T15:50:39.181Z</time></trkpt><trkpt lat="43.4694537" lon="10.6386491"><ele>333.0</ele><time>2026-04-18T15:50:40.165Z</time></trkpt><trkpt lat="43.4694908" lon="10.6385602"><ele>332.0</ele><time>2026-04-18T15:50:41.181Z</time></trkpt><trkpt lat="43.4695252" lon="10.6384805"><ele>331.0</ele><time>2026-04-18T15:50:42.167Z</time></trkpt><trkpt lat="43.469567" lon="10.6384034"><ele>330.0</ele><time>2026-04-18T15:50:43.175Z</time></trkpt><trkpt lat="43.4696503" lon="10.6383071"><ele>329.0</ele><time>2026-04-18T15:50:45.185Z</time></trkpt><trkpt lat="43.4697267" lon="10.6382254"><ele>328.0</ele><time>2026-04-18T15:50:47.184Z</time></trkpt><trkpt lat="43.4697862" lon="10.6381777"><ele>327.0</ele><time>2026-04-18T15:50:49.194Z</time></trkpt><trkpt lat="43.4698606" lon="10.6381385"><ele>330.0</ele><time>2026-04-18T15:51:19.182Z</time></trkpt><trkpt lat="43.4699262" lon="10.6380901"><ele>333.0</ele><time>2026-04-18T15:51:32.176Z</time></trkpt><trkpt lat="43.470005" lon="10.6380811"><ele>336.0</ele><time>2026-04-18T15:51:36.161Z</time></trkpt><trkpt lat="43.4700721" lon="10.6380455"><ele>339.0</ele><time>2026-04-18T15:51:38.159Z</time></trkpt><trkpt lat="43.4701824" lon="10.6379926"><ele>342.0</ele><time>2026-04-18T15:51:40.175Z</time></trkpt><trkpt lat="43.4702466" lon="10.6379697"><ele>345.0</ele><time>2026-04-18T15:51:41.182Z</time></trkpt><trkpt lat="43.4703087" lon="10.6379401"><ele>345.0</ele><time>2026-04-18T15:51:42.166Z</time></trkpt><trkpt lat="43.4704239" lon="10.6378673"><ele>345.0</ele><time>2026-04-18T15:51:44.17Z</time></trkpt><trkpt lat="43.4704843" lon="10.6378298"><ele>345.0</ele><time>2026-04-18T15:51:45.169Z</time></trkpt><trkpt lat="43.4705504" lon="10.6377962"><ele>345.0</ele><time>2026-04-18T15:51:46.177Z</time></trkpt><trkpt lat="43.4706114" lon="10.637753"><ele>345.0</ele><time>2026-04-18T15:51:47.164Z</time></trkpt><trkpt lat="43.470671" lon="10.6377165"><ele>345.0</ele><time>2026-04-18T15:51:48.186Z</time></trkpt><trkpt lat="43.4707801" lon="10.6376505"><ele>346.0</ele><time>2026-04-18T15:51:50.168Z</time></trkpt><trkpt lat="43.470847" lon="10.6376159"><ele>347.0</ele><time>2026-04-18T15:51:51.196Z</time></trkpt><trkpt lat="43.4709328" lon="10.6375394"><ele>348.0</ele><time>2026-04-18T15:51:53.179Z</time></trkpt><trkpt lat="43.4710295" lon="10.6374685"><ele>349.0</ele><time>2026-04-18T15:51:55.168Z</time></trkpt><trkpt lat="43.4711018" lon="10.6373647"><ele>350.0</ele><time>2026-04-18T15:51:57.19Z</time></trkpt><trkpt lat="43.4711871" lon="10.637258"><ele>350.0</ele><time>2026-04-18T15:51:59.184Z</time></trkpt><trkpt lat="43.4712454" lon="10.6372167"><ele>350.0</ele><time>2026-04-18T15:52:00.181Z</time></trkpt><trkpt lat="43.4712979" lon="10.6371652"><ele>350.0</ele><time>2026-04-18T15:52:01.18Z</time></trkpt><trkpt lat="43.4713608" lon="10.6371081"><ele>350.0</ele><time>2026-04-18T15:52:02.179Z</time></trkpt><trkpt lat="43.4714354" lon="10.6370558"><ele>350.0</ele><time>2026-04-18T15:52:03.182Z</time></trkpt><trkpt lat="43.4715105" lon="10.6370046"><ele>350.0</ele><time>2026-04-18T15:52:04.178Z</time></trkpt><trkpt lat="43.4715804" lon="10.6369593"><ele>351.0</ele><time>2026-04-18T15:52:05.171Z</time></trkpt><trkpt lat="43.4716525" lon="10.6369068"><ele>352.0</ele><time>2026-04-18T15:52:06.181Z</time></trkpt><trkpt lat="43.4717227" lon="10.6368546"><ele>353.0</ele><time>2026-04-18T15:52:07.179Z</time></trkpt><trkpt lat="43.471791" lon="10.6368046"><ele>354.0</ele><time>2026-04-18T15:52:08.177Z</time></trkpt><trkpt lat="43.471863" lon="10.6367547"><ele>355.0</ele><time>2026-04-18T15:52:09.181Z</time></trkpt><trkpt lat="43.4719349" lon="10.6367023"><ele>356.0</ele><time>2026-04-18T15:52:10.179Z</time></trkpt><trkpt lat="43.4720032" lon="10.6366494"><ele>356.0</ele><time>2026-04-18T15:52:11.172Z</time></trkpt><trkpt lat="43.4720654" lon="10.6365946"><ele>356.0</ele><time>2026-04-18T15:52:12.185Z</time></trkpt><trkpt lat="43.4721258" lon="10.6365397"><ele>356.0</ele><time>2026-04-18T15:52:13.17Z</time></trkpt><trkpt lat="43.4721834" lon="10.6364849"><ele>356.0</ele><time>2026-04-18T15:52:14.168Z</time></trkpt><trkpt lat="43.4722399" lon="10.6364323"><ele>356.0</ele><time>2026-04-18T15:52:15.164Z</time></trkpt><trkpt lat="43.4722927" lon="10.6363714"><ele>356.0</ele><time>2026-04-18T15:52:16.156Z</time></trkpt><trkpt lat="43.4723932" lon="10.6362998"><ele>355.33333333333337</ele><time>2026-04-18T15:52:18.185Z</time></trkpt><trkpt lat="43.4724594" lon="10.6362284"><ele>354.6666666666667</ele><time>2026-04-18T15:52:20.17Z</time></trkpt><trkpt lat="43.4724927" lon="10.6361522"><ele>354.0</ele><time>2026-04-18T15:52:24.166Z</time></trkpt><trkpt lat="43.4724292" lon="10.6361066"><ele>353.3333333333333</ele><time>2026-04-18T15:52:29.179Z</time></trkpt><trkpt lat="43.4723594" lon="10.6361253"><ele>352.66666666666663</ele><time>2026-04-18T15:52:31.184Z</time></trkpt><trkpt lat="43.4722536" lon="10.6361299"><ele>352.0</ele><time>2026-04-18T15:52:33.179Z</time></trkpt><trkpt lat="43.4721782" lon="10.636139"><ele>353.3333333333333</ele><time>2026-04-18T15:52:34.167Z</time></trkpt><trkpt lat="43.4720948" lon="10.6361273"><ele>354.66666666666663</ele><time>2026-04-18T15:52:35.181Z</time></trkpt><trkpt lat="43.4720161" lon="10.6360911"><ele>356.0</ele><time>2026-04-18T15:52:36.185Z</time></trkpt><trkpt lat="43.4719377" lon="10.6360389"><ele>357.3333333333333</ele><time>2026-04-18T15:52:37.171Z</time></trkpt><trkpt lat="43.4718711" lon="10.6359527"><ele>358.6666666666667</ele><time>2026-04-18T15:52:38.172Z</time></trkpt><trkpt lat="43.4718084" lon="10.6358402"><ele>360.0</ele><time>2026-04-18T15:52:39.167Z</time></trkpt><trkpt lat="43.471754" lon="10.6357099"><ele>360.0</ele><time>2026-04-18T15:52:40.174Z</time></trkpt><trkpt lat="43.4716961" lon="10.6355783"><ele>360.0</ele><time>2026-04-18T15:52:41.17Z</time></trkpt><trkpt lat="43.4716344" lon="10.6354325"><ele>360.0</ele><time>2026-04-18T15:52:42.179Z</time></trkpt><trkpt lat="43.4715704" lon="10.6352789"><ele>360.0</ele><time>2026-04-18T15:52:43.172Z</time></trkpt><trkpt lat="43.4715085" lon="10.6351256"><ele>360.75</ele><time>2026-04-18T15:52:44.175Z</time></trkpt><trkpt lat="43.4714504" lon="10.6349774"><ele>361.5</ele><time>2026-04-18T15:52:45.176Z</time></trkpt><trkpt lat="43.4714007" lon="10.6348301"><ele>362.25</ele><time>2026-04-18T15:52:46.182Z</time></trkpt><trkpt lat="43.4713491" lon="10.634664"><ele>363.0</ele><time>2026-04-18T15:52:47.181Z</time></trkpt><trkpt lat="43.4712914" lon="10.6345169"><ele>360.25</ele><time>2026-04-18T15:52:48.193Z</time></trkpt><trkpt lat="43.471229" lon="10.634359"><ele>357.5</ele><time>2026-04-18T15:52:49.177Z</time></trkpt><trkpt lat="43.4711699" lon="10.6341991"><ele>354.75</ele><time>2026-04-18T15:52:50.191Z</time></trkpt><trkpt lat="43.4711145" lon="10.634047"><ele>352.0</ele><time>2026-04-18T15:52:51.184Z</time></trkpt><trkpt lat="43.4710635" lon="10.6338884"><ele>352.0</ele><time>2026-04-18T15:52:52.182Z</time></trkpt><trkpt lat="43.4710109" lon="10.6337432"><ele>352.0</ele><time>2026-04-18T15:52:53.183Z</time></trkpt><trkpt lat="43.4709563" lon="10.6336029"><ele>352.0</ele><time>2026-04-18T15:52:54.199Z</time></trkpt><trkpt lat="43.4709099" lon="10.633472"><ele>352.0</ele><time>2026-04-18T15:52:55.178Z</time></trkpt><trkpt lat="43.470859" lon="10.6333401"><ele>352.0</ele><time>2026-04-18T15:52:56.183Z</time></trkpt><trkpt lat="43.4708124" lon="10.6332138"><ele>353.40000000000003</ele><time>2026-04-18T15:52:57.179Z</time></trkpt><trkpt lat="43.4707555" lon="10.633091"><ele>354.8</ele><time>2026-04-18T15:52:58.193Z</time></trkpt><trkpt lat="43.4706903" lon="10.6329725"><ele>356.2</ele><time>2026-04-18T15:52:59.178Z</time></trkpt><trkpt lat="43.4706154" lon="10.6328721"><ele>357.6</ele><time>2026-04-18T15:53:00.178Z</time></trkpt><trkpt lat="43.4705335" lon="10.632768"><ele>359.0</ele><time>2026-04-18T15:53:01.175Z</time></trkpt><trkpt lat="43.470444" lon="10.6326543"><ele>357.4</ele><time>2026-04-18T15:53:02.172Z</time></trkpt><trkpt lat="43.4703542" lon="10.6325452"><ele>355.79999999999995</ele><time>2026-04-18T15:53:03.175Z</time></trkpt><trkpt lat="43.4702684" lon="10.6324421"><ele>354.20000000000005</ele><time>2026-04-18T15:53:04.179Z</time></trkpt><trkpt lat="43.4701857" lon="10.6323402"><ele>352.6</ele><time>2026-04-18T15:53:05.172Z</time></trkpt><trkpt lat="43.4701081" lon="10.6322439"><ele>351.0</ele><time>2026-04-18T15:53:06.162Z</time></trkpt><trkpt lat="43.4700322" lon="10.6321447"><ele>351.0</ele><time>2026-04-18T15:53:07.183Z</time></trkpt><trkpt lat="43.4699551" lon="10.6320604"><ele>351.0</ele><time>2026-04-18T15:53:08.187Z</time></trkpt><trkpt lat="43.4698698" lon="10.6320013"><ele>351.0</ele><time>2026-04-18T15:53:09.166Z</time></trkpt><trkpt lat="43.4697728" lon="10.6319511"><ele>351.0</ele><time>2026-04-18T15:53:10.173Z</time></trkpt><trkpt lat="43.4696763" lon="10.6319158"><ele>351.0</ele><time>2026-04-18T15:53:11.19Z</time></trkpt><trkpt lat="43.4695774" lon="10.6318787"><ele>349.0</ele><time>2026-04-18T15:53:12.175Z</time></trkpt><trkpt lat="43.4694915" lon="10.6318324"><ele>347.0</ele><time>2026-04-18T15:53:13.173Z</time></trkpt><trkpt lat="43.469427" lon="10.6317625"><ele>345.0</ele><time>2026-04-18T15:53:14.167Z</time></trkpt><trkpt lat="43.4694004" lon="10.6316692"><ele>343.0</ele><time>2026-04-18T15:53:15.184Z</time></trkpt><trkpt lat="43.4693894" lon="10.6315701"><ele>341.0</ele><time>2026-04-18T15:53:16.171Z</time></trkpt><trkpt lat="43.4693926" lon="10.6314638"><ele>339.0</ele><time>2026-04-18T15:53:17.188Z</time></trkpt><trkpt lat="43.46939" lon="10.6313383"><ele>339.0</ele><time>2026-04-18T15:53:18.18Z</time></trkpt><trkpt lat="43.469371" lon="10.631217"><ele>339.0</ele><time>2026-04-18T15:53:19.173Z</time></trkpt><trkpt lat="43.4693385" lon="10.6310947"><ele>339.0</ele><time>2026-04-18T15:53:20.182Z</time></trkpt><trkpt lat="43.4692954" lon="10.6309567"><ele>339.0</ele><time>2026-04-18T15:53:21.176Z</time></trkpt><trkpt lat="43.469256" lon="10.63082"><ele>339.0</ele><time>2026-04-18T15:53:22.184Z</time></trkpt><trkpt lat="43.4692159" lon="10.6306814"><ele>341.0</ele><time>2026-04-18T15:53:23.178Z</time></trkpt><trkpt lat="43.4691941" lon="10.6305435"><ele>343.0</ele><time>2026-04-18T15:53:24.174Z</time></trkpt><trkpt lat="43.469212" lon="10.6304152"><ele>345.0</ele><time>2026-04-18T15:53:25.176Z</time></trkpt><trkpt lat="43.4692602" lon="10.6303132"><ele>347.0</ele><time>2026-04-18T15:53:26.159Z</time></trkpt><trkpt lat="43.4693194" lon="10.6302242"><ele>349.0</ele><time>2026-04-18T15:53:27.18Z</time></trkpt><trkpt lat="43.4693778" lon="10.6301278"><ele>350.66666666666663</ele><time>2026-04-18T15:53:28.171Z</time></trkpt><trkpt lat="43.4694294" lon="10.6300227"><ele>352.3333333333333</ele><time>2026-04-18T15:53:29.18Z</time></trkpt><trkpt lat="43.4694721" lon="10.6299118"><ele>354.0</ele><time>2026-04-18T15:53:30.173Z</time></trkpt><trkpt lat="43.4694948" lon="10.6298102"><ele>355.6666666666667</ele><time>2026-04-18T15:53:31.179Z</time></trkpt><trkpt lat="43.469509" lon="10.6297127"><ele>357.33333333333337</ele><time>2026-04-18T15:53:32.166Z</time></trkpt><trkpt lat="43.4695058" lon="10.6295693"><ele>359.0</ele><time>2026-04-18T15:53:34.162Z</time></trkpt><trkpt lat="43.469418" lon="10.629467"><ele>359.0</ele><time>2026-04-18T15:53:36.162Z</time></trkpt><trkpt lat="43.4693382" lon="10.6294466"><ele>359.0</ele><time>2026-04-18T15:53:37.181Z</time></trkpt><trkpt lat="43.4692688" lon="10.6294581"><ele>359.0</ele><time>2026-04-18T15:53:38.172Z</time></trkpt><trkpt lat="43.469185" lon="10.6294972"><ele>359.0</ele><time>2026-04-18T15:53:39.163Z</time></trkpt><trkpt lat="43.469118" lon="10.6295476"><ele>359.0</ele><time>2026-04-18T15:53:40.163Z</time></trkpt><trkpt lat="43.4690445" lon="10.6296135"><ele>359.0</ele><time>2026-04-18T15:53:41.17Z</time></trkpt><trkpt lat="43.4689683" lon="10.6296755"><ele>359.0</ele><time>2026-04-18T15:53:42.164Z</time></trkpt><trkpt lat="43.4688906" lon="10.6297328"><ele>359.0</ele><time>2026-04-18T15:53:43.178Z</time></trkpt><trkpt lat="43.4688195" lon="10.6298047"><ele>359.0</ele><time>2026-04-18T15:53:44.166Z</time></trkpt><trkpt lat="43.4687424" lon="10.6299028"><ele>359.0</ele><time>2026-04-18T15:53:45.174Z</time></trkpt><trkpt lat="43.4686748" lon="10.6300153"><ele>359.0</ele><time>2026-04-18T15:53:46.163Z</time></trkpt><trkpt lat="43.4686136" lon="10.6301631"><ele>360.25</ele><time>2026-04-18T15:53:47.169Z</time></trkpt><trkpt lat="43.4685719" lon="10.6303222"><ele>361.5</ele><time>2026-04-18T15:53:48.162Z</time></trkpt><trkpt lat="43.4685459" lon="10.6304972"><ele>362.75</ele><time>2026-04-18T15:53:49.167Z</time></trkpt><trkpt lat="43.4685163" lon="10.6306756"><ele>364.0</ele><time>2026-04-18T15:53:50.174Z</time></trkpt><trkpt lat="43.4684777" lon="10.6308454"><ele>364.0</ele><time>2026-04-18T15:53:51.168Z</time></trkpt><trkpt lat="43.4684318" lon="10.6309939"><ele>364.0</ele><time>2026-04-18T15:53:52.161Z</time></trkpt><trkpt lat="43.4683628" lon="10.6311301"><ele>364.0</ele><time>2026-04-18T15:53:53.178Z</time></trkpt><trkpt lat="43.4682875" lon="10.6312501"><ele>364.0</ele><time>2026-04-18T15:53:54.176Z</time></trkpt><trkpt lat="43.4681867" lon="10.6313497"><ele>358.75</ele><time>2026-04-18T15:53:55.168Z</time></trkpt><trkpt lat="43.4680647" lon="10.6314123"><ele>353.5</ele><time>2026-04-18T15:53:56.171Z</time></trkpt><trkpt lat="43.4679373" lon="10.6314228"><ele>348.25</ele><time>2026-04-18T15:53:57.171Z</time></trkpt><trkpt lat="43.4678202" lon="10.631409"><ele>343.0</ele><time>2026-04-18T15:53:58.162Z</time></trkpt><trkpt lat="43.4677063" lon="10.6313541"><ele>343.0</ele><time>2026-04-18T15:53:59.174Z</time></trkpt><trkpt lat="43.4675989" lon="10.6312598"><ele>343.0</ele><time>2026-04-18T15:54:00.171Z</time></trkpt><trkpt lat="43.4674931" lon="10.631185"><ele>343.0</ele><time>2026-04-18T15:54:01.174Z</time></trkpt><trkpt lat="43.4673942" lon="10.6311039"><ele>343.0</ele><time>2026-04-18T15:54:02.165Z</time></trkpt><trkpt lat="43.4672986" lon="10.6310069"><ele>347.2</ele><time>2026-04-18T15:54:03.173Z</time></trkpt><trkpt lat="43.4671993" lon="10.6309204"><ele>351.4</ele><time>2026-04-18T15:54:04.162Z</time></trkpt><trkpt lat="43.4671036" lon="10.6308492"><ele>355.59999999999997</ele><time>2026-04-18T15:54:05.164Z</time></trkpt><trkpt lat="43.4670116" lon="10.6308066"><ele>359.79999999999995</ele><time>2026-04-18T15:54:06.169Z</time></trkpt><trkpt lat="43.466914" lon="10.6307869"><ele>364.0</ele><time>2026-04-18T15:54:07.184Z</time></trkpt><trkpt lat="43.4668196" lon="10.6307941"><ele>364.0</ele><time>2026-04-18T15:54:08.169Z</time></trkpt><trkpt lat="43.4667238" lon="10.6308002"><ele>364.0</ele><time>2026-04-18T15:54:09.181Z</time></trkpt><trkpt lat="43.4666262" lon="10.6308322"><ele>364.0</ele><time>2026-04-18T15:54:10.16Z</time></trkpt><trkpt lat="43.4665296" lon="10.6308587"><ele>364.0</ele><time>2026-04-18T15:54:11.162Z</time></trkpt><trkpt lat="43.4664356" lon="10.6308865"><ele>364.0</ele><time>2026-04-18T15:54:12.169Z</time></trkpt><trkpt lat="43.4663424" lon="10.6308926"><ele>363.8333333333333</ele><time>2026-04-18T15:54:13.176Z</time></trkpt><trkpt lat="43.4662602" lon="10.6308725"><ele>363.66666666666663</ele><time>2026-04-18T15:54:14.161Z</time></trkpt><trkpt lat="43.4662014" lon="10.630839"><ele>363.5</ele><time>2026-04-18T15:54:15.172Z</time></trkpt><trkpt lat="43.4661425" lon="10.6307976"><ele>363.3333333333333</ele><time>2026-04-18T15:54:17.178Z</time></trkpt><trkpt lat="43.4660742" lon="10.6307228"><ele>363.1666666666667</ele><time>2026-04-18T15:54:19.173Z</time></trkpt><trkpt lat="43.4660561" lon="10.6306204"><ele>363.0</ele><time>2026-04-18T15:54:21.191Z</time></trkpt><trkpt lat="43.4660434" lon="10.6305209"><ele>363.0</ele><time>2026-04-18T15:54:23.178Z</time></trkpt><trkpt lat="43.4660496" lon="10.6303985"><ele>363.0</ele><time>2026-04-18T15:54:25.167Z</time></trkpt><trkpt lat="43.4660743" lon="10.6302497"><ele>363.0</ele><time>2026-04-18T15:54:27.172Z</time></trkpt><trkpt lat="43.4660971" lon="10.6301015"><ele>363.0</ele><time>2026-04-18T15:54:29.167Z</time></trkpt><trkpt lat="43.4660919" lon="10.6299804"><ele>363.0</ele><time>2026-04-18T15:54:31.172Z</time></trkpt><trkpt lat="43.4660552" lon="10.6298723"><ele>363.4</ele><time>2026-04-18T15:54:33.175Z</time></trkpt><trkpt lat="43.4659885" lon="10.6297512"><ele>363.79999999999995</ele><time>2026-04-18T15:54:35.166Z</time></trkpt><trkpt lat="43.4659069" lon="10.6296115"><ele>364.2</ele><time>2026-04-18T15:54:37.177Z</time></trkpt><trkpt lat="43.4658632" lon="10.6295254"><ele>364.6</ele><time>2026-04-18T15:54:38.162Z</time></trkpt><trkpt lat="43.4658145" lon="10.629445"><ele>365.0</ele><time>2026-04-18T15:54:39.183Z</time></trkpt><trkpt lat="43.4657668" lon="10.6293647"><ele>364.14285714285717</ele><time>2026-04-18T15:54:40.176Z</time></trkpt><trkpt lat="43.4657234" lon="10.6292931"><ele>363.2857142857143</ele><time>2026-04-18T15:54:41.162Z</time></trkpt><trkpt lat="43.4656736" lon="10.6292221"><ele>362.42857142857144</ele><time>2026-04-18T15:54:42.158Z</time></trkpt><trkpt lat="43.4656154" lon="10.62916"><ele>361.57142857142856</ele><time>2026-04-18T15:54:43.173Z</time></trkpt><trkpt lat="43.4655562" lon="10.6290964"><ele>360.7142857142857</ele><time>2026-04-18T15:54:44.166Z</time></trkpt><trkpt lat="43.4654982" lon="10.6290285"><ele>359.8571428571429</ele><time>2026-04-18T15:54:45.177Z</time></trkpt><trkpt lat="43.4654375" lon="10.6289561"><ele>359.0</ele><time>2026-04-18T15:54:46.182Z</time></trkpt><trkpt lat="43.4653805" lon="10.6288841"><ele>359.0</ele><time>2026-04-18T15:54:47.179Z</time></trkpt><trkpt lat="43.4653298" lon="10.6288017"><ele>359.0</ele><time>2026-04-18T15:54:48.173Z</time></trkpt><trkpt lat="43.4652822" lon="10.6287167"><ele>359.0</ele><time>2026-04-18T15:54:49.17Z</time></trkpt><trkpt lat="43.4652383" lon="10.6286324"><ele>359.0</ele><time>2026-04-18T15:54:50.168Z</time></trkpt><trkpt lat="43.4651985" lon="10.6285554"><ele>359.0</ele><time>2026-04-18T15:54:51.172Z</time></trkpt><trkpt lat="43.4651317" lon="10.6284363"><ele>359.0</ele><time>2026-04-18T15:54:53.168Z</time></trkpt><trkpt lat="43.4650852" lon="10.6283159"><ele>360.6</ele><time>2026-04-18T15:54:55.172Z</time></trkpt><trkpt lat="43.4650832" lon="10.6282008"><ele>362.2</ele><time>2026-04-18T15:54:57.164Z</time></trkpt><trkpt lat="43.4651369" lon="10.6280914"><ele>363.8</ele><time>2026-04-18T15:54:59.167Z</time></trkpt><trkpt lat="43.4652069" lon="10.627992"><ele>365.40000000000003</ele><time>2026-04-18T15:55:01.175Z</time></trkpt><trkpt lat="43.4652677" lon="10.6279026"><ele>367.0</ele><time>2026-04-18T15:55:03.17Z</time></trkpt><trkpt lat="43.4653525" lon="10.6278173"><ele>367.66666666666663</ele><time>2026-04-18T15:55:05.169Z</time></trkpt><trkpt lat="43.4654365" lon="10.6277345"><ele>368.3333333333333</ele><time>2026-04-18T15:55:07.178Z</time></trkpt><trkpt lat="43.4655043" lon="10.6276537"><ele>369.0</ele><time>2026-04-18T15:55:09.164Z</time></trkpt><trkpt lat="43.4655599" lon="10.6275667"><ele>369.6666666666667</ele><time>2026-04-18T15:55:12.161Z</time></trkpt><trkpt lat="43.4655894" lon="10.6274715"><ele>370.33333333333337</ele><time>2026-04-18T15:55:16.153Z</time></trkpt><trkpt lat="43.46552" lon="10.6274078"><ele>371.0</ele><time>2026-04-18T15:55:18.165Z</time></trkpt><trkpt lat="43.4654126" lon="10.6273566"><ele>371.0</ele><time>2026-04-18T15:55:20.159Z</time></trkpt><trkpt lat="43.4653438" lon="10.6273306"><ele>371.0</ele><time>2026-04-18T15:55:21.167Z</time></trkpt><trkpt lat="43.465223" lon="10.6272813"><ele>371.0</ele><time>2026-04-18T15:55:23.162Z</time></trkpt><trkpt lat="43.4651586" lon="10.6272627"><ele>371.0</ele><time>2026-04-18T15:55:24.176Z</time></trkpt><trkpt lat="43.4650957" lon="10.6272248"><ele>371.0</ele><time>2026-04-18T15:55:25.163Z</time></trkpt><trkpt lat="43.4650201" lon="10.6271621"><ele>371.0</ele><time>2026-04-18T15:55:26.168Z</time></trkpt><trkpt lat="43.4649157" lon="10.6270854"><ele>371.0</ele><time>2026-04-18T15:55:28.156Z</time></trkpt><trkpt lat="43.4648351" lon="10.6269809"><ele>371.0</ele><time>2026-04-18T15:55:30.155Z</time></trkpt><trkpt lat="43.4647914" lon="10.6268983"><ele>371.0</ele><time>2026-04-18T15:55:31.165Z</time></trkpt><trkpt lat="43.464718" lon="10.6267746"><ele>371.0</ele><time>2026-04-18T15:55:33.173Z</time></trkpt><trkpt lat="43.4646451" lon="10.6266402"><ele>371.0</ele><time>2026-04-18T15:55:35.165Z</time></trkpt><trkpt lat="43.4646015" lon="10.6264977"><ele>370.0</ele><time>2026-04-18T15:55:37.177Z</time></trkpt><trkpt lat="43.4645671" lon="10.6263391"><ele>369.0</ele><time>2026-04-18T15:55:39.165Z</time></trkpt><trkpt lat="43.4645575" lon="10.6262104"><ele>368.0</ele><time>2026-04-18T15:55:41.162Z</time></trkpt><trkpt lat="43.4645625" lon="10.6260788"><ele>367.0</ele><time>2026-04-18T15:55:43.172Z</time></trkpt><trkpt lat="43.4646215" lon="10.6259645"><ele>366.0</ele><time>2026-04-18T15:55:45.167Z</time></trkpt><trkpt lat="43.4647117" lon="10.6258572"><ele>373.4</ele><time>2026-04-18T15:55:47.168Z</time></trkpt><trkpt lat="43.4647888" lon="10.6257633"><ele>380.8</ele><time>2026-04-18T15:55:49.175Z</time></trkpt><trkpt lat="43.4648562" lon="10.6256686"><ele>388.2</ele><time>2026-04-18T15:55:51.176Z</time></trkpt><trkpt lat="43.464914" lon="10.6255884"><ele>395.59999999999997</ele><time>2026-04-18T15:55:53.172Z</time></trkpt><trkpt lat="43.4649593" lon="10.6254703"><ele>403.0</ele><time>2026-04-18T15:55:55.175Z</time></trkpt><trkpt lat="43.4649491" lon="10.6253201"><ele>401.5</ele><time>2026-04-18T15:55:57.179Z</time></trkpt><trkpt lat="43.4649455" lon="10.6251422"><ele>400.0</ele><time>2026-04-18T15:55:59.171Z</time></trkpt><trkpt lat="43.4649721" lon="10.6249859"><ele>398.5</ele><time>2026-04-18T15:56:01.172Z</time></trkpt><trkpt lat="43.4650455" lon="10.6248632"><ele>397.0</ele><time>2026-04-18T15:56:03.172Z</time></trkpt><trkpt lat="43.4651261" lon="10.6247438"><ele>397.0</ele><time>2026-04-18T15:56:05.181Z</time></trkpt><trkpt lat="43.4652159" lon="10.6246325"><ele>397.0</ele><time>2026-04-18T15:56:07.175Z</time></trkpt><trkpt lat="43.4652876" lon="10.62453"><ele>397.0</ele><time>2026-04-18T15:56:09.165Z</time></trkpt><trkpt lat="43.4653317" lon="10.6244197"><ele>397.0</ele><time>2026-04-18T15:56:11.165Z</time></trkpt><trkpt lat="43.4653558" lon="10.6242715"><ele>397.0</ele><time>2026-04-18T15:56:13.168Z</time></trkpt><trkpt lat="43.4653963" lon="10.6241511"><ele>397.6</ele><time>2026-04-18T15:56:15.17Z</time></trkpt><trkpt lat="43.4654796" lon="10.6240302"><ele>398.20000000000005</ele><time>2026-04-18T15:56:17.165Z</time></trkpt><trkpt lat="43.4655262" lon="10.6239669"><ele>398.8</ele><time>2026-04-18T15:56:18.171Z</time></trkpt><trkpt lat="43.4655927" lon="10.62386"><ele>399.4</ele><time>2026-04-18T15:56:20.162Z</time></trkpt><trkpt lat="43.4656504" lon="10.6237497"><ele>400.0</ele><time>2026-04-18T15:56:22.168Z</time></trkpt><trkpt lat="43.465718" lon="10.6236415"><ele>400.0</ele><time>2026-04-18T15:56:24.166Z</time></trkpt><trkpt lat="43.4657882" lon="10.6235205"><ele>400.0</ele><time>2026-04-18T15:56:26.148Z</time></trkpt><trkpt lat="43.4658299" lon="10.6234537"><ele>400.0</ele><time>2026-04-18T15:56:27.164Z</time></trkpt><trkpt lat="43.4659251" lon="10.6233817"><ele>400.0</ele><time>2026-04-18T15:56:29.161Z</time></trkpt><trkpt lat="43.4660227" lon="10.6233636"><ele>400.0</ele><time>2026-04-18T15:56:31.164Z</time></trkpt><trkpt lat="43.46612" lon="10.6233427"><ele>400.00000000000006</ele><time>2026-04-18T15:56:33.16Z</time></trkpt><trkpt lat="43.4661921" lon="10.6233128"><ele>400.0</ele><time>2026-04-18T15:56:35.161Z</time></trkpt><trkpt lat="43.466261" lon="10.6232944"><ele>400.0</ele><time>2026-04-18T15:56:37.167Z</time></trkpt><trkpt lat="43.4663296" lon="10.623244"><ele>400.0</ele><time>2026-04-18T15:56:39.163Z</time></trkpt><trkpt lat="43.4664043" lon="10.6231405"><ele>400.00000000000006</ele><time>2026-04-18T15:56:41.166Z</time></trkpt><trkpt lat="43.4664721" lon="10.6230186"><ele>400.0</ele><time>2026-04-18T15:56:43.172Z</time></trkpt><trkpt lat="43.4665035" lon="10.6228501"><ele>402.1666666666667</ele><time>2026-04-18T15:56:45.162Z</time></trkpt><trkpt lat="43.4665068" lon="10.6227283"><ele>404.33333333333337</ele><time>2026-04-18T15:56:46.151Z</time></trkpt><trkpt lat="43.4665249" lon="10.622626"><ele>406.5</ele><time>2026-04-18T15:56:47.167Z</time></trkpt><trkpt lat="43.4665443" lon="10.6225303"><ele>408.66666666666663</ele><time>2026-04-18T15:56:48.166Z</time></trkpt><trkpt lat="43.466561" lon="10.6224383"><ele>410.8333333333333</ele><time>2026-04-18T15:56:49.165Z</time></trkpt><trkpt lat="43.4665861" lon="10.6223518"><ele>413.0</ele><time>2026-04-18T15:56:50.163Z</time></trkpt><trkpt lat="43.4666563" lon="10.6222316"><ele>412.99999999999994</ele><time>2026-04-18T15:56:52.17Z</time></trkpt><trkpt lat="43.4666956" lon="10.6221587"><ele>413.0</ele><time>2026-04-18T15:56:53.167Z</time></trkpt><trkpt lat="43.4667412" lon="10.622097"><ele>413.0</ele><time>2026-04-18T15:56:54.164Z</time></trkpt><trkpt lat="43.4668352" lon="10.6220134"><ele>413.0</ele><time>2026-04-18T15:56:56.162Z</time></trkpt><trkpt lat="43.4669251" lon="10.6219681"><ele>412.99999999999994</ele><time>2026-04-18T15:56:58.153Z</time></trkpt><trkpt lat="43.4669972" lon="10.6219336"><ele>413.0</ele><time>2026-04-18T15:57:00.165Z</time></trkpt><trkpt lat="43.467036" lon="10.6218645"><ele>411.0</ele><time>2026-04-18T15:57:02.163Z</time></trkpt><trkpt lat="43.4670681" lon="10.6217583"><ele>409.0</ele><time>2026-04-18T15:57:04.151Z</time></trkpt><trkpt lat="43.4670867" lon="10.6215812"><ele>407.0</ele><time>2026-04-18T15:57:06.163Z</time></trkpt><trkpt lat="43.4670466" lon="10.6213951"><ele>405.0</ele><time>2026-04-18T15:57:08.155Z</time></trkpt><trkpt lat="43.4670093" lon="10.6212855"><ele>403.0</ele><time>2026-04-18T15:57:09.163Z</time></trkpt><trkpt lat="43.4669762" lon="10.6211746"><ele>402.00000000000006</ele><time>2026-04-18T15:57:10.159Z</time></trkpt><trkpt lat="43.4669491" lon="10.6210719"><ele>401.0</ele><time>2026-04-18T15:57:11.17Z</time></trkpt><trkpt lat="43.4669285" lon="10.620952"><ele>400.0</ele><time>2026-04-18T15:57:12.156Z</time></trkpt><trkpt lat="43.4669163" lon="10.6208319"><ele>399.0</ele><time>2026-04-18T15:57:13.163Z</time></trkpt><trkpt lat="43.4669186" lon="10.6207226"><ele>398.00000000000006</ele><time>2026-04-18T15:57:14.169Z</time></trkpt><trkpt lat="43.4669427" lon="10.6206036"><ele>397.0</ele><time>2026-04-18T15:57:15.174Z</time></trkpt><trkpt lat="43.4669525" lon="10.6204721"><ele>397.0</ele><time>2026-04-18T15:57:16.163Z</time></trkpt><trkpt lat="43.4669511" lon="10.6203413"><ele>397.0</ele><time>2026-04-18T15:57:17.162Z</time></trkpt><trkpt lat="43.4669613" lon="10.6202441"><ele>397.0</ele><time>2026-04-18T15:57:18.168Z</time></trkpt><trkpt lat="43.4669666" lon="10.6201523"><ele>397.0</ele><time>2026-04-18T15:57:19.165Z</time></trkpt><trkpt lat="43.4669732" lon="10.6199438"><ele>397.0</ele><time>2026-04-18T15:57:21.16Z</time></trkpt><trkpt lat="43.4669675" lon="10.619826"><ele>398.50000000000006</ele><time>2026-04-18T15:57:22.157Z</time></trkpt><trkpt lat="43.4669529" lon="10.6197028"><ele>400.0</ele><time>2026-04-18T15:57:23.154Z</time></trkpt><trkpt lat="43.4669307" lon="10.6195997"><ele>401.5</ele><time>2026-04-18T15:57:24.166Z</time></trkpt><trkpt lat="43.4669091" lon="10.6195073"><ele>403.0</ele><time>2026-04-18T15:57:25.169Z</time></trkpt><trkpt lat="43.4668878" lon="10.6194172"><ele>404.50000000000006</ele><time>2026-04-18T15:57:26.165Z</time></trkpt><trkpt lat="43.4668651" lon="10.619328"><ele>406.0</ele><time>2026-04-18T15:57:27.175Z</time></trkpt><trkpt lat="43.4668337" lon="10.6191948"><ele>407.20000000000005</ele><time>2026-04-18T15:57:29.174Z</time></trkpt><trkpt lat="43.4668517" lon="10.6190591"><ele>408.40000000000003</ele><time>2026-04-18T15:57:32.169Z</time></trkpt><trkpt lat="43.4668616" lon="10.6189335"><ele>409.6</ele><time>2026-04-18T15:57:34.166Z</time></trkpt><trkpt lat="43.4668222" lon="10.6188105"><ele>410.8</ele><time>2026-04-18T15:57:36.162Z</time></trkpt><trkpt lat="43.4667477" lon="10.6186787"><ele>412.0</ele><time>2026-04-18T15:57:38.162Z</time></trkpt><trkpt lat="43.4667089" lon="10.618606"><ele>413.85714285714283</ele><time>2026-04-18T15:57:39.165Z</time></trkpt><trkpt lat="43.4666662" lon="10.6185389"><ele>415.7142857142857</ele><time>2026-04-18T15:57:40.163Z</time></trkpt><trkpt lat="43.4666082" lon="10.6184083"><ele>417.57142857142856</ele><time>2026-04-18T15:57:42.168Z</time></trkpt><trkpt lat="43.4665734" lon="10.61833"><ele>419.42857142857144</ele><time>2026-04-18T15:57:43.168Z</time></trkpt><trkpt lat="43.4665368" lon="10.6182533"><ele>421.2857142857143</ele><time>2026-04-18T15:57:44.162Z</time></trkpt><trkpt lat="43.4665012" lon="10.6181788"><ele>423.1428571428571</ele><time>2026-04-18T15:57:45.173Z</time></trkpt><trkpt lat="43.4664653" lon="10.6181053"><ele>425.0</ele><time>2026-04-18T15:57:46.159Z</time></trkpt><trkpt lat="43.4664079" lon="10.6179767"><ele>425.0</ele><time>2026-04-18T15:57:48.161Z</time></trkpt><trkpt lat="43.4663542" lon="10.6178354"><ele>425.0</ele><time>2026-04-18T15:57:50.162Z</time></trkpt><trkpt lat="43.4663067" lon="10.6176973"><ele>425.0</ele><time>2026-04-18T15:57:52.175Z</time></trkpt><trkpt lat="43.4662735" lon="10.6176223"><ele>425.0</ele><time>2026-04-18T15:57:53.164Z</time></trkpt><trkpt lat="43.4661988" lon="10.6174779"><ele>425.0</ele><time>2026-04-18T15:57:55.165Z</time></trkpt><trkpt lat="43.466166" lon="10.6174013"><ele>426.16666666666663</ele><time>2026-04-18T15:57:56.163Z</time></trkpt><trkpt lat="43.4661271" lon="10.6173175"><ele>427.3333333333333</ele><time>2026-04-18T15:57:57.162Z</time></trkpt><trkpt lat="43.4660995" lon="10.617228"><ele>428.5</ele><time>2026-04-18T15:57:58.163Z</time></trkpt><trkpt lat="43.4660685" lon="10.617134"><ele>429.66666666666663</ele><time>2026-04-18T15:57:59.178Z</time></trkpt><trkpt lat="43.4660493" lon="10.6170497"><ele>430.8333333333333</ele><time>2026-04-18T15:58:00.167Z</time></trkpt><trkpt lat="43.4660192" lon="10.6168913"><ele>432.0</ele><time>2026-04-18T15:58:02.18Z</time></trkpt><trkpt lat="43.4659974" lon="10.6167342"><ele>432.0</ele><time>2026-04-18T15:58:04.162Z</time></trkpt><trkpt lat="43.4659732" lon="10.6165714"><ele>432.00000000000006</ele><time>2026-04-18T15:58:06.162Z</time></trkpt><trkpt lat="43.4659457" lon="10.6164114"><ele>432.00000000000006</ele><time>2026-04-18T15:58:08.163Z</time></trkpt><trkpt lat="43.4659244" lon="10.6162756"><ele>432.0</ele><time>2026-04-18T15:58:10.164Z</time></trkpt><trkpt lat="43.4658863" lon="10.616173"><ele>432.0</ele><time>2026-04-18T15:58:12.167Z</time></trkpt><trkpt lat="43.4658815" lon="10.6160714"><ele>433.8</ele><time>2026-04-18T15:58:14.168Z</time></trkpt><trkpt lat="43.465886" lon="10.615927"><ele>435.6</ele><time>2026-04-18T15:58:16.164Z</time></trkpt><trkpt lat="43.4659191" lon="10.615783"><ele>437.40000000000003</ele><time>2026-04-18T15:58:18.164Z</time></trkpt><trkpt lat="43.4659586" lon="10.6156631"><ele>439.20000000000005</ele><time>2026-04-18T15:58:20.168Z</time></trkpt><trkpt lat="43.4659947" lon="10.6155261"><ele>441.0</ele><time>2026-04-18T15:58:22.158Z</time></trkpt><trkpt lat="43.4660236" lon="10.6154463"><ele>441.0</ele><time>2026-04-18T15:58:23.164Z</time></trkpt><trkpt lat="43.4660495" lon="10.6153575"><ele>441.0</ele><time>2026-04-18T15:58:24.157Z</time></trkpt><trkpt lat="43.4660816" lon="10.6152716"><ele>441.0</ele><time>2026-04-18T15:58:25.163Z</time></trkpt><trkpt lat="43.466125" lon="10.6151281"><ele>441.0</ele><time>2026-04-18T15:58:27.165Z</time></trkpt><trkpt lat="43.466166" lon="10.6149804"><ele>441.0</ele><time>2026-04-18T15:58:29.159Z</time></trkpt><trkpt lat="43.4661994" lon="10.6149044"><ele>441.0</ele><time>2026-04-18T15:58:30.161Z</time></trkpt><trkpt lat="43.466218" lon="10.6148192"><ele>441.1666666666667</ele><time>2026-04-18T15:58:31.159Z</time></trkpt><trkpt lat="43.4662413" lon="10.6147268"><ele>441.33333333333337</ele><time>2026-04-18T15:58:32.157Z</time></trkpt><trkpt lat="43.4662638" lon="10.6146359"><ele>441.5</ele><time>2026-04-18T15:58:33.165Z</time></trkpt><trkpt lat="43.4663046" lon="10.6145495"><ele>441.6666666666667</ele><time>2026-04-18T15:58:34.152Z</time></trkpt><trkpt lat="43.4663698" lon="10.6144134"><ele>441.83333333333337</ele><time>2026-04-18T15:58:36.158Z</time></trkpt><trkpt lat="43.4664372" lon="10.6142956"><ele>442.0</ele><time>2026-04-18T15:58:38.155Z</time></trkpt><trkpt lat="43.4664684" lon="10.6141823"><ele>443.8</ele><time>2026-04-18T15:58:40.161Z</time></trkpt><trkpt lat="43.4664665" lon="10.6140773"><ele>445.6</ele><time>2026-04-18T15:58:42.169Z</time></trkpt><trkpt lat="43.4664103" lon="10.6139436"><ele>447.40000000000003</ele><time>2026-04-18T15:58:44.16Z</time></trkpt><trkpt lat="43.4662939" lon="10.6139045"><ele>449.20000000000005</ele><time>2026-04-18T15:58:46.162Z</time></trkpt><trkpt lat="43.4661843" lon="10.6139078"><ele>451.0</ele><time>2026-04-18T15:58:48.165Z</time></trkpt><trkpt lat="43.4660631" lon="10.6139689"><ele>451.00000000000006</ele><time>2026-04-18T15:58:50.162Z</time></trkpt><trkpt lat="43.4659899" lon="10.6140109"><ele>451.0</ele><time>2026-04-18T15:58:52.161Z</time></trkpt><trkpt lat="43.4658945" lon="10.614025"><ele>451.0</ele><time>2026-04-18T15:58:54.173Z</time></trkpt><trkpt lat="43.4658144" lon="10.61405"><ele>451.0</ele><time>2026-04-18T15:58:56.16Z</time></trkpt><trkpt lat="43.4657124" lon="10.614055"><ele>451.00000000000006</ele><time>2026-04-18T15:58:58.176Z</time></trkpt><trkpt lat="43.4656252" lon="10.6140772"><ele>451.0</ele><time>2026-04-18T15:59:00.163Z</time></trkpt><trkpt lat="43.4655579" lon="10.6141268"><ele>451.00000000000006</ele><time>2026-04-18T15:59:02.168Z</time></trkpt><trkpt lat="43.4654693" lon="10.6141707"><ele>451.0</ele><time>2026-04-18T15:59:04.163Z</time></trkpt><trkpt lat="43.465412" lon="10.614232"><ele>451.0</ele><time>2026-04-18T15:59:07.163Z</time></trkpt><trkpt lat="43.4653583" lon="10.614297"><ele>451.0</ele><time>2026-04-18T15:59:10.162Z</time></trkpt><trkpt lat="43.4653068" lon="10.6143841"><ele>451.00000000000006</ele><time>2026-04-18T15:59:13.167Z</time></trkpt><trkpt lat="43.4652533" lon="10.6144486"><ele>451.0</ele><time>2026-04-18T15:59:15.173Z</time></trkpt><trkpt lat="43.465204" lon="10.6145101"><ele>453.6666666666667</ele><time>2026-04-18T15:59:17.167Z</time></trkpt><trkpt lat="43.4651545" lon="10.6145724"><ele>456.33333333333337</ele><time>2026-04-18T15:59:19.163Z</time></trkpt><trkpt lat="43.4651014" lon="10.614657"><ele>459.0</ele><time>2026-04-18T15:59:21.166Z</time></trkpt><trkpt lat="43.4650276" lon="10.6147276"><ele>461.66666666666663</ele><time>2026-04-18T15:59:23.168Z</time></trkpt><trkpt lat="43.4649492" lon="10.6147802"><ele>464.3333333333333</ele><time>2026-04-18T15:59:25.16Z</time></trkpt><trkpt lat="43.4648956" lon="10.6148695"><ele>467.0</ele><time>2026-04-18T15:59:28.159Z</time></trkpt><trkpt lat="43.4648528" lon="10.6149563"><ele>467.0</ele><time>2026-04-18T15:59:30.154Z</time></trkpt><trkpt lat="43.4647877" lon="10.6150715"><ele>467.00000000000006</ele><time>2026-04-18T15:59:32.151Z</time></trkpt><trkpt lat="43.4647251" lon="10.6151928"><ele>467.00000000000006</ele><time>2026-04-18T15:59:34.155Z</time></trkpt><trkpt lat="43.4646443" lon="10.6152838"><ele>467.0</ele><time>2026-04-18T15:59:36.167Z</time></trkpt><trkpt lat="43.4646023" lon="10.6153572"><ele>467.0</ele><time>2026-04-18T15:59:38.161Z</time></trkpt><trkpt lat="43.4645644" lon="10.6154279"><ele>468.16666666666663</ele><time>2026-04-18T15:59:40.163Z</time></trkpt><trkpt lat="43.4645013" lon="10.6155123"><ele>469.3333333333333</ele><time>2026-04-18T15:59:43.157Z</time></trkpt><trkpt lat="43.4644428" lon="10.6155898"><ele>470.5</ele><time>2026-04-18T15:59:46.166Z</time></trkpt><trkpt lat="43.4644204" lon="10.6156797"><ele>471.66666666666663</ele><time>2026-04-18T15:59:48.166Z</time></trkpt><trkpt lat="43.464395" lon="10.6157722"><ele>472.8333333333333</ele><time>2026-04-18T15:59:50.172Z</time></trkpt><trkpt lat="43.4643679" lon="10.615869"><ele>474.0</ele><time>2026-04-18T15:59:52.166Z</time></trkpt><trkpt lat="43.4643574" lon="10.6159922"><ele>474.0</ele><time>2026-04-18T15:59:54.164Z</time></trkpt><trkpt lat="43.4643304" lon="10.6161036"><ele>474.0</ele><time>2026-04-18T15:59:56.17Z</time></trkpt><trkpt lat="43.4642736" lon="10.6161973"><ele>474.0</ele><time>2026-04-18T15:59:58.172Z</time></trkpt><trkpt lat="43.4642135" lon="10.6162645"><ele>474.0</ele><time>2026-04-18T16:00:01.164Z</time></trkpt><trkpt lat="43.4642273" lon="10.6163544"><ele>474.0</ele><time>2026-04-18T16:00:13.165Z</time></trkpt><trkpt lat="43.4642042" lon="10.6164415"><ele>474.0</ele><time>2026-04-18T16:00:25.173Z</time></trkpt><trkpt lat="43.4641771" lon="10.6165305"><ele>473.99999999999994</ele><time>2026-04-18T16:00:54.175Z</time></trkpt><trkpt lat="43.4641268" lon="10.6165927"><ele>474.0</ele><time>2026-04-18T16:00:59.183Z</time></trkpt><trkpt lat="43.4640638" lon="10.6165849"><ele>473.99999999999994</ele><time>2026-04-18T16:01:44.181Z</time></trkpt><trkpt lat="43.4640164" lon="10.6165158"><ele>473.99999999999994</ele><time>2026-04-18T16:02:16.167Z</time></trkpt><trkpt lat="43.4639937" lon="10.6164013"><ele>474.0</ele><time>2026-04-18T16:02:19.172Z</time></trkpt><trkpt lat="43.4639654" lon="10.6163049"><ele>473.99999999999994</ele><time>2026-04-18T16:02:22.165Z</time></trkpt><trkpt lat="43.463932" lon="10.6162137"><ele>473.99999999999994</ele><time>2026-04-18T16:02:24.173Z</time></trkpt><trkpt lat="43.4638997" lon="10.6161157"><ele>474.0</ele><time>2026-04-18T16:02:26.169Z</time></trkpt><trkpt lat="43.463861" lon="10.6160387"><ele>474.0</ele><time>2026-04-18T16:02:28.175Z</time></trkpt><trkpt lat="43.4638315" lon="10.6159598"><ele>474.0</ele><time>2026-04-18T16:02:30.154Z</time></trkpt><trkpt lat="43.4637905" lon="10.6158677"><ele>474.0</ele><time>2026-04-18T16:02:33.171Z</time></trkpt><trkpt lat="43.4637411" lon="10.615769"><ele>474.0</ele><time>2026-04-18T16:02:36.182Z</time></trkpt><trkpt lat="43.4637041" lon="10.6156987"><ele>474.0</ele><time>2026-04-18T16:02:38.168Z</time></trkpt><trkpt lat="43.4636443" lon="10.6155892"><ele>473.8333333333333</ele><time>2026-04-18T16:02:41.179Z</time></trkpt><trkpt lat="43.4635958" lon="10.6155173"><ele>473.66666666666663</ele><time>2026-04-18T16:02:43.163Z</time></trkpt><trkpt lat="43.463567" lon="10.615424"><ele>473.5</ele><time>2026-04-18T16:02:46.163Z</time></trkpt><trkpt lat="43.4634977" lon="10.6153494"><ele>473.3333333333333</ele><time>2026-04-18T16:02:49.178Z</time></trkpt><trkpt lat="43.463439" lon="10.6153141"><ele>473.16666666666663</ele><time>2026-04-18T16:02:51.18Z</time></trkpt><trkpt lat="43.4633581" lon="10.6153651"><ele>473.0</ele><time>2026-04-18T16:02:54.177Z</time></trkpt><trkpt lat="43.4633082" lon="10.6154499"><ele>473.0</ele><time>2026-04-18T16:02:57.169Z</time></trkpt><trkpt lat="43.463285" lon="10.6155418"><ele>472.99999999999994</ele><time>2026-04-18T16:02:59.182Z</time></trkpt><trkpt lat="43.463226" lon="10.6157178"><ele>472.99999999999994</ele><time>2026-04-18T16:03:01.199Z</time></trkpt><trkpt lat="43.4632204" lon="10.6158219"><ele>473.0</ele><time>2026-04-18T16:03:02.162Z</time></trkpt><trkpt lat="43.463217" lon="10.6159116"><ele>473.0</ele><time>2026-04-18T16:03:03.178Z</time></trkpt><trkpt lat="43.4632311" lon="10.6160767"><ele>471.16666666666663</ele><time>2026-04-18T16:03:05.175Z</time></trkpt><trkpt lat="43.4632395" lon="10.6161781"><ele>469.3333333333333</ele><time>2026-04-18T16:03:06.176Z</time></trkpt><trkpt lat="43.4632401" lon="10.6162745"><ele>467.5</ele><time>2026-04-18T16:03:07.179Z</time></trkpt><trkpt lat="43.463238" lon="10.6163653"><ele>465.66666666666663</ele><time>2026-04-18T16:03:08.181Z</time></trkpt><trkpt lat="43.4632073" lon="10.616509"><ele>463.8333333333333</ele><time>2026-04-18T16:03:10.177Z</time></trkpt><trkpt lat="43.4631616" lon="10.6166221"><ele>462.0</ele><time>2026-04-18T16:03:12.163Z</time></trkpt><trkpt lat="43.463096" lon="10.616702"><ele>462.0</ele><time>2026-04-18T16:03:14.175Z</time></trkpt><trkpt lat="43.4629926" lon="10.6167618"><ele>462.00000000000006</ele><time>2026-04-18T16:03:16.17Z</time></trkpt><trkpt lat="43.4629112" lon="10.6168225"><ele>462.00000000000006</ele><time>2026-04-18T16:03:18.157Z</time></trkpt><trkpt lat="43.462823" lon="10.61685"><ele>462.0</ele><time>2026-04-18T16:03:20.166Z</time></trkpt><trkpt lat="43.4627351" lon="10.6168346"><ele>462.0</ele><time>2026-04-18T16:03:22.171Z</time></trkpt><trkpt lat="43.4626522" lon="10.6167672"><ele>462.20000000000005</ele><time>2026-04-18T16:03:24.156Z</time></trkpt><trkpt lat="43.4625898" lon="10.6166658"><ele>462.40000000000003</ele><time>2026-04-18T16:03:26.15Z</time></trkpt><trkpt lat="43.4625391" lon="10.6165607"><ele>462.59999999999997</ele><time>2026-04-18T16:03:28.159Z</time></trkpt><trkpt lat="43.4624873" lon="10.6164474"><ele>462.79999999999995</ele><time>2026-04-18T16:03:30.162Z</time></trkpt><trkpt lat="43.4624243" lon="10.6163406"><ele>463.0</ele><time>2026-04-18T16:03:32.169Z</time></trkpt><trkpt lat="43.4623739" lon="10.6162461"><ele>466.33333333333337</ele><time>2026-04-18T16:03:34.158Z</time></trkpt><trkpt lat="43.4623202" lon="10.6161443"><ele>469.6666666666667</ele><time>2026-04-18T16:03:36.176Z</time></trkpt><trkpt lat="43.4622746" lon="10.6160748"><ele>473.0</ele><time>2026-04-18T16:03:38.176Z</time></trkpt><trkpt lat="43.4622059" lon="10.6160343"><ele>476.33333333333337</ele><time>2026-04-18T16:03:40.168Z</time></trkpt><trkpt lat="43.462103" lon="10.6159864"><ele>479.6666666666667</ele><time>2026-04-18T16:03:42.171Z</time></trkpt><trkpt lat="43.462044" lon="10.616026"><ele>483.0</ele><time>2026-04-18T16:03:44.167Z</time></trkpt><trkpt lat="43.4619861" lon="10.6161068"><ele>480.4</ele><time>2026-04-18T16:03:46.182Z</time></trkpt><trkpt lat="43.4619339" lon="10.6161909"><ele>477.79999999999995</ele><time>2026-04-18T16:03:48.174Z</time></trkpt><trkpt lat="43.4618562" lon="10.6162937"><ele>475.2</ele><time>2026-04-18T16:03:50.166Z</time></trkpt><trkpt lat="43.4617735" lon="10.6163973"><ele>472.6</ele><time>2026-04-18T16:03:52.186Z</time></trkpt><trkpt lat="43.4617017" lon="10.6165055"><ele>470.0</ele><time>2026-04-18T16:03:54.164Z</time></trkpt><trkpt lat="43.4616511" lon="10.6166223"><ele>470.0</ele><time>2026-04-18T16:03:56.173Z</time></trkpt><trkpt lat="43.4615972" lon="10.6167595"><ele>470.0</ele><time>2026-04-18T16:03:58.168Z</time></trkpt><trkpt lat="43.4615405" lon="10.6168974"><ele>470.0</ele><time>2026-04-18T16:04:00.181Z</time></trkpt><trkpt lat="43.4614943" lon="10.6170102"><ele>470.0</ele><time>2026-04-18T16:04:02.181Z</time></trkpt><trkpt lat="43.4614357" lon="10.6170874"><ele>470.0</ele><time>2026-04-18T16:04:04.181Z</time></trkpt><trkpt lat="43.4613783" lon="10.6171532"><ele>466.8333333333333</ele><time>2026-04-18T16:04:06.176Z</time></trkpt><trkpt lat="43.4613218" lon="10.6172151"><ele>463.66666666666663</ele><time>2026-04-18T16:04:08.185Z</time></trkpt><trkpt lat="43.4612595" lon="10.6172607"><ele>460.5</ele><time>2026-04-18T16:04:10.162Z</time></trkpt><trkpt lat="43.461198" lon="10.6173194"><ele>457.33333333333337</ele><time>2026-04-18T16:04:12.17Z</time></trkpt><trkpt lat="43.4611192" lon="10.6173636"><ele>454.1666666666667</ele><time>2026-04-18T16:04:15.18Z</time></trkpt><trkpt lat="43.461073" lon="10.617454"><ele>451.0</ele><time>2026-04-18T16:04:17.163Z</time></trkpt><trkpt lat="43.4610592" lon="10.617553"><ele>456.1666666666667</ele><time>2026-04-18T16:04:18.162Z</time></trkpt><trkpt lat="43.4610556" lon="10.6176613"><ele>461.33333333333337</ele><time>2026-04-18T16:04:20.169Z</time></trkpt><trkpt lat="43.4610757" lon="10.6177831"><ele>466.5</ele><time>2026-04-18T16:04:22.168Z</time></trkpt><trkpt lat="43.4610774" lon="10.6178735"><ele>471.66666666666663</ele><time>2026-04-18T16:04:23.179Z</time></trkpt><trkpt lat="43.4610939" lon="10.6179687"><ele>476.8333333333333</ele><time>2026-04-18T16:04:24.169Z</time></trkpt><trkpt lat="43.4611065" lon="10.6180601"><ele>482.0</ele><time>2026-04-18T16:04:25.167Z</time></trkpt><trkpt lat="43.4611151" lon="10.618202"><ele>482.0</ele><time>2026-04-18T16:04:27.164Z</time></trkpt><trkpt lat="43.4611211" lon="10.6183393"><ele>482.00000000000006</ele><time>2026-04-18T16:04:29.183Z</time></trkpt><trkpt lat="43.4610849" lon="10.6184487"><ele>482.00000000000006</ele><time>2026-04-18T16:04:31.173Z</time></trkpt><trkpt lat="43.4610356" lon="10.6185682"><ele>482.0</ele><time>2026-04-18T16:04:33.167Z</time></trkpt><trkpt lat="43.4609853" lon="10.6186986"><ele>482.0</ele><time>2026-04-18T16:04:35.17Z</time></trkpt><trkpt lat="43.4609252" lon="10.618809"><ele>478.8</ele><time>2026-04-18T16:04:37.184Z</time></trkpt><trkpt lat="43.4608559" lon="10.618905"><ele>475.6</ele><time>2026-04-18T16:04:39.179Z</time></trkpt><trkpt lat="43.460782" lon="10.6189919"><ele>472.40000000000003</ele><time>2026-04-18T16:04:41.173Z</time></trkpt><trkpt lat="43.4607117" lon="10.6190766"><ele>469.20000000000005</ele><time>2026-04-18T16:04:43.171Z</time></trkpt><trkpt lat="43.4606458" lon="10.6191737"><ele>466.0</ele><time>2026-04-18T16:04:45.169Z</time></trkpt><trkpt lat="43.4605975" lon="10.6192673"><ele>466.00000000000006</ele><time>2026-04-18T16:04:47.174Z</time></trkpt><trkpt lat="43.4605605" lon="10.6193747"><ele>466.0</ele><time>2026-04-18T16:04:50.168Z</time></trkpt><trkpt lat="43.460551" lon="10.6194692"><ele>466.0</ele><time>2026-04-18T16:04:52.172Z</time></trkpt><trkpt lat="43.4605464" lon="10.6195749"><ele>466.0</ele><time>2026-04-18T16:04:54.178Z</time></trkpt><trkpt lat="43.4605364" lon="10.619706"><ele>466.00000000000006</ele><time>2026-04-18T16:04:56.175Z</time></trkpt><trkpt lat="43.4605013" lon="10.619862"><ele>466.0</ele><time>2026-04-18T16:04:58.161Z</time></trkpt><trkpt lat="43.4604624" lon="10.6199862"><ele>467.33333333333337</ele><time>2026-04-18T16:05:00.161Z</time></trkpt><trkpt lat="43.4604379" lon="10.6201018"><ele>468.6666666666667</ele><time>2026-04-18T16:05:02.166Z</time></trkpt><trkpt lat="43.4604081" lon="10.6202014"><ele>470.0</ele><time>2026-04-18T16:05:04.172Z</time></trkpt><trkpt lat="43.4603732" lon="10.6202956"><ele>471.33333333333337</ele><time>2026-04-18T16:05:06.19Z</time></trkpt><trkpt lat="43.4603285" lon="10.6204033"><ele>472.6666666666667</ele><time>2026-04-18T16:05:08.168Z</time></trkpt><trkpt lat="43.4602938" lon="10.6205044"><ele>474.0</ele><time>2026-04-18T16:05:10.173Z</time></trkpt><trkpt lat="43.4602484" lon="10.6206292"><ele>474.0</ele><time>2026-04-18T16:05:12.174Z</time></trkpt><trkpt lat="43.4602174" lon="10.6207605"><ele>474.0</ele><time>2026-04-18T16:05:14.176Z</time></trkpt><trkpt lat="43.4601926" lon="10.6208782"><ele>474.0</ele><time>2026-04-18T16:05:16.177Z</time></trkpt><trkpt lat="43.4601709" lon="10.6209907"><ele>474.0</ele><time>2026-04-18T16:05:18.167Z</time></trkpt><trkpt lat="43.4601216" lon="10.6211061"><ele>474.0</ele><time>2026-04-18T16:05:20.166Z</time></trkpt><trkpt lat="43.4600778" lon="10.6211985"><ele>470.6</ele><time>2026-04-18T16:05:22.169Z</time></trkpt><trkpt lat="43.4600189" lon="10.6213249"><ele>467.2</ele><time>2026-04-18T16:05:24.17Z</time></trkpt><trkpt lat="43.4599701" lon="10.6214751"><ele>463.80000000000007</ele><time>2026-04-18T16:05:26.178Z</time></trkpt><trkpt lat="43.459924" lon="10.6216015"><ele>460.40000000000003</ele><time>2026-04-18T16:05:28.158Z</time></trkpt><trkpt lat="43.4598895" lon="10.6217258"><ele>457.0</ele><time>2026-04-18T16:05:30.179Z</time></trkpt><trkpt lat="43.4598554" lon="10.621842"><ele>457.00000000000006</ele><time>2026-04-18T16:05:32.167Z</time></trkpt><trkpt lat="43.4598113" lon="10.6219391"><ele>457.0</ele><time>2026-04-18T16:05:34.161Z</time></trkpt><trkpt lat="43.4597655" lon="10.6220293"><ele>457.0</ele><time>2026-04-18T16:05:36.164Z</time></trkpt><trkpt lat="43.4597142" lon="10.6221356"><ele>457.0</ele><time>2026-04-18T16:05:38.164Z</time></trkpt><trkpt lat="43.4596711" lon="10.6222179"><ele>457.00000000000006</ele><time>2026-04-18T16:05:40.189Z</time></trkpt><trkpt lat="43.4596283" lon="10.6222901"><ele>457.0</ele><time>2026-04-18T16:05:42.173Z</time></trkpt><trkpt lat="43.4595455" lon="10.6223465"><ele>454.6666666666667</ele><time>2026-04-18T16:05:45.173Z</time></trkpt><trkpt lat="43.4594728" lon="10.6223588"><ele>452.33333333333337</ele><time>2026-04-18T16:05:47.175Z</time></trkpt><trkpt lat="43.4594023" lon="10.6223413"><ele>450.0</ele><time>2026-04-18T16:05:49.174Z</time></trkpt><trkpt lat="43.4593291" lon="10.6223105"><ele>447.66666666666663</ele><time>2026-04-18T16:05:51.183Z</time></trkpt><trkpt lat="43.4592174" lon="10.6222877"><ele>445.3333333333333</ele><time>2026-04-18T16:05:53.189Z</time></trkpt><trkpt lat="43.4591106" lon="10.6222669"><ele>443.0</ele><time>2026-04-18T16:05:55.165Z</time></trkpt><trkpt lat="43.4590212" lon="10.6222488"><ele>443.0</ele><time>2026-04-18T16:05:57.187Z</time></trkpt><trkpt lat="43.458956" lon="10.6222022"><ele>443.0</ele><time>2026-04-18T16:05:59.166Z</time></trkpt><trkpt lat="43.4589055" lon="10.6221392"><ele>443.0</ele><time>2026-04-18T16:06:01.183Z</time></trkpt><trkpt lat="43.4588667" lon="10.6220527"><ele>443.0</ele><time>2026-04-18T16:06:04.167Z</time></trkpt><trkpt lat="43.4588103" lon="10.6219784"><ele>443.0</ele><time>2026-04-18T16:06:07.184Z</time></trkpt><trkpt lat="43.4587659" lon="10.6218997"><ele>443.0</ele><time>2026-04-18T16:06:09.167Z</time></trkpt><trkpt lat="43.4587198" lon="10.6218249"><ele>443.0</ele><time>2026-04-18T16:06:11.181Z</time></trkpt><trkpt lat="43.4586664" lon="10.621736"><ele>441.3333333333333</ele><time>2026-04-18T16:06:13.169Z</time></trkpt><trkpt lat="43.4586128" lon="10.6216597"><ele>439.66666666666663</ele><time>2026-04-18T16:06:15.165Z</time></trkpt><trkpt lat="43.458551" lon="10.6215782"><ele>438.0</ele><time>2026-04-18T16:06:18.163Z</time></trkpt><trkpt lat="43.458505" lon="10.6215117"><ele>436.33333333333337</ele><time>2026-04-18T16:06:20.164Z</time></trkpt><trkpt lat="43.4584357" lon="10.6214302"><ele>434.6666666666667</ele><time>2026-04-18T16:06:23.179Z</time></trkpt><trkpt lat="43.4583753" lon="10.6213558"><ele>433.0</ele><time>2026-04-18T16:06:25.174Z</time></trkpt><trkpt lat="43.4583264" lon="10.6212621"><ele>435.59999999999997</ele><time>2026-04-18T16:06:27.167Z</time></trkpt><trkpt lat="43.458294" lon="10.6211147"><ele>438.19999999999993</ele><time>2026-04-18T16:06:29.169Z</time></trkpt><trkpt lat="43.4582566" lon="10.6209561"><ele>440.8</ele><time>2026-04-18T16:06:31.178Z</time></trkpt><trkpt lat="43.4582412" lon="10.6208689"><ele>443.4</ele><time>2026-04-18T16:06:32.168Z</time></trkpt><trkpt lat="43.4582237" lon="10.6207848"><ele>446.0</ele><time>2026-04-18T16:06:33.17Z</time></trkpt><trkpt lat="43.4582048" lon="10.6206243"><ele>446.0</ele><time>2026-04-18T16:06:35.169Z</time></trkpt><trkpt lat="43.4582233" lon="10.6204731"><ele>446.0</ele><time>2026-04-18T16:06:37.178Z</time></trkpt><trkpt lat="43.45825" lon="10.6203434"><ele>446.0</ele><time>2026-04-18T16:06:39.177Z</time></trkpt><trkpt lat="43.4582837" lon="10.6202383"><ele>446.0</ele><time>2026-04-18T16:06:41.179Z</time></trkpt><trkpt lat="43.458311" lon="10.6201406"><ele>446.0</ele><time>2026-04-18T16:06:43.168Z</time></trkpt><trkpt lat="43.4583527" lon="10.6200273"><ele>445.99999999999994</ele><time>2026-04-18T16:06:45.175Z</time></trkpt><trkpt lat="43.458386" lon="10.6199359"><ele>446.0</ele><time>2026-04-18T16:06:47.169Z</time></trkpt><trkpt lat="43.458396" lon="10.6198147"><ele>446.0</ele><time>2026-04-18T16:06:50.173Z</time></trkpt><trkpt lat="43.4583857" lon="10.6197284"><ele>446.0</ele><time>2026-04-18T16:06:52.168Z</time></trkpt><trkpt lat="43.4583987" lon="10.6196149"><ele>445.99999999999994</ele><time>2026-04-18T16:06:55.17Z</time></trkpt><trkpt lat="43.4584247" lon="10.6195089"><ele>446.0</ele><time>2026-04-18T16:06:58.164Z</time></trkpt><trkpt lat="43.4584155" lon="10.6193698"><ele>445.99999999999994</ele><time>2026-04-18T16:07:01.17Z</time></trkpt><trkpt lat="43.458406" lon="10.619252"><ele>446.0</ele><time>2026-04-18T16:07:03.169Z</time></trkpt><trkpt lat="43.4583756" lon="10.619156"><ele>446.0</ele><time>2026-04-18T16:07:05.165Z</time></trkpt><trkpt lat="43.4583258" lon="10.619078"><ele>446.0</ele><time>2026-04-18T16:07:07.166Z</time></trkpt><trkpt lat="43.4582826" lon="10.6189839"><ele>445.99999999999994</ele><time>2026-04-18T16:07:09.175Z</time></trkpt><trkpt lat="43.4582606" lon="10.618877"><ele>446.0</ele><time>2026-04-18T16:07:11.173Z</time></trkpt><trkpt lat="43.4582473" lon="10.6187551"><ele>446.0</ele><time>2026-04-18T16:07:13.167Z</time></trkpt><trkpt lat="43.4582432" lon="10.61866"><ele>446.0</ele><time>2026-04-18T16:07:15.179Z</time></trkpt><trkpt lat="43.4582304" lon="10.6185632"><ele>446.0</ele><time>2026-04-18T16:07:17.164Z</time></trkpt><trkpt lat="43.4582006" lon="10.6184627"><ele>446.0</ele><time>2026-04-18T16:07:19.16Z</time></trkpt><trkpt lat="43.4581881" lon="10.6183576"><ele>446.0</ele><time>2026-04-18T16:07:21.178Z</time></trkpt><trkpt lat="43.4581718" lon="10.6182609"><ele>446.0</ele><time>2026-04-18T16:07:23.16Z</time></trkpt><trkpt lat="43.4581623" lon="10.6181739"><ele>446.0</ele><time>2026-04-18T16:07:25.17Z</time></trkpt><trkpt lat="43.4581617" lon="10.6180561"><ele>447.16666666666663</ele><time>2026-04-18T16:07:28.175Z</time></trkpt><trkpt lat="43.4581662" lon="10.6179414"><ele>448.3333333333333</ele><time>2026-04-18T16:07:31.161Z</time></trkpt><trkpt lat="43.4581145" lon="10.6178419"><ele>449.5</ele><time>2026-04-18T16:07:35.163Z</time></trkpt><trkpt lat="43.4580942" lon="10.6177582"><ele>450.66666666666663</ele><time>2026-04-18T16:07:42.174Z</time></trkpt><trkpt lat="43.4580585" lon="10.6176517"><ele>451.8333333333333</ele><time>2026-04-18T16:07:47.174Z</time></trkpt><trkpt lat="43.4580182" lon="10.6175581"><ele>453.0</ele><time>2026-04-18T16:07:50.189Z</time></trkpt><trkpt lat="43.4579976" lon="10.6174602"><ele>453.71428571428567</ele><time>2026-04-18T16:07:55.177Z</time></trkpt><trkpt lat="43.4579723" lon="10.61737"><ele>454.42857142857144</ele><time>2026-04-18T16:09:10.163Z</time></trkpt><trkpt lat="43.4579481" lon="10.6172724"><ele>455.1428571428571</ele><time>2026-04-18T16:09:16.174Z</time></trkpt><trkpt lat="43.4579164" lon="10.6171817"><ele>455.85714285714283</ele><time>2026-04-18T16:09:20.165Z</time></trkpt><trkpt lat="43.45789" lon="10.6171005"><ele>456.57142857142856</ele><time>2026-04-18T16:09:23.175Z</time></trkpt><trkpt lat="43.4578979" lon="10.6169692"><ele>457.2857142857143</ele><time>2026-04-18T16:09:26.168Z</time></trkpt><trkpt lat="43.4579132" lon="10.6168795"><ele>458.0</ele><time>2026-04-18T16:09:28.178Z</time></trkpt><trkpt lat="43.4579339" lon="10.6167952"><ele>453.49999999999994</ele><time>2026-04-18T16:09:30.159Z</time></trkpt><trkpt lat="43.4579357" lon="10.6166872"><ele>449.0</ele><time>2026-04-18T16:09:33.169Z</time></trkpt><trkpt lat="43.4579081" lon="10.6165658"><ele>444.5</ele><time>2026-04-18T16:09:36.154Z</time></trkpt><trkpt lat="43.4578833" lon="10.6164753"><ele>440.0</ele><time>2026-04-18T16:09:38.175Z</time></trkpt><trkpt lat="43.4578574" lon="10.616374"><ele>435.49999999999994</ele><time>2026-04-18T16:09:40.168Z</time></trkpt><trkpt lat="43.4578128" lon="10.6162659"><ele>431.0</ele><time>2026-04-18T16:09:42.179Z</time></trkpt><trkpt lat="43.4577607" lon="10.6160524"><ele>430.99999999999994</ele><time>2026-04-18T16:09:44.18Z</time></trkpt><trkpt lat="43.4577428" lon="10.6159584"><ele>431.0</ele><time>2026-04-18T16:09:45.176Z</time></trkpt><trkpt lat="43.4577098" lon="10.6158375"><ele>431.0</ele><time>2026-04-18T16:09:46.168Z</time></trkpt><trkpt lat="43.4576799" lon="10.6156908"><ele>431.0</ele><time>2026-04-18T16:09:48.171Z</time></trkpt><trkpt lat="43.457667" lon="10.6155788"><ele>430.99999999999994</ele><time>2026-04-18T16:09:50.164Z</time></trkpt><trkpt lat="43.4576702" lon="10.6154745"><ele>431.0</ele><time>2026-04-18T16:09:52.17Z</time></trkpt><trkpt lat="43.457692" lon="10.6153538"><ele>432.0</ele><time>2026-04-18T16:09:55.169Z</time></trkpt><trkpt lat="43.4576872" lon="10.6152379"><ele>433.0</ele><time>2026-04-18T16:09:57.162Z</time></trkpt><trkpt lat="43.4576552" lon="10.615134"><ele>434.0</ele><time>2026-04-18T16:09:59.164Z</time></trkpt><trkpt lat="43.4576007" lon="10.614978"><ele>435.0</ele><time>2026-04-18T16:10:01.176Z</time></trkpt><trkpt lat="43.4575739" lon="10.6148993"><ele>436.0</ele><time>2026-04-18T16:10:02.166Z</time></trkpt><trkpt lat="43.4575382" lon="10.6147238"><ele>436.00000000000006</ele><time>2026-04-18T16:10:04.17Z</time></trkpt><trkpt lat="43.4575208" lon="10.6146342"><ele>436.0</ele><time>2026-04-18T16:10:05.172Z</time></trkpt><trkpt lat="43.4574996" lon="10.6145118"><ele>436.0</ele><time>2026-04-18T16:10:07.168Z</time></trkpt><trkpt lat="43.4574857" lon="10.6143953"><ele>436.0</ele><time>2026-04-18T16:10:09.183Z</time></trkpt><trkpt lat="43.4574803" lon="10.614286"><ele>436.00000000000006</ele><time>2026-04-18T16:10:11.177Z</time></trkpt><trkpt lat="43.4574718" lon="10.6141794"><ele>436.0</ele><time>2026-04-18T16:10:13.176Z</time></trkpt><trkpt lat="43.4574667" lon="10.6140788"><ele>436.20000000000005</ele><time>2026-04-18T16:10:15.185Z</time></trkpt><trkpt lat="43.4574913" lon="10.613955"><ele>436.40000000000003</ele><time>2026-04-18T16:10:17.176Z</time></trkpt><trkpt lat="43.4575139" lon="10.6138063"><ele>436.6</ele><time>2026-04-18T16:10:19.179Z</time></trkpt><trkpt lat="43.4575307" lon="10.613714"><ele>436.8</ele><time>2026-04-18T16:10:20.168Z</time></trkpt><trkpt lat="43.4575491" lon="10.6135686"><ele>437.0</ele><time>2026-04-18T16:10:22.175Z</time></trkpt><trkpt lat="43.457577" lon="10.6134489"><ele>435.66666666666663</ele><time>2026-04-18T16:10:24.178Z</time></trkpt><trkpt lat="43.4576072" lon="10.6133445"><ele>434.3333333333333</ele><time>2026-04-18T16:10:26.166Z</time></trkpt><trkpt lat="43.4576524" lon="10.6132263"><ele>433.0</ele><time>2026-04-18T16:10:29.178Z</time></trkpt><trkpt lat="43.4577166" lon="10.6131486"><ele>431.66666666666663</ele><time>2026-04-18T16:10:32.159Z</time></trkpt><trkpt lat="43.4577783" lon="10.613114"><ele>430.3333333333333</ele><time>2026-04-18T16:10:34.164Z</time></trkpt><trkpt lat="43.4578485" lon="10.6131057"><ele>429.0</ele><time>2026-04-18T16:10:36.181Z</time></trkpt><trkpt lat="43.4579155" lon="10.6130801"><ele>432.1666666666667</ele><time>2026-04-18T16:10:38.177Z</time></trkpt><trkpt lat="43.4579848" lon="10.613004"><ele>435.33333333333337</ele><time>2026-04-18T16:10:41.175Z</time></trkpt><trkpt lat="43.4580231" lon="10.6129197"><ele>438.5</ele><time>2026-04-18T16:10:44.179Z</time></trkpt><trkpt lat="43.4580744" lon="10.6128656"><ele>441.6666666666667</ele><time>2026-04-18T16:11:05.16Z</time></trkpt><trkpt lat="43.4580814" lon="10.6127635"><ele>444.83333333333337</ele><time>2026-04-18T16:12:02.174Z</time></trkpt><trkpt lat="43.4580627" lon="10.6126745"><ele>448.0</ele><time>2026-04-18T16:13:46.179Z</time></trkpt><trkpt lat="43.4580725" lon="10.6125613"><ele>448.00000000000006</ele><time>2026-04-18T16:14:32.176Z</time></trkpt><trkpt lat="43.4580943" lon="10.612447"><ele>448.0</ele><time>2026-04-18T16:14:35.173Z</time></trkpt><trkpt lat="43.4581141" lon="10.6123367"><ele>448.0</ele><time>2026-04-18T16:14:38.171Z</time></trkpt><trkpt lat="43.4581235" lon="10.6122082"><ele>448.0</ele><time>2026-04-18T16:14:41.186Z</time></trkpt><trkpt lat="43.4581228" lon="10.6121048"><ele>448.00000000000006</ele><time>2026-04-18T16:14:43.187Z</time></trkpt><trkpt lat="43.4581246" lon="10.6120054"><ele>448.0</ele><time>2026-04-18T16:14:45.189Z</time></trkpt><trkpt lat="43.4581365" lon="10.611906"><ele>446.1666666666667</ele><time>2026-04-18T16:14:47.181Z</time></trkpt><trkpt lat="43.4581847" lon="10.6117675"><ele>444.33333333333337</ele><time>2026-04-18T16:14:49.174Z</time></trkpt><trkpt lat="43.458232" lon="10.6116884"><ele>442.5</ele><time>2026-04-18T16:14:51.179Z</time></trkpt><trkpt lat="43.4582928" lon="10.611655"><ele>440.66666666666663</ele><time>2026-04-18T16:14:53.184Z</time></trkpt><trkpt lat="43.4583645" lon="10.6116255"><ele>438.8333333333333</ele><time>2026-04-18T16:14:56.177Z</time></trkpt><trkpt lat="43.4584287" lon="10.6115892"><ele>437.0</ele><time>2026-04-18T16:15:03.178Z</time></trkpt><trkpt lat="43.4584724" lon="10.6115259"><ele>437.0</ele><time>2026-04-18T16:15:09.168Z</time></trkpt><trkpt lat="43.4584046" lon="10.6115651"><ele>437.0</ele><time>2026-04-18T16:15:39.175Z</time></trkpt><trkpt lat="43.4583406" lon="10.6115858"><ele>437.0</ele><time>2026-04-18T16:15:45.17Z</time></trkpt><trkpt lat="43.458282" lon="10.6116288"><ele>437.0</ele><time>2026-04-18T16:16:07.176Z</time></trkpt><trkpt lat="43.4582258" lon="10.6116726"><ele>437.0</ele><time>2026-04-18T16:16:10.162Z</time></trkpt><trkpt lat="43.4581852" lon="10.6117701"><ele>437.0</ele><time>2026-04-18T16:16:13.178Z</time></trkpt><trkpt lat="43.458168" lon="10.6118664"><ele>437.0</ele><time>2026-04-18T16:16:15.176Z</time></trkpt><trkpt lat="43.4581466" lon="10.6119912"><ele>438.8333333333333</ele><time>2026-04-18T16:16:18.179Z</time></trkpt><trkpt lat="43.4581306" lon="10.6120795"><ele>440.66666666666663</ele><time>2026-04-18T16:16:20.173Z</time></trkpt><trkpt lat="43.4581124" lon="10.6121778"><ele>442.5</ele><time>2026-04-18T16:16:22.174Z</time></trkpt><trkpt lat="43.4580889" lon="10.6122773"><ele>444.33333333333337</ele><time>2026-04-18T16:16:24.181Z</time></trkpt><trkpt lat="43.4580649" lon="10.6123761"><ele>446.1666666666667</ele><time>2026-04-18T16:16:26.175Z</time></trkpt><trkpt lat="43.4580359" lon="10.6125058"><ele>448.0</ele><time>2026-04-18T16:16:28.181Z</time></trkpt><trkpt lat="43.4580037" lon="10.6126209"><ele>448.00000000000006</ele><time>2026-04-18T16:16:30.182Z</time></trkpt><trkpt lat="43.4579653" lon="10.6127278"><ele>448.0</ele><time>2026-04-18T16:16:32.176Z</time></trkpt><trkpt lat="43.4579184" lon="10.6128125"><ele>448.0</ele><time>2026-04-18T16:16:34.182Z</time></trkpt><trkpt lat="43.4578521" lon="10.6128581"><ele>448.0</ele><time>2026-04-18T16:16:36.165Z</time></trkpt><trkpt lat="43.4577808" lon="10.6128997"><ele>448.00000000000006</ele><time>2026-04-18T16:16:38.19Z</time></trkpt><trkpt lat="43.4577101" lon="10.61295"><ele>448.0</ele><time>2026-04-18T16:16:40.168Z</time></trkpt><trkpt lat="43.4576429" lon="10.6130086"><ele>444.83333333333337</ele><time>2026-04-18T16:16:42.171Z</time></trkpt><trkpt lat="43.4575821" lon="10.6130867"><ele>441.6666666666667</ele><time>2026-04-18T16:16:44.17Z</time></trkpt><trkpt lat="43.4575318" lon="10.6131874"><ele>438.5</ele><time>2026-04-18T16:16:46.169Z</time></trkpt><trkpt lat="43.4574917" lon="10.6132982"><ele>435.33333333333337</ele><time>2026-04-18T16:16:48.173Z</time></trkpt><trkpt lat="43.4574559" lon="10.6134053"><ele>432.1666666666667</ele><time>2026-04-18T16:16:50.172Z</time></trkpt><trkpt lat="43.457428" lon="10.6135057"><ele>429.0</ele><time>2026-04-18T16:16:52.174Z</time></trkpt><trkpt lat="43.4574106" lon="10.6135965"><ele>430.3333333333333</ele><time>2026-04-18T16:16:54.179Z</time></trkpt><trkpt lat="43.4573908" lon="10.61369"><ele>431.66666666666663</ele><time>2026-04-18T16:16:56.185Z</time></trkpt><trkpt lat="43.4573753" lon="10.6138126"><ele>433.0</ele><time>2026-04-18T16:16:58.175Z</time></trkpt><trkpt lat="43.4573637" lon="10.6139274"><ele>434.3333333333333</ele><time>2026-04-18T16:17:00.175Z</time></trkpt><trkpt lat="43.457359" lon="10.614058"><ele>435.66666666666663</ele><time>2026-04-18T16:17:02.17Z</time></trkpt><trkpt lat="43.4573629" lon="10.6141746"><ele>437.0</ele><time>2026-04-18T16:17:04.174Z</time></trkpt><trkpt lat="43.457372" lon="10.6142943"><ele>436.99999999999994</ele><time>2026-04-18T16:17:06.178Z</time></trkpt><trkpt lat="43.4573752" lon="10.6144081"><ele>437.0</ele><time>2026-04-18T16:17:08.19Z</time></trkpt><trkpt lat="43.4573936" lon="10.6145301"><ele>437.0</ele><time>2026-04-18T16:17:10.174Z</time></trkpt><trkpt lat="43.4574152" lon="10.6146384"><ele>437.0</ele><time>2026-04-18T16:17:12.181Z</time></trkpt><trkpt lat="43.4574433" lon="10.6147421"><ele>436.99999999999994</ele><time>2026-04-18T16:17:14.183Z</time></trkpt><trkpt lat="43.4574715" lon="10.614838"><ele>437.0</ele><time>2026-04-18T16:17:16.172Z</time></trkpt><trkpt lat="43.4574896" lon="10.6149618"><ele>436.8</ele><time>2026-04-18T16:17:18.166Z</time></trkpt><trkpt lat="43.4574835" lon="10.6150893"><ele>436.6</ele><time>2026-04-18T16:17:20.172Z</time></trkpt><trkpt lat="43.4574853" lon="10.6152087"><ele>436.40000000000003</ele><time>2026-04-18T16:17:22.162Z</time></trkpt><trkpt lat="43.4575118" lon="10.615325"><ele>436.20000000000005</ele><time>2026-04-18T16:17:24.179Z</time></trkpt><trkpt lat="43.4575516" lon="10.6154436"><ele>436.0</ele><time>2026-04-18T16:17:26.178Z</time></trkpt><trkpt lat="43.4576158" lon="10.6155702"><ele>435.0</ele><time>2026-04-18T16:17:28.165Z</time></trkpt><trkpt lat="43.4576737" lon="10.6156793"><ele>434.0</ele><time>2026-04-18T16:17:30.167Z</time></trkpt><trkpt lat="43.4577234" lon="10.615805"><ele>433.0</ele><time>2026-04-18T16:17:32.182Z</time></trkpt><trkpt lat="43.4577699" lon="10.6159203"><ele>432.0</ele><time>2026-04-18T16:17:34.166Z</time></trkpt><trkpt lat="43.4578056" lon="10.6160365"><ele>431.0</ele><time>2026-04-18T16:17:36.175Z</time></trkpt><trkpt lat="43.4578472" lon="10.6161619"><ele>430.0</ele><time>2026-04-18T16:17:38.175Z</time></trkpt><trkpt lat="43.4578724" lon="10.6163152"><ele>429.0</ele><time>2026-04-18T16:17:40.172Z</time></trkpt><trkpt lat="43.457864" lon="10.6164758"><ele>428.0</ele><time>2026-04-18T16:17:42.175Z</time></trkpt><trkpt lat="43.4578498" lon="10.6165616"><ele>427.0</ele><time>2026-04-18T16:17:43.177Z</time></trkpt><trkpt lat="43.4578361" lon="10.6167136"><ele>426.0</ele><time>2026-04-18T16:17:45.175Z</time></trkpt><trkpt lat="43.4578358" lon="10.6168886"><ele>426.25</ele><time>2026-04-18T16:17:47.179Z</time></trkpt><trkpt lat="43.4578351" lon="10.6170583"><ele>426.5</ele><time>2026-04-18T16:17:49.174Z</time></trkpt><trkpt lat="43.457836" lon="10.6172258"><ele>426.75</ele><time>2026-04-18T16:17:51.153Z</time></trkpt><trkpt lat="43.4578424" lon="10.6173847"><ele>427.0</ele><time>2026-04-18T16:17:53.172Z</time></trkpt><trkpt lat="43.4578428" lon="10.6175319"><ele>427.00000000000006</ele><time>2026-04-18T16:17:55.177Z</time></trkpt><trkpt lat="43.4578585" lon="10.6176659"><ele>427.0</ele><time>2026-04-18T16:17:57.177Z</time></trkpt><trkpt lat="43.4578786" lon="10.6177627"><ele>427.0</ele><time>2026-04-18T16:17:59.176Z</time></trkpt><trkpt lat="43.4579018" lon="10.6178478"><ele>427.0</ele><time>2026-04-18T16:18:01.17Z</time></trkpt><trkpt lat="43.4579342" lon="10.6179342"><ele>427.00000000000006</ele><time>2026-04-18T16:18:03.163Z</time></trkpt><trkpt lat="43.4579649" lon="10.6180284"><ele>427.0</ele><time>2026-04-18T16:18:05.169Z</time></trkpt><trkpt lat="43.4579945" lon="10.618137"><ele>430.8</ele><time>2026-04-18T16:18:07.179Z</time></trkpt><trkpt lat="43.4580399" lon="10.6182649"><ele>434.6</ele><time>2026-04-18T16:18:09.176Z</time></trkpt><trkpt lat="43.4580829" lon="10.6183691"><ele>438.40000000000003</ele><time>2026-04-18T16:18:11.171Z</time></trkpt><trkpt lat="43.4581344" lon="10.6184811"><ele>442.20000000000005</ele><time>2026-04-18T16:18:13.176Z</time></trkpt><trkpt lat="43.4582021" lon="10.6185837"><ele>446.0</ele><time>2026-04-18T16:18:15.174Z</time></trkpt><trkpt lat="43.4582572" lon="10.6186883"><ele>445.99999999999994</ele><time>2026-04-18T16:18:17.174Z</time></trkpt><trkpt lat="43.4582883" lon="10.61882"><ele>446.0</ele><time>2026-04-18T16:18:19.174Z</time></trkpt><trkpt lat="43.4582896" lon="10.6189384"><ele>446.0</ele><time>2026-04-18T16:18:21.17Z</time></trkpt><trkpt lat="43.4582922" lon="10.619066"><ele>446.0</ele><time>2026-04-18T16:18:23.171Z</time></trkpt><trkpt lat="43.458284" lon="10.619186"><ele>445.99999999999994</ele><time>2026-04-18T16:18:25.171Z</time></trkpt><trkpt lat="43.4582776" lon="10.6192813"><ele>446.0</ele><time>2026-04-18T16:18:27.18Z</time></trkpt><trkpt lat="43.4582725" lon="10.6194044"><ele>446.3333333333333</ele><time>2026-04-18T16:18:29.175Z</time></trkpt><trkpt lat="43.4582657" lon="10.6195072"><ele>446.66666666666663</ele><time>2026-04-18T16:18:31.182Z</time></trkpt><trkpt lat="43.4582594" lon="10.6196106"><ele>447.0</ele><time>2026-04-18T16:18:33.179Z</time></trkpt><trkpt lat="43.4582389" lon="10.6197241"><ele>447.33333333333337</ele><time>2026-04-18T16:18:35.185Z</time></trkpt><trkpt lat="43.4582163" lon="10.6198499"><ele>447.6666666666667</ele><time>2026-04-18T16:18:37.183Z</time></trkpt><trkpt lat="43.4581859" lon="10.6199752"><ele>448.0</ele><time>2026-04-18T16:18:39.168Z</time></trkpt><trkpt lat="43.4581594" lon="10.6200869"><ele>448.0</ele><time>2026-04-18T16:18:41.17Z</time></trkpt><trkpt lat="43.4581455" lon="10.620198"><ele>447.99999999999994</ele><time>2026-04-18T16:18:43.179Z</time></trkpt><trkpt lat="43.4581269" lon="10.6203326"><ele>447.99999999999994</ele><time>2026-04-18T16:18:45.16Z</time></trkpt><trkpt lat="43.4581396" lon="10.6204807"><ele>448.0</ele><time>2026-04-18T16:18:47.172Z</time></trkpt><trkpt lat="43.4581701" lon="10.6206601"><ele>448.0</ele><time>2026-04-18T16:18:49.195Z</time></trkpt><trkpt lat="43.4581906" lon="10.6207769"><ele>447.6666666666667</ele><time>2026-04-18T16:18:50.163Z</time></trkpt><trkpt lat="43.4582129" lon="10.6208919"><ele>447.33333333333337</ele><time>2026-04-18T16:18:51.161Z</time></trkpt><trkpt lat="43.4582383" lon="10.6209989"><ele>447.0</ele><time>2026-04-18T16:18:52.163Z</time></trkpt><trkpt lat="43.4582732" lon="10.621098"><ele>446.66666666666663</ele><time>2026-04-18T16:18:53.184Z</time></trkpt><trkpt lat="43.4583172" lon="10.6211919"><ele>446.3333333333333</ele><time>2026-04-18T16:18:54.171Z</time></trkpt><trkpt lat="43.4583848" lon="10.6213155"><ele>446.0</ele><time>2026-04-18T16:18:56.174Z</time></trkpt><trkpt lat="43.4584418" lon="10.6214145"><ele>445.57142857142856</ele><time>2026-04-18T16:18:58.165Z</time></trkpt><trkpt lat="43.4584863" lon="10.6214858"><ele>445.1428571428571</ele><time>2026-04-18T16:19:00.167Z</time></trkpt><trkpt lat="43.4585349" lon="10.6215848"><ele>444.7142857142857</ele><time>2026-04-18T16:19:03.181Z</time></trkpt><trkpt lat="43.4585785" lon="10.6216505"><ele>444.2857142857143</ele><time>2026-04-18T16:19:05.173Z</time></trkpt><trkpt lat="43.4586419" lon="10.6217362"><ele>443.8571428571429</ele><time>2026-04-18T16:19:08.166Z</time></trkpt><trkpt lat="43.458691" lon="10.6218085"><ele>443.42857142857144</ele><time>2026-04-18T16:19:10.172Z</time></trkpt><trkpt lat="43.4587386" lon="10.621877"><ele>443.0</ele><time>2026-04-18T16:19:12.167Z</time></trkpt><trkpt lat="43.4587973" lon="10.6219831"><ele>443.0</ele><time>2026-04-18T16:19:15.172Z</time></trkpt><trkpt lat="43.4588308" lon="10.6220606"><ele>443.0</ele><time>2026-04-18T16:19:17.173Z</time></trkpt><trkpt lat="43.4588698" lon="10.6221304"><ele>443.0</ele><time>2026-04-18T16:19:19.173Z</time></trkpt><trkpt lat="43.4589194" lon="10.6221981"><ele>443.0</ele><time>2026-04-18T16:19:21.183Z</time></trkpt><trkpt lat="43.4589895" lon="10.622254"><ele>443.0</ele><time>2026-04-18T16:19:23.184Z</time></trkpt><trkpt lat="43.4590651" lon="10.622281"><ele>443.0</ele><time>2026-04-18T16:19:25.174Z</time></trkpt><trkpt lat="43.4591386" lon="10.6222907"><ele>443.0</ele><time>2026-04-18T16:19:27.177Z</time></trkpt><trkpt lat="43.4592145" lon="10.622297"><ele>442.99999999999994</ele><time>2026-04-18T16:19:29.176Z</time></trkpt><trkpt lat="43.4593" lon="10.6223122"><ele>443.0</ele><time>2026-04-18T16:19:31.178Z</time></trkpt><trkpt lat="43.4593851" lon="10.6223296"><ele>443.0</ele><time>2026-04-18T16:19:33.18Z</time></trkpt><trkpt lat="43.4594653" lon="10.6223348"><ele>443.0</ele><time>2026-04-18T16:19:35.187Z</time></trkpt><trkpt lat="43.4595397" lon="10.6223134"><ele>442.99999999999994</ele><time>2026-04-18T16:19:37.179Z</time></trkpt><trkpt lat="43.4596057" lon="10.6222619"><ele>443.0</ele><time>2026-04-18T16:19:39.187Z</time></trkpt><trkpt lat="43.4596564" lon="10.6221936"><ele>441.42857142857144</ele><time>2026-04-18T16:19:41.166Z</time></trkpt><trkpt lat="43.4596991" lon="10.6221159"><ele>439.8571428571429</ele><time>2026-04-18T16:19:43.168Z</time></trkpt><trkpt lat="43.4597358" lon="10.6220352"><ele>438.2857142857143</ele><time>2026-04-18T16:19:45.182Z</time></trkpt><trkpt lat="43.4597636" lon="10.6219422"><ele>436.7142857142857</ele><time>2026-04-18T16:19:47.187Z</time></trkpt><trkpt lat="43.4597893" lon="10.6218448"><ele>435.1428571428571</ele><time>2026-04-18T16:19:49.178Z</time></trkpt><trkpt lat="43.4598155" lon="10.6217438"><ele>433.57142857142856</ele><time>2026-04-18T16:19:51.18Z</time></trkpt><trkpt lat="43.4598515" lon="10.6216459"><ele>432.0</ele><time>2026-04-18T16:19:53.191Z</time></trkpt><trkpt lat="43.4598851" lon="10.6215442"><ele>436.1666666666667</ele><time>2026-04-18T16:19:55.18Z</time></trkpt><trkpt lat="43.4599181" lon="10.6214515"><ele>440.33333333333337</ele><time>2026-04-18T16:19:57.176Z</time></trkpt><trkpt lat="43.4599658" lon="10.6213587"><ele>444.5</ele><time>2026-04-18T16:19:59.177Z</time></trkpt><trkpt lat="43.4600072" lon="10.6212584"><ele>448.6666666666667</ele><time>2026-04-18T16:20:01.173Z</time></trkpt><trkpt lat="43.4600422" lon="10.6211469"><ele>452.83333333333337</ele><time>2026-04-18T16:20:03.172Z</time></trkpt><trkpt lat="43.4600727" lon="10.6210334"><ele>457.0</ele><time>2026-04-18T16:20:05.178Z</time></trkpt><trkpt lat="43.4600974" lon="10.6209196"><ele>459.83333333333337</ele><time>2026-04-18T16:20:07.182Z</time></trkpt><trkpt lat="43.4601324" lon="10.6208091"><ele>462.6666666666667</ele><time>2026-04-18T16:20:09.17Z</time></trkpt><trkpt lat="43.4601621" lon="10.6206961"><ele>465.5</ele><time>2026-04-18T16:20:11.175Z</time></trkpt><trkpt lat="43.4601868" lon="10.6205848"><ele>468.33333333333337</ele><time>2026-04-18T16:20:13.179Z</time></trkpt><trkpt lat="43.4602172" lon="10.6204762"><ele>471.1666666666667</ele><time>2026-04-18T16:20:15.175Z</time></trkpt><trkpt lat="43.460262" lon="10.6203626"><ele>474.0</ele><time>2026-04-18T16:20:17.165Z</time></trkpt><trkpt lat="43.4602871" lon="10.6202512"><ele>476.5</ele><time>2026-04-18T16:20:19.171Z</time></trkpt><trkpt lat="43.4603255" lon="10.620135"><ele>479.0</ele><time>2026-04-18T16:20:21.167Z</time></trkpt><trkpt lat="43.460373" lon="10.6200224"><ele>481.5</ele><time>2026-04-18T16:20:23.171Z</time></trkpt><trkpt lat="43.4604078" lon="10.6199167"><ele>484.0</ele><time>2026-04-18T16:20:25.173Z</time></trkpt><trkpt lat="43.4604371" lon="10.619808"><ele>486.5</ele><time>2026-04-18T16:20:27.182Z</time></trkpt><trkpt lat="43.4604622" lon="10.6196892"><ele>489.0</ele><time>2026-04-18T16:20:29.178Z</time></trkpt><trkpt lat="43.4604821" lon="10.6195787"><ele>485.1666666666667</ele><time>2026-04-18T16:20:31.184Z</time></trkpt><trkpt lat="43.4604994" lon="10.6194591"><ele>481.33333333333337</ele><time>2026-04-18T16:20:33.176Z</time></trkpt><trkpt lat="43.4605322" lon="10.6193541"><ele>477.5</ele><time>2026-04-18T16:20:35.179Z</time></trkpt><trkpt lat="43.4605799" lon="10.6192467"><ele>473.6666666666667</ele><time>2026-04-18T16:20:37.176Z</time></trkpt><trkpt lat="43.4606549" lon="10.6191681"><ele>469.83333333333337</ele><time>2026-04-18T16:20:39.178Z</time></trkpt><trkpt lat="43.4607238" lon="10.619095"><ele>466.0</ele><time>2026-04-18T16:20:41.172Z</time></trkpt><trkpt lat="43.4607837" lon="10.6189983"><ele>466.0</ele><time>2026-04-18T16:20:43.173Z</time></trkpt><trkpt lat="43.4608492" lon="10.6188932"><ele>466.0</ele><time>2026-04-18T16:20:45.166Z</time></trkpt><trkpt lat="43.4609182" lon="10.6187746"><ele>466.0</ele><time>2026-04-18T16:20:47.189Z</time></trkpt><trkpt lat="43.4609768" lon="10.6186456"><ele>466.0</ele><time>2026-04-18T16:20:49.184Z</time></trkpt><trkpt lat="43.4610288" lon="10.6185182"><ele>466.0</ele><time>2026-04-18T16:20:51.185Z</time></trkpt><trkpt lat="43.4610621" lon="10.6183645"><ele>469.20000000000005</ele><time>2026-04-18T16:20:53.169Z</time></trkpt><trkpt lat="43.461075" lon="10.6181979"><ele>472.40000000000003</ele><time>2026-04-18T16:20:55.167Z</time></trkpt><trkpt lat="43.4610526" lon="10.618043"><ele>475.6</ele><time>2026-04-18T16:20:57.169Z</time></trkpt><trkpt lat="43.4610149" lon="10.6179013"><ele>478.8</ele><time>2026-04-18T16:20:59.177Z</time></trkpt><trkpt lat="43.4610203" lon="10.617782"><ele>482.0</ele><time>2026-04-18T16:21:01.181Z</time></trkpt><trkpt lat="43.4610545" lon="10.6176916"><ele>483.75</ele><time>2026-04-18T16:21:03.158Z</time></trkpt><trkpt lat="43.4611296" lon="10.6175786"><ele>485.5</ele><time>2026-04-18T16:21:05.167Z</time></trkpt><trkpt lat="43.4612137" lon="10.617459"><ele>487.25</ele><time>2026-04-18T16:21:07.18Z</time></trkpt><trkpt lat="43.4613114" lon="10.6173578"><ele>489.0</ele><time>2026-04-18T16:21:09.179Z</time></trkpt><trkpt lat="43.4613988" lon="10.6172583"><ele>485.2</ele><time>2026-04-18T16:21:11.194Z</time></trkpt><trkpt lat="43.4614694" lon="10.6171443"><ele>481.4</ele><time>2026-04-18T16:21:13.172Z</time></trkpt><trkpt lat="43.4615224" lon="10.6170221"><ele>477.6</ele><time>2026-04-18T16:21:15.182Z</time></trkpt><trkpt lat="43.4615712" lon="10.616889"><ele>473.8</ele><time>2026-04-18T16:21:17.179Z</time></trkpt><trkpt lat="43.4616274" lon="10.6167476"><ele>470.0</ele><time>2026-04-18T16:21:19.175Z</time></trkpt><trkpt lat="43.4616804" lon="10.6166103"><ele>470.0</ele><time>2026-04-18T16:21:21.178Z</time></trkpt><trkpt lat="43.4617499" lon="10.6164958"><ele>470.0</ele><time>2026-04-18T16:21:23.18Z</time></trkpt><trkpt lat="43.4618244" lon="10.6163849"><ele>470.0</ele><time>2026-04-18T16:21:25.19Z</time></trkpt><trkpt lat="43.4618773" lon="10.6162834"><ele>470.0</ele><time>2026-04-18T16:21:27.178Z</time></trkpt><trkpt lat="43.461947" lon="10.61617"><ele>470.0</ele><time>2026-04-18T16:21:29.181Z</time></trkpt><trkpt lat="43.4620001" lon="10.6160823"><ele>468.6</ele><time>2026-04-18T16:21:31.179Z</time></trkpt><trkpt lat="43.4620603" lon="10.6160441"><ele>467.2</ele><time>2026-04-18T16:21:33.163Z</time></trkpt><trkpt lat="43.4621547" lon="10.6160927"><ele>465.79999999999995</ele><time>2026-04-18T16:21:36.175Z</time></trkpt><trkpt lat="43.4622158" lon="10.6161746"><ele>464.4</ele><time>2026-04-18T16:21:38.162Z</time></trkpt><trkpt lat="43.462304" lon="10.6163065"><ele>463.0</ele><time>2026-04-18T16:21:40.168Z</time></trkpt><trkpt lat="43.4623525" lon="10.6163733"><ele>463.0</ele><time>2026-04-18T16:21:41.172Z</time></trkpt><trkpt lat="43.4624341" lon="10.6165015"><ele>462.99999999999994</ele><time>2026-04-18T16:21:43.181Z</time></trkpt><trkpt lat="43.4624785" lon="10.6165663"><ele>462.99999999999994</ele><time>2026-04-18T16:21:44.171Z</time></trkpt><trkpt lat="43.4625479" lon="10.6166743"><ele>463.0</ele><time>2026-04-18T16:21:46.164Z</time></trkpt><trkpt lat="43.4626211" lon="10.6167799"><ele>463.0</ele><time>2026-04-18T16:21:48.169Z</time></trkpt><trkpt lat="43.4627079" lon="10.6168646"><ele>463.0</ele><time>2026-04-18T16:21:50.172Z</time></trkpt><trkpt lat="43.462796" lon="10.6168959"><ele>462.99999999999994</ele><time>2026-04-18T16:21:52.172Z</time></trkpt><trkpt lat="43.4628969" lon="10.6168782"><ele>462.99999999999994</ele><time>2026-04-18T16:21:54.169Z</time></trkpt><trkpt lat="43.462991" lon="10.6168279"><ele>463.0</ele><time>2026-04-18T16:21:56.175Z</time></trkpt><trkpt lat="43.4630656" lon="10.6167579"><ele>463.0</ele><time>2026-04-18T16:21:58.168Z</time></trkpt><trkpt lat="43.4631334" lon="10.616682"><ele>462.83333333333337</ele><time>2026-04-18T16:22:00.173Z</time></trkpt><trkpt lat="43.4631825" lon="10.616597"><ele>462.6666666666667</ele><time>2026-04-18T16:22:02.18Z</time></trkpt><trkpt lat="43.4632163" lon="10.6164967"><ele>462.5</ele><time>2026-04-18T16:22:04.184Z</time></trkpt><trkpt lat="43.4632281" lon="10.6163699"><ele>462.33333333333337</ele><time>2026-04-18T16:22:06.162Z</time></trkpt><trkpt lat="43.4632348" lon="10.6162333"><ele>462.1666666666667</ele><time>2026-04-18T16:22:08.166Z</time></trkpt><trkpt lat="43.4632331" lon="10.6161015"><ele>462.0</ele><time>2026-04-18T16:22:10.175Z</time></trkpt><trkpt lat="43.4632186" lon="10.6159719"><ele>464.20000000000005</ele><time>2026-04-18T16:22:12.166Z</time></trkpt><trkpt lat="43.4632137" lon="10.6158441"><ele>466.40000000000003</ele><time>2026-04-18T16:22:14.179Z</time></trkpt><trkpt lat="43.4632061" lon="10.6157069"><ele>468.59999999999997</ele><time>2026-04-18T16:22:16.169Z</time></trkpt><trkpt lat="43.4631895" lon="10.6155726"><ele>470.79999999999995</ele><time>2026-04-18T16:22:18.179Z</time></trkpt><trkpt lat="43.4631755" lon="10.6154244"><ele>473.0</ele><time>2026-04-18T16:22:20.18Z</time></trkpt><trkpt lat="43.4631631" lon="10.6152866"><ele>473.0</ele><time>2026-04-18T16:22:22.168Z</time></trkpt><trkpt lat="43.4631943" lon="10.6151506"><ele>472.99999999999994</ele><time>2026-04-18T16:22:24.16Z</time></trkpt><trkpt lat="43.4632611" lon="10.6150896"><ele>472.99999999999994</ele><time>2026-04-18T16:22:26.165Z</time></trkpt><trkpt lat="43.4633449" lon="10.6151314"><ele>473.0</ele><time>2026-04-18T16:22:28.165Z</time></trkpt><trkpt lat="43.4634072" lon="10.6152314"><ele>473.0</ele><time>2026-04-18T16:22:30.173Z</time></trkpt><trkpt lat="43.4634644" lon="10.6153446"><ele>473.0</ele><time>2026-04-18T16:22:32.165Z</time></trkpt><trkpt lat="43.4635415" lon="10.6154633"><ele>472.99999999999994</ele><time>2026-04-18T16:22:34.165Z</time></trkpt><trkpt lat="43.4636173" lon="10.6155769"><ele>472.99999999999994</ele><time>2026-04-18T16:22:36.18Z</time></trkpt><trkpt lat="43.4636869" lon="10.615683"><ele>473.0</ele><time>2026-04-18T16:22:38.174Z</time></trkpt><trkpt lat="43.4637411" lon="10.6157801"><ele>473.0</ele><time>2026-04-18T16:22:40.169Z</time></trkpt><trkpt lat="43.4638036" lon="10.6158747"><ele>473.2</ele><time>2026-04-18T16:22:42.166Z</time></trkpt><trkpt lat="43.4638751" lon="10.6159729"><ele>473.4</ele><time>2026-04-18T16:22:44.182Z</time></trkpt><trkpt lat="43.4639322" lon="10.6160873"><ele>473.59999999999997</ele><time>2026-04-18T16:22:46.174Z</time></trkpt><trkpt lat="43.4639708" lon="10.6162209"><ele>473.79999999999995</ele><time>2026-04-18T16:22:48.172Z</time></trkpt><trkpt lat="43.464003" lon="10.616357"><ele>474.0</ele><time>2026-04-18T16:22:50.156Z</time></trkpt><trkpt lat="43.4640232" lon="10.6165002"><ele>471.1666666666667</ele><time>2026-04-18T16:22:52.169Z</time></trkpt><trkpt lat="43.4640544" lon="10.6166094"><ele>468.33333333333337</ele><time>2026-04-18T16:22:54.175Z</time></trkpt><trkpt lat="43.4640692" lon="10.6167109"><ele>465.5</ele><time>2026-04-18T16:22:58.169Z</time></trkpt><trkpt lat="43.4641341" lon="10.6167651"><ele>462.6666666666667</ele><time>2026-04-18T16:23:03.181Z</time></trkpt><trkpt lat="43.4641227" lon="10.6166701"><ele>459.83333333333337</ele><time>2026-04-18T16:24:38.178Z</time></trkpt><trkpt lat="43.4641245" lon="10.616573"><ele>457.0</ele><time>2026-04-18T16:24:45.182Z</time></trkpt><trkpt lat="43.4641278" lon="10.6164682"><ele>457.00000000000006</ele><time>2026-04-18T16:24:51.173Z</time></trkpt><trkpt lat="43.4641254" lon="10.6163788"><ele>457.0</ele><time>2026-04-18T16:24:57.18Z</time></trkpt><trkpt lat="43.4641323" lon="10.6162909"><ele>457.00000000000006</ele><time>2026-04-18T16:25:02.179Z</time></trkpt><trkpt lat="43.4641418" lon="10.6162021"><ele>457.00000000000006</ele><time>2026-04-18T16:25:08.178Z</time></trkpt><trkpt lat="43.4641555" lon="10.616116"><ele>457.0</ele><time>2026-04-18T16:26:11.181Z</time></trkpt><trkpt lat="43.4641592" lon="10.6160239"><ele>457.00000000000006</ele><time>2026-04-18T16:26:23.183Z</time></trkpt><trkpt lat="43.4641609" lon="10.6159347"><ele>457.00000000000006</ele><time>2026-04-18T16:26:44.173Z</time></trkpt><trkpt lat="43.4641581" lon="10.6158467"><ele>459.4285714285715</ele><time>2026-04-18T16:27:27.167Z</time></trkpt><trkpt lat="43.4641276" lon="10.6157664"><ele>461.8571428571429</ele><time>2026-04-18T16:27:36.177Z</time></trkpt><trkpt lat="43.4641137" lon="10.6156773"><ele>464.2857142857143</ele><time>2026-04-18T16:27:45.169Z</time></trkpt><trkpt lat="43.464133" lon="10.615581"><ele>466.7142857142857</ele><time>2026-04-18T16:27:51.178Z</time></trkpt><trkpt lat="43.4641361" lon="10.6154838"><ele>469.1428571428571</ele><time>2026-04-18T16:27:58.181Z</time></trkpt><trkpt lat="43.464162" lon="10.6153834"><ele>471.5714285714285</ele><time>2026-04-18T16:28:04.169Z</time></trkpt><trkpt lat="43.4641803" lon="10.6152893"><ele>473.99999999999994</ele><time>2026-04-18T16:28:08.176Z</time></trkpt><trkpt lat="43.4642124" lon="10.6151966"><ele>474.0</ele><time>2026-04-18T16:28:12.171Z</time></trkpt><trkpt lat="43.4642301" lon="10.6151112"><ele>474.0</ele><time>2026-04-18T16:28:15.17Z</time></trkpt><trkpt lat="43.4642389" lon="10.6150182"><ele>474.0</ele><time>2026-04-18T16:28:19.162Z</time></trkpt><trkpt lat="43.4642677" lon="10.6149211"><ele>474.0</ele><time>2026-04-18T16:28:23.165Z</time></trkpt><trkpt lat="43.4642838" lon="10.6148221"><ele>474.0</ele><time>2026-04-18T16:28:28.157Z</time></trkpt><trkpt lat="43.464162" lon="10.6153834"><ele>476.99999999999994</ele><time>2026-04-18T16:28:04.169Z</time></trkpt><trkpt lat="43.4641803" lon="10.6152893"><ele>480.0</ele><time>2026-04-18T16:28:08.176Z</time></trkpt><trkpt lat="43.4642124" lon="10.6151966"><ele>482.99999999999994</ele><time>2026-04-18T16:28:12.171Z</time></trkpt><trkpt lat="43.4642301" lon="10.6151112"><ele>485.99999999999994</ele><time>2026-04-18T16:28:15.17Z</time></trkpt><trkpt lat="43.4642389" lon="10.6150182"><ele>489.0</ele><time>2026-04-18T16:28:19.162Z</time></trkpt><trkpt lat="43.4642677" lon="10.6149211"><ele>491.99999999999994</ele><time>2026-04-18T16:28:23.165Z</time></trkpt><trkpt lat="43.4642838" lon="10.6148221"><ele>494.99999999999994</ele><time>2026-04-18T16:28:28.157Z</time></trkpt><trkpt lat="43.4643196" lon="10.614748"><ele>494.99999999999994</ele><time>2026-04-18T16:29:17.167Z</time></trkpt><trkpt lat="43.4643352" lon="10.6146555"><ele>495.0</ele><time>2026-04-18T16:29:23.161Z</time></trkpt><trkpt lat="43.4643416" lon="10.6145503"><ele>494.99999999999994</ele><time>2026-04-18T16:29:30.158Z</time></trkpt><trkpt lat="43.464388" lon="10.614471"><ele>494.99999999999994</ele><time>2026-04-18T16:29:38.157Z</time></trkpt><trkpt lat="43.4644139" lon="10.6143902"><ele>495.0</ele><time>2026-04-18T16:29:47.166Z</time></trkpt><trkpt lat="43.4644335" lon="10.6142901"><ele>494.99999999999994</ele><time>2026-04-18T16:29:53.169Z</time></trkpt><trkpt lat="43.464424" lon="10.6141932"><ele>494.99999999999994</ele><time>2026-04-18T16:29:58.165Z</time></trkpt><trkpt lat="43.4644204" lon="10.6141041"><ele>497.1428571428571</ele><time>2026-04-18T16:30:04.161Z</time></trkpt><trkpt lat="43.4644087" lon="10.6140029"><ele>499.2857142857143</ele><time>2026-04-18T16:30:09.16Z</time></trkpt><trkpt lat="43.4644207" lon="10.6139103"><ele>501.42857142857144</ele><time>2026-04-18T16:30:15.163Z</time></trkpt><trkpt lat="43.4644426" lon="10.6138063"><ele>503.57142857142856</ele><time>2026-04-18T16:30:20.172Z</time></trkpt><trkpt lat="43.4644784" lon="10.6137333"><ele>505.7142857142858</ele><time>2026-04-18T16:30:23.167Z</time></trkpt><trkpt lat="43.4644809" lon="10.6136426"><ele>507.8571428571429</ele><time>2026-04-18T16:30:27.154Z</time></trkpt><trkpt lat="43.4645003" lon="10.6135463"><ele>510.0</ele><time>2026-04-18T16:30:31.168Z</time></trkpt><trkpt lat="43.4645368" lon="10.6134607"><ele>510.42857142857144</ele><time>2026-04-18T16:30:35.17Z</time></trkpt><trkpt lat="43.4645834" lon="10.6133815"><ele>510.8571428571429</ele><time>2026-04-18T16:30:39.161Z</time></trkpt><trkpt lat="43.4645884" lon="10.6132759"><ele>511.28571428571433</ele><time>2026-04-18T16:30:45.153Z</time></trkpt><trkpt lat="43.4646017" lon="10.6131754"><ele>511.7142857142858</ele><time>2026-04-18T16:30:49.166Z</time></trkpt><trkpt lat="43.4646133" lon="10.6130804"><ele>512.1428571428571</ele><time>2026-04-18T16:30:54.161Z</time></trkpt><trkpt lat="43.4646326" lon="10.6129869"><ele>512.5714285714287</ele><time>2026-04-18T16:30:58.148Z</time></trkpt><trkpt lat="43.4646365" lon="10.6128973"><ele>513.0</ele><time>2026-04-18T16:31:02.165Z</time></trkpt><trkpt lat="43.4646554" lon="10.6127955"><ele>515.0000000000001</ele><time>2026-04-18T16:31:05.166Z</time></trkpt><trkpt lat="43.4646737" lon="10.61271"><ele>517.0</ele><time>2026-04-18T16:31:08.17Z</time></trkpt><trkpt lat="43.464644" lon="10.6126289"><ele>519.0</ele><time>2026-04-18T16:31:11.159Z</time></trkpt><trkpt lat="43.4646192" lon="10.6125302"><ele>521.0</ele><time>2026-04-18T16:31:16.177Z</time></trkpt><trkpt lat="43.4645808" lon="10.6124444"><ele>523.0</ele><time>2026-04-18T16:31:19.165Z</time></trkpt><trkpt lat="43.4645522" lon="10.6123399"><ele>525.0000000000001</ele><time>2026-04-18T16:31:23.17Z</time></trkpt><trkpt lat="43.464546" lon="10.6122318"><ele>527.0</ele><time>2026-04-18T16:31:26.163Z</time></trkpt><trkpt lat="43.464562" lon="10.6121082"><ele>527.5</ele><time>2026-04-18T16:31:29.174Z</time></trkpt><trkpt lat="43.4645724" lon="10.612013"><ele>528.0</ele><time>2026-04-18T16:31:32.168Z</time></trkpt><trkpt lat="43.4645782" lon="10.6119013"><ele>528.5</ele><time>2026-04-18T16:31:35.162Z</time></trkpt><trkpt lat="43.4646111" lon="10.6118045"><ele>529.0</ele><time>2026-04-18T16:31:38.163Z</time></trkpt><trkpt lat="43.464635" lon="10.6117197"><ele>529.5</ele><time>2026-04-18T16:31:41.177Z</time></trkpt><trkpt lat="43.4646716" lon="10.61163"><ele>530.0</ele><time>2026-04-18T16:31:44.154Z</time></trkpt><trkpt lat="43.464764" lon="10.6115225"><ele>532.5</ele><time>2026-04-18T16:31:47.188Z</time></trkpt><trkpt lat="43.4648194" lon="10.6114048"><ele>535.0</ele><time>2026-04-18T16:31:50.16Z</time></trkpt><trkpt lat="43.4648548" lon="10.6112993"><ele>537.5</ele><time>2026-04-18T16:31:53.18Z</time></trkpt><trkpt lat="43.4649029" lon="10.6112017"><ele>540.0</ele><time>2026-04-18T16:31:56.182Z</time></trkpt><trkpt lat="43.4649639" lon="10.6111121"><ele>542.5</ele><time>2026-04-18T16:31:59.176Z</time></trkpt><trkpt lat="43.4649811" lon="10.6110106"><ele>545.0</ele><time>2026-04-18T16:32:02.168Z</time></trkpt><trkpt lat="43.4649789" lon="10.6108989"><ele>547.1428571428571</ele><time>2026-04-18T16:32:05.17Z</time></trkpt><trkpt lat="43.4649926" lon="10.6108055"><ele>549.2857142857143</ele><time>2026-04-18T16:32:11.174Z</time></trkpt><trkpt lat="43.4650383" lon="10.610722"><ele>551.4285714285714</ele><time>2026-04-18T16:32:17.171Z</time></trkpt><trkpt lat="43.465097" lon="10.6106603"><ele>553.5714285714286</ele><time>2026-04-18T16:32:22.173Z</time></trkpt><trkpt lat="43.4651255" lon="10.6105821"><ele>555.7142857142858</ele><time>2026-04-18T16:32:26.172Z</time></trkpt><trkpt lat="43.4651374" lon="10.6104921"><ele>557.8571428571429</ele><time>2026-04-18T16:32:30.162Z</time></trkpt><trkpt lat="43.4651771" lon="10.6103958"><ele>560.0</ele><time>2026-04-18T16:32:34.174Z</time></trkpt><trkpt lat="43.4652221" lon="10.6103227"><ele>560.2857142857143</ele><time>2026-04-18T16:32:37.176Z</time></trkpt><trkpt lat="43.4652723" lon="10.6102388"><ele>560.5714285714286</ele><time>2026-04-18T16:32:40.168Z</time></trkpt><trkpt lat="43.4653318" lon="10.6101466"><ele>560.8571428571429</ele><time>2026-04-18T16:32:43.166Z</time></trkpt><trkpt lat="43.4653759" lon="10.610077"><ele>561.1428571428571</ele><time>2026-04-18T16:32:45.163Z</time></trkpt><trkpt lat="43.4654112" lon="10.6099981"><ele>561.4285714285714</ele><time>2026-04-18T16:32:48.178Z</time></trkpt><trkpt lat="43.4654491" lon="10.6099259"><ele>561.7142857142858</ele><time>2026-04-18T16:32:50.161Z</time></trkpt><trkpt lat="43.4655019" lon="10.6098396"><ele>562.0</ele><time>2026-04-18T16:32:53.172Z</time></trkpt><trkpt lat="43.4655545" lon="10.6097865"><ele>562.0000000000001</ele><time>2026-04-18T16:32:56.179Z</time></trkpt><trkpt lat="43.4655968" lon="10.6096931"><ele>562.0</ele><time>2026-04-18T16:32:59.177Z</time></trkpt><trkpt lat="43.465612" lon="10.6096071"><ele>562.0</ele><time>2026-04-18T16:33:02.167Z</time></trkpt><trkpt lat="43.4655993" lon="10.6095105"><ele>562.0</ele><time>2026-04-18T16:33:05.171Z</time></trkpt><trkpt lat="43.4655804" lon="10.6094206"><ele>562.0</ele><time>2026-04-18T16:33:08.156Z</time></trkpt><trkpt lat="43.4656151" lon="10.609323"><ele>562.0000000000001</ele><time>2026-04-18T16:33:11.154Z</time></trkpt><trkpt lat="43.465662" lon="10.6092568"><ele>562.0</ele><time>2026-04-18T16:33:13.167Z</time></trkpt><trkpt lat="43.4657206" lon="10.6092035"><ele>563.8571428571429</ele><time>2026-04-18T16:33:16.165Z</time></trkpt><trkpt lat="43.465782" lon="10.6091633"><ele>565.7142857142858</ele><time>2026-04-18T16:33:20.159Z</time></trkpt><trkpt lat="43.4658479" lon="10.6091431"><ele>567.5714285714286</ele><time>2026-04-18T16:33:24.178Z</time></trkpt><trkpt lat="43.4659117" lon="10.6091372"><ele>569.4285714285714</ele><time>2026-04-18T16:33:28.161Z</time></trkpt><trkpt lat="43.4659643" lon="10.6090883"><ele>571.2857142857142</ele><time>2026-04-18T16:33:33.166Z</time></trkpt><trkpt lat="43.4659943" lon="10.6090005"><ele>573.1428571428571</ele><time>2026-04-18T16:33:40.16Z</time></trkpt><trkpt lat="43.4660592" lon="10.6089929"><ele>575.0</ele><time>2026-04-18T16:33:46.167Z</time></trkpt><trkpt lat="43.4661218" lon="10.6089822"><ele>575.0</ele><time>2026-04-18T16:33:49.171Z</time></trkpt><trkpt lat="43.4661856" lon="10.6089615"><ele>575.0</ele><time>2026-04-18T16:33:52.173Z</time></trkpt><trkpt lat="43.466261" lon="10.6089124"><ele>575.0</ele><time>2026-04-18T16:33:55.162Z</time></trkpt><trkpt lat="43.4663168" lon="10.608828"><ele>575.0</ele><time>2026-04-18T16:33:58.171Z</time></trkpt><trkpt lat="43.466362" lon="10.6087605"><ele>575.0</ele><time>2026-04-18T16:34:00.186Z</time></trkpt><trkpt lat="43.4664125" lon="10.6086827"><ele>575.0</ele><time>2026-04-18T16:34:03.167Z</time></trkpt><trkpt lat="43.46648" lon="10.6086129"><ele>575.4285714285714</ele><time>2026-04-18T16:34:06.167Z</time></trkpt><trkpt lat="43.4665336" lon="10.6085466"><ele>575.8571428571428</ele><time>2026-04-18T16:34:09.166Z</time></trkpt><trkpt lat="43.4665832" lon="10.6084773"><ele>576.2857142857142</ele><time>2026-04-18T16:34:12.165Z</time></trkpt><trkpt lat="43.4666198" lon="10.6083911"><ele>576.7142857142857</ele><time>2026-04-18T16:34:16.16Z</time></trkpt><trkpt lat="43.4666714" lon="10.6083319"><ele>577.1428571428571</ele><time>2026-04-18T16:34:19.161Z</time></trkpt><trkpt lat="43.4667133" lon="10.6082602"><ele>577.5714285714286</ele><time>2026-04-18T16:34:23.157Z</time></trkpt><trkpt lat="43.4667605" lon="10.6082018"><ele>578.0</ele><time>2026-04-18T16:34:27.164Z</time></trkpt><trkpt lat="43.4668259" lon="10.6081797"><ele>578.0</ele><time>2026-04-18T16:34:34.175Z</time></trkpt><trkpt lat="43.4668808" lon="10.6081306"><ele>578.0</ele><time>2026-04-18T16:34:43.172Z</time></trkpt><trkpt lat="43.4669145" lon="10.6080544"><ele>578.0</ele><time>2026-04-18T16:34:52.173Z</time></trkpt><trkpt lat="43.4669064" lon="10.607968"><ele>578.0</ele><time>2026-04-18T16:36:01.167Z</time></trkpt><trkpt lat="43.4669328" lon="10.607867"><ele>578.0</ele><time>2026-04-18T16:36:07.183Z</time></trkpt><trkpt lat="43.4669531" lon="10.6077838"><ele>578.0</ele><time>2026-04-18T16:36:14.196Z</time></trkpt><trkpt lat="43.4669578" lon="10.6076834"><ele>578.0</ele><time>2026-04-18T16:36:49.171Z</time></trkpt><trkpt lat="43.4669885" lon="10.6075984"><ele>577.5714285714286</ele><time>2026-04-18T16:37:15.17Z</time></trkpt><trkpt lat="43.4670377" lon="10.6075432"><ele>577.1428571428571</ele><time>2026-04-18T16:37:37.177Z</time></trkpt><trkpt lat="43.4670994" lon="10.6075605"><ele>576.7142857142857</ele><time>2026-04-18T16:37:49.176Z</time></trkpt><trkpt lat="43.4671617" lon="10.6075373"><ele>576.2857142857142</ele><time>2026-04-18T16:38:15.167Z</time></trkpt><trkpt lat="43.4672094" lon="10.6074609"><ele>575.8571428571428</ele><time>2026-04-18T16:38:23.172Z</time></trkpt><trkpt lat="43.4672878" lon="10.6073922"><ele>575.4285714285714</ele><time>2026-04-18T16:38:26.173Z</time></trkpt><trkpt lat="43.4673395" lon="10.6073361"><ele>575.0</ele><time>2026-04-18T16:38:28.174Z</time></trkpt><trkpt lat="43.4674065" lon="10.6072452"><ele>574.8571428571429</ele><time>2026-04-18T16:38:31.177Z</time></trkpt><trkpt lat="43.4674596" lon="10.6071916"><ele>574.7142857142857</ele><time>2026-04-18T16:38:33.179Z</time></trkpt><trkpt lat="43.4675199" lon="10.6071455"><ele>574.5714285714286</ele><time>2026-04-18T16:38:35.177Z</time></trkpt><trkpt lat="43.4675846" lon="10.6070995"><ele>574.4285714285714</ele><time>2026-04-18T16:38:37.174Z</time></trkpt><trkpt lat="43.4676536" lon="10.6070585"><ele>574.2857142857142</ele><time>2026-04-18T16:38:39.173Z</time></trkpt><trkpt lat="43.4677236" lon="10.6070255"><ele>574.1428571428571</ele><time>2026-04-18T16:38:41.179Z</time></trkpt><trkpt lat="43.4677925" lon="10.6069876"><ele>574.0</ele><time>2026-04-18T16:38:43.179Z</time></trkpt><trkpt lat="43.4678495" lon="10.6069188"><ele>574.6666666666667</ele><time>2026-04-18T16:38:45.181Z</time></trkpt><trkpt lat="43.4679473" lon="10.606821"><ele>575.3333333333334</ele><time>2026-04-18T16:38:47.176Z</time></trkpt><trkpt lat="43.4680107" lon="10.6067283"><ele>576.0</ele><time>2026-04-18T16:38:49.189Z</time></trkpt><trkpt lat="43.4680319" lon="10.6066365"><ele>576.6666666666666</ele><time>2026-04-18T16:38:51.177Z</time></trkpt><trkpt lat="43.4680566" lon="10.6065342"><ele>577.3333333333333</ele><time>2026-04-18T16:38:53.175Z</time></trkpt><trkpt lat="43.4680669" lon="10.6064267"><ele>578.0</ele><time>2026-04-18T16:38:55.185Z</time></trkpt><trkpt lat="43.468083" lon="10.6062988"><ele>578.0</ele><time>2026-04-18T16:38:58.182Z</time></trkpt><trkpt lat="43.4680678" lon="10.6061996"><ele>578.0</ele><time>2026-04-18T16:39:00.184Z</time></trkpt><trkpt lat="43.4680649" lon="10.6061005"><ele>578.0</ele><time>2026-04-18T16:39:02.179Z</time></trkpt><trkpt lat="43.4680715" lon="10.6060066"><ele>578.0</ele><time>2026-04-18T16:39:04.18Z</time></trkpt><trkpt lat="43.4680888" lon="10.6059221"><ele>578.0</ele><time>2026-04-18T16:39:06.192Z</time></trkpt><trkpt lat="43.4681036" lon="10.6058301"><ele>578.0</ele><time>2026-04-18T16:39:08.166Z</time></trkpt><trkpt lat="43.4681148" lon="10.6057426"><ele>578.0</ele><time>2026-04-18T16:39:10.192Z</time></trkpt><trkpt lat="43.468119" lon="10.6056481"><ele>578.5</ele><time>2026-04-18T16:39:12.17Z</time></trkpt><trkpt lat="43.4681253" lon="10.6055462"><ele>579.0</ele><time>2026-04-18T16:39:14.18Z</time></trkpt><trkpt lat="43.4681114" lon="10.6054331"><ele>579.5</ele><time>2026-04-18T16:39:16.174Z</time></trkpt><trkpt lat="43.468101" lon="10.6053193"><ele>580.0</ele><time>2026-04-18T16:39:18.192Z</time></trkpt><trkpt lat="43.4680905" lon="10.6052116"><ele>580.5</ele><time>2026-04-18T16:39:20.18Z</time></trkpt><trkpt lat="43.4680769" lon="10.6050927"><ele>581.0</ele><time>2026-04-18T16:39:22.168Z</time></trkpt><trkpt lat="43.4680712" lon="10.6049686"><ele>581.1666666666666</ele><time>2026-04-18T16:39:24.177Z</time></trkpt><trkpt lat="43.468068" lon="10.6048429"><ele>581.3333333333333</ele><time>2026-04-18T16:39:26.18Z</time></trkpt><trkpt lat="43.4680862" lon="10.604734"><ele>581.5</ele><time>2026-04-18T16:39:28.171Z</time></trkpt><trkpt lat="43.4681264" lon="10.6045992"><ele>581.6666666666666</ele><time>2026-04-18T16:39:31.18Z</time></trkpt><trkpt lat="43.468138" lon="10.6045101"><ele>581.8333333333334</ele><time>2026-04-18T16:39:32.173Z</time></trkpt><trkpt lat="43.4681691" lon="10.6043984"><ele>582.0</ele><time>2026-04-18T16:39:34.182Z</time></trkpt><trkpt lat="43.4682304" lon="10.6043042"><ele>581.6</ele><time>2026-04-18T16:39:36.166Z</time></trkpt><trkpt lat="43.4683089" lon="10.6042067"><ele>581.2</ele><time>2026-04-18T16:39:38.16Z</time></trkpt><trkpt lat="43.4683865" lon="10.6041272"><ele>580.8</ele><time>2026-04-18T16:39:40.169Z</time></trkpt><trkpt lat="43.4684532" lon="10.6040575"><ele>580.4</ele><time>2026-04-18T16:39:42.169Z</time></trkpt><trkpt lat="43.4684882" lon="10.6039499"><ele>580.0</ele><time>2026-04-18T16:39:45.167Z</time></trkpt><trkpt lat="43.4684802" lon="10.6038285"><ele>580.0</ele><time>2026-04-18T16:39:48.169Z</time></trkpt><trkpt lat="43.4684688" lon="10.6037398"><ele>580.0</ele><time>2026-04-18T16:39:50.176Z</time></trkpt><trkpt lat="43.4684493" lon="10.603634"><ele>580.0</ele><time>2026-04-18T16:39:52.171Z</time></trkpt><trkpt lat="43.4684267" lon="10.6035304"><ele>580.0</ele><time>2026-04-18T16:39:54.176Z</time></trkpt><trkpt lat="43.4684068" lon="10.6034231"><ele>580.0</ele><time>2026-04-18T16:39:56.166Z</time></trkpt><trkpt lat="43.4683763" lon="10.6032831"><ele>580.0</ele><time>2026-04-18T16:39:58.177Z</time></trkpt><trkpt lat="43.4683467" lon="10.6031419"><ele>580.0</ele><time>2026-04-18T16:40:00.165Z</time></trkpt><trkpt lat="43.4683174" lon="10.6030129"><ele>580.0</ele><time>2026-04-18T16:40:02.175Z</time></trkpt><trkpt lat="43.4683362" lon="10.6029113"><ele>580.0</ele><time>2026-04-18T16:40:04.18Z</time></trkpt><trkpt lat="43.4684162" lon="10.6028755"><ele>580.0</ele><time>2026-04-18T16:40:07.196Z</time></trkpt><trkpt lat="43.4684929" lon="10.6029084"><ele>580.0</ele><time>2026-04-18T16:40:09.172Z</time></trkpt><trkpt lat="43.4685866" lon="10.6029261"><ele>580.0</ele><time>2026-04-18T16:40:11.175Z</time></trkpt><trkpt lat="43.468693" lon="10.6029766"><ele>582.25</ele><time>2026-04-18T16:40:13.168Z</time></trkpt><trkpt lat="43.46879" lon="10.6030374"><ele>584.5</ele><time>2026-04-18T16:40:15.166Z</time></trkpt><trkpt lat="43.4688959" lon="10.6031087"><ele>586.75</ele><time>2026-04-18T16:40:17.184Z</time></trkpt><trkpt lat="43.4689973" lon="10.6031917"><ele>589.0</ele><time>2026-04-18T16:40:19.181Z</time></trkpt><trkpt lat="43.4691066" lon="10.603271"><ele>589.0</ele><time>2026-04-18T16:40:21.186Z</time></trkpt><trkpt lat="43.4691636" lon="10.6033187"><ele>589.0</ele><time>2026-04-18T16:40:22.178Z</time></trkpt><trkpt lat="43.4692244" lon="10.6033731"><ele>589.0</ele><time>2026-04-18T16:40:23.18Z</time></trkpt><trkpt lat="43.4692872" lon="10.6034135"><ele>589.0</ele><time>2026-04-18T16:40:24.183Z</time></trkpt><trkpt lat="43.4693467" lon="10.6034533"><ele>589.0</ele><time>2026-04-18T16:40:25.179Z</time></trkpt><trkpt lat="43.4694136" lon="10.6035018"><ele>589.0</ele><time>2026-04-18T16:40:26.182Z</time></trkpt><trkpt lat="43.4694762" lon="10.6035608"><ele>589.0</ele><time>2026-04-18T16:40:27.178Z</time></trkpt><trkpt lat="43.4695454" lon="10.6036298"><ele>588.0</ele><time>2026-04-18T16:40:28.163Z</time></trkpt><trkpt lat="43.4696157" lon="10.6037025"><ele>587.0</ele><time>2026-04-18T16:40:29.182Z</time></trkpt><trkpt lat="43.4696888" lon="10.6037684"><ele>586.0</ele><time>2026-04-18T16:40:30.178Z</time></trkpt><trkpt lat="43.4697523" lon="10.6038287"><ele>585.0</ele><time>2026-04-18T16:40:31.179Z</time></trkpt><trkpt lat="43.4698532" lon="10.6039149"><ele>584.0</ele><time>2026-04-18T16:40:33.18Z</time></trkpt><trkpt lat="43.4699593" lon="10.6039775"><ele>584.0</ele><time>2026-04-18T16:40:35.173Z</time></trkpt><trkpt lat="43.4700686" lon="10.604033"><ele>584.0</ele><time>2026-04-18T16:40:37.182Z</time></trkpt><trkpt lat="43.4701353" lon="10.6040517"><ele>584.0</ele><time>2026-04-18T16:40:38.165Z</time></trkpt><trkpt lat="43.470208" lon="10.6040656"><ele>584.0</ele><time>2026-04-18T16:40:39.175Z</time></trkpt><trkpt lat="43.4702861" lon="10.6040815"><ele>584.0</ele><time>2026-04-18T16:40:40.175Z</time></trkpt><trkpt lat="43.4703597" lon="10.6040972"><ele>584.0</ele><time>2026-04-18T16:40:41.178Z</time></trkpt><trkpt lat="43.4704275" lon="10.6041154"><ele>583.3333333333333</ele><time>2026-04-18T16:40:42.171Z</time></trkpt><trkpt lat="43.4704937" lon="10.6041319"><ele>582.6666666666666</ele><time>2026-04-18T16:40:43.189Z</time></trkpt><trkpt lat="43.4706199" lon="10.6041303"><ele>582.0</ele><time>2026-04-18T16:40:45.179Z</time></trkpt><trkpt lat="43.4706884" lon="10.6041146"><ele>581.3333333333334</ele><time>2026-04-18T16:40:46.183Z</time></trkpt><trkpt lat="43.4707679" lon="10.6040986"><ele>580.6666666666667</ele><time>2026-04-18T16:40:47.169Z</time></trkpt><trkpt lat="43.4708511" lon="10.6040895"><ele>580.0</ele><time>2026-04-18T16:40:48.179Z</time></trkpt><trkpt lat="43.4709442" lon="10.6040793"><ele>580.0</ele><time>2026-04-18T16:40:49.183Z</time></trkpt><trkpt lat="43.4710293" lon="10.6040911"><ele>580.0</ele><time>2026-04-18T16:40:50.187Z</time></trkpt><trkpt lat="43.4711127" lon="10.6041215"><ele>580.0</ele><time>2026-04-18T16:40:51.181Z</time></trkpt><trkpt lat="43.4711955" lon="10.6041571"><ele>580.0</ele><time>2026-04-18T16:40:52.19Z</time></trkpt><trkpt lat="43.4712832" lon="10.6041932"><ele>580.0</ele><time>2026-04-18T16:40:53.184Z</time></trkpt><trkpt lat="43.4713698" lon="10.6042224"><ele>580.0</ele><time>2026-04-18T16:40:54.188Z</time></trkpt><trkpt lat="43.4714528" lon="10.6042417"><ele>580.3333333333334</ele><time>2026-04-18T16:40:55.177Z</time></trkpt><trkpt lat="43.4715407" lon="10.6042449"><ele>580.6666666666667</ele><time>2026-04-18T16:40:56.183Z</time></trkpt><trkpt lat="43.4716278" lon="10.6042213"><ele>581.0</ele><time>2026-04-18T16:40:57.187Z</time></trkpt><trkpt lat="43.4717053" lon="10.6041679"><ele>581.3333333333334</ele><time>2026-04-18T16:40:58.181Z</time></trkpt><trkpt lat="43.4717824" lon="10.6041179"><ele>581.6666666666666</ele><time>2026-04-18T16:40:59.172Z</time></trkpt><trkpt lat="43.4718569" lon="10.6040657"><ele>582.0</ele><time>2026-04-18T16:41:00.185Z</time></trkpt><trkpt lat="43.4719356" lon="10.6040346"><ele>582.0</ele><time>2026-04-18T16:41:01.178Z</time></trkpt><trkpt lat="43.4720124" lon="10.6040397"><ele>582.0</ele><time>2026-04-18T16:41:02.179Z</time></trkpt><trkpt lat="43.4720855" lon="10.6040799"><ele>582.0</ele><time>2026-04-18T16:41:03.186Z</time></trkpt><trkpt lat="43.4721564" lon="10.6041511"><ele>582.0</ele><time>2026-04-18T16:41:04.167Z</time></trkpt><trkpt lat="43.4721996" lon="10.6042723"><ele>582.0</ele><time>2026-04-18T16:41:05.176Z</time></trkpt><trkpt lat="43.472232" lon="10.6043935"><ele>582.0</ele><time>2026-04-18T16:41:06.161Z</time></trkpt><trkpt lat="43.4722795" lon="10.6045155"><ele>582.8000000000001</ele><time>2026-04-18T16:41:07.182Z</time></trkpt><trkpt lat="43.4723304" lon="10.6046418"><ele>583.6</ele><time>2026-04-18T16:41:08.175Z</time></trkpt><trkpt lat="43.4723728" lon="10.6047873"><ele>584.4000000000001</ele><time>2026-04-18T16:41:09.176Z</time></trkpt><trkpt lat="43.4724168" lon="10.6049245"><ele>585.2</ele><time>2026-04-18T16:41:10.156Z</time></trkpt><trkpt lat="43.4724555" lon="10.6050588"><ele>586.0</ele><time>2026-04-18T16:41:11.167Z</time></trkpt><trkpt lat="43.4724928" lon="10.6052075"><ele>585.5</ele><time>2026-04-18T16:41:12.189Z</time></trkpt><trkpt lat="43.4725265" lon="10.6053337"><ele>585.0</ele><time>2026-04-18T16:41:13.175Z</time></trkpt><trkpt lat="43.4725678" lon="10.6054502"><ele>584.5</ele><time>2026-04-18T16:41:14.183Z</time></trkpt><trkpt lat="43.4726227" lon="10.6055597"><ele>584.0</ele><time>2026-04-18T16:41:15.176Z</time></trkpt><trkpt lat="43.47268" lon="10.6056357"><ele>583.5</ele><time>2026-04-18T16:41:16.147Z</time></trkpt><trkpt lat="43.4727417" lon="10.6057082"><ele>583.0</ele><time>2026-04-18T16:41:17.171Z</time></trkpt><trkpt lat="43.4728014" lon="10.6057755"><ele>583.0000000000001</ele><time>2026-04-18T16:41:18.165Z</time></trkpt><trkpt lat="43.4728608" lon="10.6058398"><ele>583.0</ele><time>2026-04-18T16:41:19.161Z</time></trkpt><trkpt lat="43.4729167" lon="10.605909"><ele>583.0</ele><time>2026-04-18T16:41:20.178Z</time></trkpt><trkpt lat="43.472978" lon="10.6059776"><ele>583.0</ele><time>2026-04-18T16:41:21.184Z</time></trkpt><trkpt lat="43.4730359" lon="10.6060483"><ele>583.0</ele><time>2026-04-18T16:41:22.188Z</time></trkpt><trkpt lat="43.4730851" lon="10.6061166"><ele>583.0000000000001</ele><time>2026-04-18T16:41:23.189Z</time></trkpt><trkpt lat="43.4731382" lon="10.6061691"><ele>583.0</ele><time>2026-04-18T16:41:24.177Z</time></trkpt><trkpt lat="43.4732527" lon="10.6062499"><ele>582.8</ele><time>2026-04-18T16:41:26.183Z</time></trkpt><trkpt lat="43.4733171" lon="10.6062688"><ele>582.5999999999999</ele><time>2026-04-18T16:41:27.173Z</time></trkpt><trkpt lat="43.4734432" lon="10.6062756"><ele>582.4000000000001</ele><time>2026-04-18T16:41:29.17Z</time></trkpt><trkpt lat="43.4735639" lon="10.6062516"><ele>582.2</ele><time>2026-04-18T16:41:31.182Z</time></trkpt><trkpt lat="43.4736699" lon="10.6061982"><ele>582.0</ele><time>2026-04-18T16:41:33.171Z</time></trkpt><trkpt lat="43.4737973" lon="10.6061609"><ele>581.4285714285714</ele><time>2026-04-18T16:41:35.185Z</time></trkpt><trkpt lat="43.4738735" lon="10.6061517"><ele>580.8571428571428</ele><time>2026-04-18T16:41:36.182Z</time></trkpt><trkpt lat="43.4739495" lon="10.6061518"><ele>580.2857142857142</ele><time>2026-04-18T16:41:37.18Z</time></trkpt><trkpt lat="43.4740238" lon="10.6061536"><ele>579.7142857142857</ele><time>2026-04-18T16:41:38.167Z</time></trkpt><trkpt lat="43.4740933" lon="10.6061558"><ele>579.1428571428571</ele><time>2026-04-18T16:41:39.177Z</time></trkpt><trkpt lat="43.4741628" lon="10.6061584"><ele>578.5714285714286</ele><time>2026-04-18T16:41:40.188Z</time></trkpt><trkpt lat="43.4742393" lon="10.6061648"><ele>578.0</ele><time>2026-04-18T16:41:41.172Z</time></trkpt><trkpt lat="43.4743102" lon="10.6061596"><ele>577.6666666666666</ele><time>2026-04-18T16:41:42.171Z</time></trkpt><trkpt lat="43.4743785" lon="10.6061442"><ele>577.3333333333333</ele><time>2026-04-18T16:41:43.17Z</time></trkpt><trkpt lat="43.4744518" lon="10.6061247"><ele>577.0</ele><time>2026-04-18T16:41:44.177Z</time></trkpt><trkpt lat="43.4745279" lon="10.6061085"><ele>576.6666666666666</ele><time>2026-04-18T16:41:45.177Z</time></trkpt><trkpt lat="43.4746029" lon="10.6060963"><ele>576.3333333333334</ele><time>2026-04-18T16:41:46.178Z</time></trkpt><trkpt lat="43.4747009" lon="10.6060916"><ele>576.0</ele><time>2026-04-18T16:41:48.166Z</time></trkpt><trkpt lat="43.4747808" lon="10.6061095"><ele>575.6666666666666</ele><time>2026-04-18T16:41:56.17Z</time></trkpt><trkpt lat="43.4748418" lon="10.6060794"><ele>575.3333333333334</ele><time>2026-04-18T16:42:00.162Z</time></trkpt><trkpt lat="43.4749065" lon="10.6060215"><ele>575.0</ele><time>2026-04-18T16:42:17.179Z</time></trkpt><trkpt lat="43.4749675" lon="10.6059571"><ele>574.6666666666667</ele><time>2026-04-18T16:42:22.183Z</time></trkpt><trkpt lat="43.4750116" lon="10.6058735"><ele>574.3333333333334</ele><time>2026-04-18T16:42:26.164Z</time></trkpt><trkpt lat="43.4750477" lon="10.6057765"><ele>574.0</ele><time>2026-04-18T16:42:31.172Z</time></trkpt><trkpt lat="43.4750359" lon="10.605664"><ele>574.0</ele><time>2026-04-18T16:42:35.162Z</time></trkpt><trkpt lat="43.4750252" lon="10.6055694"><ele>574.0</ele><time>2026-04-18T16:42:38.16Z</time></trkpt><trkpt lat="43.4750125" lon="10.6054461"><ele>574.0</ele><time>2026-04-18T16:42:41.17Z</time></trkpt><trkpt lat="43.4749926" lon="10.6053531"><ele>574.0</ele><time>2026-04-18T16:42:43.17Z</time></trkpt><trkpt lat="43.4749762" lon="10.6052616"><ele>574.0</ele><time>2026-04-18T16:42:45.156Z</time></trkpt><trkpt lat="43.474958" lon="10.6051455"><ele>574.0</ele><time>2026-04-18T16:42:47.164Z</time></trkpt><trkpt lat="43.474936" lon="10.6050422"><ele>574.4285714285714</ele><time>2026-04-18T16:42:49.169Z</time></trkpt><trkpt lat="43.4749215" lon="10.6049521"><ele>574.8571428571429</ele><time>2026-04-18T16:42:51.166Z</time></trkpt><trkpt lat="43.4748992" lon="10.6048669"><ele>575.2857142857142</ele><time>2026-04-18T16:42:53.183Z</time></trkpt><trkpt lat="43.474899" lon="10.6047586"><ele>575.7142857142858</ele><time>2026-04-18T16:42:56.16Z</time></trkpt><trkpt lat="43.4749121" lon="10.6046642"><ele>576.1428571428571</ele><time>2026-04-18T16:42:59.177Z</time></trkpt><trkpt lat="43.4749265" lon="10.6045663"><ele>576.5714285714286</ele><time>2026-04-18T16:43:02.172Z</time></trkpt><trkpt lat="43.4749211" lon="10.6044642"><ele>577.0</ele><time>2026-04-18T16:43:06.176Z</time></trkpt><trkpt lat="43.4749137" lon="10.6043597"><ele>577.5</ele><time>2026-04-18T16:43:09.161Z</time></trkpt><trkpt lat="43.474916" lon="10.6042613"><ele>578.0</ele><time>2026-04-18T16:43:12.163Z</time></trkpt><trkpt lat="43.4749402" lon="10.6041417"><ele>578.5</ele><time>2026-04-18T16:43:15.163Z</time></trkpt><trkpt lat="43.4749592" lon="10.6040205"><ele>579.0</ele><time>2026-04-18T16:43:18.164Z</time></trkpt><trkpt lat="43.4749733" lon="10.6038996"><ele>579.5</ele><time>2026-04-18T16:43:21.171Z</time></trkpt><trkpt lat="43.4749957" lon="10.6037797"><ele>580.0</ele><time>2026-04-18T16:43:24.148Z</time></trkpt><trkpt lat="43.4750441" lon="10.6036826"><ele>579.6</ele><time>2026-04-18T16:43:27.159Z</time></trkpt><trkpt lat="43.4751053" lon="10.6036428"><ele>579.2</ele><time>2026-04-18T16:43:29.159Z</time></trkpt><trkpt lat="43.4751843" lon="10.6035989"><ele>578.8</ele><time>2026-04-18T16:43:31.181Z</time></trkpt><trkpt lat="43.4752792" lon="10.6035234"><ele>578.4</ele><time>2026-04-18T16:43:33.184Z</time></trkpt><trkpt lat="43.475368" lon="10.6034668"><ele>578.0</ele><time>2026-04-18T16:43:35.169Z</time></trkpt><trkpt lat="43.4754741" lon="10.6034299"><ele>577.4</ele><time>2026-04-18T16:43:37.17Z</time></trkpt><trkpt lat="43.4755689" lon="10.6034126"><ele>576.8</ele><time>2026-04-18T16:43:39.179Z</time></trkpt><trkpt lat="43.4757012" lon="10.6034169"><ele>576.2</ele><time>2026-04-18T16:43:41.17Z</time></trkpt><trkpt lat="43.4757768" lon="10.6034368"><ele>575.6</ele><time>2026-04-18T16:43:42.165Z</time></trkpt><trkpt lat="43.475856" lon="10.6034595"><ele>575.0</ele><time>2026-04-18T16:43:43.163Z</time></trkpt><trkpt lat="43.4759365" lon="10.6034971"><ele>575.0</ele><time>2026-04-18T16:43:44.171Z</time></trkpt><trkpt lat="43.4760058" lon="10.6035544"><ele>575.0</ele><time>2026-04-18T16:43:45.165Z</time></trkpt><trkpt lat="43.4760778" lon="10.6036047"><ele>575.0</ele><time>2026-04-18T16:43:46.163Z</time></trkpt><trkpt lat="43.4761471" lon="10.6036683"><ele>575.0</ele><time>2026-04-18T16:43:47.16Z</time></trkpt><trkpt lat="43.4762094" lon="10.6037331"><ele>575.0</ele><time>2026-04-18T16:43:48.159Z</time></trkpt><trkpt lat="43.4762693" lon="10.6037885"><ele>575.0</ele><time>2026-04-18T16:43:49.175Z</time></trkpt><trkpt lat="43.4763325" lon="10.6038402"><ele>573.8333333333333</ele><time>2026-04-18T16:43:50.154Z</time></trkpt><trkpt lat="43.4763983" lon="10.6038871"><ele>572.6666666666666</ele><time>2026-04-18T16:43:51.182Z</time></trkpt><trkpt lat="43.4764658" lon="10.6039206"><ele>571.5</ele><time>2026-04-18T16:43:52.155Z</time></trkpt><trkpt lat="43.4765312" lon="10.6039486"><ele>570.3333333333334</ele><time>2026-04-18T16:43:53.16Z</time></trkpt><trkpt lat="43.4766305" lon="10.6039638"><ele>569.1666666666667</ele><time>2026-04-18T16:43:55.162Z</time></trkpt><trkpt lat="43.4767105" lon="10.6039428"><ele>568.0</ele><time>2026-04-18T16:44:00.18Z</time></trkpt><trkpt lat="43.4767586" lon="10.6038827"><ele>568.0</ele><time>2026-04-18T16:44:12.172Z</time></trkpt><trkpt lat="43.4768224" lon="10.6038375"><ele>568.0</ele><time>2026-04-18T16:44:20.158Z</time></trkpt><trkpt lat="43.4768943" lon="10.6037974"><ele>568.0</ele><time>2026-04-18T16:44:22.168Z</time></trkpt><trkpt lat="43.4769697" lon="10.6037439"><ele>568.0</ele><time>2026-04-18T16:44:24.162Z</time></trkpt><trkpt lat="43.4770642" lon="10.6036813"><ele>568.0</ele><time>2026-04-18T16:44:26.152Z</time></trkpt><trkpt lat="43.4771295" lon="10.6036592"><ele>568.0</ele><time>2026-04-18T16:44:27.163Z</time></trkpt><trkpt lat="43.4772045" lon="10.6036414"><ele>566.7142857142857</ele><time>2026-04-18T16:44:28.169Z</time></trkpt><trkpt lat="43.4772742" lon="10.6036213"><ele>565.4285714285713</ele><time>2026-04-18T16:44:29.17Z</time></trkpt><trkpt lat="43.4773416" lon="10.6036"><ele>564.1428571428571</ele><time>2026-04-18T16:44:30.172Z</time></trkpt><trkpt lat="43.4774075" lon="10.6035814"><ele>562.8571428571429</ele><time>2026-04-18T16:44:31.172Z</time></trkpt><trkpt lat="43.477474" lon="10.6035435"><ele>561.5714285714287</ele><time>2026-04-18T16:44:32.162Z</time></trkpt><trkpt lat="43.4775415" lon="10.6035008"><ele>560.2857142857143</ele><time>2026-04-18T16:44:33.178Z</time></trkpt><trkpt lat="43.4776086" lon="10.6034472"><ele>559.0</ele><time>2026-04-18T16:44:34.166Z</time></trkpt><trkpt lat="43.4776689" lon="10.60337"><ele>559.0</ele><time>2026-04-18T16:44:35.174Z</time></trkpt><trkpt lat="43.4777228" lon="10.6032905"><ele>559.0</ele><time>2026-04-18T16:44:36.169Z</time></trkpt><trkpt lat="43.477771" lon="10.6032039"><ele>559.0</ele><time>2026-04-18T16:44:37.156Z</time></trkpt><trkpt lat="43.4778282" lon="10.6031104"><ele>559.0</ele><time>2026-04-18T16:44:38.173Z</time></trkpt><trkpt lat="43.4778941" lon="10.6030252"><ele>559.0</ele><time>2026-04-18T16:44:39.163Z</time></trkpt><trkpt lat="43.4779627" lon="10.6029415"><ele>559.0</ele><time>2026-04-18T16:44:40.156Z</time></trkpt><trkpt lat="43.4780292" lon="10.6028611"><ele>557.0</ele><time>2026-04-18T16:44:41.167Z</time></trkpt><trkpt lat="43.4780866" lon="10.6027655"><ele>555.0</ele><time>2026-04-18T16:44:42.16Z</time></trkpt><trkpt lat="43.4781347" lon="10.6026686"><ele>553.0</ele><time>2026-04-18T16:44:43.149Z</time></trkpt><trkpt lat="43.4781767" lon="10.6025802"><ele>551.0</ele><time>2026-04-18T16:44:44.173Z</time></trkpt><trkpt lat="43.4782119" lon="10.6024818"><ele>549.0</ele><time>2026-04-18T16:44:45.161Z</time></trkpt><trkpt lat="43.4782563" lon="10.6023658"><ele>547.0</ele><time>2026-04-18T16:44:46.16Z</time></trkpt><trkpt lat="43.4783023" lon="10.6022655"><ele>547.0</ele><time>2026-04-18T16:44:47.157Z</time></trkpt><trkpt lat="43.4783629" lon="10.602169"><ele>547.0</ele><time>2026-04-18T16:44:48.177Z</time></trkpt><trkpt lat="43.4784335" lon="10.6020807"><ele>547.0</ele><time>2026-04-18T16:44:49.154Z</time></trkpt><trkpt lat="43.4785058" lon="10.6020054"><ele>547.0</ele><time>2026-04-18T16:44:50.161Z</time></trkpt><trkpt lat="43.4785721" lon="10.6019332"><ele>547.0</ele><time>2026-04-18T16:44:51.171Z</time></trkpt><trkpt lat="43.478642" lon="10.6018704"><ele>547.0</ele><time>2026-04-18T16:44:52.175Z</time></trkpt><trkpt lat="43.4787179" lon="10.6018066"><ele>546.3333333333334</ele><time>2026-04-18T16:44:53.174Z</time></trkpt><trkpt lat="43.4787974" lon="10.6017755"><ele>545.6666666666667</ele><time>2026-04-18T16:44:54.184Z</time></trkpt><trkpt lat="43.4788778" lon="10.6017676"><ele>545.0</ele><time>2026-04-18T16:44:55.157Z</time></trkpt><trkpt lat="43.4789691" lon="10.6017883"><ele>544.3333333333334</ele><time>2026-04-18T16:44:56.168Z</time></trkpt><trkpt lat="43.4790633" lon="10.601817"><ele>543.6666666666666</ele><time>2026-04-18T16:44:57.162Z</time></trkpt><trkpt lat="43.479145" lon="10.6018439"><ele>543.0</ele><time>2026-04-18T16:44:58.166Z</time></trkpt><trkpt lat="43.4792242" lon="10.6018436"><ele>543.0</ele><time>2026-04-18T16:44:59.168Z</time></trkpt><trkpt lat="43.4792883" lon="10.6017961"><ele>543.0</ele><time>2026-04-18T16:45:00.173Z</time></trkpt><trkpt lat="43.4793527" lon="10.6017075"><ele>543.0</ele><time>2026-04-18T16:45:01.179Z</time></trkpt><trkpt lat="43.4794135" lon="10.6016128"><ele>543.0</ele><time>2026-04-18T16:45:02.16Z</time></trkpt><trkpt lat="43.4794762" lon="10.601503"><ele>543.0</ele><time>2026-04-18T16:45:03.16Z</time></trkpt><trkpt lat="43.4795429" lon="10.6013897"><ele>541.1999999999999</ele><time>2026-04-18T16:45:04.17Z</time></trkpt><trkpt lat="43.4796191" lon="10.6013064"><ele>539.4</ele><time>2026-04-18T16:45:05.174Z</time></trkpt><trkpt lat="43.4796891" lon="10.6012187"><ele>537.5999999999999</ele><time>2026-04-18T16:45:06.184Z</time></trkpt><trkpt lat="43.4797675" lon="10.6011335"><ele>535.8</ele><time>2026-04-18T16:45:07.188Z</time></trkpt><trkpt lat="43.4798438" lon="10.6010558"><ele>534.0</ele><time>2026-04-18T16:45:08.159Z</time></trkpt><trkpt lat="43.4799095" lon="10.6009804"><ele>534.0</ele><time>2026-04-18T16:45:09.171Z</time></trkpt><trkpt lat="43.4799574" lon="10.6008888"><ele>534.0</ele><time>2026-04-18T16:45:10.171Z</time></trkpt><trkpt lat="43.4799711" lon="10.6007799"><ele>534.0</ele><time>2026-04-18T16:45:11.156Z</time></trkpt><trkpt lat="43.4799774" lon="10.600648"><ele>534.0</ele><time>2026-04-18T16:45:12.161Z</time></trkpt><trkpt lat="43.4799771" lon="10.6005126"><ele>534.0</ele><time>2026-04-18T16:45:13.161Z</time></trkpt><trkpt lat="43.4799882" lon="10.6003606"><ele>533.2</ele><time>2026-04-18T16:45:14.171Z</time></trkpt><trkpt lat="43.480019" lon="10.6002247"><ele>532.4</ele><time>2026-04-18T16:45:15.175Z</time></trkpt><trkpt lat="43.4800786" lon="10.6001099"><ele>531.6</ele><time>2026-04-18T16:45:16.169Z</time></trkpt><trkpt lat="43.4801444" lon="10.5999966"><ele>530.8</ele><time>2026-04-18T16:45:17.169Z</time></trkpt><trkpt lat="43.4802268" lon="10.5998889"><ele>530.0</ele><time>2026-04-18T16:45:18.164Z</time></trkpt><trkpt lat="43.4803146" lon="10.5998088"><ele>530.0</ele><time>2026-04-18T16:45:19.16Z</time></trkpt><trkpt lat="43.4804216" lon="10.599747"><ele>530.0</ele><time>2026-04-18T16:45:20.174Z</time></trkpt><trkpt lat="43.4805089" lon="10.5996846"><ele>530.0</ele><time>2026-04-18T16:45:21.166Z</time></trkpt><trkpt lat="43.4806061" lon="10.5996506"><ele>530.0</ele><time>2026-04-18T16:45:22.164Z</time></trkpt><trkpt lat="43.4807013" lon="10.599619"><ele>530.0</ele><time>2026-04-18T16:45:23.16Z</time></trkpt><trkpt lat="43.4807975" lon="10.5995871"><ele>529.3333333333333</ele><time>2026-04-18T16:45:24.16Z</time></trkpt><trkpt lat="43.4808844" lon="10.5995598"><ele>528.6666666666666</ele><time>2026-04-18T16:45:25.165Z</time></trkpt><trkpt lat="43.480959" lon="10.5995242"><ele>528.0</ele><time>2026-04-18T16:45:26.169Z</time></trkpt><trkpt lat="43.4810298" lon="10.5994968"><ele>527.3333333333334</ele><time>2026-04-18T16:45:27.168Z</time></trkpt><trkpt lat="43.4811068" lon="10.5994705"><ele>526.6666666666667</ele><time>2026-04-18T16:45:28.175Z</time></trkpt><trkpt lat="43.4811929" lon="10.5994462"><ele>526.0</ele><time>2026-04-18T16:45:29.173Z</time></trkpt><trkpt lat="43.4812841" lon="10.5994195"><ele>522.5</ele><time>2026-04-18T16:45:30.159Z</time></trkpt><trkpt lat="43.4813853" lon="10.5993975"><ele>519.0</ele><time>2026-04-18T16:45:31.173Z</time></trkpt><trkpt lat="43.4815023" lon="10.5993844"><ele>515.5</ele><time>2026-04-18T16:45:32.164Z</time></trkpt><trkpt lat="43.4816279" lon="10.5993854"><ele>512.0</ele><time>2026-04-18T16:45:33.169Z</time></trkpt><trkpt lat="43.4817587" lon="10.5993857"><ele>512.0</ele><time>2026-04-18T16:45:34.161Z</time></trkpt><trkpt lat="43.481891" lon="10.5993706"><ele>512.0</ele><time>2026-04-18T16:45:35.154Z</time></trkpt><trkpt lat="43.4820215" lon="10.5993585"><ele>512.0</ele><time>2026-04-18T16:45:36.158Z</time></trkpt><trkpt lat="43.4821453" lon="10.5993554"><ele>512.0</ele><time>2026-04-18T16:45:37.155Z</time></trkpt><trkpt lat="43.4822703" lon="10.5993594"><ele>508.0</ele><time>2026-04-18T16:45:38.171Z</time></trkpt><trkpt lat="43.4823974" lon="10.59938"><ele>504.0</ele><time>2026-04-18T16:45:39.155Z</time></trkpt><trkpt lat="43.4825253" lon="10.5994314"><ele>500.0</ele><time>2026-04-18T16:45:40.167Z</time></trkpt><trkpt lat="43.4826527" lon="10.5995162"><ele>496.0</ele><time>2026-04-18T16:45:41.17Z</time></trkpt><trkpt lat="43.4827853" lon="10.5996108"><ele>496.25</ele><time>2026-04-18T16:45:42.161Z</time></trkpt><trkpt lat="43.4829252" lon="10.5996925"><ele>496.5</ele><time>2026-04-18T16:45:43.157Z</time></trkpt><trkpt lat="43.4830561" lon="10.5997702"><ele>496.75</ele><time>2026-04-18T16:45:44.163Z</time></trkpt><trkpt lat="43.4831876" lon="10.5998514"><ele>497.0</ele><time>2026-04-18T16:45:45.162Z</time></trkpt><trkpt lat="43.4833086" lon="10.5999139"><ele>497.0</ele><time>2026-04-18T16:45:46.174Z</time></trkpt><trkpt lat="43.4834307" lon="10.5999716"><ele>497.0</ele><time>2026-04-18T16:45:47.168Z</time></trkpt><trkpt lat="43.4835464" lon="10.600026"><ele>497.0</ele><time>2026-04-18T16:45:48.169Z</time></trkpt><trkpt lat="43.4836588" lon="10.6000767"><ele>497.0</ele><time>2026-04-18T16:45:49.167Z</time></trkpt><trkpt lat="43.4837778" lon="10.6001048"><ele>498.5</ele><time>2026-04-18T16:45:50.15Z</time></trkpt><trkpt lat="43.4839018" lon="10.6001122"><ele>500.0</ele><time>2026-04-18T16:45:51.161Z</time></trkpt><trkpt lat="43.4840245" lon="10.6000997"><ele>501.5</ele><time>2026-04-18T16:45:52.165Z</time></trkpt><trkpt lat="43.4841369" lon="10.600091"><ele>503.0</ele><time>2026-04-18T16:45:53.17Z</time></trkpt><trkpt lat="43.4842384" lon="10.6000775"><ele>503.0</ele><time>2026-04-18T16:45:54.164Z</time></trkpt><trkpt lat="43.4843375" lon="10.6000598"><ele>503.0</ele><time>2026-04-18T16:45:55.178Z</time></trkpt><trkpt lat="43.4844497" lon="10.6000439"><ele>503.0</ele><time>2026-04-18T16:45:56.156Z</time></trkpt><trkpt lat="43.4845679" lon="10.6000361"><ele>503.0</ele><time>2026-04-18T16:45:57.168Z</time></trkpt><trkpt lat="43.4846945" lon="10.6000393"><ele>503.5</ele><time>2026-04-18T16:45:58.159Z</time></trkpt><trkpt lat="43.4848086" lon="10.6000198"><ele>504.0</ele><time>2026-04-18T16:45:59.156Z</time></trkpt><trkpt lat="43.4849238" lon="10.5999914"><ele>504.5</ele><time>2026-04-18T16:46:00.151Z</time></trkpt><trkpt lat="43.4850342" lon="10.5999618"><ele>505.0</ele><time>2026-04-18T16:46:01.16Z</time></trkpt><trkpt lat="43.48515" lon="10.5999328"><ele>505.00000000000006</ele><time>2026-04-18T16:46:02.159Z</time></trkpt><trkpt lat="43.4852327" lon="10.5999077"><ele>505.0</ele><time>2026-04-18T16:46:03.157Z</time></trkpt><trkpt lat="43.4852955" lon="10.5998941"><ele>505.0</ele><time>2026-04-18T16:46:04.148Z</time></trkpt><trkpt lat="43.4853639" lon="10.5998541"><ele>505.0</ele><time>2026-04-18T16:46:06.174Z</time></trkpt><trkpt lat="43.4854338" lon="10.5998136"><ele>505.00000000000006</ele><time>2026-04-18T16:46:08.174Z</time></trkpt><trkpt lat="43.4855359" lon="10.5997701"><ele>505.0</ele><time>2026-04-18T16:46:10.185Z</time></trkpt><trkpt lat="43.4855983" lon="10.5997388"><ele>505.4</ele><time>2026-04-18T16:46:11.162Z</time></trkpt><trkpt lat="43.4856579" lon="10.5997072"><ele>505.8</ele><time>2026-04-18T16:46:12.155Z</time></trkpt><trkpt lat="43.4857285" lon="10.5996754"><ele>506.20000000000005</ele><time>2026-04-18T16:46:13.169Z</time></trkpt><trkpt lat="43.4858094" lon="10.5996563"><ele>506.6</ele><time>2026-04-18T16:46:14.16Z</time></trkpt><trkpt lat="43.4859218" lon="10.5996585"><ele>507.0</ele><time>2026-04-18T16:46:15.159Z</time></trkpt><trkpt lat="43.4860481" lon="10.599679"><ele>507.0</ele><time>2026-04-18T16:46:16.158Z</time></trkpt><trkpt lat="43.4861939" lon="10.5997123"><ele>507.0</ele><time>2026-04-18T16:46:17.157Z</time></trkpt><trkpt lat="43.486337" lon="10.5997387"><ele>507.0</ele><time>2026-04-18T16:46:18.165Z</time></trkpt><trkpt lat="43.4864818" lon="10.599763"><ele>507.0</ele><time>2026-04-18T16:46:19.153Z</time></trkpt><trkpt lat="43.4866105" lon="10.5997868"><ele>506.0</ele><time>2026-04-18T16:46:20.166Z</time></trkpt><trkpt lat="43.4867246" lon="10.5997921"><ele>505.00000000000006</ele><time>2026-04-18T16:46:21.159Z</time></trkpt><trkpt lat="43.4868306" lon="10.5997871"><ele>504.00000000000006</ele><time>2026-04-18T16:46:22.165Z</time></trkpt><trkpt lat="43.4869394" lon="10.5997691"><ele>503.0</ele><time>2026-04-18T16:46:23.159Z</time></trkpt><trkpt lat="43.4870422" lon="10.5996973"><ele>502.0</ele><time>2026-04-18T16:46:24.164Z</time></trkpt><trkpt lat="43.4871544" lon="10.5995878"><ele>500.0</ele><time>2026-04-18T16:46:25.148Z</time></trkpt><trkpt lat="43.4872375" lon="10.5994669"><ele>498.0</ele><time>2026-04-18T16:46:26.154Z</time></trkpt><trkpt lat="43.4873373" lon="10.599325"><ele>496.0</ele><time>2026-04-18T16:46:27.17Z</time></trkpt><trkpt lat="43.4874354" lon="10.5991947"><ele>494.0</ele><time>2026-04-18T16:46:28.157Z</time></trkpt><trkpt lat="43.487529" lon="10.5990695"><ele>494.0</ele><time>2026-04-18T16:46:29.162Z</time></trkpt><trkpt lat="43.4876318" lon="10.5989617"><ele>494.0</ele><time>2026-04-18T16:46:30.154Z</time></trkpt><trkpt lat="43.4877302" lon="10.5988328"><ele>494.0</ele><time>2026-04-18T16:46:31.162Z</time></trkpt><trkpt lat="43.48779" lon="10.5987022"><ele>494.0</ele><time>2026-04-18T16:46:32.159Z</time></trkpt><trkpt lat="43.4878399" lon="10.5985747"><ele>493.79999999999995</ele><time>2026-04-18T16:46:33.16Z</time></trkpt><trkpt lat="43.4878946" lon="10.5984308"><ele>493.59999999999997</ele><time>2026-04-18T16:46:34.172Z</time></trkpt><trkpt lat="43.4879359" lon="10.5982997"><ele>493.4</ele><time>2026-04-18T16:46:35.166Z</time></trkpt><trkpt lat="43.4879834" lon="10.5981593"><ele>493.2</ele><time>2026-04-18T16:46:36.17Z</time></trkpt><trkpt lat="43.4880467" lon="10.5980276"><ele>493.0</ele><time>2026-04-18T16:46:37.166Z</time></trkpt><trkpt lat="43.4881109" lon="10.5978943"><ele>493.4</ele><time>2026-04-18T16:46:38.172Z</time></trkpt><trkpt lat="43.4881878" lon="10.5977785"><ele>493.79999999999995</ele><time>2026-04-18T16:46:39.16Z</time></trkpt><trkpt lat="43.4882667" lon="10.5976649"><ele>494.2</ele><time>2026-04-18T16:46:40.174Z</time></trkpt><trkpt lat="43.4883377" lon="10.5975584"><ele>494.6</ele><time>2026-04-18T16:46:41.165Z</time></trkpt><trkpt lat="43.4883998" lon="10.5974482"><ele>495.0</ele><time>2026-04-18T16:46:42.167Z</time></trkpt><trkpt lat="43.488449" lon="10.5973129"><ele>495.0</ele><time>2026-04-18T16:46:43.163Z</time></trkpt><trkpt lat="43.4884812" lon="10.5972095"><ele>495.0</ele><time>2026-04-18T16:46:44.167Z</time></trkpt><trkpt lat="43.4885061" lon="10.5971069"><ele>495.0</ele><time>2026-04-18T16:46:45.169Z</time></trkpt><trkpt lat="43.4885412" lon="10.597013"><ele>495.0</ele><time>2026-04-18T16:46:46.186Z</time></trkpt><trkpt lat="43.4885805" lon="10.596899"><ele>495.0</ele><time>2026-04-18T16:46:47.164Z</time></trkpt><trkpt lat="43.4886318" lon="10.5967865"><ele>495.0</ele><time>2026-04-18T16:46:48.172Z</time></trkpt><trkpt lat="43.4886886" lon="10.5966691"><ele>494.4</ele><time>2026-04-18T16:46:49.164Z</time></trkpt><trkpt lat="43.4887498" lon="10.5965595"><ele>493.8</ele><time>2026-04-18T16:46:50.161Z</time></trkpt><trkpt lat="43.4888278" lon="10.5964603"><ele>493.20000000000005</ele><time>2026-04-18T16:46:51.15Z</time></trkpt><trkpt lat="43.4889156" lon="10.5963888"><ele>492.6</ele><time>2026-04-18T16:46:52.174Z</time></trkpt><trkpt lat="43.4890151" lon="10.5963556"><ele>492.0</ele><time>2026-04-18T16:46:53.169Z</time></trkpt><trkpt lat="43.4891171" lon="10.5963658"><ele>492.0</ele><time>2026-04-18T16:46:54.176Z</time></trkpt><trkpt lat="43.4892254" lon="10.5964089"><ele>492.0</ele><time>2026-04-18T16:46:55.166Z</time></trkpt><trkpt lat="43.489339" lon="10.5964732"><ele>492.0</ele><time>2026-04-18T16:46:56.162Z</time></trkpt><trkpt lat="43.4894482" lon="10.5965235"><ele>492.0</ele><time>2026-04-18T16:46:57.167Z</time></trkpt><trkpt lat="43.4895658" lon="10.5965508"><ele>492.0</ele><time>2026-04-18T16:46:58.171Z</time></trkpt><trkpt lat="43.4896773" lon="10.5965681"><ele>492.00000000000006</ele><time>2026-04-18T16:46:59.176Z</time></trkpt><trkpt lat="43.4897864" lon="10.5965783"><ele>492.00000000000006</ele><time>2026-04-18T16:47:00.18Z</time></trkpt><trkpt lat="43.4898861" lon="10.596576"><ele>492.0</ele><time>2026-04-18T16:47:01.171Z</time></trkpt><trkpt lat="43.4899783" lon="10.5965558"><ele>492.0</ele><time>2026-04-18T16:47:02.174Z</time></trkpt><trkpt lat="43.4900699" lon="10.5965176"><ele>492.0</ele><time>2026-04-18T16:47:03.177Z</time></trkpt><trkpt lat="43.4901632" lon="10.5964542"><ele>492.00000000000006</ele><time>2026-04-18T16:47:04.181Z</time></trkpt><trkpt lat="43.4902599" lon="10.5963864"><ele>492.00000000000006</ele><time>2026-04-18T16:47:05.18Z</time></trkpt><trkpt lat="43.490352" lon="10.5963413"><ele>492.0</ele><time>2026-04-18T16:47:06.167Z</time></trkpt><trkpt lat="43.4904345" lon="10.5963188"><ele>492.0</ele><time>2026-04-18T16:47:07.161Z</time></trkpt><trkpt lat="43.4905151" lon="10.5963072"><ele>491.6</ele><time>2026-04-18T16:47:08.166Z</time></trkpt><trkpt lat="43.4906052" lon="10.5963187"><ele>491.20000000000005</ele><time>2026-04-18T16:47:09.177Z</time></trkpt><trkpt lat="43.4907026" lon="10.5963365"><ele>490.8</ele><time>2026-04-18T16:47:10.173Z</time></trkpt><trkpt lat="43.4908065" lon="10.5963413"><ele>490.4</ele><time>2026-04-18T16:47:11.17Z</time></trkpt><trkpt lat="43.4909196" lon="10.5963432"><ele>490.0</ele><time>2026-04-18T16:47:12.16Z</time></trkpt><trkpt lat="43.4910278" lon="10.5963436"><ele>490.0</ele><time>2026-04-18T16:47:13.167Z</time></trkpt><trkpt lat="43.4911198" lon="10.5963418"><ele>490.0</ele><time>2026-04-18T16:47:14.174Z</time></trkpt><trkpt lat="43.4912102" lon="10.5963437"><ele>490.0</ele><time>2026-04-18T16:47:15.17Z</time></trkpt><trkpt lat="43.4913026" lon="10.5963597"><ele>490.0</ele><time>2026-04-18T16:47:16.171Z</time></trkpt><trkpt lat="43.4913959" lon="10.5963945"><ele>490.0</ele><time>2026-04-18T16:47:17.174Z</time></trkpt><trkpt lat="43.491484" lon="10.5964478"><ele>489.33333333333337</ele><time>2026-04-18T16:47:18.15Z</time></trkpt><trkpt lat="43.4915708" lon="10.5965062"><ele>488.6666666666667</ele><time>2026-04-18T16:47:19.177Z</time></trkpt><trkpt lat="43.4916602" lon="10.5965673"><ele>488.0</ele><time>2026-04-18T16:47:20.16Z</time></trkpt><trkpt lat="43.4917428" lon="10.5966289"><ele>487.33333333333337</ele><time>2026-04-18T16:47:21.16Z</time></trkpt><trkpt lat="43.4918074" lon="10.5966891"><ele>486.6666666666667</ele><time>2026-04-18T16:47:22.159Z</time></trkpt><trkpt lat="43.491852" lon="10.5967507"><ele>486.0</ele><time>2026-04-18T16:47:23.159Z</time></trkpt><trkpt lat="43.4918806" lon="10.5968296"><ele>485.4</ele><time>2026-04-18T16:47:24.164Z</time></trkpt><trkpt lat="43.4919089" lon="10.5970063"><ele>484.8</ele><time>2026-04-18T16:47:26.166Z</time></trkpt><trkpt lat="43.4919118" lon="10.5971179"><ele>484.19999999999993</ele><time>2026-04-18T16:47:27.159Z</time></trkpt><trkpt lat="43.4919243" lon="10.5972376"><ele>483.59999999999997</ele><time>2026-04-18T16:47:28.169Z</time></trkpt><trkpt lat="43.4919529" lon="10.5973668"><ele>483.0</ele><time>2026-04-18T16:47:29.154Z</time></trkpt><trkpt lat="43.4919782" lon="10.5974911"><ele>483.0</ele><time>2026-04-18T16:47:30.162Z</time></trkpt><trkpt lat="43.4919954" lon="10.597621"><ele>482.99999999999994</ele><time>2026-04-18T16:47:31.165Z</time></trkpt><trkpt lat="43.4920178" lon="10.597767"><ele>482.99999999999994</ele><time>2026-04-18T16:47:32.159Z</time></trkpt><trkpt lat="43.4920386" lon="10.5979057"><ele>483.0</ele><time>2026-04-18T16:47:33.164Z</time></trkpt><trkpt lat="43.4920626" lon="10.5980302"><ele>483.0</ele><time>2026-04-18T16:47:34.172Z</time></trkpt><trkpt lat="43.4920804" lon="10.598134"><ele>481.8333333333333</ele><time>2026-04-18T16:47:35.165Z</time></trkpt><trkpt lat="43.4920937" lon="10.598235"><ele>480.66666666666663</ele><time>2026-04-18T16:47:36.182Z</time></trkpt><trkpt lat="43.492079" lon="10.5983318"><ele>479.5</ele><time>2026-04-18T16:47:37.177Z</time></trkpt><trkpt lat="43.4920657" lon="10.598438"><ele>478.3333333333333</ele><time>2026-04-18T16:47:38.16Z</time></trkpt><trkpt lat="43.4920412" lon="10.5985541"><ele>477.16666666666663</ele><time>2026-04-18T16:47:39.169Z</time></trkpt><trkpt lat="43.4920194" lon="10.5986591"><ele>476.0</ele><time>2026-04-18T16:47:40.181Z</time></trkpt><trkpt lat="43.4919986" lon="10.59876"><ele>474.66666666666663</ele><time>2026-04-18T16:47:41.166Z</time></trkpt><trkpt lat="43.4919832" lon="10.5988684"><ele>473.3333333333333</ele><time>2026-04-18T16:47:42.172Z</time></trkpt><trkpt lat="43.4919742" lon="10.5989732"><ele>472.0</ele><time>2026-04-18T16:47:43.173Z</time></trkpt><trkpt lat="43.4919739" lon="10.5990791"><ele>470.66666666666663</ele><time>2026-04-18T16:47:44.173Z</time></trkpt><trkpt lat="43.4919784" lon="10.5991923"><ele>469.3333333333333</ele><time>2026-04-18T16:47:45.166Z</time></trkpt><trkpt lat="43.4919815" lon="10.5993049"><ele>468.0</ele><time>2026-04-18T16:47:46.165Z</time></trkpt><trkpt lat="43.4919779" lon="10.5994097"><ele>467.8333333333333</ele><time>2026-04-18T16:47:47.173Z</time></trkpt><trkpt lat="43.4919792" lon="10.5995134"><ele>467.66666666666663</ele><time>2026-04-18T16:47:48.173Z</time></trkpt><trkpt lat="43.4919802" lon="10.5996258"><ele>467.5</ele><time>2026-04-18T16:47:49.172Z</time></trkpt><trkpt lat="43.4920086" lon="10.599728"><ele>467.3333333333333</ele><time>2026-04-18T16:47:50.164Z</time></trkpt><trkpt lat="43.4920523" lon="10.5998278"><ele>467.16666666666663</ele><time>2026-04-18T16:47:51.16Z</time></trkpt><trkpt lat="43.4921184" lon="10.5999002"><ele>467.0</ele><time>2026-04-18T16:47:52.17Z</time></trkpt><trkpt lat="43.4922033" lon="10.5999604"><ele>466.99999999999994</ele><time>2026-04-18T16:47:53.162Z</time></trkpt><trkpt lat="43.4922915" lon="10.6000154"><ele>467.0</ele><time>2026-04-18T16:47:54.168Z</time></trkpt><trkpt lat="43.4923633" lon="10.6000777"><ele>467.0</ele><time>2026-04-18T16:47:55.173Z</time></trkpt><trkpt lat="43.4924122" lon="10.6001505"><ele>467.0</ele><time>2026-04-18T16:47:56.174Z</time></trkpt><trkpt lat="43.4924409" lon="10.6002288"><ele>466.99999999999994</ele><time>2026-04-18T16:47:57.17Z</time></trkpt><trkpt lat="43.4924651" lon="10.6003183"><ele>467.0</ele><time>2026-04-18T16:47:59.172Z</time></trkpt><trkpt lat="43.4924684" lon="10.6004175"><ele>466.3333333333333</ele><time>2026-04-18T16:49:44.176Z</time></trkpt><trkpt lat="43.4924823" lon="10.6005224"><ele>465.66666666666663</ele><time>2026-04-18T16:49:48.164Z</time></trkpt><trkpt lat="43.4925257" lon="10.6005994"><ele>465.0</ele><time>2026-04-18T16:49:50.176Z</time></trkpt><trkpt lat="43.4925916" lon="10.6007009"><ele>464.33333333333337</ele><time>2026-04-18T16:49:52.137Z</time></trkpt><trkpt lat="43.4926381" lon="10.600761"><ele>463.6666666666667</ele><time>2026-04-18T16:49:53.155Z</time></trkpt><trkpt lat="43.4927004" lon="10.6008538"><ele>463.0</ele><time>2026-04-18T16:49:54.167Z</time></trkpt><trkpt lat="43.4927627" lon="10.6009595"><ele>463.00000000000006</ele><time>2026-04-18T16:49:55.164Z</time></trkpt><trkpt lat="43.4928274" lon="10.601049"><ele>463.0</ele><time>2026-04-18T16:49:56.161Z</time></trkpt><trkpt lat="43.4928805" lon="10.6011178"><ele>463.0</ele><time>2026-04-18T16:49:57.168Z</time></trkpt><trkpt lat="43.4929355" lon="10.601165"><ele>463.0</ele><time>2026-04-18T16:49:58.152Z</time></trkpt><trkpt lat="43.4930348" lon="10.6012117"><ele>463.00000000000006</ele><time>2026-04-18T16:50:00.165Z</time></trkpt><trkpt lat="43.493111" lon="10.601253"><ele>463.0</ele><time>2026-04-18T16:50:02.148Z</time></trkpt><trkpt lat="43.4931779" lon="10.6012912"><ele>463.59999999999997</ele><time>2026-04-18T16:50:04.167Z</time></trkpt><trkpt lat="43.4932423" lon="10.6013566"><ele>464.19999999999993</ele><time>2026-04-18T16:50:06.176Z</time></trkpt><trkpt lat="43.4933042" lon="10.6014365"><ele>464.8</ele><time>2026-04-18T16:50:08.174Z</time></trkpt><trkpt lat="43.4933729" lon="10.6015367"><ele>465.4</ele><time>2026-04-18T16:50:10.166Z</time></trkpt><trkpt lat="43.4934619" lon="10.601644"><ele>466.0</ele><time>2026-04-18T16:50:12.156Z</time></trkpt><trkpt lat="43.4935465" lon="10.6017671"><ele>466.00000000000006</ele><time>2026-04-18T16:50:14.17Z</time></trkpt><trkpt lat="43.4935922" lon="10.601839"><ele>466.0</ele><time>2026-04-18T16:50:15.164Z</time></trkpt><trkpt lat="43.4936337" lon="10.6019207"><ele>466.0</ele><time>2026-04-18T16:50:16.167Z</time></trkpt><trkpt lat="43.4936695" lon="10.6019964"><ele>466.0</ele><time>2026-04-18T16:50:17.171Z</time></trkpt><trkpt lat="43.4937218" lon="10.6021242"><ele>466.00000000000006</ele><time>2026-04-18T16:50:19.167Z</time></trkpt><trkpt lat="43.4937523" lon="10.6022362"><ele>466.0</ele><time>2026-04-18T16:50:21.179Z</time></trkpt><trkpt lat="43.4937665" lon="10.6023336"><ele>466.50000000000006</ele><time>2026-04-18T16:50:24.17Z</time></trkpt><trkpt lat="43.4937797" lon="10.6024199"><ele>467.0</ele><time>2026-04-18T16:50:29.16Z</time></trkpt><trkpt lat="43.4937921" lon="10.6025199"><ele>467.5</ele><time>2026-04-18T16:50:31.168Z</time></trkpt><trkpt lat="43.4938152" lon="10.6026534"><ele>468.0</ele><time>2026-04-18T16:50:33.161Z</time></trkpt><trkpt lat="43.4938352" lon="10.6027904"><ele>468.50000000000006</ele><time>2026-04-18T16:50:35.177Z</time></trkpt><trkpt lat="43.4938659" lon="10.6029231"><ele>469.0</ele><time>2026-04-18T16:50:37.16Z</time></trkpt><trkpt lat="43.4939311" lon="10.603055"><ele>469.0</ele><time>2026-04-18T16:50:39.17Z</time></trkpt><trkpt lat="43.4939998" lon="10.6031648"><ele>469.0</ele><time>2026-04-18T16:50:41.183Z</time></trkpt><trkpt lat="43.4940616" lon="10.6032798"><ele>469.0</ele><time>2026-04-18T16:50:43.167Z</time></trkpt><trkpt lat="43.4941167" lon="10.6033833"><ele>469.0</ele><time>2026-04-18T16:50:45.163Z</time></trkpt><trkpt lat="43.4941717" lon="10.6034735"><ele>469.0</ele><time>2026-04-18T16:50:47.165Z</time></trkpt><trkpt lat="43.4942253" lon="10.60356"><ele>469.0</ele><time>2026-04-18T16:50:49.172Z</time></trkpt><trkpt lat="43.4942738" lon="10.6036457"><ele>469.0</ele><time>2026-04-18T16:50:52.178Z</time></trkpt><trkpt lat="43.4943227" lon="10.6037166"><ele>469.0</ele><time>2026-04-18T16:50:55.175Z</time></trkpt><trkpt lat="43.4943675" lon="10.6037997"><ele>469.0</ele><time>2026-04-18T16:50:58.174Z</time></trkpt><trkpt lat="43.4944155" lon="10.6038797"><ele>469.0</ele><time>2026-04-18T16:51:00.157Z</time></trkpt><trkpt lat="43.4944793" lon="10.6039517"><ele>469.0</ele><time>2026-04-18T16:51:02.156Z</time></trkpt><trkpt lat="43.4945333" lon="10.6039996"><ele>469.0</ele><time>2026-04-18T16:51:04.173Z</time></trkpt><trkpt lat="43.4945954" lon="10.6040456"><ele>469.00000000000006</ele><time>2026-04-18T16:51:06.16Z</time></trkpt><trkpt lat="43.4946453" lon="10.6041138"><ele>469.0</ele><time>2026-04-18T16:51:09.165Z</time></trkpt><trkpt lat="43.4947097" lon="10.6041487"><ele>469.0</ele><time>2026-04-18T16:51:31.161Z</time></trkpt><trkpt lat="43.4947932" lon="10.6040971"><ele>469.0</ele><time>2026-04-18T16:51:34.177Z</time></trkpt><trkpt lat="43.4948748" lon="10.6040794"><ele>469.00000000000006</ele><time>2026-04-18T16:51:37.168Z</time></trkpt><trkpt lat="43.4949621" lon="10.6040597"><ele>469.0</ele><time>2026-04-18T16:51:40.157Z</time></trkpt><trkpt lat="43.495047" lon="10.6040547"><ele>469.0</ele><time>2026-04-18T16:51:42.179Z</time></trkpt><trkpt lat="43.4951311" lon="10.604072"><ele>469.0</ele><time>2026-04-18T16:51:44.164Z</time></trkpt><trkpt lat="43.4952214" lon="10.6041589"><ele>469.0</ele><time>2026-04-18T16:51:46.169Z</time></trkpt><trkpt lat="43.4952911" lon="10.604305"><ele>469.0</ele><time>2026-04-18T16:51:48.171Z</time></trkpt><trkpt lat="43.4953263" lon="10.6043882"><ele>469.0</ele><time>2026-04-18T16:51:49.169Z</time></trkpt><trkpt lat="43.4953514" lon="10.6044714"><ele>467.79999999999995</ele><time>2026-04-18T16:51:50.163Z</time></trkpt><trkpt lat="43.495372" lon="10.6045593"><ele>466.59999999999997</ele><time>2026-04-18T16:51:51.171Z</time></trkpt><trkpt lat="43.4953957" lon="10.6047239"><ele>465.4</ele><time>2026-04-18T16:51:53.161Z</time></trkpt><trkpt lat="43.4954127" lon="10.6048888"><ele>464.2</ele><time>2026-04-18T16:51:55.16Z</time></trkpt><trkpt lat="43.495419" lon="10.6050541"><ele>463.0</ele><time>2026-04-18T16:51:57.189Z</time></trkpt><trkpt lat="43.495417" lon="10.6051467"><ele>463.00000000000006</ele><time>2026-04-18T16:51:58.174Z</time></trkpt><trkpt lat="43.4954196" lon="10.6052418"><ele>463.0</ele><time>2026-04-18T16:51:59.185Z</time></trkpt><trkpt lat="43.4954336" lon="10.6053311"><ele>463.0</ele><time>2026-04-18T16:52:00.17Z</time></trkpt><trkpt lat="43.4954573" lon="10.6054189"><ele>463.0</ele><time>2026-04-18T16:52:01.168Z</time></trkpt><trkpt lat="43.4954841" lon="10.6054979"><ele>463.00000000000006</ele><time>2026-04-18T16:52:02.169Z</time></trkpt><trkpt lat="43.4955369" lon="10.6056392"><ele>463.0</ele><time>2026-04-18T16:52:04.182Z</time></trkpt><trkpt lat="43.4955752" lon="10.6057577"><ele>463.2857142857143</ele><time>2026-04-18T16:52:06.166Z</time></trkpt><trkpt lat="43.4956257" lon="10.6058288"><ele>463.57142857142856</ele><time>2026-04-18T16:52:08.158Z</time></trkpt><trkpt lat="43.4956559" lon="10.605912"><ele>463.85714285714283</ele><time>2026-04-18T16:52:10.166Z</time></trkpt><trkpt lat="43.4956889" lon="10.6059864"><ele>464.1428571428571</ele><time>2026-04-18T16:52:12.149Z</time></trkpt><trkpt lat="43.4957244" lon="10.6060586"><ele>464.42857142857144</ele><time>2026-04-18T16:52:18.163Z</time></trkpt><trkpt lat="43.4957341" lon="10.6061501"><ele>464.71428571428567</ele><time>2026-04-18T16:52:46.177Z</time></trkpt><trkpt lat="43.495743" lon="10.606271"><ele>465.0</ele><time>2026-04-18T16:52:53.172Z</time></trkpt><trkpt lat="43.4957498" lon="10.6063649"><ele>465.5</ele><time>2026-04-18T16:52:55.183Z</time></trkpt><trkpt lat="43.4957501" lon="10.6064802"><ele>466.0</ele><time>2026-04-18T16:52:58.169Z</time></trkpt><trkpt lat="43.4957323" lon="10.6065838"><ele>466.5</ele><time>2026-04-18T16:53:02.169Z</time></trkpt><trkpt lat="43.4957293" lon="10.6066715"><ele>467.0</ele><time>2026-04-18T16:53:20.175Z</time></trkpt><trkpt lat="43.4957525" lon="10.6067581"><ele>467.5</ele><time>2026-04-18T16:53:26.158Z</time></trkpt><trkpt lat="43.4958214" lon="10.6067736"><ele>468.0</ele><time>2026-04-18T16:53:30.175Z</time></trkpt><trkpt lat="43.4959141" lon="10.6067934"><ele>468.0</ele><time>2026-04-18T16:53:40.164Z</time></trkpt><trkpt lat="43.4959854" lon="10.6067826"><ele>468.0</ele><time>2026-04-18T16:53:42.177Z</time></trkpt><trkpt lat="43.4960753" lon="10.6067852"><ele>468.0</ele><time>2026-04-18T16:53:44.173Z</time></trkpt><trkpt lat="43.4961702" lon="10.6067906"><ele>468.0</ele><time>2026-04-18T16:53:46.165Z</time></trkpt><trkpt lat="43.4962476" lon="10.6068031"><ele>468.0</ele><time>2026-04-18T16:53:48.168Z</time></trkpt><trkpt lat="43.4963321" lon="10.6068251"><ele>468.0</ele><time>2026-04-18T16:53:51.169Z</time></trkpt><trkpt lat="43.4963924" lon="10.6068939"><ele>467.8571428571429</ele><time>2026-04-18T16:53:54.172Z</time></trkpt><trkpt lat="43.49642" lon="10.606974"><ele>467.7142857142858</ele><time>2026-04-18T16:53:57.162Z</time></trkpt><trkpt lat="43.49643" lon="10.6070742"><ele>467.57142857142856</ele><time>2026-04-18T16:54:01.159Z</time></trkpt><trkpt lat="43.4964225" lon="10.6071635"><ele>467.42857142857144</ele><time>2026-04-18T16:54:04.171Z</time></trkpt><trkpt lat="43.4963976" lon="10.6072463"><ele>467.2857142857143</ele><time>2026-04-18T16:54:07.17Z</time></trkpt><trkpt lat="43.4963846" lon="10.6073415"><ele>467.1428571428571</ele><time>2026-04-18T16:54:11.169Z</time></trkpt><trkpt lat="43.4963641" lon="10.6074512"><ele>466.99999999999994</ele><time>2026-04-18T16:54:15.174Z</time></trkpt><trkpt lat="43.4963572" lon="10.6075434"><ele>466.99999999999994</ele><time>2026-04-18T16:54:18.183Z</time></trkpt><trkpt lat="43.4963725" lon="10.6076488"><ele>467.0</ele><time>2026-04-18T16:54:24.172Z</time></trkpt><trkpt lat="43.4963784" lon="10.6077405"><ele>466.99999999999994</ele><time>2026-04-18T16:54:28.167Z</time></trkpt><trkpt lat="43.4963877" lon="10.6078364"><ele>466.99999999999994</ele><time>2026-04-18T16:54:32.168Z</time></trkpt><trkpt lat="43.4963753" lon="10.6079301"><ele>467.0</ele><time>2026-04-18T16:54:37.174Z</time></trkpt><trkpt lat="43.4963586" lon="10.6080289"><ele>466.99999999999994</ele><time>2026-04-18T16:54:40.183Z</time></trkpt><trkpt lat="43.4963236" lon="10.6081458"><ele>466.99999999999994</ele><time>2026-04-18T16:54:43.162Z</time></trkpt><trkpt lat="43.49629" lon="10.6082195"><ele>466.2857142857142</ele><time>2026-04-18T16:54:45.173Z</time></trkpt><trkpt lat="43.4962437" lon="10.6083087"><ele>465.57142857142856</ele><time>2026-04-18T16:54:48.17Z</time></trkpt><trkpt lat="43.4961919" lon="10.6083874"><ele>464.85714285714283</ele><time>2026-04-18T16:54:51.162Z</time></trkpt><trkpt lat="43.4961489" lon="10.6084763"><ele>464.1428571428571</ele><time>2026-04-18T16:54:55.168Z</time></trkpt><trkpt lat="43.49611" lon="10.6085479"><ele>463.42857142857144</ele><time>2026-04-18T16:54:58.162Z</time></trkpt><trkpt lat="43.4960897" lon="10.6086436"><ele>462.7142857142857</ele><time>2026-04-18T16:55:03.174Z</time></trkpt><trkpt lat="43.4960797" lon="10.6087448"><ele>462.0</ele><time>2026-04-18T16:55:08.165Z</time></trkpt><trkpt lat="43.4960559" lon="10.6088643"><ele>462.0</ele><time>2026-04-18T16:55:12.164Z</time></trkpt><trkpt lat="43.4960233" lon="10.6089551"><ele>462.0</ele><time>2026-04-18T16:55:20.163Z</time></trkpt><trkpt lat="43.4959916" lon="10.6090395"><ele>462.0</ele><time>2026-04-18T16:55:23.18Z</time></trkpt><trkpt lat="43.4959489" lon="10.6091378"><ele>462.0</ele><time>2026-04-18T16:55:26.167Z</time></trkpt><trkpt lat="43.4959158" lon="10.6092529"><ele>462.0</ele><time>2026-04-18T16:55:29.18Z</time></trkpt><trkpt lat="43.4959008" lon="10.6093411"><ele>462.0</ele><time>2026-04-18T16:55:31.174Z</time></trkpt><trkpt lat="43.4959171" lon="10.6094425"><ele>460.3333333333333</ele><time>2026-04-18T16:55:33.159Z</time></trkpt><trkpt lat="43.4959513" lon="10.6095286"><ele>458.66666666666663</ele><time>2026-04-18T16:55:35.166Z</time></trkpt><trkpt lat="43.4959929" lon="10.6096023"><ele>457.0</ele><time>2026-04-18T16:55:37.164Z</time></trkpt><trkpt lat="43.496039" lon="10.6096788"><ele>455.3333333333333</ele><time>2026-04-18T16:55:39.156Z</time></trkpt><trkpt lat="43.4960887" lon="10.6097608"><ele>453.66666666666663</ele><time>2026-04-18T16:55:41.182Z</time></trkpt><trkpt lat="43.4961593" lon="10.6098425"><ele>452.0</ele><time>2026-04-18T16:55:44.166Z</time></trkpt><trkpt lat="43.4962204" lon="10.6099369"><ele>452.16666666666663</ele><time>2026-04-18T16:55:47.161Z</time></trkpt><trkpt lat="43.4962787" lon="10.6100144"><ele>452.3333333333333</ele><time>2026-04-18T16:55:50.151Z</time></trkpt><trkpt lat="43.4963408" lon="10.6100964"><ele>452.5</ele><time>2026-04-18T16:55:54.174Z</time></trkpt><trkpt lat="43.4963999" lon="10.6101721"><ele>452.66666666666663</ele><time>2026-04-18T16:55:57.185Z</time></trkpt><trkpt lat="43.4964574" lon="10.610247"><ele>452.8333333333333</ele><time>2026-04-18T16:56:01.173Z</time></trkpt><trkpt lat="43.4965033" lon="10.6103108"><ele>453.0</ele><time>2026-04-18T16:56:04.164Z</time></trkpt><trkpt lat="43.4965529" lon="10.6103856"><ele>453.0</ele><time>2026-04-18T16:56:08.153Z</time></trkpt><trkpt lat="43.4965914" lon="10.6104627"><ele>453.0</ele><time>2026-04-18T16:56:11.163Z</time></trkpt><trkpt lat="43.4966374" lon="10.6105621"><ele>453.0</ele><time>2026-04-18T16:56:15.151Z</time></trkpt><trkpt lat="43.4966797" lon="10.6106574"><ele>453.0</ele><time>2026-04-18T16:56:18.161Z</time></trkpt><trkpt lat="43.4967296" lon="10.6107469"><ele>453.0</ele><time>2026-04-18T16:56:21.163Z</time></trkpt><trkpt lat="43.4967809" lon="10.610838"><ele>453.0</ele><time>2026-04-18T16:56:24.168Z</time></trkpt><trkpt lat="43.4968345" lon="10.6109325"><ele>453.0</ele><time>2026-04-18T16:56:27.171Z</time></trkpt><trkpt lat="43.4968905" lon="10.6110227"><ele>453.0</ele><time>2026-04-18T16:56:30.16Z</time></trkpt><trkpt lat="43.4969384" lon="10.6111052"><ele>453.0</ele><time>2026-04-18T16:56:33.159Z</time></trkpt><trkpt lat="43.4969864" lon="10.6111979"><ele>453.0</ele><time>2026-04-18T16:56:36.173Z</time></trkpt><trkpt lat="43.4970088" lon="10.6113143"><ele>453.0</ele><time>2026-04-18T16:56:39.164Z</time></trkpt><trkpt lat="43.4970101" lon="10.611404"><ele>453.0</ele><time>2026-04-18T16:56:41.161Z</time></trkpt><trkpt lat="43.4970075" lon="10.6114918"><ele>450.3333333333333</ele><time>2026-04-18T16:56:43.163Z</time></trkpt><trkpt lat="43.4970054" lon="10.6116089"><ele>447.66666666666663</ele><time>2026-04-18T16:56:46.166Z</time></trkpt><trkpt lat="43.4969981" lon="10.6117147"><ele>445.0</ele><time>2026-04-18T16:56:49.179Z</time></trkpt><trkpt lat="43.496996" lon="10.6118426"><ele>442.3333333333333</ele><time>2026-04-18T16:56:52.167Z</time></trkpt><trkpt lat="43.4969985" lon="10.6119614"><ele>439.66666666666663</ele><time>2026-04-18T16:56:55.173Z</time></trkpt><trkpt lat="43.4970159" lon="10.6120464"><ele>437.0</ele><time>2026-04-18T16:56:57.182Z</time></trkpt><trkpt lat="43.4970623" lon="10.6121425"><ele>436.66666666666663</ele><time>2026-04-18T16:57:00.158Z</time></trkpt><trkpt lat="43.4971094" lon="10.6122358"><ele>436.3333333333333</ele><time>2026-04-18T16:57:03.174Z</time></trkpt><trkpt lat="43.4971426" lon="10.6123317"><ele>436.0</ele><time>2026-04-18T16:57:06.177Z</time></trkpt><trkpt lat="43.4971632" lon="10.61243"><ele>435.66666666666663</ele><time>2026-04-18T16:57:09.159Z</time></trkpt><trkpt lat="43.4972043" lon="10.6125185"><ele>435.3333333333333</ele><time>2026-04-18T16:57:12.171Z</time></trkpt><trkpt lat="43.4972669" lon="10.6126091"><ele>435.0</ele><time>2026-04-18T16:57:15.18Z</time></trkpt><trkpt lat="43.4973352" lon="10.6126765"><ele>435.0</ele><time>2026-04-18T16:57:18.18Z</time></trkpt><trkpt lat="43.4974047" lon="10.6127314"><ele>435.0</ele><time>2026-04-18T16:57:22.158Z</time></trkpt><trkpt lat="43.497456" lon="10.612794"><ele>435.0</ele><time>2026-04-18T16:57:25.173Z</time></trkpt><trkpt lat="43.4975134" lon="10.6128651"><ele>435.0</ele><time>2026-04-18T16:57:28.165Z</time></trkpt><trkpt lat="43.4975813" lon="10.6129513"><ele>435.0</ele><time>2026-04-18T16:57:31.165Z</time></trkpt><trkpt lat="43.4976294" lon="10.6130088"><ele>435.0</ele><time>2026-04-18T16:57:33.16Z</time></trkpt><trkpt lat="43.4977114" lon="10.6130847"><ele>433.0</ele><time>2026-04-18T16:57:36.18Z</time></trkpt><trkpt lat="43.4977832" lon="10.6131598"><ele>431.0</ele><time>2026-04-18T16:57:38.173Z</time></trkpt><trkpt lat="43.4978561" lon="10.6132437"><ele>429.0</ele><time>2026-04-18T16:57:40.174Z</time></trkpt><trkpt lat="43.4979262" lon="10.6133196"><ele>427.0</ele><time>2026-04-18T16:57:42.166Z</time></trkpt><trkpt lat="43.4979909" lon="10.6133897"><ele>425.0</ele><time>2026-04-18T16:57:44.156Z</time></trkpt><trkpt lat="43.4980495" lon="10.613475"><ele>423.0</ele><time>2026-04-18T16:57:46.17Z</time></trkpt><trkpt lat="43.4980904" lon="10.6135534"><ele>422.5</ele><time>2026-04-18T16:57:48.157Z</time></trkpt><trkpt lat="43.4981248" lon="10.6136282"><ele>422.0</ele><time>2026-04-18T16:57:50.169Z</time></trkpt><trkpt lat="43.4981591" lon="10.613742"><ele>421.5</ele><time>2026-04-18T16:57:53.171Z</time></trkpt><trkpt lat="43.4981952" lon="10.6138558"><ele>421.0</ele><time>2026-04-18T16:57:56.173Z</time></trkpt><trkpt lat="43.4982248" lon="10.6139506"><ele>420.5</ele><time>2026-04-18T16:57:58.161Z</time></trkpt><trkpt lat="43.4982589" lon="10.6140412"><ele>420.0</ele><time>2026-04-18T16:58:00.162Z</time></trkpt><trkpt lat="43.4982905" lon="10.6141487"><ele>420.0</ele><time>2026-04-18T16:58:02.166Z</time></trkpt><trkpt lat="43.4983361" lon="10.6142532"><ele>420.0</ele><time>2026-04-18T16:58:04.17Z</time></trkpt><trkpt lat="43.4983841" lon="10.6143497"><ele>420.0</ele><time>2026-04-18T16:58:06.164Z</time></trkpt><trkpt lat="43.4984132" lon="10.6144284"><ele>420.0</ele><time>2026-04-18T16:58:08.181Z</time></trkpt><trkpt lat="43.4984541" lon="10.6145515"><ele>420.0</ele><time>2026-04-18T16:58:11.158Z</time></trkpt><trkpt lat="43.498496" lon="10.6146543"><ele>420.0</ele><time>2026-04-18T16:58:13.163Z</time></trkpt><trkpt lat="43.4985333" lon="10.6147695"><ele>420.0</ele><time>2026-04-18T16:58:15.15Z</time></trkpt><trkpt lat="43.4985628" lon="10.6148824"><ele>420.0</ele><time>2026-04-18T16:58:17.159Z</time></trkpt><trkpt lat="43.4986088" lon="10.6149767"><ele>420.0</ele><time>2026-04-18T16:58:19.167Z</time></trkpt><trkpt lat="43.4986722" lon="10.6150469"><ele>420.0</ele><time>2026-04-18T16:58:21.165Z</time></trkpt><trkpt lat="43.4987406" lon="10.6150691"><ele>420.0</ele><time>2026-04-18T16:58:24.161Z</time></trkpt><trkpt lat="43.4988102" lon="10.615085"><ele>420.0</ele><time>2026-04-18T16:58:29.164Z</time></trkpt><trkpt lat="43.4988695" lon="10.6151196"><ele>418.7142857142857</ele><time>2026-04-18T16:58:44.154Z</time></trkpt><trkpt lat="43.4989265" lon="10.6151659"><ele>417.42857142857144</ele><time>2026-04-18T16:58:50.147Z</time></trkpt><trkpt lat="43.4990135" lon="10.6152065"><ele>416.1428571428571</ele><time>2026-04-18T16:59:06.157Z</time></trkpt><trkpt lat="43.4990711" lon="10.6152442"><ele>414.8571428571429</ele><time>2026-04-18T16:59:16.161Z</time></trkpt><trkpt lat="43.4991055" lon="10.6153178"><ele>413.57142857142856</ele><time>2026-04-18T16:59:27.164Z</time></trkpt><trkpt lat="43.4991392" lon="10.6153964"><ele>412.2857142857143</ele><time>2026-04-18T16:59:53.151Z</time></trkpt><trkpt lat="43.4991335" lon="10.6154945"><ele>411.0</ele><time>2026-04-18T16:59:59.162Z</time></trkpt><trkpt lat="43.4991128" lon="10.6155789"><ele>410.2857142857143</ele><time>2026-04-18T17:00:06.167Z</time></trkpt><trkpt lat="43.4991041" lon="10.6156783"><ele>409.57142857142856</ele><time>2026-04-18T17:00:21.174Z</time></trkpt><trkpt lat="43.4990622" lon="10.6157576"><ele>408.8571428571429</ele><time>2026-04-18T17:00:26.153Z</time></trkpt><trkpt lat="43.4990176" lon="10.6158434"><ele>408.1428571428571</ele><time>2026-04-18T17:00:31.16Z</time></trkpt><trkpt lat="43.4989751" lon="10.6159348"><ele>407.42857142857144</ele><time>2026-04-18T17:00:35.174Z</time></trkpt><trkpt lat="43.4989513" lon="10.6160212"><ele>406.7142857142857</ele><time>2026-04-18T17:00:38.169Z</time></trkpt><trkpt lat="43.4989813" lon="10.6161006"><ele>406.0</ele><time>2026-04-18T17:00:41.159Z</time></trkpt><trkpt lat="43.4990504" lon="10.6161477"><ele>404.1666666666667</ele><time>2026-04-18T17:00:44.163Z</time></trkpt><trkpt lat="43.4991197" lon="10.6161826"><ele>402.33333333333337</ele><time>2026-04-18T17:00:47.167Z</time></trkpt><trkpt lat="43.4991821" lon="10.616213"><ele>400.5</ele><time>2026-04-18T17:00:49.169Z</time></trkpt><trkpt lat="43.499275" lon="10.6162587"><ele>398.66666666666663</ele><time>2026-04-18T17:00:52.157Z</time></trkpt><trkpt lat="43.4993627" lon="10.6162772"><ele>396.8333333333333</ele><time>2026-04-18T17:00:54.147Z</time></trkpt><trkpt lat="43.4994569" lon="10.6162736"><ele>395.0</ele><time>2026-04-18T17:00:56.159Z</time></trkpt><trkpt lat="43.4995506" lon="10.6162798"><ele>395.66666666666663</ele><time>2026-04-18T17:00:58.161Z</time></trkpt><trkpt lat="43.4996327" lon="10.6162899"><ele>396.3333333333333</ele><time>2026-04-18T17:01:00.167Z</time></trkpt><trkpt lat="43.4997141" lon="10.616328"><ele>397.0</ele><time>2026-04-18T17:01:02.175Z</time></trkpt><trkpt lat="43.4997962" lon="10.6163561"><ele>397.66666666666663</ele><time>2026-04-18T17:01:04.159Z</time></trkpt><trkpt lat="43.4998611" lon="10.6163765"><ele>398.3333333333333</ele><time>2026-04-18T17:01:06.169Z</time></trkpt><trkpt lat="43.4999356" lon="10.6163665"><ele>399.0</ele><time>2026-04-18T17:01:08.165Z</time></trkpt><trkpt lat="43.5000187" lon="10.6163382"><ele>399.0</ele><time>2026-04-18T17:01:11.166Z</time></trkpt><trkpt lat="43.5000853" lon="10.6163011"><ele>399.0</ele><time>2026-04-18T17:01:14.161Z</time></trkpt><trkpt lat="43.5001433" lon="10.6162548"><ele>399.0</ele><time>2026-04-18T17:01:17.157Z</time></trkpt><trkpt lat="43.5001977" lon="10.6161954"><ele>399.0</ele><time>2026-04-18T17:01:20.158Z</time></trkpt><trkpt lat="43.5002609" lon="10.6161374"><ele>399.0</ele><time>2026-04-18T17:01:23.177Z</time></trkpt><trkpt lat="43.5003202" lon="10.6161053"><ele>399.0</ele><time>2026-04-18T17:01:26.16Z</time></trkpt><trkpt lat="43.5004026" lon="10.6160943"><ele>399.0</ele><time>2026-04-18T17:01:30.158Z</time></trkpt><trkpt lat="43.5004805" lon="10.6161374"><ele>396.8333333333333</ele><time>2026-04-18T17:01:34.167Z</time></trkpt><trkpt lat="43.500546" lon="10.6161959"><ele>394.66666666666663</ele><time>2026-04-18T17:01:37.163Z</time></trkpt><trkpt lat="43.5006049" lon="10.6162707"><ele>392.5</ele><time>2026-04-18T17:01:40.164Z</time></trkpt><trkpt lat="43.5006794" lon="10.616321"><ele>390.3333333333333</ele><time>2026-04-18T17:01:43.163Z</time></trkpt><trkpt lat="43.5007527" lon="10.6163287"><ele>388.16666666666663</ele><time>2026-04-18T17:01:46.154Z</time></trkpt><trkpt lat="43.5008235" lon="10.6163078"><ele>386.0</ele><time>2026-04-18T17:01:49.165Z</time></trkpt><trkpt lat="43.5008958" lon="10.616303"><ele>385.99999999999994</ele><time>2026-04-18T17:01:52.161Z</time></trkpt><trkpt lat="43.5009568" lon="10.6162784"><ele>386.0</ele><time>2026-04-18T17:01:55.164Z</time></trkpt><trkpt lat="43.5010245" lon="10.6162559"><ele>386.0</ele><time>2026-04-18T17:01:58.171Z</time></trkpt><trkpt lat="43.5011023" lon="10.6162394"><ele>386.0</ele><time>2026-04-18T17:02:01.165Z</time></trkpt><trkpt lat="43.5011893" lon="10.6162135"><ele>385.99999999999994</ele><time>2026-04-18T17:02:04.157Z</time></trkpt><trkpt lat="43.5012611" lon="10.6161601"><ele>386.0</ele><time>2026-04-18T17:02:07.156Z</time></trkpt><trkpt lat="43.5013288" lon="10.6160845"><ele>387.28571428571433</ele><time>2026-04-18T17:02:10.155Z</time></trkpt><trkpt lat="43.5013741" lon="10.6160008"><ele>388.57142857142856</ele><time>2026-04-18T17:02:12.16Z</time></trkpt><trkpt lat="43.5014179" lon="10.6159306"><ele>389.8571428571429</ele><time>2026-04-18T17:02:14.163Z</time></trkpt><trkpt lat="43.5014692" lon="10.6158705"><ele>391.14285714285717</ele><time>2026-04-18T17:02:17.156Z</time></trkpt><trkpt lat="43.5015224" lon="10.6158239"><ele>392.42857142857144</ele><time>2026-04-18T17:02:25.148Z</time></trkpt><trkpt lat="43.5015883" lon="10.6157602"><ele>393.7142857142857</ele><time>2026-04-18T17:02:31.158Z</time></trkpt><trkpt lat="43.5016458" lon="10.6157235"><ele>395.0</ele><time>2026-04-18T17:02:36.166Z</time></trkpt><trkpt lat="43.5017123" lon="10.6157031"><ele>395.0</ele><time>2026-04-18T17:02:42.147Z</time></trkpt><trkpt lat="43.5017778" lon="10.6156704"><ele>395.0</ele><time>2026-04-18T17:02:47.155Z</time></trkpt><trkpt lat="43.5018441" lon="10.6156456"><ele>395.0</ele><time>2026-04-18T17:02:53.158Z</time></trkpt><trkpt lat="43.5019073" lon="10.6156723"><ele>395.0</ele><time>2026-04-18T17:02:57.164Z</time></trkpt><trkpt lat="43.5019799" lon="10.6156611"><ele>395.0</ele><time>2026-04-18T17:03:01.158Z</time></trkpt><trkpt lat="43.5020465" lon="10.6156457"><ele>395.0</ele><time>2026-04-18T17:03:04.174Z</time></trkpt><trkpt lat="43.5021143" lon="10.6156368"><ele>395.0</ele><time>2026-04-18T17:03:08.161Z</time></trkpt><trkpt lat="43.5021977" lon="10.6156442"><ele>393.8333333333333</ele><time>2026-04-18T17:03:12.166Z</time></trkpt><trkpt lat="43.5022679" lon="10.6156883"><ele>392.66666666666663</ele><time>2026-04-18T17:03:16.153Z</time></trkpt><trkpt lat="43.5023295" lon="10.6157146"><ele>391.5</ele><time>2026-04-18T17:03:19.167Z</time></trkpt><trkpt lat="43.5024191" lon="10.6157711"><ele>390.33333333333337</ele><time>2026-04-18T17:03:22.163Z</time></trkpt><trkpt lat="43.5024879" lon="10.6158235"><ele>389.1666666666667</ele><time>2026-04-18T17:03:23.167Z</time></trkpt><trkpt lat="43.5025902" lon="10.6158859"><ele>388.0</ele><time>2026-04-18T17:03:25.166Z</time></trkpt><trkpt lat="43.5026738" lon="10.6159178"><ele>388.0</ele><time>2026-04-18T17:03:27.157Z</time></trkpt><trkpt lat="43.5027411" lon="10.6159313"><ele>388.0</ele><time>2026-04-18T17:03:29.158Z</time></trkpt><trkpt lat="43.5028025" lon="10.6158996"><ele>388.0</ele><time>2026-04-18T17:03:31.158Z</time></trkpt><trkpt lat="43.5028571" lon="10.615851"><ele>388.0</ele><time>2026-04-18T17:03:33.172Z</time></trkpt><trkpt lat="43.5029109" lon="10.6157622"><ele>388.0</ele><time>2026-04-18T17:03:36.16Z</time></trkpt><trkpt lat="43.5029602" lon="10.6156735"><ele>388.0</ele><time>2026-04-18T17:03:39.182Z</time></trkpt><trkpt lat="43.5030221" lon="10.6156002"><ele>388.0</ele><time>2026-04-18T17:03:42.157Z</time></trkpt><trkpt lat="43.5030754" lon="10.6155481"><ele>387.00000000000006</ele><time>2026-04-18T17:03:45.164Z</time></trkpt><trkpt lat="43.5031407" lon="10.6155287"><ele>386.0</ele><time>2026-04-18T17:03:49.175Z</time></trkpt><trkpt lat="43.5032073" lon="10.6154962"><ele>385.0</ele><time>2026-04-18T17:03:53.161Z</time></trkpt><trkpt lat="43.5032781" lon="10.6154378"><ele>384.0</ele><time>2026-04-18T17:03:56.153Z</time></trkpt><trkpt lat="43.5033288" lon="10.6153717"><ele>383.0</ele><time>2026-04-18T17:03:58.171Z</time></trkpt><trkpt lat="43.5033777" lon="10.6152679"><ele>382.0</ele><time>2026-04-18T17:04:01.152Z</time></trkpt><trkpt lat="43.5034061" lon="10.6151635"><ele>382.0</ele><time>2026-04-18T17:04:04.169Z</time></trkpt><trkpt lat="43.5034383" lon="10.6150871"><ele>382.0</ele><time>2026-04-18T17:04:07.175Z</time></trkpt><trkpt lat="43.503481" lon="10.6149966"><ele>382.0</ele><time>2026-04-18T17:04:11.165Z</time></trkpt><trkpt lat="43.5035235" lon="10.6149297"><ele>382.0</ele><time>2026-04-18T17:04:15.159Z</time></trkpt><trkpt lat="43.5035685" lon="10.6148622"><ele>382.0</ele><time>2026-04-18T17:04:22.152Z</time></trkpt><trkpt lat="43.503646" lon="10.6148501"><ele>382.0</ele><time>2026-04-18T17:04:30.16Z</time></trkpt><trkpt lat="43.5037124" lon="10.6148441"><ele>382.0</ele><time>2026-04-18T17:04:46.168Z</time></trkpt><trkpt lat="43.5037811" lon="10.614827"><ele>379.7142857142857</ele><time>2026-04-18T17:04:56.159Z</time></trkpt><trkpt lat="43.5038424" lon="10.6147944"><ele>377.4285714285714</ele><time>2026-04-18T17:05:01.165Z</time></trkpt><trkpt lat="43.5039042" lon="10.6147553"><ele>375.1428571428571</ele><time>2026-04-18T17:05:08.159Z</time></trkpt><trkpt lat="43.503964" lon="10.6147268"><ele>372.8571428571429</ele><time>2026-04-18T17:05:13.168Z</time></trkpt><trkpt lat="43.5040444" lon="10.6147203"><ele>370.57142857142856</ele><time>2026-04-18T17:05:18.154Z</time></trkpt><trkpt lat="43.5041024" lon="10.6147613"><ele>368.2857142857143</ele><time>2026-04-18T17:05:21.153Z</time></trkpt><trkpt lat="43.5041558" lon="10.6148126"><ele>366.0</ele><time>2026-04-18T17:05:24.171Z</time></trkpt><trkpt lat="43.5042148" lon="10.6148674"><ele>366.0</ele><time>2026-04-18T17:05:27.162Z</time></trkpt><trkpt lat="43.5042677" lon="10.6149402"><ele>366.0</ele><time>2026-04-18T17:05:31.156Z</time></trkpt><trkpt lat="43.5043348" lon="10.6150039"><ele>366.0</ele><time>2026-04-18T17:05:36.149Z</time></trkpt><trkpt lat="43.5044016" lon="10.6150407"><ele>366.0</ele><time>2026-04-18T17:05:39.163Z</time></trkpt><trkpt lat="43.5044766" lon="10.6150775"><ele>366.0</ele><time>2026-04-18T17:05:42.161Z</time></trkpt><trkpt lat="43.5045536" lon="10.6151231"><ele>366.0</ele><time>2026-04-18T17:05:45.153Z</time></trkpt><trkpt lat="43.5046176" lon="10.6151552"><ele>363.57142857142856</ele><time>2026-04-18T17:05:47.163Z</time></trkpt><trkpt lat="43.5046865" lon="10.6151944"><ele>361.14285714285717</ele><time>2026-04-18T17:05:50.158Z</time></trkpt><trkpt lat="43.5047635" lon="10.6152205"><ele>358.71428571428567</ele><time>2026-04-18T17:05:54.156Z</time></trkpt><trkpt lat="43.5048214" lon="10.6151863"><ele>356.2857142857143</ele><time>2026-04-18T17:06:14.159Z</time></trkpt><trkpt lat="43.5048916" lon="10.6151849"><ele>353.85714285714283</ele><time>2026-04-18T17:06:22.154Z</time></trkpt><trkpt lat="43.5049532" lon="10.6151662"><ele>351.4285714285714</ele><time>2026-04-18T17:06:27.149Z</time></trkpt><trkpt lat="43.5050263" lon="10.6151685"><ele>349.0</ele><time>2026-04-18T17:06:33.156Z</time></trkpt><trkpt lat="43.5050903" lon="10.6151637"><ele>348.99999999999994</ele><time>2026-04-18T17:06:37.144Z</time></trkpt><trkpt lat="43.5051627" lon="10.6151376"><ele>349.0</ele><time>2026-04-18T17:06:41.148Z</time></trkpt><trkpt lat="43.5052342" lon="10.6150966"><ele>349.0</ele><time>2026-04-18T17:06:44.146Z</time></trkpt><trkpt lat="43.5052924" lon="10.6150584"><ele>349.0</ele><time>2026-04-18T17:06:46.165Z</time></trkpt><trkpt lat="43.5053601" lon="10.6150138"><ele>349.0</ele><time>2026-04-18T17:06:49.158Z</time></trkpt><trkpt lat="43.5054248" lon="10.6149558"><ele>348.99999999999994</ele><time>2026-04-18T17:06:52.159Z</time></trkpt><trkpt lat="43.5054824" lon="10.6148992"><ele>349.0</ele><time>2026-04-18T17:06:55.157Z</time></trkpt><trkpt lat="43.5055686" lon="10.6148745"><ele>346.16666666666663</ele><time>2026-04-18T17:06:58.147Z</time></trkpt><trkpt lat="43.5056349" lon="10.6148805"><ele>343.3333333333333</ele><time>2026-04-18T17:07:00.154Z</time></trkpt><trkpt lat="43.5057103" lon="10.6148976"><ele>340.5</ele><time>2026-04-18T17:07:03.155Z</time></trkpt><trkpt lat="43.5057846" lon="10.6149489"><ele>337.6666666666667</ele><time>2026-04-18T17:07:06.166Z</time></trkpt><trkpt lat="43.5058365" lon="10.6150077"><ele>334.83333333333337</ele><time>2026-04-18T17:07:09.152Z</time></trkpt><trkpt lat="43.505926" lon="10.6150011"><ele>332.0</ele><time>2026-04-18T17:07:12.157Z</time></trkpt><trkpt lat="43.5059977" lon="10.6149645"><ele>332.0</ele><time>2026-04-18T17:07:14.156Z</time></trkpt><trkpt lat="43.5060739" lon="10.614986"><ele>332.0</ele><time>2026-04-18T17:07:17.158Z</time></trkpt><trkpt lat="43.5061293" lon="10.6150587"><ele>332.0</ele><time>2026-04-18T17:07:24.168Z</time></trkpt><trkpt lat="43.5061838" lon="10.6151522"><ele>332.0</ele><time>2026-04-18T17:07:27.155Z</time></trkpt><trkpt lat="43.5062396" lon="10.6152866"><ele>332.0</ele><time>2026-04-18T17:07:29.16Z</time></trkpt><trkpt lat="43.5062767" lon="10.615373"><ele>332.0</ele><time>2026-04-18T17:07:30.171Z</time></trkpt><trkpt lat="43.5063212" lon="10.6154733"><ele>330.5</ele><time>2026-04-18T17:07:31.171Z</time></trkpt><trkpt lat="43.5063762" lon="10.6155805"><ele>329.0</ele><time>2026-04-18T17:07:32.158Z</time></trkpt><trkpt lat="43.5064304" lon="10.6156893"><ele>327.5</ele><time>2026-04-18T17:07:33.165Z</time></trkpt><trkpt lat="43.5064803" lon="10.6157999"><ele>326.0</ele><time>2026-04-18T17:07:34.164Z</time></trkpt><trkpt lat="43.5065407" lon="10.615868"><ele>324.5</ele><time>2026-04-18T17:07:35.187Z</time></trkpt><trkpt lat="43.5065919" lon="10.6159232"><ele>323.0</ele><time>2026-04-18T17:07:36.153Z</time></trkpt><trkpt lat="43.5066425" lon="10.6159775"><ele>323.0</ele><time>2026-04-18T17:07:37.151Z</time></trkpt><trkpt lat="43.5067316" lon="10.6160802"><ele>323.0</ele><time>2026-04-18T17:07:39.158Z</time></trkpt><trkpt lat="43.5068566" lon="10.6160809"><ele>323.0</ele><time>2026-04-18T17:07:41.161Z</time></trkpt><trkpt lat="43.5069265" lon="10.6160527"><ele>323.0</ele><time>2026-04-18T17:07:42.147Z</time></trkpt><trkpt lat="43.5070075" lon="10.6160312"><ele>323.0</ele><time>2026-04-18T17:07:43.162Z</time></trkpt><trkpt lat="43.5070889" lon="10.6160213"><ele>321.83333333333337</ele><time>2026-04-18T17:07:44.158Z</time></trkpt><trkpt lat="43.5071655" lon="10.6160073"><ele>320.6666666666667</ele><time>2026-04-18T17:07:45.157Z</time></trkpt><trkpt lat="43.5072522" lon="10.6159945"><ele>319.5</ele><time>2026-04-18T17:07:46.169Z</time></trkpt><trkpt lat="43.5073359" lon="10.6159786"><ele>318.3333333333333</ele><time>2026-04-18T17:07:47.151Z</time></trkpt><trkpt lat="43.5074123" lon="10.6159586"><ele>317.16666666666663</ele><time>2026-04-18T17:07:48.172Z</time></trkpt><trkpt lat="43.5074865" lon="10.615932"><ele>316.0</ele><time>2026-04-18T17:07:49.152Z</time></trkpt><trkpt lat="43.5075591" lon="10.6158858"><ele>316.0</ele><time>2026-04-18T17:07:50.154Z</time></trkpt><trkpt lat="43.5076523" lon="10.6158234"><ele>316.0</ele><time>2026-04-18T17:07:51.167Z</time></trkpt><trkpt lat="43.5077485" lon="10.6157592"><ele>316.0</ele><time>2026-04-18T17:07:52.163Z</time></trkpt><trkpt lat="43.5078443" lon="10.6157069"><ele>316.0</ele><time>2026-04-18T17:07:53.153Z</time></trkpt><trkpt lat="43.5079328" lon="10.6156755"><ele>316.0</ele><time>2026-04-18T17:07:54.17Z</time></trkpt><trkpt lat="43.5080243" lon="10.6156527"><ele>314.3333333333333</ele><time>2026-04-18T17:07:55.157Z</time></trkpt><trkpt lat="43.5081161" lon="10.6156272"><ele>312.66666666666663</ele><time>2026-04-18T17:07:56.169Z</time></trkpt><trkpt lat="43.5081991" lon="10.6155937"><ele>311.0</ele><time>2026-04-18T17:07:57.173Z</time></trkpt><trkpt lat="43.508275" lon="10.6155452"><ele>309.3333333333333</ele><time>2026-04-18T17:07:58.171Z</time></trkpt><trkpt lat="43.5083435" lon="10.615489"><ele>307.6666666666667</ele><time>2026-04-18T17:07:59.171Z</time></trkpt><trkpt lat="43.5084145" lon="10.6154244"><ele>306.0</ele><time>2026-04-18T17:08:00.167Z</time></trkpt><trkpt lat="43.5084754" lon="10.6153581"><ele>307.5</ele><time>2026-04-18T17:08:01.153Z</time></trkpt><trkpt lat="43.5085298" lon="10.6152718"><ele>309.0</ele><time>2026-04-18T17:08:02.166Z</time></trkpt><trkpt lat="43.5085817" lon="10.615199"><ele>310.5</ele><time>2026-04-18T17:08:03.17Z</time></trkpt><trkpt lat="43.508674" lon="10.6151315"><ele>312.0</ele><time>2026-04-18T17:08:05.161Z</time></trkpt><trkpt lat="43.5087381" lon="10.6151981"><ele>313.5</ele><time>2026-04-18T17:08:07.153Z</time></trkpt><trkpt lat="43.5087821" lon="10.6153259"><ele>315.0</ele><time>2026-04-18T17:08:09.164Z</time></trkpt><trkpt lat="43.5088117" lon="10.6154119"><ele>311.5</ele><time>2026-04-18T17:08:10.161Z</time></trkpt><trkpt lat="43.5088375" lon="10.6155084"><ele>308.0</ele><time>2026-04-18T17:08:11.167Z</time></trkpt><trkpt lat="43.5088667" lon="10.6156019"><ele>304.5</ele><time>2026-04-18T17:08:12.168Z</time></trkpt><trkpt lat="43.5088843" lon="10.6156941"><ele>301.0</ele><time>2026-04-18T17:08:13.163Z</time></trkpt><trkpt lat="43.5089012" lon="10.6157865"><ele>297.5</ele><time>2026-04-18T17:08:14.152Z</time></trkpt><trkpt lat="43.5089232" lon="10.615868"><ele>294.0</ele><time>2026-04-18T17:08:15.167Z</time></trkpt><trkpt lat="43.5089587" lon="10.6160088"><ele>294.0</ele><time>2026-04-18T17:08:17.171Z</time></trkpt><trkpt lat="43.5089906" lon="10.6161123"><ele>294.0</ele><time>2026-04-18T17:08:20.158Z</time></trkpt><trkpt lat="43.5090164" lon="10.6161976"><ele>294.0</ele><time>2026-04-18T17:08:22.162Z</time></trkpt><trkpt lat="43.5089979" lon="10.6163141"><ele>294.0</ele><time>2026-04-18T17:08:24.155Z</time></trkpt><trkpt lat="43.5089386" lon="10.6163441"><ele>294.0</ele><time>2026-04-18T17:08:52.151Z</time></trkpt><trkpt lat="43.5088784" lon="10.6163958"><ele>294.0</ele><time>2026-04-18T17:08:55.156Z</time></trkpt><trkpt lat="43.5088093" lon="10.6164759"><ele>294.4</ele><time>2026-04-18T17:08:57.148Z</time></trkpt><trkpt lat="43.5087117" lon="10.6166034"><ele>294.79999999999995</ele><time>2026-04-18T17:08:59.157Z</time></trkpt><trkpt lat="43.508645" lon="10.6166875"><ele>295.20000000000005</ele><time>2026-04-18T17:09:00.161Z</time></trkpt><trkpt lat="43.5085686" lon="10.6167709"><ele>295.6</ele><time>2026-04-18T17:09:01.163Z</time></trkpt><trkpt lat="43.5085076" lon="10.6168563"><ele>296.0</ele><time>2026-04-18T17:09:02.159Z</time></trkpt><trkpt lat="43.5084459" lon="10.6169447"><ele>294.6</ele><time>2026-04-18T17:09:03.16Z</time></trkpt><trkpt lat="43.5083875" lon="10.6170234"><ele>293.20000000000005</ele><time>2026-04-18T17:09:04.154Z</time></trkpt><trkpt lat="43.5083498" lon="10.6170943"><ele>291.79999999999995</ele><time>2026-04-18T17:09:05.16Z</time></trkpt><trkpt lat="43.508269" lon="10.6172234"><ele>290.4</ele><time>2026-04-18T17:09:07.161Z</time></trkpt><trkpt lat="43.5082106" lon="10.6173703"><ele>289.0</ele><time>2026-04-18T17:09:09.162Z</time></trkpt><trkpt lat="43.5081783" lon="10.6174522"><ele>289.0</ele><time>2026-04-18T17:09:10.154Z</time></trkpt><trkpt lat="43.5081495" lon="10.6175347"><ele>289.0</ele><time>2026-04-18T17:09:11.163Z</time></trkpt><trkpt lat="43.5081108" lon="10.617634"><ele>289.0</ele><time>2026-04-18T17:09:12.15Z</time></trkpt><trkpt lat="43.5080708" lon="10.6177387"><ele>289.0</ele><time>2026-04-18T17:09:13.16Z</time></trkpt><trkpt lat="43.5080318" lon="10.6178417"><ele>289.0</ele><time>2026-04-18T17:09:14.161Z</time></trkpt><trkpt lat="43.5079956" lon="10.6179312"><ele>289.0</ele><time>2026-04-18T17:09:15.161Z</time></trkpt><trkpt lat="43.5079539" lon="10.6180287"><ele>288.3333333333333</ele><time>2026-04-18T17:09:16.184Z</time></trkpt><trkpt lat="43.5079026" lon="10.6181291"><ele>287.66666666666663</ele><time>2026-04-18T17:09:17.167Z</time></trkpt><trkpt lat="43.5078555" lon="10.6182238"><ele>287.0</ele><time>2026-04-18T17:09:18.157Z</time></trkpt><trkpt lat="43.5078031" lon="10.6183104"><ele>286.3333333333333</ele><time>2026-04-18T17:09:19.164Z</time></trkpt><trkpt lat="43.5077448" lon="10.6183803"><ele>285.6666666666667</ele><time>2026-04-18T17:09:20.168Z</time></trkpt><trkpt lat="43.5076831" lon="10.6184518"><ele>285.0</ele><time>2026-04-18T17:09:21.162Z</time></trkpt><trkpt lat="43.507614" lon="10.618526"><ele>285.0</ele><time>2026-04-18T17:09:22.161Z</time></trkpt><trkpt lat="43.5075407" lon="10.6185964"><ele>285.0</ele><time>2026-04-18T17:09:23.166Z</time></trkpt><trkpt lat="43.5074624" lon="10.6186521"><ele>285.0</ele><time>2026-04-18T17:09:24.171Z</time></trkpt><trkpt lat="43.5073817" lon="10.6186873"><ele>285.0</ele><time>2026-04-18T17:09:25.168Z</time></trkpt><trkpt lat="43.5073067" lon="10.6187046"><ele>285.0</ele><time>2026-04-18T17:09:26.161Z</time></trkpt><trkpt lat="43.5072329" lon="10.6187279"><ele>285.0</ele><time>2026-04-18T17:09:27.15Z</time></trkpt><trkpt lat="43.5071578" lon="10.6187548"><ele>285.6666666666667</ele><time>2026-04-18T17:09:28.15Z</time></trkpt><trkpt lat="43.5070848" lon="10.6187941"><ele>286.3333333333333</ele><time>2026-04-18T17:09:29.163Z</time></trkpt><trkpt lat="43.5070186" lon="10.6188498"><ele>287.0</ele><time>2026-04-18T17:09:30.158Z</time></trkpt><trkpt lat="43.5069529" lon="10.61892"><ele>287.66666666666663</ele><time>2026-04-18T17:09:31.158Z</time></trkpt><trkpt lat="43.506902" lon="10.6189932"><ele>288.3333333333333</ele><time>2026-04-18T17:09:32.162Z</time></trkpt><trkpt lat="43.5068539" lon="10.6190656"><ele>289.0</ele><time>2026-04-18T17:09:33.156Z</time></trkpt><trkpt lat="43.5067625" lon="10.619166"><ele>289.0</ele><time>2026-04-18T17:09:35.154Z</time></trkpt><trkpt lat="43.5066772" lon="10.6192346"><ele>289.0</ele><time>2026-04-18T17:09:37.154Z</time></trkpt><trkpt lat="43.5065991" lon="10.6192778"><ele>289.0</ele><time>2026-04-18T17:09:39.155Z</time></trkpt><trkpt lat="43.5065329" lon="10.6192879"><ele>289.0</ele><time>2026-04-18T17:09:40.159Z</time></trkpt><trkpt lat="43.5064516" lon="10.6192813"><ele>289.0</ele><time>2026-04-18T17:09:41.156Z</time></trkpt><trkpt lat="43.5063778" lon="10.619281"><ele>289.0</ele><time>2026-04-18T17:09:42.159Z</time></trkpt><trkpt lat="43.5063027" lon="10.6192754"><ele>291.2</ele><time>2026-04-18T17:09:43.16Z</time></trkpt><trkpt lat="43.5062294" lon="10.6192733"><ele>293.4</ele><time>2026-04-18T17:09:44.167Z</time></trkpt><trkpt lat="43.5061204" lon="10.6193148"><ele>295.6</ele><time>2026-04-18T17:09:46.164Z</time></trkpt><trkpt lat="43.5060246" lon="10.6193466"><ele>297.8</ele><time>2026-04-18T17:09:48.163Z</time></trkpt><trkpt lat="43.5059262" lon="10.6193699"><ele>300.0</ele><time>2026-04-18T17:09:50.156Z</time></trkpt><trkpt lat="43.5058143" lon="10.6194089"><ele>300.0</ele><time>2026-04-18T17:09:52.16Z</time></trkpt><trkpt lat="43.5057109" lon="10.6194318"><ele>300.0</ele><time>2026-04-18T17:09:54.158Z</time></trkpt><trkpt lat="43.5056027" lon="10.6194122"><ele>300.0</ele><time>2026-04-18T17:09:56.178Z</time></trkpt><trkpt lat="43.505534" lon="10.6193916"><ele>300.0</ele><time>2026-04-18T17:09:57.15Z</time></trkpt><trkpt lat="43.5054661" lon="10.6193718"><ele>300.0</ele><time>2026-04-18T17:09:58.156Z</time></trkpt><trkpt lat="43.5053512" lon="10.6193517"><ele>301.5</ele><time>2026-04-18T17:10:00.165Z</time></trkpt><trkpt lat="43.5052626" lon="10.6193342"><ele>303.0</ele><time>2026-04-18T17:10:02.172Z</time></trkpt><trkpt lat="43.5051921" lon="10.6194096"><ele>304.5</ele><time>2026-04-18T17:10:05.153Z</time></trkpt><trkpt lat="43.505154" lon="10.6195092"><ele>306.0</ele><time>2026-04-18T17:10:07.148Z</time></trkpt><trkpt lat="43.5051124" lon="10.6195747"><ele>307.5</ele><time>2026-04-18T17:10:09.179Z</time></trkpt><trkpt lat="43.5050623" lon="10.6197309"><ele>309.0</ele><time>2026-04-18T17:10:12.164Z</time></trkpt><trkpt lat="43.5050219" lon="10.6198321"><ele>309.0</ele><time>2026-04-18T17:10:14.146Z</time></trkpt><trkpt lat="43.5049726" lon="10.6199504"><ele>309.0</ele><time>2026-04-18T17:10:16.148Z</time></trkpt><trkpt lat="43.5049305" lon="10.6200271"><ele>309.0</ele><time>2026-04-18T17:10:17.149Z</time></trkpt><trkpt lat="43.5048564" lon="10.6201111"><ele>309.0</ele><time>2026-04-18T17:10:19.157Z</time></trkpt><trkpt lat="43.5047747" lon="10.6202559"><ele>309.0</ele><time>2026-04-18T17:16:20.096Z</time></trkpt><trkpt lat="43.5046689" lon="10.6202563"><ele>309.0</ele><time>2026-04-18T17:16:58.766Z</time></trkpt><trkpt lat="43.5047463" lon="10.6202082"><ele>309.0</ele><time>2026-04-18T17:17:02.148Z</time></trkpt><trkpt lat="43.5047742" lon="10.6201128"><ele>309.0</ele><time>2026-04-18T17:17:10.153Z</time></trkpt><trkpt lat="43.50471" lon="10.6201101"><ele>309.0</ele><time>2026-04-18T17:18:48.302Z</time></trkpt><trkpt lat="43.5047193" lon="10.6201998"><ele>309.0</ele><time>2026-04-18T17:18:55.757Z</time></trkpt><trkpt lat="43.5047824" lon="10.620199"><ele>309.0</ele><time>2026-04-18T17:19:43.148Z</time></trkpt><trkpt lat="43.5047553" lon="10.6201193"><ele>309.0</ele><time>2026-04-18T17:19:58.15Z</time></trkpt></trkseg></trk></gpx>